<?xml version="1.0" encoding="UTF-8" standalone="no" ?>
<gpx xmlns="http://www.topografix.com/GPX/1/1" xmlns:xsi="http://www.w3.org/2001/XMLSchema-instance" xsi:schemaLocation="http://www.topografix.com/GPX/1/1 http://www.topografix.com/GPX/1/1/gpx.xsd" version="1.1" creator="VisuGPX - https://www.visugpx.com">
  <metadata>
    <name>MaizChatillonMoursBalmes le 7 mai 2022 13:31:15</name>
  </metadata>
  <trk>
    <name><![CDATA[MaizChatillonMoursBalmes le 7 mai 2022 13:31:15]]></name>
    <trkseg>
      <trkpt lat="45.11504" lon="5.31855">
        <ele>214.9</ele>
        <time>2022-05-07T11:31:23.000Z</time>
      </trkpt>
      <trkpt lat="45.11503" lon="5.31858">
        <ele>214.9</ele>
        <time>2022-05-07T11:31:24.000Z</time>
      </trkpt>
      <trkpt lat="45.11494" lon="5.31858">
        <ele>215</ele>
        <time>2022-05-07T11:31:25.000Z</time>
      </trkpt>
      <trkpt lat="45.11493" lon="5.31865">
        <ele>215</ele>
        <time>2022-05-07T11:31:27.000Z</time>
      </trkpt>
      <trkpt lat="45.11495" lon="5.3186">
        <ele>215</ele>
        <time>2022-05-07T11:31:28.000Z</time>
      </trkpt>
      <trkpt lat="45.11497" lon="5.31854">
        <ele>215</ele>
        <time>2022-05-07T11:31:30.000Z</time>
      </trkpt>
      <trkpt lat="45.11497" lon="5.31852">
        <ele>215</ele>
        <time>2022-05-07T11:31:31.000Z</time>
      </trkpt>
      <trkpt lat="45.11499" lon="5.31849">
        <ele>215</ele>
        <time>2022-05-07T11:31:33.000Z</time>
      </trkpt>
      <trkpt lat="45.11501" lon="5.31847">
        <ele>215</ele>
        <time>2022-05-07T11:31:34.000Z</time>
      </trkpt>
      <trkpt lat="45.11502" lon="5.31844">
        <ele>214.9</ele>
        <time>2022-05-07T11:31:35.000Z</time>
      </trkpt>
      <trkpt lat="45.11505" lon="5.3184">
        <ele>214.8</ele>
        <time>2022-05-07T11:31:37.000Z</time>
      </trkpt>
      <trkpt lat="45.11507" lon="5.31839">
        <ele>214.8</ele>
        <time>2022-05-07T11:31:38.000Z</time>
      </trkpt>
      <trkpt lat="45.11508" lon="5.31837">
        <ele>214.7</ele>
        <time>2022-05-07T11:31:39.000Z</time>
      </trkpt>
      <trkpt lat="45.1151" lon="5.31835">
        <ele>214.6</ele>
        <time>2022-05-07T11:31:40.000Z</time>
      </trkpt>
      <trkpt lat="45.11512" lon="5.31831">
        <ele>214.6</ele>
        <time>2022-05-07T11:31:41.000Z</time>
      </trkpt>
      <trkpt lat="45.11512" lon="5.31827">
        <ele>214.6</ele>
        <time>2022-05-07T11:31:42.000Z</time>
      </trkpt>
      <trkpt lat="45.1151" lon="5.31823">
        <ele>214.7</ele>
        <time>2022-05-07T11:31:43.000Z</time>
      </trkpt>
      <trkpt lat="45.11507" lon="5.3182">
        <ele>214.7</ele>
        <time>2022-05-07T11:31:44.000Z</time>
      </trkpt>
      <trkpt lat="45.11504" lon="5.31818">
        <ele>214.9</ele>
        <time>2022-05-07T11:31:45.000Z</time>
      </trkpt>
      <trkpt lat="45.11502" lon="5.31815">
        <ele>214.9</ele>
        <time>2022-05-07T11:31:46.000Z</time>
      </trkpt>
      <trkpt lat="45.115" lon="5.31811">
        <ele>215</ele>
        <time>2022-05-07T11:31:47.000Z</time>
      </trkpt>
      <trkpt lat="45.11498" lon="5.31808">
        <ele>215</ele>
        <time>2022-05-07T11:31:48.000Z</time>
      </trkpt>
      <trkpt lat="45.11496" lon="5.31805">
        <ele>215</ele>
        <time>2022-05-07T11:31:49.000Z</time>
      </trkpt>
      <trkpt lat="45.11494" lon="5.31803">
        <ele>214.9</ele>
        <time>2022-05-07T11:31:50.000Z</time>
      </trkpt>
      <trkpt lat="45.11492" lon="5.318">
        <ele>214.9</ele>
        <time>2022-05-07T11:31:51.000Z</time>
      </trkpt>
      <trkpt lat="45.11491" lon="5.31797">
        <ele>214.8</ele>
        <time>2022-05-07T11:31:52.000Z</time>
      </trkpt>
      <trkpt lat="45.11489" lon="5.31794">
        <ele>214.7</ele>
        <time>2022-05-07T11:31:53.000Z</time>
      </trkpt>
      <trkpt lat="45.11488" lon="5.31791">
        <ele>214.7</ele>
        <time>2022-05-07T11:31:54.000Z</time>
      </trkpt>
      <trkpt lat="45.11486" lon="5.31787">
        <ele>214.7</ele>
        <time>2022-05-07T11:31:55.000Z</time>
      </trkpt>
      <trkpt lat="45.11485" lon="5.31784">
        <ele>214.7</ele>
        <time>2022-05-07T11:31:56.000Z</time>
      </trkpt>
      <trkpt lat="45.11483" lon="5.31782">
        <ele>214.7</ele>
        <time>2022-05-07T11:31:57.000Z</time>
      </trkpt>
      <trkpt lat="45.11483" lon="5.31778">
        <ele>214.6</ele>
        <time>2022-05-07T11:31:58.000Z</time>
      </trkpt>
      <trkpt lat="45.11483" lon="5.31775">
        <ele>214.6</ele>
        <time>2022-05-07T11:31:59.000Z</time>
      </trkpt>
      <trkpt lat="45.11482" lon="5.3177">
        <ele>214.6</ele>
        <time>2022-05-07T11:32:00.000Z</time>
      </trkpt>
      <trkpt lat="45.11481" lon="5.31767">
        <ele>214.7</ele>
        <time>2022-05-07T11:32:01.000Z</time>
      </trkpt>
      <trkpt lat="45.1148" lon="5.31763">
        <ele>214.7</ele>
        <time>2022-05-07T11:32:02.000Z</time>
      </trkpt>
      <trkpt lat="45.11478" lon="5.3176">
        <ele>214.8</ele>
        <time>2022-05-07T11:32:03.000Z</time>
      </trkpt>
      <trkpt lat="45.11475" lon="5.31756">
        <ele>214.9</ele>
        <time>2022-05-07T11:32:04.000Z</time>
      </trkpt>
      <trkpt lat="45.11473" lon="5.31752">
        <ele>215</ele>
        <time>2022-05-07T11:32:05.000Z</time>
      </trkpt>
      <trkpt lat="45.1147" lon="5.31749">
        <ele>215</ele>
        <time>2022-05-07T11:32:06.000Z</time>
      </trkpt>
      <trkpt lat="45.11467" lon="5.31744">
        <ele>214.8</ele>
        <time>2022-05-07T11:32:07.000Z</time>
      </trkpt>
      <trkpt lat="45.11465" lon="5.31739">
        <ele>214.7</ele>
        <time>2022-05-07T11:32:08.000Z</time>
      </trkpt>
      <trkpt lat="45.11462" lon="5.31734">
        <ele>214.6</ele>
        <time>2022-05-07T11:32:09.000Z</time>
      </trkpt>
      <trkpt lat="45.11459" lon="5.31729">
        <ele>214.6</ele>
        <time>2022-05-07T11:32:10.000Z</time>
      </trkpt>
      <trkpt lat="45.11457" lon="5.31723">
        <ele>214.6</ele>
        <time>2022-05-07T11:32:11.000Z</time>
      </trkpt>
      <trkpt lat="45.11454" lon="5.31717">
        <ele>214.7</ele>
        <time>2022-05-07T11:32:12.000Z</time>
      </trkpt>
      <trkpt lat="45.11451" lon="5.31712">
        <ele>214.8</ele>
        <time>2022-05-07T11:32:13.000Z</time>
      </trkpt>
      <trkpt lat="45.11449" lon="5.31705">
        <ele>214.8</ele>
        <time>2022-05-07T11:32:14.000Z</time>
      </trkpt>
      <trkpt lat="45.11446" lon="5.31699">
        <ele>214.9</ele>
        <time>2022-05-07T11:32:15.000Z</time>
      </trkpt>
      <trkpt lat="45.11444" lon="5.31692">
        <ele>214.9</ele>
        <time>2022-05-07T11:32:16.000Z</time>
      </trkpt>
      <trkpt lat="45.11442" lon="5.31685">
        <ele>214.7</ele>
        <time>2022-05-07T11:32:17.000Z</time>
      </trkpt>
      <trkpt lat="45.1144" lon="5.31679">
        <ele>214.5</ele>
        <time>2022-05-07T11:32:18.000Z</time>
      </trkpt>
      <trkpt lat="45.11438" lon="5.31671">
        <ele>214.4</ele>
        <time>2022-05-07T11:32:19.000Z</time>
      </trkpt>
      <trkpt lat="45.11436" lon="5.31664">
        <ele>214.3</ele>
        <time>2022-05-07T11:32:20.000Z</time>
      </trkpt>
      <trkpt lat="45.11434" lon="5.31657">
        <ele>214.4</ele>
        <time>2022-05-07T11:32:21.000Z</time>
      </trkpt>
      <trkpt lat="45.11432" lon="5.3165">
        <ele>214.5</ele>
        <time>2022-05-07T11:32:22.000Z</time>
      </trkpt>
      <trkpt lat="45.1143" lon="5.31643">
        <ele>214.5</ele>
        <time>2022-05-07T11:32:23.000Z</time>
      </trkpt>
      <trkpt lat="45.11428" lon="5.31637">
        <ele>214.6</ele>
        <time>2022-05-07T11:32:24.000Z</time>
      </trkpt>
      <trkpt lat="45.11426" lon="5.3163">
        <ele>214.7</ele>
        <time>2022-05-07T11:32:25.000Z</time>
      </trkpt>
      <trkpt lat="45.11424" lon="5.31624">
        <ele>214.7</ele>
        <time>2022-05-07T11:32:26.000Z</time>
      </trkpt>
      <trkpt lat="45.11422" lon="5.31617">
        <ele>214.8</ele>
        <time>2022-05-07T11:32:27.000Z</time>
      </trkpt>
      <trkpt lat="45.1142" lon="5.3161">
        <ele>214.9</ele>
        <time>2022-05-07T11:32:28.000Z</time>
      </trkpt>
      <trkpt lat="45.11417" lon="5.31603">
        <ele>214.7</ele>
        <time>2022-05-07T11:32:29.000Z</time>
      </trkpt>
      <trkpt lat="45.11415" lon="5.31597">
        <ele>214.5</ele>
        <time>2022-05-07T11:32:30.000Z</time>
      </trkpt>
      <trkpt lat="45.11413" lon="5.3159">
        <ele>214.3</ele>
        <time>2022-05-07T11:32:31.000Z</time>
      </trkpt>
      <trkpt lat="45.11411" lon="5.31583">
        <ele>214.2</ele>
        <time>2022-05-07T11:32:32.000Z</time>
      </trkpt>
      <trkpt lat="45.11408" lon="5.31577">
        <ele>214.3</ele>
        <time>2022-05-07T11:32:33.000Z</time>
      </trkpt>
      <trkpt lat="45.11406" lon="5.3157">
        <ele>214.4</ele>
        <time>2022-05-07T11:32:34.000Z</time>
      </trkpt>
      <trkpt lat="45.11403" lon="5.31563">
        <ele>214.5</ele>
        <time>2022-05-07T11:32:35.000Z</time>
      </trkpt>
      <trkpt lat="45.11401" lon="5.31558">
        <ele>214.6</ele>
        <time>2022-05-07T11:32:36.000Z</time>
      </trkpt>
      <trkpt lat="45.11398" lon="5.31553">
        <ele>214.6</ele>
        <time>2022-05-07T11:32:37.000Z</time>
      </trkpt>
      <trkpt lat="45.11395" lon="5.31547">
        <ele>214.5</ele>
        <time>2022-05-07T11:32:38.000Z</time>
      </trkpt>
      <trkpt lat="45.11393" lon="5.31542">
        <ele>214.5</ele>
        <time>2022-05-07T11:32:39.000Z</time>
      </trkpt>
      <trkpt lat="45.1139" lon="5.31538">
        <ele>214.3</ele>
        <time>2022-05-07T11:32:40.000Z</time>
      </trkpt>
      <trkpt lat="45.11387" lon="5.31533">
        <ele>214.2</ele>
        <time>2022-05-07T11:32:41.000Z</time>
      </trkpt>
      <trkpt lat="45.11384" lon="5.31528">
        <ele>214.2</ele>
        <time>2022-05-07T11:32:42.000Z</time>
      </trkpt>
      <trkpt lat="45.11381" lon="5.31522">
        <ele>214.2</ele>
        <time>2022-05-07T11:32:43.000Z</time>
      </trkpt>
      <trkpt lat="45.11377" lon="5.31518">
        <ele>214.3</ele>
        <time>2022-05-07T11:32:44.000Z</time>
      </trkpt>
      <trkpt lat="45.11373" lon="5.31515">
        <ele>214.3</ele>
        <time>2022-05-07T11:32:45.000Z</time>
      </trkpt>
      <trkpt lat="45.11369" lon="5.31511">
        <ele>214.3</ele>
        <time>2022-05-07T11:32:46.000Z</time>
      </trkpt>
      <trkpt lat="45.11366" lon="5.31507">
        <ele>214.2</ele>
        <time>2022-05-07T11:32:47.000Z</time>
      </trkpt>
      <trkpt lat="45.11363" lon="5.31503">
        <ele>214.1</ele>
        <time>2022-05-07T11:32:48.000Z</time>
      </trkpt>
      <trkpt lat="45.1136" lon="5.31499">
        <ele>214</ele>
        <time>2022-05-07T11:32:49.000Z</time>
      </trkpt>
      <trkpt lat="45.11357" lon="5.31495">
        <ele>214.1</ele>
        <time>2022-05-07T11:32:50.000Z</time>
      </trkpt>
      <trkpt lat="45.11355" lon="5.3149">
        <ele>214.2</ele>
        <time>2022-05-07T11:32:51.000Z</time>
      </trkpt>
      <trkpt lat="45.11352" lon="5.31486">
        <ele>214.3</ele>
        <time>2022-05-07T11:32:52.000Z</time>
      </trkpt>
      <trkpt lat="45.1135" lon="5.31483">
        <ele>214.4</ele>
        <time>2022-05-07T11:32:53.000Z</time>
      </trkpt>
      <trkpt lat="45.11347" lon="5.31481">
        <ele>214.5</ele>
        <time>2022-05-07T11:32:54.000Z</time>
      </trkpt>
      <trkpt lat="45.11344" lon="5.31477">
        <ele>214.6</ele>
        <time>2022-05-07T11:32:55.000Z</time>
      </trkpt>
      <trkpt lat="45.11341" lon="5.31474">
        <ele>214.7</ele>
        <time>2022-05-07T11:32:56.000Z</time>
      </trkpt>
      <trkpt lat="45.11338" lon="5.3147">
        <ele>214.8</ele>
        <time>2022-05-07T11:32:57.000Z</time>
      </trkpt>
      <trkpt lat="45.11335" lon="5.31467">
        <ele>214.9</ele>
        <time>2022-05-07T11:32:58.000Z</time>
      </trkpt>
      <trkpt lat="45.11332" lon="5.31463">
        <ele>215</ele>
        <time>2022-05-07T11:32:59.000Z</time>
      </trkpt>
      <trkpt lat="45.11329" lon="5.3146">
        <ele>215</ele>
        <time>2022-05-07T11:33:00.000Z</time>
      </trkpt>
      <trkpt lat="45.11326" lon="5.31456">
        <ele>215</ele>
        <time>2022-05-07T11:33:01.000Z</time>
      </trkpt>
      <trkpt lat="45.11323" lon="5.31453">
        <ele>215</ele>
        <time>2022-05-07T11:33:02.000Z</time>
      </trkpt>
      <trkpt lat="45.11321" lon="5.3145">
        <ele>215</ele>
        <time>2022-05-07T11:33:03.000Z</time>
      </trkpt>
      <trkpt lat="45.11318" lon="5.31446">
        <ele>215</ele>
        <time>2022-05-07T11:33:04.000Z</time>
      </trkpt>
      <trkpt lat="45.11315" lon="5.31444">
        <ele>215</ele>
        <time>2022-05-07T11:33:05.000Z</time>
      </trkpt>
      <trkpt lat="45.11312" lon="5.31441">
        <ele>215</ele>
        <time>2022-05-07T11:33:06.000Z</time>
      </trkpt>
      <trkpt lat="45.1131" lon="5.31438">
        <ele>215</ele>
        <time>2022-05-07T11:33:07.000Z</time>
      </trkpt>
      <trkpt lat="45.11307" lon="5.31435">
        <ele>215</ele>
        <time>2022-05-07T11:33:08.000Z</time>
      </trkpt>
      <trkpt lat="45.11305" lon="5.31432">
        <ele>215</ele>
        <time>2022-05-07T11:33:09.000Z</time>
      </trkpt>
      <trkpt lat="45.11302" lon="5.3143">
        <ele>215</ele>
        <time>2022-05-07T11:33:10.000Z</time>
      </trkpt>
      <trkpt lat="45.11299" lon="5.31427">
        <ele>215</ele>
        <time>2022-05-07T11:33:11.000Z</time>
      </trkpt>
      <trkpt lat="45.11298" lon="5.31423">
        <ele>215</ele>
        <time>2022-05-07T11:33:12.000Z</time>
      </trkpt>
      <trkpt lat="45.11295" lon="5.3142">
        <ele>215</ele>
        <time>2022-05-07T11:33:13.000Z</time>
      </trkpt>
      <trkpt lat="45.11293" lon="5.31416">
        <ele>215</ele>
        <time>2022-05-07T11:33:14.000Z</time>
      </trkpt>
      <trkpt lat="45.1129" lon="5.31413">
        <ele>215</ele>
        <time>2022-05-07T11:33:15.000Z</time>
      </trkpt>
      <trkpt lat="45.11287" lon="5.31409">
        <ele>215</ele>
        <time>2022-05-07T11:33:16.000Z</time>
      </trkpt>
      <trkpt lat="45.11284" lon="5.31406">
        <ele>215</ele>
        <time>2022-05-07T11:33:17.000Z</time>
      </trkpt>
      <trkpt lat="45.11282" lon="5.31402">
        <ele>215</ele>
        <time>2022-05-07T11:33:18.000Z</time>
      </trkpt>
      <trkpt lat="45.11279" lon="5.31398">
        <ele>215</ele>
        <time>2022-05-07T11:33:19.000Z</time>
      </trkpt>
      <trkpt lat="45.11276" lon="5.31394">
        <ele>215</ele>
        <time>2022-05-07T11:33:20.000Z</time>
      </trkpt>
      <trkpt lat="45.11274" lon="5.3139">
        <ele>215</ele>
        <time>2022-05-07T11:33:21.000Z</time>
      </trkpt>
      <trkpt lat="45.11271" lon="5.31386">
        <ele>215</ele>
        <time>2022-05-07T11:33:22.000Z</time>
      </trkpt>
      <trkpt lat="45.11269" lon="5.31382">
        <ele>215</ele>
        <time>2022-05-07T11:33:23.000Z</time>
      </trkpt>
      <trkpt lat="45.11266" lon="5.31378">
        <ele>215</ele>
        <time>2022-05-07T11:33:24.000Z</time>
      </trkpt>
      <trkpt lat="45.11263" lon="5.31375">
        <ele>215</ele>
        <time>2022-05-07T11:33:25.000Z</time>
      </trkpt>
      <trkpt lat="45.11261" lon="5.31371">
        <ele>215</ele>
        <time>2022-05-07T11:33:26.000Z</time>
      </trkpt>
      <trkpt lat="45.11259" lon="5.31367">
        <ele>215</ele>
        <time>2022-05-07T11:33:27.000Z</time>
      </trkpt>
      <trkpt lat="45.11257" lon="5.31363">
        <ele>215</ele>
        <time>2022-05-07T11:33:28.000Z</time>
      </trkpt>
      <trkpt lat="45.11255" lon="5.3136">
        <ele>215</ele>
        <time>2022-05-07T11:33:29.000Z</time>
      </trkpt>
      <trkpt lat="45.11252" lon="5.31356">
        <ele>215</ele>
        <time>2022-05-07T11:33:30.000Z</time>
      </trkpt>
      <trkpt lat="45.1125" lon="5.31352">
        <ele>215</ele>
        <time>2022-05-07T11:33:31.000Z</time>
      </trkpt>
      <trkpt lat="45.11247" lon="5.31348">
        <ele>215</ele>
        <time>2022-05-07T11:33:32.000Z</time>
      </trkpt>
      <trkpt lat="45.11245" lon="5.31345">
        <ele>215</ele>
        <time>2022-05-07T11:33:33.000Z</time>
      </trkpt>
      <trkpt lat="45.11242" lon="5.31341">
        <ele>215</ele>
        <time>2022-05-07T11:33:34.000Z</time>
      </trkpt>
      <trkpt lat="45.1124" lon="5.31337">
        <ele>215</ele>
        <time>2022-05-07T11:33:35.000Z</time>
      </trkpt>
      <trkpt lat="45.11238" lon="5.31332">
        <ele>215</ele>
        <time>2022-05-07T11:33:36.000Z</time>
      </trkpt>
      <trkpt lat="45.11236" lon="5.31328">
        <ele>214.9</ele>
        <time>2022-05-07T11:33:37.000Z</time>
      </trkpt>
      <trkpt lat="45.11233" lon="5.31324">
        <ele>214.9</ele>
        <time>2022-05-07T11:33:38.000Z</time>
      </trkpt>
      <trkpt lat="45.11231" lon="5.31319">
        <ele>214.8</ele>
        <time>2022-05-07T11:33:39.000Z</time>
      </trkpt>
      <trkpt lat="45.11228" lon="5.31315">
        <ele>214.9</ele>
        <time>2022-05-07T11:33:40.000Z</time>
      </trkpt>
      <trkpt lat="45.11225" lon="5.31311">
        <ele>214.9</ele>
        <time>2022-05-07T11:33:41.000Z</time>
      </trkpt>
      <trkpt lat="45.11222" lon="5.31307">
        <ele>215</ele>
        <time>2022-05-07T11:33:42.000Z</time>
      </trkpt>
      <trkpt lat="45.11219" lon="5.31303">
        <ele>214.9</ele>
        <time>2022-05-07T11:33:43.000Z</time>
      </trkpt>
      <trkpt lat="45.11216" lon="5.31298">
        <ele>214.8</ele>
        <time>2022-05-07T11:33:44.000Z</time>
      </trkpt>
      <trkpt lat="45.11213" lon="5.31294">
        <ele>214.7</ele>
        <time>2022-05-07T11:33:45.000Z</time>
      </trkpt>
      <trkpt lat="45.1121" lon="5.31289">
        <ele>214.7</ele>
        <time>2022-05-07T11:33:46.000Z</time>
      </trkpt>
      <trkpt lat="45.11207" lon="5.31284">
        <ele>214.6</ele>
        <time>2022-05-07T11:33:47.000Z</time>
      </trkpt>
      <trkpt lat="45.11204" lon="5.31279">
        <ele>214.7</ele>
        <time>2022-05-07T11:33:48.000Z</time>
      </trkpt>
      <trkpt lat="45.11201" lon="5.31274">
        <ele>214.8</ele>
        <time>2022-05-07T11:33:49.000Z</time>
      </trkpt>
      <trkpt lat="45.11198" lon="5.31269">
        <ele>214.9</ele>
        <time>2022-05-07T11:33:50.000Z</time>
      </trkpt>
      <trkpt lat="45.11195" lon="5.31264">
        <ele>215</ele>
        <time>2022-05-07T11:33:51.000Z</time>
      </trkpt>
      <trkpt lat="45.11192" lon="5.31259">
        <ele>215</ele>
        <time>2022-05-07T11:33:52.000Z</time>
      </trkpt>
      <trkpt lat="45.11189" lon="5.31254">
        <ele>215</ele>
        <time>2022-05-07T11:33:53.000Z</time>
      </trkpt>
      <trkpt lat="45.11186" lon="5.31249">
        <ele>215</ele>
        <time>2022-05-07T11:33:54.000Z</time>
      </trkpt>
      <trkpt lat="45.11183" lon="5.31244">
        <ele>214.9</ele>
        <time>2022-05-07T11:33:55.000Z</time>
      </trkpt>
      <trkpt lat="45.1118" lon="5.31239">
        <ele>214.8</ele>
        <time>2022-05-07T11:33:56.000Z</time>
      </trkpt>
      <trkpt lat="45.11177" lon="5.31234">
        <ele>214.8</ele>
        <time>2022-05-07T11:33:57.000Z</time>
      </trkpt>
      <trkpt lat="45.11174" lon="5.31229">
        <ele>214.8</ele>
        <time>2022-05-07T11:33:58.000Z</time>
      </trkpt>
      <trkpt lat="45.11171" lon="5.31224">
        <ele>214.9</ele>
        <time>2022-05-07T11:33:59.000Z</time>
      </trkpt>
      <trkpt lat="45.11167" lon="5.31219">
        <ele>214.9</ele>
        <time>2022-05-07T11:34:00.000Z</time>
      </trkpt>
      <trkpt lat="45.11165" lon="5.31216">
        <ele>214.8</ele>
        <time>2022-05-07T11:34:01.000Z</time>
      </trkpt>
      <trkpt lat="45.11163" lon="5.31211">
        <ele>214.6</ele>
        <time>2022-05-07T11:34:02.000Z</time>
      </trkpt>
      <trkpt lat="45.11161" lon="5.31206">
        <ele>214.5</ele>
        <time>2022-05-07T11:34:03.000Z</time>
      </trkpt>
      <trkpt lat="45.11159" lon="5.31202">
        <ele>214.5</ele>
        <time>2022-05-07T11:34:04.000Z</time>
      </trkpt>
      <trkpt lat="45.11156" lon="5.31197">
        <ele>214.4</ele>
        <time>2022-05-07T11:34:05.000Z</time>
      </trkpt>
      <trkpt lat="45.11154" lon="5.31193">
        <ele>214.5</ele>
        <time>2022-05-07T11:34:06.000Z</time>
      </trkpt>
      <trkpt lat="45.11151" lon="5.31188">
        <ele>214.7</ele>
        <time>2022-05-07T11:34:07.000Z</time>
      </trkpt>
      <trkpt lat="45.11149" lon="5.31183">
        <ele>214.9</ele>
        <time>2022-05-07T11:34:08.000Z</time>
      </trkpt>
      <trkpt lat="45.11147" lon="5.31178">
        <ele>215.1</ele>
        <time>2022-05-07T11:34:09.000Z</time>
      </trkpt>
      <trkpt lat="45.11145" lon="5.31174">
        <ele>215.3</ele>
        <time>2022-05-07T11:34:10.000Z</time>
      </trkpt>
      <trkpt lat="45.11144" lon="5.31169">
        <ele>215.6</ele>
        <time>2022-05-07T11:34:11.000Z</time>
      </trkpt>
      <trkpt lat="45.11142" lon="5.31165">
        <ele>215.7</ele>
        <time>2022-05-07T11:34:12.000Z</time>
      </trkpt>
      <trkpt lat="45.1114" lon="5.3116">
        <ele>215.7</ele>
        <time>2022-05-07T11:34:13.000Z</time>
      </trkpt>
      <trkpt lat="45.11139" lon="5.31155">
        <ele>215.6</ele>
        <time>2022-05-07T11:34:14.000Z</time>
      </trkpt>
      <trkpt lat="45.11137" lon="5.3115">
        <ele>215.5</ele>
        <time>2022-05-07T11:34:15.000Z</time>
      </trkpt>
      <trkpt lat="45.11135" lon="5.31145">
        <ele>215.3</ele>
        <time>2022-05-07T11:34:16.000Z</time>
      </trkpt>
      <trkpt lat="45.11133" lon="5.31141">
        <ele>215.2</ele>
        <time>2022-05-07T11:34:17.000Z</time>
      </trkpt>
      <trkpt lat="45.11132" lon="5.31136">
        <ele>215.3</ele>
        <time>2022-05-07T11:34:18.000Z</time>
      </trkpt>
      <trkpt lat="45.1113" lon="5.31131">
        <ele>215.3</ele>
        <time>2022-05-07T11:34:19.000Z</time>
      </trkpt>
      <trkpt lat="45.11128" lon="5.31126">
        <ele>215.4</ele>
        <time>2022-05-07T11:34:20.000Z</time>
      </trkpt>
      <trkpt lat="45.11127" lon="5.31121">
        <ele>215.4</ele>
        <time>2022-05-07T11:34:21.000Z</time>
      </trkpt>
      <trkpt lat="45.11126" lon="5.31116">
        <ele>215.5</ele>
        <time>2022-05-07T11:34:22.000Z</time>
      </trkpt>
      <trkpt lat="45.11125" lon="5.31111">
        <ele>215.5</ele>
        <time>2022-05-07T11:34:23.000Z</time>
      </trkpt>
      <trkpt lat="45.11124" lon="5.31107">
        <ele>215.5</ele>
        <time>2022-05-07T11:34:24.000Z</time>
      </trkpt>
      <trkpt lat="45.11123" lon="5.31102">
        <ele>215.4</ele>
        <time>2022-05-07T11:34:25.000Z</time>
      </trkpt>
      <trkpt lat="45.11121" lon="5.31098">
        <ele>215.3</ele>
        <time>2022-05-07T11:34:26.000Z</time>
      </trkpt>
      <trkpt lat="45.1112" lon="5.31094">
        <ele>215.2</ele>
        <time>2022-05-07T11:34:27.000Z</time>
      </trkpt>
      <trkpt lat="45.1112" lon="5.31089">
        <ele>215.1</ele>
        <time>2022-05-07T11:34:28.000Z</time>
      </trkpt>
      <trkpt lat="45.11119" lon="5.31085">
        <ele>215</ele>
        <time>2022-05-07T11:34:29.000Z</time>
      </trkpt>
      <trkpt lat="45.11118" lon="5.31081">
        <ele>215</ele>
        <time>2022-05-07T11:34:30.000Z</time>
      </trkpt>
      <trkpt lat="45.11117" lon="5.31077">
        <ele>215</ele>
        <time>2022-05-07T11:34:31.000Z</time>
      </trkpt>
      <trkpt lat="45.11117" lon="5.31073">
        <ele>215</ele>
        <time>2022-05-07T11:34:32.000Z</time>
      </trkpt>
      <trkpt lat="45.11116" lon="5.31068">
        <ele>215</ele>
        <time>2022-05-07T11:34:33.000Z</time>
      </trkpt>
      <trkpt lat="45.11115" lon="5.31064">
        <ele>215</ele>
        <time>2022-05-07T11:34:34.000Z</time>
      </trkpt>
      <trkpt lat="45.11114" lon="5.3106">
        <ele>215</ele>
        <time>2022-05-07T11:34:35.000Z</time>
      </trkpt>
      <trkpt lat="45.11114" lon="5.31056">
        <ele>215</ele>
        <time>2022-05-07T11:34:36.000Z</time>
      </trkpt>
      <trkpt lat="45.11113" lon="5.31052">
        <ele>215</ele>
        <time>2022-05-07T11:34:37.000Z</time>
      </trkpt>
      <trkpt lat="45.11112" lon="5.31048">
        <ele>215</ele>
        <time>2022-05-07T11:34:38.000Z</time>
      </trkpt>
      <trkpt lat="45.11111" lon="5.31044">
        <ele>215</ele>
        <time>2022-05-07T11:34:39.000Z</time>
      </trkpt>
      <trkpt lat="45.1111" lon="5.3104">
        <ele>215</ele>
        <time>2022-05-07T11:34:40.000Z</time>
      </trkpt>
      <trkpt lat="45.11109" lon="5.31035">
        <ele>215</ele>
        <time>2022-05-07T11:34:41.000Z</time>
      </trkpt>
      <trkpt lat="45.11108" lon="5.31031">
        <ele>215</ele>
        <time>2022-05-07T11:34:42.000Z</time>
      </trkpt>
      <trkpt lat="45.11106" lon="5.31027">
        <ele>215</ele>
        <time>2022-05-07T11:34:43.000Z</time>
      </trkpt>
      <trkpt lat="45.11105" lon="5.31023">
        <ele>214.9</ele>
        <time>2022-05-07T11:34:44.000Z</time>
      </trkpt>
      <trkpt lat="45.11104" lon="5.3102">
        <ele>214.8</ele>
        <time>2022-05-07T11:34:45.000Z</time>
      </trkpt>
      <trkpt lat="45.11103" lon="5.31016">
        <ele>214.7</ele>
        <time>2022-05-07T11:34:46.000Z</time>
      </trkpt>
      <trkpt lat="45.11102" lon="5.31012">
        <ele>214.6</ele>
        <time>2022-05-07T11:34:47.000Z</time>
      </trkpt>
      <trkpt lat="45.111" lon="5.31009">
        <ele>214.6</ele>
        <time>2022-05-07T11:34:48.000Z</time>
      </trkpt>
      <trkpt lat="45.11099" lon="5.31006">
        <ele>214.6</ele>
        <time>2022-05-07T11:34:49.000Z</time>
      </trkpt>
      <trkpt lat="45.11098" lon="5.31001">
        <ele>214.5</ele>
        <time>2022-05-07T11:34:50.000Z</time>
      </trkpt>
      <trkpt lat="45.11097" lon="5.30997">
        <ele>214.5</ele>
        <time>2022-05-07T11:34:51.000Z</time>
      </trkpt>
      <trkpt lat="45.11096" lon="5.30993">
        <ele>214.6</ele>
        <time>2022-05-07T11:34:52.000Z</time>
      </trkpt>
      <trkpt lat="45.11094" lon="5.30989">
        <ele>214.6</ele>
        <time>2022-05-07T11:34:53.000Z</time>
      </trkpt>
      <trkpt lat="45.11092" lon="5.30985">
        <ele>214.7</ele>
        <time>2022-05-07T11:34:54.000Z</time>
      </trkpt>
      <trkpt lat="45.11091" lon="5.30981">
        <ele>214.7</ele>
        <time>2022-05-07T11:34:55.000Z</time>
      </trkpt>
      <trkpt lat="45.1109" lon="5.30976">
        <ele>214.8</ele>
        <time>2022-05-07T11:34:56.000Z</time>
      </trkpt>
      <trkpt lat="45.11088" lon="5.30972">
        <ele>214.8</ele>
        <time>2022-05-07T11:34:57.000Z</time>
      </trkpt>
      <trkpt lat="45.11087" lon="5.30967">
        <ele>214.9</ele>
        <time>2022-05-07T11:34:58.000Z</time>
      </trkpt>
      <trkpt lat="45.11086" lon="5.30963">
        <ele>214.9</ele>
        <time>2022-05-07T11:34:59.000Z</time>
      </trkpt>
      <trkpt lat="45.11084" lon="5.30959">
        <ele>215</ele>
        <time>2022-05-07T11:35:00.000Z</time>
      </trkpt>
      <trkpt lat="45.11083" lon="5.30955">
        <ele>215</ele>
        <time>2022-05-07T11:35:01.000Z</time>
      </trkpt>
      <trkpt lat="45.11081" lon="5.30951">
        <ele>215</ele>
        <time>2022-05-07T11:35:02.000Z</time>
      </trkpt>
      <trkpt lat="45.1108" lon="5.30947">
        <ele>215</ele>
        <time>2022-05-07T11:35:03.000Z</time>
      </trkpt>
      <trkpt lat="45.11078" lon="5.30943">
        <ele>214.9</ele>
        <time>2022-05-07T11:35:04.000Z</time>
      </trkpt>
      <trkpt lat="45.11076" lon="5.30939">
        <ele>214.9</ele>
        <time>2022-05-07T11:35:05.000Z</time>
      </trkpt>
      <trkpt lat="45.11074" lon="5.30936">
        <ele>214.8</ele>
        <time>2022-05-07T11:35:06.000Z</time>
      </trkpt>
      <trkpt lat="45.11073" lon="5.30932">
        <ele>214.7</ele>
        <time>2022-05-07T11:35:07.000Z</time>
      </trkpt>
      <trkpt lat="45.11071" lon="5.30928">
        <ele>214.7</ele>
        <time>2022-05-07T11:35:08.000Z</time>
      </trkpt>
      <trkpt lat="45.1107" lon="5.30924">
        <ele>214.6</ele>
        <time>2022-05-07T11:35:09.000Z</time>
      </trkpt>
      <trkpt lat="45.11069" lon="5.3092">
        <ele>214.6</ele>
        <time>2022-05-07T11:35:10.000Z</time>
      </trkpt>
      <trkpt lat="45.11067" lon="5.30915">
        <ele>214.6</ele>
        <time>2022-05-07T11:35:11.000Z</time>
      </trkpt>
      <trkpt lat="45.11066" lon="5.30912">
        <ele>214.6</ele>
        <time>2022-05-07T11:35:12.000Z</time>
      </trkpt>
      <trkpt lat="45.11066" lon="5.30907">
        <ele>214.6</ele>
        <time>2022-05-07T11:35:13.000Z</time>
      </trkpt>
      <trkpt lat="45.11064" lon="5.30903">
        <ele>214.7</ele>
        <time>2022-05-07T11:35:14.000Z</time>
      </trkpt>
      <trkpt lat="45.11063" lon="5.30898">
        <ele>214.8</ele>
        <time>2022-05-07T11:35:15.000Z</time>
      </trkpt>
      <trkpt lat="45.11061" lon="5.30893">
        <ele>214.8</ele>
        <time>2022-05-07T11:35:16.000Z</time>
      </trkpt>
      <trkpt lat="45.11059" lon="5.30888">
        <ele>214.8</ele>
        <time>2022-05-07T11:35:17.000Z</time>
      </trkpt>
      <trkpt lat="45.11057" lon="5.30882">
        <ele>214.7</ele>
        <time>2022-05-07T11:35:18.000Z</time>
      </trkpt>
      <trkpt lat="45.11055" lon="5.30876">
        <ele>214.5</ele>
        <time>2022-05-07T11:35:19.000Z</time>
      </trkpt>
      <trkpt lat="45.11053" lon="5.3087">
        <ele>214.3</ele>
        <time>2022-05-07T11:35:20.000Z</time>
      </trkpt>
      <trkpt lat="45.11052" lon="5.30864">
        <ele>214.1</ele>
        <time>2022-05-07T11:35:21.000Z</time>
      </trkpt>
      <trkpt lat="45.11049" lon="5.30858">
        <ele>214</ele>
        <time>2022-05-07T11:35:22.000Z</time>
      </trkpt>
      <trkpt lat="45.11047" lon="5.30852">
        <ele>214</ele>
        <time>2022-05-07T11:35:23.000Z</time>
      </trkpt>
      <trkpt lat="45.11045" lon="5.30847">
        <ele>214</ele>
        <time>2022-05-07T11:35:24.000Z</time>
      </trkpt>
      <trkpt lat="45.11043" lon="5.30841">
        <ele>214</ele>
        <time>2022-05-07T11:35:25.000Z</time>
      </trkpt>
      <trkpt lat="45.11041" lon="5.30835">
        <ele>214</ele>
        <time>2022-05-07T11:35:26.000Z</time>
      </trkpt>
      <trkpt lat="45.11039" lon="5.30829">
        <ele>214</ele>
        <time>2022-05-07T11:35:27.000Z</time>
      </trkpt>
      <trkpt lat="45.11036" lon="5.30823">
        <ele>214</ele>
        <time>2022-05-07T11:35:28.000Z</time>
      </trkpt>
      <trkpt lat="45.11034" lon="5.30817">
        <ele>214</ele>
        <time>2022-05-07T11:35:29.000Z</time>
      </trkpt>
      <trkpt lat="45.11032" lon="5.30812">
        <ele>214</ele>
        <time>2022-05-07T11:35:30.000Z</time>
      </trkpt>
      <trkpt lat="45.11029" lon="5.30806">
        <ele>214</ele>
        <time>2022-05-07T11:35:31.000Z</time>
      </trkpt>
      <trkpt lat="45.11025" lon="5.30801">
        <ele>214</ele>
        <time>2022-05-07T11:35:32.000Z</time>
      </trkpt>
      <trkpt lat="45.11022" lon="5.30796">
        <ele>214</ele>
        <time>2022-05-07T11:35:33.000Z</time>
      </trkpt>
      <trkpt lat="45.11019" lon="5.3079">
        <ele>214</ele>
        <time>2022-05-07T11:35:34.000Z</time>
      </trkpt>
      <trkpt lat="45.11016" lon="5.30785">
        <ele>214</ele>
        <time>2022-05-07T11:35:35.000Z</time>
      </trkpt>
      <trkpt lat="45.11013" lon="5.3078">
        <ele>214</ele>
        <time>2022-05-07T11:35:36.000Z</time>
      </trkpt>
      <trkpt lat="45.1101" lon="5.30775">
        <ele>213.9</ele>
        <time>2022-05-07T11:35:37.000Z</time>
      </trkpt>
      <trkpt lat="45.11007" lon="5.3077">
        <ele>213.7</ele>
        <time>2022-05-07T11:35:38.000Z</time>
      </trkpt>
      <trkpt lat="45.11004" lon="5.30765">
        <ele>213.5</ele>
        <time>2022-05-07T11:35:39.000Z</time>
      </trkpt>
      <trkpt lat="45.11001" lon="5.30759">
        <ele>213.3</ele>
        <time>2022-05-07T11:35:40.000Z</time>
      </trkpt>
      <trkpt lat="45.10998" lon="5.30754">
        <ele>213.2</ele>
        <time>2022-05-07T11:35:41.000Z</time>
      </trkpt>
      <trkpt lat="45.10996" lon="5.3075">
        <ele>213.2</ele>
        <time>2022-05-07T11:35:42.000Z</time>
      </trkpt>
      <trkpt lat="45.10993" lon="5.30745">
        <ele>213.3</ele>
        <time>2022-05-07T11:35:43.000Z</time>
      </trkpt>
      <trkpt lat="45.1099" lon="5.30741">
        <ele>213.4</ele>
        <time>2022-05-07T11:35:44.000Z</time>
      </trkpt>
      <trkpt lat="45.10987" lon="5.30736">
        <ele>213.5</ele>
        <time>2022-05-07T11:35:45.000Z</time>
      </trkpt>
      <trkpt lat="45.10984" lon="5.30732">
        <ele>213.6</ele>
        <time>2022-05-07T11:35:46.000Z</time>
      </trkpt>
      <trkpt lat="45.10981" lon="5.30728">
        <ele>213.7</ele>
        <time>2022-05-07T11:35:47.000Z</time>
      </trkpt>
      <trkpt lat="45.10978" lon="5.30724">
        <ele>213.8</ele>
        <time>2022-05-07T11:35:48.000Z</time>
      </trkpt>
      <trkpt lat="45.10975" lon="5.3072">
        <ele>213.8</ele>
        <time>2022-05-07T11:35:49.000Z</time>
      </trkpt>
      <trkpt lat="45.10973" lon="5.30715">
        <ele>213.7</ele>
        <time>2022-05-07T11:35:50.000Z</time>
      </trkpt>
      <trkpt lat="45.1097" lon="5.30711">
        <ele>213.6</ele>
        <time>2022-05-07T11:35:51.000Z</time>
      </trkpt>
      <trkpt lat="45.10967" lon="5.30707">
        <ele>213.4</ele>
        <time>2022-05-07T11:35:52.000Z</time>
      </trkpt>
      <trkpt lat="45.10965" lon="5.30703">
        <ele>213.3</ele>
        <time>2022-05-07T11:35:53.000Z</time>
      </trkpt>
      <trkpt lat="45.10962" lon="5.30699">
        <ele>213.2</ele>
        <time>2022-05-07T11:35:54.000Z</time>
      </trkpt>
      <trkpt lat="45.1096" lon="5.30694">
        <ele>213</ele>
        <time>2022-05-07T11:35:55.000Z</time>
      </trkpt>
      <trkpt lat="45.10957" lon="5.3069">
        <ele>212.9</ele>
        <time>2022-05-07T11:35:56.000Z</time>
      </trkpt>
      <trkpt lat="45.10954" lon="5.30686">
        <ele>212.9</ele>
        <time>2022-05-07T11:35:57.000Z</time>
      </trkpt>
      <trkpt lat="45.10951" lon="5.30682">
        <ele>212.9</ele>
        <time>2022-05-07T11:35:58.000Z</time>
      </trkpt>
      <trkpt lat="45.10948" lon="5.30678">
        <ele>212.9</ele>
        <time>2022-05-07T11:35:59.000Z</time>
      </trkpt>
      <trkpt lat="45.10947" lon="5.30675">
        <ele>212.9</ele>
        <time>2022-05-07T11:36:00.000Z</time>
      </trkpt>
      <trkpt lat="45.10944" lon="5.30671">
        <ele>213</ele>
        <time>2022-05-07T11:36:01.000Z</time>
      </trkpt>
      <trkpt lat="45.10942" lon="5.30667">
        <ele>213</ele>
        <time>2022-05-07T11:36:02.000Z</time>
      </trkpt>
      <trkpt lat="45.1094" lon="5.30664">
        <ele>213</ele>
        <time>2022-05-07T11:36:03.000Z</time>
      </trkpt>
      <trkpt lat="45.10937" lon="5.3066">
        <ele>213</ele>
        <time>2022-05-07T11:36:04.000Z</time>
      </trkpt>
      <trkpt lat="45.10934" lon="5.30657">
        <ele>213</ele>
        <time>2022-05-07T11:36:05.000Z</time>
      </trkpt>
      <trkpt lat="45.10932" lon="5.30653">
        <ele>213</ele>
        <time>2022-05-07T11:36:06.000Z</time>
      </trkpt>
      <trkpt lat="45.10929" lon="5.3065">
        <ele>213</ele>
        <time>2022-05-07T11:36:07.000Z</time>
      </trkpt>
      <trkpt lat="45.10926" lon="5.30647">
        <ele>213</ele>
        <time>2022-05-07T11:36:08.000Z</time>
      </trkpt>
      <trkpt lat="45.10924" lon="5.30644">
        <ele>213</ele>
        <time>2022-05-07T11:36:09.000Z</time>
      </trkpt>
      <trkpt lat="45.10921" lon="5.30641">
        <ele>213</ele>
        <time>2022-05-07T11:36:10.000Z</time>
      </trkpt>
      <trkpt lat="45.10919" lon="5.30638">
        <ele>213</ele>
        <time>2022-05-07T11:36:11.000Z</time>
      </trkpt>
      <trkpt lat="45.10917" lon="5.30635">
        <ele>213</ele>
        <time>2022-05-07T11:36:12.000Z</time>
      </trkpt>
      <trkpt lat="45.10915" lon="5.30632">
        <ele>213.1</ele>
        <time>2022-05-07T11:36:13.000Z</time>
      </trkpt>
      <trkpt lat="45.10912" lon="5.3063">
        <ele>213.2</ele>
        <time>2022-05-07T11:36:14.000Z</time>
      </trkpt>
      <trkpt lat="45.10909" lon="5.30627">
        <ele>213.3</ele>
        <time>2022-05-07T11:36:15.000Z</time>
      </trkpt>
      <trkpt lat="45.10907" lon="5.30624">
        <ele>213.4</ele>
        <time>2022-05-07T11:36:16.000Z</time>
      </trkpt>
      <trkpt lat="45.10905" lon="5.3062">
        <ele>213.4</ele>
        <time>2022-05-07T11:36:17.000Z</time>
      </trkpt>
      <trkpt lat="45.10903" lon="5.30615">
        <ele>213.5</ele>
        <time>2022-05-07T11:36:18.000Z</time>
      </trkpt>
      <trkpt lat="45.10901" lon="5.30611">
        <ele>213.6</ele>
        <time>2022-05-07T11:36:19.000Z</time>
      </trkpt>
      <trkpt lat="45.10898" lon="5.30606">
        <ele>213.6</ele>
        <time>2022-05-07T11:36:20.000Z</time>
      </trkpt>
      <trkpt lat="45.10896" lon="5.30601">
        <ele>213.6</ele>
        <time>2022-05-07T11:36:21.000Z</time>
      </trkpt>
      <trkpt lat="45.10895" lon="5.30595">
        <ele>213.6</ele>
        <time>2022-05-07T11:36:22.000Z</time>
      </trkpt>
      <trkpt lat="45.10895" lon="5.30589">
        <ele>213.6</ele>
        <time>2022-05-07T11:36:23.000Z</time>
      </trkpt>
      <trkpt lat="45.10894" lon="5.30583">
        <ele>213.6</ele>
        <time>2022-05-07T11:36:24.000Z</time>
      </trkpt>
      <trkpt lat="45.10893" lon="5.30576">
        <ele>213.5</ele>
        <time>2022-05-07T11:36:25.000Z</time>
      </trkpt>
      <trkpt lat="45.10892" lon="5.3057">
        <ele>213.3</ele>
        <time>2022-05-07T11:36:26.000Z</time>
      </trkpt>
      <trkpt lat="45.10892" lon="5.30563">
        <ele>213.1</ele>
        <time>2022-05-07T11:36:27.000Z</time>
      </trkpt>
      <trkpt lat="45.10891" lon="5.30555">
        <ele>212.9</ele>
        <time>2022-05-07T11:36:28.000Z</time>
      </trkpt>
      <trkpt lat="45.1089" lon="5.30548">
        <ele>213</ele>
        <time>2022-05-07T11:36:29.000Z</time>
      </trkpt>
      <trkpt lat="45.10889" lon="5.3054">
        <ele>213</ele>
        <time>2022-05-07T11:36:30.000Z</time>
      </trkpt>
      <trkpt lat="45.10888" lon="5.30533">
        <ele>213</ele>
        <time>2022-05-07T11:36:31.000Z</time>
      </trkpt>
      <trkpt lat="45.10888" lon="5.30525">
        <ele>213.1</ele>
        <time>2022-05-07T11:36:32.000Z</time>
      </trkpt>
      <trkpt lat="45.10888" lon="5.30518">
        <ele>213.1</ele>
        <time>2022-05-07T11:36:33.000Z</time>
      </trkpt>
      <trkpt lat="45.10887" lon="5.30512">
        <ele>213.1</ele>
        <time>2022-05-07T11:36:34.000Z</time>
      </trkpt>
      <trkpt lat="45.10887" lon="5.30503">
        <ele>213.1</ele>
        <time>2022-05-07T11:36:35.000Z</time>
      </trkpt>
      <trkpt lat="45.10886" lon="5.30494">
        <ele>212.9</ele>
        <time>2022-05-07T11:36:36.000Z</time>
      </trkpt>
      <trkpt lat="45.10885" lon="5.30484">
        <ele>212.6</ele>
        <time>2022-05-07T11:36:37.000Z</time>
      </trkpt>
      <trkpt lat="45.10883" lon="5.30474">
        <ele>212.3</ele>
        <time>2022-05-07T11:36:38.000Z</time>
      </trkpt>
      <trkpt lat="45.10882" lon="5.30464">
        <ele>212.2</ele>
        <time>2022-05-07T11:36:39.000Z</time>
      </trkpt>
      <trkpt lat="45.10882" lon="5.30455">
        <ele>212.3</ele>
        <time>2022-05-07T11:36:40.000Z</time>
      </trkpt>
      <trkpt lat="45.1088" lon="5.30446">
        <ele>212.3</ele>
        <time>2022-05-07T11:36:41.000Z</time>
      </trkpt>
      <trkpt lat="45.10879" lon="5.30439">
        <ele>212.3</ele>
        <time>2022-05-07T11:36:42.000Z</time>
      </trkpt>
      <trkpt lat="45.10878" lon="5.3043">
        <ele>212.2</ele>
        <time>2022-05-07T11:36:43.000Z</time>
      </trkpt>
      <trkpt lat="45.10877" lon="5.3042">
        <ele>212.1</ele>
        <time>2022-05-07T11:36:44.000Z</time>
      </trkpt>
      <trkpt lat="45.10876" lon="5.30411">
        <ele>212</ele>
        <time>2022-05-07T11:36:45.000Z</time>
      </trkpt>
      <trkpt lat="45.10875" lon="5.30401">
        <ele>212</ele>
        <time>2022-05-07T11:36:46.000Z</time>
      </trkpt>
      <trkpt lat="45.10874" lon="5.30391">
        <ele>212</ele>
        <time>2022-05-07T11:36:47.000Z</time>
      </trkpt>
      <trkpt lat="45.10873" lon="5.30381">
        <ele>212</ele>
        <time>2022-05-07T11:36:48.000Z</time>
      </trkpt>
      <trkpt lat="45.10872" lon="5.30371">
        <ele>212</ele>
        <time>2022-05-07T11:36:49.000Z</time>
      </trkpt>
      <trkpt lat="45.10872" lon="5.30362">
        <ele>212</ele>
        <time>2022-05-07T11:36:50.000Z</time>
      </trkpt>
      <trkpt lat="45.10871" lon="5.30352">
        <ele>211.9</ele>
        <time>2022-05-07T11:36:51.000Z</time>
      </trkpt>
      <trkpt lat="45.10871" lon="5.30343">
        <ele>211.8</ele>
        <time>2022-05-07T11:36:52.000Z</time>
      </trkpt>
      <trkpt lat="45.1087" lon="5.30333">
        <ele>211.7</ele>
        <time>2022-05-07T11:36:53.000Z</time>
      </trkpt>
      <trkpt lat="45.1087" lon="5.30324">
        <ele>211.7</ele>
        <time>2022-05-07T11:36:54.000Z</time>
      </trkpt>
      <trkpt lat="45.1087" lon="5.30316">
        <ele>211.7</ele>
        <time>2022-05-07T11:36:55.000Z</time>
      </trkpt>
      <trkpt lat="45.1087" lon="5.30307">
        <ele>211.7</ele>
        <time>2022-05-07T11:36:56.000Z</time>
      </trkpt>
      <trkpt lat="45.10869" lon="5.30298">
        <ele>211.5</ele>
        <time>2022-05-07T11:36:57.000Z</time>
      </trkpt>
      <trkpt lat="45.10869" lon="5.30288">
        <ele>211.3</ele>
        <time>2022-05-07T11:36:58.000Z</time>
      </trkpt>
      <trkpt lat="45.10869" lon="5.30279">
        <ele>211</ele>
        <time>2022-05-07T11:36:59.000Z</time>
      </trkpt>
      <trkpt lat="45.10868" lon="5.3027">
        <ele>210.9</ele>
        <time>2022-05-07T11:37:00.000Z</time>
      </trkpt>
      <trkpt lat="45.10868" lon="5.30261">
        <ele>210.9</ele>
        <time>2022-05-07T11:37:01.000Z</time>
      </trkpt>
      <trkpt lat="45.10867" lon="5.30252">
        <ele>210.8</ele>
        <time>2022-05-07T11:37:02.000Z</time>
      </trkpt>
      <trkpt lat="45.10866" lon="5.30242">
        <ele>210.9</ele>
        <time>2022-05-07T11:37:03.000Z</time>
      </trkpt>
      <trkpt lat="45.10866" lon="5.30232">
        <ele>210.9</ele>
        <time>2022-05-07T11:37:04.000Z</time>
      </trkpt>
      <trkpt lat="45.10865" lon="5.30222">
        <ele>211</ele>
        <time>2022-05-07T11:37:05.000Z</time>
      </trkpt>
      <trkpt lat="45.10865" lon="5.30213">
        <ele>211</ele>
        <time>2022-05-07T11:37:06.000Z</time>
      </trkpt>
      <trkpt lat="45.10864" lon="5.30203">
        <ele>211</ele>
        <time>2022-05-07T11:37:07.000Z</time>
      </trkpt>
      <trkpt lat="45.10863" lon="5.30194">
        <ele>211</ele>
        <time>2022-05-07T11:37:08.000Z</time>
      </trkpt>
      <trkpt lat="45.10862" lon="5.30185">
        <ele>211</ele>
        <time>2022-05-07T11:37:09.000Z</time>
      </trkpt>
      <trkpt lat="45.10861" lon="5.30176">
        <ele>211</ele>
        <time>2022-05-07T11:37:10.000Z</time>
      </trkpt>
      <trkpt lat="45.1086" lon="5.30167">
        <ele>211</ele>
        <time>2022-05-07T11:37:11.000Z</time>
      </trkpt>
      <trkpt lat="45.10859" lon="5.30158">
        <ele>211</ele>
        <time>2022-05-07T11:37:12.000Z</time>
      </trkpt>
      <trkpt lat="45.10858" lon="5.3015">
        <ele>211</ele>
        <time>2022-05-07T11:37:13.000Z</time>
      </trkpt>
      <trkpt lat="45.10857" lon="5.30142">
        <ele>211</ele>
        <time>2022-05-07T11:37:14.000Z</time>
      </trkpt>
      <trkpt lat="45.10856" lon="5.30133">
        <ele>211</ele>
        <time>2022-05-07T11:37:15.000Z</time>
      </trkpt>
      <trkpt lat="45.10855" lon="5.30125">
        <ele>211</ele>
        <time>2022-05-07T11:37:16.000Z</time>
      </trkpt>
      <trkpt lat="45.10855" lon="5.30117">
        <ele>211</ele>
        <time>2022-05-07T11:37:17.000Z</time>
      </trkpt>
      <trkpt lat="45.10854" lon="5.30108">
        <ele>211</ele>
        <time>2022-05-07T11:37:18.000Z</time>
      </trkpt>
      <trkpt lat="45.10854" lon="5.301">
        <ele>211</ele>
        <time>2022-05-07T11:37:19.000Z</time>
      </trkpt>
      <trkpt lat="45.10854" lon="5.30092">
        <ele>211</ele>
        <time>2022-05-07T11:37:20.000Z</time>
      </trkpt>
      <trkpt lat="45.10853" lon="5.30083">
        <ele>211</ele>
        <time>2022-05-07T11:37:21.000Z</time>
      </trkpt>
      <trkpt lat="45.10853" lon="5.30075">
        <ele>211</ele>
        <time>2022-05-07T11:37:22.000Z</time>
      </trkpt>
      <trkpt lat="45.10852" lon="5.30067">
        <ele>211</ele>
        <time>2022-05-07T11:37:23.000Z</time>
      </trkpt>
      <trkpt lat="45.10852" lon="5.30059">
        <ele>211</ele>
        <time>2022-05-07T11:37:24.000Z</time>
      </trkpt>
      <trkpt lat="45.10851" lon="5.30051">
        <ele>211</ele>
        <time>2022-05-07T11:37:25.000Z</time>
      </trkpt>
      <trkpt lat="45.1085" lon="5.30043">
        <ele>211</ele>
        <time>2022-05-07T11:37:26.000Z</time>
      </trkpt>
      <trkpt lat="45.10849" lon="5.30035">
        <ele>211</ele>
        <time>2022-05-07T11:37:27.000Z</time>
      </trkpt>
      <trkpt lat="45.10848" lon="5.30026">
        <ele>211</ele>
        <time>2022-05-07T11:37:28.000Z</time>
      </trkpt>
      <trkpt lat="45.10848" lon="5.30018">
        <ele>211</ele>
        <time>2022-05-07T11:37:29.000Z</time>
      </trkpt>
      <trkpt lat="45.10847" lon="5.3001">
        <ele>211</ele>
        <time>2022-05-07T11:37:30.000Z</time>
      </trkpt>
      <trkpt lat="45.10846" lon="5.30002">
        <ele>211</ele>
        <time>2022-05-07T11:37:31.000Z</time>
      </trkpt>
      <trkpt lat="45.10845" lon="5.29994">
        <ele>211</ele>
        <time>2022-05-07T11:37:32.000Z</time>
      </trkpt>
      <trkpt lat="45.10844" lon="5.29986">
        <ele>211</ele>
        <time>2022-05-07T11:37:33.000Z</time>
      </trkpt>
      <trkpt lat="45.10844" lon="5.29979">
        <ele>211</ele>
        <time>2022-05-07T11:37:34.000Z</time>
      </trkpt>
      <trkpt lat="45.10843" lon="5.29972">
        <ele>211</ele>
        <time>2022-05-07T11:37:35.000Z</time>
      </trkpt>
      <trkpt lat="45.10842" lon="5.29964">
        <ele>211.3</ele>
        <time>2022-05-07T11:37:36.000Z</time>
      </trkpt>
      <trkpt lat="45.10842" lon="5.29957">
        <ele>211.5</ele>
        <time>2022-05-07T11:37:37.000Z</time>
      </trkpt>
      <trkpt lat="45.10841" lon="5.29951">
        <ele>211.8</ele>
        <time>2022-05-07T11:37:38.000Z</time>
      </trkpt>
      <trkpt lat="45.1084" lon="5.29943">
        <ele>212</ele>
        <time>2022-05-07T11:37:39.000Z</time>
      </trkpt>
      <trkpt lat="45.10839" lon="5.29937">
        <ele>211.7</ele>
        <time>2022-05-07T11:37:40.000Z</time>
      </trkpt>
      <trkpt lat="45.10838" lon="5.2993">
        <ele>211.5</ele>
        <time>2022-05-07T11:37:41.000Z</time>
      </trkpt>
      <trkpt lat="45.10837" lon="5.29923">
        <ele>211.2</ele>
        <time>2022-05-07T11:37:42.000Z</time>
      </trkpt>
      <trkpt lat="45.10836" lon="5.29917">
        <ele>211</ele>
        <time>2022-05-07T11:37:43.000Z</time>
      </trkpt>
      <trkpt lat="45.10835" lon="5.2991">
        <ele>211</ele>
        <time>2022-05-07T11:37:44.000Z</time>
      </trkpt>
      <trkpt lat="45.10835" lon="5.29904">
        <ele>211</ele>
        <time>2022-05-07T11:37:45.000Z</time>
      </trkpt>
      <trkpt lat="45.10835" lon="5.29898">
        <ele>211</ele>
        <time>2022-05-07T11:37:46.000Z</time>
      </trkpt>
      <trkpt lat="45.10834" lon="5.29891">
        <ele>211</ele>
        <time>2022-05-07T11:37:47.000Z</time>
      </trkpt>
      <trkpt lat="45.10834" lon="5.29885">
        <ele>211</ele>
        <time>2022-05-07T11:37:48.000Z</time>
      </trkpt>
      <trkpt lat="45.10834" lon="5.29879">
        <ele>211</ele>
        <time>2022-05-07T11:37:49.000Z</time>
      </trkpt>
      <trkpt lat="45.10834" lon="5.29874">
        <ele>211</ele>
        <time>2022-05-07T11:37:50.000Z</time>
      </trkpt>
      <trkpt lat="45.10834" lon="5.29868">
        <ele>211</ele>
        <time>2022-05-07T11:37:51.000Z</time>
      </trkpt>
      <trkpt lat="45.10834" lon="5.29864">
        <ele>211</ele>
        <time>2022-05-07T11:37:52.000Z</time>
      </trkpt>
      <trkpt lat="45.10834" lon="5.29858">
        <ele>211</ele>
        <time>2022-05-07T11:37:53.000Z</time>
      </trkpt>
      <trkpt lat="45.10834" lon="5.29852">
        <ele>211</ele>
        <time>2022-05-07T11:37:54.000Z</time>
      </trkpt>
      <trkpt lat="45.10835" lon="5.29847">
        <ele>211</ele>
        <time>2022-05-07T11:37:55.000Z</time>
      </trkpt>
      <trkpt lat="45.10835" lon="5.29841">
        <ele>211</ele>
        <time>2022-05-07T11:37:56.000Z</time>
      </trkpt>
      <trkpt lat="45.10834" lon="5.29836">
        <ele>211</ele>
        <time>2022-05-07T11:37:57.000Z</time>
      </trkpt>
      <trkpt lat="45.10834" lon="5.29831">
        <ele>211</ele>
        <time>2022-05-07T11:37:58.000Z</time>
      </trkpt>
      <trkpt lat="45.10833" lon="5.29824">
        <ele>211</ele>
        <time>2022-05-07T11:37:59.000Z</time>
      </trkpt>
      <trkpt lat="45.10833" lon="5.29818">
        <ele>211</ele>
        <time>2022-05-07T11:38:00.000Z</time>
      </trkpt>
      <trkpt lat="45.10832" lon="5.29811">
        <ele>211</ele>
        <time>2022-05-07T11:38:01.000Z</time>
      </trkpt>
      <trkpt lat="45.10831" lon="5.29806">
        <ele>211</ele>
        <time>2022-05-07T11:38:02.000Z</time>
      </trkpt>
      <trkpt lat="45.10831" lon="5.298">
        <ele>211</ele>
        <time>2022-05-07T11:38:03.000Z</time>
      </trkpt>
      <trkpt lat="45.10831" lon="5.29794">
        <ele>211</ele>
        <time>2022-05-07T11:38:04.000Z</time>
      </trkpt>
      <trkpt lat="45.1083" lon="5.29788">
        <ele>211</ele>
        <time>2022-05-07T11:38:05.000Z</time>
      </trkpt>
      <trkpt lat="45.1083" lon="5.29782">
        <ele>211</ele>
        <time>2022-05-07T11:38:06.000Z</time>
      </trkpt>
      <trkpt lat="45.10829" lon="5.29775">
        <ele>211</ele>
        <time>2022-05-07T11:38:07.000Z</time>
      </trkpt>
      <trkpt lat="45.10829" lon="5.29769">
        <ele>211</ele>
        <time>2022-05-07T11:38:08.000Z</time>
      </trkpt>
      <trkpt lat="45.10828" lon="5.29764">
        <ele>211</ele>
        <time>2022-05-07T11:38:09.000Z</time>
      </trkpt>
      <trkpt lat="45.10827" lon="5.29758">
        <ele>211</ele>
        <time>2022-05-07T11:38:10.000Z</time>
      </trkpt>
      <trkpt lat="45.10826" lon="5.29752">
        <ele>211</ele>
        <time>2022-05-07T11:38:11.000Z</time>
      </trkpt>
      <trkpt lat="45.10825" lon="5.29745">
        <ele>211</ele>
        <time>2022-05-07T11:38:12.000Z</time>
      </trkpt>
      <trkpt lat="45.10824" lon="5.29738">
        <ele>211</ele>
        <time>2022-05-07T11:38:13.000Z</time>
      </trkpt>
      <trkpt lat="45.10823" lon="5.29732">
        <ele>211</ele>
        <time>2022-05-07T11:38:14.000Z</time>
      </trkpt>
      <trkpt lat="45.10823" lon="5.29725">
        <ele>211</ele>
        <time>2022-05-07T11:38:15.000Z</time>
      </trkpt>
      <trkpt lat="45.10823" lon="5.29718">
        <ele>211</ele>
        <time>2022-05-07T11:38:16.000Z</time>
      </trkpt>
      <trkpt lat="45.10823" lon="5.29712">
        <ele>211</ele>
        <time>2022-05-07T11:38:17.000Z</time>
      </trkpt>
      <trkpt lat="45.10823" lon="5.29706">
        <ele>211</ele>
        <time>2022-05-07T11:38:18.000Z</time>
      </trkpt>
      <trkpt lat="45.10823" lon="5.29699">
        <ele>211</ele>
        <time>2022-05-07T11:38:19.000Z</time>
      </trkpt>
      <trkpt lat="45.10822" lon="5.29693">
        <ele>211</ele>
        <time>2022-05-07T11:38:20.000Z</time>
      </trkpt>
      <trkpt lat="45.10822" lon="5.29687">
        <ele>211</ele>
        <time>2022-05-07T11:38:21.000Z</time>
      </trkpt>
      <trkpt lat="45.10822" lon="5.29681">
        <ele>211</ele>
        <time>2022-05-07T11:38:22.000Z</time>
      </trkpt>
      <trkpt lat="45.10821" lon="5.29675">
        <ele>211</ele>
        <time>2022-05-07T11:38:23.000Z</time>
      </trkpt>
      <trkpt lat="45.10821" lon="5.2967">
        <ele>211</ele>
        <time>2022-05-07T11:38:24.000Z</time>
      </trkpt>
      <trkpt lat="45.1082" lon="5.29664">
        <ele>211</ele>
        <time>2022-05-07T11:38:25.000Z</time>
      </trkpt>
      <trkpt lat="45.1082" lon="5.29659">
        <ele>211</ele>
        <time>2022-05-07T11:38:26.000Z</time>
      </trkpt>
      <trkpt lat="45.1082" lon="5.29653">
        <ele>211</ele>
        <time>2022-05-07T11:38:27.000Z</time>
      </trkpt>
      <trkpt lat="45.1082" lon="5.29648">
        <ele>211</ele>
        <time>2022-05-07T11:38:28.000Z</time>
      </trkpt>
      <trkpt lat="45.10819" lon="5.29643">
        <ele>211</ele>
        <time>2022-05-07T11:38:29.000Z</time>
      </trkpt>
      <trkpt lat="45.10819" lon="5.29638">
        <ele>211</ele>
        <time>2022-05-07T11:38:30.000Z</time>
      </trkpt>
      <trkpt lat="45.10818" lon="5.29633">
        <ele>211</ele>
        <time>2022-05-07T11:38:31.000Z</time>
      </trkpt>
      <trkpt lat="45.10817" lon="5.29627">
        <ele>211</ele>
        <time>2022-05-07T11:38:32.000Z</time>
      </trkpt>
      <trkpt lat="45.10816" lon="5.29622">
        <ele>211</ele>
        <time>2022-05-07T11:38:33.000Z</time>
      </trkpt>
      <trkpt lat="45.10815" lon="5.29617">
        <ele>211</ele>
        <time>2022-05-07T11:38:34.000Z</time>
      </trkpt>
      <trkpt lat="45.10815" lon="5.29612">
        <ele>211</ele>
        <time>2022-05-07T11:38:35.000Z</time>
      </trkpt>
      <trkpt lat="45.10814" lon="5.29607">
        <ele>211</ele>
        <time>2022-05-07T11:38:36.000Z</time>
      </trkpt>
      <trkpt lat="45.10813" lon="5.29602">
        <ele>211</ele>
        <time>2022-05-07T11:38:37.000Z</time>
      </trkpt>
      <trkpt lat="45.10812" lon="5.29596">
        <ele>211</ele>
        <time>2022-05-07T11:38:38.000Z</time>
      </trkpt>
      <trkpt lat="45.10812" lon="5.29591">
        <ele>211</ele>
        <time>2022-05-07T11:38:39.000Z</time>
      </trkpt>
      <trkpt lat="45.10812" lon="5.29586">
        <ele>211</ele>
        <time>2022-05-07T11:38:40.000Z</time>
      </trkpt>
      <trkpt lat="45.10812" lon="5.29582">
        <ele>211</ele>
        <time>2022-05-07T11:38:41.000Z</time>
      </trkpt>
      <trkpt lat="45.10813" lon="5.29577">
        <ele>211</ele>
        <time>2022-05-07T11:38:42.000Z</time>
      </trkpt>
      <trkpt lat="45.10812" lon="5.29572">
        <ele>211</ele>
        <time>2022-05-07T11:38:43.000Z</time>
      </trkpt>
      <trkpt lat="45.10813" lon="5.29567">
        <ele>211</ele>
        <time>2022-05-07T11:38:44.000Z</time>
      </trkpt>
      <trkpt lat="45.10812" lon="5.29563">
        <ele>211</ele>
        <time>2022-05-07T11:38:45.000Z</time>
      </trkpt>
      <trkpt lat="45.10812" lon="5.29558">
        <ele>211</ele>
        <time>2022-05-07T11:38:46.000Z</time>
      </trkpt>
      <trkpt lat="45.10812" lon="5.29554">
        <ele>211</ele>
        <time>2022-05-07T11:38:47.000Z</time>
      </trkpt>
      <trkpt lat="45.10811" lon="5.29549">
        <ele>211</ele>
        <time>2022-05-07T11:38:48.000Z</time>
      </trkpt>
      <trkpt lat="45.1081" lon="5.29544">
        <ele>211</ele>
        <time>2022-05-07T11:38:49.000Z</time>
      </trkpt>
      <trkpt lat="45.10809" lon="5.29538">
        <ele>211</ele>
        <time>2022-05-07T11:38:50.000Z</time>
      </trkpt>
      <trkpt lat="45.10809" lon="5.29533">
        <ele>211</ele>
        <time>2022-05-07T11:38:51.000Z</time>
      </trkpt>
      <trkpt lat="45.10808" lon="5.29527">
        <ele>211</ele>
        <time>2022-05-07T11:38:52.000Z</time>
      </trkpt>
      <trkpt lat="45.10808" lon="5.29521">
        <ele>211</ele>
        <time>2022-05-07T11:38:53.000Z</time>
      </trkpt>
      <trkpt lat="45.10807" lon="5.29515">
        <ele>211</ele>
        <time>2022-05-07T11:38:54.000Z</time>
      </trkpt>
      <trkpt lat="45.10807" lon="5.2951">
        <ele>211</ele>
        <time>2022-05-07T11:38:55.000Z</time>
      </trkpt>
      <trkpt lat="45.10806" lon="5.29504">
        <ele>211</ele>
        <time>2022-05-07T11:38:56.000Z</time>
      </trkpt>
      <trkpt lat="45.10805" lon="5.29498">
        <ele>211</ele>
        <time>2022-05-07T11:38:57.000Z</time>
      </trkpt>
      <trkpt lat="45.10804" lon="5.29492">
        <ele>211</ele>
        <time>2022-05-07T11:38:58.000Z</time>
      </trkpt>
      <trkpt lat="45.10804" lon="5.29486">
        <ele>211</ele>
        <time>2022-05-07T11:38:59.000Z</time>
      </trkpt>
      <trkpt lat="45.10803" lon="5.2948">
        <ele>211</ele>
        <time>2022-05-07T11:39:00.000Z</time>
      </trkpt>
      <trkpt lat="45.10803" lon="5.29473">
        <ele>211</ele>
        <time>2022-05-07T11:39:01.000Z</time>
      </trkpt>
      <trkpt lat="45.10802" lon="5.29466">
        <ele>211</ele>
        <time>2022-05-07T11:39:02.000Z</time>
      </trkpt>
      <trkpt lat="45.10801" lon="5.2946">
        <ele>211</ele>
        <time>2022-05-07T11:39:03.000Z</time>
      </trkpt>
      <trkpt lat="45.10801" lon="5.29453">
        <ele>211</ele>
        <time>2022-05-07T11:39:04.000Z</time>
      </trkpt>
      <trkpt lat="45.108" lon="5.29446">
        <ele>211</ele>
        <time>2022-05-07T11:39:05.000Z</time>
      </trkpt>
      <trkpt lat="45.108" lon="5.29439">
        <ele>211.2</ele>
        <time>2022-05-07T11:39:06.000Z</time>
      </trkpt>
      <trkpt lat="45.108" lon="5.29432">
        <ele>211.4</ele>
        <time>2022-05-07T11:39:07.000Z</time>
      </trkpt>
      <trkpt lat="45.10799" lon="5.29425">
        <ele>211.5</ele>
        <time>2022-05-07T11:39:08.000Z</time>
      </trkpt>
      <trkpt lat="45.10799" lon="5.29419">
        <ele>211.7</ele>
        <time>2022-05-07T11:39:09.000Z</time>
      </trkpt>
      <trkpt lat="45.10798" lon="5.29412">
        <ele>211.6</ele>
        <time>2022-05-07T11:39:10.000Z</time>
      </trkpt>
      <trkpt lat="45.10797" lon="5.29405">
        <ele>211.4</ele>
        <time>2022-05-07T11:39:11.000Z</time>
      </trkpt>
      <trkpt lat="45.10797" lon="5.29398">
        <ele>211.2</ele>
        <time>2022-05-07T11:39:12.000Z</time>
      </trkpt>
      <trkpt lat="45.10796" lon="5.29391">
        <ele>211.1</ele>
        <time>2022-05-07T11:39:13.000Z</time>
      </trkpt>
      <trkpt lat="45.10795" lon="5.29385">
        <ele>211</ele>
        <time>2022-05-07T11:39:14.000Z</time>
      </trkpt>
      <trkpt lat="45.10794" lon="5.29377">
        <ele>211</ele>
        <time>2022-05-07T11:39:15.000Z</time>
      </trkpt>
      <trkpt lat="45.10794" lon="5.2937">
        <ele>211</ele>
        <time>2022-05-07T11:39:16.000Z</time>
      </trkpt>
      <trkpt lat="45.10793" lon="5.29363">
        <ele>211</ele>
        <time>2022-05-07T11:39:17.000Z</time>
      </trkpt>
      <trkpt lat="45.10792" lon="5.29356">
        <ele>211</ele>
        <time>2022-05-07T11:39:18.000Z</time>
      </trkpt>
      <trkpt lat="45.10791" lon="5.29348">
        <ele>211</ele>
        <time>2022-05-07T11:39:19.000Z</time>
      </trkpt>
      <trkpt lat="45.10791" lon="5.29341">
        <ele>211</ele>
        <time>2022-05-07T11:39:20.000Z</time>
      </trkpt>
      <trkpt lat="45.1079" lon="5.29333">
        <ele>211</ele>
        <time>2022-05-07T11:39:21.000Z</time>
      </trkpt>
      <trkpt lat="45.1079" lon="5.29326">
        <ele>211</ele>
        <time>2022-05-07T11:39:22.000Z</time>
      </trkpt>
      <trkpt lat="45.10789" lon="5.29318">
        <ele>211</ele>
        <time>2022-05-07T11:39:23.000Z</time>
      </trkpt>
      <trkpt lat="45.10788" lon="5.29311">
        <ele>211</ele>
        <time>2022-05-07T11:39:24.000Z</time>
      </trkpt>
      <trkpt lat="45.10788" lon="5.29302">
        <ele>211.1</ele>
        <time>2022-05-07T11:39:25.000Z</time>
      </trkpt>
      <trkpt lat="45.10788" lon="5.29294">
        <ele>211.3</ele>
        <time>2022-05-07T11:39:26.000Z</time>
      </trkpt>
      <trkpt lat="45.10787" lon="5.29287">
        <ele>211.5</ele>
        <time>2022-05-07T11:39:27.000Z</time>
      </trkpt>
      <trkpt lat="45.10786" lon="5.29279">
        <ele>211.7</ele>
        <time>2022-05-07T11:39:28.000Z</time>
      </trkpt>
      <trkpt lat="45.10785" lon="5.2927">
        <ele>211.7</ele>
        <time>2022-05-07T11:39:29.000Z</time>
      </trkpt>
      <trkpt lat="45.10784" lon="5.29262">
        <ele>211.8</ele>
        <time>2022-05-07T11:39:30.000Z</time>
      </trkpt>
      <trkpt lat="45.10783" lon="5.29255">
        <ele>211.8</ele>
        <time>2022-05-07T11:39:31.000Z</time>
      </trkpt>
      <trkpt lat="45.10783" lon="5.29247">
        <ele>211.8</ele>
        <time>2022-05-07T11:39:32.000Z</time>
      </trkpt>
      <trkpt lat="45.10782" lon="5.29239">
        <ele>211.9</ele>
        <time>2022-05-07T11:39:33.000Z</time>
      </trkpt>
      <trkpt lat="45.10781" lon="5.29232">
        <ele>211.9</ele>
        <time>2022-05-07T11:39:34.000Z</time>
      </trkpt>
      <trkpt lat="45.1078" lon="5.29224">
        <ele>211.9</ele>
        <time>2022-05-07T11:39:35.000Z</time>
      </trkpt>
      <trkpt lat="45.1078" lon="5.29217">
        <ele>211.8</ele>
        <time>2022-05-07T11:39:36.000Z</time>
      </trkpt>
      <trkpt lat="45.10779" lon="5.29209">
        <ele>211.5</ele>
        <time>2022-05-07T11:39:37.000Z</time>
      </trkpt>
      <trkpt lat="45.10778" lon="5.292">
        <ele>211.2</ele>
        <time>2022-05-07T11:39:38.000Z</time>
      </trkpt>
      <trkpt lat="45.10777" lon="5.29192">
        <ele>211</ele>
        <time>2022-05-07T11:39:39.000Z</time>
      </trkpt>
      <trkpt lat="45.10777" lon="5.29183">
        <ele>211</ele>
        <time>2022-05-07T11:39:40.000Z</time>
      </trkpt>
      <trkpt lat="45.10776" lon="5.29174">
        <ele>211.1</ele>
        <time>2022-05-07T11:39:41.000Z</time>
      </trkpt>
      <trkpt lat="45.10775" lon="5.29165">
        <ele>211.1</ele>
        <time>2022-05-07T11:39:42.000Z</time>
      </trkpt>
      <trkpt lat="45.10774" lon="5.29157">
        <ele>211.1</ele>
        <time>2022-05-07T11:39:43.000Z</time>
      </trkpt>
      <trkpt lat="45.10774" lon="5.29148">
        <ele>211.2</ele>
        <time>2022-05-07T11:39:44.000Z</time>
      </trkpt>
      <trkpt lat="45.10773" lon="5.29139">
        <ele>211.2</ele>
        <time>2022-05-07T11:39:45.000Z</time>
      </trkpt>
      <trkpt lat="45.10772" lon="5.29129">
        <ele>211.2</ele>
        <time>2022-05-07T11:39:46.000Z</time>
      </trkpt>
      <trkpt lat="45.10772" lon="5.2912">
        <ele>211.2</ele>
        <time>2022-05-07T11:39:47.000Z</time>
      </trkpt>
      <trkpt lat="45.10771" lon="5.2911">
        <ele>211.2</ele>
        <time>2022-05-07T11:39:48.000Z</time>
      </trkpt>
      <trkpt lat="45.1077" lon="5.291">
        <ele>210.9</ele>
        <time>2022-05-07T11:39:49.000Z</time>
      </trkpt>
      <trkpt lat="45.10769" lon="5.2909">
        <ele>210.6</ele>
        <time>2022-05-07T11:39:50.000Z</time>
      </trkpt>
      <trkpt lat="45.10768" lon="5.2908">
        <ele>210.3</ele>
        <time>2022-05-07T11:39:51.000Z</time>
      </trkpt>
      <trkpt lat="45.10767" lon="5.29069">
        <ele>210.2</ele>
        <time>2022-05-07T11:39:52.000Z</time>
      </trkpt>
      <trkpt lat="45.10766" lon="5.29059">
        <ele>210</ele>
        <time>2022-05-07T11:39:53.000Z</time>
      </trkpt>
      <trkpt lat="45.10766" lon="5.29048">
        <ele>209.7</ele>
        <time>2022-05-07T11:39:54.000Z</time>
      </trkpt>
      <trkpt lat="45.10765" lon="5.29038">
        <ele>209.4</ele>
        <time>2022-05-07T11:39:55.000Z</time>
      </trkpt>
      <trkpt lat="45.10764" lon="5.29028">
        <ele>209</ele>
        <time>2022-05-07T11:39:56.000Z</time>
      </trkpt>
      <trkpt lat="45.10763" lon="5.29017">
        <ele>209</ele>
        <time>2022-05-07T11:39:57.000Z</time>
      </trkpt>
      <trkpt lat="45.10762" lon="5.29008">
        <ele>209</ele>
        <time>2022-05-07T11:39:58.000Z</time>
      </trkpt>
      <trkpt lat="45.10762" lon="5.28998">
        <ele>209</ele>
        <time>2022-05-07T11:39:59.000Z</time>
      </trkpt>
      <trkpt lat="45.10761" lon="5.28988">
        <ele>209</ele>
        <time>2022-05-07T11:40:00.000Z</time>
      </trkpt>
      <trkpt lat="45.1076" lon="5.28979">
        <ele>209</ele>
        <time>2022-05-07T11:40:01.000Z</time>
      </trkpt>
      <trkpt lat="45.10759" lon="5.2897">
        <ele>209.1</ele>
        <time>2022-05-07T11:40:02.000Z</time>
      </trkpt>
      <trkpt lat="45.10759" lon="5.28961">
        <ele>209.3</ele>
        <time>2022-05-07T11:40:03.000Z</time>
      </trkpt>
      <trkpt lat="45.10758" lon="5.28953">
        <ele>209.5</ele>
        <time>2022-05-07T11:40:04.000Z</time>
      </trkpt>
      <trkpt lat="45.10758" lon="5.28945">
        <ele>209.7</ele>
        <time>2022-05-07T11:40:05.000Z</time>
      </trkpt>
      <trkpt lat="45.10757" lon="5.28937">
        <ele>209.6</ele>
        <time>2022-05-07T11:40:06.000Z</time>
      </trkpt>
      <trkpt lat="45.10756" lon="5.2893">
        <ele>209.4</ele>
        <time>2022-05-07T11:40:07.000Z</time>
      </trkpt>
      <trkpt lat="45.10755" lon="5.28922">
        <ele>209.1</ele>
        <time>2022-05-07T11:40:08.000Z</time>
      </trkpt>
      <trkpt lat="45.10755" lon="5.28914">
        <ele>209</ele>
        <time>2022-05-07T11:40:09.000Z</time>
      </trkpt>
      <trkpt lat="45.10754" lon="5.28907">
        <ele>209</ele>
        <time>2022-05-07T11:40:10.000Z</time>
      </trkpt>
      <trkpt lat="45.10753" lon="5.28899">
        <ele>209</ele>
        <time>2022-05-07T11:40:11.000Z</time>
      </trkpt>
      <trkpt lat="45.10753" lon="5.28892">
        <ele>209</ele>
        <time>2022-05-07T11:40:12.000Z</time>
      </trkpt>
      <trkpt lat="45.10752" lon="5.28884">
        <ele>209</ele>
        <time>2022-05-07T11:40:13.000Z</time>
      </trkpt>
      <trkpt lat="45.10751" lon="5.28877">
        <ele>209</ele>
        <time>2022-05-07T11:40:14.000Z</time>
      </trkpt>
      <trkpt lat="45.10751" lon="5.2887">
        <ele>209</ele>
        <time>2022-05-07T11:40:15.000Z</time>
      </trkpt>
      <trkpt lat="45.1075" lon="5.28863">
        <ele>209</ele>
        <time>2022-05-07T11:40:16.000Z</time>
      </trkpt>
      <trkpt lat="45.10749" lon="5.28856">
        <ele>209</ele>
        <time>2022-05-07T11:40:17.000Z</time>
      </trkpt>
      <trkpt lat="45.10748" lon="5.28848">
        <ele>209</ele>
        <time>2022-05-07T11:40:18.000Z</time>
      </trkpt>
      <trkpt lat="45.10748" lon="5.28841">
        <ele>209</ele>
        <time>2022-05-07T11:40:19.000Z</time>
      </trkpt>
      <trkpt lat="45.10747" lon="5.28834">
        <ele>209</ele>
        <time>2022-05-07T11:40:20.000Z</time>
      </trkpt>
      <trkpt lat="45.10747" lon="5.28826">
        <ele>208.8</ele>
        <time>2022-05-07T11:40:21.000Z</time>
      </trkpt>
      <trkpt lat="45.10746" lon="5.28818">
        <ele>208.5</ele>
        <time>2022-05-07T11:40:22.000Z</time>
      </trkpt>
      <trkpt lat="45.10746" lon="5.28809">
        <ele>208.3</ele>
        <time>2022-05-07T11:40:23.000Z</time>
      </trkpt>
      <trkpt lat="45.10745" lon="5.28801">
        <ele>208.2</ele>
        <time>2022-05-07T11:40:24.000Z</time>
      </trkpt>
      <trkpt lat="45.10745" lon="5.28793">
        <ele>208.2</ele>
        <time>2022-05-07T11:40:25.000Z</time>
      </trkpt>
      <trkpt lat="45.10744" lon="5.28784">
        <ele>208.2</ele>
        <time>2022-05-07T11:40:26.000Z</time>
      </trkpt>
      <trkpt lat="45.10743" lon="5.28776">
        <ele>208.2</ele>
        <time>2022-05-07T11:40:27.000Z</time>
      </trkpt>
      <trkpt lat="45.10743" lon="5.28767">
        <ele>208.2</ele>
        <time>2022-05-07T11:40:28.000Z</time>
      </trkpt>
      <trkpt lat="45.10742" lon="5.28759">
        <ele>208.1</ele>
        <time>2022-05-07T11:40:29.000Z</time>
      </trkpt>
      <trkpt lat="45.10742" lon="5.28751">
        <ele>208</ele>
        <time>2022-05-07T11:40:30.000Z</time>
      </trkpt>
      <trkpt lat="45.10741" lon="5.28743">
        <ele>208.2</ele>
        <time>2022-05-07T11:40:31.000Z</time>
      </trkpt>
      <trkpt lat="45.10741" lon="5.28734">
        <ele>208.4</ele>
        <time>2022-05-07T11:40:32.000Z</time>
      </trkpt>
      <trkpt lat="45.1074" lon="5.28726">
        <ele>208.6</ele>
        <time>2022-05-07T11:40:33.000Z</time>
      </trkpt>
      <trkpt lat="45.1074" lon="5.28718">
        <ele>208.6</ele>
        <time>2022-05-07T11:40:34.000Z</time>
      </trkpt>
      <trkpt lat="45.1074" lon="5.28709">
        <ele>208.6</ele>
        <time>2022-05-07T11:40:35.000Z</time>
      </trkpt>
      <trkpt lat="45.1074" lon="5.28701">
        <ele>208.6</ele>
        <time>2022-05-07T11:40:36.000Z</time>
      </trkpt>
      <trkpt lat="45.10739" lon="5.28693">
        <ele>208.6</ele>
        <time>2022-05-07T11:40:37.000Z</time>
      </trkpt>
      <trkpt lat="45.10739" lon="5.28685">
        <ele>208.6</ele>
        <time>2022-05-07T11:40:38.000Z</time>
      </trkpt>
      <trkpt lat="45.10738" lon="5.28677">
        <ele>208.6</ele>
        <time>2022-05-07T11:40:39.000Z</time>
      </trkpt>
      <trkpt lat="45.10738" lon="5.28669">
        <ele>208.5</ele>
        <time>2022-05-07T11:40:40.000Z</time>
      </trkpt>
      <trkpt lat="45.10737" lon="5.28661">
        <ele>208.5</ele>
        <time>2022-05-07T11:40:41.000Z</time>
      </trkpt>
      <trkpt lat="45.10737" lon="5.28653">
        <ele>208.5</ele>
        <time>2022-05-07T11:40:42.000Z</time>
      </trkpt>
      <trkpt lat="45.10736" lon="5.28646">
        <ele>208.5</ele>
        <time>2022-05-07T11:40:43.000Z</time>
      </trkpt>
      <trkpt lat="45.10736" lon="5.28638">
        <ele>208.5</ele>
        <time>2022-05-07T11:40:44.000Z</time>
      </trkpt>
      <trkpt lat="45.10735" lon="5.28631">
        <ele>208.6</ele>
        <time>2022-05-07T11:40:45.000Z</time>
      </trkpt>
      <trkpt lat="45.10734" lon="5.28625">
        <ele>208.7</ele>
        <time>2022-05-07T11:40:46.000Z</time>
      </trkpt>
      <trkpt lat="45.10733" lon="5.28617">
        <ele>208.9</ele>
        <time>2022-05-07T11:40:47.000Z</time>
      </trkpt>
      <trkpt lat="45.10732" lon="5.28609">
        <ele>209.1</ele>
        <time>2022-05-07T11:40:48.000Z</time>
      </trkpt>
      <trkpt lat="45.10732" lon="5.28601">
        <ele>209.2</ele>
        <time>2022-05-07T11:40:49.000Z</time>
      </trkpt>
      <trkpt lat="45.10731" lon="5.28593">
        <ele>209.4</ele>
        <time>2022-05-07T11:40:50.000Z</time>
      </trkpt>
      <trkpt lat="45.1073" lon="5.28586">
        <ele>209.5</ele>
        <time>2022-05-07T11:40:51.000Z</time>
      </trkpt>
      <trkpt lat="45.1073" lon="5.28578">
        <ele>209.5</ele>
        <time>2022-05-07T11:40:52.000Z</time>
      </trkpt>
      <trkpt lat="45.10729" lon="5.28571">
        <ele>209.4</ele>
        <time>2022-05-07T11:40:53.000Z</time>
      </trkpt>
      <trkpt lat="45.10729" lon="5.28564">
        <ele>209.3</ele>
        <time>2022-05-07T11:40:54.000Z</time>
      </trkpt>
      <trkpt lat="45.10728" lon="5.28557">
        <ele>209.2</ele>
        <time>2022-05-07T11:40:55.000Z</time>
      </trkpt>
      <trkpt lat="45.10727" lon="5.2855">
        <ele>209.3</ele>
        <time>2022-05-07T11:40:56.000Z</time>
      </trkpt>
      <trkpt lat="45.10727" lon="5.28543">
        <ele>209.5</ele>
        <time>2022-05-07T11:40:57.000Z</time>
      </trkpt>
      <trkpt lat="45.10726" lon="5.28536">
        <ele>209.7</ele>
        <time>2022-05-07T11:40:58.000Z</time>
      </trkpt>
      <trkpt lat="45.10726" lon="5.28529">
        <ele>209.9</ele>
        <time>2022-05-07T11:40:59.000Z</time>
      </trkpt>
      <trkpt lat="45.10725" lon="5.28522">
        <ele>209.9</ele>
        <time>2022-05-07T11:41:00.000Z</time>
      </trkpt>
      <trkpt lat="45.10724" lon="5.28514">
        <ele>209.9</ele>
        <time>2022-05-07T11:41:01.000Z</time>
      </trkpt>
      <trkpt lat="45.10724" lon="5.28506">
        <ele>209.8</ele>
        <time>2022-05-07T11:41:02.000Z</time>
      </trkpt>
      <trkpt lat="45.10724" lon="5.28499">
        <ele>209.8</ele>
        <time>2022-05-07T11:41:03.000Z</time>
      </trkpt>
      <trkpt lat="45.10723" lon="5.28491">
        <ele>209.9</ele>
        <time>2022-05-07T11:41:04.000Z</time>
      </trkpt>
      <trkpt lat="45.10722" lon="5.28484">
        <ele>210</ele>
        <time>2022-05-07T11:41:05.000Z</time>
      </trkpt>
      <trkpt lat="45.10722" lon="5.28476">
        <ele>210</ele>
        <time>2022-05-07T11:41:06.000Z</time>
      </trkpt>
      <trkpt lat="45.10721" lon="5.2847">
        <ele>210.1</ele>
        <time>2022-05-07T11:41:07.000Z</time>
      </trkpt>
      <trkpt lat="45.10721" lon="5.28463">
        <ele>210.3</ele>
        <time>2022-05-07T11:41:08.000Z</time>
      </trkpt>
      <trkpt lat="45.1072" lon="5.28456">
        <ele>210.5</ele>
        <time>2022-05-07T11:41:09.000Z</time>
      </trkpt>
      <trkpt lat="45.10719" lon="5.28449">
        <ele>210.6</ele>
        <time>2022-05-07T11:41:10.000Z</time>
      </trkpt>
      <trkpt lat="45.10719" lon="5.28442">
        <ele>210.7</ele>
        <time>2022-05-07T11:41:11.000Z</time>
      </trkpt>
      <trkpt lat="45.10719" lon="5.28435">
        <ele>210.4</ele>
        <time>2022-05-07T11:41:12.000Z</time>
      </trkpt>
      <trkpt lat="45.10718" lon="5.28427">
        <ele>210.2</ele>
        <time>2022-05-07T11:41:13.000Z</time>
      </trkpt>
      <trkpt lat="45.10718" lon="5.2842">
        <ele>209.9</ele>
        <time>2022-05-07T11:41:14.000Z</time>
      </trkpt>
      <trkpt lat="45.10717" lon="5.28412">
        <ele>209.8</ele>
        <time>2022-05-07T11:41:15.000Z</time>
      </trkpt>
      <trkpt lat="45.10716" lon="5.28404">
        <ele>209.9</ele>
        <time>2022-05-07T11:41:16.000Z</time>
      </trkpt>
      <trkpt lat="45.10716" lon="5.28397">
        <ele>209.9</ele>
        <time>2022-05-07T11:41:17.000Z</time>
      </trkpt>
      <trkpt lat="45.10716" lon="5.28389">
        <ele>210</ele>
        <time>2022-05-07T11:41:18.000Z</time>
      </trkpt>
      <trkpt lat="45.10715" lon="5.28381">
        <ele>209.8</ele>
        <time>2022-05-07T11:41:19.000Z</time>
      </trkpt>
      <trkpt lat="45.10715" lon="5.28372">
        <ele>209.6</ele>
        <time>2022-05-07T11:41:20.000Z</time>
      </trkpt>
      <trkpt lat="45.10713" lon="5.28363">
        <ele>209.4</ele>
        <time>2022-05-07T11:41:21.000Z</time>
      </trkpt>
      <trkpt lat="45.10713" lon="5.28355">
        <ele>209.2</ele>
        <time>2022-05-07T11:41:22.000Z</time>
      </trkpt>
      <trkpt lat="45.10713" lon="5.28346">
        <ele>209</ele>
        <time>2022-05-07T11:41:23.000Z</time>
      </trkpt>
      <trkpt lat="45.10712" lon="5.28336">
        <ele>208.8</ele>
        <time>2022-05-07T11:41:24.000Z</time>
      </trkpt>
      <trkpt lat="45.10712" lon="5.28325">
        <ele>208.4</ele>
        <time>2022-05-07T11:41:25.000Z</time>
      </trkpt>
      <trkpt lat="45.10711" lon="5.28313">
        <ele>208</ele>
        <time>2022-05-07T11:41:26.000Z</time>
      </trkpt>
      <trkpt lat="45.1071" lon="5.28303">
        <ele>207.7</ele>
        <time>2022-05-07T11:41:27.000Z</time>
      </trkpt>
      <trkpt lat="45.1071" lon="5.28293">
        <ele>207.3</ele>
        <time>2022-05-07T11:41:28.000Z</time>
      </trkpt>
      <trkpt lat="45.10709" lon="5.28282">
        <ele>207</ele>
        <time>2022-05-07T11:41:29.000Z</time>
      </trkpt>
      <trkpt lat="45.10708" lon="5.28273">
        <ele>206.6</ele>
        <time>2022-05-07T11:41:30.000Z</time>
      </trkpt>
      <trkpt lat="45.10708" lon="5.28264">
        <ele>206</ele>
        <time>2022-05-07T11:41:31.000Z</time>
      </trkpt>
      <trkpt lat="45.10707" lon="5.28254">
        <ele>205.4</ele>
        <time>2022-05-07T11:41:32.000Z</time>
      </trkpt>
      <trkpt lat="45.10707" lon="5.28244">
        <ele>204.5</ele>
        <time>2022-05-07T11:41:33.000Z</time>
      </trkpt>
      <trkpt lat="45.10707" lon="5.28234">
        <ele>203.5</ele>
        <time>2022-05-07T11:41:34.000Z</time>
      </trkpt>
      <trkpt lat="45.10707" lon="5.28225">
        <ele>202.5</ele>
        <time>2022-05-07T11:41:35.000Z</time>
      </trkpt>
      <trkpt lat="45.10706" lon="5.28214">
        <ele>202.2</ele>
        <time>2022-05-07T11:41:36.000Z</time>
      </trkpt>
      <trkpt lat="45.10705" lon="5.28202">
        <ele>202.1</ele>
        <time>2022-05-07T11:41:37.000Z</time>
      </trkpt>
      <trkpt lat="45.10704" lon="5.28191">
        <ele>202</ele>
        <time>2022-05-07T11:41:38.000Z</time>
      </trkpt>
      <trkpt lat="45.10703" lon="5.2818">
        <ele>202</ele>
        <time>2022-05-07T11:41:39.000Z</time>
      </trkpt>
      <trkpt lat="45.10702" lon="5.2817">
        <ele>202</ele>
        <time>2022-05-07T11:41:40.000Z</time>
      </trkpt>
      <trkpt lat="45.10702" lon="5.28161">
        <ele>202</ele>
        <time>2022-05-07T11:41:41.000Z</time>
      </trkpt>
      <trkpt lat="45.10701" lon="5.28151">
        <ele>202.1</ele>
        <time>2022-05-07T11:41:42.000Z</time>
      </trkpt>
      <trkpt lat="45.107" lon="5.28141">
        <ele>202.2</ele>
        <time>2022-05-07T11:41:43.000Z</time>
      </trkpt>
      <trkpt lat="45.107" lon="5.28131">
        <ele>202.1</ele>
        <time>2022-05-07T11:41:44.000Z</time>
      </trkpt>
      <trkpt lat="45.10699" lon="5.28121">
        <ele>202</ele>
        <time>2022-05-07T11:41:45.000Z</time>
      </trkpt>
      <trkpt lat="45.10697" lon="5.28112">
        <ele>201.8</ele>
        <time>2022-05-07T11:41:46.000Z</time>
      </trkpt>
      <trkpt lat="45.10696" lon="5.28101">
        <ele>201.9</ele>
        <time>2022-05-07T11:41:47.000Z</time>
      </trkpt>
      <trkpt lat="45.10695" lon="5.28091">
        <ele>202</ele>
        <time>2022-05-07T11:41:48.000Z</time>
      </trkpt>
      <trkpt lat="45.10693" lon="5.28081">
        <ele>201.9</ele>
        <time>2022-05-07T11:41:49.000Z</time>
      </trkpt>
      <trkpt lat="45.10693" lon="5.28072">
        <ele>201.9</ele>
        <time>2022-05-07T11:41:50.000Z</time>
      </trkpt>
      <trkpt lat="45.10692" lon="5.28063">
        <ele>201.9</ele>
        <time>2022-05-07T11:41:51.000Z</time>
      </trkpt>
      <trkpt lat="45.10692" lon="5.28053">
        <ele>201.9</ele>
        <time>2022-05-07T11:41:52.000Z</time>
      </trkpt>
      <trkpt lat="45.10691" lon="5.28044">
        <ele>201.9</ele>
        <time>2022-05-07T11:41:53.000Z</time>
      </trkpt>
      <trkpt lat="45.1069" lon="5.28034">
        <ele>201.8</ele>
        <time>2022-05-07T11:41:54.000Z</time>
      </trkpt>
      <trkpt lat="45.10689" lon="5.28025">
        <ele>201.8</ele>
        <time>2022-05-07T11:41:55.000Z</time>
      </trkpt>
      <trkpt lat="45.10687" lon="5.28016">
        <ele>201.8</ele>
        <time>2022-05-07T11:41:56.000Z</time>
      </trkpt>
      <trkpt lat="45.10685" lon="5.28006">
        <ele>201.9</ele>
        <time>2022-05-07T11:41:57.000Z</time>
      </trkpt>
      <trkpt lat="45.10685" lon="5.27997">
        <ele>202</ele>
        <time>2022-05-07T11:41:58.000Z</time>
      </trkpt>
      <trkpt lat="45.10684" lon="5.27987">
        <ele>202</ele>
        <time>2022-05-07T11:41:59.000Z</time>
      </trkpt>
      <trkpt lat="45.10683" lon="5.27978">
        <ele>202</ele>
        <time>2022-05-07T11:42:00.000Z</time>
      </trkpt>
      <trkpt lat="45.10682" lon="5.27969">
        <ele>202</ele>
        <time>2022-05-07T11:42:01.000Z</time>
      </trkpt>
      <trkpt lat="45.10681" lon="5.2796">
        <ele>202</ele>
        <time>2022-05-07T11:42:02.000Z</time>
      </trkpt>
      <trkpt lat="45.1068" lon="5.2795">
        <ele>202</ele>
        <time>2022-05-07T11:42:03.000Z</time>
      </trkpt>
      <trkpt lat="45.1068" lon="5.27942">
        <ele>202</ele>
        <time>2022-05-07T11:42:04.000Z</time>
      </trkpt>
      <trkpt lat="45.10679" lon="5.27932">
        <ele>202</ele>
        <time>2022-05-07T11:42:05.000Z</time>
      </trkpt>
      <trkpt lat="45.10679" lon="5.27923">
        <ele>202</ele>
        <time>2022-05-07T11:42:06.000Z</time>
      </trkpt>
      <trkpt lat="45.10678" lon="5.27914">
        <ele>202</ele>
        <time>2022-05-07T11:42:07.000Z</time>
      </trkpt>
      <trkpt lat="45.10677" lon="5.27905">
        <ele>202</ele>
        <time>2022-05-07T11:42:08.000Z</time>
      </trkpt>
      <trkpt lat="45.10677" lon="5.27895">
        <ele>202</ele>
        <time>2022-05-07T11:42:09.000Z</time>
      </trkpt>
      <trkpt lat="45.10676" lon="5.27885">
        <ele>202</ele>
        <time>2022-05-07T11:42:10.000Z</time>
      </trkpt>
      <trkpt lat="45.10674" lon="5.27876">
        <ele>202</ele>
        <time>2022-05-07T11:42:11.000Z</time>
      </trkpt>
      <trkpt lat="45.10673" lon="5.27866">
        <ele>202</ele>
        <time>2022-05-07T11:42:12.000Z</time>
      </trkpt>
      <trkpt lat="45.10672" lon="5.27857">
        <ele>202</ele>
        <time>2022-05-07T11:42:13.000Z</time>
      </trkpt>
      <trkpt lat="45.10671" lon="5.27848">
        <ele>202</ele>
        <time>2022-05-07T11:42:14.000Z</time>
      </trkpt>
      <trkpt lat="45.1067" lon="5.27838">
        <ele>202</ele>
        <time>2022-05-07T11:42:15.000Z</time>
      </trkpt>
      <trkpt lat="45.10669" lon="5.27829">
        <ele>202</ele>
        <time>2022-05-07T11:42:16.000Z</time>
      </trkpt>
      <trkpt lat="45.10667" lon="5.27819">
        <ele>202</ele>
        <time>2022-05-07T11:42:17.000Z</time>
      </trkpt>
      <trkpt lat="45.10667" lon="5.2781">
        <ele>202</ele>
        <time>2022-05-07T11:42:18.000Z</time>
      </trkpt>
      <trkpt lat="45.10666" lon="5.278">
        <ele>202</ele>
        <time>2022-05-07T11:42:19.000Z</time>
      </trkpt>
      <trkpt lat="45.10665" lon="5.27792">
        <ele>202</ele>
        <time>2022-05-07T11:42:20.000Z</time>
      </trkpt>
      <trkpt lat="45.10665" lon="5.27784">
        <ele>202</ele>
        <time>2022-05-07T11:42:21.000Z</time>
      </trkpt>
      <trkpt lat="45.10665" lon="5.27775">
        <ele>201.8</ele>
        <time>2022-05-07T11:42:22.000Z</time>
      </trkpt>
      <trkpt lat="45.10665" lon="5.27766">
        <ele>201.5</ele>
        <time>2022-05-07T11:42:23.000Z</time>
      </trkpt>
      <trkpt lat="45.10664" lon="5.27757">
        <ele>201.2</ele>
        <time>2022-05-07T11:42:24.000Z</time>
      </trkpt>
      <trkpt lat="45.10663" lon="5.27749">
        <ele>201</ele>
        <time>2022-05-07T11:42:25.000Z</time>
      </trkpt>
      <trkpt lat="45.10662" lon="5.27742">
        <ele>201</ele>
        <time>2022-05-07T11:42:26.000Z</time>
      </trkpt>
      <trkpt lat="45.10662" lon="5.27736">
        <ele>200.9</ele>
        <time>2022-05-07T11:42:27.000Z</time>
      </trkpt>
      <trkpt lat="45.10662" lon="5.27727">
        <ele>200.8</ele>
        <time>2022-05-07T11:42:29.000Z</time>
      </trkpt>
      <trkpt lat="45.10662" lon="5.27722">
        <ele>200.8</ele>
        <time>2022-05-07T11:42:30.000Z</time>
      </trkpt>
      <trkpt lat="45.10662" lon="5.27719">
        <ele>200.9</ele>
        <time>2022-05-07T11:42:31.000Z</time>
      </trkpt>
      <trkpt lat="45.10663" lon="5.27716">
        <ele>200.9</ele>
        <time>2022-05-07T11:42:33.000Z</time>
      </trkpt>
      <trkpt lat="45.10668" lon="5.27722">
        <ele>201</ele>
        <time>2022-05-07T11:42:35.000Z</time>
      </trkpt>
      <trkpt lat="45.1067" lon="5.27721">
        <ele>201</ele>
        <time>2022-05-07T11:42:36.000Z</time>
      </trkpt>
      <trkpt lat="45.10672" lon="5.27721">
        <ele>201</ele>
        <time>2022-05-07T11:42:37.000Z</time>
      </trkpt>
      <trkpt lat="45.10675" lon="5.27723">
        <ele>201</ele>
        <time>2022-05-07T11:42:38.000Z</time>
      </trkpt>
      <trkpt lat="45.10677" lon="5.27725">
        <ele>201</ele>
        <time>2022-05-07T11:42:39.000Z</time>
      </trkpt>
      <trkpt lat="45.10679" lon="5.27728">
        <ele>201</ele>
        <time>2022-05-07T11:42:40.000Z</time>
      </trkpt>
      <trkpt lat="45.10682" lon="5.27731">
        <ele>201</ele>
        <time>2022-05-07T11:42:41.000Z</time>
      </trkpt>
      <trkpt lat="45.10684" lon="5.27734">
        <ele>201</ele>
        <time>2022-05-07T11:42:42.000Z</time>
      </trkpt>
      <trkpt lat="45.10687" lon="5.27738">
        <ele>201</ele>
        <time>2022-05-07T11:42:43.000Z</time>
      </trkpt>
      <trkpt lat="45.10689" lon="5.27741">
        <ele>201</ele>
        <time>2022-05-07T11:42:44.000Z</time>
      </trkpt>
      <trkpt lat="45.10692" lon="5.27744">
        <ele>201</ele>
        <time>2022-05-07T11:42:45.000Z</time>
      </trkpt>
      <trkpt lat="45.10695" lon="5.27748">
        <ele>201</ele>
        <time>2022-05-07T11:42:46.000Z</time>
      </trkpt>
      <trkpt lat="45.10698" lon="5.27752">
        <ele>201</ele>
        <time>2022-05-07T11:42:47.000Z</time>
      </trkpt>
      <trkpt lat="45.10702" lon="5.27755">
        <ele>201</ele>
        <time>2022-05-07T11:42:48.000Z</time>
      </trkpt>
      <trkpt lat="45.10706" lon="5.27759">
        <ele>201</ele>
        <time>2022-05-07T11:42:49.000Z</time>
      </trkpt>
      <trkpt lat="45.10709" lon="5.27763">
        <ele>201</ele>
        <time>2022-05-07T11:42:50.000Z</time>
      </trkpt>
      <trkpt lat="45.10713" lon="5.27767">
        <ele>201</ele>
        <time>2022-05-07T11:42:51.000Z</time>
      </trkpt>
      <trkpt lat="45.10717" lon="5.27772">
        <ele>201</ele>
        <time>2022-05-07T11:42:52.000Z</time>
      </trkpt>
      <trkpt lat="45.10722" lon="5.27777">
        <ele>201</ele>
        <time>2022-05-07T11:42:53.000Z</time>
      </trkpt>
      <trkpt lat="45.10726" lon="5.27782">
        <ele>200.7</ele>
        <time>2022-05-07T11:42:54.000Z</time>
      </trkpt>
      <trkpt lat="45.1073" lon="5.27787">
        <ele>200.5</ele>
        <time>2022-05-07T11:42:55.000Z</time>
      </trkpt>
      <trkpt lat="45.10734" lon="5.27793">
        <ele>200.3</ele>
        <time>2022-05-07T11:42:56.000Z</time>
      </trkpt>
      <trkpt lat="45.10737" lon="5.27798">
        <ele>200.1</ele>
        <time>2022-05-07T11:42:57.000Z</time>
      </trkpt>
      <trkpt lat="45.10741" lon="5.27802">
        <ele>200</ele>
        <time>2022-05-07T11:42:58.000Z</time>
      </trkpt>
      <trkpt lat="45.10745" lon="5.27807">
        <ele>200</ele>
        <time>2022-05-07T11:42:59.000Z</time>
      </trkpt>
      <trkpt lat="45.10749" lon="5.27811">
        <ele>200</ele>
        <time>2022-05-07T11:43:00.000Z</time>
      </trkpt>
      <trkpt lat="45.10753" lon="5.27815">
        <ele>200</ele>
        <time>2022-05-07T11:43:01.000Z</time>
      </trkpt>
      <trkpt lat="45.10758" lon="5.2782">
        <ele>200.1</ele>
        <time>2022-05-07T11:43:02.000Z</time>
      </trkpt>
      <trkpt lat="45.10762" lon="5.27825">
        <ele>200.3</ele>
        <time>2022-05-07T11:43:03.000Z</time>
      </trkpt>
      <trkpt lat="45.10767" lon="5.2783">
        <ele>200.5</ele>
        <time>2022-05-07T11:43:04.000Z</time>
      </trkpt>
      <trkpt lat="45.10771" lon="5.27835">
        <ele>200.8</ele>
        <time>2022-05-07T11:43:05.000Z</time>
      </trkpt>
      <trkpt lat="45.10776" lon="5.2784">
        <ele>200.9</ele>
        <time>2022-05-07T11:43:06.000Z</time>
      </trkpt>
      <trkpt lat="45.1078" lon="5.27844">
        <ele>201</ele>
        <time>2022-05-07T11:43:07.000Z</time>
      </trkpt>
      <trkpt lat="45.10784" lon="5.2785">
        <ele>200.9</ele>
        <time>2022-05-07T11:43:08.000Z</time>
      </trkpt>
      <trkpt lat="45.10788" lon="5.27855">
        <ele>200.7</ele>
        <time>2022-05-07T11:43:09.000Z</time>
      </trkpt>
      <trkpt lat="45.10793" lon="5.27861">
        <ele>200.5</ele>
        <time>2022-05-07T11:43:10.000Z</time>
      </trkpt>
      <trkpt lat="45.10798" lon="5.27866">
        <ele>200.4</ele>
        <time>2022-05-07T11:43:11.000Z</time>
      </trkpt>
      <trkpt lat="45.10802" lon="5.27871">
        <ele>200.4</ele>
        <time>2022-05-07T11:43:12.000Z</time>
      </trkpt>
      <trkpt lat="45.10807" lon="5.27876">
        <ele>200.5</ele>
        <time>2022-05-07T11:43:13.000Z</time>
      </trkpt>
      <trkpt lat="45.10811" lon="5.27881">
        <ele>200.5</ele>
        <time>2022-05-07T11:43:14.000Z</time>
      </trkpt>
      <trkpt lat="45.10815" lon="5.27886">
        <ele>200.5</ele>
        <time>2022-05-07T11:43:15.000Z</time>
      </trkpt>
      <trkpt lat="45.1082" lon="5.27891">
        <ele>200.5</ele>
        <time>2022-05-07T11:43:16.000Z</time>
      </trkpt>
      <trkpt lat="45.10824" lon="5.27896">
        <ele>200.5</ele>
        <time>2022-05-07T11:43:17.000Z</time>
      </trkpt>
      <trkpt lat="45.10828" lon="5.27901">
        <ele>200.5</ele>
        <time>2022-05-07T11:43:18.000Z</time>
      </trkpt>
      <trkpt lat="45.10832" lon="5.27906">
        <ele>200.6</ele>
        <time>2022-05-07T11:43:19.000Z</time>
      </trkpt>
      <trkpt lat="45.10836" lon="5.2791">
        <ele>200.6</ele>
        <time>2022-05-07T11:43:20.000Z</time>
      </trkpt>
      <trkpt lat="45.1084" lon="5.27914">
        <ele>200.4</ele>
        <time>2022-05-07T11:43:21.000Z</time>
      </trkpt>
      <trkpt lat="45.10844" lon="5.27918">
        <ele>200.3</ele>
        <time>2022-05-07T11:43:22.000Z</time>
      </trkpt>
      <trkpt lat="45.10848" lon="5.27923">
        <ele>200.3</ele>
        <time>2022-05-07T11:43:23.000Z</time>
      </trkpt>
      <trkpt lat="45.10852" lon="5.27927">
        <ele>200.3</ele>
        <time>2022-05-07T11:43:24.000Z</time>
      </trkpt>
      <trkpt lat="45.10856" lon="5.27932">
        <ele>200.4</ele>
        <time>2022-05-07T11:43:25.000Z</time>
      </trkpt>
      <trkpt lat="45.1086" lon="5.27937">
        <ele>200.5</ele>
        <time>2022-05-07T11:43:26.000Z</time>
      </trkpt>
      <trkpt lat="45.10864" lon="5.27942">
        <ele>200.6</ele>
        <time>2022-05-07T11:43:27.000Z</time>
      </trkpt>
      <trkpt lat="45.10868" lon="5.27947">
        <ele>200.6</ele>
        <time>2022-05-07T11:43:28.000Z</time>
      </trkpt>
      <trkpt lat="45.10872" lon="5.27952">
        <ele>200.5</ele>
        <time>2022-05-07T11:43:29.000Z</time>
      </trkpt>
      <trkpt lat="45.10877" lon="5.27958">
        <ele>200.4</ele>
        <time>2022-05-07T11:43:30.000Z</time>
      </trkpt>
      <trkpt lat="45.10881" lon="5.27964">
        <ele>200.3</ele>
        <time>2022-05-07T11:43:31.000Z</time>
      </trkpt>
      <trkpt lat="45.10885" lon="5.27969">
        <ele>200.2</ele>
        <time>2022-05-07T11:43:32.000Z</time>
      </trkpt>
      <trkpt lat="45.10889" lon="5.27975">
        <ele>200.1</ele>
        <time>2022-05-07T11:43:33.000Z</time>
      </trkpt>
      <trkpt lat="45.10893" lon="5.27981">
        <ele>200.1</ele>
        <time>2022-05-07T11:43:34.000Z</time>
      </trkpt>
      <trkpt lat="45.10898" lon="5.27986">
        <ele>200</ele>
        <time>2022-05-07T11:43:35.000Z</time>
      </trkpt>
      <trkpt lat="45.10902" lon="5.27992">
        <ele>199.9</ele>
        <time>2022-05-07T11:43:36.000Z</time>
      </trkpt>
      <trkpt lat="45.10907" lon="5.27997">
        <ele>199.7</ele>
        <time>2022-05-07T11:43:37.000Z</time>
      </trkpt>
      <trkpt lat="45.10911" lon="5.28003">
        <ele>199.6</ele>
        <time>2022-05-07T11:43:38.000Z</time>
      </trkpt>
      <trkpt lat="45.10916" lon="5.28008">
        <ele>199.6</ele>
        <time>2022-05-07T11:43:39.000Z</time>
      </trkpt>
      <trkpt lat="45.1092" lon="5.28013">
        <ele>199.6</ele>
        <time>2022-05-07T11:43:40.000Z</time>
      </trkpt>
      <trkpt lat="45.10925" lon="5.28019">
        <ele>199.3</ele>
        <time>2022-05-07T11:43:41.000Z</time>
      </trkpt>
      <trkpt lat="45.1093" lon="5.28024">
        <ele>198.7</ele>
        <time>2022-05-07T11:43:42.000Z</time>
      </trkpt>
      <trkpt lat="45.10934" lon="5.2803">
        <ele>198</ele>
        <time>2022-05-07T11:43:43.000Z</time>
      </trkpt>
      <trkpt lat="45.10939" lon="5.28036">
        <ele>197.9</ele>
        <time>2022-05-07T11:43:44.000Z</time>
      </trkpt>
      <trkpt lat="45.10944" lon="5.28043">
        <ele>198.2</ele>
        <time>2022-05-07T11:43:45.000Z</time>
      </trkpt>
      <trkpt lat="45.10949" lon="5.28049">
        <ele>198.5</ele>
        <time>2022-05-07T11:43:46.000Z</time>
      </trkpt>
      <trkpt lat="45.10954" lon="5.28055">
        <ele>198.2</ele>
        <time>2022-05-07T11:43:47.000Z</time>
      </trkpt>
      <trkpt lat="45.10959" lon="5.28061">
        <ele>197.8</ele>
        <time>2022-05-07T11:43:48.000Z</time>
      </trkpt>
      <trkpt lat="45.10965" lon="5.28067">
        <ele>197.6</ele>
        <time>2022-05-07T11:43:49.000Z</time>
      </trkpt>
      <trkpt lat="45.10972" lon="5.28074">
        <ele>197.6</ele>
        <time>2022-05-07T11:43:50.000Z</time>
      </trkpt>
      <trkpt lat="45.10979" lon="5.28079">
        <ele>197.5</ele>
        <time>2022-05-07T11:43:51.000Z</time>
      </trkpt>
      <trkpt lat="45.10986" lon="5.28085">
        <ele>196.7</ele>
        <time>2022-05-07T11:43:52.000Z</time>
      </trkpt>
      <trkpt lat="45.10985" lon="5.28092">
        <ele>197.4</ele>
        <time>2022-05-07T11:43:53.000Z</time>
      </trkpt>
      <trkpt lat="45.10986" lon="5.28098">
        <ele>197.8</ele>
        <time>2022-05-07T11:43:54.000Z</time>
      </trkpt>
      <trkpt lat="45.10993" lon="5.28105">
        <ele>197.4</ele>
        <time>2022-05-07T11:43:55.000Z</time>
      </trkpt>
      <trkpt lat="45.10999" lon="5.28112">
        <ele>197.1</ele>
        <time>2022-05-07T11:43:56.000Z</time>
      </trkpt>
      <trkpt lat="45.11008" lon="5.28119">
        <ele>196.4</ele>
        <time>2022-05-07T11:43:57.000Z</time>
      </trkpt>
      <trkpt lat="45.11018" lon="5.28124">
        <ele>195.7</ele>
        <time>2022-05-07T11:43:58.000Z</time>
      </trkpt>
      <trkpt lat="45.11027" lon="5.28126">
        <ele>194.9</ele>
        <time>2022-05-07T11:43:59.000Z</time>
      </trkpt>
      <trkpt lat="45.11036" lon="5.28125">
        <ele>194.4</ele>
        <time>2022-05-07T11:44:00.000Z</time>
      </trkpt>
      <trkpt lat="45.11045" lon="5.28123">
        <ele>193.6</ele>
        <time>2022-05-07T11:44:01.000Z</time>
      </trkpt>
      <trkpt lat="45.11054" lon="5.28118">
        <ele>191.9</ele>
        <time>2022-05-07T11:44:02.000Z</time>
      </trkpt>
      <trkpt lat="45.11063" lon="5.28109">
        <ele>188.7</ele>
        <time>2022-05-07T11:44:03.000Z</time>
      </trkpt>
      <trkpt lat="45.1107" lon="5.281">
        <ele>185.7</ele>
        <time>2022-05-07T11:44:04.000Z</time>
      </trkpt>
      <trkpt lat="45.11075" lon="5.2809">
        <ele>181.2</ele>
        <time>2022-05-07T11:44:05.000Z</time>
      </trkpt>
      <trkpt lat="45.11081" lon="5.2808">
        <ele>175</ele>
        <time>2022-05-07T11:44:06.000Z</time>
      </trkpt>
      <trkpt lat="45.11087" lon="5.28071">
        <ele>169.6</ele>
        <time>2022-05-07T11:44:07.000Z</time>
      </trkpt>
      <trkpt lat="45.11092" lon="5.28062">
        <ele>165.6</ele>
        <time>2022-05-07T11:44:08.000Z</time>
      </trkpt>
      <trkpt lat="45.11097" lon="5.28054">
        <ele>163.4</ele>
        <time>2022-05-07T11:44:09.000Z</time>
      </trkpt>
      <trkpt lat="45.11103" lon="5.28045">
        <ele>162.6</ele>
        <time>2022-05-07T11:44:10.000Z</time>
      </trkpt>
      <trkpt lat="45.11108" lon="5.28037">
        <ele>162.1</ele>
        <time>2022-05-07T11:44:11.000Z</time>
      </trkpt>
      <trkpt lat="45.11113" lon="5.28028">
        <ele>162</ele>
        <time>2022-05-07T11:44:12.000Z</time>
      </trkpt>
      <trkpt lat="45.11118" lon="5.2802">
        <ele>161.8</ele>
        <time>2022-05-07T11:44:13.000Z</time>
      </trkpt>
      <trkpt lat="45.11122" lon="5.28012">
        <ele>161.7</ele>
        <time>2022-05-07T11:44:14.000Z</time>
      </trkpt>
      <trkpt lat="45.11127" lon="5.28004">
        <ele>161.6</ele>
        <time>2022-05-07T11:44:15.000Z</time>
      </trkpt>
      <trkpt lat="45.11132" lon="5.27996">
        <ele>161.7</ele>
        <time>2022-05-07T11:44:16.000Z</time>
      </trkpt>
      <trkpt lat="45.11136" lon="5.27989">
        <ele>161.9</ele>
        <time>2022-05-07T11:44:17.000Z</time>
      </trkpt>
      <trkpt lat="45.11141" lon="5.27981">
        <ele>162.5</ele>
        <time>2022-05-07T11:44:18.000Z</time>
      </trkpt>
      <trkpt lat="45.11146" lon="5.27974">
        <ele>163.8</ele>
        <time>2022-05-07T11:44:19.000Z</time>
      </trkpt>
      <trkpt lat="45.1115" lon="5.27967">
        <ele>166.9</ele>
        <time>2022-05-07T11:44:20.000Z</time>
      </trkpt>
      <trkpt lat="45.11154" lon="5.2796">
        <ele>170.8</ele>
        <time>2022-05-07T11:44:21.000Z</time>
      </trkpt>
      <trkpt lat="45.11159" lon="5.27953">
        <ele>175.2</ele>
        <time>2022-05-07T11:44:22.000Z</time>
      </trkpt>
      <trkpt lat="45.11163" lon="5.27945">
        <ele>180.1</ele>
        <time>2022-05-07T11:44:23.000Z</time>
      </trkpt>
      <trkpt lat="45.11168" lon="5.27938">
        <ele>183.1</ele>
        <time>2022-05-07T11:44:24.000Z</time>
      </trkpt>
      <trkpt lat="45.11173" lon="5.27931">
        <ele>184.4</ele>
        <time>2022-05-07T11:44:25.000Z</time>
      </trkpt>
      <trkpt lat="45.11177" lon="5.27924">
        <ele>185.6</ele>
        <time>2022-05-07T11:44:26.000Z</time>
      </trkpt>
      <trkpt lat="45.1118" lon="5.27916">
        <ele>186.5</ele>
        <time>2022-05-07T11:44:27.000Z</time>
      </trkpt>
      <trkpt lat="45.11183" lon="5.27909">
        <ele>186.9</ele>
        <time>2022-05-07T11:44:28.000Z</time>
      </trkpt>
      <trkpt lat="45.11184" lon="5.27902">
        <ele>187.2</ele>
        <time>2022-05-07T11:44:29.000Z</time>
      </trkpt>
      <trkpt lat="45.11185" lon="5.27895">
        <ele>187.4</ele>
        <time>2022-05-07T11:44:30.000Z</time>
      </trkpt>
      <trkpt lat="45.11184" lon="5.27888">
        <ele>187.6</ele>
        <time>2022-05-07T11:44:31.000Z</time>
      </trkpt>
      <trkpt lat="45.11183" lon="5.27882">
        <ele>187.7</ele>
        <time>2022-05-07T11:44:32.000Z</time>
      </trkpt>
      <trkpt lat="45.11181" lon="5.27876">
        <ele>187.8</ele>
        <time>2022-05-07T11:44:33.000Z</time>
      </trkpt>
      <trkpt lat="45.1118" lon="5.2787">
        <ele>187.8</ele>
        <time>2022-05-07T11:44:34.000Z</time>
      </trkpt>
      <trkpt lat="45.11179" lon="5.27865">
        <ele>187.8</ele>
        <time>2022-05-07T11:44:35.000Z</time>
      </trkpt>
      <trkpt lat="45.11178" lon="5.27859">
        <ele>187.8</ele>
        <time>2022-05-07T11:44:36.000Z</time>
      </trkpt>
      <trkpt lat="45.11178" lon="5.27855">
        <ele>187.9</ele>
        <time>2022-05-07T11:44:37.000Z</time>
      </trkpt>
      <trkpt lat="45.11179" lon="5.27852">
        <ele>187.9</ele>
        <time>2022-05-07T11:44:38.000Z</time>
      </trkpt>
      <trkpt lat="45.11179" lon="5.27847">
        <ele>187.9</ele>
        <time>2022-05-07T11:44:39.000Z</time>
      </trkpt>
      <trkpt lat="45.11179" lon="5.27842">
        <ele>188</ele>
        <time>2022-05-07T11:44:40.000Z</time>
      </trkpt>
      <trkpt lat="45.11177" lon="5.27835">
        <ele>188</ele>
        <time>2022-05-07T11:44:41.000Z</time>
      </trkpt>
      <trkpt lat="45.11174" lon="5.27829">
        <ele>188.3</ele>
        <time>2022-05-07T11:44:42.000Z</time>
      </trkpt>
      <trkpt lat="45.11173" lon="5.27823">
        <ele>188.7</ele>
        <time>2022-05-07T11:44:43.000Z</time>
      </trkpt>
      <trkpt lat="45.11171" lon="5.27817">
        <ele>188.9</ele>
        <time>2022-05-07T11:44:44.000Z</time>
      </trkpt>
      <trkpt lat="45.11169" lon="5.27811">
        <ele>189.1</ele>
        <time>2022-05-07T11:44:45.000Z</time>
      </trkpt>
      <trkpt lat="45.11167" lon="5.27805">
        <ele>189</ele>
        <time>2022-05-07T11:44:46.000Z</time>
      </trkpt>
      <trkpt lat="45.11165" lon="5.27798">
        <ele>189.2</ele>
        <time>2022-05-07T11:44:47.000Z</time>
      </trkpt>
      <trkpt lat="45.11163" lon="5.27792">
        <ele>189.2</ele>
        <time>2022-05-07T11:44:48.000Z</time>
      </trkpt>
      <trkpt lat="45.11162" lon="5.27787">
        <ele>189.2</ele>
        <time>2022-05-07T11:44:49.000Z</time>
      </trkpt>
      <trkpt lat="45.1116" lon="5.27781">
        <ele>189.2</ele>
        <time>2022-05-07T11:44:50.000Z</time>
      </trkpt>
      <trkpt lat="45.11159" lon="5.27777">
        <ele>189.2</ele>
        <time>2022-05-07T11:44:51.000Z</time>
      </trkpt>
      <trkpt lat="45.11157" lon="5.27772">
        <ele>189.1</ele>
        <time>2022-05-07T11:44:52.000Z</time>
      </trkpt>
      <trkpt lat="45.11155" lon="5.27768">
        <ele>188.9</ele>
        <time>2022-05-07T11:44:53.000Z</time>
      </trkpt>
      <trkpt lat="45.11154" lon="5.27764">
        <ele>188.9</ele>
        <time>2022-05-07T11:44:54.000Z</time>
      </trkpt>
      <trkpt lat="45.11152" lon="5.27759">
        <ele>188.8</ele>
        <time>2022-05-07T11:44:55.000Z</time>
      </trkpt>
      <trkpt lat="45.11151" lon="5.27753">
        <ele>188.8</ele>
        <time>2022-05-07T11:44:56.000Z</time>
      </trkpt>
      <trkpt lat="45.1115" lon="5.27747">
        <ele>189.1</ele>
        <time>2022-05-07T11:44:57.000Z</time>
      </trkpt>
      <trkpt lat="45.11149" lon="5.27741">
        <ele>189.4</ele>
        <time>2022-05-07T11:44:58.000Z</time>
      </trkpt>
      <trkpt lat="45.11148" lon="5.27735">
        <ele>189.7</ele>
        <time>2022-05-07T11:44:59.000Z</time>
      </trkpt>
      <trkpt lat="45.11147" lon="5.27729">
        <ele>190</ele>
        <time>2022-05-07T11:45:00.000Z</time>
      </trkpt>
      <trkpt lat="45.11145" lon="5.27722">
        <ele>190.2</ele>
        <time>2022-05-07T11:45:01.000Z</time>
      </trkpt>
      <trkpt lat="45.11144" lon="5.27715">
        <ele>190.3</ele>
        <time>2022-05-07T11:45:02.000Z</time>
      </trkpt>
      <trkpt lat="45.11143" lon="5.27708">
        <ele>190.3</ele>
        <time>2022-05-07T11:45:03.000Z</time>
      </trkpt>
      <trkpt lat="45.11142" lon="5.27702">
        <ele>190.3</ele>
        <time>2022-05-07T11:45:04.000Z</time>
      </trkpt>
      <trkpt lat="45.11141" lon="5.27695">
        <ele>190.5</ele>
        <time>2022-05-07T11:45:05.000Z</time>
      </trkpt>
      <trkpt lat="45.11141" lon="5.27688">
        <ele>190.7</ele>
        <time>2022-05-07T11:45:06.000Z</time>
      </trkpt>
      <trkpt lat="45.1114" lon="5.27683">
        <ele>190.7</ele>
        <time>2022-05-07T11:45:07.000Z</time>
      </trkpt>
      <trkpt lat="45.11139" lon="5.27677">
        <ele>190.7</ele>
        <time>2022-05-07T11:45:08.000Z</time>
      </trkpt>
      <trkpt lat="45.11139" lon="5.27673">
        <ele>190.8</ele>
        <time>2022-05-07T11:45:09.000Z</time>
      </trkpt>
      <trkpt lat="45.11138" lon="5.27668">
        <ele>190.9</ele>
        <time>2022-05-07T11:45:10.000Z</time>
      </trkpt>
      <trkpt lat="45.11137" lon="5.27664">
        <ele>191.4</ele>
        <time>2022-05-07T11:45:11.000Z</time>
      </trkpt>
      <trkpt lat="45.11137" lon="5.27659">
        <ele>192.1</ele>
        <time>2022-05-07T11:45:12.000Z</time>
      </trkpt>
      <trkpt lat="45.11136" lon="5.27655">
        <ele>192.7</ele>
        <time>2022-05-07T11:45:13.000Z</time>
      </trkpt>
      <trkpt lat="45.11135" lon="5.27651">
        <ele>193.2</ele>
        <time>2022-05-07T11:45:14.000Z</time>
      </trkpt>
      <trkpt lat="45.11135" lon="5.27647">
        <ele>193.8</ele>
        <time>2022-05-07T11:45:15.000Z</time>
      </trkpt>
      <trkpt lat="45.11133" lon="5.27643">
        <ele>194.1</ele>
        <time>2022-05-07T11:45:16.000Z</time>
      </trkpt>
      <trkpt lat="45.11132" lon="5.27639">
        <ele>194.5</ele>
        <time>2022-05-07T11:45:17.000Z</time>
      </trkpt>
      <trkpt lat="45.11131" lon="5.27635">
        <ele>194.9</ele>
        <time>2022-05-07T11:45:18.000Z</time>
      </trkpt>
      <trkpt lat="45.11131" lon="5.2763">
        <ele>195.2</ele>
        <time>2022-05-07T11:45:19.000Z</time>
      </trkpt>
      <trkpt lat="45.1113" lon="5.27626">
        <ele>195.5</ele>
        <time>2022-05-07T11:45:20.000Z</time>
      </trkpt>
      <trkpt lat="45.1113" lon="5.27622">
        <ele>195.8</ele>
        <time>2022-05-07T11:45:21.000Z</time>
      </trkpt>
      <trkpt lat="45.11129" lon="5.27618">
        <ele>196.2</ele>
        <time>2022-05-07T11:45:22.000Z</time>
      </trkpt>
      <trkpt lat="45.11129" lon="5.27613">
        <ele>196.7</ele>
        <time>2022-05-07T11:45:23.000Z</time>
      </trkpt>
      <trkpt lat="45.1113" lon="5.27609">
        <ele>196.7</ele>
        <time>2022-05-07T11:45:24.000Z</time>
      </trkpt>
      <trkpt lat="45.1113" lon="5.27605">
        <ele>196.6</ele>
        <time>2022-05-07T11:45:25.000Z</time>
      </trkpt>
      <trkpt lat="45.11131" lon="5.27601">
        <ele>196.5</ele>
        <time>2022-05-07T11:45:26.000Z</time>
      </trkpt>
      <trkpt lat="45.11133" lon="5.27599">
        <ele>196.9</ele>
        <time>2022-05-07T11:45:27.000Z</time>
      </trkpt>
      <trkpt lat="45.11134" lon="5.27597">
        <ele>197.1</ele>
        <time>2022-05-07T11:45:28.000Z</time>
      </trkpt>
      <trkpt lat="45.11135" lon="5.27594">
        <ele>197.3</ele>
        <time>2022-05-07T11:45:29.000Z</time>
      </trkpt>
      <trkpt lat="45.11137" lon="5.2759">
        <ele>197.6</ele>
        <time>2022-05-07T11:45:30.000Z</time>
      </trkpt>
      <trkpt lat="45.11139" lon="5.27587">
        <ele>198.1</ele>
        <time>2022-05-07T11:45:31.000Z</time>
      </trkpt>
      <trkpt lat="45.11142" lon="5.27584">
        <ele>199.7</ele>
        <time>2022-05-07T11:45:33.000Z</time>
      </trkpt>
      <trkpt lat="45.11144" lon="5.27581">
        <ele>200.3</ele>
        <time>2022-05-07T11:45:34.000Z</time>
      </trkpt>
      <trkpt lat="45.11146" lon="5.27578">
        <ele>200.7</ele>
        <time>2022-05-07T11:45:35.000Z</time>
      </trkpt>
      <trkpt lat="45.11149" lon="5.27575">
        <ele>201.3</ele>
        <time>2022-05-07T11:45:36.000Z</time>
      </trkpt>
      <trkpt lat="45.11152" lon="5.27571">
        <ele>202</ele>
        <time>2022-05-07T11:45:37.000Z</time>
      </trkpt>
      <trkpt lat="45.11154" lon="5.27568">
        <ele>202.5</ele>
        <time>2022-05-07T11:45:38.000Z</time>
      </trkpt>
      <trkpt lat="45.11156" lon="5.27566">
        <ele>202.8</ele>
        <time>2022-05-07T11:45:39.000Z</time>
      </trkpt>
      <trkpt lat="45.11158" lon="5.27563">
        <ele>203.4</ele>
        <time>2022-05-07T11:45:40.000Z</time>
      </trkpt>
      <trkpt lat="45.1116" lon="5.27561">
        <ele>203.9</ele>
        <time>2022-05-07T11:45:41.000Z</time>
      </trkpt>
      <trkpt lat="45.11162" lon="5.27558">
        <ele>204.2</ele>
        <time>2022-05-07T11:45:42.000Z</time>
      </trkpt>
      <trkpt lat="45.11164" lon="5.27554">
        <ele>204.3</ele>
        <time>2022-05-07T11:45:43.000Z</time>
      </trkpt>
      <trkpt lat="45.11166" lon="5.27551">
        <ele>203.9</ele>
        <time>2022-05-07T11:45:44.000Z</time>
      </trkpt>
      <trkpt lat="45.11167" lon="5.27548">
        <ele>203.5</ele>
        <time>2022-05-07T11:45:45.000Z</time>
      </trkpt>
      <trkpt lat="45.11169" lon="5.27545">
        <ele>203.4</ele>
        <time>2022-05-07T11:45:46.000Z</time>
      </trkpt>
      <trkpt lat="45.11171" lon="5.27542">
        <ele>203.6</ele>
        <time>2022-05-07T11:45:47.000Z</time>
      </trkpt>
      <trkpt lat="45.11173" lon="5.2754">
        <ele>204</ele>
        <time>2022-05-07T11:45:48.000Z</time>
      </trkpt>
      <trkpt lat="45.11175" lon="5.27537">
        <ele>203.9</ele>
        <time>2022-05-07T11:45:49.000Z</time>
      </trkpt>
      <trkpt lat="45.11176" lon="5.27533">
        <ele>203.8</ele>
        <time>2022-05-07T11:45:50.000Z</time>
      </trkpt>
      <trkpt lat="45.11178" lon="5.2753">
        <ele>203.7</ele>
        <time>2022-05-07T11:45:51.000Z</time>
      </trkpt>
      <trkpt lat="45.11181" lon="5.27527">
        <ele>204.2</ele>
        <time>2022-05-07T11:45:52.000Z</time>
      </trkpt>
      <trkpt lat="45.11183" lon="5.27525">
        <ele>204.9</ele>
        <time>2022-05-07T11:45:53.000Z</time>
      </trkpt>
      <trkpt lat="45.11186" lon="5.27522">
        <ele>205.2</ele>
        <time>2022-05-07T11:45:54.000Z</time>
      </trkpt>
      <trkpt lat="45.11188" lon="5.27519">
        <ele>205.2</ele>
        <time>2022-05-07T11:45:55.000Z</time>
      </trkpt>
      <trkpt lat="45.1119" lon="5.27517">
        <ele>205.3</ele>
        <time>2022-05-07T11:45:56.000Z</time>
      </trkpt>
      <trkpt lat="45.11192" lon="5.27514">
        <ele>204.7</ele>
        <time>2022-05-07T11:45:57.000Z</time>
      </trkpt>
      <trkpt lat="45.11195" lon="5.27511">
        <ele>204.1</ele>
        <time>2022-05-07T11:45:58.000Z</time>
      </trkpt>
      <trkpt lat="45.11197" lon="5.27509">
        <ele>203.6</ele>
        <time>2022-05-07T11:45:59.000Z</time>
      </trkpt>
      <trkpt lat="45.112" lon="5.27507">
        <ele>203.2</ele>
        <time>2022-05-07T11:46:00.000Z</time>
      </trkpt>
      <trkpt lat="45.11203" lon="5.27506">
        <ele>203.1</ele>
        <time>2022-05-07T11:46:01.000Z</time>
      </trkpt>
      <trkpt lat="45.11206" lon="5.27504">
        <ele>203</ele>
        <time>2022-05-07T11:46:02.000Z</time>
      </trkpt>
      <trkpt lat="45.11209" lon="5.27502">
        <ele>202.7</ele>
        <time>2022-05-07T11:46:03.000Z</time>
      </trkpt>
      <trkpt lat="45.11211" lon="5.275">
        <ele>202.4</ele>
        <time>2022-05-07T11:46:04.000Z</time>
      </trkpt>
      <trkpt lat="45.11214" lon="5.27498">
        <ele>202.5</ele>
        <time>2022-05-07T11:46:05.000Z</time>
      </trkpt>
      <trkpt lat="45.11217" lon="5.27496">
        <ele>202.8</ele>
        <time>2022-05-07T11:46:06.000Z</time>
      </trkpt>
      <trkpt lat="45.11219" lon="5.27495">
        <ele>203</ele>
        <time>2022-05-07T11:46:07.000Z</time>
      </trkpt>
      <trkpt lat="45.11221" lon="5.27493">
        <ele>203</ele>
        <time>2022-05-07T11:46:08.000Z</time>
      </trkpt>
      <trkpt lat="45.11223" lon="5.27491">
        <ele>202.8</ele>
        <time>2022-05-07T11:46:09.000Z</time>
      </trkpt>
      <trkpt lat="45.11224" lon="5.27488">
        <ele>202.5</ele>
        <time>2022-05-07T11:46:10.000Z</time>
      </trkpt>
      <trkpt lat="45.11226" lon="5.27486">
        <ele>202.3</ele>
        <time>2022-05-07T11:46:11.000Z</time>
      </trkpt>
      <trkpt lat="45.11227" lon="5.27483">
        <ele>201.6</ele>
        <time>2022-05-07T11:46:12.000Z</time>
      </trkpt>
      <trkpt lat="45.11228" lon="5.27481">
        <ele>201.1</ele>
        <time>2022-05-07T11:46:13.000Z</time>
      </trkpt>
      <trkpt lat="45.1123" lon="5.27476">
        <ele>199.9</ele>
        <time>2022-05-07T11:46:14.000Z</time>
      </trkpt>
      <trkpt lat="45.11231" lon="5.27474">
        <ele>199.2</ele>
        <time>2022-05-07T11:46:15.000Z</time>
      </trkpt>
      <trkpt lat="45.11232" lon="5.27471">
        <ele>198.7</ele>
        <time>2022-05-07T11:46:16.000Z</time>
      </trkpt>
      <trkpt lat="45.11233" lon="5.27468">
        <ele>198.7</ele>
        <time>2022-05-07T11:46:17.000Z</time>
      </trkpt>
      <trkpt lat="45.11234" lon="5.27462">
        <ele>198.7</ele>
        <time>2022-05-07T11:46:19.000Z</time>
      </trkpt>
      <trkpt lat="45.11234" lon="5.27459">
        <ele>198.7</ele>
        <time>2022-05-07T11:46:21.000Z</time>
      </trkpt>
      <trkpt lat="45.11234" lon="5.27456">
        <ele>198.6</ele>
        <time>2022-05-07T11:46:24.000Z</time>
      </trkpt>
      <trkpt lat="45.11232" lon="5.27452">
        <ele>198.4</ele>
        <time>2022-05-07T11:46:27.000Z</time>
      </trkpt>
      <trkpt lat="45.1123" lon="5.27448">
        <ele>198.3</ele>
        <time>2022-05-07T11:46:29.000Z</time>
      </trkpt>
      <trkpt lat="45.11228" lon="5.27444">
        <ele>198.3</ele>
        <time>2022-05-07T11:46:31.000Z</time>
      </trkpt>
      <trkpt lat="45.11226" lon="5.27441">
        <ele>198.7</ele>
        <time>2022-05-07T11:46:33.000Z</time>
      </trkpt>
      <trkpt lat="45.11224" lon="5.27438">
        <ele>199.2</ele>
        <time>2022-05-07T11:46:35.000Z</time>
      </trkpt>
      <trkpt lat="45.11221" lon="5.27435">
        <ele>199.7</ele>
        <time>2022-05-07T11:46:37.000Z</time>
      </trkpt>
      <trkpt lat="45.11219" lon="5.27434">
        <ele>199.9</ele>
        <time>2022-05-07T11:46:38.000Z</time>
      </trkpt>
      <trkpt lat="45.11217" lon="5.27432">
        <ele>200.4</ele>
        <time>2022-05-07T11:46:39.000Z</time>
      </trkpt>
      <trkpt lat="45.11215" lon="5.2743">
        <ele>200.9</ele>
        <time>2022-05-07T11:46:40.000Z</time>
      </trkpt>
      <trkpt lat="45.11213" lon="5.27429">
        <ele>201.2</ele>
        <time>2022-05-07T11:46:41.000Z</time>
      </trkpt>
      <trkpt lat="45.11211" lon="5.27429">
        <ele>201.4</ele>
        <time>2022-05-07T11:46:42.000Z</time>
      </trkpt>
      <trkpt lat="45.11208" lon="5.27429">
        <ele>201.5</ele>
        <time>2022-05-07T11:46:43.000Z</time>
      </trkpt>
      <trkpt lat="45.11206" lon="5.27429">
        <ele>201.5</ele>
        <time>2022-05-07T11:46:44.000Z</time>
      </trkpt>
      <trkpt lat="45.11204" lon="5.2743">
        <ele>201.4</ele>
        <time>2022-05-07T11:46:45.000Z</time>
      </trkpt>
      <trkpt lat="45.11201" lon="5.27431">
        <ele>201.2</ele>
        <time>2022-05-07T11:46:46.000Z</time>
      </trkpt>
      <trkpt lat="45.11199" lon="5.27432">
        <ele>201</ele>
        <time>2022-05-07T11:46:47.000Z</time>
      </trkpt>
      <trkpt lat="45.11196" lon="5.27432">
        <ele>200.9</ele>
        <time>2022-05-07T11:46:48.000Z</time>
      </trkpt>
      <trkpt lat="45.11194" lon="5.27432">
        <ele>201.1</ele>
        <time>2022-05-07T11:46:49.000Z</time>
      </trkpt>
      <trkpt lat="45.11192" lon="5.27433">
        <ele>201.4</ele>
        <time>2022-05-07T11:46:50.000Z</time>
      </trkpt>
      <trkpt lat="45.1119" lon="5.27433">
        <ele>201.7</ele>
        <time>2022-05-07T11:46:51.000Z</time>
      </trkpt>
      <trkpt lat="45.11188" lon="5.27434">
        <ele>201.8</ele>
        <time>2022-05-07T11:46:52.000Z</time>
      </trkpt>
      <trkpt lat="45.11186" lon="5.27436">
        <ele>201.6</ele>
        <time>2022-05-07T11:46:53.000Z</time>
      </trkpt>
      <trkpt lat="45.11184" lon="5.27438">
        <ele>201.4</ele>
        <time>2022-05-07T11:46:54.000Z</time>
      </trkpt>
      <trkpt lat="45.11181" lon="5.2744">
        <ele>201</ele>
        <time>2022-05-07T11:46:55.000Z</time>
      </trkpt>
      <trkpt lat="45.11179" lon="5.27441">
        <ele>201</ele>
        <time>2022-05-07T11:46:56.000Z</time>
      </trkpt>
      <trkpt lat="45.11177" lon="5.27442">
        <ele>201.1</ele>
        <time>2022-05-07T11:46:57.000Z</time>
      </trkpt>
      <trkpt lat="45.11175" lon="5.27443">
        <ele>201</ele>
        <time>2022-05-07T11:46:58.000Z</time>
      </trkpt>
      <trkpt lat="45.11173" lon="5.27444">
        <ele>201</ele>
        <time>2022-05-07T11:46:59.000Z</time>
      </trkpt>
      <trkpt lat="45.1117" lon="5.27446">
        <ele>201</ele>
        <time>2022-05-07T11:47:00.000Z</time>
      </trkpt>
      <trkpt lat="45.11168" lon="5.27447">
        <ele>200.8</ele>
        <time>2022-05-07T11:47:01.000Z</time>
      </trkpt>
      <trkpt lat="45.11167" lon="5.27449">
        <ele>200.7</ele>
        <time>2022-05-07T11:47:02.000Z</time>
      </trkpt>
      <trkpt lat="45.11165" lon="5.27449">
        <ele>201.2</ele>
        <time>2022-05-07T11:47:03.000Z</time>
      </trkpt>
      <trkpt lat="45.11162" lon="5.2745">
        <ele>201.6</ele>
        <time>2022-05-07T11:47:05.000Z</time>
      </trkpt>
      <trkpt lat="45.11159" lon="5.27452">
        <ele>202</ele>
        <time>2022-05-07T11:47:07.000Z</time>
      </trkpt>
      <trkpt lat="45.11157" lon="5.27454">
        <ele>202.1</ele>
        <time>2022-05-07T11:47:09.000Z</time>
      </trkpt>
      <trkpt lat="45.11154" lon="5.27455">
        <ele>202.8</ele>
        <time>2022-05-07T11:47:11.000Z</time>
      </trkpt>
      <trkpt lat="45.11151" lon="5.27456">
        <ele>203.4</ele>
        <time>2022-05-07T11:47:13.000Z</time>
      </trkpt>
      <trkpt lat="45.11148" lon="5.27457">
        <ele>203.8</ele>
        <time>2022-05-07T11:47:15.000Z</time>
      </trkpt>
      <trkpt lat="45.11145" lon="5.27459">
        <ele>204.1</ele>
        <time>2022-05-07T11:47:17.000Z</time>
      </trkpt>
      <trkpt lat="45.11142" lon="5.27461">
        <ele>204.4</ele>
        <time>2022-05-07T11:47:19.000Z</time>
      </trkpt>
      <trkpt lat="45.1114" lon="5.27462">
        <ele>204.4</ele>
        <time>2022-05-07T11:47:20.000Z</time>
      </trkpt>
      <trkpt lat="45.11137" lon="5.27465">
        <ele>204.3</ele>
        <time>2022-05-07T11:47:21.000Z</time>
      </trkpt>
      <trkpt lat="45.11134" lon="5.27467">
        <ele>204.5</ele>
        <time>2022-05-07T11:47:23.000Z</time>
      </trkpt>
      <trkpt lat="45.11132" lon="5.27468">
        <ele>204.5</ele>
        <time>2022-05-07T11:47:24.000Z</time>
      </trkpt>
      <trkpt lat="45.1113" lon="5.27469">
        <ele>204.6</ele>
        <time>2022-05-07T11:47:25.000Z</time>
      </trkpt>
      <trkpt lat="45.11129" lon="5.2747">
        <ele>204.8</ele>
        <time>2022-05-07T11:47:26.000Z</time>
      </trkpt>
      <trkpt lat="45.11126" lon="5.27472">
        <ele>205</ele>
        <time>2022-05-07T11:47:28.000Z</time>
      </trkpt>
      <trkpt lat="45.11124" lon="5.27473">
        <ele>204.9</ele>
        <time>2022-05-07T11:47:29.000Z</time>
      </trkpt>
      <trkpt lat="45.11122" lon="5.27477">
        <ele>204.4</ele>
        <time>2022-05-07T11:47:31.000Z</time>
      </trkpt>
      <trkpt lat="45.11119" lon="5.27477">
        <ele>204.9</ele>
        <time>2022-05-07T11:47:33.000Z</time>
      </trkpt>
      <trkpt lat="45.11117" lon="5.27478">
        <ele>205.3</ele>
        <time>2022-05-07T11:47:35.000Z</time>
      </trkpt>
      <trkpt lat="45.11115" lon="5.27479">
        <ele>205.5</ele>
        <time>2022-05-07T11:47:37.000Z</time>
      </trkpt>
      <trkpt lat="45.11113" lon="5.27481">
        <ele>205.6</ele>
        <time>2022-05-07T11:47:40.000Z</time>
      </trkpt>
      <trkpt lat="45.1111" lon="5.27481">
        <ele>206</ele>
        <time>2022-05-07T11:47:43.000Z</time>
      </trkpt>
      <trkpt lat="45.11108" lon="5.27483">
        <ele>205.7</ele>
        <time>2022-05-07T11:47:44.000Z</time>
      </trkpt>
      <trkpt lat="45.11105" lon="5.27486">
        <ele>205.4</ele>
        <time>2022-05-07T11:47:46.000Z</time>
      </trkpt>
      <trkpt lat="45.11102" lon="5.27489">
        <ele>205.2</ele>
        <time>2022-05-07T11:47:48.000Z</time>
      </trkpt>
      <trkpt lat="45.111" lon="5.2749">
        <ele>205.3</ele>
        <time>2022-05-07T11:47:49.000Z</time>
      </trkpt>
      <trkpt lat="45.11098" lon="5.27491">
        <ele>205.4</ele>
        <time>2022-05-07T11:47:50.000Z</time>
      </trkpt>
      <trkpt lat="45.11096" lon="5.27492">
        <ele>205.6</ele>
        <time>2022-05-07T11:47:51.000Z</time>
      </trkpt>
      <trkpt lat="45.11094" lon="5.27493">
        <ele>205.8</ele>
        <time>2022-05-07T11:47:52.000Z</time>
      </trkpt>
      <trkpt lat="45.11091" lon="5.27494">
        <ele>206.4</ele>
        <time>2022-05-07T11:47:54.000Z</time>
      </trkpt>
      <trkpt lat="45.11089" lon="5.27494">
        <ele>206.9</ele>
        <time>2022-05-07T11:47:55.000Z</time>
      </trkpt>
      <trkpt lat="45.11088" lon="5.27494">
        <ele>207.5</ele>
        <time>2022-05-07T11:47:56.000Z</time>
      </trkpt>
      <trkpt lat="45.11085" lon="5.27494">
        <ele>208</ele>
        <time>2022-05-07T11:47:58.000Z</time>
      </trkpt>
      <trkpt lat="45.11082" lon="5.27492">
        <ele>208.7</ele>
        <time>2022-05-07T11:48:00.000Z</time>
      </trkpt>
      <trkpt lat="45.11079" lon="5.27489">
        <ele>208.6</ele>
        <time>2022-05-07T11:48:02.000Z</time>
      </trkpt>
      <trkpt lat="45.11078" lon="5.27486">
        <ele>208.8</ele>
        <time>2022-05-07T11:48:03.000Z</time>
      </trkpt>
      <trkpt lat="45.11076" lon="5.27484">
        <ele>208.9</ele>
        <time>2022-05-07T11:48:04.000Z</time>
      </trkpt>
      <trkpt lat="45.11075" lon="5.27481">
        <ele>209</ele>
        <time>2022-05-07T11:48:05.000Z</time>
      </trkpt>
      <trkpt lat="45.11074" lon="5.27477">
        <ele>209.3</ele>
        <time>2022-05-07T11:48:07.000Z</time>
      </trkpt>
      <trkpt lat="45.11073" lon="5.27473">
        <ele>209.5</ele>
        <time>2022-05-07T11:48:09.000Z</time>
      </trkpt>
      <trkpt lat="45.11072" lon="5.2747">
        <ele>209.6</ele>
        <time>2022-05-07T11:48:11.000Z</time>
      </trkpt>
      <trkpt lat="45.11072" lon="5.27465">
        <ele>209.8</ele>
        <time>2022-05-07T11:48:13.000Z</time>
      </trkpt>
      <trkpt lat="45.11072" lon="5.27461">
        <ele>210</ele>
        <time>2022-05-07T11:48:15.000Z</time>
      </trkpt>
      <trkpt lat="45.11072" lon="5.27457">
        <ele>210.4</ele>
        <time>2022-05-07T11:48:17.000Z</time>
      </trkpt>
      <trkpt lat="45.11074" lon="5.27453">
        <ele>211.2</ele>
        <time>2022-05-07T11:48:19.000Z</time>
      </trkpt>
      <trkpt lat="45.11074" lon="5.27451">
        <ele>211.6</ele>
        <time>2022-05-07T11:48:20.000Z</time>
      </trkpt>
      <trkpt lat="45.11074" lon="5.27447">
        <ele>212</ele>
        <time>2022-05-07T11:48:22.000Z</time>
      </trkpt>
      <trkpt lat="45.11076" lon="5.27443">
        <ele>212.6</ele>
        <time>2022-05-07T11:48:24.000Z</time>
      </trkpt>
      <trkpt lat="45.11077" lon="5.27439">
        <ele>213.1</ele>
        <time>2022-05-07T11:48:26.000Z</time>
      </trkpt>
      <trkpt lat="45.11077" lon="5.27436">
        <ele>213.1</ele>
        <time>2022-05-07T11:48:28.000Z</time>
      </trkpt>
      <trkpt lat="45.11079" lon="5.27431">
        <ele>213.4</ele>
        <time>2022-05-07T11:48:30.000Z</time>
      </trkpt>
      <trkpt lat="45.1108" lon="5.27427">
        <ele>213.7</ele>
        <time>2022-05-07T11:48:32.000Z</time>
      </trkpt>
      <trkpt lat="45.11081" lon="5.27424">
        <ele>213.8</ele>
        <time>2022-05-07T11:48:34.000Z</time>
      </trkpt>
      <trkpt lat="45.11083" lon="5.27421">
        <ele>214.2</ele>
        <time>2022-05-07T11:48:36.000Z</time>
      </trkpt>
      <trkpt lat="45.11084" lon="5.27418">
        <ele>214.3</ele>
        <time>2022-05-07T11:48:38.000Z</time>
      </trkpt>
      <trkpt lat="45.11085" lon="5.27415">
        <ele>214.7</ele>
        <time>2022-05-07T11:48:40.000Z</time>
      </trkpt>
      <trkpt lat="45.11086" lon="5.27411">
        <ele>214.7</ele>
        <time>2022-05-07T11:48:42.000Z</time>
      </trkpt>
      <trkpt lat="45.11086" lon="5.27408">
        <ele>214.7</ele>
        <time>2022-05-07T11:48:43.000Z</time>
      </trkpt>
      <trkpt lat="45.11086" lon="5.27404">
        <ele>214.6</ele>
        <time>2022-05-07T11:48:45.000Z</time>
      </trkpt>
      <trkpt lat="45.11086" lon="5.274">
        <ele>214.7</ele>
        <time>2022-05-07T11:48:47.000Z</time>
      </trkpt>
      <trkpt lat="45.11088" lon="5.27396">
        <ele>215.2</ele>
        <time>2022-05-07T11:48:49.000Z</time>
      </trkpt>
      <trkpt lat="45.11087" lon="5.27393">
        <ele>215</ele>
        <time>2022-05-07T11:48:51.000Z</time>
      </trkpt>
      <trkpt lat="45.11087" lon="5.2739">
        <ele>214.8</ele>
        <time>2022-05-07T11:48:52.000Z</time>
      </trkpt>
      <trkpt lat="45.11086" lon="5.27386">
        <ele>214.4</ele>
        <time>2022-05-07T11:48:53.000Z</time>
      </trkpt>
      <trkpt lat="45.11086" lon="5.27383">
        <ele>214.3</ele>
        <time>2022-05-07T11:48:54.000Z</time>
      </trkpt>
      <trkpt lat="45.11085" lon="5.2738">
        <ele>214.3</ele>
        <time>2022-05-07T11:48:55.000Z</time>
      </trkpt>
      <trkpt lat="45.11085" lon="5.27375">
        <ele>214.2</ele>
        <time>2022-05-07T11:48:57.000Z</time>
      </trkpt>
      <trkpt lat="45.11084" lon="5.27373">
        <ele>213.8</ele>
        <time>2022-05-07T11:48:58.000Z</time>
      </trkpt>
      <trkpt lat="45.11083" lon="5.2737">
        <ele>213.7</ele>
        <time>2022-05-07T11:48:59.000Z</time>
      </trkpt>
      <trkpt lat="45.11083" lon="5.27368">
        <ele>213.7</ele>
        <time>2022-05-07T11:49:00.000Z</time>
      </trkpt>
      <trkpt lat="45.11082" lon="5.27363">
        <ele>213.8</ele>
        <time>2022-05-07T11:49:02.000Z</time>
      </trkpt>
      <trkpt lat="45.11082" lon="5.27358">
        <ele>214.1</ele>
        <time>2022-05-07T11:49:04.000Z</time>
      </trkpt>
      <trkpt lat="45.11082" lon="5.27354">
        <ele>214.4</ele>
        <time>2022-05-07T11:49:06.000Z</time>
      </trkpt>
      <trkpt lat="45.11082" lon="5.2735">
        <ele>214.7</ele>
        <time>2022-05-07T11:49:08.000Z</time>
      </trkpt>
      <trkpt lat="45.11081" lon="5.27345">
        <ele>215.1</ele>
        <time>2022-05-07T11:49:10.000Z</time>
      </trkpt>
      <trkpt lat="45.11081" lon="5.2734">
        <ele>215.5</ele>
        <time>2022-05-07T11:49:12.000Z</time>
      </trkpt>
      <trkpt lat="45.1108" lon="5.27338">
        <ele>215.7</ele>
        <time>2022-05-07T11:49:13.000Z</time>
      </trkpt>
      <trkpt lat="45.1108" lon="5.27335">
        <ele>216</ele>
        <time>2022-05-07T11:49:14.000Z</time>
      </trkpt>
      <trkpt lat="45.1108" lon="5.27332">
        <ele>216.2</ele>
        <time>2022-05-07T11:49:15.000Z</time>
      </trkpt>
      <trkpt lat="45.11082" lon="5.27329">
        <ele>216.4</ele>
        <time>2022-05-07T11:49:17.000Z</time>
      </trkpt>
      <trkpt lat="45.11081" lon="5.27325">
        <ele>216.7</ele>
        <time>2022-05-07T11:49:19.000Z</time>
      </trkpt>
      <trkpt lat="45.1108" lon="5.2732">
        <ele>217</ele>
        <time>2022-05-07T11:49:21.000Z</time>
      </trkpt>
      <trkpt lat="45.11079" lon="5.27316">
        <ele>217.3</ele>
        <time>2022-05-07T11:49:23.000Z</time>
      </trkpt>
      <trkpt lat="45.11077" lon="5.27314">
        <ele>217.5</ele>
        <time>2022-05-07T11:49:24.000Z</time>
      </trkpt>
      <trkpt lat="45.11075" lon="5.27313">
        <ele>217.5</ele>
        <time>2022-05-07T11:49:25.000Z</time>
      </trkpt>
      <trkpt lat="45.11074" lon="5.27312">
        <ele>217.6</ele>
        <time>2022-05-07T11:49:26.000Z</time>
      </trkpt>
      <trkpt lat="45.11071" lon="5.27311">
        <ele>217.7</ele>
        <time>2022-05-07T11:49:28.000Z</time>
      </trkpt>
      <trkpt lat="45.11068" lon="5.27311">
        <ele>217.7</ele>
        <time>2022-05-07T11:49:30.000Z</time>
      </trkpt>
      <trkpt lat="45.11065" lon="5.27314">
        <ele>217.6</ele>
        <time>2022-05-07T11:49:32.000Z</time>
      </trkpt>
      <trkpt lat="45.11064" lon="5.27316">
        <ele>217.5</ele>
        <time>2022-05-07T11:49:34.000Z</time>
      </trkpt>
      <trkpt lat="45.11062" lon="5.2732">
        <ele>217.4</ele>
        <time>2022-05-07T11:49:36.000Z</time>
      </trkpt>
      <trkpt lat="45.11061" lon="5.27323">
        <ele>217.3</ele>
        <time>2022-05-07T11:49:38.000Z</time>
      </trkpt>
      <trkpt lat="45.1106" lon="5.27325">
        <ele>217.2</ele>
        <time>2022-05-07T11:49:39.000Z</time>
      </trkpt>
      <trkpt lat="45.11058" lon="5.27329">
        <ele>217.1</ele>
        <time>2022-05-07T11:49:41.000Z</time>
      </trkpt>
      <trkpt lat="45.11057" lon="5.27331">
        <ele>217</ele>
        <time>2022-05-07T11:49:42.000Z</time>
      </trkpt>
      <trkpt lat="45.11055" lon="5.27335">
        <ele>216.9</ele>
        <time>2022-05-07T11:49:44.000Z</time>
      </trkpt>
      <trkpt lat="45.11054" lon="5.27339">
        <ele>216.6</ele>
        <time>2022-05-07T11:49:46.000Z</time>
      </trkpt>
      <trkpt lat="45.11052" lon="5.27342">
        <ele>216.9</ele>
        <time>2022-05-07T11:49:48.000Z</time>
      </trkpt>
      <trkpt lat="45.11051" lon="5.27346">
        <ele>216.6</ele>
        <time>2022-05-07T11:49:50.000Z</time>
      </trkpt>
      <trkpt lat="45.1105" lon="5.27348">
        <ele>216.8</ele>
        <time>2022-05-07T11:49:51.000Z</time>
      </trkpt>
      <trkpt lat="45.11048" lon="5.27349">
        <ele>217.3</ele>
        <time>2022-05-07T11:49:52.000Z</time>
      </trkpt>
      <trkpt lat="45.11045" lon="5.27351">
        <ele>218</ele>
        <time>2022-05-07T11:49:54.000Z</time>
      </trkpt>
      <trkpt lat="45.11042" lon="5.27354">
        <ele>218.3</ele>
        <time>2022-05-07T11:49:56.000Z</time>
      </trkpt>
      <trkpt lat="45.1104" lon="5.27357">
        <ele>218.5</ele>
        <time>2022-05-07T11:49:58.000Z</time>
      </trkpt>
      <trkpt lat="45.11038" lon="5.27359">
        <ele>218.6</ele>
        <time>2022-05-07T11:49:59.000Z</time>
      </trkpt>
      <trkpt lat="45.11035" lon="5.27361">
        <ele>219</ele>
        <time>2022-05-07T11:50:01.000Z</time>
      </trkpt>
      <trkpt lat="45.11034" lon="5.27363">
        <ele>219.2</ele>
        <time>2022-05-07T11:50:02.000Z</time>
      </trkpt>
      <trkpt lat="45.11032" lon="5.27364">
        <ele>219.6</ele>
        <time>2022-05-07T11:50:03.000Z</time>
      </trkpt>
      <trkpt lat="45.1103" lon="5.27366">
        <ele>219.8</ele>
        <time>2022-05-07T11:50:04.000Z</time>
      </trkpt>
      <trkpt lat="45.11028" lon="5.27368">
        <ele>220.2</ele>
        <time>2022-05-07T11:50:05.000Z</time>
      </trkpt>
      <trkpt lat="45.11026" lon="5.2737">
        <ele>219.7</ele>
        <time>2022-05-07T11:50:06.000Z</time>
      </trkpt>
      <trkpt lat="45.11024" lon="5.2737">
        <ele>219.2</ele>
        <time>2022-05-07T11:50:07.000Z</time>
      </trkpt>
      <trkpt lat="45.11022" lon="5.27372">
        <ele>218.6</ele>
        <time>2022-05-07T11:50:08.000Z</time>
      </trkpt>
      <trkpt lat="45.11019" lon="5.27373">
        <ele>218.1</ele>
        <time>2022-05-07T11:50:09.000Z</time>
      </trkpt>
      <trkpt lat="45.11017" lon="5.27373">
        <ele>217.8</ele>
        <time>2022-05-07T11:50:10.000Z</time>
      </trkpt>
      <trkpt lat="45.11015" lon="5.27373">
        <ele>217.6</ele>
        <time>2022-05-07T11:50:11.000Z</time>
      </trkpt>
      <trkpt lat="45.11013" lon="5.27371">
        <ele>217.7</ele>
        <time>2022-05-07T11:50:13.000Z</time>
      </trkpt>
      <trkpt lat="45.1101" lon="5.27369">
        <ele>218.3</ele>
        <time>2022-05-07T11:50:15.000Z</time>
      </trkpt>
      <trkpt lat="45.11008" lon="5.27366">
        <ele>219.1</ele>
        <time>2022-05-07T11:50:17.000Z</time>
      </trkpt>
      <trkpt lat="45.11005" lon="5.27363">
        <ele>219.7</ele>
        <time>2022-05-07T11:50:19.000Z</time>
      </trkpt>
      <trkpt lat="45.11003" lon="5.2736">
        <ele>220.5</ele>
        <time>2022-05-07T11:50:21.000Z</time>
      </trkpt>
      <trkpt lat="45.11002" lon="5.27356">
        <ele>221.2</ele>
        <time>2022-05-07T11:50:23.000Z</time>
      </trkpt>
      <trkpt lat="45.11" lon="5.27354">
        <ele>221.6</ele>
        <time>2022-05-07T11:50:25.000Z</time>
      </trkpt>
      <trkpt lat="45.10998" lon="5.27349">
        <ele>221.9</ele>
        <time>2022-05-07T11:50:27.000Z</time>
      </trkpt>
      <trkpt lat="45.10996" lon="5.27346">
        <ele>222</ele>
        <time>2022-05-07T11:50:29.000Z</time>
      </trkpt>
      <trkpt lat="45.10994" lon="5.27344">
        <ele>221.8</ele>
        <time>2022-05-07T11:50:30.000Z</time>
      </trkpt>
      <trkpt lat="45.10992" lon="5.27343">
        <ele>221.5</ele>
        <time>2022-05-07T11:50:31.000Z</time>
      </trkpt>
      <trkpt lat="45.10989" lon="5.27341">
        <ele>221.3</ele>
        <time>2022-05-07T11:50:33.000Z</time>
      </trkpt>
      <trkpt lat="45.10987" lon="5.27338">
        <ele>221.3</ele>
        <time>2022-05-07T11:50:35.000Z</time>
      </trkpt>
      <trkpt lat="45.10984" lon="5.27336">
        <ele>221.4</ele>
        <time>2022-05-07T11:50:37.000Z</time>
      </trkpt>
      <trkpt lat="45.10982" lon="5.27332">
        <ele>221.8</ele>
        <time>2022-05-07T11:50:39.000Z</time>
      </trkpt>
      <trkpt lat="45.1098" lon="5.27329">
        <ele>222.1</ele>
        <time>2022-05-07T11:50:41.000Z</time>
      </trkpt>
      <trkpt lat="45.10978" lon="5.27327">
        <ele>222.2</ele>
        <time>2022-05-07T11:50:42.000Z</time>
      </trkpt>
      <trkpt lat="45.10976" lon="5.27324">
        <ele>222.6</ele>
        <time>2022-05-07T11:50:44.000Z</time>
      </trkpt>
      <trkpt lat="45.10974" lon="5.2732">
        <ele>223.2</ele>
        <time>2022-05-07T11:50:46.000Z</time>
      </trkpt>
      <trkpt lat="45.10973" lon="5.27318">
        <ele>223.6</ele>
        <time>2022-05-07T11:50:47.000Z</time>
      </trkpt>
      <trkpt lat="45.10972" lon="5.27315">
        <ele>224.1</ele>
        <time>2022-05-07T11:50:48.000Z</time>
      </trkpt>
      <trkpt lat="45.10971" lon="5.27313">
        <ele>224.6</ele>
        <time>2022-05-07T11:50:49.000Z</time>
      </trkpt>
      <trkpt lat="45.1097" lon="5.2731">
        <ele>224.9</ele>
        <time>2022-05-07T11:50:50.000Z</time>
      </trkpt>
      <trkpt lat="45.10969" lon="5.27308">
        <ele>225.4</ele>
        <time>2022-05-07T11:50:51.000Z</time>
      </trkpt>
      <trkpt lat="45.10968" lon="5.27305">
        <ele>225.7</ele>
        <time>2022-05-07T11:50:52.000Z</time>
      </trkpt>
      <trkpt lat="45.10966" lon="5.27304">
        <ele>225.5</ele>
        <time>2022-05-07T11:50:53.000Z</time>
      </trkpt>
      <trkpt lat="45.10965" lon="5.27302">
        <ele>225.4</ele>
        <time>2022-05-07T11:50:54.000Z</time>
      </trkpt>
      <trkpt lat="45.10963" lon="5.273">
        <ele>225.5</ele>
        <time>2022-05-07T11:50:55.000Z</time>
      </trkpt>
      <trkpt lat="45.10962" lon="5.27298">
        <ele>225.5</ele>
        <time>2022-05-07T11:50:56.000Z</time>
      </trkpt>
      <trkpt lat="45.10961" lon="5.27296">
        <ele>225.7</ele>
        <time>2022-05-07T11:50:57.000Z</time>
      </trkpt>
      <trkpt lat="45.10959" lon="5.27294">
        <ele>225.8</ele>
        <time>2022-05-07T11:50:58.000Z</time>
      </trkpt>
      <trkpt lat="45.10958" lon="5.27291">
        <ele>226.1</ele>
        <time>2022-05-07T11:50:59.000Z</time>
      </trkpt>
      <trkpt lat="45.10957" lon="5.27289">
        <ele>226.2</ele>
        <time>2022-05-07T11:51:00.000Z</time>
      </trkpt>
      <trkpt lat="45.10955" lon="5.27287">
        <ele>226.4</ele>
        <time>2022-05-07T11:51:01.000Z</time>
      </trkpt>
      <trkpt lat="45.10954" lon="5.27285">
        <ele>226.7</ele>
        <time>2022-05-07T11:51:02.000Z</time>
      </trkpt>
      <trkpt lat="45.10953" lon="5.27283">
        <ele>226.8</ele>
        <time>2022-05-07T11:51:03.000Z</time>
      </trkpt>
      <trkpt lat="45.10951" lon="5.27279">
        <ele>227.3</ele>
        <time>2022-05-07T11:51:05.000Z</time>
      </trkpt>
      <trkpt lat="45.10949" lon="5.27275">
        <ele>227.8</ele>
        <time>2022-05-07T11:51:07.000Z</time>
      </trkpt>
      <trkpt lat="45.10947" lon="5.27271">
        <ele>228.4</ele>
        <time>2022-05-07T11:51:09.000Z</time>
      </trkpt>
      <trkpt lat="45.10946" lon="5.2727">
        <ele>228.6</ele>
        <time>2022-05-07T11:51:10.000Z</time>
      </trkpt>
      <trkpt lat="45.10944" lon="5.27268">
        <ele>228.7</ele>
        <time>2022-05-07T11:51:11.000Z</time>
      </trkpt>
      <trkpt lat="45.10943" lon="5.27266">
        <ele>229</ele>
        <time>2022-05-07T11:51:12.000Z</time>
      </trkpt>
      <trkpt lat="45.10941" lon="5.27263">
        <ele>229.1</ele>
        <time>2022-05-07T11:51:14.000Z</time>
      </trkpt>
      <trkpt lat="45.10939" lon="5.27261">
        <ele>229.1</ele>
        <time>2022-05-07T11:51:15.000Z</time>
      </trkpt>
      <trkpt lat="45.10937" lon="5.27259">
        <ele>229.1</ele>
        <time>2022-05-07T11:51:16.000Z</time>
      </trkpt>
      <trkpt lat="45.10936" lon="5.27257">
        <ele>229.3</ele>
        <time>2022-05-07T11:51:17.000Z</time>
      </trkpt>
      <trkpt lat="45.10934" lon="5.27255">
        <ele>229.5</ele>
        <time>2022-05-07T11:51:19.000Z</time>
      </trkpt>
      <trkpt lat="45.10931" lon="5.27251">
        <ele>229.9</ele>
        <time>2022-05-07T11:51:21.000Z</time>
      </trkpt>
      <trkpt lat="45.10929" lon="5.27247">
        <ele>230.1</ele>
        <time>2022-05-07T11:51:23.000Z</time>
      </trkpt>
      <trkpt lat="45.10928" lon="5.27244">
        <ele>230.3</ele>
        <time>2022-05-07T11:51:24.000Z</time>
      </trkpt>
      <trkpt lat="45.10927" lon="5.27242">
        <ele>230.4</ele>
        <time>2022-05-07T11:51:25.000Z</time>
      </trkpt>
      <trkpt lat="45.10926" lon="5.27239">
        <ele>230.5</ele>
        <time>2022-05-07T11:51:26.000Z</time>
      </trkpt>
      <trkpt lat="45.10924" lon="5.27236">
        <ele>230.4</ele>
        <time>2022-05-07T11:51:27.000Z</time>
      </trkpt>
      <trkpt lat="45.10922" lon="5.27234">
        <ele>230.4</ele>
        <time>2022-05-07T11:51:28.000Z</time>
      </trkpt>
      <trkpt lat="45.10921" lon="5.27232">
        <ele>230.4</ele>
        <time>2022-05-07T11:51:29.000Z</time>
      </trkpt>
      <trkpt lat="45.1092" lon="5.2723">
        <ele>230.4</ele>
        <time>2022-05-07T11:51:30.000Z</time>
      </trkpt>
      <trkpt lat="45.10918" lon="5.27228">
        <ele>230.3</ele>
        <time>2022-05-07T11:51:31.000Z</time>
      </trkpt>
      <trkpt lat="45.10917" lon="5.27226">
        <ele>230.4</ele>
        <time>2022-05-07T11:51:32.000Z</time>
      </trkpt>
      <trkpt lat="45.10916" lon="5.27224">
        <ele>230.3</ele>
        <time>2022-05-07T11:51:33.000Z</time>
      </trkpt>
      <trkpt lat="45.10914" lon="5.27222">
        <ele>230.4</ele>
        <time>2022-05-07T11:51:34.000Z</time>
      </trkpt>
      <trkpt lat="45.10913" lon="5.2722">
        <ele>230.4</ele>
        <time>2022-05-07T11:51:35.000Z</time>
      </trkpt>
      <trkpt lat="45.10912" lon="5.27218">
        <ele>230.4</ele>
        <time>2022-05-07T11:51:36.000Z</time>
      </trkpt>
      <trkpt lat="45.10909" lon="5.27215">
        <ele>230.3</ele>
        <time>2022-05-07T11:51:38.000Z</time>
      </trkpt>
      <trkpt lat="45.10908" lon="5.27213">
        <ele>230.4</ele>
        <time>2022-05-07T11:51:39.000Z</time>
      </trkpt>
      <trkpt lat="45.10906" lon="5.27211">
        <ele>230.4</ele>
        <time>2022-05-07T11:51:40.000Z</time>
      </trkpt>
      <trkpt lat="45.10905" lon="5.27209">
        <ele>230.4</ele>
        <time>2022-05-07T11:51:41.000Z</time>
      </trkpt>
      <trkpt lat="45.10903" lon="5.27207">
        <ele>230.5</ele>
        <time>2022-05-07T11:51:42.000Z</time>
      </trkpt>
      <trkpt lat="45.10902" lon="5.27205">
        <ele>230.7</ele>
        <time>2022-05-07T11:51:43.000Z</time>
      </trkpt>
      <trkpt lat="45.10901" lon="5.27202">
        <ele>230.9</ele>
        <time>2022-05-07T11:51:44.000Z</time>
      </trkpt>
      <trkpt lat="45.109" lon="5.272">
        <ele>231</ele>
        <time>2022-05-07T11:51:45.000Z</time>
      </trkpt>
      <trkpt lat="45.10898" lon="5.27198">
        <ele>231.2</ele>
        <time>2022-05-07T11:51:46.000Z</time>
      </trkpt>
      <trkpt lat="45.10897" lon="5.27196">
        <ele>231.5</ele>
        <time>2022-05-07T11:51:47.000Z</time>
      </trkpt>
      <trkpt lat="45.10896" lon="5.27193">
        <ele>231.7</ele>
        <time>2022-05-07T11:51:48.000Z</time>
      </trkpt>
      <trkpt lat="45.10895" lon="5.27191">
        <ele>231.8</ele>
        <time>2022-05-07T11:51:49.000Z</time>
      </trkpt>
      <trkpt lat="45.10893" lon="5.27189">
        <ele>231.8</ele>
        <time>2022-05-07T11:51:50.000Z</time>
      </trkpt>
      <trkpt lat="45.10892" lon="5.27188">
        <ele>231.7</ele>
        <time>2022-05-07T11:51:51.000Z</time>
      </trkpt>
      <trkpt lat="45.1089" lon="5.27186">
        <ele>231.8</ele>
        <time>2022-05-07T11:51:52.000Z</time>
      </trkpt>
      <trkpt lat="45.10889" lon="5.27184">
        <ele>231.7</ele>
        <time>2022-05-07T11:51:53.000Z</time>
      </trkpt>
      <trkpt lat="45.10886" lon="5.27181">
        <ele>231.7</ele>
        <time>2022-05-07T11:51:55.000Z</time>
      </trkpt>
      <trkpt lat="45.10885" lon="5.27179">
        <ele>231.9</ele>
        <time>2022-05-07T11:51:56.000Z</time>
      </trkpt>
      <trkpt lat="45.10884" lon="5.27177">
        <ele>231.9</ele>
        <time>2022-05-07T11:51:57.000Z</time>
      </trkpt>
      <trkpt lat="45.10881" lon="5.27173">
        <ele>232.1</ele>
        <time>2022-05-07T11:51:59.000Z</time>
      </trkpt>
      <trkpt lat="45.1088" lon="5.27171">
        <ele>232.2</ele>
        <time>2022-05-07T11:52:00.000Z</time>
      </trkpt>
      <trkpt lat="45.10878" lon="5.27168">
        <ele>232.8</ele>
        <time>2022-05-07T11:52:02.000Z</time>
      </trkpt>
      <trkpt lat="45.10876" lon="5.27164">
        <ele>233.1</ele>
        <time>2022-05-07T11:52:04.000Z</time>
      </trkpt>
      <trkpt lat="45.10874" lon="5.27161">
        <ele>233.2</ele>
        <time>2022-05-07T11:52:06.000Z</time>
      </trkpt>
      <trkpt lat="45.10873" lon="5.27158">
        <ele>233.3</ele>
        <time>2022-05-07T11:52:07.000Z</time>
      </trkpt>
      <trkpt lat="45.10871" lon="5.27154">
        <ele>233.5</ele>
        <time>2022-05-07T11:52:09.000Z</time>
      </trkpt>
      <trkpt lat="45.1087" lon="5.27152">
        <ele>233.7</ele>
        <time>2022-05-07T11:52:10.000Z</time>
      </trkpt>
      <trkpt lat="45.10869" lon="5.2715">
        <ele>233.8</ele>
        <time>2022-05-07T11:52:11.000Z</time>
      </trkpt>
      <trkpt lat="45.10868" lon="5.27147">
        <ele>234</ele>
        <time>2022-05-07T11:52:12.000Z</time>
      </trkpt>
      <trkpt lat="45.10866" lon="5.27145">
        <ele>234.1</ele>
        <time>2022-05-07T11:52:13.000Z</time>
      </trkpt>
      <trkpt lat="45.10865" lon="5.27142">
        <ele>234.2</ele>
        <time>2022-05-07T11:52:14.000Z</time>
      </trkpt>
      <trkpt lat="45.10864" lon="5.2714">
        <ele>234.3</ele>
        <time>2022-05-07T11:52:15.000Z</time>
      </trkpt>
      <trkpt lat="45.10862" lon="5.27137">
        <ele>234.4</ele>
        <time>2022-05-07T11:52:16.000Z</time>
      </trkpt>
      <trkpt lat="45.10861" lon="5.27135">
        <ele>234.6</ele>
        <time>2022-05-07T11:52:17.000Z</time>
      </trkpt>
      <trkpt lat="45.1086" lon="5.27133">
        <ele>234.5</ele>
        <time>2022-05-07T11:52:18.000Z</time>
      </trkpt>
      <trkpt lat="45.10858" lon="5.27131">
        <ele>234.5</ele>
        <time>2022-05-07T11:52:19.000Z</time>
      </trkpt>
      <trkpt lat="45.10856" lon="5.27129">
        <ele>234.3</ele>
        <time>2022-05-07T11:52:20.000Z</time>
      </trkpt>
      <trkpt lat="45.10855" lon="5.27127">
        <ele>234.3</ele>
        <time>2022-05-07T11:52:21.000Z</time>
      </trkpt>
      <trkpt lat="45.10854" lon="5.27125">
        <ele>234.3</ele>
        <time>2022-05-07T11:52:22.000Z</time>
      </trkpt>
      <trkpt lat="45.10852" lon="5.27123">
        <ele>234.4</ele>
        <time>2022-05-07T11:52:23.000Z</time>
      </trkpt>
      <trkpt lat="45.10851" lon="5.27121">
        <ele>234.4</ele>
        <time>2022-05-07T11:52:24.000Z</time>
      </trkpt>
      <trkpt lat="45.10849" lon="5.27119">
        <ele>234.4</ele>
        <time>2022-05-07T11:52:25.000Z</time>
      </trkpt>
      <trkpt lat="45.10847" lon="5.27117">
        <ele>234.4</ele>
        <time>2022-05-07T11:52:26.000Z</time>
      </trkpt>
      <trkpt lat="45.10846" lon="5.27115">
        <ele>234.5</ele>
        <time>2022-05-07T11:52:27.000Z</time>
      </trkpt>
      <trkpt lat="45.10844" lon="5.27114">
        <ele>234.5</ele>
        <time>2022-05-07T11:52:28.000Z</time>
      </trkpt>
      <trkpt lat="45.10843" lon="5.27112">
        <ele>234.6</ele>
        <time>2022-05-07T11:52:29.000Z</time>
      </trkpt>
      <trkpt lat="45.10841" lon="5.27109">
        <ele>234.6</ele>
        <time>2022-05-07T11:52:31.000Z</time>
      </trkpt>
      <trkpt lat="45.1084" lon="5.27105">
        <ele>234.5</ele>
        <time>2022-05-07T11:52:33.000Z</time>
      </trkpt>
      <trkpt lat="45.10839" lon="5.27101">
        <ele>234.6</ele>
        <time>2022-05-07T11:52:35.000Z</time>
      </trkpt>
      <trkpt lat="45.10838" lon="5.27097">
        <ele>234.7</ele>
        <time>2022-05-07T11:52:37.000Z</time>
      </trkpt>
      <trkpt lat="45.10837" lon="5.27095">
        <ele>234.7</ele>
        <time>2022-05-07T11:52:39.000Z</time>
      </trkpt>
      <trkpt lat="45.10836" lon="5.27092">
        <ele>234.7</ele>
        <time>2022-05-07T11:52:41.000Z</time>
      </trkpt>
      <trkpt lat="45.10835" lon="5.27089">
        <ele>234.9</ele>
        <time>2022-05-07T11:52:43.000Z</time>
      </trkpt>
      <trkpt lat="45.10834" lon="5.27085">
        <ele>235</ele>
        <time>2022-05-07T11:52:45.000Z</time>
      </trkpt>
      <trkpt lat="45.10833" lon="5.27079">
        <ele>235.4</ele>
        <time>2022-05-07T11:52:47.000Z</time>
      </trkpt>
      <trkpt lat="45.10833" lon="5.27077">
        <ele>235.6</ele>
        <time>2022-05-07T11:52:48.000Z</time>
      </trkpt>
      <trkpt lat="45.10832" lon="5.27072">
        <ele>235.9</ele>
        <time>2022-05-07T11:52:50.000Z</time>
      </trkpt>
      <trkpt lat="45.10832" lon="5.27069">
        <ele>236</ele>
        <time>2022-05-07T11:52:51.000Z</time>
      </trkpt>
      <trkpt lat="45.10831" lon="5.27066">
        <ele>236.1</ele>
        <time>2022-05-07T11:52:52.000Z</time>
      </trkpt>
      <trkpt lat="45.1083" lon="5.27063">
        <ele>236.3</ele>
        <time>2022-05-07T11:52:53.000Z</time>
      </trkpt>
      <trkpt lat="45.10829" lon="5.2706">
        <ele>236.4</ele>
        <time>2022-05-07T11:52:54.000Z</time>
      </trkpt>
      <trkpt lat="45.10829" lon="5.27058">
        <ele>236.5</ele>
        <time>2022-05-07T11:52:55.000Z</time>
      </trkpt>
      <trkpt lat="45.10828" lon="5.27055">
        <ele>236.6</ele>
        <time>2022-05-07T11:52:56.000Z</time>
      </trkpt>
      <trkpt lat="45.10827" lon="5.27051">
        <ele>236.7</ele>
        <time>2022-05-07T11:52:58.000Z</time>
      </trkpt>
      <trkpt lat="45.10826" lon="5.27048">
        <ele>236.9</ele>
        <time>2022-05-07T11:53:00.000Z</time>
      </trkpt>
      <trkpt lat="45.10826" lon="5.27043">
        <ele>237.1</ele>
        <time>2022-05-07T11:53:02.000Z</time>
      </trkpt>
      <trkpt lat="45.10825" lon="5.27038">
        <ele>237.5</ele>
        <time>2022-05-07T11:53:04.000Z</time>
      </trkpt>
      <trkpt lat="45.10824" lon="5.27034">
        <ele>237.8</ele>
        <time>2022-05-07T11:53:06.000Z</time>
      </trkpt>
      <trkpt lat="45.10823" lon="5.2703">
        <ele>238.1</ele>
        <time>2022-05-07T11:53:08.000Z</time>
      </trkpt>
      <trkpt lat="45.10823" lon="5.27027">
        <ele>238.3</ele>
        <time>2022-05-07T11:53:09.000Z</time>
      </trkpt>
      <trkpt lat="45.10822" lon="5.27022">
        <ele>238.6</ele>
        <time>2022-05-07T11:53:11.000Z</time>
      </trkpt>
      <trkpt lat="45.10821" lon="5.27017">
        <ele>238.9</ele>
        <time>2022-05-07T11:53:13.000Z</time>
      </trkpt>
      <trkpt lat="45.1082" lon="5.27014">
        <ele>239</ele>
        <time>2022-05-07T11:53:14.000Z</time>
      </trkpt>
      <trkpt lat="45.1082" lon="5.27011">
        <ele>239.2</ele>
        <time>2022-05-07T11:53:15.000Z</time>
      </trkpt>
      <trkpt lat="45.10819" lon="5.27008">
        <ele>239.4</ele>
        <time>2022-05-07T11:53:16.000Z</time>
      </trkpt>
      <trkpt lat="45.10818" lon="5.27005">
        <ele>239.5</ele>
        <time>2022-05-07T11:53:17.000Z</time>
      </trkpt>
      <trkpt lat="45.10818" lon="5.27003">
        <ele>239.7</ele>
        <time>2022-05-07T11:53:18.000Z</time>
      </trkpt>
      <trkpt lat="45.10817" lon="5.27">
        <ele>239.9</ele>
        <time>2022-05-07T11:53:19.000Z</time>
      </trkpt>
      <trkpt lat="45.10817" lon="5.26997">
        <ele>240</ele>
        <time>2022-05-07T11:53:20.000Z</time>
      </trkpt>
      <trkpt lat="45.10816" lon="5.26994">
        <ele>240.2</ele>
        <time>2022-05-07T11:53:21.000Z</time>
      </trkpt>
      <trkpt lat="45.10816" lon="5.26991">
        <ele>240.3</ele>
        <time>2022-05-07T11:53:22.000Z</time>
      </trkpt>
      <trkpt lat="45.10815" lon="5.26989">
        <ele>240.5</ele>
        <time>2022-05-07T11:53:23.000Z</time>
      </trkpt>
      <trkpt lat="45.10814" lon="5.26987">
        <ele>240.6</ele>
        <time>2022-05-07T11:53:24.000Z</time>
      </trkpt>
      <trkpt lat="45.10813" lon="5.26984">
        <ele>240.7</ele>
        <time>2022-05-07T11:53:25.000Z</time>
      </trkpt>
      <trkpt lat="45.10812" lon="5.26981">
        <ele>240.8</ele>
        <time>2022-05-07T11:53:26.000Z</time>
      </trkpt>
      <trkpt lat="45.1081" lon="5.26978">
        <ele>240.9</ele>
        <time>2022-05-07T11:53:27.000Z</time>
      </trkpt>
      <trkpt lat="45.10809" lon="5.26975">
        <ele>241</ele>
        <time>2022-05-07T11:53:28.000Z</time>
      </trkpt>
      <trkpt lat="45.10807" lon="5.26972">
        <ele>241.1</ele>
        <time>2022-05-07T11:53:29.000Z</time>
      </trkpt>
      <trkpt lat="45.10805" lon="5.2697">
        <ele>241.2</ele>
        <time>2022-05-07T11:53:30.000Z</time>
      </trkpt>
      <trkpt lat="45.10803" lon="5.26968">
        <ele>241.3</ele>
        <time>2022-05-07T11:53:31.000Z</time>
      </trkpt>
      <trkpt lat="45.10802" lon="5.26967">
        <ele>241.4</ele>
        <time>2022-05-07T11:53:32.000Z</time>
      </trkpt>
      <trkpt lat="45.108" lon="5.26965">
        <ele>241.6</ele>
        <time>2022-05-07T11:53:33.000Z</time>
      </trkpt>
      <trkpt lat="45.10798" lon="5.26963">
        <ele>241.6</ele>
        <time>2022-05-07T11:53:34.000Z</time>
      </trkpt>
      <trkpt lat="45.10797" lon="5.26962">
        <ele>241.7</ele>
        <time>2022-05-07T11:53:35.000Z</time>
      </trkpt>
      <trkpt lat="45.10794" lon="5.26961">
        <ele>241.7</ele>
        <time>2022-05-07T11:53:36.000Z</time>
      </trkpt>
      <trkpt lat="45.10792" lon="5.26959">
        <ele>241.7</ele>
        <time>2022-05-07T11:53:37.000Z</time>
      </trkpt>
      <trkpt lat="45.1079" lon="5.26957">
        <ele>241.8</ele>
        <time>2022-05-07T11:53:38.000Z</time>
      </trkpt>
      <trkpt lat="45.10788" lon="5.26955">
        <ele>241.9</ele>
        <time>2022-05-07T11:53:39.000Z</time>
      </trkpt>
      <trkpt lat="45.10787" lon="5.26953">
        <ele>242</ele>
        <time>2022-05-07T11:53:40.000Z</time>
      </trkpt>
      <trkpt lat="45.10785" lon="5.26951">
        <ele>242</ele>
        <time>2022-05-07T11:53:41.000Z</time>
      </trkpt>
      <trkpt lat="45.10784" lon="5.26949">
        <ele>242.1</ele>
        <time>2022-05-07T11:53:42.000Z</time>
      </trkpt>
      <trkpt lat="45.10782" lon="5.26947">
        <ele>242.1</ele>
        <time>2022-05-07T11:53:43.000Z</time>
      </trkpt>
      <trkpt lat="45.1078" lon="5.26946">
        <ele>242.1</ele>
        <time>2022-05-07T11:53:44.000Z</time>
      </trkpt>
      <trkpt lat="45.10778" lon="5.26945">
        <ele>242</ele>
        <time>2022-05-07T11:53:45.000Z</time>
      </trkpt>
      <trkpt lat="45.10777" lon="5.26943">
        <ele>242</ele>
        <time>2022-05-07T11:53:46.000Z</time>
      </trkpt>
      <trkpt lat="45.10775" lon="5.26941">
        <ele>242.1</ele>
        <time>2022-05-07T11:53:47.000Z</time>
      </trkpt>
      <trkpt lat="45.10774" lon="5.26939">
        <ele>242.1</ele>
        <time>2022-05-07T11:53:48.000Z</time>
      </trkpt>
      <trkpt lat="45.10773" lon="5.26937">
        <ele>242.3</ele>
        <time>2022-05-07T11:53:49.000Z</time>
      </trkpt>
      <trkpt lat="45.10771" lon="5.26935">
        <ele>242.4</ele>
        <time>2022-05-07T11:53:50.000Z</time>
      </trkpt>
      <trkpt lat="45.1077" lon="5.26932">
        <ele>242.6</ele>
        <time>2022-05-07T11:53:51.000Z</time>
      </trkpt>
      <trkpt lat="45.10769" lon="5.26929">
        <ele>242.8</ele>
        <time>2022-05-07T11:53:52.000Z</time>
      </trkpt>
      <trkpt lat="45.10768" lon="5.26927">
        <ele>243</ele>
        <time>2022-05-07T11:53:53.000Z</time>
      </trkpt>
      <trkpt lat="45.10766" lon="5.26924">
        <ele>243.3</ele>
        <time>2022-05-07T11:53:54.000Z</time>
      </trkpt>
      <trkpt lat="45.10765" lon="5.26921">
        <ele>243.6</ele>
        <time>2022-05-07T11:53:55.000Z</time>
      </trkpt>
      <trkpt lat="45.10764" lon="5.26918">
        <ele>243.9</ele>
        <time>2022-05-07T11:53:56.000Z</time>
      </trkpt>
      <trkpt lat="45.10764" lon="5.26915">
        <ele>244.1</ele>
        <time>2022-05-07T11:53:57.000Z</time>
      </trkpt>
      <trkpt lat="45.10763" lon="5.26912">
        <ele>244.2</ele>
        <time>2022-05-07T11:53:58.000Z</time>
      </trkpt>
      <trkpt lat="45.10763" lon="5.26909">
        <ele>244.3</ele>
        <time>2022-05-07T11:53:59.000Z</time>
      </trkpt>
      <trkpt lat="45.10763" lon="5.26906">
        <ele>244.4</ele>
        <time>2022-05-07T11:54:00.000Z</time>
      </trkpt>
      <trkpt lat="45.10764" lon="5.26904">
        <ele>244.5</ele>
        <time>2022-05-07T11:54:01.000Z</time>
      </trkpt>
      <trkpt lat="45.10764" lon="5.26901">
        <ele>244.6</ele>
        <time>2022-05-07T11:54:02.000Z</time>
      </trkpt>
      <trkpt lat="45.10764" lon="5.26898">
        <ele>244.7</ele>
        <time>2022-05-07T11:54:03.000Z</time>
      </trkpt>
      <trkpt lat="45.10765" lon="5.26895">
        <ele>244.8</ele>
        <time>2022-05-07T11:54:04.000Z</time>
      </trkpt>
      <trkpt lat="45.10765" lon="5.26892">
        <ele>244.9</ele>
        <time>2022-05-07T11:54:05.000Z</time>
      </trkpt>
      <trkpt lat="45.10765" lon="5.26889">
        <ele>245</ele>
        <time>2022-05-07T11:54:06.000Z</time>
      </trkpt>
      <trkpt lat="45.10765" lon="5.26886">
        <ele>245.2</ele>
        <time>2022-05-07T11:54:07.000Z</time>
      </trkpt>
      <trkpt lat="45.10766" lon="5.26883">
        <ele>245.3</ele>
        <time>2022-05-07T11:54:08.000Z</time>
      </trkpt>
      <trkpt lat="45.10766" lon="5.2688">
        <ele>245.5</ele>
        <time>2022-05-07T11:54:09.000Z</time>
      </trkpt>
      <trkpt lat="45.10767" lon="5.26878">
        <ele>245.7</ele>
        <time>2022-05-07T11:54:10.000Z</time>
      </trkpt>
      <trkpt lat="45.10768" lon="5.26875">
        <ele>245.8</ele>
        <time>2022-05-07T11:54:11.000Z</time>
      </trkpt>
      <trkpt lat="45.10768" lon="5.26872">
        <ele>246</ele>
        <time>2022-05-07T11:54:12.000Z</time>
      </trkpt>
      <trkpt lat="45.10769" lon="5.26869">
        <ele>246.2</ele>
        <time>2022-05-07T11:54:13.000Z</time>
      </trkpt>
      <trkpt lat="45.10769" lon="5.26867">
        <ele>246.4</ele>
        <time>2022-05-07T11:54:14.000Z</time>
      </trkpt>
      <trkpt lat="45.1077" lon="5.26864">
        <ele>246.5</ele>
        <time>2022-05-07T11:54:15.000Z</time>
      </trkpt>
      <trkpt lat="45.1077" lon="5.26861">
        <ele>246.7</ele>
        <time>2022-05-07T11:54:16.000Z</time>
      </trkpt>
      <trkpt lat="45.10771" lon="5.26858">
        <ele>246.9</ele>
        <time>2022-05-07T11:54:17.000Z</time>
      </trkpt>
      <trkpt lat="45.10771" lon="5.26855">
        <ele>247</ele>
        <time>2022-05-07T11:54:18.000Z</time>
      </trkpt>
      <trkpt lat="45.10772" lon="5.26853">
        <ele>247.1</ele>
        <time>2022-05-07T11:54:19.000Z</time>
      </trkpt>
      <trkpt lat="45.10772" lon="5.2685">
        <ele>247.2</ele>
        <time>2022-05-07T11:54:20.000Z</time>
      </trkpt>
      <trkpt lat="45.10771" lon="5.26847">
        <ele>247.3</ele>
        <time>2022-05-07T11:54:21.000Z</time>
      </trkpt>
      <trkpt lat="45.10771" lon="5.26842">
        <ele>247.4</ele>
        <time>2022-05-07T11:54:23.000Z</time>
      </trkpt>
      <trkpt lat="45.1077" lon="5.26839">
        <ele>247.5</ele>
        <time>2022-05-07T11:54:24.000Z</time>
      </trkpt>
      <trkpt lat="45.1077" lon="5.26836">
        <ele>247.6</ele>
        <time>2022-05-07T11:54:25.000Z</time>
      </trkpt>
      <trkpt lat="45.1077" lon="5.26832">
        <ele>247.7</ele>
        <time>2022-05-07T11:54:26.000Z</time>
      </trkpt>
      <trkpt lat="45.10769" lon="5.26828">
        <ele>247.5</ele>
        <time>2022-05-07T11:54:27.000Z</time>
      </trkpt>
      <trkpt lat="45.10767" lon="5.2682">
        <ele>247.3</ele>
        <time>2022-05-07T11:54:28.000Z</time>
      </trkpt>
      <trkpt lat="45.10764" lon="5.26821">
        <ele>247.3</ele>
        <time>2022-05-07T11:54:29.000Z</time>
      </trkpt>
      <trkpt lat="45.10769" lon="5.26813">
        <ele>247.2</ele>
        <time>2022-05-07T11:54:30.000Z</time>
      </trkpt>
      <trkpt lat="45.10766" lon="5.26811">
        <ele>247.1</ele>
        <time>2022-05-07T11:54:31.000Z</time>
      </trkpt>
      <trkpt lat="45.10763" lon="5.26812">
        <ele>247.1</ele>
        <time>2022-05-07T11:54:33.000Z</time>
      </trkpt>
      <trkpt lat="45.10761" lon="5.26811">
        <ele>247.1</ele>
        <time>2022-05-07T11:54:35.000Z</time>
      </trkpt>
      <trkpt lat="45.10759" lon="5.26809">
        <ele>247</ele>
        <time>2022-05-07T11:54:38.000Z</time>
      </trkpt>
      <trkpt lat="45.10758" lon="5.26804">
        <ele>247</ele>
        <time>2022-05-07T11:54:40.000Z</time>
      </trkpt>
      <trkpt lat="45.10757" lon="5.26798">
        <ele>247.2</ele>
        <time>2022-05-07T11:54:42.000Z</time>
      </trkpt>
      <trkpt lat="45.10756" lon="5.26794">
        <ele>247.3</ele>
        <time>2022-05-07T11:54:43.000Z</time>
      </trkpt>
      <trkpt lat="45.10755" lon="5.2679">
        <ele>247.5</ele>
        <time>2022-05-07T11:54:44.000Z</time>
      </trkpt>
      <trkpt lat="45.10754" lon="5.26786">
        <ele>247.6</ele>
        <time>2022-05-07T11:54:45.000Z</time>
      </trkpt>
      <trkpt lat="45.10752" lon="5.26784">
        <ele>247.7</ele>
        <time>2022-05-07T11:54:46.000Z</time>
      </trkpt>
      <trkpt lat="45.10751" lon="5.26781">
        <ele>247.9</ele>
        <time>2022-05-07T11:54:47.000Z</time>
      </trkpt>
      <trkpt lat="45.10749" lon="5.26778">
        <ele>248</ele>
        <time>2022-05-07T11:54:48.000Z</time>
      </trkpt>
      <trkpt lat="45.10748" lon="5.26775">
        <ele>247.8</ele>
        <time>2022-05-07T11:54:49.000Z</time>
      </trkpt>
      <trkpt lat="45.10747" lon="5.26771">
        <ele>247.7</ele>
        <time>2022-05-07T11:54:50.000Z</time>
      </trkpt>
      <trkpt lat="45.10745" lon="5.26768">
        <ele>247.5</ele>
        <time>2022-05-07T11:54:51.000Z</time>
      </trkpt>
      <trkpt lat="45.10744" lon="5.26766">
        <ele>247.4</ele>
        <time>2022-05-07T11:54:52.000Z</time>
      </trkpt>
      <trkpt lat="45.10743" lon="5.26762">
        <ele>247.3</ele>
        <time>2022-05-07T11:54:54.000Z</time>
      </trkpt>
      <trkpt lat="45.10741" lon="5.26757">
        <ele>247.2</ele>
        <time>2022-05-07T11:54:56.000Z</time>
      </trkpt>
      <trkpt lat="45.1074" lon="5.26754">
        <ele>247.1</ele>
        <time>2022-05-07T11:54:57.000Z</time>
      </trkpt>
      <trkpt lat="45.1074" lon="5.26751">
        <ele>247</ele>
        <time>2022-05-07T11:54:58.000Z</time>
      </trkpt>
      <trkpt lat="45.10739" lon="5.26748">
        <ele>247</ele>
        <time>2022-05-07T11:54:59.000Z</time>
      </trkpt>
      <trkpt lat="45.10738" lon="5.26744">
        <ele>247.1</ele>
        <time>2022-05-07T11:55:00.000Z</time>
      </trkpt>
      <trkpt lat="45.10737" lon="5.26741">
        <ele>247.2</ele>
        <time>2022-05-07T11:55:01.000Z</time>
      </trkpt>
      <trkpt lat="45.10736" lon="5.26737">
        <ele>247.2</ele>
        <time>2022-05-07T11:55:02.000Z</time>
      </trkpt>
      <trkpt lat="45.10734" lon="5.26733">
        <ele>247.4</ele>
        <time>2022-05-07T11:55:03.000Z</time>
      </trkpt>
      <trkpt lat="45.10733" lon="5.26728">
        <ele>247.5</ele>
        <time>2022-05-07T11:55:04.000Z</time>
      </trkpt>
      <trkpt lat="45.10731" lon="5.26723">
        <ele>247.6</ele>
        <time>2022-05-07T11:55:05.000Z</time>
      </trkpt>
      <trkpt lat="45.1073" lon="5.26719">
        <ele>247.7</ele>
        <time>2022-05-07T11:55:06.000Z</time>
      </trkpt>
      <trkpt lat="45.10728" lon="5.26714">
        <ele>247.8</ele>
        <time>2022-05-07T11:55:07.000Z</time>
      </trkpt>
      <trkpt lat="45.10726" lon="5.2671">
        <ele>247.9</ele>
        <time>2022-05-07T11:55:08.000Z</time>
      </trkpt>
      <trkpt lat="45.10725" lon="5.26706">
        <ele>247.9</ele>
        <time>2022-05-07T11:55:09.000Z</time>
      </trkpt>
      <trkpt lat="45.10723" lon="5.26703">
        <ele>248</ele>
        <time>2022-05-07T11:55:10.000Z</time>
      </trkpt>
      <trkpt lat="45.10722" lon="5.26699">
        <ele>248</ele>
        <time>2022-05-07T11:55:11.000Z</time>
      </trkpt>
      <trkpt lat="45.1072" lon="5.26695">
        <ele>248</ele>
        <time>2022-05-07T11:55:12.000Z</time>
      </trkpt>
      <trkpt lat="45.1072" lon="5.26692">
        <ele>248</ele>
        <time>2022-05-07T11:55:13.000Z</time>
      </trkpt>
      <trkpt lat="45.10719" lon="5.26689">
        <ele>248</ele>
        <time>2022-05-07T11:55:14.000Z</time>
      </trkpt>
      <trkpt lat="45.10718" lon="5.26685">
        <ele>248</ele>
        <time>2022-05-07T11:55:15.000Z</time>
      </trkpt>
      <trkpt lat="45.10717" lon="5.26682">
        <ele>248</ele>
        <time>2022-05-07T11:55:16.000Z</time>
      </trkpt>
      <trkpt lat="45.10716" lon="5.26679">
        <ele>248</ele>
        <time>2022-05-07T11:55:17.000Z</time>
      </trkpt>
      <trkpt lat="45.10716" lon="5.26676">
        <ele>248</ele>
        <time>2022-05-07T11:55:18.000Z</time>
      </trkpt>
      <trkpt lat="45.10715" lon="5.26673">
        <ele>248</ele>
        <time>2022-05-07T11:55:19.000Z</time>
      </trkpt>
      <trkpt lat="45.10714" lon="5.2667">
        <ele>248</ele>
        <time>2022-05-07T11:55:20.000Z</time>
      </trkpt>
      <trkpt lat="45.10713" lon="5.26668">
        <ele>248</ele>
        <time>2022-05-07T11:55:21.000Z</time>
      </trkpt>
      <trkpt lat="45.10713" lon="5.26665">
        <ele>247.9</ele>
        <time>2022-05-07T11:55:22.000Z</time>
      </trkpt>
      <trkpt lat="45.10711" lon="5.26662">
        <ele>247.9</ele>
        <time>2022-05-07T11:55:23.000Z</time>
      </trkpt>
      <trkpt lat="45.10711" lon="5.26659">
        <ele>247.8</ele>
        <time>2022-05-07T11:55:24.000Z</time>
      </trkpt>
      <trkpt lat="45.1071" lon="5.26655">
        <ele>247.8</ele>
        <time>2022-05-07T11:55:25.000Z</time>
      </trkpt>
      <trkpt lat="45.1071" lon="5.26651">
        <ele>247.7</ele>
        <time>2022-05-07T11:55:26.000Z</time>
      </trkpt>
      <trkpt lat="45.10709" lon="5.26648">
        <ele>247.6</ele>
        <time>2022-05-07T11:55:27.000Z</time>
      </trkpt>
      <trkpt lat="45.10709" lon="5.26645">
        <ele>247.6</ele>
        <time>2022-05-07T11:55:28.000Z</time>
      </trkpt>
      <trkpt lat="45.10708" lon="5.26642">
        <ele>247.6</ele>
        <time>2022-05-07T11:55:29.000Z</time>
      </trkpt>
      <trkpt lat="45.10707" lon="5.26639">
        <ele>247.5</ele>
        <time>2022-05-07T11:55:30.000Z</time>
      </trkpt>
      <trkpt lat="45.10706" lon="5.26636">
        <ele>247.6</ele>
        <time>2022-05-07T11:55:31.000Z</time>
      </trkpt>
      <trkpt lat="45.10706" lon="5.26631">
        <ele>247.6</ele>
        <time>2022-05-07T11:55:32.000Z</time>
      </trkpt>
      <trkpt lat="45.10705" lon="5.26626">
        <ele>247.6</ele>
        <time>2022-05-07T11:55:33.000Z</time>
      </trkpt>
      <trkpt lat="45.10704" lon="5.26621">
        <ele>247.7</ele>
        <time>2022-05-07T11:55:34.000Z</time>
      </trkpt>
      <trkpt lat="45.10703" lon="5.26616">
        <ele>247.7</ele>
        <time>2022-05-07T11:55:35.000Z</time>
      </trkpt>
      <trkpt lat="45.10703" lon="5.26612">
        <ele>247.7</ele>
        <time>2022-05-07T11:55:36.000Z</time>
      </trkpt>
      <trkpt lat="45.10702" lon="5.26608">
        <ele>247.7</ele>
        <time>2022-05-07T11:55:37.000Z</time>
      </trkpt>
      <trkpt lat="45.10701" lon="5.26603">
        <ele>247.8</ele>
        <time>2022-05-07T11:55:38.000Z</time>
      </trkpt>
      <trkpt lat="45.10701" lon="5.26599">
        <ele>247.8</ele>
        <time>2022-05-07T11:55:39.000Z</time>
      </trkpt>
      <trkpt lat="45.107" lon="5.26594">
        <ele>247.8</ele>
        <time>2022-05-07T11:55:40.000Z</time>
      </trkpt>
      <trkpt lat="45.10699" lon="5.26589">
        <ele>247.8</ele>
        <time>2022-05-07T11:55:41.000Z</time>
      </trkpt>
      <trkpt lat="45.10698" lon="5.26585">
        <ele>247.9</ele>
        <time>2022-05-07T11:55:42.000Z</time>
      </trkpt>
      <trkpt lat="45.10697" lon="5.2658">
        <ele>247.9</ele>
        <time>2022-05-07T11:55:43.000Z</time>
      </trkpt>
      <trkpt lat="45.10697" lon="5.26575">
        <ele>247.9</ele>
        <time>2022-05-07T11:55:44.000Z</time>
      </trkpt>
      <trkpt lat="45.10696" lon="5.2657">
        <ele>247.9</ele>
        <time>2022-05-07T11:55:45.000Z</time>
      </trkpt>
      <trkpt lat="45.10695" lon="5.26566">
        <ele>248</ele>
        <time>2022-05-07T11:55:46.000Z</time>
      </trkpt>
      <trkpt lat="45.10694" lon="5.26561">
        <ele>248</ele>
        <time>2022-05-07T11:55:47.000Z</time>
      </trkpt>
      <trkpt lat="45.10693" lon="5.26556">
        <ele>247.9</ele>
        <time>2022-05-07T11:55:48.000Z</time>
      </trkpt>
      <trkpt lat="45.10692" lon="5.26551">
        <ele>247.8</ele>
        <time>2022-05-07T11:55:49.000Z</time>
      </trkpt>
      <trkpt lat="45.10691" lon="5.26546">
        <ele>247.6</ele>
        <time>2022-05-07T11:55:50.000Z</time>
      </trkpt>
      <trkpt lat="45.1069" lon="5.26541">
        <ele>247.4</ele>
        <time>2022-05-07T11:55:51.000Z</time>
      </trkpt>
      <trkpt lat="45.10689" lon="5.26537">
        <ele>247.3</ele>
        <time>2022-05-07T11:55:52.000Z</time>
      </trkpt>
      <trkpt lat="45.10688" lon="5.26533">
        <ele>247.1</ele>
        <time>2022-05-07T11:55:53.000Z</time>
      </trkpt>
      <trkpt lat="45.10687" lon="5.26528">
        <ele>247</ele>
        <time>2022-05-07T11:55:54.000Z</time>
      </trkpt>
      <trkpt lat="45.10686" lon="5.26524">
        <ele>247</ele>
        <time>2022-05-07T11:55:55.000Z</time>
      </trkpt>
      <trkpt lat="45.10685" lon="5.2652">
        <ele>247</ele>
        <time>2022-05-07T11:55:56.000Z</time>
      </trkpt>
      <trkpt lat="45.10684" lon="5.26515">
        <ele>247</ele>
        <time>2022-05-07T11:55:57.000Z</time>
      </trkpt>
      <trkpt lat="45.10683" lon="5.26511">
        <ele>247</ele>
        <time>2022-05-07T11:55:58.000Z</time>
      </trkpt>
      <trkpt lat="45.10682" lon="5.26506">
        <ele>247</ele>
        <time>2022-05-07T11:55:59.000Z</time>
      </trkpt>
      <trkpt lat="45.10682" lon="5.26502">
        <ele>247</ele>
        <time>2022-05-07T11:56:00.000Z</time>
      </trkpt>
      <trkpt lat="45.1068" lon="5.26497">
        <ele>247</ele>
        <time>2022-05-07T11:56:01.000Z</time>
      </trkpt>
      <trkpt lat="45.1068" lon="5.26493">
        <ele>247</ele>
        <time>2022-05-07T11:56:02.000Z</time>
      </trkpt>
      <trkpt lat="45.10679" lon="5.26488">
        <ele>247</ele>
        <time>2022-05-07T11:56:03.000Z</time>
      </trkpt>
      <trkpt lat="45.10678" lon="5.26484">
        <ele>247</ele>
        <time>2022-05-07T11:56:04.000Z</time>
      </trkpt>
      <trkpt lat="45.10677" lon="5.2648">
        <ele>247</ele>
        <time>2022-05-07T11:56:05.000Z</time>
      </trkpt>
      <trkpt lat="45.10676" lon="5.26476">
        <ele>247</ele>
        <time>2022-05-07T11:56:06.000Z</time>
      </trkpt>
      <trkpt lat="45.10675" lon="5.26472">
        <ele>247</ele>
        <time>2022-05-07T11:56:07.000Z</time>
      </trkpt>
      <trkpt lat="45.10675" lon="5.26468">
        <ele>247.1</ele>
        <time>2022-05-07T11:56:08.000Z</time>
      </trkpt>
      <trkpt lat="45.10673" lon="5.26463">
        <ele>247.3</ele>
        <time>2022-05-07T11:56:09.000Z</time>
      </trkpt>
      <trkpt lat="45.10672" lon="5.26458">
        <ele>247.4</ele>
        <time>2022-05-07T11:56:10.000Z</time>
      </trkpt>
      <trkpt lat="45.10671" lon="5.26453">
        <ele>247.6</ele>
        <time>2022-05-07T11:56:11.000Z</time>
      </trkpt>
      <trkpt lat="45.1067" lon="5.26447">
        <ele>247.8</ele>
        <time>2022-05-07T11:56:12.000Z</time>
      </trkpt>
      <trkpt lat="45.10669" lon="5.26442">
        <ele>247.9</ele>
        <time>2022-05-07T11:56:13.000Z</time>
      </trkpt>
      <trkpt lat="45.10668" lon="5.26437">
        <ele>247.7</ele>
        <time>2022-05-07T11:56:14.000Z</time>
      </trkpt>
      <trkpt lat="45.10667" lon="5.26432">
        <ele>247.5</ele>
        <time>2022-05-07T11:56:15.000Z</time>
      </trkpt>
      <trkpt lat="45.10666" lon="5.26427">
        <ele>247.4</ele>
        <time>2022-05-07T11:56:16.000Z</time>
      </trkpt>
      <trkpt lat="45.10666" lon="5.26423">
        <ele>247.2</ele>
        <time>2022-05-07T11:56:17.000Z</time>
      </trkpt>
      <trkpt lat="45.10665" lon="5.26418">
        <ele>247</ele>
        <time>2022-05-07T11:56:18.000Z</time>
      </trkpt>
      <trkpt lat="45.10664" lon="5.26414">
        <ele>246.9</ele>
        <time>2022-05-07T11:56:19.000Z</time>
      </trkpt>
      <trkpt lat="45.10663" lon="5.26409">
        <ele>246.9</ele>
        <time>2022-05-07T11:56:20.000Z</time>
      </trkpt>
      <trkpt lat="45.10662" lon="5.26404">
        <ele>246.8</ele>
        <time>2022-05-07T11:56:21.000Z</time>
      </trkpt>
      <trkpt lat="45.10661" lon="5.26399">
        <ele>246.8</ele>
        <time>2022-05-07T11:56:22.000Z</time>
      </trkpt>
      <trkpt lat="45.1066" lon="5.26394">
        <ele>246.8</ele>
        <time>2022-05-07T11:56:23.000Z</time>
      </trkpt>
      <trkpt lat="45.10659" lon="5.26389">
        <ele>246.7</ele>
        <time>2022-05-07T11:56:24.000Z</time>
      </trkpt>
      <trkpt lat="45.10658" lon="5.26385">
        <ele>246.7</ele>
        <time>2022-05-07T11:56:25.000Z</time>
      </trkpt>
      <trkpt lat="45.10657" lon="5.2638">
        <ele>246.7</ele>
        <time>2022-05-07T11:56:26.000Z</time>
      </trkpt>
      <trkpt lat="45.10657" lon="5.26376">
        <ele>246.6</ele>
        <time>2022-05-07T11:56:27.000Z</time>
      </trkpt>
      <trkpt lat="45.10656" lon="5.26371">
        <ele>246.6</ele>
        <time>2022-05-07T11:56:28.000Z</time>
      </trkpt>
      <trkpt lat="45.10655" lon="5.26367">
        <ele>246.6</ele>
        <time>2022-05-07T11:56:29.000Z</time>
      </trkpt>
      <trkpt lat="45.10654" lon="5.26362">
        <ele>246.5</ele>
        <time>2022-05-07T11:56:30.000Z</time>
      </trkpt>
      <trkpt lat="45.10653" lon="5.26358">
        <ele>246.5</ele>
        <time>2022-05-07T11:56:31.000Z</time>
      </trkpt>
      <trkpt lat="45.10652" lon="5.26354">
        <ele>246.5</ele>
        <time>2022-05-07T11:56:32.000Z</time>
      </trkpt>
      <trkpt lat="45.10651" lon="5.2635">
        <ele>246.4</ele>
        <time>2022-05-07T11:56:33.000Z</time>
      </trkpt>
      <trkpt lat="45.1065" lon="5.26346">
        <ele>246.4</ele>
        <time>2022-05-07T11:56:34.000Z</time>
      </trkpt>
      <trkpt lat="45.10649" lon="5.26342">
        <ele>246.4</ele>
        <time>2022-05-07T11:56:35.000Z</time>
      </trkpt>
      <trkpt lat="45.10648" lon="5.26337">
        <ele>246.3</ele>
        <time>2022-05-07T11:56:36.000Z</time>
      </trkpt>
      <trkpt lat="45.10648" lon="5.26334">
        <ele>246.3</ele>
        <time>2022-05-07T11:56:37.000Z</time>
      </trkpt>
      <trkpt lat="45.10647" lon="5.2633">
        <ele>246.4</ele>
        <time>2022-05-07T11:56:38.000Z</time>
      </trkpt>
      <trkpt lat="45.10647" lon="5.26326">
        <ele>246.5</ele>
        <time>2022-05-07T11:56:39.000Z</time>
      </trkpt>
      <trkpt lat="45.10646" lon="5.26322">
        <ele>246.6</ele>
        <time>2022-05-07T11:56:40.000Z</time>
      </trkpt>
      <trkpt lat="45.10645" lon="5.26318">
        <ele>246.7</ele>
        <time>2022-05-07T11:56:41.000Z</time>
      </trkpt>
      <trkpt lat="45.10644" lon="5.26314">
        <ele>246.8</ele>
        <time>2022-05-07T11:56:42.000Z</time>
      </trkpt>
      <trkpt lat="45.10643" lon="5.26309">
        <ele>246.9</ele>
        <time>2022-05-07T11:56:43.000Z</time>
      </trkpt>
      <trkpt lat="45.10642" lon="5.26305">
        <ele>247</ele>
        <time>2022-05-07T11:56:44.000Z</time>
      </trkpt>
      <trkpt lat="45.10641" lon="5.26301">
        <ele>247</ele>
        <time>2022-05-07T11:56:45.000Z</time>
      </trkpt>
      <trkpt lat="45.1064" lon="5.26297">
        <ele>247</ele>
        <time>2022-05-07T11:56:46.000Z</time>
      </trkpt>
      <trkpt lat="45.1064" lon="5.26294">
        <ele>247</ele>
        <time>2022-05-07T11:56:47.000Z</time>
      </trkpt>
      <trkpt lat="45.10639" lon="5.2629">
        <ele>247</ele>
        <time>2022-05-07T11:56:48.000Z</time>
      </trkpt>
      <trkpt lat="45.10638" lon="5.26285">
        <ele>246.9</ele>
        <time>2022-05-07T11:56:49.000Z</time>
      </trkpt>
      <trkpt lat="45.10637" lon="5.2628">
        <ele>246.9</ele>
        <time>2022-05-07T11:56:50.000Z</time>
      </trkpt>
      <trkpt lat="45.10636" lon="5.26274">
        <ele>246.8</ele>
        <time>2022-05-07T11:56:51.000Z</time>
      </trkpt>
      <trkpt lat="45.10635" lon="5.26268">
        <ele>246.7</ele>
        <time>2022-05-07T11:56:52.000Z</time>
      </trkpt>
      <trkpt lat="45.10634" lon="5.26263">
        <ele>246.6</ele>
        <time>2022-05-07T11:56:53.000Z</time>
      </trkpt>
      <trkpt lat="45.10633" lon="5.26257">
        <ele>246.6</ele>
        <time>2022-05-07T11:56:54.000Z</time>
      </trkpt>
      <trkpt lat="45.10632" lon="5.26251">
        <ele>246.5</ele>
        <time>2022-05-07T11:56:55.000Z</time>
      </trkpt>
      <trkpt lat="45.10631" lon="5.26246">
        <ele>246.5</ele>
        <time>2022-05-07T11:56:56.000Z</time>
      </trkpt>
      <trkpt lat="45.10629" lon="5.2624">
        <ele>246.4</ele>
        <time>2022-05-07T11:56:57.000Z</time>
      </trkpt>
      <trkpt lat="45.10628" lon="5.26235">
        <ele>246.4</ele>
        <time>2022-05-07T11:56:58.000Z</time>
      </trkpt>
      <trkpt lat="45.10628" lon="5.2623">
        <ele>246.5</ele>
        <time>2022-05-07T11:56:59.000Z</time>
      </trkpt>
      <trkpt lat="45.10626" lon="5.26225">
        <ele>246.5</ele>
        <time>2022-05-07T11:57:00.000Z</time>
      </trkpt>
      <trkpt lat="45.10625" lon="5.2622">
        <ele>246.5</ele>
        <time>2022-05-07T11:57:01.000Z</time>
      </trkpt>
      <trkpt lat="45.10624" lon="5.26215">
        <ele>246.5</ele>
        <time>2022-05-07T11:57:02.000Z</time>
      </trkpt>
      <trkpt lat="45.10623" lon="5.26209">
        <ele>246.4</ele>
        <time>2022-05-07T11:57:03.000Z</time>
      </trkpt>
      <trkpt lat="45.10622" lon="5.26203">
        <ele>246.4</ele>
        <time>2022-05-07T11:57:04.000Z</time>
      </trkpt>
      <trkpt lat="45.1062" lon="5.26198">
        <ele>246.3</ele>
        <time>2022-05-07T11:57:05.000Z</time>
      </trkpt>
      <trkpt lat="45.10618" lon="5.26192">
        <ele>246.3</ele>
        <time>2022-05-07T11:57:06.000Z</time>
      </trkpt>
      <trkpt lat="45.10617" lon="5.26186">
        <ele>246.5</ele>
        <time>2022-05-07T11:57:07.000Z</time>
      </trkpt>
      <trkpt lat="45.10615" lon="5.26179">
        <ele>246.6</ele>
        <time>2022-05-07T11:57:08.000Z</time>
      </trkpt>
      <trkpt lat="45.10613" lon="5.26173">
        <ele>246.8</ele>
        <time>2022-05-07T11:57:09.000Z</time>
      </trkpt>
      <trkpt lat="45.10612" lon="5.26167">
        <ele>247</ele>
        <time>2022-05-07T11:57:10.000Z</time>
      </trkpt>
      <trkpt lat="45.1061" lon="5.2616">
        <ele>246.7</ele>
        <time>2022-05-07T11:57:11.000Z</time>
      </trkpt>
      <trkpt lat="45.10608" lon="5.26154">
        <ele>246.3</ele>
        <time>2022-05-07T11:57:12.000Z</time>
      </trkpt>
      <trkpt lat="45.10606" lon="5.26147">
        <ele>246.1</ele>
        <time>2022-05-07T11:57:13.000Z</time>
      </trkpt>
      <trkpt lat="45.10604" lon="5.26141">
        <ele>245.8</ele>
        <time>2022-05-07T11:57:14.000Z</time>
      </trkpt>
      <trkpt lat="45.10602" lon="5.26134">
        <ele>245.7</ele>
        <time>2022-05-07T11:57:15.000Z</time>
      </trkpt>
      <trkpt lat="45.106" lon="5.26129">
        <ele>245.6</ele>
        <time>2022-05-07T11:57:16.000Z</time>
      </trkpt>
      <trkpt lat="45.10598" lon="5.26123">
        <ele>245.5</ele>
        <time>2022-05-07T11:57:17.000Z</time>
      </trkpt>
      <trkpt lat="45.10596" lon="5.26117">
        <ele>245.5</ele>
        <time>2022-05-07T11:57:18.000Z</time>
      </trkpt>
      <trkpt lat="45.10595" lon="5.26111">
        <ele>245.4</ele>
        <time>2022-05-07T11:57:19.000Z</time>
      </trkpt>
      <trkpt lat="45.10593" lon="5.26105">
        <ele>245.5</ele>
        <time>2022-05-07T11:57:20.000Z</time>
      </trkpt>
      <trkpt lat="45.1059" lon="5.26098">
        <ele>245.6</ele>
        <time>2022-05-07T11:57:21.000Z</time>
      </trkpt>
      <trkpt lat="45.10589" lon="5.26094">
        <ele>245.7</ele>
        <time>2022-05-07T11:57:22.000Z</time>
      </trkpt>
      <trkpt lat="45.10587" lon="5.26088">
        <ele>245.9</ele>
        <time>2022-05-07T11:57:23.000Z</time>
      </trkpt>
      <trkpt lat="45.10586" lon="5.26082">
        <ele>246</ele>
        <time>2022-05-07T11:57:24.000Z</time>
      </trkpt>
      <trkpt lat="45.10584" lon="5.26076">
        <ele>246</ele>
        <time>2022-05-07T11:57:25.000Z</time>
      </trkpt>
      <trkpt lat="45.10581" lon="5.2607">
        <ele>245.9</ele>
        <time>2022-05-07T11:57:26.000Z</time>
      </trkpt>
      <trkpt lat="45.10579" lon="5.26064">
        <ele>245.7</ele>
        <time>2022-05-07T11:57:27.000Z</time>
      </trkpt>
      <trkpt lat="45.10577" lon="5.26059">
        <ele>245.5</ele>
        <time>2022-05-07T11:57:28.000Z</time>
      </trkpt>
      <trkpt lat="45.10574" lon="5.26053">
        <ele>245.4</ele>
        <time>2022-05-07T11:57:29.000Z</time>
      </trkpt>
      <trkpt lat="45.10572" lon="5.26047">
        <ele>245.3</ele>
        <time>2022-05-07T11:57:30.000Z</time>
      </trkpt>
      <trkpt lat="45.1057" lon="5.26041">
        <ele>245.3</ele>
        <time>2022-05-07T11:57:31.000Z</time>
      </trkpt>
      <trkpt lat="45.10569" lon="5.26034">
        <ele>245.4</ele>
        <time>2022-05-07T11:57:32.000Z</time>
      </trkpt>
      <trkpt lat="45.10567" lon="5.26027">
        <ele>245.4</ele>
        <time>2022-05-07T11:57:33.000Z</time>
      </trkpt>
      <trkpt lat="45.10565" lon="5.26021">
        <ele>245.3</ele>
        <time>2022-05-07T11:57:34.000Z</time>
      </trkpt>
      <trkpt lat="45.10562" lon="5.26015">
        <ele>245.2</ele>
        <time>2022-05-07T11:57:35.000Z</time>
      </trkpt>
      <trkpt lat="45.1056" lon="5.26008">
        <ele>245.2</ele>
        <time>2022-05-07T11:57:36.000Z</time>
      </trkpt>
      <trkpt lat="45.10558" lon="5.26002">
        <ele>245.1</ele>
        <time>2022-05-07T11:57:37.000Z</time>
      </trkpt>
      <trkpt lat="45.10554" lon="5.25996">
        <ele>245.1</ele>
        <time>2022-05-07T11:57:38.000Z</time>
      </trkpt>
      <trkpt lat="45.10552" lon="5.25991">
        <ele>245.2</ele>
        <time>2022-05-07T11:57:39.000Z</time>
      </trkpt>
      <trkpt lat="45.10551" lon="5.25985">
        <ele>245.3</ele>
        <time>2022-05-07T11:57:40.000Z</time>
      </trkpt>
      <trkpt lat="45.1055" lon="5.25979">
        <ele>245.4</ele>
        <time>2022-05-07T11:57:41.000Z</time>
      </trkpt>
      <trkpt lat="45.10549" lon="5.25973">
        <ele>245.5</ele>
        <time>2022-05-07T11:57:42.000Z</time>
      </trkpt>
      <trkpt lat="45.10547" lon="5.25968">
        <ele>245.3</ele>
        <time>2022-05-07T11:57:43.000Z</time>
      </trkpt>
      <trkpt lat="45.10545" lon="5.25962">
        <ele>245</ele>
        <time>2022-05-07T11:57:44.000Z</time>
      </trkpt>
      <trkpt lat="45.10543" lon="5.25957">
        <ele>244.8</ele>
        <time>2022-05-07T11:57:45.000Z</time>
      </trkpt>
      <trkpt lat="45.10541" lon="5.25951">
        <ele>244.6</ele>
        <time>2022-05-07T11:57:46.000Z</time>
      </trkpt>
      <trkpt lat="45.1054" lon="5.25946">
        <ele>244.4</ele>
        <time>2022-05-07T11:57:47.000Z</time>
      </trkpt>
      <trkpt lat="45.10538" lon="5.2594">
        <ele>244.4</ele>
        <time>2022-05-07T11:57:48.000Z</time>
      </trkpt>
      <trkpt lat="45.10537" lon="5.25935">
        <ele>244.3</ele>
        <time>2022-05-07T11:57:49.000Z</time>
      </trkpt>
      <trkpt lat="45.10535" lon="5.2593">
        <ele>244.3</ele>
        <time>2022-05-07T11:57:50.000Z</time>
      </trkpt>
      <trkpt lat="45.10533" lon="5.25926">
        <ele>244.2</ele>
        <time>2022-05-07T11:57:51.000Z</time>
      </trkpt>
      <trkpt lat="45.10532" lon="5.25921">
        <ele>244.1</ele>
        <time>2022-05-07T11:57:52.000Z</time>
      </trkpt>
      <trkpt lat="45.1053" lon="5.25915">
        <ele>244.1</ele>
        <time>2022-05-07T11:57:53.000Z</time>
      </trkpt>
      <trkpt lat="45.10529" lon="5.2591">
        <ele>244.3</ele>
        <time>2022-05-07T11:57:54.000Z</time>
      </trkpt>
      <trkpt lat="45.10527" lon="5.25905">
        <ele>244.4</ele>
        <time>2022-05-07T11:57:55.000Z</time>
      </trkpt>
      <trkpt lat="45.10526" lon="5.259">
        <ele>244.6</ele>
        <time>2022-05-07T11:57:56.000Z</time>
      </trkpt>
      <trkpt lat="45.10525" lon="5.25895">
        <ele>244.7</ele>
        <time>2022-05-07T11:57:57.000Z</time>
      </trkpt>
      <trkpt lat="45.10523" lon="5.2589">
        <ele>244.8</ele>
        <time>2022-05-07T11:57:58.000Z</time>
      </trkpt>
      <trkpt lat="45.10522" lon="5.25885">
        <ele>244.8</ele>
        <time>2022-05-07T11:57:59.000Z</time>
      </trkpt>
      <trkpt lat="45.1052" lon="5.2588">
        <ele>244.7</ele>
        <time>2022-05-07T11:58:00.000Z</time>
      </trkpt>
      <trkpt lat="45.10518" lon="5.25875">
        <ele>244.6</ele>
        <time>2022-05-07T11:58:01.000Z</time>
      </trkpt>
      <trkpt lat="45.10514" lon="5.2587">
        <ele>244.5</ele>
        <time>2022-05-07T11:58:02.000Z</time>
      </trkpt>
      <trkpt lat="45.1051" lon="5.25867">
        <ele>244.4</ele>
        <time>2022-05-07T11:58:03.000Z</time>
      </trkpt>
      <trkpt lat="45.10505" lon="5.25863">
        <ele>244.2</ele>
        <time>2022-05-07T11:58:04.000Z</time>
      </trkpt>
      <trkpt lat="45.105" lon="5.2586">
        <ele>244</ele>
        <time>2022-05-07T11:58:05.000Z</time>
      </trkpt>
      <trkpt lat="45.10495" lon="5.25857">
        <ele>244</ele>
        <time>2022-05-07T11:58:06.000Z</time>
      </trkpt>
      <trkpt lat="45.10489" lon="5.25855">
        <ele>244</ele>
        <time>2022-05-07T11:58:07.000Z</time>
      </trkpt>
      <trkpt lat="45.10484" lon="5.25853">
        <ele>244</ele>
        <time>2022-05-07T11:58:08.000Z</time>
      </trkpt>
      <trkpt lat="45.10479" lon="5.25851">
        <ele>244</ele>
        <time>2022-05-07T11:58:09.000Z</time>
      </trkpt>
      <trkpt lat="45.10475" lon="5.25848">
        <ele>244</ele>
        <time>2022-05-07T11:58:10.000Z</time>
      </trkpt>
      <trkpt lat="45.1047" lon="5.25846">
        <ele>244</ele>
        <time>2022-05-07T11:58:11.000Z</time>
      </trkpt>
      <trkpt lat="45.10465" lon="5.25843">
        <ele>244</ele>
        <time>2022-05-07T11:58:12.000Z</time>
      </trkpt>
      <trkpt lat="45.1046" lon="5.25841">
        <ele>244</ele>
        <time>2022-05-07T11:58:13.000Z</time>
      </trkpt>
      <trkpt lat="45.10455" lon="5.25839">
        <ele>244</ele>
        <time>2022-05-07T11:58:14.000Z</time>
      </trkpt>
      <trkpt lat="45.10451" lon="5.25836">
        <ele>244</ele>
        <time>2022-05-07T11:58:15.000Z</time>
      </trkpt>
      <trkpt lat="45.10447" lon="5.25833">
        <ele>244</ele>
        <time>2022-05-07T11:58:16.000Z</time>
      </trkpt>
      <trkpt lat="45.10442" lon="5.25831">
        <ele>243.9</ele>
        <time>2022-05-07T11:58:17.000Z</time>
      </trkpt>
      <trkpt lat="45.10438" lon="5.2583">
        <ele>243.9</ele>
        <time>2022-05-07T11:58:18.000Z</time>
      </trkpt>
      <trkpt lat="45.10434" lon="5.25828">
        <ele>243.9</ele>
        <time>2022-05-07T11:58:19.000Z</time>
      </trkpt>
      <trkpt lat="45.1043" lon="5.25827">
        <ele>243.9</ele>
        <time>2022-05-07T11:58:20.000Z</time>
      </trkpt>
      <trkpt lat="45.10426" lon="5.25825">
        <ele>243.9</ele>
        <time>2022-05-07T11:58:21.000Z</time>
      </trkpt>
      <trkpt lat="45.10422" lon="5.25823">
        <ele>243.9</ele>
        <time>2022-05-07T11:58:22.000Z</time>
      </trkpt>
      <trkpt lat="45.10418" lon="5.25822">
        <ele>244</ele>
        <time>2022-05-07T11:58:23.000Z</time>
      </trkpt>
      <trkpt lat="45.10414" lon="5.2582">
        <ele>244</ele>
        <time>2022-05-07T11:58:24.000Z</time>
      </trkpt>
      <trkpt lat="45.1041" lon="5.25818">
        <ele>244</ele>
        <time>2022-05-07T11:58:25.000Z</time>
      </trkpt>
      <trkpt lat="45.10406" lon="5.25815">
        <ele>244</ele>
        <time>2022-05-07T11:58:26.000Z</time>
      </trkpt>
      <trkpt lat="45.10401" lon="5.25814">
        <ele>244</ele>
        <time>2022-05-07T11:58:27.000Z</time>
      </trkpt>
      <trkpt lat="45.10397" lon="5.25812">
        <ele>244</ele>
        <time>2022-05-07T11:58:28.000Z</time>
      </trkpt>
      <trkpt lat="45.10392" lon="5.2581">
        <ele>244</ele>
        <time>2022-05-07T11:58:29.000Z</time>
      </trkpt>
      <trkpt lat="45.10387" lon="5.25808">
        <ele>244</ele>
        <time>2022-05-07T11:58:30.000Z</time>
      </trkpt>
      <trkpt lat="45.10382" lon="5.25807">
        <ele>244</ele>
        <time>2022-05-07T11:58:31.000Z</time>
      </trkpt>
      <trkpt lat="45.10377" lon="5.25806">
        <ele>244</ele>
        <time>2022-05-07T11:58:32.000Z</time>
      </trkpt>
      <trkpt lat="45.10372" lon="5.25805">
        <ele>244</ele>
        <time>2022-05-07T11:58:33.000Z</time>
      </trkpt>
      <trkpt lat="45.10368" lon="5.25805">
        <ele>244</ele>
        <time>2022-05-07T11:58:34.000Z</time>
      </trkpt>
      <trkpt lat="45.10363" lon="5.25806">
        <ele>244</ele>
        <time>2022-05-07T11:58:35.000Z</time>
      </trkpt>
      <trkpt lat="45.10357" lon="5.25805">
        <ele>244</ele>
        <time>2022-05-07T11:58:36.000Z</time>
      </trkpt>
      <trkpt lat="45.10352" lon="5.25805">
        <ele>244</ele>
        <time>2022-05-07T11:58:37.000Z</time>
      </trkpt>
      <trkpt lat="45.10347" lon="5.25806">
        <ele>244</ele>
        <time>2022-05-07T11:58:38.000Z</time>
      </trkpt>
      <trkpt lat="45.10341" lon="5.25806">
        <ele>244</ele>
        <time>2022-05-07T11:58:39.000Z</time>
      </trkpt>
      <trkpt lat="45.10335" lon="5.25807">
        <ele>244</ele>
        <time>2022-05-07T11:58:40.000Z</time>
      </trkpt>
      <trkpt lat="45.10329" lon="5.25807">
        <ele>244</ele>
        <time>2022-05-07T11:58:41.000Z</time>
      </trkpt>
      <trkpt lat="45.10323" lon="5.25807">
        <ele>244</ele>
        <time>2022-05-07T11:58:42.000Z</time>
      </trkpt>
      <trkpt lat="45.10317" lon="5.25808">
        <ele>244</ele>
        <time>2022-05-07T11:58:43.000Z</time>
      </trkpt>
      <trkpt lat="45.1031" lon="5.25809">
        <ele>244</ele>
        <time>2022-05-07T11:58:44.000Z</time>
      </trkpt>
      <trkpt lat="45.10304" lon="5.2581">
        <ele>244</ele>
        <time>2022-05-07T11:58:45.000Z</time>
      </trkpt>
      <trkpt lat="45.10298" lon="5.25811">
        <ele>244</ele>
        <time>2022-05-07T11:58:46.000Z</time>
      </trkpt>
      <trkpt lat="45.10292" lon="5.25812">
        <ele>244</ele>
        <time>2022-05-07T11:58:47.000Z</time>
      </trkpt>
      <trkpt lat="45.10286" lon="5.25813">
        <ele>244</ele>
        <time>2022-05-07T11:58:48.000Z</time>
      </trkpt>
      <trkpt lat="45.1028" lon="5.25814">
        <ele>244</ele>
        <time>2022-05-07T11:58:49.000Z</time>
      </trkpt>
      <trkpt lat="45.10274" lon="5.25815">
        <ele>244</ele>
        <time>2022-05-07T11:58:50.000Z</time>
      </trkpt>
      <trkpt lat="45.10269" lon="5.25816">
        <ele>244</ele>
        <time>2022-05-07T11:58:51.000Z</time>
      </trkpt>
      <trkpt lat="45.10263" lon="5.25816">
        <ele>244</ele>
        <time>2022-05-07T11:58:52.000Z</time>
      </trkpt>
      <trkpt lat="45.10258" lon="5.25817">
        <ele>244</ele>
        <time>2022-05-07T11:58:53.000Z</time>
      </trkpt>
      <trkpt lat="45.10253" lon="5.25818">
        <ele>244</ele>
        <time>2022-05-07T11:58:54.000Z</time>
      </trkpt>
      <trkpt lat="45.10247" lon="5.25819">
        <ele>244</ele>
        <time>2022-05-07T11:58:55.000Z</time>
      </trkpt>
      <trkpt lat="45.10242" lon="5.2582">
        <ele>244</ele>
        <time>2022-05-07T11:58:56.000Z</time>
      </trkpt>
      <trkpt lat="45.10237" lon="5.25821">
        <ele>244</ele>
        <time>2022-05-07T11:58:57.000Z</time>
      </trkpt>
      <trkpt lat="45.10231" lon="5.25822">
        <ele>244</ele>
        <time>2022-05-07T11:58:58.000Z</time>
      </trkpt>
      <trkpt lat="45.10226" lon="5.25823">
        <ele>244</ele>
        <time>2022-05-07T11:58:59.000Z</time>
      </trkpt>
      <trkpt lat="45.10221" lon="5.25824">
        <ele>244</ele>
        <time>2022-05-07T11:59:00.000Z</time>
      </trkpt>
      <trkpt lat="45.10216" lon="5.25825">
        <ele>244.2</ele>
        <time>2022-05-07T11:59:01.000Z</time>
      </trkpt>
      <trkpt lat="45.10211" lon="5.25825">
        <ele>244.3</ele>
        <time>2022-05-07T11:59:02.000Z</time>
      </trkpt>
      <trkpt lat="45.10205" lon="5.25825">
        <ele>244.4</ele>
        <time>2022-05-07T11:59:03.000Z</time>
      </trkpt>
      <trkpt lat="45.10199" lon="5.25825">
        <ele>244.6</ele>
        <time>2022-05-07T11:59:04.000Z</time>
      </trkpt>
      <trkpt lat="45.10193" lon="5.25824">
        <ele>244.6</ele>
        <time>2022-05-07T11:59:05.000Z</time>
      </trkpt>
      <trkpt lat="45.10187" lon="5.25823">
        <ele>244.5</ele>
        <time>2022-05-07T11:59:06.000Z</time>
      </trkpt>
      <trkpt lat="45.10182" lon="5.25821">
        <ele>244.3</ele>
        <time>2022-05-07T11:59:07.000Z</time>
      </trkpt>
      <trkpt lat="45.10176" lon="5.25818">
        <ele>244.2</ele>
        <time>2022-05-07T11:59:08.000Z</time>
      </trkpt>
      <trkpt lat="45.10171" lon="5.25816">
        <ele>244.1</ele>
        <time>2022-05-07T11:59:09.000Z</time>
      </trkpt>
      <trkpt lat="45.10166" lon="5.25813">
        <ele>244</ele>
        <time>2022-05-07T11:59:10.000Z</time>
      </trkpt>
      <trkpt lat="45.10162" lon="5.25809">
        <ele>243.8</ele>
        <time>2022-05-07T11:59:11.000Z</time>
      </trkpt>
      <trkpt lat="45.10157" lon="5.25806">
        <ele>243.6</ele>
        <time>2022-05-07T11:59:12.000Z</time>
      </trkpt>
      <trkpt lat="45.10152" lon="5.25802">
        <ele>243.5</ele>
        <time>2022-05-07T11:59:13.000Z</time>
      </trkpt>
      <trkpt lat="45.10146" lon="5.25797">
        <ele>243.2</ele>
        <time>2022-05-07T11:59:14.000Z</time>
      </trkpt>
      <trkpt lat="45.1014" lon="5.25794">
        <ele>243</ele>
        <time>2022-05-07T11:59:15.000Z</time>
      </trkpt>
      <trkpt lat="45.10135" lon="5.2579">
        <ele>242.8</ele>
        <time>2022-05-07T11:59:16.000Z</time>
      </trkpt>
      <trkpt lat="45.10129" lon="5.25786">
        <ele>242.7</ele>
        <time>2022-05-07T11:59:17.000Z</time>
      </trkpt>
      <trkpt lat="45.10124" lon="5.25782">
        <ele>242.5</ele>
        <time>2022-05-07T11:59:18.000Z</time>
      </trkpt>
      <trkpt lat="45.10118" lon="5.25778">
        <ele>242.2</ele>
        <time>2022-05-07T11:59:19.000Z</time>
      </trkpt>
      <trkpt lat="45.10112" lon="5.25774">
        <ele>242</ele>
        <time>2022-05-07T11:59:20.000Z</time>
      </trkpt>
      <trkpt lat="45.10106" lon="5.2577">
        <ele>242</ele>
        <time>2022-05-07T11:59:21.000Z</time>
      </trkpt>
      <trkpt lat="45.10101" lon="5.25767">
        <ele>242</ele>
        <time>2022-05-07T11:59:22.000Z</time>
      </trkpt>
      <trkpt lat="45.10095" lon="5.25764">
        <ele>242</ele>
        <time>2022-05-07T11:59:23.000Z</time>
      </trkpt>
      <trkpt lat="45.10089" lon="5.25761">
        <ele>242</ele>
        <time>2022-05-07T11:59:24.000Z</time>
      </trkpt>
      <trkpt lat="45.10083" lon="5.25757">
        <ele>242</ele>
        <time>2022-05-07T11:59:25.000Z</time>
      </trkpt>
      <trkpt lat="45.10078" lon="5.25753">
        <ele>241.8</ele>
        <time>2022-05-07T11:59:26.000Z</time>
      </trkpt>
      <trkpt lat="45.10072" lon="5.25748">
        <ele>241.6</ele>
        <time>2022-05-07T11:59:27.000Z</time>
      </trkpt>
      <trkpt lat="45.10067" lon="5.25743">
        <ele>241.4</ele>
        <time>2022-05-07T11:59:28.000Z</time>
      </trkpt>
      <trkpt lat="45.10062" lon="5.25738">
        <ele>241.2</ele>
        <time>2022-05-07T11:59:29.000Z</time>
      </trkpt>
      <trkpt lat="45.10057" lon="5.25732">
        <ele>241.1</ele>
        <time>2022-05-07T11:59:30.000Z</time>
      </trkpt>
      <trkpt lat="45.10053" lon="5.25726">
        <ele>241</ele>
        <time>2022-05-07T11:59:31.000Z</time>
      </trkpt>
      <trkpt lat="45.10048" lon="5.25721">
        <ele>241</ele>
        <time>2022-05-07T11:59:32.000Z</time>
      </trkpt>
      <trkpt lat="45.10044" lon="5.25715">
        <ele>241</ele>
        <time>2022-05-07T11:59:33.000Z</time>
      </trkpt>
      <trkpt lat="45.10039" lon="5.25709">
        <ele>241</ele>
        <time>2022-05-07T11:59:34.000Z</time>
      </trkpt>
      <trkpt lat="45.10035" lon="5.25703">
        <ele>241</ele>
        <time>2022-05-07T11:59:35.000Z</time>
      </trkpt>
      <trkpt lat="45.10031" lon="5.25697">
        <ele>241</ele>
        <time>2022-05-07T11:59:36.000Z</time>
      </trkpt>
      <trkpt lat="45.10026" lon="5.2569">
        <ele>241</ele>
        <time>2022-05-07T11:59:37.000Z</time>
      </trkpt>
      <trkpt lat="45.10022" lon="5.25684">
        <ele>240.9</ele>
        <time>2022-05-07T11:59:38.000Z</time>
      </trkpt>
      <trkpt lat="45.10018" lon="5.25678">
        <ele>240.8</ele>
        <time>2022-05-07T11:59:39.000Z</time>
      </trkpt>
      <trkpt lat="45.10014" lon="5.25671">
        <ele>240.6</ele>
        <time>2022-05-07T11:59:40.000Z</time>
      </trkpt>
      <trkpt lat="45.10009" lon="5.25665">
        <ele>240.3</ele>
        <time>2022-05-07T11:59:41.000Z</time>
      </trkpt>
      <trkpt lat="45.10005" lon="5.2566">
        <ele>240.2</ele>
        <time>2022-05-07T11:59:42.000Z</time>
      </trkpt>
      <trkpt lat="45.1" lon="5.25655">
        <ele>240</ele>
        <time>2022-05-07T11:59:43.000Z</time>
      </trkpt>
      <trkpt lat="45.09995" lon="5.25649">
        <ele>240</ele>
        <time>2022-05-07T11:59:44.000Z</time>
      </trkpt>
      <trkpt lat="45.0999" lon="5.25645">
        <ele>239.8</ele>
        <time>2022-05-07T11:59:45.000Z</time>
      </trkpt>
      <trkpt lat="45.09985" lon="5.25641">
        <ele>239.5</ele>
        <time>2022-05-07T11:59:46.000Z</time>
      </trkpt>
      <trkpt lat="45.0998" lon="5.25636">
        <ele>239.3</ele>
        <time>2022-05-07T11:59:47.000Z</time>
      </trkpt>
      <trkpt lat="45.09974" lon="5.25631">
        <ele>239.1</ele>
        <time>2022-05-07T11:59:48.000Z</time>
      </trkpt>
      <trkpt lat="45.09968" lon="5.25625">
        <ele>238.9</ele>
        <time>2022-05-07T11:59:49.000Z</time>
      </trkpt>
      <trkpt lat="45.09962" lon="5.25619">
        <ele>238.6</ele>
        <time>2022-05-07T11:59:50.000Z</time>
      </trkpt>
      <trkpt lat="45.09957" lon="5.25613">
        <ele>238</ele>
        <time>2022-05-07T11:59:51.000Z</time>
      </trkpt>
      <trkpt lat="45.09951" lon="5.25606">
        <ele>237.5</ele>
        <time>2022-05-07T11:59:52.000Z</time>
      </trkpt>
      <trkpt lat="45.09946" lon="5.25599">
        <ele>237.1</ele>
        <time>2022-05-07T11:59:53.000Z</time>
      </trkpt>
      <trkpt lat="45.0994" lon="5.25592">
        <ele>237.3</ele>
        <time>2022-05-07T11:59:54.000Z</time>
      </trkpt>
      <trkpt lat="45.09934" lon="5.25585">
        <ele>237.4</ele>
        <time>2022-05-07T11:59:55.000Z</time>
      </trkpt>
      <trkpt lat="45.09929" lon="5.25577">
        <ele>237.4</ele>
        <time>2022-05-07T11:59:56.000Z</time>
      </trkpt>
      <trkpt lat="45.09923" lon="5.2557">
        <ele>237.1</ele>
        <time>2022-05-07T11:59:57.000Z</time>
      </trkpt>
      <trkpt lat="45.09918" lon="5.25563">
        <ele>236.6</ele>
        <time>2022-05-07T11:59:58.000Z</time>
      </trkpt>
      <trkpt lat="45.09912" lon="5.25556">
        <ele>235.8</ele>
        <time>2022-05-07T11:59:59.000Z</time>
      </trkpt>
      <trkpt lat="45.09906" lon="5.25549">
        <ele>235.6</ele>
        <time>2022-05-07T12:00:00.000Z</time>
      </trkpt>
      <trkpt lat="45.099" lon="5.25545">
        <ele>235.4</ele>
        <time>2022-05-07T12:00:01.000Z</time>
      </trkpt>
      <trkpt lat="45.09893" lon="5.25541">
        <ele>235.2</ele>
        <time>2022-05-07T12:00:02.000Z</time>
      </trkpt>
      <trkpt lat="45.09887" lon="5.25538">
        <ele>234.8</ele>
        <time>2022-05-07T12:00:03.000Z</time>
      </trkpt>
      <trkpt lat="45.0988" lon="5.25535">
        <ele>234.3</ele>
        <time>2022-05-07T12:00:04.000Z</time>
      </trkpt>
      <trkpt lat="45.09873" lon="5.25533">
        <ele>233.9</ele>
        <time>2022-05-07T12:00:05.000Z</time>
      </trkpt>
      <trkpt lat="45.09867" lon="5.25532">
        <ele>233.4</ele>
        <time>2022-05-07T12:00:06.000Z</time>
      </trkpt>
      <trkpt lat="45.09861" lon="5.25531">
        <ele>233</ele>
        <time>2022-05-07T12:00:07.000Z</time>
      </trkpt>
      <trkpt lat="45.09856" lon="5.2553">
        <ele>232.6</ele>
        <time>2022-05-07T12:00:08.000Z</time>
      </trkpt>
      <trkpt lat="45.09853" lon="5.2553">
        <ele>232.4</ele>
        <time>2022-05-07T12:00:09.000Z</time>
      </trkpt>
      <trkpt lat="45.09851" lon="5.25531">
        <ele>232.2</ele>
        <time>2022-05-07T12:00:10.000Z</time>
      </trkpt>
      <trkpt lat="45.09848" lon="5.25531">
        <ele>232</ele>
        <time>2022-05-07T12:00:12.000Z</time>
      </trkpt>
      <trkpt lat="45.09846" lon="5.25533">
        <ele>231.8</ele>
        <time>2022-05-07T12:00:14.000Z</time>
      </trkpt>
      <trkpt lat="45.09843" lon="5.25536">
        <ele>231.5</ele>
        <time>2022-05-07T12:00:16.000Z</time>
      </trkpt>
      <trkpt lat="45.09842" lon="5.25538">
        <ele>231.3</ele>
        <time>2022-05-07T12:00:17.000Z</time>
      </trkpt>
      <trkpt lat="45.09839" lon="5.2554">
        <ele>231.1</ele>
        <time>2022-05-07T12:00:18.000Z</time>
      </trkpt>
      <trkpt lat="45.09837" lon="5.25542">
        <ele>230.9</ele>
        <time>2022-05-07T12:00:19.000Z</time>
      </trkpt>
      <trkpt lat="45.09835" lon="5.25543">
        <ele>230.6</ele>
        <time>2022-05-07T12:00:20.000Z</time>
      </trkpt>
      <trkpt lat="45.09831" lon="5.25545">
        <ele>230.3</ele>
        <time>2022-05-07T12:00:21.000Z</time>
      </trkpt>
      <trkpt lat="45.09828" lon="5.25547">
        <ele>230.1</ele>
        <time>2022-05-07T12:00:22.000Z</time>
      </trkpt>
      <trkpt lat="45.09825" lon="5.25548">
        <ele>229.9</ele>
        <time>2022-05-07T12:00:23.000Z</time>
      </trkpt>
      <trkpt lat="45.09822" lon="5.25548">
        <ele>229.8</ele>
        <time>2022-05-07T12:00:24.000Z</time>
      </trkpt>
      <trkpt lat="45.09819" lon="5.25548">
        <ele>229.6</ele>
        <time>2022-05-07T12:00:26.000Z</time>
      </trkpt>
      <trkpt lat="45.0982" lon="5.25551">
        <ele>229.6</ele>
        <time>2022-05-07T12:00:30.000Z</time>
      </trkpt>
      <trkpt lat="45.09823" lon="5.2555">
        <ele>229.7</ele>
        <time>2022-05-07T12:00:32.000Z</time>
      </trkpt>
      <trkpt lat="45.09825" lon="5.25548">
        <ele>229.9</ele>
        <time>2022-05-07T12:00:34.000Z</time>
      </trkpt>
      <trkpt lat="45.09827" lon="5.25547">
        <ele>230</ele>
        <time>2022-05-07T12:00:35.000Z</time>
      </trkpt>
      <trkpt lat="45.0983" lon="5.25546">
        <ele>230.2</ele>
        <time>2022-05-07T12:00:36.000Z</time>
      </trkpt>
      <trkpt lat="45.09833" lon="5.25546">
        <ele>230.3</ele>
        <time>2022-05-07T12:00:37.000Z</time>
      </trkpt>
      <trkpt lat="45.09836" lon="5.25544">
        <ele>230.7</ele>
        <time>2022-05-07T12:00:38.000Z</time>
      </trkpt>
      <trkpt lat="45.0984" lon="5.25543">
        <ele>231</ele>
        <time>2022-05-07T12:00:39.000Z</time>
      </trkpt>
      <trkpt lat="45.09843" lon="5.2554">
        <ele>231.4</ele>
        <time>2022-05-07T12:00:40.000Z</time>
      </trkpt>
      <trkpt lat="45.09845" lon="5.25537">
        <ele>231.7</ele>
        <time>2022-05-07T12:00:41.000Z</time>
      </trkpt>
      <trkpt lat="45.09846" lon="5.25532">
        <ele>231.9</ele>
        <time>2022-05-07T12:00:42.000Z</time>
      </trkpt>
      <trkpt lat="45.09846" lon="5.25527">
        <ele>231.9</ele>
        <time>2022-05-07T12:00:43.000Z</time>
      </trkpt>
      <trkpt lat="45.09845" lon="5.25521">
        <ele>231.8</ele>
        <time>2022-05-07T12:00:44.000Z</time>
      </trkpt>
      <trkpt lat="45.09844" lon="5.25515">
        <ele>231.6</ele>
        <time>2022-05-07T12:00:45.000Z</time>
      </trkpt>
      <trkpt lat="45.0984" lon="5.25508">
        <ele>231.1</ele>
        <time>2022-05-07T12:00:46.000Z</time>
      </trkpt>
      <trkpt lat="45.09836" lon="5.25501">
        <ele>230.4</ele>
        <time>2022-05-07T12:00:47.000Z</time>
      </trkpt>
      <trkpt lat="45.09832" lon="5.25493">
        <ele>229.9</ele>
        <time>2022-05-07T12:00:48.000Z</time>
      </trkpt>
      <trkpt lat="45.09827" lon="5.25485">
        <ele>229.8</ele>
        <time>2022-05-07T12:00:49.000Z</time>
      </trkpt>
      <trkpt lat="45.09822" lon="5.25478">
        <ele>229.6</ele>
        <time>2022-05-07T12:00:50.000Z</time>
      </trkpt>
      <trkpt lat="45.09816" lon="5.2547">
        <ele>229.4</ele>
        <time>2022-05-07T12:00:51.000Z</time>
      </trkpt>
      <trkpt lat="45.09811" lon="5.25462">
        <ele>229.2</ele>
        <time>2022-05-07T12:00:52.000Z</time>
      </trkpt>
      <trkpt lat="45.09806" lon="5.25454">
        <ele>229</ele>
        <time>2022-05-07T12:00:53.000Z</time>
      </trkpt>
      <trkpt lat="45.09801" lon="5.25447">
        <ele>228.8</ele>
        <time>2022-05-07T12:00:54.000Z</time>
      </trkpt>
      <trkpt lat="45.09796" lon="5.2544">
        <ele>228.5</ele>
        <time>2022-05-07T12:00:55.000Z</time>
      </trkpt>
      <trkpt lat="45.09791" lon="5.25433">
        <ele>228.3</ele>
        <time>2022-05-07T12:00:56.000Z</time>
      </trkpt>
      <trkpt lat="45.09786" lon="5.25426">
        <ele>228.1</ele>
        <time>2022-05-07T12:00:57.000Z</time>
      </trkpt>
      <trkpt lat="45.09782" lon="5.25418">
        <ele>228</ele>
        <time>2022-05-07T12:00:58.000Z</time>
      </trkpt>
      <trkpt lat="45.09777" lon="5.2541">
        <ele>228</ele>
        <time>2022-05-07T12:00:59.000Z</time>
      </trkpt>
      <trkpt lat="45.09773" lon="5.25402">
        <ele>228</ele>
        <time>2022-05-07T12:01:00.000Z</time>
      </trkpt>
      <trkpt lat="45.09768" lon="5.25395">
        <ele>228</ele>
        <time>2022-05-07T12:01:01.000Z</time>
      </trkpt>
      <trkpt lat="45.09763" lon="5.25387">
        <ele>228</ele>
        <time>2022-05-07T12:01:02.000Z</time>
      </trkpt>
      <trkpt lat="45.09758" lon="5.2538">
        <ele>228</ele>
        <time>2022-05-07T12:01:03.000Z</time>
      </trkpt>
      <trkpt lat="45.09753" lon="5.25372">
        <ele>228</ele>
        <time>2022-05-07T12:01:04.000Z</time>
      </trkpt>
      <trkpt lat="45.09748" lon="5.25365">
        <ele>227.9</ele>
        <time>2022-05-07T12:01:05.000Z</time>
      </trkpt>
      <trkpt lat="45.09743" lon="5.25357">
        <ele>227.6</ele>
        <time>2022-05-07T12:01:06.000Z</time>
      </trkpt>
      <trkpt lat="45.09738" lon="5.25349">
        <ele>227.3</ele>
        <time>2022-05-07T12:01:07.000Z</time>
      </trkpt>
      <trkpt lat="45.09733" lon="5.25341">
        <ele>227.1</ele>
        <time>2022-05-07T12:01:08.000Z</time>
      </trkpt>
      <trkpt lat="45.09729" lon="5.25333">
        <ele>227</ele>
        <time>2022-05-07T12:01:09.000Z</time>
      </trkpt>
      <trkpt lat="45.09724" lon="5.25326">
        <ele>227</ele>
        <time>2022-05-07T12:01:10.000Z</time>
      </trkpt>
      <trkpt lat="45.09719" lon="5.25318">
        <ele>227</ele>
        <time>2022-05-07T12:01:11.000Z</time>
      </trkpt>
      <trkpt lat="45.09714" lon="5.25311">
        <ele>227</ele>
        <time>2022-05-07T12:01:12.000Z</time>
      </trkpt>
      <trkpt lat="45.0971" lon="5.25303">
        <ele>227</ele>
        <time>2022-05-07T12:01:13.000Z</time>
      </trkpt>
      <trkpt lat="45.09706" lon="5.25296">
        <ele>227</ele>
        <time>2022-05-07T12:01:14.000Z</time>
      </trkpt>
      <trkpt lat="45.09702" lon="5.25289">
        <ele>227</ele>
        <time>2022-05-07T12:01:15.000Z</time>
      </trkpt>
      <trkpt lat="45.09697" lon="5.25282">
        <ele>227</ele>
        <time>2022-05-07T12:01:16.000Z</time>
      </trkpt>
      <trkpt lat="45.09693" lon="5.25276">
        <ele>227</ele>
        <time>2022-05-07T12:01:17.000Z</time>
      </trkpt>
      <trkpt lat="45.09689" lon="5.2527">
        <ele>227</ele>
        <time>2022-05-07T12:01:18.000Z</time>
      </trkpt>
      <trkpt lat="45.09685" lon="5.25264">
        <ele>227</ele>
        <time>2022-05-07T12:01:19.000Z</time>
      </trkpt>
      <trkpt lat="45.09681" lon="5.25257">
        <ele>227</ele>
        <time>2022-05-07T12:01:20.000Z</time>
      </trkpt>
      <trkpt lat="45.09677" lon="5.25251">
        <ele>227</ele>
        <time>2022-05-07T12:01:21.000Z</time>
      </trkpt>
      <trkpt lat="45.09673" lon="5.25245">
        <ele>227</ele>
        <time>2022-05-07T12:01:22.000Z</time>
      </trkpt>
      <trkpt lat="45.0967" lon="5.25239">
        <ele>227</ele>
        <time>2022-05-07T12:01:23.000Z</time>
      </trkpt>
      <trkpt lat="45.09667" lon="5.25232">
        <ele>227</ele>
        <time>2022-05-07T12:01:24.000Z</time>
      </trkpt>
      <trkpt lat="45.09664" lon="5.25226">
        <ele>227</ele>
        <time>2022-05-07T12:01:25.000Z</time>
      </trkpt>
      <trkpt lat="45.09662" lon="5.25219">
        <ele>227</ele>
        <time>2022-05-07T12:01:26.000Z</time>
      </trkpt>
      <trkpt lat="45.09659" lon="5.25213">
        <ele>227</ele>
        <time>2022-05-07T12:01:27.000Z</time>
      </trkpt>
      <trkpt lat="45.09656" lon="5.25207">
        <ele>227</ele>
        <time>2022-05-07T12:01:28.000Z</time>
      </trkpt>
      <trkpt lat="45.09652" lon="5.25201">
        <ele>227</ele>
        <time>2022-05-07T12:01:29.000Z</time>
      </trkpt>
      <trkpt lat="45.09649" lon="5.25195">
        <ele>227</ele>
        <time>2022-05-07T12:01:30.000Z</time>
      </trkpt>
      <trkpt lat="45.09646" lon="5.25189">
        <ele>227</ele>
        <time>2022-05-07T12:01:31.000Z</time>
      </trkpt>
      <trkpt lat="45.09642" lon="5.25182">
        <ele>227</ele>
        <time>2022-05-07T12:01:32.000Z</time>
      </trkpt>
      <trkpt lat="45.09638" lon="5.25177">
        <ele>227</ele>
        <time>2022-05-07T12:01:33.000Z</time>
      </trkpt>
      <trkpt lat="45.09635" lon="5.25171">
        <ele>227</ele>
        <time>2022-05-07T12:01:34.000Z</time>
      </trkpt>
      <trkpt lat="45.09632" lon="5.25165">
        <ele>227</ele>
        <time>2022-05-07T12:01:35.000Z</time>
      </trkpt>
      <trkpt lat="45.09628" lon="5.25159">
        <ele>227</ele>
        <time>2022-05-07T12:01:36.000Z</time>
      </trkpt>
      <trkpt lat="45.09625" lon="5.25154">
        <ele>227</ele>
        <time>2022-05-07T12:01:37.000Z</time>
      </trkpt>
      <trkpt lat="45.09622" lon="5.25148">
        <ele>227</ele>
        <time>2022-05-07T12:01:38.000Z</time>
      </trkpt>
      <trkpt lat="45.09619" lon="5.25142">
        <ele>227</ele>
        <time>2022-05-07T12:01:39.000Z</time>
      </trkpt>
      <trkpt lat="45.09616" lon="5.25136">
        <ele>227</ele>
        <time>2022-05-07T12:01:40.000Z</time>
      </trkpt>
      <trkpt lat="45.09613" lon="5.25131">
        <ele>227</ele>
        <time>2022-05-07T12:01:41.000Z</time>
      </trkpt>
      <trkpt lat="45.09609" lon="5.25125">
        <ele>226.9</ele>
        <time>2022-05-07T12:01:42.000Z</time>
      </trkpt>
      <trkpt lat="45.09606" lon="5.2512">
        <ele>226.8</ele>
        <time>2022-05-07T12:01:43.000Z</time>
      </trkpt>
      <trkpt lat="45.09603" lon="5.25114">
        <ele>226.7</ele>
        <time>2022-05-07T12:01:44.000Z</time>
      </trkpt>
      <trkpt lat="45.096" lon="5.25108">
        <ele>226.6</ele>
        <time>2022-05-07T12:01:45.000Z</time>
      </trkpt>
      <trkpt lat="45.09597" lon="5.25102">
        <ele>226.5</ele>
        <time>2022-05-07T12:01:46.000Z</time>
      </trkpt>
      <trkpt lat="45.09594" lon="5.25097">
        <ele>226.4</ele>
        <time>2022-05-07T12:01:47.000Z</time>
      </trkpt>
      <trkpt lat="45.09592" lon="5.25092">
        <ele>226.3</ele>
        <time>2022-05-07T12:01:48.000Z</time>
      </trkpt>
      <trkpt lat="45.09589" lon="5.25086">
        <ele>226.2</ele>
        <time>2022-05-07T12:01:49.000Z</time>
      </trkpt>
      <trkpt lat="45.09586" lon="5.25081">
        <ele>226.1</ele>
        <time>2022-05-07T12:01:50.000Z</time>
      </trkpt>
      <trkpt lat="45.09583" lon="5.25076">
        <ele>226</ele>
        <time>2022-05-07T12:01:51.000Z</time>
      </trkpt>
      <trkpt lat="45.09581" lon="5.25071">
        <ele>226</ele>
        <time>2022-05-07T12:01:52.000Z</time>
      </trkpt>
      <trkpt lat="45.09578" lon="5.25065">
        <ele>226</ele>
        <time>2022-05-07T12:01:53.000Z</time>
      </trkpt>
      <trkpt lat="45.09575" lon="5.25059">
        <ele>226</ele>
        <time>2022-05-07T12:01:54.000Z</time>
      </trkpt>
      <trkpt lat="45.09573" lon="5.25054">
        <ele>226</ele>
        <time>2022-05-07T12:01:55.000Z</time>
      </trkpt>
      <trkpt lat="45.09571" lon="5.2505">
        <ele>226</ele>
        <time>2022-05-07T12:01:56.000Z</time>
      </trkpt>
      <trkpt lat="45.0957" lon="5.25046">
        <ele>226</ele>
        <time>2022-05-07T12:01:57.000Z</time>
      </trkpt>
      <trkpt lat="45.09568" lon="5.25042">
        <ele>226</ele>
        <time>2022-05-07T12:01:58.000Z</time>
      </trkpt>
      <trkpt lat="45.09565" lon="5.25038">
        <ele>226</ele>
        <time>2022-05-07T12:01:59.000Z</time>
      </trkpt>
      <trkpt lat="45.09563" lon="5.25035">
        <ele>226</ele>
        <time>2022-05-07T12:02:00.000Z</time>
      </trkpt>
      <trkpt lat="45.0956" lon="5.25031">
        <ele>226</ele>
        <time>2022-05-07T12:02:01.000Z</time>
      </trkpt>
      <trkpt lat="45.09557" lon="5.25027">
        <ele>226</ele>
        <time>2022-05-07T12:02:02.000Z</time>
      </trkpt>
      <trkpt lat="45.09553" lon="5.25022">
        <ele>226</ele>
        <time>2022-05-07T12:02:03.000Z</time>
      </trkpt>
      <trkpt lat="45.0955" lon="5.25017">
        <ele>226</ele>
        <time>2022-05-07T12:02:04.000Z</time>
      </trkpt>
      <trkpt lat="45.09546" lon="5.25011">
        <ele>226</ele>
        <time>2022-05-07T12:02:05.000Z</time>
      </trkpt>
      <trkpt lat="45.09543" lon="5.25006">
        <ele>226</ele>
        <time>2022-05-07T12:02:06.000Z</time>
      </trkpt>
      <trkpt lat="45.0954" lon="5.25001">
        <ele>226</ele>
        <time>2022-05-07T12:02:07.000Z</time>
      </trkpt>
      <trkpt lat="45.09536" lon="5.24996">
        <ele>226</ele>
        <time>2022-05-07T12:02:08.000Z</time>
      </trkpt>
      <trkpt lat="45.09533" lon="5.2499">
        <ele>226</ele>
        <time>2022-05-07T12:02:09.000Z</time>
      </trkpt>
      <trkpt lat="45.0953" lon="5.24986">
        <ele>226</ele>
        <time>2022-05-07T12:02:10.000Z</time>
      </trkpt>
      <trkpt lat="45.09527" lon="5.24981">
        <ele>226</ele>
        <time>2022-05-07T12:02:11.000Z</time>
      </trkpt>
      <trkpt lat="45.09524" lon="5.24976">
        <ele>225.9</ele>
        <time>2022-05-07T12:02:12.000Z</time>
      </trkpt>
      <trkpt lat="45.09521" lon="5.24971">
        <ele>225.8</ele>
        <time>2022-05-07T12:02:13.000Z</time>
      </trkpt>
      <trkpt lat="45.09519" lon="5.24968">
        <ele>225.7</ele>
        <time>2022-05-07T12:02:14.000Z</time>
      </trkpt>
      <trkpt lat="45.09517" lon="5.24963">
        <ele>225.7</ele>
        <time>2022-05-07T12:02:15.000Z</time>
      </trkpt>
      <trkpt lat="45.09514" lon="5.24959">
        <ele>225.8</ele>
        <time>2022-05-07T12:02:16.000Z</time>
      </trkpt>
      <trkpt lat="45.09511" lon="5.24954">
        <ele>225.8</ele>
        <time>2022-05-07T12:02:17.000Z</time>
      </trkpt>
      <trkpt lat="45.09509" lon="5.24949">
        <ele>225.9</ele>
        <time>2022-05-07T12:02:18.000Z</time>
      </trkpt>
      <trkpt lat="45.09506" lon="5.24945">
        <ele>226</ele>
        <time>2022-05-07T12:02:19.000Z</time>
      </trkpt>
      <trkpt lat="45.09504" lon="5.2494">
        <ele>225.8</ele>
        <time>2022-05-07T12:02:20.000Z</time>
      </trkpt>
      <trkpt lat="45.09502" lon="5.24935">
        <ele>225.7</ele>
        <time>2022-05-07T12:02:21.000Z</time>
      </trkpt>
      <trkpt lat="45.09499" lon="5.2493">
        <ele>225.5</ele>
        <time>2022-05-07T12:02:22.000Z</time>
      </trkpt>
      <trkpt lat="45.09496" lon="5.24926">
        <ele>225.3</ele>
        <time>2022-05-07T12:02:23.000Z</time>
      </trkpt>
      <trkpt lat="45.09493" lon="5.24921">
        <ele>225.1</ele>
        <time>2022-05-07T12:02:24.000Z</time>
      </trkpt>
      <trkpt lat="45.0949" lon="5.24917">
        <ele>225</ele>
        <time>2022-05-07T12:02:25.000Z</time>
      </trkpt>
      <trkpt lat="45.09487" lon="5.24912">
        <ele>225</ele>
        <time>2022-05-07T12:02:26.000Z</time>
      </trkpt>
      <trkpt lat="45.09485" lon="5.24909">
        <ele>225</ele>
        <time>2022-05-07T12:02:27.000Z</time>
      </trkpt>
      <trkpt lat="45.09482" lon="5.24905">
        <ele>225</ele>
        <time>2022-05-07T12:02:28.000Z</time>
      </trkpt>
      <trkpt lat="45.09479" lon="5.249">
        <ele>225</ele>
        <time>2022-05-07T12:02:29.000Z</time>
      </trkpt>
      <trkpt lat="45.09477" lon="5.24896">
        <ele>225</ele>
        <time>2022-05-07T12:02:30.000Z</time>
      </trkpt>
      <trkpt lat="45.09474" lon="5.24892">
        <ele>225</ele>
        <time>2022-05-07T12:02:31.000Z</time>
      </trkpt>
      <trkpt lat="45.09472" lon="5.24887">
        <ele>225</ele>
        <time>2022-05-07T12:02:32.000Z</time>
      </trkpt>
      <trkpt lat="45.09469" lon="5.24883">
        <ele>225</ele>
        <time>2022-05-07T12:02:33.000Z</time>
      </trkpt>
      <trkpt lat="45.09467" lon="5.24879">
        <ele>225</ele>
        <time>2022-05-07T12:02:34.000Z</time>
      </trkpt>
      <trkpt lat="45.09465" lon="5.24875">
        <ele>225</ele>
        <time>2022-05-07T12:02:35.000Z</time>
      </trkpt>
      <trkpt lat="45.09462" lon="5.2487">
        <ele>225</ele>
        <time>2022-05-07T12:02:36.000Z</time>
      </trkpt>
      <trkpt lat="45.09459" lon="5.24865">
        <ele>225</ele>
        <time>2022-05-07T12:02:37.000Z</time>
      </trkpt>
      <trkpt lat="45.09457" lon="5.2486">
        <ele>225</ele>
        <time>2022-05-07T12:02:38.000Z</time>
      </trkpt>
      <trkpt lat="45.09453" lon="5.24855">
        <ele>225</ele>
        <time>2022-05-07T12:02:39.000Z</time>
      </trkpt>
      <trkpt lat="45.09451" lon="5.2485">
        <ele>225</ele>
        <time>2022-05-07T12:02:40.000Z</time>
      </trkpt>
      <trkpt lat="45.09448" lon="5.24846">
        <ele>225</ele>
        <time>2022-05-07T12:02:41.000Z</time>
      </trkpt>
      <trkpt lat="45.09445" lon="5.24841">
        <ele>225</ele>
        <time>2022-05-07T12:02:42.000Z</time>
      </trkpt>
      <trkpt lat="45.09442" lon="5.24836">
        <ele>225</ele>
        <time>2022-05-07T12:02:43.000Z</time>
      </trkpt>
      <trkpt lat="45.09439" lon="5.2483">
        <ele>225</ele>
        <time>2022-05-07T12:02:44.000Z</time>
      </trkpt>
      <trkpt lat="45.09436" lon="5.24825">
        <ele>225</ele>
        <time>2022-05-07T12:02:45.000Z</time>
      </trkpt>
      <trkpt lat="45.09433" lon="5.2482">
        <ele>225</ele>
        <time>2022-05-07T12:02:46.000Z</time>
      </trkpt>
      <trkpt lat="45.0943" lon="5.24814">
        <ele>225</ele>
        <time>2022-05-07T12:02:47.000Z</time>
      </trkpt>
      <trkpt lat="45.09427" lon="5.24809">
        <ele>225</ele>
        <time>2022-05-07T12:02:48.000Z</time>
      </trkpt>
      <trkpt lat="45.09424" lon="5.24804">
        <ele>225</ele>
        <time>2022-05-07T12:02:49.000Z</time>
      </trkpt>
      <trkpt lat="45.09422" lon="5.248">
        <ele>225</ele>
        <time>2022-05-07T12:02:50.000Z</time>
      </trkpt>
      <trkpt lat="45.0942" lon="5.24796">
        <ele>225</ele>
        <time>2022-05-07T12:02:51.000Z</time>
      </trkpt>
      <trkpt lat="45.09418" lon="5.24792">
        <ele>225</ele>
        <time>2022-05-07T12:02:52.000Z</time>
      </trkpt>
      <trkpt lat="45.09416" lon="5.24789">
        <ele>225</ele>
        <time>2022-05-07T12:02:53.000Z</time>
      </trkpt>
      <trkpt lat="45.09414" lon="5.24785">
        <ele>225</ele>
        <time>2022-05-07T12:02:54.000Z</time>
      </trkpt>
      <trkpt lat="45.09412" lon="5.2478">
        <ele>225</ele>
        <time>2022-05-07T12:02:55.000Z</time>
      </trkpt>
      <trkpt lat="45.0941" lon="5.24776">
        <ele>225</ele>
        <time>2022-05-07T12:02:56.000Z</time>
      </trkpt>
      <trkpt lat="45.09407" lon="5.24771">
        <ele>225</ele>
        <time>2022-05-07T12:02:57.000Z</time>
      </trkpt>
      <trkpt lat="45.09405" lon="5.24767">
        <ele>225</ele>
        <time>2022-05-07T12:02:58.000Z</time>
      </trkpt>
      <trkpt lat="45.09402" lon="5.24762">
        <ele>225</ele>
        <time>2022-05-07T12:02:59.000Z</time>
      </trkpt>
      <trkpt lat="45.094" lon="5.24757">
        <ele>225</ele>
        <time>2022-05-07T12:03:00.000Z</time>
      </trkpt>
      <trkpt lat="45.09397" lon="5.24753">
        <ele>225</ele>
        <time>2022-05-07T12:03:01.000Z</time>
      </trkpt>
      <trkpt lat="45.09395" lon="5.24748">
        <ele>225</ele>
        <time>2022-05-07T12:03:02.000Z</time>
      </trkpt>
      <trkpt lat="45.09392" lon="5.24744">
        <ele>225</ele>
        <time>2022-05-07T12:03:03.000Z</time>
      </trkpt>
      <trkpt lat="45.0939" lon="5.2474">
        <ele>225</ele>
        <time>2022-05-07T12:03:04.000Z</time>
      </trkpt>
      <trkpt lat="45.09387" lon="5.24736">
        <ele>225</ele>
        <time>2022-05-07T12:03:05.000Z</time>
      </trkpt>
      <trkpt lat="45.09385" lon="5.24731">
        <ele>225</ele>
        <time>2022-05-07T12:03:06.000Z</time>
      </trkpt>
      <trkpt lat="45.09382" lon="5.24727">
        <ele>225</ele>
        <time>2022-05-07T12:03:07.000Z</time>
      </trkpt>
      <trkpt lat="45.09379" lon="5.24723">
        <ele>225</ele>
        <time>2022-05-07T12:03:08.000Z</time>
      </trkpt>
      <trkpt lat="45.09376" lon="5.24718">
        <ele>225</ele>
        <time>2022-05-07T12:03:09.000Z</time>
      </trkpt>
      <trkpt lat="45.09372" lon="5.24712">
        <ele>225</ele>
        <time>2022-05-07T12:03:10.000Z</time>
      </trkpt>
      <trkpt lat="45.0937" lon="5.24707">
        <ele>225</ele>
        <time>2022-05-07T12:03:11.000Z</time>
      </trkpt>
      <trkpt lat="45.09367" lon="5.24702">
        <ele>225</ele>
        <time>2022-05-07T12:03:12.000Z</time>
      </trkpt>
      <trkpt lat="45.09364" lon="5.24696">
        <ele>225</ele>
        <time>2022-05-07T12:03:13.000Z</time>
      </trkpt>
      <trkpt lat="45.09361" lon="5.24691">
        <ele>225</ele>
        <time>2022-05-07T12:03:14.000Z</time>
      </trkpt>
      <trkpt lat="45.09358" lon="5.24686">
        <ele>225</ele>
        <time>2022-05-07T12:03:15.000Z</time>
      </trkpt>
      <trkpt lat="45.09354" lon="5.2468">
        <ele>225</ele>
        <time>2022-05-07T12:03:16.000Z</time>
      </trkpt>
      <trkpt lat="45.09351" lon="5.24675">
        <ele>225</ele>
        <time>2022-05-07T12:03:17.000Z</time>
      </trkpt>
      <trkpt lat="45.09348" lon="5.2467">
        <ele>225</ele>
        <time>2022-05-07T12:03:18.000Z</time>
      </trkpt>
      <trkpt lat="45.09345" lon="5.24666">
        <ele>225</ele>
        <time>2022-05-07T12:03:19.000Z</time>
      </trkpt>
      <trkpt lat="45.09342" lon="5.24662">
        <ele>225</ele>
        <time>2022-05-07T12:03:20.000Z</time>
      </trkpt>
      <trkpt lat="45.09339" lon="5.24657">
        <ele>225</ele>
        <time>2022-05-07T12:03:21.000Z</time>
      </trkpt>
      <trkpt lat="45.09336" lon="5.24651">
        <ele>225</ele>
        <time>2022-05-07T12:03:22.000Z</time>
      </trkpt>
      <trkpt lat="45.09333" lon="5.24647">
        <ele>225</ele>
        <time>2022-05-07T12:03:23.000Z</time>
      </trkpt>
      <trkpt lat="45.09331" lon="5.24642">
        <ele>225</ele>
        <time>2022-05-07T12:03:24.000Z</time>
      </trkpt>
      <trkpt lat="45.09328" lon="5.24637">
        <ele>225</ele>
        <time>2022-05-07T12:03:25.000Z</time>
      </trkpt>
      <trkpt lat="45.09326" lon="5.24633">
        <ele>225</ele>
        <time>2022-05-07T12:03:26.000Z</time>
      </trkpt>
      <trkpt lat="45.09323" lon="5.24627">
        <ele>225</ele>
        <time>2022-05-07T12:03:27.000Z</time>
      </trkpt>
      <trkpt lat="45.0932" lon="5.24622">
        <ele>225</ele>
        <time>2022-05-07T12:03:28.000Z</time>
      </trkpt>
      <trkpt lat="45.09317" lon="5.24617">
        <ele>225</ele>
        <time>2022-05-07T12:03:29.000Z</time>
      </trkpt>
      <trkpt lat="45.09314" lon="5.24612">
        <ele>225</ele>
        <time>2022-05-07T12:03:30.000Z</time>
      </trkpt>
      <trkpt lat="45.09311" lon="5.24606">
        <ele>225</ele>
        <time>2022-05-07T12:03:31.000Z</time>
      </trkpt>
      <trkpt lat="45.09309" lon="5.24601">
        <ele>225</ele>
        <time>2022-05-07T12:03:32.000Z</time>
      </trkpt>
      <trkpt lat="45.09306" lon="5.24596">
        <ele>225</ele>
        <time>2022-05-07T12:03:33.000Z</time>
      </trkpt>
      <trkpt lat="45.09303" lon="5.24591">
        <ele>225</ele>
        <time>2022-05-07T12:03:34.000Z</time>
      </trkpt>
      <trkpt lat="45.09301" lon="5.24587">
        <ele>225</ele>
        <time>2022-05-07T12:03:35.000Z</time>
      </trkpt>
      <trkpt lat="45.09298" lon="5.24582">
        <ele>225</ele>
        <time>2022-05-07T12:03:36.000Z</time>
      </trkpt>
      <trkpt lat="45.09295" lon="5.24578">
        <ele>224.9</ele>
        <time>2022-05-07T12:03:37.000Z</time>
      </trkpt>
      <trkpt lat="45.09292" lon="5.24573">
        <ele>224.8</ele>
        <time>2022-05-07T12:03:38.000Z</time>
      </trkpt>
      <trkpt lat="45.09289" lon="5.24568">
        <ele>224.8</ele>
        <time>2022-05-07T12:03:39.000Z</time>
      </trkpt>
      <trkpt lat="45.09285" lon="5.24563">
        <ele>224.8</ele>
        <time>2022-05-07T12:03:40.000Z</time>
      </trkpt>
      <trkpt lat="45.09282" lon="5.24557">
        <ele>224.9</ele>
        <time>2022-05-07T12:03:41.000Z</time>
      </trkpt>
      <trkpt lat="45.09279" lon="5.24551">
        <ele>224.8</ele>
        <time>2022-05-07T12:03:42.000Z</time>
      </trkpt>
      <trkpt lat="45.09276" lon="5.24546">
        <ele>224.6</ele>
        <time>2022-05-07T12:03:43.000Z</time>
      </trkpt>
      <trkpt lat="45.09272" lon="5.24539">
        <ele>224.3</ele>
        <time>2022-05-07T12:03:44.000Z</time>
      </trkpt>
      <trkpt lat="45.09268" lon="5.24533">
        <ele>224.1</ele>
        <time>2022-05-07T12:03:45.000Z</time>
      </trkpt>
      <trkpt lat="45.09264" lon="5.24527">
        <ele>224</ele>
        <time>2022-05-07T12:03:46.000Z</time>
      </trkpt>
      <trkpt lat="45.0926" lon="5.24521">
        <ele>224</ele>
        <time>2022-05-07T12:03:47.000Z</time>
      </trkpt>
      <trkpt lat="45.09256" lon="5.24515">
        <ele>224</ele>
        <time>2022-05-07T12:03:48.000Z</time>
      </trkpt>
      <trkpt lat="45.09252" lon="5.24508">
        <ele>224</ele>
        <time>2022-05-07T12:03:49.000Z</time>
      </trkpt>
      <trkpt lat="45.09248" lon="5.24501">
        <ele>224</ele>
        <time>2022-05-07T12:03:50.000Z</time>
      </trkpt>
      <trkpt lat="45.09244" lon="5.24494">
        <ele>224</ele>
        <time>2022-05-07T12:03:51.000Z</time>
      </trkpt>
      <trkpt lat="45.09241" lon="5.24486">
        <ele>224</ele>
        <time>2022-05-07T12:03:52.000Z</time>
      </trkpt>
      <trkpt lat="45.09237" lon="5.24477">
        <ele>224</ele>
        <time>2022-05-07T12:03:53.000Z</time>
      </trkpt>
      <trkpt lat="45.09232" lon="5.24469">
        <ele>224</ele>
        <time>2022-05-07T12:03:54.000Z</time>
      </trkpt>
      <trkpt lat="45.09228" lon="5.24461">
        <ele>224</ele>
        <time>2022-05-07T12:03:55.000Z</time>
      </trkpt>
      <trkpt lat="45.09223" lon="5.24452">
        <ele>224</ele>
        <time>2022-05-07T12:03:56.000Z</time>
      </trkpt>
      <trkpt lat="45.09219" lon="5.24444">
        <ele>224</ele>
        <time>2022-05-07T12:03:57.000Z</time>
      </trkpt>
      <trkpt lat="45.09214" lon="5.24436">
        <ele>223.8</ele>
        <time>2022-05-07T12:03:58.000Z</time>
      </trkpt>
      <trkpt lat="45.0921" lon="5.24428">
        <ele>223.7</ele>
        <time>2022-05-07T12:03:59.000Z</time>
      </trkpt>
      <trkpt lat="45.09205" lon="5.2442">
        <ele>223.7</ele>
        <time>2022-05-07T12:04:00.000Z</time>
      </trkpt>
      <trkpt lat="45.09201" lon="5.24411">
        <ele>223.8</ele>
        <time>2022-05-07T12:04:01.000Z</time>
      </trkpt>
      <trkpt lat="45.09196" lon="5.24403">
        <ele>224</ele>
        <time>2022-05-07T12:04:02.000Z</time>
      </trkpt>
      <trkpt lat="45.09191" lon="5.24395">
        <ele>224</ele>
        <time>2022-05-07T12:04:03.000Z</time>
      </trkpt>
      <trkpt lat="45.09186" lon="5.24387">
        <ele>224</ele>
        <time>2022-05-07T12:04:04.000Z</time>
      </trkpt>
      <trkpt lat="45.09182" lon="5.24379">
        <ele>224</ele>
        <time>2022-05-07T12:04:05.000Z</time>
      </trkpt>
      <trkpt lat="45.09177" lon="5.24371">
        <ele>224</ele>
        <time>2022-05-07T12:04:06.000Z</time>
      </trkpt>
      <trkpt lat="45.09172" lon="5.24363">
        <ele>224</ele>
        <time>2022-05-07T12:04:07.000Z</time>
      </trkpt>
      <trkpt lat="45.09168" lon="5.24356">
        <ele>223.8</ele>
        <time>2022-05-07T12:04:08.000Z</time>
      </trkpt>
      <trkpt lat="45.09163" lon="5.24349">
        <ele>223.7</ele>
        <time>2022-05-07T12:04:09.000Z</time>
      </trkpt>
      <trkpt lat="45.09159" lon="5.24341">
        <ele>223.6</ele>
        <time>2022-05-07T12:04:10.000Z</time>
      </trkpt>
      <trkpt lat="45.09154" lon="5.24333">
        <ele>223.4</ele>
        <time>2022-05-07T12:04:11.000Z</time>
      </trkpt>
      <trkpt lat="45.0915" lon="5.24325">
        <ele>223.4</ele>
        <time>2022-05-07T12:04:12.000Z</time>
      </trkpt>
      <trkpt lat="45.09145" lon="5.24318">
        <ele>223.3</ele>
        <time>2022-05-07T12:04:13.000Z</time>
      </trkpt>
      <trkpt lat="45.0914" lon="5.2431">
        <ele>223.2</ele>
        <time>2022-05-07T12:04:14.000Z</time>
      </trkpt>
      <trkpt lat="45.09136" lon="5.24303">
        <ele>223</ele>
        <time>2022-05-07T12:04:15.000Z</time>
      </trkpt>
      <trkpt lat="45.09131" lon="5.24295">
        <ele>223</ele>
        <time>2022-05-07T12:04:16.000Z</time>
      </trkpt>
      <trkpt lat="45.09127" lon="5.24287">
        <ele>223</ele>
        <time>2022-05-07T12:04:17.000Z</time>
      </trkpt>
      <trkpt lat="45.09122" lon="5.2428">
        <ele>223</ele>
        <time>2022-05-07T12:04:18.000Z</time>
      </trkpt>
      <trkpt lat="45.09118" lon="5.24273">
        <ele>223</ele>
        <time>2022-05-07T12:04:19.000Z</time>
      </trkpt>
      <trkpt lat="45.09114" lon="5.24265">
        <ele>223</ele>
        <time>2022-05-07T12:04:20.000Z</time>
      </trkpt>
      <trkpt lat="45.0911" lon="5.24257">
        <ele>223</ele>
        <time>2022-05-07T12:04:21.000Z</time>
      </trkpt>
      <trkpt lat="45.09105" lon="5.2425">
        <ele>223</ele>
        <time>2022-05-07T12:04:22.000Z</time>
      </trkpt>
      <trkpt lat="45.09102" lon="5.24242">
        <ele>223</ele>
        <time>2022-05-07T12:04:23.000Z</time>
      </trkpt>
      <trkpt lat="45.09097" lon="5.24234">
        <ele>223</ele>
        <time>2022-05-07T12:04:24.000Z</time>
      </trkpt>
      <trkpt lat="45.09093" lon="5.24225">
        <ele>223</ele>
        <time>2022-05-07T12:04:25.000Z</time>
      </trkpt>
      <trkpt lat="45.09089" lon="5.24217">
        <ele>223</ele>
        <time>2022-05-07T12:04:26.000Z</time>
      </trkpt>
      <trkpt lat="45.09085" lon="5.24209">
        <ele>223</ele>
        <time>2022-05-07T12:04:27.000Z</time>
      </trkpt>
      <trkpt lat="45.09081" lon="5.24201">
        <ele>223</ele>
        <time>2022-05-07T12:04:28.000Z</time>
      </trkpt>
      <trkpt lat="45.09077" lon="5.24192">
        <ele>222.9</ele>
        <time>2022-05-07T12:04:29.000Z</time>
      </trkpt>
      <trkpt lat="45.09073" lon="5.24184">
        <ele>222.8</ele>
        <time>2022-05-07T12:04:30.000Z</time>
      </trkpt>
      <trkpt lat="45.09069" lon="5.24176">
        <ele>222.7</ele>
        <time>2022-05-07T12:04:31.000Z</time>
      </trkpt>
      <trkpt lat="45.09064" lon="5.24167">
        <ele>222.7</ele>
        <time>2022-05-07T12:04:32.000Z</time>
      </trkpt>
      <trkpt lat="45.09061" lon="5.24159">
        <ele>222.8</ele>
        <time>2022-05-07T12:04:33.000Z</time>
      </trkpt>
      <trkpt lat="45.09057" lon="5.2415">
        <ele>223</ele>
        <time>2022-05-07T12:04:34.000Z</time>
      </trkpt>
      <trkpt lat="45.09053" lon="5.24142">
        <ele>223</ele>
        <time>2022-05-07T12:04:35.000Z</time>
      </trkpt>
      <trkpt lat="45.09049" lon="5.24133">
        <ele>222.8</ele>
        <time>2022-05-07T12:04:36.000Z</time>
      </trkpt>
      <trkpt lat="45.09045" lon="5.24124">
        <ele>222.7</ele>
        <time>2022-05-07T12:04:37.000Z</time>
      </trkpt>
      <trkpt lat="45.09041" lon="5.24115">
        <ele>222.6</ele>
        <time>2022-05-07T12:04:38.000Z</time>
      </trkpt>
      <trkpt lat="45.09038" lon="5.24107">
        <ele>222.6</ele>
        <time>2022-05-07T12:04:39.000Z</time>
      </trkpt>
      <trkpt lat="45.09034" lon="5.24099">
        <ele>222.8</ele>
        <time>2022-05-07T12:04:40.000Z</time>
      </trkpt>
      <trkpt lat="45.0903" lon="5.24092">
        <ele>222.9</ele>
        <time>2022-05-07T12:04:41.000Z</time>
      </trkpt>
      <trkpt lat="45.09026" lon="5.24084">
        <ele>223</ele>
        <time>2022-05-07T12:04:42.000Z</time>
      </trkpt>
      <trkpt lat="45.09022" lon="5.24076">
        <ele>222.8</ele>
        <time>2022-05-07T12:04:43.000Z</time>
      </trkpt>
      <trkpt lat="45.09019" lon="5.24069">
        <ele>222.6</ele>
        <time>2022-05-07T12:04:44.000Z</time>
      </trkpt>
      <trkpt lat="45.09015" lon="5.24061">
        <ele>222.6</ele>
        <time>2022-05-07T12:04:45.000Z</time>
      </trkpt>
      <trkpt lat="45.09012" lon="5.24054">
        <ele>222.6</ele>
        <time>2022-05-07T12:04:46.000Z</time>
      </trkpt>
      <trkpt lat="45.09008" lon="5.24047">
        <ele>222.5</ele>
        <time>2022-05-07T12:04:47.000Z</time>
      </trkpt>
      <trkpt lat="45.09004" lon="5.2404">
        <ele>222.4</ele>
        <time>2022-05-07T12:04:48.000Z</time>
      </trkpt>
      <trkpt lat="45.09001" lon="5.24033">
        <ele>222.2</ele>
        <time>2022-05-07T12:04:49.000Z</time>
      </trkpt>
      <trkpt lat="45.08998" lon="5.24026">
        <ele>222</ele>
        <time>2022-05-07T12:04:50.000Z</time>
      </trkpt>
      <trkpt lat="45.08995" lon="5.24019">
        <ele>222</ele>
        <time>2022-05-07T12:04:51.000Z</time>
      </trkpt>
      <trkpt lat="45.08992" lon="5.24013">
        <ele>222</ele>
        <time>2022-05-07T12:04:52.000Z</time>
      </trkpt>
      <trkpt lat="45.08989" lon="5.24007">
        <ele>222</ele>
        <time>2022-05-07T12:04:53.000Z</time>
      </trkpt>
      <trkpt lat="45.08986" lon="5.24">
        <ele>222</ele>
        <time>2022-05-07T12:04:54.000Z</time>
      </trkpt>
      <trkpt lat="45.08983" lon="5.23994">
        <ele>222.2</ele>
        <time>2022-05-07T12:04:55.000Z</time>
      </trkpt>
      <trkpt lat="45.0898" lon="5.23987">
        <ele>222.5</ele>
        <time>2022-05-07T12:04:56.000Z</time>
      </trkpt>
      <trkpt lat="45.08978" lon="5.23981">
        <ele>222.7</ele>
        <time>2022-05-07T12:04:57.000Z</time>
      </trkpt>
      <trkpt lat="45.08975" lon="5.23975">
        <ele>222.9</ele>
        <time>2022-05-07T12:04:58.000Z</time>
      </trkpt>
      <trkpt lat="45.08973" lon="5.23968">
        <ele>222.9</ele>
        <time>2022-05-07T12:04:59.000Z</time>
      </trkpt>
      <trkpt lat="45.0897" lon="5.23962">
        <ele>222.6</ele>
        <time>2022-05-07T12:05:00.000Z</time>
      </trkpt>
      <trkpt lat="45.08968" lon="5.23956">
        <ele>222.4</ele>
        <time>2022-05-07T12:05:01.000Z</time>
      </trkpt>
      <trkpt lat="45.08965" lon="5.2395">
        <ele>222.2</ele>
        <time>2022-05-07T12:05:02.000Z</time>
      </trkpt>
      <trkpt lat="45.08963" lon="5.23945">
        <ele>222</ele>
        <time>2022-05-07T12:05:03.000Z</time>
      </trkpt>
      <trkpt lat="45.0896" lon="5.2394">
        <ele>222</ele>
        <time>2022-05-07T12:05:04.000Z</time>
      </trkpt>
      <trkpt lat="45.08958" lon="5.23933">
        <ele>222</ele>
        <time>2022-05-07T12:05:05.000Z</time>
      </trkpt>
      <trkpt lat="45.08956" lon="5.23927">
        <ele>222</ele>
        <time>2022-05-07T12:05:06.000Z</time>
      </trkpt>
      <trkpt lat="45.08953" lon="5.23921">
        <ele>222</ele>
        <time>2022-05-07T12:05:07.000Z</time>
      </trkpt>
      <trkpt lat="45.0895" lon="5.23915">
        <ele>222</ele>
        <time>2022-05-07T12:05:08.000Z</time>
      </trkpt>
      <trkpt lat="45.08947" lon="5.23908">
        <ele>222</ele>
        <time>2022-05-07T12:05:09.000Z</time>
      </trkpt>
      <trkpt lat="45.08945" lon="5.23901">
        <ele>222</ele>
        <time>2022-05-07T12:05:10.000Z</time>
      </trkpt>
      <trkpt lat="45.08942" lon="5.23895">
        <ele>222</ele>
        <time>2022-05-07T12:05:11.000Z</time>
      </trkpt>
      <trkpt lat="45.0894" lon="5.2389">
        <ele>222</ele>
        <time>2022-05-07T12:05:12.000Z</time>
      </trkpt>
      <trkpt lat="45.08937" lon="5.23884">
        <ele>222</ele>
        <time>2022-05-07T12:05:13.000Z</time>
      </trkpt>
      <trkpt lat="45.08934" lon="5.23879">
        <ele>222</ele>
        <time>2022-05-07T12:05:14.000Z</time>
      </trkpt>
      <trkpt lat="45.08931" lon="5.23873">
        <ele>222</ele>
        <time>2022-05-07T12:05:15.000Z</time>
      </trkpt>
      <trkpt lat="45.08929" lon="5.23867">
        <ele>222</ele>
        <time>2022-05-07T12:05:16.000Z</time>
      </trkpt>
      <trkpt lat="45.08926" lon="5.23862">
        <ele>222</ele>
        <time>2022-05-07T12:05:17.000Z</time>
      </trkpt>
      <trkpt lat="45.08923" lon="5.23857">
        <ele>222</ele>
        <time>2022-05-07T12:05:18.000Z</time>
      </trkpt>
      <trkpt lat="45.0892" lon="5.23852">
        <ele>222</ele>
        <time>2022-05-07T12:05:19.000Z</time>
      </trkpt>
      <trkpt lat="45.08917" lon="5.23846">
        <ele>222</ele>
        <time>2022-05-07T12:05:20.000Z</time>
      </trkpt>
      <trkpt lat="45.08915" lon="5.2384">
        <ele>221.9</ele>
        <time>2022-05-07T12:05:21.000Z</time>
      </trkpt>
      <trkpt lat="45.08913" lon="5.23833">
        <ele>221.9</ele>
        <time>2022-05-07T12:05:22.000Z</time>
      </trkpt>
      <trkpt lat="45.08911" lon="5.23826">
        <ele>221.8</ele>
        <time>2022-05-07T12:05:23.000Z</time>
      </trkpt>
      <trkpt lat="45.08909" lon="5.23818">
        <ele>221.9</ele>
        <time>2022-05-07T12:05:24.000Z</time>
      </trkpt>
      <trkpt lat="45.08908" lon="5.23811">
        <ele>221.9</ele>
        <time>2022-05-07T12:05:25.000Z</time>
      </trkpt>
      <trkpt lat="45.08907" lon="5.23803">
        <ele>222</ele>
        <time>2022-05-07T12:05:26.000Z</time>
      </trkpt>
      <trkpt lat="45.08905" lon="5.23796">
        <ele>221.9</ele>
        <time>2022-05-07T12:05:27.000Z</time>
      </trkpt>
      <trkpt lat="45.08903" lon="5.23788">
        <ele>221.7</ele>
        <time>2022-05-07T12:05:28.000Z</time>
      </trkpt>
      <trkpt lat="45.08901" lon="5.2378">
        <ele>221.5</ele>
        <time>2022-05-07T12:05:29.000Z</time>
      </trkpt>
      <trkpt lat="45.089" lon="5.23772">
        <ele>221.3</ele>
        <time>2022-05-07T12:05:30.000Z</time>
      </trkpt>
      <trkpt lat="45.08897" lon="5.23764">
        <ele>221.1</ele>
        <time>2022-05-07T12:05:31.000Z</time>
      </trkpt>
      <trkpt lat="45.08895" lon="5.23757">
        <ele>221.1</ele>
        <time>2022-05-07T12:05:32.000Z</time>
      </trkpt>
      <trkpt lat="45.08892" lon="5.23747">
        <ele>221</ele>
        <time>2022-05-07T12:05:33.000Z</time>
      </trkpt>
      <trkpt lat="45.08889" lon="5.23738">
        <ele>221</ele>
        <time>2022-05-07T12:05:34.000Z</time>
      </trkpt>
      <trkpt lat="45.08886" lon="5.23729">
        <ele>220.9</ele>
        <time>2022-05-07T12:05:35.000Z</time>
      </trkpt>
      <trkpt lat="45.08883" lon="5.23721">
        <ele>220.8</ele>
        <time>2022-05-07T12:05:36.000Z</time>
      </trkpt>
      <trkpt lat="45.0888" lon="5.23712">
        <ele>220.7</ele>
        <time>2022-05-07T12:05:37.000Z</time>
      </trkpt>
      <trkpt lat="45.08878" lon="5.23703">
        <ele>220.6</ele>
        <time>2022-05-07T12:05:38.000Z</time>
      </trkpt>
      <trkpt lat="45.08875" lon="5.23694">
        <ele>220.5</ele>
        <time>2022-05-07T12:05:39.000Z</time>
      </trkpt>
      <trkpt lat="45.08873" lon="5.23686">
        <ele>220.6</ele>
        <time>2022-05-07T12:05:40.000Z</time>
      </trkpt>
      <trkpt lat="45.08871" lon="5.23676">
        <ele>220.8</ele>
        <time>2022-05-07T12:05:41.000Z</time>
      </trkpt>
      <trkpt lat="45.08869" lon="5.23667">
        <ele>221</ele>
        <time>2022-05-07T12:05:42.000Z</time>
      </trkpt>
      <trkpt lat="45.08867" lon="5.23657">
        <ele>221</ele>
        <time>2022-05-07T12:05:43.000Z</time>
      </trkpt>
      <trkpt lat="45.08864" lon="5.23648">
        <ele>221</ele>
        <time>2022-05-07T12:05:44.000Z</time>
      </trkpt>
      <trkpt lat="45.08862" lon="5.23638">
        <ele>221</ele>
        <time>2022-05-07T12:05:45.000Z</time>
      </trkpt>
      <trkpt lat="45.0886" lon="5.23629">
        <ele>220.6</ele>
        <time>2022-05-07T12:05:46.000Z</time>
      </trkpt>
      <trkpt lat="45.08858" lon="5.2362">
        <ele>220.3</ele>
        <time>2022-05-07T12:05:47.000Z</time>
      </trkpt>
      <trkpt lat="45.08856" lon="5.2361">
        <ele>220</ele>
        <time>2022-05-07T12:05:48.000Z</time>
      </trkpt>
      <trkpt lat="45.08854" lon="5.23601">
        <ele>220</ele>
        <time>2022-05-07T12:05:49.000Z</time>
      </trkpt>
      <trkpt lat="45.08852" lon="5.23593">
        <ele>220</ele>
        <time>2022-05-07T12:05:50.000Z</time>
      </trkpt>
      <trkpt lat="45.08849" lon="5.23584">
        <ele>220</ele>
        <time>2022-05-07T12:05:51.000Z</time>
      </trkpt>
      <trkpt lat="45.08847" lon="5.23576">
        <ele>220</ele>
        <time>2022-05-07T12:05:52.000Z</time>
      </trkpt>
      <trkpt lat="45.08845" lon="5.23568">
        <ele>220</ele>
        <time>2022-05-07T12:05:53.000Z</time>
      </trkpt>
      <trkpt lat="45.08842" lon="5.2356">
        <ele>220</ele>
        <time>2022-05-07T12:05:54.000Z</time>
      </trkpt>
      <trkpt lat="45.0884" lon="5.23553">
        <ele>220.1</ele>
        <time>2022-05-07T12:05:55.000Z</time>
      </trkpt>
      <trkpt lat="45.08838" lon="5.23546">
        <ele>220.3</ele>
        <time>2022-05-07T12:05:56.000Z</time>
      </trkpt>
      <trkpt lat="45.08835" lon="5.23538">
        <ele>220.6</ele>
        <time>2022-05-07T12:05:57.000Z</time>
      </trkpt>
      <trkpt lat="45.08833" lon="5.2353">
        <ele>220.9</ele>
        <time>2022-05-07T12:05:58.000Z</time>
      </trkpt>
      <trkpt lat="45.08831" lon="5.23522">
        <ele>220.7</ele>
        <time>2022-05-07T12:05:59.000Z</time>
      </trkpt>
      <trkpt lat="45.08828" lon="5.23514">
        <ele>220.4</ele>
        <time>2022-05-07T12:06:00.000Z</time>
      </trkpt>
      <trkpt lat="45.08826" lon="5.23506">
        <ele>220.1</ele>
        <time>2022-05-07T12:06:01.000Z</time>
      </trkpt>
      <trkpt lat="45.08823" lon="5.23498">
        <ele>220</ele>
        <time>2022-05-07T12:06:02.000Z</time>
      </trkpt>
      <trkpt lat="45.0882" lon="5.2349">
        <ele>220</ele>
        <time>2022-05-07T12:06:03.000Z</time>
      </trkpt>
      <trkpt lat="45.08817" lon="5.23481">
        <ele>220</ele>
        <time>2022-05-07T12:06:04.000Z</time>
      </trkpt>
      <trkpt lat="45.08814" lon="5.23473">
        <ele>220</ele>
        <time>2022-05-07T12:06:05.000Z</time>
      </trkpt>
      <trkpt lat="45.08812" lon="5.23465">
        <ele>220</ele>
        <time>2022-05-07T12:06:06.000Z</time>
      </trkpt>
      <trkpt lat="45.08809" lon="5.23456">
        <ele>220</ele>
        <time>2022-05-07T12:06:07.000Z</time>
      </trkpt>
      <trkpt lat="45.08807" lon="5.23447">
        <ele>220</ele>
        <time>2022-05-07T12:06:08.000Z</time>
      </trkpt>
      <trkpt lat="45.08804" lon="5.23439">
        <ele>220</ele>
        <time>2022-05-07T12:06:09.000Z</time>
      </trkpt>
      <trkpt lat="45.08801" lon="5.2343">
        <ele>220</ele>
        <time>2022-05-07T12:06:10.000Z</time>
      </trkpt>
      <trkpt lat="45.08798" lon="5.23421">
        <ele>220</ele>
        <time>2022-05-07T12:06:11.000Z</time>
      </trkpt>
      <trkpt lat="45.08795" lon="5.23412">
        <ele>220</ele>
        <time>2022-05-07T12:06:12.000Z</time>
      </trkpt>
      <trkpt lat="45.08792" lon="5.23404">
        <ele>220</ele>
        <time>2022-05-07T12:06:13.000Z</time>
      </trkpt>
      <trkpt lat="45.0879" lon="5.23395">
        <ele>220</ele>
        <time>2022-05-07T12:06:14.000Z</time>
      </trkpt>
      <trkpt lat="45.08787" lon="5.23387">
        <ele>220</ele>
        <time>2022-05-07T12:06:15.000Z</time>
      </trkpt>
      <trkpt lat="45.08784" lon="5.23378">
        <ele>220</ele>
        <time>2022-05-07T12:06:16.000Z</time>
      </trkpt>
      <trkpt lat="45.08781" lon="5.2337">
        <ele>220</ele>
        <time>2022-05-07T12:06:17.000Z</time>
      </trkpt>
      <trkpt lat="45.08778" lon="5.23361">
        <ele>220</ele>
        <time>2022-05-07T12:06:18.000Z</time>
      </trkpt>
      <trkpt lat="45.08776" lon="5.23352">
        <ele>220</ele>
        <time>2022-05-07T12:06:19.000Z</time>
      </trkpt>
      <trkpt lat="45.08774" lon="5.23344">
        <ele>220</ele>
        <time>2022-05-07T12:06:20.000Z</time>
      </trkpt>
      <trkpt lat="45.08771" lon="5.23334">
        <ele>220</ele>
        <time>2022-05-07T12:06:21.000Z</time>
      </trkpt>
      <trkpt lat="45.08768" lon="5.23325">
        <ele>220</ele>
        <time>2022-05-07T12:06:22.000Z</time>
      </trkpt>
      <trkpt lat="45.08766" lon="5.23316">
        <ele>220</ele>
        <time>2022-05-07T12:06:23.000Z</time>
      </trkpt>
      <trkpt lat="45.08763" lon="5.23306">
        <ele>220</ele>
        <time>2022-05-07T12:06:24.000Z</time>
      </trkpt>
      <trkpt lat="45.08761" lon="5.23296">
        <ele>220</ele>
        <time>2022-05-07T12:06:25.000Z</time>
      </trkpt>
      <trkpt lat="45.08759" lon="5.23287">
        <ele>220</ele>
        <time>2022-05-07T12:06:26.000Z</time>
      </trkpt>
      <trkpt lat="45.08757" lon="5.23278">
        <ele>220</ele>
        <time>2022-05-07T12:06:27.000Z</time>
      </trkpt>
      <trkpt lat="45.08754" lon="5.2327">
        <ele>220</ele>
        <time>2022-05-07T12:06:28.000Z</time>
      </trkpt>
      <trkpt lat="45.08752" lon="5.23262">
        <ele>220</ele>
        <time>2022-05-07T12:06:29.000Z</time>
      </trkpt>
      <trkpt lat="45.0875" lon="5.23254">
        <ele>220</ele>
        <time>2022-05-07T12:06:30.000Z</time>
      </trkpt>
      <trkpt lat="45.08748" lon="5.23247">
        <ele>220</ele>
        <time>2022-05-07T12:06:31.000Z</time>
      </trkpt>
      <trkpt lat="45.08746" lon="5.23239">
        <ele>220</ele>
        <time>2022-05-07T12:06:32.000Z</time>
      </trkpt>
      <trkpt lat="45.08745" lon="5.23232">
        <ele>220</ele>
        <time>2022-05-07T12:06:33.000Z</time>
      </trkpt>
      <trkpt lat="45.08743" lon="5.23224">
        <ele>220</ele>
        <time>2022-05-07T12:06:34.000Z</time>
      </trkpt>
      <trkpt lat="45.08741" lon="5.23217">
        <ele>220</ele>
        <time>2022-05-07T12:06:35.000Z</time>
      </trkpt>
      <trkpt lat="45.0874" lon="5.2321">
        <ele>220</ele>
        <time>2022-05-07T12:06:36.000Z</time>
      </trkpt>
      <trkpt lat="45.08738" lon="5.23202">
        <ele>220</ele>
        <time>2022-05-07T12:06:37.000Z</time>
      </trkpt>
      <trkpt lat="45.08737" lon="5.23196">
        <ele>220</ele>
        <time>2022-05-07T12:06:38.000Z</time>
      </trkpt>
      <trkpt lat="45.08735" lon="5.2319">
        <ele>220</ele>
        <time>2022-05-07T12:06:39.000Z</time>
      </trkpt>
      <trkpt lat="45.08734" lon="5.23185">
        <ele>220</ele>
        <time>2022-05-07T12:06:40.000Z</time>
      </trkpt>
      <trkpt lat="45.08731" lon="5.23182">
        <ele>220</ele>
        <time>2022-05-07T12:06:41.000Z</time>
      </trkpt>
      <trkpt lat="45.08729" lon="5.2318">
        <ele>220</ele>
        <time>2022-05-07T12:06:42.000Z</time>
      </trkpt>
      <trkpt lat="45.08726" lon="5.2318">
        <ele>220</ele>
        <time>2022-05-07T12:06:43.000Z</time>
      </trkpt>
      <trkpt lat="45.08723" lon="5.23182">
        <ele>220</ele>
        <time>2022-05-07T12:06:44.000Z</time>
      </trkpt>
      <trkpt lat="45.0872" lon="5.23184">
        <ele>219.9</ele>
        <time>2022-05-07T12:06:45.000Z</time>
      </trkpt>
      <trkpt lat="45.08717" lon="5.23187">
        <ele>219.8</ele>
        <time>2022-05-07T12:06:46.000Z</time>
      </trkpt>
      <trkpt lat="45.08713" lon="5.23191">
        <ele>219.7</ele>
        <time>2022-05-07T12:06:47.000Z</time>
      </trkpt>
      <trkpt lat="45.0871" lon="5.23195">
        <ele>219.5</ele>
        <time>2022-05-07T12:06:48.000Z</time>
      </trkpt>
      <trkpt lat="45.08707" lon="5.23199">
        <ele>219.4</ele>
        <time>2022-05-07T12:06:49.000Z</time>
      </trkpt>
      <trkpt lat="45.08703" lon="5.23202">
        <ele>219.3</ele>
        <time>2022-05-07T12:06:50.000Z</time>
      </trkpt>
      <trkpt lat="45.08699" lon="5.23204">
        <ele>219.2</ele>
        <time>2022-05-07T12:06:51.000Z</time>
      </trkpt>
      <trkpt lat="45.08696" lon="5.23207">
        <ele>219</ele>
        <time>2022-05-07T12:06:52.000Z</time>
      </trkpt>
      <trkpt lat="45.08692" lon="5.2321">
        <ele>219</ele>
        <time>2022-05-07T12:06:53.000Z</time>
      </trkpt>
      <trkpt lat="45.08688" lon="5.23214">
        <ele>219</ele>
        <time>2022-05-07T12:06:54.000Z</time>
      </trkpt>
      <trkpt lat="45.08684" lon="5.23218">
        <ele>219</ele>
        <time>2022-05-07T12:06:55.000Z</time>
      </trkpt>
      <trkpt lat="45.0868" lon="5.23222">
        <ele>219</ele>
        <time>2022-05-07T12:06:56.000Z</time>
      </trkpt>
      <trkpt lat="45.08675" lon="5.23225">
        <ele>219</ele>
        <time>2022-05-07T12:06:57.000Z</time>
      </trkpt>
      <trkpt lat="45.0867" lon="5.2323">
        <ele>219</ele>
        <time>2022-05-07T12:06:58.000Z</time>
      </trkpt>
      <trkpt lat="45.08665" lon="5.23234">
        <ele>219</ele>
        <time>2022-05-07T12:06:59.000Z</time>
      </trkpt>
      <trkpt lat="45.08661" lon="5.23239">
        <ele>219</ele>
        <time>2022-05-07T12:07:00.000Z</time>
      </trkpt>
      <trkpt lat="45.08656" lon="5.23243">
        <ele>219</ele>
        <time>2022-05-07T12:07:01.000Z</time>
      </trkpt>
      <trkpt lat="45.08652" lon="5.23248">
        <ele>219</ele>
        <time>2022-05-07T12:07:02.000Z</time>
      </trkpt>
      <trkpt lat="45.08647" lon="5.23253">
        <ele>219</ele>
        <time>2022-05-07T12:07:03.000Z</time>
      </trkpt>
      <trkpt lat="45.08643" lon="5.23257">
        <ele>219</ele>
        <time>2022-05-07T12:07:04.000Z</time>
      </trkpt>
      <trkpt lat="45.08638" lon="5.23262">
        <ele>219</ele>
        <time>2022-05-07T12:07:05.000Z</time>
      </trkpt>
      <trkpt lat="45.08633" lon="5.23266">
        <ele>219</ele>
        <time>2022-05-07T12:07:06.000Z</time>
      </trkpt>
      <trkpt lat="45.08629" lon="5.2327">
        <ele>219</ele>
        <time>2022-05-07T12:07:07.000Z</time>
      </trkpt>
      <trkpt lat="45.08624" lon="5.23274">
        <ele>219</ele>
        <time>2022-05-07T12:07:08.000Z</time>
      </trkpt>
      <trkpt lat="45.0862" lon="5.23278">
        <ele>219</ele>
        <time>2022-05-07T12:07:09.000Z</time>
      </trkpt>
      <trkpt lat="45.08616" lon="5.23283">
        <ele>219</ele>
        <time>2022-05-07T12:07:10.000Z</time>
      </trkpt>
      <trkpt lat="45.08611" lon="5.23287">
        <ele>219</ele>
        <time>2022-05-07T12:07:11.000Z</time>
      </trkpt>
      <trkpt lat="45.08607" lon="5.23291">
        <ele>219</ele>
        <time>2022-05-07T12:07:12.000Z</time>
      </trkpt>
      <trkpt lat="45.08602" lon="5.23295">
        <ele>219</ele>
        <time>2022-05-07T12:07:13.000Z</time>
      </trkpt>
      <trkpt lat="45.08598" lon="5.23299">
        <ele>219</ele>
        <time>2022-05-07T12:07:14.000Z</time>
      </trkpt>
      <trkpt lat="45.08593" lon="5.23303">
        <ele>219</ele>
        <time>2022-05-07T12:07:15.000Z</time>
      </trkpt>
      <trkpt lat="45.08589" lon="5.23306">
        <ele>219</ele>
        <time>2022-05-07T12:07:16.000Z</time>
      </trkpt>
      <trkpt lat="45.08584" lon="5.2331">
        <ele>219</ele>
        <time>2022-05-07T12:07:17.000Z</time>
      </trkpt>
      <trkpt lat="45.08579" lon="5.23314">
        <ele>219</ele>
        <time>2022-05-07T12:07:18.000Z</time>
      </trkpt>
      <trkpt lat="45.08575" lon="5.23318">
        <ele>219</ele>
        <time>2022-05-07T12:07:19.000Z</time>
      </trkpt>
      <trkpt lat="45.08569" lon="5.23322">
        <ele>219</ele>
        <time>2022-05-07T12:07:20.000Z</time>
      </trkpt>
      <trkpt lat="45.08565" lon="5.23327">
        <ele>219</ele>
        <time>2022-05-07T12:07:21.000Z</time>
      </trkpt>
      <trkpt lat="45.08559" lon="5.23331">
        <ele>219</ele>
        <time>2022-05-07T12:07:22.000Z</time>
      </trkpt>
      <trkpt lat="45.08554" lon="5.23335">
        <ele>219</ele>
        <time>2022-05-07T12:07:23.000Z</time>
      </trkpt>
      <trkpt lat="45.08548" lon="5.23339">
        <ele>219</ele>
        <time>2022-05-07T12:07:24.000Z</time>
      </trkpt>
      <trkpt lat="45.08543" lon="5.23342">
        <ele>218.9</ele>
        <time>2022-05-07T12:07:25.000Z</time>
      </trkpt>
      <trkpt lat="45.08538" lon="5.23346">
        <ele>218.7</ele>
        <time>2022-05-07T12:07:26.000Z</time>
      </trkpt>
      <trkpt lat="45.08532" lon="5.2335">
        <ele>218.5</ele>
        <time>2022-05-07T12:07:27.000Z</time>
      </trkpt>
      <trkpt lat="45.08527" lon="5.23353">
        <ele>218.3</ele>
        <time>2022-05-07T12:07:28.000Z</time>
      </trkpt>
      <trkpt lat="45.08521" lon="5.23356">
        <ele>218.3</ele>
        <time>2022-05-07T12:07:29.000Z</time>
      </trkpt>
      <trkpt lat="45.08515" lon="5.2336">
        <ele>218.5</ele>
        <time>2022-05-07T12:07:30.000Z</time>
      </trkpt>
      <trkpt lat="45.08509" lon="5.23363">
        <ele>218.7</ele>
        <time>2022-05-07T12:07:31.000Z</time>
      </trkpt>
      <trkpt lat="45.08504" lon="5.23366">
        <ele>218.9</ele>
        <time>2022-05-07T12:07:32.000Z</time>
      </trkpt>
      <trkpt lat="45.08498" lon="5.23369">
        <ele>219</ele>
        <time>2022-05-07T12:07:33.000Z</time>
      </trkpt>
      <trkpt lat="45.08493" lon="5.23372">
        <ele>219</ele>
        <time>2022-05-07T12:07:34.000Z</time>
      </trkpt>
      <trkpt lat="45.08487" lon="5.23376">
        <ele>219</ele>
        <time>2022-05-07T12:07:35.000Z</time>
      </trkpt>
      <trkpt lat="45.08482" lon="5.23378">
        <ele>219</ele>
        <time>2022-05-07T12:07:36.000Z</time>
      </trkpt>
      <trkpt lat="45.08476" lon="5.23381">
        <ele>219</ele>
        <time>2022-05-07T12:07:37.000Z</time>
      </trkpt>
      <trkpt lat="45.08471" lon="5.23384">
        <ele>219</ele>
        <time>2022-05-07T12:07:38.000Z</time>
      </trkpt>
      <trkpt lat="45.08466" lon="5.23387">
        <ele>219</ele>
        <time>2022-05-07T12:07:39.000Z</time>
      </trkpt>
      <trkpt lat="45.08461" lon="5.23389">
        <ele>219</ele>
        <time>2022-05-07T12:07:40.000Z</time>
      </trkpt>
      <trkpt lat="45.08456" lon="5.23393">
        <ele>219</ele>
        <time>2022-05-07T12:07:41.000Z</time>
      </trkpt>
      <trkpt lat="45.08451" lon="5.23396">
        <ele>219</ele>
        <time>2022-05-07T12:07:42.000Z</time>
      </trkpt>
      <trkpt lat="45.08446" lon="5.23399">
        <ele>219</ele>
        <time>2022-05-07T12:07:43.000Z</time>
      </trkpt>
      <trkpt lat="45.08441" lon="5.23402">
        <ele>219</ele>
        <time>2022-05-07T12:07:44.000Z</time>
      </trkpt>
      <trkpt lat="45.08436" lon="5.23405">
        <ele>219</ele>
        <time>2022-05-07T12:07:45.000Z</time>
      </trkpt>
      <trkpt lat="45.08432" lon="5.23408">
        <ele>219</ele>
        <time>2022-05-07T12:07:46.000Z</time>
      </trkpt>
      <trkpt lat="45.08427" lon="5.23411">
        <ele>219</ele>
        <time>2022-05-07T12:07:47.000Z</time>
      </trkpt>
      <trkpt lat="45.08422" lon="5.23414">
        <ele>219</ele>
        <time>2022-05-07T12:07:48.000Z</time>
      </trkpt>
      <trkpt lat="45.08418" lon="5.23416">
        <ele>219</ele>
        <time>2022-05-07T12:07:49.000Z</time>
      </trkpt>
      <trkpt lat="45.08413" lon="5.23418">
        <ele>219</ele>
        <time>2022-05-07T12:07:50.000Z</time>
      </trkpt>
      <trkpt lat="45.08409" lon="5.2342">
        <ele>219</ele>
        <time>2022-05-07T12:07:51.000Z</time>
      </trkpt>
      <trkpt lat="45.08406" lon="5.23422">
        <ele>219</ele>
        <time>2022-05-07T12:07:52.000Z</time>
      </trkpt>
      <trkpt lat="45.08401" lon="5.23424">
        <ele>219</ele>
        <time>2022-05-07T12:07:53.000Z</time>
      </trkpt>
      <trkpt lat="45.08398" lon="5.23426">
        <ele>219</ele>
        <time>2022-05-07T12:07:54.000Z</time>
      </trkpt>
      <trkpt lat="45.08394" lon="5.23428">
        <ele>219</ele>
        <time>2022-05-07T12:07:55.000Z</time>
      </trkpt>
      <trkpt lat="45.08391" lon="5.23429">
        <ele>219</ele>
        <time>2022-05-07T12:07:56.000Z</time>
      </trkpt>
      <trkpt lat="45.08387" lon="5.23431">
        <ele>219</ele>
        <time>2022-05-07T12:07:57.000Z</time>
      </trkpt>
      <trkpt lat="45.08384" lon="5.23432">
        <ele>219</ele>
        <time>2022-05-07T12:07:58.000Z</time>
      </trkpt>
      <trkpt lat="45.08381" lon="5.23434">
        <ele>219</ele>
        <time>2022-05-07T12:07:59.000Z</time>
      </trkpt>
      <trkpt lat="45.08377" lon="5.23435">
        <ele>219</ele>
        <time>2022-05-07T12:08:00.000Z</time>
      </trkpt>
      <trkpt lat="45.08374" lon="5.23436">
        <ele>219</ele>
        <time>2022-05-07T12:08:01.000Z</time>
      </trkpt>
      <trkpt lat="45.0837" lon="5.23436">
        <ele>219</ele>
        <time>2022-05-07T12:08:02.000Z</time>
      </trkpt>
      <trkpt lat="45.08367" lon="5.23437">
        <ele>219</ele>
        <time>2022-05-07T12:08:03.000Z</time>
      </trkpt>
      <trkpt lat="45.08363" lon="5.23439">
        <ele>219</ele>
        <time>2022-05-07T12:08:04.000Z</time>
      </trkpt>
      <trkpt lat="45.0836" lon="5.2344">
        <ele>219</ele>
        <time>2022-05-07T12:08:05.000Z</time>
      </trkpt>
      <trkpt lat="45.08356" lon="5.23442">
        <ele>218.8</ele>
        <time>2022-05-07T12:08:06.000Z</time>
      </trkpt>
      <trkpt lat="45.08351" lon="5.23443">
        <ele>218.7</ele>
        <time>2022-05-07T12:08:07.000Z</time>
      </trkpt>
      <trkpt lat="45.08347" lon="5.23445">
        <ele>218.5</ele>
        <time>2022-05-07T12:08:08.000Z</time>
      </trkpt>
      <trkpt lat="45.08342" lon="5.23446">
        <ele>218.3</ele>
        <time>2022-05-07T12:08:09.000Z</time>
      </trkpt>
      <trkpt lat="45.08337" lon="5.23449">
        <ele>218.2</ele>
        <time>2022-05-07T12:08:10.000Z</time>
      </trkpt>
      <trkpt lat="45.08332" lon="5.23451">
        <ele>218.1</ele>
        <time>2022-05-07T12:08:11.000Z</time>
      </trkpt>
      <trkpt lat="45.08326" lon="5.23454">
        <ele>217.8</ele>
        <time>2022-05-07T12:08:12.000Z</time>
      </trkpt>
      <trkpt lat="45.0832" lon="5.23457">
        <ele>217.5</ele>
        <time>2022-05-07T12:08:13.000Z</time>
      </trkpt>
      <trkpt lat="45.08314" lon="5.23459">
        <ele>217.2</ele>
        <time>2022-05-07T12:08:14.000Z</time>
      </trkpt>
      <trkpt lat="45.08308" lon="5.23461">
        <ele>216.8</ele>
        <time>2022-05-07T12:08:15.000Z</time>
      </trkpt>
      <trkpt lat="45.08302" lon="5.23463">
        <ele>216.4</ele>
        <time>2022-05-07T12:08:16.000Z</time>
      </trkpt>
      <trkpt lat="45.08295" lon="5.23466">
        <ele>216.1</ele>
        <time>2022-05-07T12:08:17.000Z</time>
      </trkpt>
      <trkpt lat="45.08288" lon="5.23468">
        <ele>215.7</ele>
        <time>2022-05-07T12:08:18.000Z</time>
      </trkpt>
      <trkpt lat="45.0828" lon="5.23471">
        <ele>215.2</ele>
        <time>2022-05-07T12:08:19.000Z</time>
      </trkpt>
      <trkpt lat="45.08273" lon="5.23473">
        <ele>214.6</ele>
        <time>2022-05-07T12:08:20.000Z</time>
      </trkpt>
      <trkpt lat="45.08265" lon="5.23475">
        <ele>214</ele>
        <time>2022-05-07T12:08:21.000Z</time>
      </trkpt>
      <trkpt lat="45.08257" lon="5.23478">
        <ele>213.3</ele>
        <time>2022-05-07T12:08:22.000Z</time>
      </trkpt>
      <trkpt lat="45.08249" lon="5.23481">
        <ele>212.6</ele>
        <time>2022-05-07T12:08:23.000Z</time>
      </trkpt>
      <trkpt lat="45.08241" lon="5.23483">
        <ele>211.7</ele>
        <time>2022-05-07T12:08:24.000Z</time>
      </trkpt>
      <trkpt lat="45.08232" lon="5.23484">
        <ele>210.9</ele>
        <time>2022-05-07T12:08:25.000Z</time>
      </trkpt>
      <trkpt lat="45.08222" lon="5.23483">
        <ele>210</ele>
        <time>2022-05-07T12:08:26.000Z</time>
      </trkpt>
      <trkpt lat="45.08213" lon="5.2348">
        <ele>209.6</ele>
        <time>2022-05-07T12:08:27.000Z</time>
      </trkpt>
      <trkpt lat="45.08203" lon="5.23476">
        <ele>209.2</ele>
        <time>2022-05-07T12:08:28.000Z</time>
      </trkpt>
      <trkpt lat="45.08194" lon="5.23471">
        <ele>208.9</ele>
        <time>2022-05-07T12:08:29.000Z</time>
      </trkpt>
      <trkpt lat="45.08185" lon="5.23464">
        <ele>208.3</ele>
        <time>2022-05-07T12:08:30.000Z</time>
      </trkpt>
      <trkpt lat="45.08177" lon="5.23458">
        <ele>208</ele>
        <time>2022-05-07T12:08:31.000Z</time>
      </trkpt>
      <trkpt lat="45.08168" lon="5.23451">
        <ele>208</ele>
        <time>2022-05-07T12:08:32.000Z</time>
      </trkpt>
      <trkpt lat="45.0816" lon="5.23444">
        <ele>207.7</ele>
        <time>2022-05-07T12:08:33.000Z</time>
      </trkpt>
      <trkpt lat="45.08151" lon="5.23437">
        <ele>207.3</ele>
        <time>2022-05-07T12:08:34.000Z</time>
      </trkpt>
      <trkpt lat="45.08143" lon="5.2343">
        <ele>207.1</ele>
        <time>2022-05-07T12:08:35.000Z</time>
      </trkpt>
      <trkpt lat="45.08135" lon="5.23424">
        <ele>207</ele>
        <time>2022-05-07T12:08:36.000Z</time>
      </trkpt>
      <trkpt lat="45.08128" lon="5.23418">
        <ele>207</ele>
        <time>2022-05-07T12:08:37.000Z</time>
      </trkpt>
      <trkpt lat="45.08119" lon="5.23412">
        <ele>207</ele>
        <time>2022-05-07T12:08:38.000Z</time>
      </trkpt>
      <trkpt lat="45.08112" lon="5.23407">
        <ele>207</ele>
        <time>2022-05-07T12:08:39.000Z</time>
      </trkpt>
      <trkpt lat="45.08104" lon="5.23401">
        <ele>206.8</ele>
        <time>2022-05-07T12:08:40.000Z</time>
      </trkpt>
      <trkpt lat="45.08097" lon="5.23395">
        <ele>206.5</ele>
        <time>2022-05-07T12:08:41.000Z</time>
      </trkpt>
      <trkpt lat="45.0809" lon="5.2339">
        <ele>206.2</ele>
        <time>2022-05-07T12:08:42.000Z</time>
      </trkpt>
      <trkpt lat="45.08083" lon="5.23385">
        <ele>206</ele>
        <time>2022-05-07T12:08:43.000Z</time>
      </trkpt>
      <trkpt lat="45.08076" lon="5.2338">
        <ele>206</ele>
        <time>2022-05-07T12:08:44.000Z</time>
      </trkpt>
      <trkpt lat="45.08069" lon="5.23375">
        <ele>206</ele>
        <time>2022-05-07T12:08:45.000Z</time>
      </trkpt>
      <trkpt lat="45.08062" lon="5.2337">
        <ele>206</ele>
        <time>2022-05-07T12:08:46.000Z</time>
      </trkpt>
      <trkpt lat="45.08055" lon="5.23365">
        <ele>206</ele>
        <time>2022-05-07T12:08:47.000Z</time>
      </trkpt>
      <trkpt lat="45.08048" lon="5.2336">
        <ele>206</ele>
        <time>2022-05-07T12:08:48.000Z</time>
      </trkpt>
      <trkpt lat="45.08041" lon="5.23355">
        <ele>206</ele>
        <time>2022-05-07T12:08:49.000Z</time>
      </trkpt>
      <trkpt lat="45.08034" lon="5.2335">
        <ele>206</ele>
        <time>2022-05-07T12:08:50.000Z</time>
      </trkpt>
      <trkpt lat="45.08028" lon="5.23345">
        <ele>206</ele>
        <time>2022-05-07T12:08:51.000Z</time>
      </trkpt>
      <trkpt lat="45.08022" lon="5.2334">
        <ele>206</ele>
        <time>2022-05-07T12:08:52.000Z</time>
      </trkpt>
      <trkpt lat="45.08016" lon="5.23336">
        <ele>206</ele>
        <time>2022-05-07T12:08:53.000Z</time>
      </trkpt>
      <trkpt lat="45.0801" lon="5.23331">
        <ele>206</ele>
        <time>2022-05-07T12:08:54.000Z</time>
      </trkpt>
      <trkpt lat="45.08004" lon="5.23326">
        <ele>206</ele>
        <time>2022-05-07T12:08:55.000Z</time>
      </trkpt>
      <trkpt lat="45.07998" lon="5.23322">
        <ele>206</ele>
        <time>2022-05-07T12:08:56.000Z</time>
      </trkpt>
      <trkpt lat="45.07992" lon="5.23317">
        <ele>206</ele>
        <time>2022-05-07T12:08:57.000Z</time>
      </trkpt>
      <trkpt lat="45.07987" lon="5.23312">
        <ele>206</ele>
        <time>2022-05-07T12:08:58.000Z</time>
      </trkpt>
      <trkpt lat="45.07981" lon="5.23308">
        <ele>206</ele>
        <time>2022-05-07T12:08:59.000Z</time>
      </trkpt>
      <trkpt lat="45.07976" lon="5.23303">
        <ele>206</ele>
        <time>2022-05-07T12:09:00.000Z</time>
      </trkpt>
      <trkpt lat="45.0797" lon="5.23299">
        <ele>206</ele>
        <time>2022-05-07T12:09:01.000Z</time>
      </trkpt>
      <trkpt lat="45.07965" lon="5.23294">
        <ele>205.9</ele>
        <time>2022-05-07T12:09:02.000Z</time>
      </trkpt>
      <trkpt lat="45.0796" lon="5.23289">
        <ele>205.7</ele>
        <time>2022-05-07T12:09:03.000Z</time>
      </trkpt>
      <trkpt lat="45.07955" lon="5.23284">
        <ele>205.5</ele>
        <time>2022-05-07T12:09:04.000Z</time>
      </trkpt>
      <trkpt lat="45.07951" lon="5.2328">
        <ele>205.3</ele>
        <time>2022-05-07T12:09:05.000Z</time>
      </trkpt>
      <trkpt lat="45.07948" lon="5.23277">
        <ele>205.1</ele>
        <time>2022-05-07T12:09:06.000Z</time>
      </trkpt>
      <trkpt lat="45.07947" lon="5.23273">
        <ele>205.1</ele>
        <time>2022-05-07T12:09:07.000Z</time>
      </trkpt>
      <trkpt lat="45.07946" lon="5.2327">
        <ele>205.1</ele>
        <time>2022-05-07T12:09:08.000Z</time>
      </trkpt>
      <trkpt lat="45.07947" lon="5.23266">
        <ele>205.1</ele>
        <time>2022-05-07T12:09:09.000Z</time>
      </trkpt>
      <trkpt lat="45.07949" lon="5.23261">
        <ele>205.2</ele>
        <time>2022-05-07T12:09:10.000Z</time>
      </trkpt>
      <trkpt lat="45.07951" lon="5.23257">
        <ele>205.2</ele>
        <time>2022-05-07T12:09:11.000Z</time>
      </trkpt>
      <trkpt lat="45.07954" lon="5.23252">
        <ele>205.3</ele>
        <time>2022-05-07T12:09:12.000Z</time>
      </trkpt>
      <trkpt lat="45.07956" lon="5.23246">
        <ele>205.3</ele>
        <time>2022-05-07T12:09:13.000Z</time>
      </trkpt>
      <trkpt lat="45.07959" lon="5.2324">
        <ele>205.1</ele>
        <time>2022-05-07T12:09:14.000Z</time>
      </trkpt>
      <trkpt lat="45.07961" lon="5.23233">
        <ele>205</ele>
        <time>2022-05-07T12:09:15.000Z</time>
      </trkpt>
      <trkpt lat="45.07963" lon="5.23226">
        <ele>204.8</ele>
        <time>2022-05-07T12:09:16.000Z</time>
      </trkpt>
      <trkpt lat="45.07966" lon="5.2322">
        <ele>204.8</ele>
        <time>2022-05-07T12:09:17.000Z</time>
      </trkpt>
      <trkpt lat="45.07968" lon="5.23214">
        <ele>205.1</ele>
        <time>2022-05-07T12:09:18.000Z</time>
      </trkpt>
      <trkpt lat="45.07971" lon="5.23207">
        <ele>205.5</ele>
        <time>2022-05-07T12:09:19.000Z</time>
      </trkpt>
      <trkpt lat="45.07974" lon="5.23202">
        <ele>205.7</ele>
        <time>2022-05-07T12:09:20.000Z</time>
      </trkpt>
      <trkpt lat="45.07977" lon="5.23196">
        <ele>205.8</ele>
        <time>2022-05-07T12:09:21.000Z</time>
      </trkpt>
      <trkpt lat="45.07979" lon="5.2319">
        <ele>205.6</ele>
        <time>2022-05-07T12:09:22.000Z</time>
      </trkpt>
      <trkpt lat="45.07982" lon="5.23184">
        <ele>205.4</ele>
        <time>2022-05-07T12:09:23.000Z</time>
      </trkpt>
      <trkpt lat="45.07985" lon="5.23176">
        <ele>205.2</ele>
        <time>2022-05-07T12:09:24.000Z</time>
      </trkpt>
      <trkpt lat="45.07988" lon="5.23168">
        <ele>205</ele>
        <time>2022-05-07T12:09:25.000Z</time>
      </trkpt>
      <trkpt lat="45.0799" lon="5.2316">
        <ele>204.9</ele>
        <time>2022-05-07T12:09:26.000Z</time>
      </trkpt>
      <trkpt lat="45.07993" lon="5.23153">
        <ele>204.9</ele>
        <time>2022-05-07T12:09:27.000Z</time>
      </trkpt>
      <trkpt lat="45.07996" lon="5.23146">
        <ele>204.9</ele>
        <time>2022-05-07T12:09:28.000Z</time>
      </trkpt>
      <trkpt lat="45.07999" lon="5.23138">
        <ele>204.9</ele>
        <time>2022-05-07T12:09:29.000Z</time>
      </trkpt>
      <trkpt lat="45.08001" lon="5.2313">
        <ele>205</ele>
        <time>2022-05-07T12:09:30.000Z</time>
      </trkpt>
      <trkpt lat="45.08004" lon="5.23123">
        <ele>204.9</ele>
        <time>2022-05-07T12:09:31.000Z</time>
      </trkpt>
      <trkpt lat="45.08006" lon="5.23116">
        <ele>204.8</ele>
        <time>2022-05-07T12:09:32.000Z</time>
      </trkpt>
      <trkpt lat="45.08009" lon="5.23109">
        <ele>204.6</ele>
        <time>2022-05-07T12:09:33.000Z</time>
      </trkpt>
      <trkpt lat="45.08012" lon="5.23102">
        <ele>204.2</ele>
        <time>2022-05-07T12:09:34.000Z</time>
      </trkpt>
      <trkpt lat="45.08014" lon="5.23095">
        <ele>203.9</ele>
        <time>2022-05-07T12:09:35.000Z</time>
      </trkpt>
      <trkpt lat="45.08016" lon="5.23088">
        <ele>203.7</ele>
        <time>2022-05-07T12:09:36.000Z</time>
      </trkpt>
      <trkpt lat="45.08019" lon="5.2308">
        <ele>203.6</ele>
        <time>2022-05-07T12:09:37.000Z</time>
      </trkpt>
      <trkpt lat="45.0802" lon="5.23072">
        <ele>203.6</ele>
        <time>2022-05-07T12:09:38.000Z</time>
      </trkpt>
      <trkpt lat="45.08022" lon="5.23065">
        <ele>203.6</ele>
        <time>2022-05-07T12:09:39.000Z</time>
      </trkpt>
      <trkpt lat="45.08023" lon="5.23058">
        <ele>203.7</ele>
        <time>2022-05-07T12:09:40.000Z</time>
      </trkpt>
      <trkpt lat="45.08025" lon="5.2305">
        <ele>203.7</ele>
        <time>2022-05-07T12:09:41.000Z</time>
      </trkpt>
      <trkpt lat="45.08027" lon="5.23044">
        <ele>203.9</ele>
        <time>2022-05-07T12:09:42.000Z</time>
      </trkpt>
      <trkpt lat="45.08028" lon="5.23036">
        <ele>204</ele>
        <time>2022-05-07T12:09:43.000Z</time>
      </trkpt>
      <trkpt lat="45.0803" lon="5.23029">
        <ele>204</ele>
        <time>2022-05-07T12:09:44.000Z</time>
      </trkpt>
      <trkpt lat="45.08032" lon="5.23022">
        <ele>203.8</ele>
        <time>2022-05-07T12:09:45.000Z</time>
      </trkpt>
      <trkpt lat="45.08033" lon="5.23014">
        <ele>203.6</ele>
        <time>2022-05-07T12:09:46.000Z</time>
      </trkpt>
      <trkpt lat="45.08035" lon="5.23005">
        <ele>203.4</ele>
        <time>2022-05-07T12:09:47.000Z</time>
      </trkpt>
      <trkpt lat="45.08037" lon="5.22997">
        <ele>203.3</ele>
        <time>2022-05-07T12:09:48.000Z</time>
      </trkpt>
      <trkpt lat="45.08038" lon="5.22988">
        <ele>203.1</ele>
        <time>2022-05-07T12:09:49.000Z</time>
      </trkpt>
      <trkpt lat="45.08039" lon="5.22979">
        <ele>203</ele>
        <time>2022-05-07T12:09:50.000Z</time>
      </trkpt>
      <trkpt lat="45.0804" lon="5.2297">
        <ele>202.8</ele>
        <time>2022-05-07T12:09:51.000Z</time>
      </trkpt>
      <trkpt lat="45.08042" lon="5.22961">
        <ele>202.8</ele>
        <time>2022-05-07T12:09:52.000Z</time>
      </trkpt>
      <trkpt lat="45.08043" lon="5.22953">
        <ele>202.7</ele>
        <time>2022-05-07T12:09:53.000Z</time>
      </trkpt>
      <trkpt lat="45.08044" lon="5.22944">
        <ele>202.6</ele>
        <time>2022-05-07T12:09:54.000Z</time>
      </trkpt>
      <trkpt lat="45.08046" lon="5.22935">
        <ele>202.5</ele>
        <time>2022-05-07T12:09:55.000Z</time>
      </trkpt>
      <trkpt lat="45.08048" lon="5.22926">
        <ele>202.6</ele>
        <time>2022-05-07T12:09:56.000Z</time>
      </trkpt>
      <trkpt lat="45.08051" lon="5.22918">
        <ele>202.7</ele>
        <time>2022-05-07T12:09:57.000Z</time>
      </trkpt>
      <trkpt lat="45.08053" lon="5.2291">
        <ele>202.6</ele>
        <time>2022-05-07T12:09:58.000Z</time>
      </trkpt>
      <trkpt lat="45.08056" lon="5.22902">
        <ele>202.5</ele>
        <time>2022-05-07T12:09:59.000Z</time>
      </trkpt>
      <trkpt lat="45.08059" lon="5.22895">
        <ele>202.5</ele>
        <time>2022-05-07T12:10:00.000Z</time>
      </trkpt>
      <trkpt lat="45.08061" lon="5.22887">
        <ele>202.3</ele>
        <time>2022-05-07T12:10:01.000Z</time>
      </trkpt>
      <trkpt lat="45.08065" lon="5.2288">
        <ele>202.1</ele>
        <time>2022-05-07T12:10:02.000Z</time>
      </trkpt>
      <trkpt lat="45.08068" lon="5.22873">
        <ele>202</ele>
        <time>2022-05-07T12:10:03.000Z</time>
      </trkpt>
      <trkpt lat="45.0807" lon="5.22865">
        <ele>201.8</ele>
        <time>2022-05-07T12:10:04.000Z</time>
      </trkpt>
      <trkpt lat="45.08073" lon="5.22858">
        <ele>201.7</ele>
        <time>2022-05-07T12:10:05.000Z</time>
      </trkpt>
      <trkpt lat="45.08076" lon="5.22851">
        <ele>201.8</ele>
        <time>2022-05-07T12:10:06.000Z</time>
      </trkpt>
      <trkpt lat="45.08078" lon="5.22844">
        <ele>201.8</ele>
        <time>2022-05-07T12:10:07.000Z</time>
      </trkpt>
      <trkpt lat="45.08081" lon="5.22838">
        <ele>201.9</ele>
        <time>2022-05-07T12:10:08.000Z</time>
      </trkpt>
      <trkpt lat="45.08083" lon="5.22832">
        <ele>201.9</ele>
        <time>2022-05-07T12:10:09.000Z</time>
      </trkpt>
      <trkpt lat="45.08086" lon="5.22826">
        <ele>201.9</ele>
        <time>2022-05-07T12:10:10.000Z</time>
      </trkpt>
      <trkpt lat="45.08089" lon="5.22819">
        <ele>201.8</ele>
        <time>2022-05-07T12:10:11.000Z</time>
      </trkpt>
      <trkpt lat="45.08091" lon="5.22812">
        <ele>201.8</ele>
        <time>2022-05-07T12:10:12.000Z</time>
      </trkpt>
      <trkpt lat="45.08095" lon="5.22805">
        <ele>201.7</ele>
        <time>2022-05-07T12:10:13.000Z</time>
      </trkpt>
      <trkpt lat="45.08097" lon="5.22797">
        <ele>201.4</ele>
        <time>2022-05-07T12:10:14.000Z</time>
      </trkpt>
      <trkpt lat="45.081" lon="5.22789">
        <ele>201.1</ele>
        <time>2022-05-07T12:10:15.000Z</time>
      </trkpt>
      <trkpt lat="45.08104" lon="5.22781">
        <ele>201.2</ele>
        <time>2022-05-07T12:10:16.000Z</time>
      </trkpt>
      <trkpt lat="45.08108" lon="5.22774">
        <ele>201.2</ele>
        <time>2022-05-07T12:10:17.000Z</time>
      </trkpt>
      <trkpt lat="45.08111" lon="5.22767">
        <ele>201.2</ele>
        <time>2022-05-07T12:10:18.000Z</time>
      </trkpt>
      <trkpt lat="45.08115" lon="5.22759">
        <ele>201</ele>
        <time>2022-05-07T12:10:19.000Z</time>
      </trkpt>
      <trkpt lat="45.08119" lon="5.22751">
        <ele>200.9</ele>
        <time>2022-05-07T12:10:20.000Z</time>
      </trkpt>
      <trkpt lat="45.08123" lon="5.22744">
        <ele>200.2</ele>
        <time>2022-05-07T12:10:21.000Z</time>
      </trkpt>
      <trkpt lat="45.08127" lon="5.22735">
        <ele>199.1</ele>
        <time>2022-05-07T12:10:22.000Z</time>
      </trkpt>
      <trkpt lat="45.08132" lon="5.22727">
        <ele>198.1</ele>
        <time>2022-05-07T12:10:23.000Z</time>
      </trkpt>
      <trkpt lat="45.08138" lon="5.22719">
        <ele>197.6</ele>
        <time>2022-05-07T12:10:24.000Z</time>
      </trkpt>
      <trkpt lat="45.08143" lon="5.22711">
        <ele>198</ele>
        <time>2022-05-07T12:10:25.000Z</time>
      </trkpt>
      <trkpt lat="45.08149" lon="5.22703">
        <ele>198.3</ele>
        <time>2022-05-07T12:10:26.000Z</time>
      </trkpt>
      <trkpt lat="45.08154" lon="5.22695">
        <ele>198.3</ele>
        <time>2022-05-07T12:10:27.000Z</time>
      </trkpt>
      <trkpt lat="45.0816" lon="5.22686">
        <ele>197.9</ele>
        <time>2022-05-07T12:10:28.000Z</time>
      </trkpt>
      <trkpt lat="45.08166" lon="5.22679">
        <ele>197.6</ele>
        <time>2022-05-07T12:10:29.000Z</time>
      </trkpt>
      <trkpt lat="45.08172" lon="5.22671">
        <ele>197.3</ele>
        <time>2022-05-07T12:10:30.000Z</time>
      </trkpt>
      <trkpt lat="45.08177" lon="5.22662">
        <ele>196.9</ele>
        <time>2022-05-07T12:10:31.000Z</time>
      </trkpt>
      <trkpt lat="45.08183" lon="5.22654">
        <ele>196.4</ele>
        <time>2022-05-07T12:10:32.000Z</time>
      </trkpt>
      <trkpt lat="45.08189" lon="5.22645">
        <ele>195.6</ele>
        <time>2022-05-07T12:10:33.000Z</time>
      </trkpt>
      <trkpt lat="45.08195" lon="5.22636">
        <ele>194.8</ele>
        <time>2022-05-07T12:10:34.000Z</time>
      </trkpt>
      <trkpt lat="45.08201" lon="5.22628">
        <ele>194.7</ele>
        <time>2022-05-07T12:10:35.000Z</time>
      </trkpt>
      <trkpt lat="45.08207" lon="5.22619">
        <ele>194.4</ele>
        <time>2022-05-07T12:10:36.000Z</time>
      </trkpt>
      <trkpt lat="45.08213" lon="5.22611">
        <ele>194</ele>
        <time>2022-05-07T12:10:37.000Z</time>
      </trkpt>
      <trkpt lat="45.08219" lon="5.22603">
        <ele>194.1</ele>
        <time>2022-05-07T12:10:38.000Z</time>
      </trkpt>
      <trkpt lat="45.08226" lon="5.22595">
        <ele>194</ele>
        <time>2022-05-07T12:10:39.000Z</time>
      </trkpt>
      <trkpt lat="45.08232" lon="5.22587">
        <ele>193.6</ele>
        <time>2022-05-07T12:10:40.000Z</time>
      </trkpt>
      <trkpt lat="45.08238" lon="5.22578">
        <ele>193.3</ele>
        <time>2022-05-07T12:10:41.000Z</time>
      </trkpt>
      <trkpt lat="45.08243" lon="5.2257">
        <ele>193.2</ele>
        <time>2022-05-07T12:10:42.000Z</time>
      </trkpt>
      <trkpt lat="45.08249" lon="5.22563">
        <ele>193.2</ele>
        <time>2022-05-07T12:10:43.000Z</time>
      </trkpt>
      <trkpt lat="45.08255" lon="5.22556">
        <ele>193.2</ele>
        <time>2022-05-07T12:10:44.000Z</time>
      </trkpt>
      <trkpt lat="45.0826" lon="5.2255">
        <ele>192.9</ele>
        <time>2022-05-07T12:10:45.000Z</time>
      </trkpt>
      <trkpt lat="45.08265" lon="5.22543">
        <ele>192.7</ele>
        <time>2022-05-07T12:10:46.000Z</time>
      </trkpt>
      <trkpt lat="45.08271" lon="5.22537">
        <ele>192.4</ele>
        <time>2022-05-07T12:10:47.000Z</time>
      </trkpt>
      <trkpt lat="45.08276" lon="5.22531">
        <ele>192.2</ele>
        <time>2022-05-07T12:10:48.000Z</time>
      </trkpt>
      <trkpt lat="45.0828" lon="5.22525">
        <ele>192.1</ele>
        <time>2022-05-07T12:10:49.000Z</time>
      </trkpt>
      <trkpt lat="45.08285" lon="5.22519">
        <ele>192.2</ele>
        <time>2022-05-07T12:10:50.000Z</time>
      </trkpt>
      <trkpt lat="45.08289" lon="5.22511">
        <ele>192.4</ele>
        <time>2022-05-07T12:10:51.000Z</time>
      </trkpt>
      <trkpt lat="45.08293" lon="5.22504">
        <ele>192.5</ele>
        <time>2022-05-07T12:10:52.000Z</time>
      </trkpt>
      <trkpt lat="45.08296" lon="5.22498">
        <ele>192.7</ele>
        <time>2022-05-07T12:10:53.000Z</time>
      </trkpt>
      <trkpt lat="45.083" lon="5.22491">
        <ele>192.8</ele>
        <time>2022-05-07T12:10:54.000Z</time>
      </trkpt>
      <trkpt lat="45.08304" lon="5.22484">
        <ele>192.9</ele>
        <time>2022-05-07T12:10:55.000Z</time>
      </trkpt>
      <trkpt lat="45.08306" lon="5.22477">
        <ele>193</ele>
        <time>2022-05-07T12:10:56.000Z</time>
      </trkpt>
      <trkpt lat="45.08309" lon="5.22469">
        <ele>193</ele>
        <time>2022-05-07T12:10:57.000Z</time>
      </trkpt>
      <trkpt lat="45.08311" lon="5.22462">
        <ele>193</ele>
        <time>2022-05-07T12:10:58.000Z</time>
      </trkpt>
      <trkpt lat="45.08314" lon="5.22454">
        <ele>193</ele>
        <time>2022-05-07T12:10:59.000Z</time>
      </trkpt>
      <trkpt lat="45.08316" lon="5.22446">
        <ele>193</ele>
        <time>2022-05-07T12:11:00.000Z</time>
      </trkpt>
      <trkpt lat="45.08318" lon="5.22439">
        <ele>192.9</ele>
        <time>2022-05-07T12:11:01.000Z</time>
      </trkpt>
      <trkpt lat="45.0832" lon="5.22431">
        <ele>192.8</ele>
        <time>2022-05-07T12:11:02.000Z</time>
      </trkpt>
      <trkpt lat="45.08322" lon="5.22423">
        <ele>192.7</ele>
        <time>2022-05-07T12:11:03.000Z</time>
      </trkpt>
      <trkpt lat="45.08324" lon="5.22415">
        <ele>192.6</ele>
        <time>2022-05-07T12:11:04.000Z</time>
      </trkpt>
      <trkpt lat="45.08326" lon="5.22407">
        <ele>192.7</ele>
        <time>2022-05-07T12:11:05.000Z</time>
      </trkpt>
      <trkpt lat="45.08328" lon="5.22399">
        <ele>192.8</ele>
        <time>2022-05-07T12:11:06.000Z</time>
      </trkpt>
      <trkpt lat="45.0833" lon="5.22392">
        <ele>192.9</ele>
        <time>2022-05-07T12:11:07.000Z</time>
      </trkpt>
      <trkpt lat="45.08331" lon="5.22384">
        <ele>192.9</ele>
        <time>2022-05-07T12:11:08.000Z</time>
      </trkpt>
      <trkpt lat="45.08333" lon="5.22376">
        <ele>193</ele>
        <time>2022-05-07T12:11:09.000Z</time>
      </trkpt>
      <trkpt lat="45.08334" lon="5.22368">
        <ele>193</ele>
        <time>2022-05-07T12:11:10.000Z</time>
      </trkpt>
      <trkpt lat="45.08334" lon="5.2236">
        <ele>193</ele>
        <time>2022-05-07T12:11:11.000Z</time>
      </trkpt>
      <trkpt lat="45.08335" lon="5.22353">
        <ele>193</ele>
        <time>2022-05-07T12:11:12.000Z</time>
      </trkpt>
      <trkpt lat="45.08335" lon="5.22345">
        <ele>193</ele>
        <time>2022-05-07T12:11:13.000Z</time>
      </trkpt>
      <trkpt lat="45.08336" lon="5.22337">
        <ele>193</ele>
        <time>2022-05-07T12:11:14.000Z</time>
      </trkpt>
      <trkpt lat="45.08337" lon="5.22329">
        <ele>193.1</ele>
        <time>2022-05-07T12:11:15.000Z</time>
      </trkpt>
      <trkpt lat="45.08338" lon="5.22322">
        <ele>193.4</ele>
        <time>2022-05-07T12:11:16.000Z</time>
      </trkpt>
      <trkpt lat="45.08338" lon="5.22314">
        <ele>193.6</ele>
        <time>2022-05-07T12:11:17.000Z</time>
      </trkpt>
      <trkpt lat="45.0834" lon="5.22306">
        <ele>193.8</ele>
        <time>2022-05-07T12:11:18.000Z</time>
      </trkpt>
      <trkpt lat="45.08341" lon="5.22298">
        <ele>193.5</ele>
        <time>2022-05-07T12:11:19.000Z</time>
      </trkpt>
      <trkpt lat="45.08342" lon="5.22291">
        <ele>193.3</ele>
        <time>2022-05-07T12:11:20.000Z</time>
      </trkpt>
      <trkpt lat="45.08343" lon="5.22283">
        <ele>193.1</ele>
        <time>2022-05-07T12:11:21.000Z</time>
      </trkpt>
      <trkpt lat="45.08345" lon="5.22276">
        <ele>193</ele>
        <time>2022-05-07T12:11:22.000Z</time>
      </trkpt>
      <trkpt lat="45.08346" lon="5.22269">
        <ele>192.8</ele>
        <time>2022-05-07T12:11:23.000Z</time>
      </trkpt>
      <trkpt lat="45.08348" lon="5.22262">
        <ele>192.7</ele>
        <time>2022-05-07T12:11:24.000Z</time>
      </trkpt>
      <trkpt lat="45.0835" lon="5.22256">
        <ele>192.7</ele>
        <time>2022-05-07T12:11:25.000Z</time>
      </trkpt>
      <trkpt lat="45.08352" lon="5.22249">
        <ele>192.7</ele>
        <time>2022-05-07T12:11:26.000Z</time>
      </trkpt>
      <trkpt lat="45.08355" lon="5.22243">
        <ele>192.8</ele>
        <time>2022-05-07T12:11:27.000Z</time>
      </trkpt>
      <trkpt lat="45.08357" lon="5.22236">
        <ele>192.9</ele>
        <time>2022-05-07T12:11:28.000Z</time>
      </trkpt>
      <trkpt lat="45.0836" lon="5.22229">
        <ele>192.9</ele>
        <time>2022-05-07T12:11:29.000Z</time>
      </trkpt>
      <trkpt lat="45.08362" lon="5.22222">
        <ele>193.1</ele>
        <time>2022-05-07T12:11:30.000Z</time>
      </trkpt>
      <trkpt lat="45.08364" lon="5.22214">
        <ele>193.4</ele>
        <time>2022-05-07T12:11:31.000Z</time>
      </trkpt>
      <trkpt lat="45.08367" lon="5.22207">
        <ele>193.6</ele>
        <time>2022-05-07T12:11:32.000Z</time>
      </trkpt>
      <trkpt lat="45.0837" lon="5.222">
        <ele>193.9</ele>
        <time>2022-05-07T12:11:33.000Z</time>
      </trkpt>
      <trkpt lat="45.08372" lon="5.22193">
        <ele>194</ele>
        <time>2022-05-07T12:11:34.000Z</time>
      </trkpt>
      <trkpt lat="45.08375" lon="5.22186">
        <ele>194</ele>
        <time>2022-05-07T12:11:35.000Z</time>
      </trkpt>
      <trkpt lat="45.08378" lon="5.2218">
        <ele>194</ele>
        <time>2022-05-07T12:11:36.000Z</time>
      </trkpt>
      <trkpt lat="45.08381" lon="5.22173">
        <ele>194</ele>
        <time>2022-05-07T12:11:37.000Z</time>
      </trkpt>
      <trkpt lat="45.08384" lon="5.22166">
        <ele>194</ele>
        <time>2022-05-07T12:11:38.000Z</time>
      </trkpt>
      <trkpt lat="45.08387" lon="5.2216">
        <ele>194</ele>
        <time>2022-05-07T12:11:39.000Z</time>
      </trkpt>
      <trkpt lat="45.0839" lon="5.22153">
        <ele>194</ele>
        <time>2022-05-07T12:11:40.000Z</time>
      </trkpt>
      <trkpt lat="45.08394" lon="5.22147">
        <ele>194</ele>
        <time>2022-05-07T12:11:41.000Z</time>
      </trkpt>
      <trkpt lat="45.08397" lon="5.22141">
        <ele>194</ele>
        <time>2022-05-07T12:11:42.000Z</time>
      </trkpt>
      <trkpt lat="45.08401" lon="5.22135">
        <ele>194.1</ele>
        <time>2022-05-07T12:11:43.000Z</time>
      </trkpt>
      <trkpt lat="45.08405" lon="5.22129">
        <ele>194.2</ele>
        <time>2022-05-07T12:11:44.000Z</time>
      </trkpt>
      <trkpt lat="45.08409" lon="5.22123">
        <ele>194.2</ele>
        <time>2022-05-07T12:11:45.000Z</time>
      </trkpt>
      <trkpt lat="45.08413" lon="5.22117">
        <ele>194.1</ele>
        <time>2022-05-07T12:11:46.000Z</time>
      </trkpt>
      <trkpt lat="45.08417" lon="5.22111">
        <ele>194</ele>
        <time>2022-05-07T12:11:47.000Z</time>
      </trkpt>
      <trkpt lat="45.08422" lon="5.22105">
        <ele>194</ele>
        <time>2022-05-07T12:11:48.000Z</time>
      </trkpt>
      <trkpt lat="45.08426" lon="5.221">
        <ele>194</ele>
        <time>2022-05-07T12:11:49.000Z</time>
      </trkpt>
      <trkpt lat="45.08431" lon="5.22094">
        <ele>194</ele>
        <time>2022-05-07T12:11:50.000Z</time>
      </trkpt>
      <trkpt lat="45.08435" lon="5.22088">
        <ele>194</ele>
        <time>2022-05-07T12:11:51.000Z</time>
      </trkpt>
      <trkpt lat="45.08439" lon="5.22081">
        <ele>194</ele>
        <time>2022-05-07T12:11:52.000Z</time>
      </trkpt>
      <trkpt lat="45.08443" lon="5.22074">
        <ele>194</ele>
        <time>2022-05-07T12:11:53.000Z</time>
      </trkpt>
      <trkpt lat="45.08447" lon="5.22066">
        <ele>193.9</ele>
        <time>2022-05-07T12:11:54.000Z</time>
      </trkpt>
      <trkpt lat="45.08451" lon="5.22059">
        <ele>193.8</ele>
        <time>2022-05-07T12:11:55.000Z</time>
      </trkpt>
      <trkpt lat="45.08455" lon="5.22051">
        <ele>193.5</ele>
        <time>2022-05-07T12:11:56.000Z</time>
      </trkpt>
      <trkpt lat="45.08459" lon="5.22044">
        <ele>193.3</ele>
        <time>2022-05-07T12:11:57.000Z</time>
      </trkpt>
      <trkpt lat="45.08463" lon="5.22036">
        <ele>193.1</ele>
        <time>2022-05-07T12:11:58.000Z</time>
      </trkpt>
      <trkpt lat="45.08466" lon="5.22029">
        <ele>193</ele>
        <time>2022-05-07T12:11:59.000Z</time>
      </trkpt>
      <trkpt lat="45.0847" lon="5.22021">
        <ele>193.2</ele>
        <time>2022-05-07T12:12:00.000Z</time>
      </trkpt>
      <trkpt lat="45.08473" lon="5.22013">
        <ele>193.5</ele>
        <time>2022-05-07T12:12:01.000Z</time>
      </trkpt>
      <trkpt lat="45.08476" lon="5.22006">
        <ele>193.7</ele>
        <time>2022-05-07T12:12:02.000Z</time>
      </trkpt>
      <trkpt lat="45.08479" lon="5.21998">
        <ele>193.7</ele>
        <time>2022-05-07T12:12:03.000Z</time>
      </trkpt>
      <trkpt lat="45.08482" lon="5.2199">
        <ele>193.3</ele>
        <time>2022-05-07T12:12:04.000Z</time>
      </trkpt>
      <trkpt lat="45.08485" lon="5.21982">
        <ele>192.9</ele>
        <time>2022-05-07T12:12:05.000Z</time>
      </trkpt>
      <trkpt lat="45.08488" lon="5.21974">
        <ele>192.5</ele>
        <time>2022-05-07T12:12:06.000Z</time>
      </trkpt>
      <trkpt lat="45.0849" lon="5.21965">
        <ele>192.3</ele>
        <time>2022-05-07T12:12:07.000Z</time>
      </trkpt>
      <trkpt lat="45.08493" lon="5.21957">
        <ele>192.2</ele>
        <time>2022-05-07T12:12:08.000Z</time>
      </trkpt>
      <trkpt lat="45.08497" lon="5.2195">
        <ele>192.1</ele>
        <time>2022-05-07T12:12:09.000Z</time>
      </trkpt>
      <trkpt lat="45.085" lon="5.21942">
        <ele>192</ele>
        <time>2022-05-07T12:12:10.000Z</time>
      </trkpt>
      <trkpt lat="45.08503" lon="5.21933">
        <ele>192</ele>
        <time>2022-05-07T12:12:11.000Z</time>
      </trkpt>
      <trkpt lat="45.08505" lon="5.21925">
        <ele>192</ele>
        <time>2022-05-07T12:12:12.000Z</time>
      </trkpt>
      <trkpt lat="45.08508" lon="5.21917">
        <ele>192</ele>
        <time>2022-05-07T12:12:13.000Z</time>
      </trkpt>
      <trkpt lat="45.08512" lon="5.21909">
        <ele>192</ele>
        <time>2022-05-07T12:12:14.000Z</time>
      </trkpt>
      <trkpt lat="45.08514" lon="5.21901">
        <ele>192</ele>
        <time>2022-05-07T12:12:15.000Z</time>
      </trkpt>
      <trkpt lat="45.08517" lon="5.21893">
        <ele>192</ele>
        <time>2022-05-07T12:12:16.000Z</time>
      </trkpt>
      <trkpt lat="45.08521" lon="5.21885">
        <ele>192</ele>
        <time>2022-05-07T12:12:17.000Z</time>
      </trkpt>
      <trkpt lat="45.08524" lon="5.21878">
        <ele>191.9</ele>
        <time>2022-05-07T12:12:18.000Z</time>
      </trkpt>
      <trkpt lat="45.08527" lon="5.21872">
        <ele>192</ele>
        <time>2022-05-07T12:12:19.000Z</time>
      </trkpt>
      <trkpt lat="45.08528" lon="5.21866">
        <ele>192</ele>
        <time>2022-05-07T12:12:20.000Z</time>
      </trkpt>
      <trkpt lat="45.08527" lon="5.21861">
        <ele>192</ele>
        <time>2022-05-07T12:12:21.000Z</time>
      </trkpt>
      <trkpt lat="45.08526" lon="5.21855">
        <ele>191.9</ele>
        <time>2022-05-07T12:12:22.000Z</time>
      </trkpt>
      <trkpt lat="45.08523" lon="5.2185">
        <ele>191.8</ele>
        <time>2022-05-07T12:12:23.000Z</time>
      </trkpt>
      <trkpt lat="45.0852" lon="5.21846">
        <ele>191.7</ele>
        <time>2022-05-07T12:12:24.000Z</time>
      </trkpt>
      <trkpt lat="45.08516" lon="5.21843">
        <ele>191.6</ele>
        <time>2022-05-07T12:12:25.000Z</time>
      </trkpt>
      <trkpt lat="45.08512" lon="5.2184">
        <ele>191.4</ele>
        <time>2022-05-07T12:12:26.000Z</time>
      </trkpt>
      <trkpt lat="45.08507" lon="5.21838">
        <ele>191.3</ele>
        <time>2022-05-07T12:12:27.000Z</time>
      </trkpt>
      <trkpt lat="45.08503" lon="5.21835">
        <ele>191.1</ele>
        <time>2022-05-07T12:12:28.000Z</time>
      </trkpt>
      <trkpt lat="45.08499" lon="5.21832">
        <ele>191</ele>
        <time>2022-05-07T12:12:29.000Z</time>
      </trkpt>
      <trkpt lat="45.08495" lon="5.21829">
        <ele>191.2</ele>
        <time>2022-05-07T12:12:30.000Z</time>
      </trkpt>
      <trkpt lat="45.08491" lon="5.21825">
        <ele>191.2</ele>
        <time>2022-05-07T12:12:31.000Z</time>
      </trkpt>
      <trkpt lat="45.08487" lon="5.21822">
        <ele>191.3</ele>
        <time>2022-05-07T12:12:32.000Z</time>
      </trkpt>
      <trkpt lat="45.08483" lon="5.21819">
        <ele>191.3</ele>
        <time>2022-05-07T12:12:33.000Z</time>
      </trkpt>
      <trkpt lat="45.08479" lon="5.21816">
        <ele>191.3</ele>
        <time>2022-05-07T12:12:34.000Z</time>
      </trkpt>
      <trkpt lat="45.08475" lon="5.21813">
        <ele>191.2</ele>
        <time>2022-05-07T12:12:35.000Z</time>
      </trkpt>
      <trkpt lat="45.08471" lon="5.2181">
        <ele>191.2</ele>
        <time>2022-05-07T12:12:36.000Z</time>
      </trkpt>
      <trkpt lat="45.08467" lon="5.21807">
        <ele>191.2</ele>
        <time>2022-05-07T12:12:37.000Z</time>
      </trkpt>
      <trkpt lat="45.08463" lon="5.21804">
        <ele>191.3</ele>
        <time>2022-05-07T12:12:38.000Z</time>
      </trkpt>
      <trkpt lat="45.08459" lon="5.218">
        <ele>191.4</ele>
        <time>2022-05-07T12:12:39.000Z</time>
      </trkpt>
      <trkpt lat="45.08455" lon="5.21797">
        <ele>191.5</ele>
        <time>2022-05-07T12:12:40.000Z</time>
      </trkpt>
      <trkpt lat="45.08451" lon="5.21792">
        <ele>191.7</ele>
        <time>2022-05-07T12:12:41.000Z</time>
      </trkpt>
      <trkpt lat="45.08448" lon="5.21787">
        <ele>191.8</ele>
        <time>2022-05-07T12:12:42.000Z</time>
      </trkpt>
      <trkpt lat="45.08444" lon="5.21782">
        <ele>192</ele>
        <time>2022-05-07T12:12:43.000Z</time>
      </trkpt>
      <trkpt lat="45.08442" lon="5.21777">
        <ele>191.9</ele>
        <time>2022-05-07T12:12:44.000Z</time>
      </trkpt>
      <trkpt lat="45.0844" lon="5.21771">
        <ele>191.5</ele>
        <time>2022-05-07T12:12:45.000Z</time>
      </trkpt>
      <trkpt lat="45.08439" lon="5.21764">
        <ele>191.1</ele>
        <time>2022-05-07T12:12:46.000Z</time>
      </trkpt>
      <trkpt lat="45.08438" lon="5.21757">
        <ele>190.7</ele>
        <time>2022-05-07T12:12:47.000Z</time>
      </trkpt>
      <trkpt lat="45.08439" lon="5.2175">
        <ele>190.2</ele>
        <time>2022-05-07T12:12:48.000Z</time>
      </trkpt>
      <trkpt lat="45.08438" lon="5.21742">
        <ele>189.6</ele>
        <time>2022-05-07T12:12:49.000Z</time>
      </trkpt>
      <trkpt lat="45.08438" lon="5.21734">
        <ele>189.1</ele>
        <time>2022-05-07T12:12:50.000Z</time>
      </trkpt>
      <trkpt lat="45.08437" lon="5.21725">
        <ele>188.5</ele>
        <time>2022-05-07T12:12:51.000Z</time>
      </trkpt>
      <trkpt lat="45.08435" lon="5.21716">
        <ele>187.7</ele>
        <time>2022-05-07T12:12:52.000Z</time>
      </trkpt>
      <trkpt lat="45.08433" lon="5.21706">
        <ele>186.8</ele>
        <time>2022-05-07T12:12:53.000Z</time>
      </trkpt>
      <trkpt lat="45.08431" lon="5.21697">
        <ele>185.8</ele>
        <time>2022-05-07T12:12:54.000Z</time>
      </trkpt>
      <trkpt lat="45.08429" lon="5.21688">
        <ele>185.3</ele>
        <time>2022-05-07T12:12:55.000Z</time>
      </trkpt>
      <trkpt lat="45.08426" lon="5.21679">
        <ele>185</ele>
        <time>2022-05-07T12:12:56.000Z</time>
      </trkpt>
      <trkpt lat="45.08423" lon="5.2167">
        <ele>184.5</ele>
        <time>2022-05-07T12:12:57.000Z</time>
      </trkpt>
      <trkpt lat="45.0842" lon="5.21661">
        <ele>184</ele>
        <time>2022-05-07T12:12:58.000Z</time>
      </trkpt>
      <trkpt lat="45.08417" lon="5.21652">
        <ele>183.5</ele>
        <time>2022-05-07T12:12:59.000Z</time>
      </trkpt>
      <trkpt lat="45.08414" lon="5.21643">
        <ele>183</ele>
        <time>2022-05-07T12:13:00.000Z</time>
      </trkpt>
      <trkpt lat="45.08409" lon="5.21635">
        <ele>182.6</ele>
        <time>2022-05-07T12:13:01.000Z</time>
      </trkpt>
      <trkpt lat="45.08404" lon="5.21629">
        <ele>182.2</ele>
        <time>2022-05-07T12:13:02.000Z</time>
      </trkpt>
      <trkpt lat="45.08398" lon="5.21624">
        <ele>181.8</ele>
        <time>2022-05-07T12:13:03.000Z</time>
      </trkpt>
      <trkpt lat="45.08391" lon="5.2162">
        <ele>181.4</ele>
        <time>2022-05-07T12:13:04.000Z</time>
      </trkpt>
      <trkpt lat="45.08385" lon="5.21617">
        <ele>181.1</ele>
        <time>2022-05-07T12:13:05.000Z</time>
      </trkpt>
      <trkpt lat="45.08379" lon="5.21614">
        <ele>180.7</ele>
        <time>2022-05-07T12:13:06.000Z</time>
      </trkpt>
      <trkpt lat="45.08374" lon="5.21609">
        <ele>180.6</ele>
        <time>2022-05-07T12:13:07.000Z</time>
      </trkpt>
      <trkpt lat="45.0837" lon="5.21604">
        <ele>180.7</ele>
        <time>2022-05-07T12:13:08.000Z</time>
      </trkpt>
      <trkpt lat="45.08366" lon="5.21597">
        <ele>180.6</ele>
        <time>2022-05-07T12:13:09.000Z</time>
      </trkpt>
      <trkpt lat="45.08364" lon="5.2159">
        <ele>180.5</ele>
        <time>2022-05-07T12:13:10.000Z</time>
      </trkpt>
      <trkpt lat="45.08364" lon="5.21583">
        <ele>180.6</ele>
        <time>2022-05-07T12:13:11.000Z</time>
      </trkpt>
      <trkpt lat="45.08364" lon="5.21575">
        <ele>180.7</ele>
        <time>2022-05-07T12:13:12.000Z</time>
      </trkpt>
      <trkpt lat="45.08365" lon="5.21568">
        <ele>180.9</ele>
        <time>2022-05-07T12:13:13.000Z</time>
      </trkpt>
      <trkpt lat="45.08366" lon="5.21561">
        <ele>181.3</ele>
        <time>2022-05-07T12:13:14.000Z</time>
      </trkpt>
      <trkpt lat="45.08367" lon="5.21556">
        <ele>181.6</ele>
        <time>2022-05-07T12:13:15.000Z</time>
      </trkpt>
      <trkpt lat="45.08369" lon="5.2155">
        <ele>181.9</ele>
        <time>2022-05-07T12:13:16.000Z</time>
      </trkpt>
      <trkpt lat="45.08373" lon="5.21544">
        <ele>182.3</ele>
        <time>2022-05-07T12:13:17.000Z</time>
      </trkpt>
      <trkpt lat="45.08378" lon="5.21539">
        <ele>182.8</ele>
        <time>2022-05-07T12:13:18.000Z</time>
      </trkpt>
      <trkpt lat="45.08382" lon="5.21534">
        <ele>182.8</ele>
        <time>2022-05-07T12:13:19.000Z</time>
      </trkpt>
      <trkpt lat="45.08386" lon="5.21528">
        <ele>182.5</ele>
        <time>2022-05-07T12:13:20.000Z</time>
      </trkpt>
      <trkpt lat="45.08389" lon="5.21521">
        <ele>182.3</ele>
        <time>2022-05-07T12:13:21.000Z</time>
      </trkpt>
      <trkpt lat="45.08391" lon="5.21514">
        <ele>181.5</ele>
        <time>2022-05-07T12:13:22.000Z</time>
      </trkpt>
      <trkpt lat="45.08391" lon="5.21507">
        <ele>180.8</ele>
        <time>2022-05-07T12:13:23.000Z</time>
      </trkpt>
      <trkpt lat="45.0839" lon="5.215">
        <ele>180</ele>
        <time>2022-05-07T12:13:24.000Z</time>
      </trkpt>
      <trkpt lat="45.08388" lon="5.21493">
        <ele>179.7</ele>
        <time>2022-05-07T12:13:25.000Z</time>
      </trkpt>
      <trkpt lat="45.08387" lon="5.21485">
        <ele>179.4</ele>
        <time>2022-05-07T12:13:26.000Z</time>
      </trkpt>
      <trkpt lat="45.08385" lon="5.21477">
        <ele>179</ele>
        <time>2022-05-07T12:13:27.000Z</time>
      </trkpt>
      <trkpt lat="45.08384" lon="5.21469">
        <ele>178.8</ele>
        <time>2022-05-07T12:13:28.000Z</time>
      </trkpt>
      <trkpt lat="45.08384" lon="5.21462">
        <ele>178.8</ele>
        <time>2022-05-07T12:13:29.000Z</time>
      </trkpt>
      <trkpt lat="45.08386" lon="5.21455">
        <ele>178.8</ele>
        <time>2022-05-07T12:13:30.000Z</time>
      </trkpt>
      <trkpt lat="45.08388" lon="5.21448">
        <ele>178.9</ele>
        <time>2022-05-07T12:13:31.000Z</time>
      </trkpt>
      <trkpt lat="45.0839" lon="5.21443">
        <ele>179</ele>
        <time>2022-05-07T12:13:32.000Z</time>
      </trkpt>
      <trkpt lat="45.08393" lon="5.21438">
        <ele>179</ele>
        <time>2022-05-07T12:13:33.000Z</time>
      </trkpt>
      <trkpt lat="45.08395" lon="5.21432">
        <ele>179</ele>
        <time>2022-05-07T12:13:34.000Z</time>
      </trkpt>
      <trkpt lat="45.08397" lon="5.21427">
        <ele>179.1</ele>
        <time>2022-05-07T12:13:35.000Z</time>
      </trkpt>
      <trkpt lat="45.084" lon="5.21422">
        <ele>179.2</ele>
        <time>2022-05-07T12:13:36.000Z</time>
      </trkpt>
      <trkpt lat="45.08403" lon="5.21416">
        <ele>179.5</ele>
        <time>2022-05-07T12:13:37.000Z</time>
      </trkpt>
      <trkpt lat="45.08406" lon="5.21411">
        <ele>179.5</ele>
        <time>2022-05-07T12:13:38.000Z</time>
      </trkpt>
      <trkpt lat="45.08408" lon="5.21405">
        <ele>179.4</ele>
        <time>2022-05-07T12:13:39.000Z</time>
      </trkpt>
      <trkpt lat="45.08411" lon="5.21399">
        <ele>179.3</ele>
        <time>2022-05-07T12:13:40.000Z</time>
      </trkpt>
      <trkpt lat="45.08414" lon="5.21394">
        <ele>179.1</ele>
        <time>2022-05-07T12:13:41.000Z</time>
      </trkpt>
      <trkpt lat="45.08416" lon="5.2139">
        <ele>179</ele>
        <time>2022-05-07T12:13:42.000Z</time>
      </trkpt>
      <trkpt lat="45.08418" lon="5.21385">
        <ele>179</ele>
        <time>2022-05-07T12:13:43.000Z</time>
      </trkpt>
      <trkpt lat="45.0842" lon="5.2138">
        <ele>178.9</ele>
        <time>2022-05-07T12:13:44.000Z</time>
      </trkpt>
      <trkpt lat="45.08422" lon="5.21376">
        <ele>178.9</ele>
        <time>2022-05-07T12:13:45.000Z</time>
      </trkpt>
      <trkpt lat="45.08424" lon="5.21372">
        <ele>178.9</ele>
        <time>2022-05-07T12:13:46.000Z</time>
      </trkpt>
      <trkpt lat="45.08425" lon="5.21369">
        <ele>178.9</ele>
        <time>2022-05-07T12:13:47.000Z</time>
      </trkpt>
      <trkpt lat="45.08426" lon="5.21366">
        <ele>178.8</ele>
        <time>2022-05-07T12:13:48.000Z</time>
      </trkpt>
      <trkpt lat="45.08426" lon="5.21363">
        <ele>178.8</ele>
        <time>2022-05-07T12:13:49.000Z</time>
      </trkpt>
      <trkpt lat="45.08427" lon="5.21359">
        <ele>178.7</ele>
        <time>2022-05-07T12:13:50.000Z</time>
      </trkpt>
      <trkpt lat="45.08429" lon="5.21355">
        <ele>178.8</ele>
        <time>2022-05-07T12:13:51.000Z</time>
      </trkpt>
      <trkpt lat="45.0843" lon="5.21351">
        <ele>178.8</ele>
        <time>2022-05-07T12:13:52.000Z</time>
      </trkpt>
      <trkpt lat="45.08432" lon="5.21346">
        <ele>178.8</ele>
        <time>2022-05-07T12:13:53.000Z</time>
      </trkpt>
      <trkpt lat="45.08433" lon="5.21341">
        <ele>178.7</ele>
        <time>2022-05-07T12:13:54.000Z</time>
      </trkpt>
      <trkpt lat="45.08434" lon="5.21336">
        <ele>178.7</ele>
        <time>2022-05-07T12:13:55.000Z</time>
      </trkpt>
      <trkpt lat="45.08435" lon="5.2133">
        <ele>178.4</ele>
        <time>2022-05-07T12:13:56.000Z</time>
      </trkpt>
      <trkpt lat="45.08437" lon="5.21323">
        <ele>178</ele>
        <time>2022-05-07T12:13:57.000Z</time>
      </trkpt>
      <trkpt lat="45.08438" lon="5.21316">
        <ele>177.7</ele>
        <time>2022-05-07T12:13:58.000Z</time>
      </trkpt>
      <trkpt lat="45.0844" lon="5.21309">
        <ele>177.6</ele>
        <time>2022-05-07T12:13:59.000Z</time>
      </trkpt>
      <trkpt lat="45.08442" lon="5.213">
        <ele>177.1</ele>
        <time>2022-05-07T12:14:00.000Z</time>
      </trkpt>
      <trkpt lat="45.08445" lon="5.2129">
        <ele>176.3</ele>
        <time>2022-05-07T12:14:01.000Z</time>
      </trkpt>
      <trkpt lat="45.08448" lon="5.2128">
        <ele>175.4</ele>
        <time>2022-05-07T12:14:02.000Z</time>
      </trkpt>
      <trkpt lat="45.08452" lon="5.21269">
        <ele>175.2</ele>
        <time>2022-05-07T12:14:03.000Z</time>
      </trkpt>
      <trkpt lat="45.08456" lon="5.21259">
        <ele>175.3</ele>
        <time>2022-05-07T12:14:04.000Z</time>
      </trkpt>
      <trkpt lat="45.08461" lon="5.2125">
        <ele>175.9</ele>
        <time>2022-05-07T12:14:05.000Z</time>
      </trkpt>
      <trkpt lat="45.08465" lon="5.21241">
        <ele>175.4</ele>
        <time>2022-05-07T12:14:06.000Z</time>
      </trkpt>
      <trkpt lat="45.08468" lon="5.21234">
        <ele>175</ele>
        <time>2022-05-07T12:14:07.000Z</time>
      </trkpt>
      <trkpt lat="45.0847" lon="5.2123">
        <ele>174.7</ele>
        <time>2022-05-07T12:14:08.000Z</time>
      </trkpt>
      <trkpt lat="45.08472" lon="5.21225">
        <ele>174.4</ele>
        <time>2022-05-07T12:14:09.000Z</time>
      </trkpt>
      <trkpt lat="45.08473" lon="5.21222">
        <ele>174</ele>
        <time>2022-05-07T12:14:10.000Z</time>
      </trkpt>
      <trkpt lat="45.08475" lon="5.2122">
        <ele>173.9</ele>
        <time>2022-05-07T12:14:11.000Z</time>
      </trkpt>
      <trkpt lat="45.08476" lon="5.21216">
        <ele>173.7</ele>
        <time>2022-05-07T12:14:13.000Z</time>
      </trkpt>
      <trkpt lat="45.08477" lon="5.21213">
        <ele>173.6</ele>
        <time>2022-05-07T12:14:15.000Z</time>
      </trkpt>
      <trkpt lat="45.0848" lon="5.21206">
        <ele>173.8</ele>
        <time>2022-05-07T12:14:39.000Z</time>
      </trkpt>
      <trkpt lat="45.08481" lon="5.21202">
        <ele>174</ele>
        <time>2022-05-07T12:14:40.000Z</time>
      </trkpt>
      <trkpt lat="45.08482" lon="5.21197">
        <ele>174.2</ele>
        <time>2022-05-07T12:14:41.000Z</time>
      </trkpt>
      <trkpt lat="45.08483" lon="5.21191">
        <ele>174.2</ele>
        <time>2022-05-07T12:14:42.000Z</time>
      </trkpt>
      <trkpt lat="45.08484" lon="5.21185">
        <ele>173.8</ele>
        <time>2022-05-07T12:14:43.000Z</time>
      </trkpt>
      <trkpt lat="45.08484" lon="5.21177">
        <ele>173.4</ele>
        <time>2022-05-07T12:14:44.000Z</time>
      </trkpt>
      <trkpt lat="45.08486" lon="5.21169">
        <ele>173.1</ele>
        <time>2022-05-07T12:14:45.000Z</time>
      </trkpt>
      <trkpt lat="45.08487" lon="5.21161">
        <ele>172.6</ele>
        <time>2022-05-07T12:14:46.000Z</time>
      </trkpt>
      <trkpt lat="45.08489" lon="5.21153">
        <ele>172</ele>
        <time>2022-05-07T12:14:47.000Z</time>
      </trkpt>
      <trkpt lat="45.08492" lon="5.21144">
        <ele>171.4</ele>
        <time>2022-05-07T12:14:48.000Z</time>
      </trkpt>
      <trkpt lat="45.08495" lon="5.21134">
        <ele>170.6</ele>
        <time>2022-05-07T12:14:49.000Z</time>
      </trkpt>
      <trkpt lat="45.08498" lon="5.21125">
        <ele>170</ele>
        <time>2022-05-07T12:14:50.000Z</time>
      </trkpt>
      <trkpt lat="45.08501" lon="5.21115">
        <ele>169.8</ele>
        <time>2022-05-07T12:14:51.000Z</time>
      </trkpt>
      <trkpt lat="45.08505" lon="5.21105">
        <ele>170.3</ele>
        <time>2022-05-07T12:14:52.000Z</time>
      </trkpt>
      <trkpt lat="45.08508" lon="5.21095">
        <ele>171</ele>
        <time>2022-05-07T12:14:53.000Z</time>
      </trkpt>
      <trkpt lat="45.08512" lon="5.21084">
        <ele>171.8</ele>
        <time>2022-05-07T12:14:54.000Z</time>
      </trkpt>
      <trkpt lat="45.08516" lon="5.21074">
        <ele>172</ele>
        <time>2022-05-07T12:14:55.000Z</time>
      </trkpt>
      <trkpt lat="45.08519" lon="5.21064">
        <ele>171.9</ele>
        <time>2022-05-07T12:14:56.000Z</time>
      </trkpt>
      <trkpt lat="45.08522" lon="5.21054">
        <ele>171.9</ele>
        <time>2022-05-07T12:14:57.000Z</time>
      </trkpt>
      <trkpt lat="45.08525" lon="5.21042">
        <ele>170.9</ele>
        <time>2022-05-07T12:14:58.000Z</time>
      </trkpt>
      <trkpt lat="45.08528" lon="5.21031">
        <ele>169.5</ele>
        <time>2022-05-07T12:14:59.000Z</time>
      </trkpt>
      <trkpt lat="45.0853" lon="5.21019">
        <ele>167.6</ele>
        <time>2022-05-07T12:15:00.000Z</time>
      </trkpt>
      <trkpt lat="45.08531" lon="5.21008">
        <ele>165.7</ele>
        <time>2022-05-07T12:15:01.000Z</time>
      </trkpt>
      <trkpt lat="45.08531" lon="5.20996">
        <ele>164.2</ele>
        <time>2022-05-07T12:15:02.000Z</time>
      </trkpt>
      <trkpt lat="45.08531" lon="5.20983">
        <ele>163.5</ele>
        <time>2022-05-07T12:15:03.000Z</time>
      </trkpt>
      <trkpt lat="45.08531" lon="5.2097">
        <ele>162.5</ele>
        <time>2022-05-07T12:15:04.000Z</time>
      </trkpt>
      <trkpt lat="45.08531" lon="5.20958">
        <ele>161</ele>
        <time>2022-05-07T12:15:05.000Z</time>
      </trkpt>
      <trkpt lat="45.0853" lon="5.20946">
        <ele>159.6</ele>
        <time>2022-05-07T12:15:06.000Z</time>
      </trkpt>
      <trkpt lat="45.0853" lon="5.20934">
        <ele>156.6</ele>
        <time>2022-05-07T12:15:07.000Z</time>
      </trkpt>
      <trkpt lat="45.08529" lon="5.20922">
        <ele>153.3</ele>
        <time>2022-05-07T12:15:08.000Z</time>
      </trkpt>
      <trkpt lat="45.08529" lon="5.2091">
        <ele>152.9</ele>
        <time>2022-05-07T12:15:09.000Z</time>
      </trkpt>
      <trkpt lat="45.08529" lon="5.20899">
        <ele>154.5</ele>
        <time>2022-05-07T12:15:10.000Z</time>
      </trkpt>
      <trkpt lat="45.08529" lon="5.20889">
        <ele>156</ele>
        <time>2022-05-07T12:15:11.000Z</time>
      </trkpt>
      <trkpt lat="45.08529" lon="5.20878">
        <ele>158.3</ele>
        <time>2022-05-07T12:15:12.000Z</time>
      </trkpt>
      <trkpt lat="45.08528" lon="5.20868">
        <ele>160.5</ele>
        <time>2022-05-07T12:15:13.000Z</time>
      </trkpt>
      <trkpt lat="45.08528" lon="5.20858">
        <ele>162.1</ele>
        <time>2022-05-07T12:15:14.000Z</time>
      </trkpt>
      <trkpt lat="45.08528" lon="5.20848">
        <ele>162</ele>
        <time>2022-05-07T12:15:15.000Z</time>
      </trkpt>
      <trkpt lat="45.08527" lon="5.20837">
        <ele>161.8</ele>
        <time>2022-05-07T12:15:16.000Z</time>
      </trkpt>
      <trkpt lat="45.08527" lon="5.20827">
        <ele>161.9</ele>
        <time>2022-05-07T12:15:17.000Z</time>
      </trkpt>
      <trkpt lat="45.08526" lon="5.20816">
        <ele>162.2</ele>
        <time>2022-05-07T12:15:18.000Z</time>
      </trkpt>
      <trkpt lat="45.08526" lon="5.20806">
        <ele>162.4</ele>
        <time>2022-05-07T12:15:19.000Z</time>
      </trkpt>
      <trkpt lat="45.08525" lon="5.20796">
        <ele>163.3</ele>
        <time>2022-05-07T12:15:20.000Z</time>
      </trkpt>
      <trkpt lat="45.08525" lon="5.20785">
        <ele>164.2</ele>
        <time>2022-05-07T12:15:21.000Z</time>
      </trkpt>
      <trkpt lat="45.08525" lon="5.20775">
        <ele>165.2</ele>
        <time>2022-05-07T12:15:22.000Z</time>
      </trkpt>
      <trkpt lat="45.08525" lon="5.20765">
        <ele>166.1</ele>
        <time>2022-05-07T12:15:23.000Z</time>
      </trkpt>
      <trkpt lat="45.08524" lon="5.20755">
        <ele>167</ele>
        <time>2022-05-07T12:15:24.000Z</time>
      </trkpt>
      <trkpt lat="45.08524" lon="5.20745">
        <ele>167.1</ele>
        <time>2022-05-07T12:15:25.000Z</time>
      </trkpt>
      <trkpt lat="45.08524" lon="5.20735">
        <ele>166.3</ele>
        <time>2022-05-07T12:15:26.000Z</time>
      </trkpt>
      <trkpt lat="45.08523" lon="5.20725">
        <ele>165.5</ele>
        <time>2022-05-07T12:15:27.000Z</time>
      </trkpt>
      <trkpt lat="45.08522" lon="5.20715">
        <ele>164.8</ele>
        <time>2022-05-07T12:15:28.000Z</time>
      </trkpt>
      <trkpt lat="45.08522" lon="5.20704">
        <ele>164.2</ele>
        <time>2022-05-07T12:15:29.000Z</time>
      </trkpt>
      <trkpt lat="45.08522" lon="5.20694">
        <ele>163.7</ele>
        <time>2022-05-07T12:15:30.000Z</time>
      </trkpt>
      <trkpt lat="45.08521" lon="5.20684">
        <ele>164</ele>
        <time>2022-05-07T12:15:31.000Z</time>
      </trkpt>
      <trkpt lat="45.0852" lon="5.20674">
        <ele>164.1</ele>
        <time>2022-05-07T12:15:32.000Z</time>
      </trkpt>
      <trkpt lat="45.0852" lon="5.20663">
        <ele>164.4</ele>
        <time>2022-05-07T12:15:33.000Z</time>
      </trkpt>
      <trkpt lat="45.0852" lon="5.20653">
        <ele>164.6</ele>
        <time>2022-05-07T12:15:34.000Z</time>
      </trkpt>
      <trkpt lat="45.0852" lon="5.20643">
        <ele>164.8</ele>
        <time>2022-05-07T12:15:35.000Z</time>
      </trkpt>
      <trkpt lat="45.0852" lon="5.20633">
        <ele>164.9</ele>
        <time>2022-05-07T12:15:36.000Z</time>
      </trkpt>
      <trkpt lat="45.0852" lon="5.20623">
        <ele>164.9</ele>
        <time>2022-05-07T12:15:37.000Z</time>
      </trkpt>
      <trkpt lat="45.0852" lon="5.20613">
        <ele>164.9</ele>
        <time>2022-05-07T12:15:38.000Z</time>
      </trkpt>
      <trkpt lat="45.0852" lon="5.20603">
        <ele>164.9</ele>
        <time>2022-05-07T12:15:39.000Z</time>
      </trkpt>
      <trkpt lat="45.0852" lon="5.20593">
        <ele>165</ele>
        <time>2022-05-07T12:15:40.000Z</time>
      </trkpt>
      <trkpt lat="45.0852" lon="5.20582">
        <ele>165</ele>
        <time>2022-05-07T12:15:41.000Z</time>
      </trkpt>
      <trkpt lat="45.0852" lon="5.20572">
        <ele>164.7</ele>
        <time>2022-05-07T12:15:42.000Z</time>
      </trkpt>
      <trkpt lat="45.0852" lon="5.20562">
        <ele>164.4</ele>
        <time>2022-05-07T12:15:43.000Z</time>
      </trkpt>
      <trkpt lat="45.0852" lon="5.20552">
        <ele>164.3</ele>
        <time>2022-05-07T12:15:44.000Z</time>
      </trkpt>
      <trkpt lat="45.0852" lon="5.20542">
        <ele>164.3</ele>
        <time>2022-05-07T12:15:45.000Z</time>
      </trkpt>
      <trkpt lat="45.0852" lon="5.20532">
        <ele>164.2</ele>
        <time>2022-05-07T12:15:46.000Z</time>
      </trkpt>
      <trkpt lat="45.08519" lon="5.20522">
        <ele>164</ele>
        <time>2022-05-07T12:15:47.000Z</time>
      </trkpt>
      <trkpt lat="45.08519" lon="5.20512">
        <ele>163.8</ele>
        <time>2022-05-07T12:15:48.000Z</time>
      </trkpt>
      <trkpt lat="45.08519" lon="5.20501">
        <ele>163.6</ele>
        <time>2022-05-07T12:15:49.000Z</time>
      </trkpt>
      <trkpt lat="45.08519" lon="5.2049">
        <ele>163</ele>
        <time>2022-05-07T12:15:50.000Z</time>
      </trkpt>
      <trkpt lat="45.08519" lon="5.2048">
        <ele>162.4</ele>
        <time>2022-05-07T12:15:51.000Z</time>
      </trkpt>
      <trkpt lat="45.08518" lon="5.20469">
        <ele>162</ele>
        <time>2022-05-07T12:15:52.000Z</time>
      </trkpt>
      <trkpt lat="45.08518" lon="5.20458">
        <ele>162.4</ele>
        <time>2022-05-07T12:15:53.000Z</time>
      </trkpt>
      <trkpt lat="45.08518" lon="5.20447">
        <ele>162.8</ele>
        <time>2022-05-07T12:15:54.000Z</time>
      </trkpt>
      <trkpt lat="45.08518" lon="5.20436">
        <ele>163.3</ele>
        <time>2022-05-07T12:15:55.000Z</time>
      </trkpt>
      <trkpt lat="45.08517" lon="5.20425">
        <ele>163.8</ele>
        <time>2022-05-07T12:15:56.000Z</time>
      </trkpt>
      <trkpt lat="45.08517" lon="5.20414">
        <ele>164.1</ele>
        <time>2022-05-07T12:15:57.000Z</time>
      </trkpt>
      <trkpt lat="45.08516" lon="5.20403">
        <ele>163.6</ele>
        <time>2022-05-07T12:15:58.000Z</time>
      </trkpt>
      <trkpt lat="45.08515" lon="5.20391">
        <ele>163.2</ele>
        <time>2022-05-07T12:15:59.000Z</time>
      </trkpt>
      <trkpt lat="45.08515" lon="5.2038">
        <ele>163.1</ele>
        <time>2022-05-07T12:16:00.000Z</time>
      </trkpt>
      <trkpt lat="45.08515" lon="5.20369">
        <ele>163.1</ele>
        <time>2022-05-07T12:16:01.000Z</time>
      </trkpt>
      <trkpt lat="45.08515" lon="5.20357">
        <ele>163.1</ele>
        <time>2022-05-07T12:16:02.000Z</time>
      </trkpt>
      <trkpt lat="45.08515" lon="5.20347">
        <ele>163</ele>
        <time>2022-05-07T12:16:03.000Z</time>
      </trkpt>
      <trkpt lat="45.08515" lon="5.20336">
        <ele>163.1</ele>
        <time>2022-05-07T12:16:04.000Z</time>
      </trkpt>
      <trkpt lat="45.08515" lon="5.20326">
        <ele>162.8</ele>
        <time>2022-05-07T12:16:05.000Z</time>
      </trkpt>
      <trkpt lat="45.08515" lon="5.20316">
        <ele>162.5</ele>
        <time>2022-05-07T12:16:06.000Z</time>
      </trkpt>
      <trkpt lat="45.08515" lon="5.20305">
        <ele>162.1</ele>
        <time>2022-05-07T12:16:07.000Z</time>
      </trkpt>
      <trkpt lat="45.08515" lon="5.20294">
        <ele>162.3</ele>
        <time>2022-05-07T12:16:08.000Z</time>
      </trkpt>
      <trkpt lat="45.08515" lon="5.20284">
        <ele>162.5</ele>
        <time>2022-05-07T12:16:09.000Z</time>
      </trkpt>
      <trkpt lat="45.08514" lon="5.20274">
        <ele>162.5</ele>
        <time>2022-05-07T12:16:10.000Z</time>
      </trkpt>
      <trkpt lat="45.08515" lon="5.20263">
        <ele>162.3</ele>
        <time>2022-05-07T12:16:11.000Z</time>
      </trkpt>
      <trkpt lat="45.08515" lon="5.20252">
        <ele>162.1</ele>
        <time>2022-05-07T12:16:12.000Z</time>
      </trkpt>
      <trkpt lat="45.08515" lon="5.20241">
        <ele>162.2</ele>
        <time>2022-05-07T12:16:13.000Z</time>
      </trkpt>
      <trkpt lat="45.08515" lon="5.2023">
        <ele>162.4</ele>
        <time>2022-05-07T12:16:14.000Z</time>
      </trkpt>
      <trkpt lat="45.08515" lon="5.2022">
        <ele>162.5</ele>
        <time>2022-05-07T12:16:15.000Z</time>
      </trkpt>
      <trkpt lat="45.08515" lon="5.20208">
        <ele>162.5</ele>
        <time>2022-05-07T12:16:16.000Z</time>
      </trkpt>
      <trkpt lat="45.08515" lon="5.20197">
        <ele>162.5</ele>
        <time>2022-05-07T12:16:17.000Z</time>
      </trkpt>
      <trkpt lat="45.08515" lon="5.20186">
        <ele>162.5</ele>
        <time>2022-05-07T12:16:18.000Z</time>
      </trkpt>
      <trkpt lat="45.08515" lon="5.20174">
        <ele>162.5</ele>
        <time>2022-05-07T12:16:19.000Z</time>
      </trkpt>
      <trkpt lat="45.08515" lon="5.20163">
        <ele>162.6</ele>
        <time>2022-05-07T12:16:20.000Z</time>
      </trkpt>
      <trkpt lat="45.08515" lon="5.20151">
        <ele>162.8</ele>
        <time>2022-05-07T12:16:21.000Z</time>
      </trkpt>
      <trkpt lat="45.08515" lon="5.2014">
        <ele>163</ele>
        <time>2022-05-07T12:16:22.000Z</time>
      </trkpt>
      <trkpt lat="45.08515" lon="5.20128">
        <ele>163.1</ele>
        <time>2022-05-07T12:16:23.000Z</time>
      </trkpt>
      <trkpt lat="45.08515" lon="5.20117">
        <ele>163.1</ele>
        <time>2022-05-07T12:16:24.000Z</time>
      </trkpt>
      <trkpt lat="45.08515" lon="5.20105">
        <ele>163.2</ele>
        <time>2022-05-07T12:16:25.000Z</time>
      </trkpt>
      <trkpt lat="45.08515" lon="5.20093">
        <ele>163.4</ele>
        <time>2022-05-07T12:16:26.000Z</time>
      </trkpt>
      <trkpt lat="45.08515" lon="5.20082">
        <ele>163.5</ele>
        <time>2022-05-07T12:16:27.000Z</time>
      </trkpt>
      <trkpt lat="45.08514" lon="5.20071">
        <ele>163.3</ele>
        <time>2022-05-07T12:16:28.000Z</time>
      </trkpt>
      <trkpt lat="45.08513" lon="5.20059">
        <ele>163</ele>
        <time>2022-05-07T12:16:29.000Z</time>
      </trkpt>
      <trkpt lat="45.08513" lon="5.20047">
        <ele>162.9</ele>
        <time>2022-05-07T12:16:30.000Z</time>
      </trkpt>
      <trkpt lat="45.08513" lon="5.20036">
        <ele>162.9</ele>
        <time>2022-05-07T12:16:31.000Z</time>
      </trkpt>
      <trkpt lat="45.08513" lon="5.20024">
        <ele>162.8</ele>
        <time>2022-05-07T12:16:32.000Z</time>
      </trkpt>
      <trkpt lat="45.08513" lon="5.20012">
        <ele>162.6</ele>
        <time>2022-05-07T12:16:33.000Z</time>
      </trkpt>
      <trkpt lat="45.08512" lon="5.20001">
        <ele>162.3</ele>
        <time>2022-05-07T12:16:34.000Z</time>
      </trkpt>
      <trkpt lat="45.08512" lon="5.19989">
        <ele>162</ele>
        <time>2022-05-07T12:16:35.000Z</time>
      </trkpt>
      <trkpt lat="45.08512" lon="5.19978">
        <ele>161.8</ele>
        <time>2022-05-07T12:16:36.000Z</time>
      </trkpt>
      <trkpt lat="45.08511" lon="5.19966">
        <ele>162</ele>
        <time>2022-05-07T12:16:37.000Z</time>
      </trkpt>
      <trkpt lat="45.08511" lon="5.19956">
        <ele>162.6</ele>
        <time>2022-05-07T12:16:38.000Z</time>
      </trkpt>
      <trkpt lat="45.08511" lon="5.19946">
        <ele>163.1</ele>
        <time>2022-05-07T12:16:39.000Z</time>
      </trkpt>
      <trkpt lat="45.08511" lon="5.19935">
        <ele>163.2</ele>
        <time>2022-05-07T12:16:40.000Z</time>
      </trkpt>
      <trkpt lat="45.08511" lon="5.19925">
        <ele>163.2</ele>
        <time>2022-05-07T12:16:41.000Z</time>
      </trkpt>
      <trkpt lat="45.08511" lon="5.19915">
        <ele>163.2</ele>
        <time>2022-05-07T12:16:42.000Z</time>
      </trkpt>
      <trkpt lat="45.08512" lon="5.19905">
        <ele>163.2</ele>
        <time>2022-05-07T12:16:43.000Z</time>
      </trkpt>
      <trkpt lat="45.08512" lon="5.19896">
        <ele>163.1</ele>
        <time>2022-05-07T12:16:44.000Z</time>
      </trkpt>
      <trkpt lat="45.08512" lon="5.19886">
        <ele>163.1</ele>
        <time>2022-05-07T12:16:45.000Z</time>
      </trkpt>
      <trkpt lat="45.08512" lon="5.19876">
        <ele>162.9</ele>
        <time>2022-05-07T12:16:46.000Z</time>
      </trkpt>
      <trkpt lat="45.08512" lon="5.19866">
        <ele>162.8</ele>
        <time>2022-05-07T12:16:47.000Z</time>
      </trkpt>
      <trkpt lat="45.08512" lon="5.19856">
        <ele>162.8</ele>
        <time>2022-05-07T12:16:48.000Z</time>
      </trkpt>
      <trkpt lat="45.08513" lon="5.19846">
        <ele>162.8</ele>
        <time>2022-05-07T12:16:49.000Z</time>
      </trkpt>
      <trkpt lat="45.08513" lon="5.19835">
        <ele>162.8</ele>
        <time>2022-05-07T12:16:50.000Z</time>
      </trkpt>
      <trkpt lat="45.08513" lon="5.19824">
        <ele>162.7</ele>
        <time>2022-05-07T12:16:51.000Z</time>
      </trkpt>
      <trkpt lat="45.08513" lon="5.19814">
        <ele>162.5</ele>
        <time>2022-05-07T12:16:52.000Z</time>
      </trkpt>
      <trkpt lat="45.08513" lon="5.19803">
        <ele>162.4</ele>
        <time>2022-05-07T12:16:53.000Z</time>
      </trkpt>
      <trkpt lat="45.08514" lon="5.19792">
        <ele>162.2</ele>
        <time>2022-05-07T12:16:54.000Z</time>
      </trkpt>
      <trkpt lat="45.08514" lon="5.19781">
        <ele>162.1</ele>
        <time>2022-05-07T12:16:55.000Z</time>
      </trkpt>
      <trkpt lat="45.08514" lon="5.1977">
        <ele>161.8</ele>
        <time>2022-05-07T12:16:56.000Z</time>
      </trkpt>
      <trkpt lat="45.08515" lon="5.1976">
        <ele>161.5</ele>
        <time>2022-05-07T12:16:57.000Z</time>
      </trkpt>
      <trkpt lat="45.08515" lon="5.19749">
        <ele>161.2</ele>
        <time>2022-05-07T12:16:58.000Z</time>
      </trkpt>
      <trkpt lat="45.08516" lon="5.19739">
        <ele>161</ele>
        <time>2022-05-07T12:16:59.000Z</time>
      </trkpt>
      <trkpt lat="45.08516" lon="5.19728">
        <ele>160.8</ele>
        <time>2022-05-07T12:17:00.000Z</time>
      </trkpt>
      <trkpt lat="45.08516" lon="5.19718">
        <ele>160.6</ele>
        <time>2022-05-07T12:17:01.000Z</time>
      </trkpt>
      <trkpt lat="45.08516" lon="5.19707">
        <ele>160.5</ele>
        <time>2022-05-07T12:17:02.000Z</time>
      </trkpt>
      <trkpt lat="45.08516" lon="5.19697">
        <ele>160.3</ele>
        <time>2022-05-07T12:17:03.000Z</time>
      </trkpt>
      <trkpt lat="45.08516" lon="5.19686">
        <ele>160.4</ele>
        <time>2022-05-07T12:17:04.000Z</time>
      </trkpt>
      <trkpt lat="45.08516" lon="5.19674">
        <ele>160.6</ele>
        <time>2022-05-07T12:17:05.000Z</time>
      </trkpt>
      <trkpt lat="45.08516" lon="5.19662">
        <ele>160.6</ele>
        <time>2022-05-07T12:17:06.000Z</time>
      </trkpt>
      <trkpt lat="45.08516" lon="5.19651">
        <ele>160.4</ele>
        <time>2022-05-07T12:17:07.000Z</time>
      </trkpt>
      <trkpt lat="45.08516" lon="5.1964">
        <ele>160.2</ele>
        <time>2022-05-07T12:17:08.000Z</time>
      </trkpt>
      <trkpt lat="45.08516" lon="5.19628">
        <ele>160.2</ele>
        <time>2022-05-07T12:17:09.000Z</time>
      </trkpt>
      <trkpt lat="45.08516" lon="5.19617">
        <ele>160.2</ele>
        <time>2022-05-07T12:17:10.000Z</time>
      </trkpt>
      <trkpt lat="45.08517" lon="5.19604">
        <ele>160.2</ele>
        <time>2022-05-07T12:17:11.000Z</time>
      </trkpt>
      <trkpt lat="45.08517" lon="5.19593">
        <ele>160.2</ele>
        <time>2022-05-07T12:17:12.000Z</time>
      </trkpt>
      <trkpt lat="45.08517" lon="5.19581">
        <ele>160.2</ele>
        <time>2022-05-07T12:17:13.000Z</time>
      </trkpt>
      <trkpt lat="45.08517" lon="5.19568">
        <ele>160</ele>
        <time>2022-05-07T12:17:14.000Z</time>
      </trkpt>
      <trkpt lat="45.08517" lon="5.19556">
        <ele>159.8</ele>
        <time>2022-05-07T12:17:15.000Z</time>
      </trkpt>
      <trkpt lat="45.08518" lon="5.19544">
        <ele>159.5</ele>
        <time>2022-05-07T12:17:16.000Z</time>
      </trkpt>
      <trkpt lat="45.08518" lon="5.19531">
        <ele>159.1</ele>
        <time>2022-05-07T12:17:17.000Z</time>
      </trkpt>
      <trkpt lat="45.08519" lon="5.19518">
        <ele>158.7</ele>
        <time>2022-05-07T12:17:18.000Z</time>
      </trkpt>
      <trkpt lat="45.0852" lon="5.19504">
        <ele>158.3</ele>
        <time>2022-05-07T12:17:19.000Z</time>
      </trkpt>
      <trkpt lat="45.08521" lon="5.19491">
        <ele>157.7</ele>
        <time>2022-05-07T12:17:20.000Z</time>
      </trkpt>
      <trkpt lat="45.08522" lon="5.19478">
        <ele>157</ele>
        <time>2022-05-07T12:17:21.000Z</time>
      </trkpt>
      <trkpt lat="45.08523" lon="5.19465">
        <ele>156.6</ele>
        <time>2022-05-07T12:17:22.000Z</time>
      </trkpt>
      <trkpt lat="45.08525" lon="5.19451">
        <ele>156.7</ele>
        <time>2022-05-07T12:17:23.000Z</time>
      </trkpt>
      <trkpt lat="45.08526" lon="5.19438">
        <ele>156.8</ele>
        <time>2022-05-07T12:17:24.000Z</time>
      </trkpt>
      <trkpt lat="45.08527" lon="5.19424">
        <ele>156.9</ele>
        <time>2022-05-07T12:17:25.000Z</time>
      </trkpt>
      <trkpt lat="45.08528" lon="5.1941">
        <ele>156.7</ele>
        <time>2022-05-07T12:17:26.000Z</time>
      </trkpt>
      <trkpt lat="45.08528" lon="5.19397">
        <ele>156.4</ele>
        <time>2022-05-07T12:17:27.000Z</time>
      </trkpt>
      <trkpt lat="45.08529" lon="5.19383">
        <ele>156.1</ele>
        <time>2022-05-07T12:17:28.000Z</time>
      </trkpt>
      <trkpt lat="45.0853" lon="5.1937">
        <ele>155.7</ele>
        <time>2022-05-07T12:17:29.000Z</time>
      </trkpt>
      <trkpt lat="45.08531" lon="5.19357">
        <ele>155.4</ele>
        <time>2022-05-07T12:17:30.000Z</time>
      </trkpt>
      <trkpt lat="45.08532" lon="5.19345">
        <ele>155.5</ele>
        <time>2022-05-07T12:17:31.000Z</time>
      </trkpt>
      <trkpt lat="45.08533" lon="5.19331">
        <ele>155.4</ele>
        <time>2022-05-07T12:17:32.000Z</time>
      </trkpt>
      <trkpt lat="45.08533" lon="5.19317">
        <ele>155</ele>
        <time>2022-05-07T12:17:33.000Z</time>
      </trkpt>
      <trkpt lat="45.08534" lon="5.19304">
        <ele>154.7</ele>
        <time>2022-05-07T12:17:34.000Z</time>
      </trkpt>
      <trkpt lat="45.08535" lon="5.19291">
        <ele>154.6</ele>
        <time>2022-05-07T12:17:35.000Z</time>
      </trkpt>
      <trkpt lat="45.08536" lon="5.19277">
        <ele>154.6</ele>
        <time>2022-05-07T12:17:36.000Z</time>
      </trkpt>
      <trkpt lat="45.08536" lon="5.19264">
        <ele>154.6</ele>
        <time>2022-05-07T12:17:37.000Z</time>
      </trkpt>
      <trkpt lat="45.08537" lon="5.1925">
        <ele>154.7</ele>
        <time>2022-05-07T12:17:38.000Z</time>
      </trkpt>
      <trkpt lat="45.08539" lon="5.19237">
        <ele>154.5</ele>
        <time>2022-05-07T12:17:39.000Z</time>
      </trkpt>
      <trkpt lat="45.0854" lon="5.19224">
        <ele>154.3</ele>
        <time>2022-05-07T12:17:40.000Z</time>
      </trkpt>
      <trkpt lat="45.08541" lon="5.19211">
        <ele>154.4</ele>
        <time>2022-05-07T12:17:41.000Z</time>
      </trkpt>
      <trkpt lat="45.08542" lon="5.19197">
        <ele>154.6</ele>
        <time>2022-05-07T12:17:42.000Z</time>
      </trkpt>
      <trkpt lat="45.08543" lon="5.19183">
        <ele>154.2</ele>
        <time>2022-05-07T12:17:43.000Z</time>
      </trkpt>
      <trkpt lat="45.08545" lon="5.1917">
        <ele>153.8</ele>
        <time>2022-05-07T12:17:44.000Z</time>
      </trkpt>
      <trkpt lat="45.08545" lon="5.19157">
        <ele>153.6</ele>
        <time>2022-05-07T12:17:45.000Z</time>
      </trkpt>
      <trkpt lat="45.08546" lon="5.19144">
        <ele>153.7</ele>
        <time>2022-05-07T12:17:46.000Z</time>
      </trkpt>
      <trkpt lat="45.08547" lon="5.19131">
        <ele>153.8</ele>
        <time>2022-05-07T12:17:47.000Z</time>
      </trkpt>
      <trkpt lat="45.08548" lon="5.19117">
        <ele>154.1</ele>
        <time>2022-05-07T12:17:48.000Z</time>
      </trkpt>
      <trkpt lat="45.08549" lon="5.19104">
        <ele>154.3</ele>
        <time>2022-05-07T12:17:49.000Z</time>
      </trkpt>
      <trkpt lat="45.0855" lon="5.1909">
        <ele>154.3</ele>
        <time>2022-05-07T12:17:50.000Z</time>
      </trkpt>
      <trkpt lat="45.0855" lon="5.19078">
        <ele>154.3</ele>
        <time>2022-05-07T12:17:51.000Z</time>
      </trkpt>
      <trkpt lat="45.08551" lon="5.19066">
        <ele>154</ele>
        <time>2022-05-07T12:17:52.000Z</time>
      </trkpt>
      <trkpt lat="45.08552" lon="5.19055">
        <ele>153.7</ele>
        <time>2022-05-07T12:17:53.000Z</time>
      </trkpt>
      <trkpt lat="45.08553" lon="5.19043">
        <ele>153.4</ele>
        <time>2022-05-07T12:17:54.000Z</time>
      </trkpt>
      <trkpt lat="45.08554" lon="5.19031">
        <ele>153.1</ele>
        <time>2022-05-07T12:17:55.000Z</time>
      </trkpt>
      <trkpt lat="45.08555" lon="5.1902">
        <ele>153</ele>
        <time>2022-05-07T12:17:56.000Z</time>
      </trkpt>
      <trkpt lat="45.08556" lon="5.19009">
        <ele>153</ele>
        <time>2022-05-07T12:17:57.000Z</time>
      </trkpt>
      <trkpt lat="45.08557" lon="5.18998">
        <ele>153.1</ele>
        <time>2022-05-07T12:17:58.000Z</time>
      </trkpt>
      <trkpt lat="45.08558" lon="5.18987">
        <ele>153.1</ele>
        <time>2022-05-07T12:17:59.000Z</time>
      </trkpt>
      <trkpt lat="45.08558" lon="5.18976">
        <ele>153.1</ele>
        <time>2022-05-07T12:18:00.000Z</time>
      </trkpt>
      <trkpt lat="45.08559" lon="5.18965">
        <ele>153.1</ele>
        <time>2022-05-07T12:18:01.000Z</time>
      </trkpt>
      <trkpt lat="45.0856" lon="5.18953">
        <ele>153.2</ele>
        <time>2022-05-07T12:18:02.000Z</time>
      </trkpt>
      <trkpt lat="45.08561" lon="5.18941">
        <ele>153.2</ele>
        <time>2022-05-07T12:18:03.000Z</time>
      </trkpt>
      <trkpt lat="45.08562" lon="5.1893">
        <ele>153.1</ele>
        <time>2022-05-07T12:18:04.000Z</time>
      </trkpt>
      <trkpt lat="45.08563" lon="5.18918">
        <ele>153</ele>
        <time>2022-05-07T12:18:05.000Z</time>
      </trkpt>
      <trkpt lat="45.08564" lon="5.18906">
        <ele>153</ele>
        <time>2022-05-07T12:18:06.000Z</time>
      </trkpt>
      <trkpt lat="45.08564" lon="5.18895">
        <ele>153</ele>
        <time>2022-05-07T12:18:07.000Z</time>
      </trkpt>
      <trkpt lat="45.08565" lon="5.18885">
        <ele>153</ele>
        <time>2022-05-07T12:18:08.000Z</time>
      </trkpt>
      <trkpt lat="45.08566" lon="5.18874">
        <ele>153.2</ele>
        <time>2022-05-07T12:18:09.000Z</time>
      </trkpt>
      <trkpt lat="45.08567" lon="5.18863">
        <ele>153.4</ele>
        <time>2022-05-07T12:18:10.000Z</time>
      </trkpt>
      <trkpt lat="45.08568" lon="5.18853">
        <ele>153.4</ele>
        <time>2022-05-07T12:18:11.000Z</time>
      </trkpt>
      <trkpt lat="45.08568" lon="5.18843">
        <ele>153.4</ele>
        <time>2022-05-07T12:18:12.000Z</time>
      </trkpt>
      <trkpt lat="45.08568" lon="5.18832">
        <ele>153.4</ele>
        <time>2022-05-07T12:18:13.000Z</time>
      </trkpt>
      <trkpt lat="45.08569" lon="5.18822">
        <ele>153.3</ele>
        <time>2022-05-07T12:18:14.000Z</time>
      </trkpt>
      <trkpt lat="45.08571" lon="5.18812">
        <ele>153.1</ele>
        <time>2022-05-07T12:18:15.000Z</time>
      </trkpt>
      <trkpt lat="45.08573" lon="5.18802">
        <ele>153</ele>
        <time>2022-05-07T12:18:16.000Z</time>
      </trkpt>
      <trkpt lat="45.08574" lon="5.18792">
        <ele>153</ele>
        <time>2022-05-07T12:18:17.000Z</time>
      </trkpt>
      <trkpt lat="45.08574" lon="5.18782">
        <ele>153</ele>
        <time>2022-05-07T12:18:18.000Z</time>
      </trkpt>
      <trkpt lat="45.08574" lon="5.18771">
        <ele>152.9</ele>
        <time>2022-05-07T12:18:19.000Z</time>
      </trkpt>
      <trkpt lat="45.08575" lon="5.1876">
        <ele>152.8</ele>
        <time>2022-05-07T12:18:20.000Z</time>
      </trkpt>
      <trkpt lat="45.08576" lon="5.18749">
        <ele>152.7</ele>
        <time>2022-05-07T12:18:21.000Z</time>
      </trkpt>
      <trkpt lat="45.08577" lon="5.18739">
        <ele>152.4</ele>
        <time>2022-05-07T12:18:22.000Z</time>
      </trkpt>
      <trkpt lat="45.08578" lon="5.18728">
        <ele>152.2</ele>
        <time>2022-05-07T12:18:23.000Z</time>
      </trkpt>
      <trkpt lat="45.08578" lon="5.18717">
        <ele>152</ele>
        <time>2022-05-07T12:18:24.000Z</time>
      </trkpt>
      <trkpt lat="45.08578" lon="5.18706">
        <ele>152</ele>
        <time>2022-05-07T12:18:25.000Z</time>
      </trkpt>
      <trkpt lat="45.08578" lon="5.18695">
        <ele>152</ele>
        <time>2022-05-07T12:18:26.000Z</time>
      </trkpt>
      <trkpt lat="45.08578" lon="5.18684">
        <ele>151.9</ele>
        <time>2022-05-07T12:18:27.000Z</time>
      </trkpt>
      <trkpt lat="45.08577" lon="5.18672">
        <ele>151.8</ele>
        <time>2022-05-07T12:18:28.000Z</time>
      </trkpt>
      <trkpt lat="45.08577" lon="5.18661">
        <ele>151.8</ele>
        <time>2022-05-07T12:18:29.000Z</time>
      </trkpt>
      <trkpt lat="45.08577" lon="5.1865">
        <ele>151.9</ele>
        <time>2022-05-07T12:18:30.000Z</time>
      </trkpt>
      <trkpt lat="45.08577" lon="5.18639">
        <ele>152</ele>
        <time>2022-05-07T12:18:31.000Z</time>
      </trkpt>
      <trkpt lat="45.08576" lon="5.18628">
        <ele>151.9</ele>
        <time>2022-05-07T12:18:32.000Z</time>
      </trkpt>
      <trkpt lat="45.08576" lon="5.18618">
        <ele>151.8</ele>
        <time>2022-05-07T12:18:33.000Z</time>
      </trkpt>
      <trkpt lat="45.08576" lon="5.18608">
        <ele>151.8</ele>
        <time>2022-05-07T12:18:34.000Z</time>
      </trkpt>
      <trkpt lat="45.08576" lon="5.18597">
        <ele>151.9</ele>
        <time>2022-05-07T12:18:35.000Z</time>
      </trkpt>
      <trkpt lat="45.08576" lon="5.18587">
        <ele>152</ele>
        <time>2022-05-07T12:18:36.000Z</time>
      </trkpt>
      <trkpt lat="45.08576" lon="5.18577">
        <ele>151.9</ele>
        <time>2022-05-07T12:18:37.000Z</time>
      </trkpt>
      <trkpt lat="45.08575" lon="5.18566">
        <ele>151.8</ele>
        <time>2022-05-07T12:18:38.000Z</time>
      </trkpt>
      <trkpt lat="45.08574" lon="5.18556">
        <ele>151.7</ele>
        <time>2022-05-07T12:18:39.000Z</time>
      </trkpt>
      <trkpt lat="45.08574" lon="5.18545">
        <ele>151.7</ele>
        <time>2022-05-07T12:18:40.000Z</time>
      </trkpt>
      <trkpt lat="45.08573" lon="5.18535">
        <ele>151.6</ele>
        <time>2022-05-07T12:18:41.000Z</time>
      </trkpt>
      <trkpt lat="45.08573" lon="5.18524">
        <ele>151.7</ele>
        <time>2022-05-07T12:18:42.000Z</time>
      </trkpt>
      <trkpt lat="45.08573" lon="5.18516">
        <ele>151.8</ele>
        <time>2022-05-07T12:18:43.000Z</time>
      </trkpt>
      <trkpt lat="45.08574" lon="5.18509">
        <ele>151.9</ele>
        <time>2022-05-07T12:18:44.000Z</time>
      </trkpt>
      <trkpt lat="45.08574" lon="5.185">
        <ele>152</ele>
        <time>2022-05-07T12:18:45.000Z</time>
      </trkpt>
      <trkpt lat="45.08575" lon="5.18491">
        <ele>152.6</ele>
        <time>2022-05-07T12:18:46.000Z</time>
      </trkpt>
      <trkpt lat="45.08575" lon="5.18482">
        <ele>153.4</ele>
        <time>2022-05-07T12:18:47.000Z</time>
      </trkpt>
      <trkpt lat="45.08577" lon="5.18473">
        <ele>154.2</ele>
        <time>2022-05-07T12:18:48.000Z</time>
      </trkpt>
      <trkpt lat="45.08579" lon="5.18465">
        <ele>154.7</ele>
        <time>2022-05-07T12:18:49.000Z</time>
      </trkpt>
      <trkpt lat="45.0858" lon="5.18457">
        <ele>155.1</ele>
        <time>2022-05-07T12:18:50.000Z</time>
      </trkpt>
      <trkpt lat="45.0858" lon="5.18449">
        <ele>155.3</ele>
        <time>2022-05-07T12:18:51.000Z</time>
      </trkpt>
      <trkpt lat="45.0858" lon="5.18441">
        <ele>155.7</ele>
        <time>2022-05-07T12:18:52.000Z</time>
      </trkpt>
      <trkpt lat="45.08579" lon="5.18434">
        <ele>156.1</ele>
        <time>2022-05-07T12:18:53.000Z</time>
      </trkpt>
      <trkpt lat="45.0858" lon="5.18428">
        <ele>156.6</ele>
        <time>2022-05-07T12:18:54.000Z</time>
      </trkpt>
      <trkpt lat="45.0858" lon="5.18422">
        <ele>157</ele>
        <time>2022-05-07T12:18:55.000Z</time>
      </trkpt>
      <trkpt lat="45.08579" lon="5.18417">
        <ele>157.3</ele>
        <time>2022-05-07T12:18:56.000Z</time>
      </trkpt>
      <trkpt lat="45.08579" lon="5.18412">
        <ele>157.3</ele>
        <time>2022-05-07T12:18:57.000Z</time>
      </trkpt>
      <trkpt lat="45.08579" lon="5.18407">
        <ele>157.3</ele>
        <time>2022-05-07T12:18:58.000Z</time>
      </trkpt>
      <trkpt lat="45.08579" lon="5.18402">
        <ele>157.3</ele>
        <time>2022-05-07T12:18:59.000Z</time>
      </trkpt>
      <trkpt lat="45.08578" lon="5.18398">
        <ele>157.2</ele>
        <time>2022-05-07T12:19:00.000Z</time>
      </trkpt>
      <trkpt lat="45.08578" lon="5.18394">
        <ele>157.1</ele>
        <time>2022-05-07T12:19:01.000Z</time>
      </trkpt>
      <trkpt lat="45.08577" lon="5.18391">
        <ele>157</ele>
        <time>2022-05-07T12:19:02.000Z</time>
      </trkpt>
      <trkpt lat="45.08577" lon="5.18388">
        <ele>157.1</ele>
        <time>2022-05-07T12:19:03.000Z</time>
      </trkpt>
      <trkpt lat="45.08576" lon="5.18385">
        <ele>157.1</ele>
        <time>2022-05-07T12:19:04.000Z</time>
      </trkpt>
      <trkpt lat="45.08576" lon="5.18381">
        <ele>157.2</ele>
        <time>2022-05-07T12:19:05.000Z</time>
      </trkpt>
      <trkpt lat="45.08576" lon="5.18378">
        <ele>157.3</ele>
        <time>2022-05-07T12:19:06.000Z</time>
      </trkpt>
      <trkpt lat="45.08575" lon="5.18374">
        <ele>157.4</ele>
        <time>2022-05-07T12:19:07.000Z</time>
      </trkpt>
      <trkpt lat="45.08575" lon="5.18371">
        <ele>157.5</ele>
        <time>2022-05-07T12:19:08.000Z</time>
      </trkpt>
      <trkpt lat="45.08575" lon="5.18368">
        <ele>157.6</ele>
        <time>2022-05-07T12:19:09.000Z</time>
      </trkpt>
      <trkpt lat="45.08575" lon="5.18364">
        <ele>157.6</ele>
        <time>2022-05-07T12:19:10.000Z</time>
      </trkpt>
      <trkpt lat="45.08575" lon="5.18362">
        <ele>157.7</ele>
        <time>2022-05-07T12:19:11.000Z</time>
      </trkpt>
      <trkpt lat="45.08575" lon="5.18358">
        <ele>157.9</ele>
        <time>2022-05-07T12:19:12.000Z</time>
      </trkpt>
      <trkpt lat="45.08575" lon="5.18355">
        <ele>158</ele>
        <time>2022-05-07T12:19:13.000Z</time>
      </trkpt>
      <trkpt lat="45.08575" lon="5.18352">
        <ele>158.1</ele>
        <time>2022-05-07T12:19:14.000Z</time>
      </trkpt>
      <trkpt lat="45.08575" lon="5.18349">
        <ele>158.2</ele>
        <time>2022-05-07T12:19:15.000Z</time>
      </trkpt>
      <trkpt lat="45.08574" lon="5.18345">
        <ele>158.2</ele>
        <time>2022-05-07T12:19:16.000Z</time>
      </trkpt>
      <trkpt lat="45.08574" lon="5.18342">
        <ele>158.3</ele>
        <time>2022-05-07T12:19:17.000Z</time>
      </trkpt>
      <trkpt lat="45.08574" lon="5.18339">
        <ele>158.5</ele>
        <time>2022-05-07T12:19:18.000Z</time>
      </trkpt>
      <trkpt lat="45.08574" lon="5.18336">
        <ele>158.5</ele>
        <time>2022-05-07T12:19:19.000Z</time>
      </trkpt>
      <trkpt lat="45.08573" lon="5.18333">
        <ele>158.6</ele>
        <time>2022-05-07T12:19:20.000Z</time>
      </trkpt>
      <trkpt lat="45.08573" lon="5.18329">
        <ele>158.7</ele>
        <time>2022-05-07T12:19:21.000Z</time>
      </trkpt>
      <trkpt lat="45.08573" lon="5.18326">
        <ele>158.9</ele>
        <time>2022-05-07T12:19:22.000Z</time>
      </trkpt>
      <trkpt lat="45.08573" lon="5.18323">
        <ele>159</ele>
        <time>2022-05-07T12:19:23.000Z</time>
      </trkpt>
      <trkpt lat="45.08573" lon="5.1832">
        <ele>159.2</ele>
        <time>2022-05-07T12:19:24.000Z</time>
      </trkpt>
      <trkpt lat="45.08573" lon="5.18316">
        <ele>159.3</ele>
        <time>2022-05-07T12:19:25.000Z</time>
      </trkpt>
      <trkpt lat="45.08573" lon="5.18313">
        <ele>159.4</ele>
        <time>2022-05-07T12:19:26.000Z</time>
      </trkpt>
      <trkpt lat="45.08572" lon="5.1831">
        <ele>159.4</ele>
        <time>2022-05-07T12:19:27.000Z</time>
      </trkpt>
      <trkpt lat="45.08571" lon="5.18306">
        <ele>159.4</ele>
        <time>2022-05-07T12:19:28.000Z</time>
      </trkpt>
      <trkpt lat="45.08571" lon="5.18302">
        <ele>159.5</ele>
        <time>2022-05-07T12:19:29.000Z</time>
      </trkpt>
      <trkpt lat="45.0857" lon="5.18299">
        <ele>159.5</ele>
        <time>2022-05-07T12:19:30.000Z</time>
      </trkpt>
      <trkpt lat="45.08569" lon="5.18295">
        <ele>159.7</ele>
        <time>2022-05-07T12:19:31.000Z</time>
      </trkpt>
      <trkpt lat="45.08569" lon="5.18292">
        <ele>159.8</ele>
        <time>2022-05-07T12:19:32.000Z</time>
      </trkpt>
      <trkpt lat="45.08568" lon="5.18288">
        <ele>160</ele>
        <time>2022-05-07T12:19:33.000Z</time>
      </trkpt>
      <trkpt lat="45.08567" lon="5.18284">
        <ele>160.1</ele>
        <time>2022-05-07T12:19:34.000Z</time>
      </trkpt>
      <trkpt lat="45.08567" lon="5.1828">
        <ele>160.2</ele>
        <time>2022-05-07T12:19:35.000Z</time>
      </trkpt>
      <trkpt lat="45.08566" lon="5.18277">
        <ele>160.3</ele>
        <time>2022-05-07T12:19:36.000Z</time>
      </trkpt>
      <trkpt lat="45.08565" lon="5.18273">
        <ele>160.4</ele>
        <time>2022-05-07T12:19:37.000Z</time>
      </trkpt>
      <trkpt lat="45.08563" lon="5.1827">
        <ele>160.3</ele>
        <time>2022-05-07T12:19:38.000Z</time>
      </trkpt>
      <trkpt lat="45.08563" lon="5.18266">
        <ele>160.5</ele>
        <time>2022-05-07T12:19:39.000Z</time>
      </trkpt>
      <trkpt lat="45.08562" lon="5.18261">
        <ele>160.6</ele>
        <time>2022-05-07T12:19:40.000Z</time>
      </trkpt>
      <trkpt lat="45.0856" lon="5.18256">
        <ele>160.7</ele>
        <time>2022-05-07T12:19:41.000Z</time>
      </trkpt>
      <trkpt lat="45.08559" lon="5.18251">
        <ele>160.7</ele>
        <time>2022-05-07T12:19:42.000Z</time>
      </trkpt>
      <trkpt lat="45.08557" lon="5.18246">
        <ele>160.7</ele>
        <time>2022-05-07T12:19:43.000Z</time>
      </trkpt>
      <trkpt lat="45.08555" lon="5.1824">
        <ele>161</ele>
        <time>2022-05-07T12:19:44.000Z</time>
      </trkpt>
      <trkpt lat="45.08554" lon="5.18234">
        <ele>161.3</ele>
        <time>2022-05-07T12:19:45.000Z</time>
      </trkpt>
      <trkpt lat="45.08553" lon="5.18229">
        <ele>161.6</ele>
        <time>2022-05-07T12:19:46.000Z</time>
      </trkpt>
      <trkpt lat="45.08551" lon="5.18222">
        <ele>161.9</ele>
        <time>2022-05-07T12:19:47.000Z</time>
      </trkpt>
      <trkpt lat="45.0855" lon="5.18217">
        <ele>162.2</ele>
        <time>2022-05-07T12:19:48.000Z</time>
      </trkpt>
      <trkpt lat="45.08548" lon="5.18212">
        <ele>162.5</ele>
        <time>2022-05-07T12:19:49.000Z</time>
      </trkpt>
      <trkpt lat="45.08546" lon="5.18207">
        <ele>162.6</ele>
        <time>2022-05-07T12:19:50.000Z</time>
      </trkpt>
      <trkpt lat="45.08545" lon="5.18203">
        <ele>162.8</ele>
        <time>2022-05-07T12:19:51.000Z</time>
      </trkpt>
      <trkpt lat="45.08543" lon="5.18198">
        <ele>163</ele>
        <time>2022-05-07T12:19:52.000Z</time>
      </trkpt>
      <trkpt lat="45.08542" lon="5.18195">
        <ele>163.1</ele>
        <time>2022-05-07T12:19:53.000Z</time>
      </trkpt>
      <trkpt lat="45.08541" lon="5.1819">
        <ele>163.1</ele>
        <time>2022-05-07T12:19:54.000Z</time>
      </trkpt>
      <trkpt lat="45.08539" lon="5.18184">
        <ele>163</ele>
        <time>2022-05-07T12:19:55.000Z</time>
      </trkpt>
      <trkpt lat="45.08537" lon="5.18178">
        <ele>162.7</ele>
        <time>2022-05-07T12:19:56.000Z</time>
      </trkpt>
      <trkpt lat="45.08536" lon="5.18174">
        <ele>162.5</ele>
        <time>2022-05-07T12:19:57.000Z</time>
      </trkpt>
      <trkpt lat="45.08534" lon="5.18169">
        <ele>162</ele>
        <time>2022-05-07T12:19:58.000Z</time>
      </trkpt>
      <trkpt lat="45.08532" lon="5.18166">
        <ele>161.8</ele>
        <time>2022-05-07T12:19:59.000Z</time>
      </trkpt>
      <trkpt lat="45.08531" lon="5.18162">
        <ele>161.7</ele>
        <time>2022-05-07T12:20:00.000Z</time>
      </trkpt>
      <trkpt lat="45.08529" lon="5.18158">
        <ele>161.6</ele>
        <time>2022-05-07T12:20:01.000Z</time>
      </trkpt>
      <trkpt lat="45.08527" lon="5.18154">
        <ele>161.7</ele>
        <time>2022-05-07T12:20:02.000Z</time>
      </trkpt>
      <trkpt lat="45.08525" lon="5.18148">
        <ele>162</ele>
        <time>2022-05-07T12:20:03.000Z</time>
      </trkpt>
      <trkpt lat="45.08524" lon="5.18144">
        <ele>162.3</ele>
        <time>2022-05-07T12:20:04.000Z</time>
      </trkpt>
      <trkpt lat="45.08522" lon="5.18138">
        <ele>162.6</ele>
        <time>2022-05-07T12:20:05.000Z</time>
      </trkpt>
      <trkpt lat="45.0852" lon="5.18133">
        <ele>162.4</ele>
        <time>2022-05-07T12:20:06.000Z</time>
      </trkpt>
      <trkpt lat="45.08519" lon="5.18128">
        <ele>162.3</ele>
        <time>2022-05-07T12:20:07.000Z</time>
      </trkpt>
      <trkpt lat="45.08517" lon="5.18123">
        <ele>162.2</ele>
        <time>2022-05-07T12:20:08.000Z</time>
      </trkpt>
      <trkpt lat="45.08515" lon="5.18118">
        <ele>162.2</ele>
        <time>2022-05-07T12:20:09.000Z</time>
      </trkpt>
      <trkpt lat="45.08513" lon="5.18113">
        <ele>162.2</ele>
        <time>2022-05-07T12:20:10.000Z</time>
      </trkpt>
      <trkpt lat="45.08512" lon="5.18108">
        <ele>162.1</ele>
        <time>2022-05-07T12:20:11.000Z</time>
      </trkpt>
      <trkpt lat="45.0851" lon="5.18103">
        <ele>161.9</ele>
        <time>2022-05-07T12:20:12.000Z</time>
      </trkpt>
      <trkpt lat="45.08508" lon="5.18098">
        <ele>161.8</ele>
        <time>2022-05-07T12:20:13.000Z</time>
      </trkpt>
      <trkpt lat="45.08507" lon="5.18093">
        <ele>161.7</ele>
        <time>2022-05-07T12:20:14.000Z</time>
      </trkpt>
      <trkpt lat="45.08505" lon="5.18088">
        <ele>161.6</ele>
        <time>2022-05-07T12:20:15.000Z</time>
      </trkpt>
      <trkpt lat="45.08504" lon="5.18082">
        <ele>161.7</ele>
        <time>2022-05-07T12:20:16.000Z</time>
      </trkpt>
      <trkpt lat="45.08502" lon="5.18077">
        <ele>162.6</ele>
        <time>2022-05-07T12:20:17.000Z</time>
      </trkpt>
      <trkpt lat="45.08501" lon="5.18072">
        <ele>163.3</ele>
        <time>2022-05-07T12:20:18.000Z</time>
      </trkpt>
      <trkpt lat="45.085" lon="5.18067">
        <ele>163.9</ele>
        <time>2022-05-07T12:20:19.000Z</time>
      </trkpt>
      <trkpt lat="45.08498" lon="5.18062">
        <ele>164</ele>
        <time>2022-05-07T12:20:20.000Z</time>
      </trkpt>
      <trkpt lat="45.08497" lon="5.18057">
        <ele>164.3</ele>
        <time>2022-05-07T12:20:21.000Z</time>
      </trkpt>
      <trkpt lat="45.08495" lon="5.18053">
        <ele>164.7</ele>
        <time>2022-05-07T12:20:22.000Z</time>
      </trkpt>
      <trkpt lat="45.08493" lon="5.18049">
        <ele>165.1</ele>
        <time>2022-05-07T12:20:23.000Z</time>
      </trkpt>
      <trkpt lat="45.08491" lon="5.18044">
        <ele>165.7</ele>
        <time>2022-05-07T12:20:24.000Z</time>
      </trkpt>
      <trkpt lat="45.0849" lon="5.18039">
        <ele>166.4</ele>
        <time>2022-05-07T12:20:25.000Z</time>
      </trkpt>
      <trkpt lat="45.08488" lon="5.18034">
        <ele>166.7</ele>
        <time>2022-05-07T12:20:26.000Z</time>
      </trkpt>
      <trkpt lat="45.08486" lon="5.18029">
        <ele>167</ele>
        <time>2022-05-07T12:20:27.000Z</time>
      </trkpt>
      <trkpt lat="45.08483" lon="5.18024">
        <ele>166.9</ele>
        <time>2022-05-07T12:20:28.000Z</time>
      </trkpt>
      <trkpt lat="45.08481" lon="5.18019">
        <ele>166.7</ele>
        <time>2022-05-07T12:20:29.000Z</time>
      </trkpt>
      <trkpt lat="45.08479" lon="5.18014">
        <ele>166.4</ele>
        <time>2022-05-07T12:20:30.000Z</time>
      </trkpt>
      <trkpt lat="45.08477" lon="5.1801">
        <ele>165.9</ele>
        <time>2022-05-07T12:20:31.000Z</time>
      </trkpt>
      <trkpt lat="45.08474" lon="5.18006">
        <ele>165.3</ele>
        <time>2022-05-07T12:20:32.000Z</time>
      </trkpt>
      <trkpt lat="45.08472" lon="5.18001">
        <ele>164.7</ele>
        <time>2022-05-07T12:20:33.000Z</time>
      </trkpt>
      <trkpt lat="45.0847" lon="5.17996">
        <ele>164.9</ele>
        <time>2022-05-07T12:20:34.000Z</time>
      </trkpt>
      <trkpt lat="45.08467" lon="5.17992">
        <ele>165.1</ele>
        <time>2022-05-07T12:20:35.000Z</time>
      </trkpt>
      <trkpt lat="45.08465" lon="5.17987">
        <ele>165.2</ele>
        <time>2022-05-07T12:20:36.000Z</time>
      </trkpt>
      <trkpt lat="45.08463" lon="5.17982">
        <ele>165.4</ele>
        <time>2022-05-07T12:20:37.000Z</time>
      </trkpt>
      <trkpt lat="45.0846" lon="5.17977">
        <ele>165.6</ele>
        <time>2022-05-07T12:20:38.000Z</time>
      </trkpt>
      <trkpt lat="45.08458" lon="5.17973">
        <ele>165.8</ele>
        <time>2022-05-07T12:20:39.000Z</time>
      </trkpt>
      <trkpt lat="45.08456" lon="5.17968">
        <ele>166.2</ele>
        <time>2022-05-07T12:20:40.000Z</time>
      </trkpt>
      <trkpt lat="45.08454" lon="5.17963">
        <ele>166.7</ele>
        <time>2022-05-07T12:20:41.000Z</time>
      </trkpt>
      <trkpt lat="45.08452" lon="5.17958">
        <ele>167.1</ele>
        <time>2022-05-07T12:20:42.000Z</time>
      </trkpt>
      <trkpt lat="45.08449" lon="5.17954">
        <ele>167.1</ele>
        <time>2022-05-07T12:20:43.000Z</time>
      </trkpt>
      <trkpt lat="45.08447" lon="5.1795">
        <ele>167</ele>
        <time>2022-05-07T12:20:44.000Z</time>
      </trkpt>
      <trkpt lat="45.08445" lon="5.17946">
        <ele>166.8</ele>
        <time>2022-05-07T12:20:45.000Z</time>
      </trkpt>
      <trkpt lat="45.08442" lon="5.17941">
        <ele>166.8</ele>
        <time>2022-05-07T12:20:46.000Z</time>
      </trkpt>
      <trkpt lat="45.08439" lon="5.17937">
        <ele>167.1</ele>
        <time>2022-05-07T12:20:47.000Z</time>
      </trkpt>
      <trkpt lat="45.08437" lon="5.17933">
        <ele>167.2</ele>
        <time>2022-05-07T12:20:48.000Z</time>
      </trkpt>
      <trkpt lat="45.08434" lon="5.17929">
        <ele>167.3</ele>
        <time>2022-05-07T12:20:49.000Z</time>
      </trkpt>
      <trkpt lat="45.08432" lon="5.17924">
        <ele>167.7</ele>
        <time>2022-05-07T12:20:50.000Z</time>
      </trkpt>
      <trkpt lat="45.0843" lon="5.17919">
        <ele>168.2</ele>
        <time>2022-05-07T12:20:51.000Z</time>
      </trkpt>
      <trkpt lat="45.08428" lon="5.17915">
        <ele>168.3</ele>
        <time>2022-05-07T12:20:52.000Z</time>
      </trkpt>
      <trkpt lat="45.08426" lon="5.1791">
        <ele>168.4</ele>
        <time>2022-05-07T12:20:53.000Z</time>
      </trkpt>
      <trkpt lat="45.08424" lon="5.17906">
        <ele>168.3</ele>
        <time>2022-05-07T12:20:54.000Z</time>
      </trkpt>
      <trkpt lat="45.08422" lon="5.17902">
        <ele>168.1</ele>
        <time>2022-05-07T12:20:55.000Z</time>
      </trkpt>
      <trkpt lat="45.0842" lon="5.17897">
        <ele>167.9</ele>
        <time>2022-05-07T12:20:56.000Z</time>
      </trkpt>
      <trkpt lat="45.08417" lon="5.17893">
        <ele>167.5</ele>
        <time>2022-05-07T12:20:57.000Z</time>
      </trkpt>
      <trkpt lat="45.08415" lon="5.17888">
        <ele>167.9</ele>
        <time>2022-05-07T12:20:58.000Z</time>
      </trkpt>
      <trkpt lat="45.08413" lon="5.17883">
        <ele>168.7</ele>
        <time>2022-05-07T12:20:59.000Z</time>
      </trkpt>
      <trkpt lat="45.0841" lon="5.17878">
        <ele>169.4</ele>
        <time>2022-05-07T12:21:00.000Z</time>
      </trkpt>
      <trkpt lat="45.08408" lon="5.17873">
        <ele>169.9</ele>
        <time>2022-05-07T12:21:01.000Z</time>
      </trkpt>
      <trkpt lat="45.08406" lon="5.17869">
        <ele>170.3</ele>
        <time>2022-05-07T12:21:02.000Z</time>
      </trkpt>
      <trkpt lat="45.08403" lon="5.17864">
        <ele>170.6</ele>
        <time>2022-05-07T12:21:03.000Z</time>
      </trkpt>
      <trkpt lat="45.08402" lon="5.17859">
        <ele>170.9</ele>
        <time>2022-05-07T12:21:04.000Z</time>
      </trkpt>
      <trkpt lat="45.08399" lon="5.17855">
        <ele>170.9</ele>
        <time>2022-05-07T12:21:05.000Z</time>
      </trkpt>
      <trkpt lat="45.08396" lon="5.1785">
        <ele>170.8</ele>
        <time>2022-05-07T12:21:06.000Z</time>
      </trkpt>
      <trkpt lat="45.08394" lon="5.17845">
        <ele>170.8</ele>
        <time>2022-05-07T12:21:07.000Z</time>
      </trkpt>
      <trkpt lat="45.08391" lon="5.17841">
        <ele>170.6</ele>
        <time>2022-05-07T12:21:08.000Z</time>
      </trkpt>
      <trkpt lat="45.08389" lon="5.17837">
        <ele>170.3</ele>
        <time>2022-05-07T12:21:09.000Z</time>
      </trkpt>
      <trkpt lat="45.08386" lon="5.17833">
        <ele>170.4</ele>
        <time>2022-05-07T12:21:10.000Z</time>
      </trkpt>
      <trkpt lat="45.08384" lon="5.1783">
        <ele>170.9</ele>
        <time>2022-05-07T12:21:11.000Z</time>
      </trkpt>
      <trkpt lat="45.08381" lon="5.17826">
        <ele>171.1</ele>
        <time>2022-05-07T12:21:12.000Z</time>
      </trkpt>
      <trkpt lat="45.08378" lon="5.17822">
        <ele>171.4</ele>
        <time>2022-05-07T12:21:13.000Z</time>
      </trkpt>
      <trkpt lat="45.08376" lon="5.17819">
        <ele>171.5</ele>
        <time>2022-05-07T12:21:14.000Z</time>
      </trkpt>
      <trkpt lat="45.08373" lon="5.17814">
        <ele>171.6</ele>
        <time>2022-05-07T12:21:15.000Z</time>
      </trkpt>
      <trkpt lat="45.0837" lon="5.1781">
        <ele>171.2</ele>
        <time>2022-05-07T12:21:16.000Z</time>
      </trkpt>
      <trkpt lat="45.08367" lon="5.17806">
        <ele>170.5</ele>
        <time>2022-05-07T12:21:17.000Z</time>
      </trkpt>
      <trkpt lat="45.08364" lon="5.17802">
        <ele>170.4</ele>
        <time>2022-05-07T12:21:18.000Z</time>
      </trkpt>
      <trkpt lat="45.08361" lon="5.17799">
        <ele>170</ele>
        <time>2022-05-07T12:21:19.000Z</time>
      </trkpt>
      <trkpt lat="45.08359" lon="5.17795">
        <ele>170.7</ele>
        <time>2022-05-07T12:21:20.000Z</time>
      </trkpt>
      <trkpt lat="45.08357" lon="5.17791">
        <ele>171.2</ele>
        <time>2022-05-07T12:21:21.000Z</time>
      </trkpt>
      <trkpt lat="45.08354" lon="5.17787">
        <ele>171.4</ele>
        <time>2022-05-07T12:21:22.000Z</time>
      </trkpt>
      <trkpt lat="45.08351" lon="5.17784">
        <ele>171.5</ele>
        <time>2022-05-07T12:21:23.000Z</time>
      </trkpt>
      <trkpt lat="45.08348" lon="5.17781">
        <ele>171.6</ele>
        <time>2022-05-07T12:21:24.000Z</time>
      </trkpt>
      <trkpt lat="45.08346" lon="5.17776">
        <ele>172.1</ele>
        <time>2022-05-07T12:21:25.000Z</time>
      </trkpt>
      <trkpt lat="45.08343" lon="5.17773">
        <ele>172.5</ele>
        <time>2022-05-07T12:21:26.000Z</time>
      </trkpt>
      <trkpt lat="45.0834" lon="5.1777">
        <ele>172.6</ele>
        <time>2022-05-07T12:21:27.000Z</time>
      </trkpt>
      <trkpt lat="45.08337" lon="5.17767">
        <ele>172.7</ele>
        <time>2022-05-07T12:21:28.000Z</time>
      </trkpt>
      <trkpt lat="45.08334" lon="5.17763">
        <ele>173</ele>
        <time>2022-05-07T12:21:29.000Z</time>
      </trkpt>
      <trkpt lat="45.08331" lon="5.1776">
        <ele>173.3</ele>
        <time>2022-05-07T12:21:30.000Z</time>
      </trkpt>
      <trkpt lat="45.08329" lon="5.17756">
        <ele>173.6</ele>
        <time>2022-05-07T12:21:31.000Z</time>
      </trkpt>
      <trkpt lat="45.08326" lon="5.17753">
        <ele>173.7</ele>
        <time>2022-05-07T12:21:32.000Z</time>
      </trkpt>
      <trkpt lat="45.08324" lon="5.1775">
        <ele>174</ele>
        <time>2022-05-07T12:21:33.000Z</time>
      </trkpt>
      <trkpt lat="45.08322" lon="5.17746">
        <ele>174.1</ele>
        <time>2022-05-07T12:21:34.000Z</time>
      </trkpt>
      <trkpt lat="45.08319" lon="5.17742">
        <ele>174</ele>
        <time>2022-05-07T12:21:35.000Z</time>
      </trkpt>
      <trkpt lat="45.08316" lon="5.17739">
        <ele>173.7</ele>
        <time>2022-05-07T12:21:36.000Z</time>
      </trkpt>
      <trkpt lat="45.08313" lon="5.17735">
        <ele>173.4</ele>
        <time>2022-05-07T12:21:37.000Z</time>
      </trkpt>
      <trkpt lat="45.0831" lon="5.17731">
        <ele>173.2</ele>
        <time>2022-05-07T12:21:38.000Z</time>
      </trkpt>
      <trkpt lat="45.08308" lon="5.17727">
        <ele>173.1</ele>
        <time>2022-05-07T12:21:39.000Z</time>
      </trkpt>
      <trkpt lat="45.08304" lon="5.17722">
        <ele>172.7</ele>
        <time>2022-05-07T12:21:40.000Z</time>
      </trkpt>
      <trkpt lat="45.08301" lon="5.17719">
        <ele>173.3</ele>
        <time>2022-05-07T12:21:41.000Z</time>
      </trkpt>
      <trkpt lat="45.08298" lon="5.17715">
        <ele>174</ele>
        <time>2022-05-07T12:21:42.000Z</time>
      </trkpt>
      <trkpt lat="45.08296" lon="5.17711">
        <ele>174.4</ele>
        <time>2022-05-07T12:21:43.000Z</time>
      </trkpt>
      <trkpt lat="45.08292" lon="5.17706">
        <ele>174.6</ele>
        <time>2022-05-07T12:21:44.000Z</time>
      </trkpt>
      <trkpt lat="45.08289" lon="5.17702">
        <ele>174.4</ele>
        <time>2022-05-07T12:21:45.000Z</time>
      </trkpt>
      <trkpt lat="45.08285" lon="5.17698">
        <ele>173.7</ele>
        <time>2022-05-07T12:21:46.000Z</time>
      </trkpt>
      <trkpt lat="45.08282" lon="5.17694">
        <ele>173</ele>
        <time>2022-05-07T12:21:47.000Z</time>
      </trkpt>
      <trkpt lat="45.08278" lon="5.1769">
        <ele>172.6</ele>
        <time>2022-05-07T12:21:48.000Z</time>
      </trkpt>
      <trkpt lat="45.08274" lon="5.17685">
        <ele>173.1</ele>
        <time>2022-05-07T12:21:49.000Z</time>
      </trkpt>
      <trkpt lat="45.0827" lon="5.17681">
        <ele>173.3</ele>
        <time>2022-05-07T12:21:50.000Z</time>
      </trkpt>
      <trkpt lat="45.08266" lon="5.17676">
        <ele>173.3</ele>
        <time>2022-05-07T12:21:51.000Z</time>
      </trkpt>
      <trkpt lat="45.08263" lon="5.17672">
        <ele>173.3</ele>
        <time>2022-05-07T12:21:52.000Z</time>
      </trkpt>
      <trkpt lat="45.0826" lon="5.17667">
        <ele>173.1</ele>
        <time>2022-05-07T12:21:53.000Z</time>
      </trkpt>
      <trkpt lat="45.08256" lon="5.17663">
        <ele>173.2</ele>
        <time>2022-05-07T12:21:54.000Z</time>
      </trkpt>
      <trkpt lat="45.08253" lon="5.17659">
        <ele>173.2</ele>
        <time>2022-05-07T12:21:55.000Z</time>
      </trkpt>
      <trkpt lat="45.0825" lon="5.17656">
        <ele>173.3</ele>
        <time>2022-05-07T12:21:56.000Z</time>
      </trkpt>
      <trkpt lat="45.08248" lon="5.17652">
        <ele>173.9</ele>
        <time>2022-05-07T12:21:57.000Z</time>
      </trkpt>
      <trkpt lat="45.08245" lon="5.17649">
        <ele>174.4</ele>
        <time>2022-05-07T12:21:58.000Z</time>
      </trkpt>
      <trkpt lat="45.08243" lon="5.17646">
        <ele>174.8</ele>
        <time>2022-05-07T12:21:59.000Z</time>
      </trkpt>
      <trkpt lat="45.08241" lon="5.17643">
        <ele>174.9</ele>
        <time>2022-05-07T12:22:00.000Z</time>
      </trkpt>
      <trkpt lat="45.08238" lon="5.1764">
        <ele>175</ele>
        <time>2022-05-07T12:22:01.000Z</time>
      </trkpt>
      <trkpt lat="45.08236" lon="5.17636">
        <ele>175.6</ele>
        <time>2022-05-07T12:22:02.000Z</time>
      </trkpt>
      <trkpt lat="45.08234" lon="5.17632">
        <ele>175.9</ele>
        <time>2022-05-07T12:22:03.000Z</time>
      </trkpt>
      <trkpt lat="45.08231" lon="5.17628">
        <ele>176</ele>
        <time>2022-05-07T12:22:04.000Z</time>
      </trkpt>
      <trkpt lat="45.08226" lon="5.17623">
        <ele>174.6</ele>
        <time>2022-05-07T12:22:05.000Z</time>
      </trkpt>
      <trkpt lat="45.0822" lon="5.17619">
        <ele>172.6</ele>
        <time>2022-05-07T12:22:06.000Z</time>
      </trkpt>
      <trkpt lat="45.08218" lon="5.17614">
        <ele>173</ele>
        <time>2022-05-07T12:22:07.000Z</time>
      </trkpt>
      <trkpt lat="45.08214" lon="5.17613">
        <ele>172.3</ele>
        <time>2022-05-07T12:22:08.000Z</time>
      </trkpt>
      <trkpt lat="45.08212" lon="5.17611">
        <ele>172.3</ele>
        <time>2022-05-07T12:22:09.000Z</time>
      </trkpt>
      <trkpt lat="45.08211" lon="5.17608">
        <ele>172.4</ele>
        <time>2022-05-07T12:22:10.000Z</time>
      </trkpt>
      <trkpt lat="45.08209" lon="5.17606">
        <ele>172.5</ele>
        <time>2022-05-07T12:22:11.000Z</time>
      </trkpt>
      <trkpt lat="45.08208" lon="5.17603">
        <ele>172.7</ele>
        <time>2022-05-07T12:22:12.000Z</time>
      </trkpt>
      <trkpt lat="45.08206" lon="5.17599">
        <ele>172.9</ele>
        <time>2022-05-07T12:22:13.000Z</time>
      </trkpt>
      <trkpt lat="45.08205" lon="5.17597">
        <ele>172.9</ele>
        <time>2022-05-07T12:22:14.000Z</time>
      </trkpt>
      <trkpt lat="45.08203" lon="5.17593">
        <ele>172.8</ele>
        <time>2022-05-07T12:22:15.000Z</time>
      </trkpt>
      <trkpt lat="45.08202" lon="5.1759">
        <ele>172.7</ele>
        <time>2022-05-07T12:22:16.000Z</time>
      </trkpt>
      <trkpt lat="45.082" lon="5.17588">
        <ele>172.3</ele>
        <time>2022-05-07T12:22:17.000Z</time>
      </trkpt>
      <trkpt lat="45.08198" lon="5.17584">
        <ele>171.9</ele>
        <time>2022-05-07T12:22:18.000Z</time>
      </trkpt>
      <trkpt lat="45.08197" lon="5.17581">
        <ele>172.5</ele>
        <time>2022-05-07T12:22:19.000Z</time>
      </trkpt>
      <trkpt lat="45.08195" lon="5.17577">
        <ele>173.4</ele>
        <time>2022-05-07T12:22:20.000Z</time>
      </trkpt>
      <trkpt lat="45.08193" lon="5.17574">
        <ele>174.4</ele>
        <time>2022-05-07T12:22:21.000Z</time>
      </trkpt>
      <trkpt lat="45.08191" lon="5.1757">
        <ele>175.5</ele>
        <time>2022-05-07T12:22:22.000Z</time>
      </trkpt>
      <trkpt lat="45.08189" lon="5.17566">
        <ele>176.4</ele>
        <time>2022-05-07T12:22:23.000Z</time>
      </trkpt>
      <trkpt lat="45.08186" lon="5.17563">
        <ele>176.9</ele>
        <time>2022-05-07T12:22:24.000Z</time>
      </trkpt>
      <trkpt lat="45.08184" lon="5.17559">
        <ele>177.5</ele>
        <time>2022-05-07T12:22:25.000Z</time>
      </trkpt>
      <trkpt lat="45.08182" lon="5.17555">
        <ele>178.1</ele>
        <time>2022-05-07T12:22:26.000Z</time>
      </trkpt>
      <trkpt lat="45.08179" lon="5.17552">
        <ele>179.1</ele>
        <time>2022-05-07T12:22:27.000Z</time>
      </trkpt>
      <trkpt lat="45.08177" lon="5.17548">
        <ele>179.4</ele>
        <time>2022-05-07T12:22:28.000Z</time>
      </trkpt>
      <trkpt lat="45.08174" lon="5.17544">
        <ele>179.4</ele>
        <time>2022-05-07T12:22:29.000Z</time>
      </trkpt>
      <trkpt lat="45.08172" lon="5.17541">
        <ele>179.3</ele>
        <time>2022-05-07T12:22:30.000Z</time>
      </trkpt>
      <trkpt lat="45.0817" lon="5.17537">
        <ele>178.7</ele>
        <time>2022-05-07T12:22:31.000Z</time>
      </trkpt>
      <trkpt lat="45.08168" lon="5.17533">
        <ele>177.9</ele>
        <time>2022-05-07T12:22:32.000Z</time>
      </trkpt>
      <trkpt lat="45.08166" lon="5.17529">
        <ele>177.5</ele>
        <time>2022-05-07T12:22:33.000Z</time>
      </trkpt>
      <trkpt lat="45.08164" lon="5.17525">
        <ele>179.4</ele>
        <time>2022-05-07T12:22:34.000Z</time>
      </trkpt>
      <trkpt lat="45.08162" lon="5.17521">
        <ele>181.5</ele>
        <time>2022-05-07T12:22:35.000Z</time>
      </trkpt>
      <trkpt lat="45.08159" lon="5.17518">
        <ele>182.7</ele>
        <time>2022-05-07T12:22:36.000Z</time>
      </trkpt>
      <trkpt lat="45.08156" lon="5.17514">
        <ele>183.7</ele>
        <time>2022-05-07T12:22:37.000Z</time>
      </trkpt>
      <trkpt lat="45.08154" lon="5.1751">
        <ele>184</ele>
        <time>2022-05-07T12:22:38.000Z</time>
      </trkpt>
      <trkpt lat="45.08151" lon="5.17506">
        <ele>183.9</ele>
        <time>2022-05-07T12:22:39.000Z</time>
      </trkpt>
      <trkpt lat="45.08149" lon="5.17502">
        <ele>183.4</ele>
        <time>2022-05-07T12:22:40.000Z</time>
      </trkpt>
      <trkpt lat="45.08146" lon="5.17498">
        <ele>182.7</ele>
        <time>2022-05-07T12:22:41.000Z</time>
      </trkpt>
      <trkpt lat="45.08144" lon="5.17494">
        <ele>182.2</ele>
        <time>2022-05-07T12:22:42.000Z</time>
      </trkpt>
      <trkpt lat="45.08141" lon="5.1749">
        <ele>181.8</ele>
        <time>2022-05-07T12:22:43.000Z</time>
      </trkpt>
      <trkpt lat="45.08139" lon="5.17486">
        <ele>181.4</ele>
        <time>2022-05-07T12:22:44.000Z</time>
      </trkpt>
      <trkpt lat="45.08137" lon="5.17483">
        <ele>182.4</ele>
        <time>2022-05-07T12:22:45.000Z</time>
      </trkpt>
      <trkpt lat="45.08134" lon="5.17479">
        <ele>183</ele>
        <time>2022-05-07T12:22:46.000Z</time>
      </trkpt>
      <trkpt lat="45.08131" lon="5.17475">
        <ele>183.3</ele>
        <time>2022-05-07T12:22:47.000Z</time>
      </trkpt>
      <trkpt lat="45.08129" lon="5.17471">
        <ele>183.6</ele>
        <time>2022-05-07T12:22:48.000Z</time>
      </trkpt>
      <trkpt lat="45.08126" lon="5.17467">
        <ele>183.3</ele>
        <time>2022-05-07T12:22:49.000Z</time>
      </trkpt>
      <trkpt lat="45.08123" lon="5.17464">
        <ele>182.9</ele>
        <time>2022-05-07T12:22:50.000Z</time>
      </trkpt>
      <trkpt lat="45.08121" lon="5.1746">
        <ele>182.5</ele>
        <time>2022-05-07T12:22:51.000Z</time>
      </trkpt>
      <trkpt lat="45.08118" lon="5.17456">
        <ele>181.8</ele>
        <time>2022-05-07T12:22:52.000Z</time>
      </trkpt>
      <trkpt lat="45.08115" lon="5.17452">
        <ele>181</ele>
        <time>2022-05-07T12:22:53.000Z</time>
      </trkpt>
      <trkpt lat="45.08113" lon="5.17448">
        <ele>179.6</ele>
        <time>2022-05-07T12:22:54.000Z</time>
      </trkpt>
      <trkpt lat="45.0811" lon="5.17443">
        <ele>179.4</ele>
        <time>2022-05-07T12:22:55.000Z</time>
      </trkpt>
      <trkpt lat="45.08107" lon="5.17439">
        <ele>181</ele>
        <time>2022-05-07T12:22:56.000Z</time>
      </trkpt>
      <trkpt lat="45.08105" lon="5.17435">
        <ele>182.3</ele>
        <time>2022-05-07T12:22:57.000Z</time>
      </trkpt>
      <trkpt lat="45.08103" lon="5.1743">
        <ele>183.3</ele>
        <time>2022-05-07T12:22:58.000Z</time>
      </trkpt>
      <trkpt lat="45.081" lon="5.17425">
        <ele>183.9</ele>
        <time>2022-05-07T12:22:59.000Z</time>
      </trkpt>
      <trkpt lat="45.08098" lon="5.17421">
        <ele>184.1</ele>
        <time>2022-05-07T12:23:00.000Z</time>
      </trkpt>
      <trkpt lat="45.08095" lon="5.17417">
        <ele>183.7</ele>
        <time>2022-05-07T12:23:01.000Z</time>
      </trkpt>
      <trkpt lat="45.08092" lon="5.17412">
        <ele>183.2</ele>
        <time>2022-05-07T12:23:02.000Z</time>
      </trkpt>
      <trkpt lat="45.08089" lon="5.17408">
        <ele>182.7</ele>
        <time>2022-05-07T12:23:03.000Z</time>
      </trkpt>
      <trkpt lat="45.08087" lon="5.17403">
        <ele>182.2</ele>
        <time>2022-05-07T12:23:04.000Z</time>
      </trkpt>
      <trkpt lat="45.08084" lon="5.17399">
        <ele>181.9</ele>
        <time>2022-05-07T12:23:05.000Z</time>
      </trkpt>
      <trkpt lat="45.08081" lon="5.17394">
        <ele>181.8</ele>
        <time>2022-05-07T12:23:06.000Z</time>
      </trkpt>
      <trkpt lat="45.08078" lon="5.1739">
        <ele>181.7</ele>
        <time>2022-05-07T12:23:07.000Z</time>
      </trkpt>
      <trkpt lat="45.08075" lon="5.17386">
        <ele>181.6</ele>
        <time>2022-05-07T12:23:08.000Z</time>
      </trkpt>
      <trkpt lat="45.08072" lon="5.17382">
        <ele>181.1</ele>
        <time>2022-05-07T12:23:09.000Z</time>
      </trkpt>
      <trkpt lat="45.08069" lon="5.17378">
        <ele>180.5</ele>
        <time>2022-05-07T12:23:10.000Z</time>
      </trkpt>
      <trkpt lat="45.08066" lon="5.17374">
        <ele>179.4</ele>
        <time>2022-05-07T12:23:11.000Z</time>
      </trkpt>
      <trkpt lat="45.08063" lon="5.1737">
        <ele>178.4</ele>
        <time>2022-05-07T12:23:12.000Z</time>
      </trkpt>
      <trkpt lat="45.0806" lon="5.17365">
        <ele>177.2</ele>
        <time>2022-05-07T12:23:13.000Z</time>
      </trkpt>
      <trkpt lat="45.08056" lon="5.1736">
        <ele>175.9</ele>
        <time>2022-05-07T12:23:14.000Z</time>
      </trkpt>
      <trkpt lat="45.08053" lon="5.17356">
        <ele>176.3</ele>
        <time>2022-05-07T12:23:15.000Z</time>
      </trkpt>
      <trkpt lat="45.0805" lon="5.17351">
        <ele>176.8</ele>
        <time>2022-05-07T12:23:16.000Z</time>
      </trkpt>
      <trkpt lat="45.08047" lon="5.17346">
        <ele>177.5</ele>
        <time>2022-05-07T12:23:17.000Z</time>
      </trkpt>
      <trkpt lat="45.08044" lon="5.17342">
        <ele>178.1</ele>
        <time>2022-05-07T12:23:18.000Z</time>
      </trkpt>
      <trkpt lat="45.08041" lon="5.17337">
        <ele>178.7</ele>
        <time>2022-05-07T12:23:19.000Z</time>
      </trkpt>
      <trkpt lat="45.08038" lon="5.17333">
        <ele>179.2</ele>
        <time>2022-05-07T12:23:20.000Z</time>
      </trkpt>
      <trkpt lat="45.08035" lon="5.17329">
        <ele>179.1</ele>
        <time>2022-05-07T12:23:21.000Z</time>
      </trkpt>
      <trkpt lat="45.08033" lon="5.17325">
        <ele>179.1</ele>
        <time>2022-05-07T12:23:22.000Z</time>
      </trkpt>
      <trkpt lat="45.0803" lon="5.17322">
        <ele>179.2</ele>
        <time>2022-05-07T12:23:23.000Z</time>
      </trkpt>
      <trkpt lat="45.08027" lon="5.17318">
        <ele>179.3</ele>
        <time>2022-05-07T12:23:24.000Z</time>
      </trkpt>
      <trkpt lat="45.08024" lon="5.17314">
        <ele>179.5</ele>
        <time>2022-05-07T12:23:25.000Z</time>
      </trkpt>
      <trkpt lat="45.08021" lon="5.17311">
        <ele>179.7</ele>
        <time>2022-05-07T12:23:26.000Z</time>
      </trkpt>
      <trkpt lat="45.08019" lon="5.17308">
        <ele>180</ele>
        <time>2022-05-07T12:23:27.000Z</time>
      </trkpt>
      <trkpt lat="45.08016" lon="5.17304">
        <ele>180.3</ele>
        <time>2022-05-07T12:23:28.000Z</time>
      </trkpt>
      <trkpt lat="45.08014" lon="5.17301">
        <ele>180.3</ele>
        <time>2022-05-07T12:23:29.000Z</time>
      </trkpt>
      <trkpt lat="45.08011" lon="5.17298">
        <ele>180.2</ele>
        <time>2022-05-07T12:23:30.000Z</time>
      </trkpt>
      <trkpt lat="45.08008" lon="5.17294">
        <ele>180.3</ele>
        <time>2022-05-07T12:23:31.000Z</time>
      </trkpt>
      <trkpt lat="45.08006" lon="5.17291">
        <ele>180.5</ele>
        <time>2022-05-07T12:23:32.000Z</time>
      </trkpt>
      <trkpt lat="45.08003" lon="5.17287">
        <ele>180.6</ele>
        <time>2022-05-07T12:23:33.000Z</time>
      </trkpt>
      <trkpt lat="45.08" lon="5.17283">
        <ele>180.9</ele>
        <time>2022-05-07T12:23:34.000Z</time>
      </trkpt>
      <trkpt lat="45.07998" lon="5.17279">
        <ele>181.1</ele>
        <time>2022-05-07T12:23:35.000Z</time>
      </trkpt>
      <trkpt lat="45.07995" lon="5.17276">
        <ele>181.2</ele>
        <time>2022-05-07T12:23:36.000Z</time>
      </trkpt>
      <trkpt lat="45.07992" lon="5.17272">
        <ele>181.1</ele>
        <time>2022-05-07T12:23:37.000Z</time>
      </trkpt>
      <trkpt lat="45.0799" lon="5.17268">
        <ele>181.1</ele>
        <time>2022-05-07T12:23:38.000Z</time>
      </trkpt>
      <trkpt lat="45.07988" lon="5.17264">
        <ele>181.3</ele>
        <time>2022-05-07T12:23:39.000Z</time>
      </trkpt>
      <trkpt lat="45.07985" lon="5.1726">
        <ele>181.5</ele>
        <time>2022-05-07T12:23:40.000Z</time>
      </trkpt>
      <trkpt lat="45.07983" lon="5.17255">
        <ele>181.7</ele>
        <time>2022-05-07T12:23:41.000Z</time>
      </trkpt>
      <trkpt lat="45.07981" lon="5.17252">
        <ele>182</ele>
        <time>2022-05-07T12:23:42.000Z</time>
      </trkpt>
      <trkpt lat="45.07978" lon="5.17248">
        <ele>182.1</ele>
        <time>2022-05-07T12:23:43.000Z</time>
      </trkpt>
      <trkpt lat="45.07976" lon="5.17244">
        <ele>182.1</ele>
        <time>2022-05-07T12:23:44.000Z</time>
      </trkpt>
      <trkpt lat="45.07973" lon="5.17241">
        <ele>182.1</ele>
        <time>2022-05-07T12:23:45.000Z</time>
      </trkpt>
      <trkpt lat="45.07971" lon="5.17238">
        <ele>182.2</ele>
        <time>2022-05-07T12:23:46.000Z</time>
      </trkpt>
      <trkpt lat="45.07968" lon="5.17235">
        <ele>182.4</ele>
        <time>2022-05-07T12:23:47.000Z</time>
      </trkpt>
      <trkpt lat="45.07966" lon="5.17231">
        <ele>182.7</ele>
        <time>2022-05-07T12:23:48.000Z</time>
      </trkpt>
      <trkpt lat="45.07964" lon="5.17228">
        <ele>183</ele>
        <time>2022-05-07T12:23:49.000Z</time>
      </trkpt>
      <trkpt lat="45.07962" lon="5.17225">
        <ele>183.3</ele>
        <time>2022-05-07T12:23:50.000Z</time>
      </trkpt>
      <trkpt lat="45.0796" lon="5.17221">
        <ele>183.6</ele>
        <time>2022-05-07T12:23:51.000Z</time>
      </trkpt>
      <trkpt lat="45.07957" lon="5.17218">
        <ele>183.6</ele>
        <time>2022-05-07T12:23:52.000Z</time>
      </trkpt>
      <trkpt lat="45.07955" lon="5.17215">
        <ele>183.6</ele>
        <time>2022-05-07T12:23:53.000Z</time>
      </trkpt>
      <trkpt lat="45.07952" lon="5.17211">
        <ele>183.5</ele>
        <time>2022-05-07T12:23:54.000Z</time>
      </trkpt>
      <trkpt lat="45.0795" lon="5.17208">
        <ele>183.4</ele>
        <time>2022-05-07T12:23:55.000Z</time>
      </trkpt>
      <trkpt lat="45.07948" lon="5.17204">
        <ele>183.3</ele>
        <time>2022-05-07T12:23:56.000Z</time>
      </trkpt>
      <trkpt lat="45.07946" lon="5.17199">
        <ele>183.1</ele>
        <time>2022-05-07T12:23:57.000Z</time>
      </trkpt>
      <trkpt lat="45.07944" lon="5.17195">
        <ele>183</ele>
        <time>2022-05-07T12:23:58.000Z</time>
      </trkpt>
      <trkpt lat="45.07942" lon="5.17192">
        <ele>183.3</ele>
        <time>2022-05-07T12:23:59.000Z</time>
      </trkpt>
      <trkpt lat="45.0794" lon="5.17188">
        <ele>183.6</ele>
        <time>2022-05-07T12:24:00.000Z</time>
      </trkpt>
      <trkpt lat="45.07937" lon="5.17184">
        <ele>184</ele>
        <time>2022-05-07T12:24:01.000Z</time>
      </trkpt>
      <trkpt lat="45.07935" lon="5.1718">
        <ele>184.2</ele>
        <time>2022-05-07T12:24:02.000Z</time>
      </trkpt>
      <trkpt lat="45.07933" lon="5.17176">
        <ele>184.4</ele>
        <time>2022-05-07T12:24:03.000Z</time>
      </trkpt>
      <trkpt lat="45.07931" lon="5.17172">
        <ele>184.6</ele>
        <time>2022-05-07T12:24:04.000Z</time>
      </trkpt>
      <trkpt lat="45.07929" lon="5.17168">
        <ele>184.8</ele>
        <time>2022-05-07T12:24:05.000Z</time>
      </trkpt>
      <trkpt lat="45.07926" lon="5.17164">
        <ele>184.8</ele>
        <time>2022-05-07T12:24:06.000Z</time>
      </trkpt>
      <trkpt lat="45.07924" lon="5.1716">
        <ele>184.7</ele>
        <time>2022-05-07T12:24:07.000Z</time>
      </trkpt>
      <trkpt lat="45.07922" lon="5.17156">
        <ele>184.7</ele>
        <time>2022-05-07T12:24:08.000Z</time>
      </trkpt>
      <trkpt lat="45.0792" lon="5.17153">
        <ele>184.7</ele>
        <time>2022-05-07T12:24:09.000Z</time>
      </trkpt>
      <trkpt lat="45.07918" lon="5.17149">
        <ele>184.7</ele>
        <time>2022-05-07T12:24:10.000Z</time>
      </trkpt>
      <trkpt lat="45.07916" lon="5.17145">
        <ele>184.8</ele>
        <time>2022-05-07T12:24:11.000Z</time>
      </trkpt>
      <trkpt lat="45.07914" lon="5.17141">
        <ele>184.8</ele>
        <time>2022-05-07T12:24:12.000Z</time>
      </trkpt>
      <trkpt lat="45.07912" lon="5.17137">
        <ele>184.9</ele>
        <time>2022-05-07T12:24:13.000Z</time>
      </trkpt>
      <trkpt lat="45.0791" lon="5.17133">
        <ele>184.8</ele>
        <time>2022-05-07T12:24:14.000Z</time>
      </trkpt>
      <trkpt lat="45.07908" lon="5.17129">
        <ele>184.8</ele>
        <time>2022-05-07T12:24:15.000Z</time>
      </trkpt>
      <trkpt lat="45.07906" lon="5.17124">
        <ele>184.8</ele>
        <time>2022-05-07T12:24:16.000Z</time>
      </trkpt>
      <trkpt lat="45.07903" lon="5.17119">
        <ele>184.9</ele>
        <time>2022-05-07T12:24:17.000Z</time>
      </trkpt>
      <trkpt lat="45.07901" lon="5.17115">
        <ele>184.9</ele>
        <time>2022-05-07T12:24:18.000Z</time>
      </trkpt>
      <trkpt lat="45.07899" lon="5.1711">
        <ele>185</ele>
        <time>2022-05-07T12:24:19.000Z</time>
      </trkpt>
      <trkpt lat="45.07897" lon="5.17106">
        <ele>185.1</ele>
        <time>2022-05-07T12:24:20.000Z</time>
      </trkpt>
      <trkpt lat="45.07895" lon="5.17102">
        <ele>185.1</ele>
        <time>2022-05-07T12:24:21.000Z</time>
      </trkpt>
      <trkpt lat="45.07894" lon="5.17099">
        <ele>185.2</ele>
        <time>2022-05-07T12:24:22.000Z</time>
      </trkpt>
      <trkpt lat="45.07892" lon="5.17096">
        <ele>185.1</ele>
        <time>2022-05-07T12:24:23.000Z</time>
      </trkpt>
      <trkpt lat="45.0789" lon="5.17092">
        <ele>185.1</ele>
        <time>2022-05-07T12:24:24.000Z</time>
      </trkpt>
      <trkpt lat="45.07889" lon="5.17088">
        <ele>185</ele>
        <time>2022-05-07T12:24:25.000Z</time>
      </trkpt>
      <trkpt lat="45.07887" lon="5.17083">
        <ele>184.9</ele>
        <time>2022-05-07T12:24:26.000Z</time>
      </trkpt>
      <trkpt lat="45.07885" lon="5.17079">
        <ele>185</ele>
        <time>2022-05-07T12:24:27.000Z</time>
      </trkpt>
      <trkpt lat="45.07883" lon="5.17074">
        <ele>185.1</ele>
        <time>2022-05-07T12:24:28.000Z</time>
      </trkpt>
      <trkpt lat="45.07881" lon="5.17069">
        <ele>185.2</ele>
        <time>2022-05-07T12:24:29.000Z</time>
      </trkpt>
      <trkpt lat="45.07878" lon="5.17065">
        <ele>185.3</ele>
        <time>2022-05-07T12:24:30.000Z</time>
      </trkpt>
      <trkpt lat="45.07875" lon="5.17061">
        <ele>185.3</ele>
        <time>2022-05-07T12:24:31.000Z</time>
      </trkpt>
      <trkpt lat="45.07873" lon="5.17057">
        <ele>185.4</ele>
        <time>2022-05-07T12:24:32.000Z</time>
      </trkpt>
      <trkpt lat="45.07871" lon="5.17053">
        <ele>185.4</ele>
        <time>2022-05-07T12:24:33.000Z</time>
      </trkpt>
      <trkpt lat="45.07869" lon="5.17048">
        <ele>185.3</ele>
        <time>2022-05-07T12:24:34.000Z</time>
      </trkpt>
      <trkpt lat="45.07867" lon="5.17043">
        <ele>185.2</ele>
        <time>2022-05-07T12:24:35.000Z</time>
      </trkpt>
      <trkpt lat="45.07865" lon="5.17037">
        <ele>185.2</ele>
        <time>2022-05-07T12:24:36.000Z</time>
      </trkpt>
      <trkpt lat="45.07864" lon="5.17033">
        <ele>185.1</ele>
        <time>2022-05-07T12:24:37.000Z</time>
      </trkpt>
      <trkpt lat="45.07862" lon="5.17029">
        <ele>185</ele>
        <time>2022-05-07T12:24:38.000Z</time>
      </trkpt>
      <trkpt lat="45.0786" lon="5.17025">
        <ele>185.1</ele>
        <time>2022-05-07T12:24:39.000Z</time>
      </trkpt>
      <trkpt lat="45.07858" lon="5.17022">
        <ele>185.1</ele>
        <time>2022-05-07T12:24:40.000Z</time>
      </trkpt>
      <trkpt lat="45.07856" lon="5.17018">
        <ele>185.2</ele>
        <time>2022-05-07T12:24:41.000Z</time>
      </trkpt>
      <trkpt lat="45.07854" lon="5.17013">
        <ele>185.3</ele>
        <time>2022-05-07T12:24:42.000Z</time>
      </trkpt>
      <trkpt lat="45.07852" lon="5.17008">
        <ele>185.4</ele>
        <time>2022-05-07T12:24:43.000Z</time>
      </trkpt>
      <trkpt lat="45.0785" lon="5.17003">
        <ele>185.5</ele>
        <time>2022-05-07T12:24:44.000Z</time>
      </trkpt>
      <trkpt lat="45.07847" lon="5.16997">
        <ele>185.5</ele>
        <time>2022-05-07T12:24:45.000Z</time>
      </trkpt>
      <trkpt lat="45.07845" lon="5.16991">
        <ele>185.4</ele>
        <time>2022-05-07T12:24:46.000Z</time>
      </trkpt>
      <trkpt lat="45.07843" lon="5.16986">
        <ele>185.4</ele>
        <time>2022-05-07T12:24:47.000Z</time>
      </trkpt>
      <trkpt lat="45.07841" lon="5.1698">
        <ele>185.3</ele>
        <time>2022-05-07T12:24:48.000Z</time>
      </trkpt>
      <trkpt lat="45.07839" lon="5.16974">
        <ele>185.2</ele>
        <time>2022-05-07T12:24:49.000Z</time>
      </trkpt>
      <trkpt lat="45.07837" lon="5.16969">
        <ele>185.2</ele>
        <time>2022-05-07T12:24:50.000Z</time>
      </trkpt>
      <trkpt lat="45.07835" lon="5.16963">
        <ele>185.4</ele>
        <time>2022-05-07T12:24:51.000Z</time>
      </trkpt>
      <trkpt lat="45.07833" lon="5.16958">
        <ele>185.5</ele>
        <time>2022-05-07T12:24:52.000Z</time>
      </trkpt>
      <trkpt lat="45.07831" lon="5.16953">
        <ele>185.6</ele>
        <time>2022-05-07T12:24:53.000Z</time>
      </trkpt>
      <trkpt lat="45.07829" lon="5.16947">
        <ele>185.7</ele>
        <time>2022-05-07T12:24:54.000Z</time>
      </trkpt>
      <trkpt lat="45.07827" lon="5.16942">
        <ele>185.8</ele>
        <time>2022-05-07T12:24:55.000Z</time>
      </trkpt>
      <trkpt lat="45.07825" lon="5.16936">
        <ele>185.7</ele>
        <time>2022-05-07T12:24:56.000Z</time>
      </trkpt>
      <trkpt lat="45.07823" lon="5.1693">
        <ele>185.6</ele>
        <time>2022-05-07T12:24:57.000Z</time>
      </trkpt>
      <trkpt lat="45.07821" lon="5.16925">
        <ele>185.6</ele>
        <time>2022-05-07T12:24:58.000Z</time>
      </trkpt>
      <trkpt lat="45.0782" lon="5.16919">
        <ele>185.5</ele>
        <time>2022-05-07T12:24:59.000Z</time>
      </trkpt>
      <trkpt lat="45.07818" lon="5.16914">
        <ele>185.5</ele>
        <time>2022-05-07T12:25:00.000Z</time>
      </trkpt>
      <trkpt lat="45.07816" lon="5.16908">
        <ele>185.6</ele>
        <time>2022-05-07T12:25:01.000Z</time>
      </trkpt>
      <trkpt lat="45.07814" lon="5.16903">
        <ele>185.7</ele>
        <time>2022-05-07T12:25:02.000Z</time>
      </trkpt>
      <trkpt lat="45.07813" lon="5.16898">
        <ele>185.8</ele>
        <time>2022-05-07T12:25:03.000Z</time>
      </trkpt>
      <trkpt lat="45.07811" lon="5.16892">
        <ele>185.9</ele>
        <time>2022-05-07T12:25:04.000Z</time>
      </trkpt>
      <trkpt lat="45.07809" lon="5.16887">
        <ele>186</ele>
        <time>2022-05-07T12:25:05.000Z</time>
      </trkpt>
      <trkpt lat="45.07808" lon="5.16882">
        <ele>186</ele>
        <time>2022-05-07T12:25:06.000Z</time>
      </trkpt>
      <trkpt lat="45.07807" lon="5.16878">
        <ele>186</ele>
        <time>2022-05-07T12:25:07.000Z</time>
      </trkpt>
      <trkpt lat="45.07807" lon="5.16873">
        <ele>186</ele>
        <time>2022-05-07T12:25:08.000Z</time>
      </trkpt>
      <trkpt lat="45.07805" lon="5.1687">
        <ele>186</ele>
        <time>2022-05-07T12:25:09.000Z</time>
      </trkpt>
      <trkpt lat="45.07805" lon="5.16866">
        <ele>186</ele>
        <time>2022-05-07T12:25:10.000Z</time>
      </trkpt>
      <trkpt lat="45.07803" lon="5.16862">
        <ele>185.9</ele>
        <time>2022-05-07T12:25:11.000Z</time>
      </trkpt>
      <trkpt lat="45.07802" lon="5.16858">
        <ele>185.9</ele>
        <time>2022-05-07T12:25:12.000Z</time>
      </trkpt>
      <trkpt lat="45.07801" lon="5.16854">
        <ele>185.9</ele>
        <time>2022-05-07T12:25:13.000Z</time>
      </trkpt>
      <trkpt lat="45.07799" lon="5.16849">
        <ele>185.9</ele>
        <time>2022-05-07T12:25:14.000Z</time>
      </trkpt>
      <trkpt lat="45.07797" lon="5.16844">
        <ele>185.9</ele>
        <time>2022-05-07T12:25:15.000Z</time>
      </trkpt>
      <trkpt lat="45.07796" lon="5.1684">
        <ele>185.9</ele>
        <time>2022-05-07T12:25:16.000Z</time>
      </trkpt>
      <trkpt lat="45.07794" lon="5.16835">
        <ele>186</ele>
        <time>2022-05-07T12:25:17.000Z</time>
      </trkpt>
      <trkpt lat="45.07793" lon="5.16829">
        <ele>186</ele>
        <time>2022-05-07T12:25:18.000Z</time>
      </trkpt>
      <trkpt lat="45.07792" lon="5.16823">
        <ele>186</ele>
        <time>2022-05-07T12:25:19.000Z</time>
      </trkpt>
      <trkpt lat="45.07791" lon="5.16816">
        <ele>186</ele>
        <time>2022-05-07T12:25:20.000Z</time>
      </trkpt>
      <trkpt lat="45.0779" lon="5.1681">
        <ele>186</ele>
        <time>2022-05-07T12:25:21.000Z</time>
      </trkpt>
      <trkpt lat="45.07789" lon="5.16804">
        <ele>186</ele>
        <time>2022-05-07T12:25:22.000Z</time>
      </trkpt>
      <trkpt lat="45.07788" lon="5.16797">
        <ele>186.1</ele>
        <time>2022-05-07T12:25:23.000Z</time>
      </trkpt>
      <trkpt lat="45.07787" lon="5.1679">
        <ele>186.2</ele>
        <time>2022-05-07T12:25:24.000Z</time>
      </trkpt>
      <trkpt lat="45.07786" lon="5.16784">
        <ele>186.3</ele>
        <time>2022-05-07T12:25:25.000Z</time>
      </trkpt>
      <trkpt lat="45.07784" lon="5.16777">
        <ele>186.5</ele>
        <time>2022-05-07T12:25:26.000Z</time>
      </trkpt>
      <trkpt lat="45.07783" lon="5.1677">
        <ele>186.2</ele>
        <time>2022-05-07T12:25:27.000Z</time>
      </trkpt>
      <trkpt lat="45.07781" lon="5.16763">
        <ele>185.8</ele>
        <time>2022-05-07T12:25:28.000Z</time>
      </trkpt>
      <trkpt lat="45.0778" lon="5.16757">
        <ele>185.5</ele>
        <time>2022-05-07T12:25:29.000Z</time>
      </trkpt>
      <trkpt lat="45.07779" lon="5.16751">
        <ele>185.1</ele>
        <time>2022-05-07T12:25:30.000Z</time>
      </trkpt>
      <trkpt lat="45.07778" lon="5.16745">
        <ele>185.2</ele>
        <time>2022-05-07T12:25:31.000Z</time>
      </trkpt>
      <trkpt lat="45.07777" lon="5.1674">
        <ele>185.4</ele>
        <time>2022-05-07T12:25:32.000Z</time>
      </trkpt>
      <trkpt lat="45.07776" lon="5.16735">
        <ele>185.5</ele>
        <time>2022-05-07T12:25:33.000Z</time>
      </trkpt>
      <trkpt lat="45.07774" lon="5.16731">
        <ele>185.7</ele>
        <time>2022-05-07T12:25:34.000Z</time>
      </trkpt>
      <trkpt lat="45.07773" lon="5.16727">
        <ele>185.8</ele>
        <time>2022-05-07T12:25:35.000Z</time>
      </trkpt>
      <trkpt lat="45.07772" lon="5.16723">
        <ele>186</ele>
        <time>2022-05-07T12:25:36.000Z</time>
      </trkpt>
      <trkpt lat="45.07772" lon="5.16719">
        <ele>186</ele>
        <time>2022-05-07T12:25:37.000Z</time>
      </trkpt>
      <trkpt lat="45.07771" lon="5.16715">
        <ele>186.1</ele>
        <time>2022-05-07T12:25:38.000Z</time>
      </trkpt>
      <trkpt lat="45.0777" lon="5.1671">
        <ele>186.1</ele>
        <time>2022-05-07T12:25:39.000Z</time>
      </trkpt>
      <trkpt lat="45.07769" lon="5.16706">
        <ele>186.2</ele>
        <time>2022-05-07T12:25:40.000Z</time>
      </trkpt>
      <trkpt lat="45.07768" lon="5.16703">
        <ele>186.2</ele>
        <time>2022-05-07T12:25:41.000Z</time>
      </trkpt>
      <trkpt lat="45.07767" lon="5.16699">
        <ele>186.3</ele>
        <time>2022-05-07T12:25:42.000Z</time>
      </trkpt>
      <trkpt lat="45.07766" lon="5.16696">
        <ele>186.4</ele>
        <time>2022-05-07T12:25:43.000Z</time>
      </trkpt>
      <trkpt lat="45.07766" lon="5.16693">
        <ele>186.5</ele>
        <time>2022-05-07T12:25:44.000Z</time>
      </trkpt>
      <trkpt lat="45.07765" lon="5.16689">
        <ele>186.5</ele>
        <time>2022-05-07T12:25:46.000Z</time>
      </trkpt>
      <trkpt lat="45.07765" lon="5.16686">
        <ele>186.6</ele>
        <time>2022-05-07T12:25:47.000Z</time>
      </trkpt>
      <trkpt lat="45.07765" lon="5.16683">
        <ele>186.7</ele>
        <time>2022-05-07T12:25:48.000Z</time>
      </trkpt>
      <trkpt lat="45.07764" lon="5.16679">
        <ele>186.8</ele>
        <time>2022-05-07T12:25:49.000Z</time>
      </trkpt>
      <trkpt lat="45.07763" lon="5.16675">
        <ele>186.9</ele>
        <time>2022-05-07T12:25:50.000Z</time>
      </trkpt>
      <trkpt lat="45.07763" lon="5.1667">
        <ele>187</ele>
        <time>2022-05-07T12:25:51.000Z</time>
      </trkpt>
      <trkpt lat="45.07762" lon="5.16666">
        <ele>187.2</ele>
        <time>2022-05-07T12:25:52.000Z</time>
      </trkpt>
      <trkpt lat="45.07761" lon="5.1666">
        <ele>187.3</ele>
        <time>2022-05-07T12:25:53.000Z</time>
      </trkpt>
      <trkpt lat="45.0776" lon="5.16655">
        <ele>187.4</ele>
        <time>2022-05-07T12:25:54.000Z</time>
      </trkpt>
      <trkpt lat="45.07759" lon="5.1665">
        <ele>187.6</ele>
        <time>2022-05-07T12:25:55.000Z</time>
      </trkpt>
      <trkpt lat="45.07757" lon="5.16645">
        <ele>187.7</ele>
        <time>2022-05-07T12:25:56.000Z</time>
      </trkpt>
      <trkpt lat="45.07756" lon="5.1664">
        <ele>187.8</ele>
        <time>2022-05-07T12:25:57.000Z</time>
      </trkpt>
      <trkpt lat="45.07755" lon="5.16634">
        <ele>187.8</ele>
        <time>2022-05-07T12:25:58.000Z</time>
      </trkpt>
      <trkpt lat="45.07754" lon="5.16628">
        <ele>187.9</ele>
        <time>2022-05-07T12:25:59.000Z</time>
      </trkpt>
      <trkpt lat="45.07752" lon="5.16622">
        <ele>187.9</ele>
        <time>2022-05-07T12:26:00.000Z</time>
      </trkpt>
      <trkpt lat="45.07751" lon="5.16615">
        <ele>188</ele>
        <time>2022-05-07T12:26:01.000Z</time>
      </trkpt>
      <trkpt lat="45.07749" lon="5.16609">
        <ele>188</ele>
        <time>2022-05-07T12:26:02.000Z</time>
      </trkpt>
      <trkpt lat="45.07748" lon="5.16602">
        <ele>188</ele>
        <time>2022-05-07T12:26:03.000Z</time>
      </trkpt>
      <trkpt lat="45.07746" lon="5.16596">
        <ele>188</ele>
        <time>2022-05-07T12:26:04.000Z</time>
      </trkpt>
      <trkpt lat="45.07745" lon="5.1659">
        <ele>188</ele>
        <time>2022-05-07T12:26:05.000Z</time>
      </trkpt>
      <trkpt lat="45.07743" lon="5.16583">
        <ele>188</ele>
        <time>2022-05-07T12:26:06.000Z</time>
      </trkpt>
      <trkpt lat="45.07742" lon="5.16577">
        <ele>188</ele>
        <time>2022-05-07T12:26:07.000Z</time>
      </trkpt>
      <trkpt lat="45.0774" lon="5.16571">
        <ele>188</ele>
        <time>2022-05-07T12:26:08.000Z</time>
      </trkpt>
      <trkpt lat="45.07739" lon="5.16565">
        <ele>188</ele>
        <time>2022-05-07T12:26:09.000Z</time>
      </trkpt>
      <trkpt lat="45.07737" lon="5.16558">
        <ele>188</ele>
        <time>2022-05-07T12:26:10.000Z</time>
      </trkpt>
      <trkpt lat="45.07736" lon="5.16552">
        <ele>188.1</ele>
        <time>2022-05-07T12:26:11.000Z</time>
      </trkpt>
      <trkpt lat="45.07734" lon="5.16546">
        <ele>188.2</ele>
        <time>2022-05-07T12:26:12.000Z</time>
      </trkpt>
      <trkpt lat="45.07733" lon="5.16539">
        <ele>188.2</ele>
        <time>2022-05-07T12:26:13.000Z</time>
      </trkpt>
      <trkpt lat="45.07731" lon="5.16533">
        <ele>188.3</ele>
        <time>2022-05-07T12:26:14.000Z</time>
      </trkpt>
      <trkpt lat="45.0773" lon="5.16527">
        <ele>188.3</ele>
        <time>2022-05-07T12:26:15.000Z</time>
      </trkpt>
      <trkpt lat="45.07728" lon="5.1652">
        <ele>188.2</ele>
        <time>2022-05-07T12:26:16.000Z</time>
      </trkpt>
      <trkpt lat="45.07727" lon="5.16514">
        <ele>188.2</ele>
        <time>2022-05-07T12:26:17.000Z</time>
      </trkpt>
      <trkpt lat="45.07726" lon="5.16508">
        <ele>188.1</ele>
        <time>2022-05-07T12:26:18.000Z</time>
      </trkpt>
      <trkpt lat="45.07724" lon="5.16502">
        <ele>188.1</ele>
        <time>2022-05-07T12:26:19.000Z</time>
      </trkpt>
      <trkpt lat="45.07723" lon="5.16496">
        <ele>188</ele>
        <time>2022-05-07T12:26:20.000Z</time>
      </trkpt>
      <trkpt lat="45.07722" lon="5.1649">
        <ele>188</ele>
        <time>2022-05-07T12:26:21.000Z</time>
      </trkpt>
      <trkpt lat="45.07721" lon="5.16484">
        <ele>188</ele>
        <time>2022-05-07T12:26:22.000Z</time>
      </trkpt>
      <trkpt lat="45.0772" lon="5.16478">
        <ele>188</ele>
        <time>2022-05-07T12:26:23.000Z</time>
      </trkpt>
      <trkpt lat="45.07718" lon="5.16473">
        <ele>188</ele>
        <time>2022-05-07T12:26:24.000Z</time>
      </trkpt>
      <trkpt lat="45.07717" lon="5.16467">
        <ele>188</ele>
        <time>2022-05-07T12:26:25.000Z</time>
      </trkpt>
      <trkpt lat="45.07716" lon="5.16461">
        <ele>188</ele>
        <time>2022-05-07T12:26:26.000Z</time>
      </trkpt>
      <trkpt lat="45.07714" lon="5.16455">
        <ele>188</ele>
        <time>2022-05-07T12:26:27.000Z</time>
      </trkpt>
      <trkpt lat="45.07713" lon="5.16449">
        <ele>188</ele>
        <time>2022-05-07T12:26:28.000Z</time>
      </trkpt>
      <trkpt lat="45.07712" lon="5.16443">
        <ele>188</ele>
        <time>2022-05-07T12:26:29.000Z</time>
      </trkpt>
      <trkpt lat="45.07711" lon="5.16436">
        <ele>188</ele>
        <time>2022-05-07T12:26:30.000Z</time>
      </trkpt>
      <trkpt lat="45.07709" lon="5.1643">
        <ele>188</ele>
        <time>2022-05-07T12:26:31.000Z</time>
      </trkpt>
      <trkpt lat="45.07708" lon="5.16423">
        <ele>188</ele>
        <time>2022-05-07T12:26:32.000Z</time>
      </trkpt>
      <trkpt lat="45.07706" lon="5.16416">
        <ele>188</ele>
        <time>2022-05-07T12:26:33.000Z</time>
      </trkpt>
      <trkpt lat="45.07704" lon="5.16409">
        <ele>188</ele>
        <time>2022-05-07T12:26:34.000Z</time>
      </trkpt>
      <trkpt lat="45.07703" lon="5.16402">
        <ele>188</ele>
        <time>2022-05-07T12:26:35.000Z</time>
      </trkpt>
      <trkpt lat="45.07701" lon="5.16395">
        <ele>188</ele>
        <time>2022-05-07T12:26:36.000Z</time>
      </trkpt>
      <trkpt lat="45.07699" lon="5.16388">
        <ele>188</ele>
        <time>2022-05-07T12:26:37.000Z</time>
      </trkpt>
      <trkpt lat="45.07698" lon="5.16381">
        <ele>188</ele>
        <time>2022-05-07T12:26:38.000Z</time>
      </trkpt>
      <trkpt lat="45.07697" lon="5.16374">
        <ele>188</ele>
        <time>2022-05-07T12:26:39.000Z</time>
      </trkpt>
      <trkpt lat="45.07695" lon="5.16367">
        <ele>188</ele>
        <time>2022-05-07T12:26:40.000Z</time>
      </trkpt>
      <trkpt lat="45.07694" lon="5.1636">
        <ele>188</ele>
        <time>2022-05-07T12:26:41.000Z</time>
      </trkpt>
      <trkpt lat="45.07692" lon="5.16354">
        <ele>187.9</ele>
        <time>2022-05-07T12:26:42.000Z</time>
      </trkpt>
      <trkpt lat="45.0769" lon="5.16347">
        <ele>187.9</ele>
        <time>2022-05-07T12:26:43.000Z</time>
      </trkpt>
      <trkpt lat="45.07689" lon="5.16341">
        <ele>187.8</ele>
        <time>2022-05-07T12:26:44.000Z</time>
      </trkpt>
      <trkpt lat="45.07688" lon="5.16335">
        <ele>187.8</ele>
        <time>2022-05-07T12:26:45.000Z</time>
      </trkpt>
      <trkpt lat="45.07686" lon="5.16328">
        <ele>187.6</ele>
        <time>2022-05-07T12:26:46.000Z</time>
      </trkpt>
      <trkpt lat="45.07685" lon="5.16322">
        <ele>187.4</ele>
        <time>2022-05-07T12:26:47.000Z</time>
      </trkpt>
      <trkpt lat="45.07683" lon="5.16316">
        <ele>187.2</ele>
        <time>2022-05-07T12:26:48.000Z</time>
      </trkpt>
      <trkpt lat="45.07681" lon="5.16311">
        <ele>187.1</ele>
        <time>2022-05-07T12:26:49.000Z</time>
      </trkpt>
      <trkpt lat="45.0768" lon="5.16305">
        <ele>187</ele>
        <time>2022-05-07T12:26:50.000Z</time>
      </trkpt>
      <trkpt lat="45.07678" lon="5.16299">
        <ele>187.2</ele>
        <time>2022-05-07T12:26:51.000Z</time>
      </trkpt>
      <trkpt lat="45.07676" lon="5.16293">
        <ele>187.5</ele>
        <time>2022-05-07T12:26:52.000Z</time>
      </trkpt>
      <trkpt lat="45.07674" lon="5.16286">
        <ele>187.7</ele>
        <time>2022-05-07T12:26:53.000Z</time>
      </trkpt>
      <trkpt lat="45.07672" lon="5.16279">
        <ele>187.9</ele>
        <time>2022-05-07T12:26:54.000Z</time>
      </trkpt>
      <trkpt lat="45.07671" lon="5.16273">
        <ele>188</ele>
        <time>2022-05-07T12:26:55.000Z</time>
      </trkpt>
      <trkpt lat="45.07671" lon="5.16267">
        <ele>187.9</ele>
        <time>2022-05-07T12:26:56.000Z</time>
      </trkpt>
      <trkpt lat="45.07673" lon="5.16261">
        <ele>187.9</ele>
        <time>2022-05-07T12:26:57.000Z</time>
      </trkpt>
      <trkpt lat="45.07676" lon="5.16256">
        <ele>187.7</ele>
        <time>2022-05-07T12:26:58.000Z</time>
      </trkpt>
      <trkpt lat="45.07679" lon="5.1625">
        <ele>187.6</ele>
        <time>2022-05-07T12:26:59.000Z</time>
      </trkpt>
      <trkpt lat="45.07682" lon="5.16246">
        <ele>187.5</ele>
        <time>2022-05-07T12:27:00.000Z</time>
      </trkpt>
      <trkpt lat="45.07686" lon="5.16241">
        <ele>187.4</ele>
        <time>2022-05-07T12:27:01.000Z</time>
      </trkpt>
      <trkpt lat="45.0769" lon="5.16235">
        <ele>187.5</ele>
        <time>2022-05-07T12:27:02.000Z</time>
      </trkpt>
      <trkpt lat="45.07693" lon="5.1623">
        <ele>187.7</ele>
        <time>2022-05-07T12:27:03.000Z</time>
      </trkpt>
      <trkpt lat="45.07696" lon="5.16225">
        <ele>187.9</ele>
        <time>2022-05-07T12:27:04.000Z</time>
      </trkpt>
      <trkpt lat="45.077" lon="5.1622">
        <ele>188</ele>
        <time>2022-05-07T12:27:05.000Z</time>
      </trkpt>
      <trkpt lat="45.07702" lon="5.16214">
        <ele>188</ele>
        <time>2022-05-07T12:27:06.000Z</time>
      </trkpt>
      <trkpt lat="45.07706" lon="5.16209">
        <ele>188</ele>
        <time>2022-05-07T12:27:07.000Z</time>
      </trkpt>
      <trkpt lat="45.07709" lon="5.16204">
        <ele>188</ele>
        <time>2022-05-07T12:27:08.000Z</time>
      </trkpt>
      <trkpt lat="45.07711" lon="5.162">
        <ele>188</ele>
        <time>2022-05-07T12:27:09.000Z</time>
      </trkpt>
      <trkpt lat="45.07714" lon="5.16195">
        <ele>188</ele>
        <time>2022-05-07T12:27:10.000Z</time>
      </trkpt>
      <trkpt lat="45.07717" lon="5.16191">
        <ele>188.1</ele>
        <time>2022-05-07T12:27:11.000Z</time>
      </trkpt>
      <trkpt lat="45.07719" lon="5.16187">
        <ele>188.2</ele>
        <time>2022-05-07T12:27:12.000Z</time>
      </trkpt>
      <trkpt lat="45.07721" lon="5.16183">
        <ele>188.4</ele>
        <time>2022-05-07T12:27:13.000Z</time>
      </trkpt>
      <trkpt lat="45.07723" lon="5.16179">
        <ele>188.6</ele>
        <time>2022-05-07T12:27:14.000Z</time>
      </trkpt>
      <trkpt lat="45.07725" lon="5.16175">
        <ele>188.8</ele>
        <time>2022-05-07T12:27:15.000Z</time>
      </trkpt>
      <trkpt lat="45.07728" lon="5.16171">
        <ele>189.1</ele>
        <time>2022-05-07T12:27:16.000Z</time>
      </trkpt>
      <trkpt lat="45.0773" lon="5.16167">
        <ele>189.3</ele>
        <time>2022-05-07T12:27:17.000Z</time>
      </trkpt>
      <trkpt lat="45.07732" lon="5.16163">
        <ele>189.3</ele>
        <time>2022-05-07T12:27:18.000Z</time>
      </trkpt>
      <trkpt lat="45.07735" lon="5.16159">
        <ele>189.3</ele>
        <time>2022-05-07T12:27:19.000Z</time>
      </trkpt>
      <trkpt lat="45.07737" lon="5.16155">
        <ele>189.3</ele>
        <time>2022-05-07T12:27:20.000Z</time>
      </trkpt>
      <trkpt lat="45.0774" lon="5.16151">
        <ele>189.4</ele>
        <time>2022-05-07T12:27:21.000Z</time>
      </trkpt>
      <trkpt lat="45.07742" lon="5.16146">
        <ele>189.5</ele>
        <time>2022-05-07T12:27:22.000Z</time>
      </trkpt>
      <trkpt lat="45.07745" lon="5.16143">
        <ele>189.7</ele>
        <time>2022-05-07T12:27:23.000Z</time>
      </trkpt>
      <trkpt lat="45.07747" lon="5.1614">
        <ele>189.8</ele>
        <time>2022-05-07T12:27:24.000Z</time>
      </trkpt>
      <trkpt lat="45.07749" lon="5.16137">
        <ele>190</ele>
        <time>2022-05-07T12:27:25.000Z</time>
      </trkpt>
      <trkpt lat="45.07751" lon="5.16134">
        <ele>190.3</ele>
        <time>2022-05-07T12:27:26.000Z</time>
      </trkpt>
      <trkpt lat="45.07752" lon="5.1613">
        <ele>190.5</ele>
        <time>2022-05-07T12:27:27.000Z</time>
      </trkpt>
      <trkpt lat="45.07753" lon="5.16127">
        <ele>190.7</ele>
        <time>2022-05-07T12:27:29.000Z</time>
      </trkpt>
      <trkpt lat="45.07753" lon="5.16109">
        <ele>191.1</ele>
        <time>2022-05-07T12:27:30.000Z</time>
      </trkpt>
      <trkpt lat="45.07753" lon="5.16103">
        <ele>191</ele>
        <time>2022-05-07T12:27:31.000Z</time>
      </trkpt>
      <trkpt lat="45.07755" lon="5.16108">
        <ele>191.3</ele>
        <time>2022-05-07T12:27:32.000Z</time>
      </trkpt>
      <trkpt lat="45.07761" lon="5.16113">
        <ele>191.7</ele>
        <time>2022-05-07T12:27:33.000Z</time>
      </trkpt>
      <trkpt lat="45.07765" lon="5.16119">
        <ele>191.9</ele>
        <time>2022-05-07T12:27:34.000Z</time>
      </trkpt>
      <trkpt lat="45.07769" lon="5.16119">
        <ele>192.3</ele>
        <time>2022-05-07T12:27:35.000Z</time>
      </trkpt>
      <trkpt lat="45.07772" lon="5.16119">
        <ele>192.5</ele>
        <time>2022-05-07T12:27:36.000Z</time>
      </trkpt>
      <trkpt lat="45.07773" lon="5.16117">
        <ele>192.6</ele>
        <time>2022-05-07T12:27:37.000Z</time>
      </trkpt>
      <trkpt lat="45.07774" lon="5.16114">
        <ele>192.7</ele>
        <time>2022-05-07T12:27:38.000Z</time>
      </trkpt>
      <trkpt lat="45.07775" lon="5.16111">
        <ele>192.8</ele>
        <time>2022-05-07T12:27:39.000Z</time>
      </trkpt>
      <trkpt lat="45.07776" lon="5.16107">
        <ele>192.8</ele>
        <time>2022-05-07T12:27:40.000Z</time>
      </trkpt>
      <trkpt lat="45.07777" lon="5.16103">
        <ele>192.9</ele>
        <time>2022-05-07T12:27:41.000Z</time>
      </trkpt>
      <trkpt lat="45.07778" lon="5.161">
        <ele>193.1</ele>
        <time>2022-05-07T12:27:42.000Z</time>
      </trkpt>
      <trkpt lat="45.0778" lon="5.16095">
        <ele>193.4</ele>
        <time>2022-05-07T12:27:43.000Z</time>
      </trkpt>
      <trkpt lat="45.07782" lon="5.16091">
        <ele>193.8</ele>
        <time>2022-05-07T12:27:44.000Z</time>
      </trkpt>
      <trkpt lat="45.07785" lon="5.16087">
        <ele>194.2</ele>
        <time>2022-05-07T12:27:45.000Z</time>
      </trkpt>
      <trkpt lat="45.07787" lon="5.16082">
        <ele>194.7</ele>
        <time>2022-05-07T12:27:46.000Z</time>
      </trkpt>
      <trkpt lat="45.07788" lon="5.16077">
        <ele>195</ele>
        <time>2022-05-07T12:27:47.000Z</time>
      </trkpt>
      <trkpt lat="45.0779" lon="5.16073">
        <ele>195.4</ele>
        <time>2022-05-07T12:27:48.000Z</time>
      </trkpt>
      <trkpt lat="45.07792" lon="5.16068">
        <ele>195.8</ele>
        <time>2022-05-07T12:27:49.000Z</time>
      </trkpt>
      <trkpt lat="45.07794" lon="5.16064">
        <ele>196.1</ele>
        <time>2022-05-07T12:27:50.000Z</time>
      </trkpt>
      <trkpt lat="45.07794" lon="5.16058">
        <ele>196.3</ele>
        <time>2022-05-07T12:27:51.000Z</time>
      </trkpt>
      <trkpt lat="45.07795" lon="5.16053">
        <ele>196.5</ele>
        <time>2022-05-07T12:27:52.000Z</time>
      </trkpt>
      <trkpt lat="45.07796" lon="5.16047">
        <ele>196.6</ele>
        <time>2022-05-07T12:27:53.000Z</time>
      </trkpt>
      <trkpt lat="45.07797" lon="5.16042">
        <ele>196.7</ele>
        <time>2022-05-07T12:27:54.000Z</time>
      </trkpt>
      <trkpt lat="45.07798" lon="5.16037">
        <ele>196.9</ele>
        <time>2022-05-07T12:27:55.000Z</time>
      </trkpt>
      <trkpt lat="45.07798" lon="5.16033">
        <ele>197</ele>
        <time>2022-05-07T12:27:56.000Z</time>
      </trkpt>
      <trkpt lat="45.078" lon="5.16029">
        <ele>197.1</ele>
        <time>2022-05-07T12:27:57.000Z</time>
      </trkpt>
      <trkpt lat="45.07801" lon="5.16024">
        <ele>197.3</ele>
        <time>2022-05-07T12:27:58.000Z</time>
      </trkpt>
      <trkpt lat="45.07802" lon="5.1602">
        <ele>197.5</ele>
        <time>2022-05-07T12:27:59.000Z</time>
      </trkpt>
      <trkpt lat="45.07803" lon="5.16016">
        <ele>197.6</ele>
        <time>2022-05-07T12:28:00.000Z</time>
      </trkpt>
      <trkpt lat="45.07804" lon="5.16011">
        <ele>197.7</ele>
        <time>2022-05-07T12:28:01.000Z</time>
      </trkpt>
      <trkpt lat="45.07805" lon="5.16006">
        <ele>197.9</ele>
        <time>2022-05-07T12:28:02.000Z</time>
      </trkpt>
      <trkpt lat="45.07806" lon="5.16001">
        <ele>198</ele>
        <time>2022-05-07T12:28:03.000Z</time>
      </trkpt>
      <trkpt lat="45.07807" lon="5.15995">
        <ele>198</ele>
        <time>2022-05-07T12:28:04.000Z</time>
      </trkpt>
      <trkpt lat="45.07808" lon="5.1599">
        <ele>197.9</ele>
        <time>2022-05-07T12:28:05.000Z</time>
      </trkpt>
      <trkpt lat="45.07809" lon="5.15985">
        <ele>197.8</ele>
        <time>2022-05-07T12:28:06.000Z</time>
      </trkpt>
      <trkpt lat="45.0781" lon="5.1598">
        <ele>197.8</ele>
        <time>2022-05-07T12:28:07.000Z</time>
      </trkpt>
      <trkpt lat="45.07812" lon="5.15974">
        <ele>197.7</ele>
        <time>2022-05-07T12:28:08.000Z</time>
      </trkpt>
      <trkpt lat="45.07813" lon="5.15969">
        <ele>197.6</ele>
        <time>2022-05-07T12:28:09.000Z</time>
      </trkpt>
      <trkpt lat="45.07815" lon="5.15964">
        <ele>197.5</ele>
        <time>2022-05-07T12:28:10.000Z</time>
      </trkpt>
      <trkpt lat="45.07816" lon="5.15958">
        <ele>197.3</ele>
        <time>2022-05-07T12:28:11.000Z</time>
      </trkpt>
      <trkpt lat="45.07817" lon="5.15953">
        <ele>197.1</ele>
        <time>2022-05-07T12:28:12.000Z</time>
      </trkpt>
      <trkpt lat="45.07819" lon="5.15948">
        <ele>197</ele>
        <time>2022-05-07T12:28:13.000Z</time>
      </trkpt>
      <trkpt lat="45.0782" lon="5.15942">
        <ele>197.1</ele>
        <time>2022-05-07T12:28:14.000Z</time>
      </trkpt>
      <trkpt lat="45.07822" lon="5.15937">
        <ele>197.3</ele>
        <time>2022-05-07T12:28:15.000Z</time>
      </trkpt>
      <trkpt lat="45.07823" lon="5.15932">
        <ele>197.5</ele>
        <time>2022-05-07T12:28:16.000Z</time>
      </trkpt>
      <trkpt lat="45.07824" lon="5.15927">
        <ele>197.7</ele>
        <time>2022-05-07T12:28:17.000Z</time>
      </trkpt>
      <trkpt lat="45.07825" lon="5.15922">
        <ele>197.8</ele>
        <time>2022-05-07T12:28:18.000Z</time>
      </trkpt>
      <trkpt lat="45.07826" lon="5.15918">
        <ele>198</ele>
        <time>2022-05-07T12:28:19.000Z</time>
      </trkpt>
      <trkpt lat="45.07827" lon="5.15914">
        <ele>198</ele>
        <time>2022-05-07T12:28:20.000Z</time>
      </trkpt>
      <trkpt lat="45.07828" lon="5.15911">
        <ele>198.1</ele>
        <time>2022-05-07T12:28:21.000Z</time>
      </trkpt>
      <trkpt lat="45.07829" lon="5.15906">
        <ele>198.1</ele>
        <time>2022-05-07T12:28:22.000Z</time>
      </trkpt>
      <trkpt lat="45.07831" lon="5.15903">
        <ele>198.2</ele>
        <time>2022-05-07T12:28:23.000Z</time>
      </trkpt>
      <trkpt lat="45.07832" lon="5.15901">
        <ele>198.3</ele>
        <time>2022-05-07T12:28:24.000Z</time>
      </trkpt>
      <trkpt lat="45.07834" lon="5.15898">
        <ele>198.3</ele>
        <time>2022-05-07T12:28:25.000Z</time>
      </trkpt>
      <trkpt lat="45.07835" lon="5.15894">
        <ele>198.3</ele>
        <time>2022-05-07T12:28:26.000Z</time>
      </trkpt>
      <trkpt lat="45.07836" lon="5.1589">
        <ele>198.3</ele>
        <time>2022-05-07T12:28:27.000Z</time>
      </trkpt>
      <trkpt lat="45.07837" lon="5.15886">
        <ele>198.4</ele>
        <time>2022-05-07T12:28:28.000Z</time>
      </trkpt>
      <trkpt lat="45.07838" lon="5.15882">
        <ele>198.5</ele>
        <time>2022-05-07T12:28:29.000Z</time>
      </trkpt>
      <trkpt lat="45.07839" lon="5.15878">
        <ele>198.6</ele>
        <time>2022-05-07T12:28:30.000Z</time>
      </trkpt>
      <trkpt lat="45.0784" lon="5.15874">
        <ele>198.8</ele>
        <time>2022-05-07T12:28:31.000Z</time>
      </trkpt>
      <trkpt lat="45.07842" lon="5.1587">
        <ele>198.9</ele>
        <time>2022-05-07T12:28:32.000Z</time>
      </trkpt>
      <trkpt lat="45.07844" lon="5.15865">
        <ele>199.1</ele>
        <time>2022-05-07T12:28:33.000Z</time>
      </trkpt>
      <trkpt lat="45.07845" lon="5.1586">
        <ele>199.2</ele>
        <time>2022-05-07T12:28:34.000Z</time>
      </trkpt>
      <trkpt lat="45.07847" lon="5.15855">
        <ele>198.9</ele>
        <time>2022-05-07T12:28:35.000Z</time>
      </trkpt>
      <trkpt lat="45.07848" lon="5.1585">
        <ele>198.6</ele>
        <time>2022-05-07T12:28:36.000Z</time>
      </trkpt>
      <trkpt lat="45.07849" lon="5.15843">
        <ele>198.2</ele>
        <time>2022-05-07T12:28:37.000Z</time>
      </trkpt>
      <trkpt lat="45.07851" lon="5.15838">
        <ele>197.9</ele>
        <time>2022-05-07T12:28:38.000Z</time>
      </trkpt>
      <trkpt lat="45.07853" lon="5.15833">
        <ele>197.8</ele>
        <time>2022-05-07T12:28:39.000Z</time>
      </trkpt>
      <trkpt lat="45.07854" lon="5.15827">
        <ele>198</ele>
        <time>2022-05-07T12:28:40.000Z</time>
      </trkpt>
      <trkpt lat="45.07855" lon="5.15821">
        <ele>198.1</ele>
        <time>2022-05-07T12:28:41.000Z</time>
      </trkpt>
      <trkpt lat="45.07856" lon="5.15816">
        <ele>198.3</ele>
        <time>2022-05-07T12:28:42.000Z</time>
      </trkpt>
      <trkpt lat="45.07857" lon="5.1581">
        <ele>198.4</ele>
        <time>2022-05-07T12:28:43.000Z</time>
      </trkpt>
      <trkpt lat="45.07858" lon="5.15805">
        <ele>198.6</ele>
        <time>2022-05-07T12:28:44.000Z</time>
      </trkpt>
      <trkpt lat="45.07859" lon="5.15801">
        <ele>198.8</ele>
        <time>2022-05-07T12:28:45.000Z</time>
      </trkpt>
      <trkpt lat="45.0786" lon="5.15796">
        <ele>198.9</ele>
        <time>2022-05-07T12:28:46.000Z</time>
      </trkpt>
      <trkpt lat="45.07861" lon="5.15791">
        <ele>199</ele>
        <time>2022-05-07T12:28:47.000Z</time>
      </trkpt>
      <trkpt lat="45.07862" lon="5.15786">
        <ele>199</ele>
        <time>2022-05-07T12:28:48.000Z</time>
      </trkpt>
      <trkpt lat="45.07863" lon="5.15782">
        <ele>199.2</ele>
        <time>2022-05-07T12:28:49.000Z</time>
      </trkpt>
      <trkpt lat="45.07863" lon="5.15779">
        <ele>199.2</ele>
        <time>2022-05-07T12:28:50.000Z</time>
      </trkpt>
      <trkpt lat="45.07864" lon="5.15776">
        <ele>199.2</ele>
        <time>2022-05-07T12:28:51.000Z</time>
      </trkpt>
      <trkpt lat="45.07865" lon="5.15773">
        <ele>199.2</ele>
        <time>2022-05-07T12:28:52.000Z</time>
      </trkpt>
      <trkpt lat="45.07866" lon="5.1577">
        <ele>199.2</ele>
        <time>2022-05-07T12:28:53.000Z</time>
      </trkpt>
      <trkpt lat="45.07866" lon="5.15767">
        <ele>199.2</ele>
        <time>2022-05-07T12:28:54.000Z</time>
      </trkpt>
      <trkpt lat="45.07867" lon="5.15764">
        <ele>199.3</ele>
        <time>2022-05-07T12:28:55.000Z</time>
      </trkpt>
      <trkpt lat="45.07868" lon="5.1576">
        <ele>199.3</ele>
        <time>2022-05-07T12:28:56.000Z</time>
      </trkpt>
      <trkpt lat="45.0787" lon="5.15755">
        <ele>199.3</ele>
        <time>2022-05-07T12:28:57.000Z</time>
      </trkpt>
      <trkpt lat="45.0787" lon="5.15751">
        <ele>199.3</ele>
        <time>2022-05-07T12:28:58.000Z</time>
      </trkpt>
      <trkpt lat="45.07871" lon="5.15746">
        <ele>199.3</ele>
        <time>2022-05-07T12:28:59.000Z</time>
      </trkpt>
      <trkpt lat="45.07872" lon="5.15743">
        <ele>199.3</ele>
        <time>2022-05-07T12:29:00.000Z</time>
      </trkpt>
      <trkpt lat="45.07872" lon="5.15739">
        <ele>199.3</ele>
        <time>2022-05-07T12:29:01.000Z</time>
      </trkpt>
      <trkpt lat="45.07873" lon="5.15735">
        <ele>199.3</ele>
        <time>2022-05-07T12:29:02.000Z</time>
      </trkpt>
      <trkpt lat="45.07874" lon="5.15732">
        <ele>199.3</ele>
        <time>2022-05-07T12:29:03.000Z</time>
      </trkpt>
      <trkpt lat="45.07875" lon="5.15728">
        <ele>199.2</ele>
        <time>2022-05-07T12:29:04.000Z</time>
      </trkpt>
      <trkpt lat="45.07876" lon="5.15724">
        <ele>199.2</ele>
        <time>2022-05-07T12:29:05.000Z</time>
      </trkpt>
      <trkpt lat="45.07877" lon="5.1572">
        <ele>199.1</ele>
        <time>2022-05-07T12:29:06.000Z</time>
      </trkpt>
      <trkpt lat="45.07878" lon="5.15715">
        <ele>199.1</ele>
        <time>2022-05-07T12:29:07.000Z</time>
      </trkpt>
      <trkpt lat="45.07879" lon="5.15711">
        <ele>199.1</ele>
        <time>2022-05-07T12:29:08.000Z</time>
      </trkpt>
      <trkpt lat="45.0788" lon="5.15706">
        <ele>199.1</ele>
        <time>2022-05-07T12:29:09.000Z</time>
      </trkpt>
      <trkpt lat="45.07881" lon="5.15701">
        <ele>199.2</ele>
        <time>2022-05-07T12:29:10.000Z</time>
      </trkpt>
      <trkpt lat="45.07882" lon="5.15696">
        <ele>199.2</ele>
        <time>2022-05-07T12:29:11.000Z</time>
      </trkpt>
      <trkpt lat="45.07882" lon="5.15691">
        <ele>199.2</ele>
        <time>2022-05-07T12:29:12.000Z</time>
      </trkpt>
      <trkpt lat="45.07882" lon="5.15686">
        <ele>199.3</ele>
        <time>2022-05-07T12:29:13.000Z</time>
      </trkpt>
      <trkpt lat="45.07883" lon="5.15681">
        <ele>199.3</ele>
        <time>2022-05-07T12:29:14.000Z</time>
      </trkpt>
      <trkpt lat="45.07884" lon="5.15676">
        <ele>199.4</ele>
        <time>2022-05-07T12:29:15.000Z</time>
      </trkpt>
      <trkpt lat="45.07885" lon="5.15671">
        <ele>199.5</ele>
        <time>2022-05-07T12:29:16.000Z</time>
      </trkpt>
      <trkpt lat="45.07885" lon="5.15665">
        <ele>199.6</ele>
        <time>2022-05-07T12:29:17.000Z</time>
      </trkpt>
      <trkpt lat="45.07886" lon="5.1566">
        <ele>199.7</ele>
        <time>2022-05-07T12:29:18.000Z</time>
      </trkpt>
      <trkpt lat="45.07886" lon="5.15654">
        <ele>199.8</ele>
        <time>2022-05-07T12:29:19.000Z</time>
      </trkpt>
      <trkpt lat="45.07887" lon="5.15648">
        <ele>199.8</ele>
        <time>2022-05-07T12:29:20.000Z</time>
      </trkpt>
      <trkpt lat="45.07888" lon="5.15642">
        <ele>199.9</ele>
        <time>2022-05-07T12:29:21.000Z</time>
      </trkpt>
      <trkpt lat="45.07889" lon="5.15636">
        <ele>200.1</ele>
        <time>2022-05-07T12:29:22.000Z</time>
      </trkpt>
      <trkpt lat="45.0789" lon="5.1563">
        <ele>200.4</ele>
        <time>2022-05-07T12:29:23.000Z</time>
      </trkpt>
      <trkpt lat="45.07891" lon="5.15625">
        <ele>200.6</ele>
        <time>2022-05-07T12:29:24.000Z</time>
      </trkpt>
      <trkpt lat="45.07892" lon="5.15619">
        <ele>200.9</ele>
        <time>2022-05-07T12:29:25.000Z</time>
      </trkpt>
      <trkpt lat="45.07892" lon="5.15613">
        <ele>201.2</ele>
        <time>2022-05-07T12:29:26.000Z</time>
      </trkpt>
      <trkpt lat="45.07894" lon="5.15608">
        <ele>201.3</ele>
        <time>2022-05-07T12:29:27.000Z</time>
      </trkpt>
      <trkpt lat="45.07895" lon="5.15603">
        <ele>201.4</ele>
        <time>2022-05-07T12:29:28.000Z</time>
      </trkpt>
      <trkpt lat="45.07896" lon="5.15597">
        <ele>201.4</ele>
        <time>2022-05-07T12:29:29.000Z</time>
      </trkpt>
      <trkpt lat="45.07897" lon="5.15591">
        <ele>201.4</ele>
        <time>2022-05-07T12:29:30.000Z</time>
      </trkpt>
      <trkpt lat="45.07899" lon="5.15586">
        <ele>201.4</ele>
        <time>2022-05-07T12:29:31.000Z</time>
      </trkpt>
      <trkpt lat="45.079" lon="5.1558">
        <ele>201.4</ele>
        <time>2022-05-07T12:29:32.000Z</time>
      </trkpt>
      <trkpt lat="45.07901" lon="5.15574">
        <ele>201.4</ele>
        <time>2022-05-07T12:29:33.000Z</time>
      </trkpt>
      <trkpt lat="45.07902" lon="5.15568">
        <ele>201.5</ele>
        <time>2022-05-07T12:29:34.000Z</time>
      </trkpt>
      <trkpt lat="45.07904" lon="5.15562">
        <ele>201.6</ele>
        <time>2022-05-07T12:29:35.000Z</time>
      </trkpt>
      <trkpt lat="45.07905" lon="5.15556">
        <ele>201.7</ele>
        <time>2022-05-07T12:29:36.000Z</time>
      </trkpt>
      <trkpt lat="45.07906" lon="5.1555">
        <ele>201.9</ele>
        <time>2022-05-07T12:29:37.000Z</time>
      </trkpt>
      <trkpt lat="45.07908" lon="5.15544">
        <ele>202</ele>
        <time>2022-05-07T12:29:38.000Z</time>
      </trkpt>
      <trkpt lat="45.07909" lon="5.15538">
        <ele>202.2</ele>
        <time>2022-05-07T12:29:39.000Z</time>
      </trkpt>
      <trkpt lat="45.07911" lon="5.15532">
        <ele>202.3</ele>
        <time>2022-05-07T12:29:40.000Z</time>
      </trkpt>
      <trkpt lat="45.07912" lon="5.15525">
        <ele>202.5</ele>
        <time>2022-05-07T12:29:41.000Z</time>
      </trkpt>
      <trkpt lat="45.07913" lon="5.15519">
        <ele>202.6</ele>
        <time>2022-05-07T12:29:42.000Z</time>
      </trkpt>
      <trkpt lat="45.07914" lon="5.15513">
        <ele>202.7</ele>
        <time>2022-05-07T12:29:43.000Z</time>
      </trkpt>
      <trkpt lat="45.07915" lon="5.15508">
        <ele>202.8</ele>
        <time>2022-05-07T12:29:44.000Z</time>
      </trkpt>
      <trkpt lat="45.07917" lon="5.15502">
        <ele>203</ele>
        <time>2022-05-07T12:29:45.000Z</time>
      </trkpt>
      <trkpt lat="45.07918" lon="5.15496">
        <ele>203</ele>
        <time>2022-05-07T12:29:46.000Z</time>
      </trkpt>
      <trkpt lat="45.07919" lon="5.15491">
        <ele>203.1</ele>
        <time>2022-05-07T12:29:47.000Z</time>
      </trkpt>
      <trkpt lat="45.07921" lon="5.15485">
        <ele>203.1</ele>
        <time>2022-05-07T12:29:48.000Z</time>
      </trkpt>
      <trkpt lat="45.07922" lon="5.15479">
        <ele>203.2</ele>
        <time>2022-05-07T12:29:49.000Z</time>
      </trkpt>
      <trkpt lat="45.07924" lon="5.15473">
        <ele>203.3</ele>
        <time>2022-05-07T12:29:50.000Z</time>
      </trkpt>
      <trkpt lat="45.07926" lon="5.15467">
        <ele>203.2</ele>
        <time>2022-05-07T12:29:51.000Z</time>
      </trkpt>
      <trkpt lat="45.07927" lon="5.15461">
        <ele>203.1</ele>
        <time>2022-05-07T12:29:52.000Z</time>
      </trkpt>
      <trkpt lat="45.07928" lon="5.15456">
        <ele>203.1</ele>
        <time>2022-05-07T12:29:53.000Z</time>
      </trkpt>
      <trkpt lat="45.0793" lon="5.1545">
        <ele>203</ele>
        <time>2022-05-07T12:29:54.000Z</time>
      </trkpt>
      <trkpt lat="45.07931" lon="5.15444">
        <ele>203.1</ele>
        <time>2022-05-07T12:29:55.000Z</time>
      </trkpt>
      <trkpt lat="45.07933" lon="5.15438">
        <ele>203.2</ele>
        <time>2022-05-07T12:29:56.000Z</time>
      </trkpt>
      <trkpt lat="45.07934" lon="5.15431">
        <ele>203.3</ele>
        <time>2022-05-07T12:29:57.000Z</time>
      </trkpt>
      <trkpt lat="45.07936" lon="5.15426">
        <ele>203.4</ele>
        <time>2022-05-07T12:29:58.000Z</time>
      </trkpt>
      <trkpt lat="45.07937" lon="5.1542">
        <ele>203.5</ele>
        <time>2022-05-07T12:29:59.000Z</time>
      </trkpt>
      <trkpt lat="45.07939" lon="5.15413">
        <ele>203.5</ele>
        <time>2022-05-07T12:30:00.000Z</time>
      </trkpt>
      <trkpt lat="45.07941" lon="5.15407">
        <ele>203.5</ele>
        <time>2022-05-07T12:30:01.000Z</time>
      </trkpt>
      <trkpt lat="45.07943" lon="5.15401">
        <ele>203.4</ele>
        <time>2022-05-07T12:30:02.000Z</time>
      </trkpt>
      <trkpt lat="45.07944" lon="5.15394">
        <ele>203.2</ele>
        <time>2022-05-07T12:30:03.000Z</time>
      </trkpt>
      <trkpt lat="45.07946" lon="5.15387">
        <ele>203</ele>
        <time>2022-05-07T12:30:04.000Z</time>
      </trkpt>
      <trkpt lat="45.07948" lon="5.1538">
        <ele>202.8</ele>
        <time>2022-05-07T12:30:05.000Z</time>
      </trkpt>
      <trkpt lat="45.0795" lon="5.15373">
        <ele>202.6</ele>
        <time>2022-05-07T12:30:06.000Z</time>
      </trkpt>
      <trkpt lat="45.07952" lon="5.15366">
        <ele>202.4</ele>
        <time>2022-05-07T12:30:07.000Z</time>
      </trkpt>
      <trkpt lat="45.07954" lon="5.15359">
        <ele>202.3</ele>
        <time>2022-05-07T12:30:08.000Z</time>
      </trkpt>
      <trkpt lat="45.07956" lon="5.15352">
        <ele>202.2</ele>
        <time>2022-05-07T12:30:09.000Z</time>
      </trkpt>
      <trkpt lat="45.07958" lon="5.15344">
        <ele>202.2</ele>
        <time>2022-05-07T12:30:10.000Z</time>
      </trkpt>
      <trkpt lat="45.0796" lon="5.15337">
        <ele>202.2</ele>
        <time>2022-05-07T12:30:11.000Z</time>
      </trkpt>
      <trkpt lat="45.07962" lon="5.15329">
        <ele>202.3</ele>
        <time>2022-05-07T12:30:12.000Z</time>
      </trkpt>
      <trkpt lat="45.07964" lon="5.15322">
        <ele>202.4</ele>
        <time>2022-05-07T12:30:13.000Z</time>
      </trkpt>
      <trkpt lat="45.07967" lon="5.15313">
        <ele>202.6</ele>
        <time>2022-05-07T12:30:14.000Z</time>
      </trkpt>
      <trkpt lat="45.07969" lon="5.15305">
        <ele>202.7</ele>
        <time>2022-05-07T12:30:15.000Z</time>
      </trkpt>
      <trkpt lat="45.07972" lon="5.15297">
        <ele>202.6</ele>
        <time>2022-05-07T12:30:16.000Z</time>
      </trkpt>
      <trkpt lat="45.07974" lon="5.15289">
        <ele>202.7</ele>
        <time>2022-05-07T12:30:17.000Z</time>
      </trkpt>
      <trkpt lat="45.07977" lon="5.1528">
        <ele>202.7</ele>
        <time>2022-05-07T12:30:18.000Z</time>
      </trkpt>
      <trkpt lat="45.07979" lon="5.15271">
        <ele>202.8</ele>
        <time>2022-05-07T12:30:19.000Z</time>
      </trkpt>
      <trkpt lat="45.07981" lon="5.15262">
        <ele>203</ele>
        <time>2022-05-07T12:30:20.000Z</time>
      </trkpt>
      <trkpt lat="45.07982" lon="5.15253">
        <ele>203.1</ele>
        <time>2022-05-07T12:30:21.000Z</time>
      </trkpt>
      <trkpt lat="45.07983" lon="5.15243">
        <ele>203</ele>
        <time>2022-05-07T12:30:22.000Z</time>
      </trkpt>
      <trkpt lat="45.07985" lon="5.15234">
        <ele>203</ele>
        <time>2022-05-07T12:30:23.000Z</time>
      </trkpt>
      <trkpt lat="45.07986" lon="5.15225">
        <ele>203</ele>
        <time>2022-05-07T12:30:24.000Z</time>
      </trkpt>
      <trkpt lat="45.07987" lon="5.15216">
        <ele>202.8</ele>
        <time>2022-05-07T12:30:25.000Z</time>
      </trkpt>
      <trkpt lat="45.07987" lon="5.15207">
        <ele>202.6</ele>
        <time>2022-05-07T12:30:26.000Z</time>
      </trkpt>
      <trkpt lat="45.07988" lon="5.15198">
        <ele>202.4</ele>
        <time>2022-05-07T12:30:27.000Z</time>
      </trkpt>
      <trkpt lat="45.07988" lon="5.15189">
        <ele>202.3</ele>
        <time>2022-05-07T12:30:28.000Z</time>
      </trkpt>
      <trkpt lat="45.07989" lon="5.1518">
        <ele>202.4</ele>
        <time>2022-05-07T12:30:29.000Z</time>
      </trkpt>
      <trkpt lat="45.0799" lon="5.1517">
        <ele>202.5</ele>
        <time>2022-05-07T12:30:30.000Z</time>
      </trkpt>
      <trkpt lat="45.0799" lon="5.15161">
        <ele>202.6</ele>
        <time>2022-05-07T12:30:31.000Z</time>
      </trkpt>
      <trkpt lat="45.07991" lon="5.15152">
        <ele>202.7</ele>
        <time>2022-05-07T12:30:32.000Z</time>
      </trkpt>
      <trkpt lat="45.07992" lon="5.15143">
        <ele>202.8</ele>
        <time>2022-05-07T12:30:33.000Z</time>
      </trkpt>
      <trkpt lat="45.07993" lon="5.15135">
        <ele>203</ele>
        <time>2022-05-07T12:30:34.000Z</time>
      </trkpt>
      <trkpt lat="45.07994" lon="5.15128">
        <ele>203.1</ele>
        <time>2022-05-07T12:30:35.000Z</time>
      </trkpt>
      <trkpt lat="45.07995" lon="5.15121">
        <ele>203.2</ele>
        <time>2022-05-07T12:30:36.000Z</time>
      </trkpt>
      <trkpt lat="45.07996" lon="5.15115">
        <ele>203.4</ele>
        <time>2022-05-07T12:30:37.000Z</time>
      </trkpt>
      <trkpt lat="45.07997" lon="5.15109">
        <ele>203.5</ele>
        <time>2022-05-07T12:30:38.000Z</time>
      </trkpt>
      <trkpt lat="45.07998" lon="5.15103">
        <ele>203.7</ele>
        <time>2022-05-07T12:30:39.000Z</time>
      </trkpt>
      <trkpt lat="45.07999" lon="5.15098">
        <ele>203.8</ele>
        <time>2022-05-07T12:30:40.000Z</time>
      </trkpt>
      <trkpt lat="45.07999" lon="5.15093">
        <ele>203.9</ele>
        <time>2022-05-07T12:30:41.000Z</time>
      </trkpt>
      <trkpt lat="45.08" lon="5.1509">
        <ele>204</ele>
        <time>2022-05-07T12:30:42.000Z</time>
      </trkpt>
      <trkpt lat="45.08001" lon="5.15087">
        <ele>204</ele>
        <time>2022-05-07T12:30:43.000Z</time>
      </trkpt>
      <trkpt lat="45.08002" lon="5.15084">
        <ele>204.1</ele>
        <time>2022-05-07T12:30:44.000Z</time>
      </trkpt>
      <trkpt lat="45.08003" lon="5.15082">
        <ele>204</ele>
        <time>2022-05-07T12:30:46.000Z</time>
      </trkpt>
      <trkpt lat="45.08005" lon="5.15083">
        <ele>204.2</ele>
        <time>2022-05-07T12:30:48.000Z</time>
      </trkpt>
      <trkpt lat="45.08007" lon="5.15087">
        <ele>204.3</ele>
        <time>2022-05-07T12:30:50.000Z</time>
      </trkpt>
      <trkpt lat="45.08009" lon="5.15089">
        <ele>204.3</ele>
        <time>2022-05-07T12:30:51.000Z</time>
      </trkpt>
      <trkpt lat="45.0801" lon="5.15091">
        <ele>204.4</ele>
        <time>2022-05-07T12:30:52.000Z</time>
      </trkpt>
      <trkpt lat="45.08012" lon="5.15093">
        <ele>204.4</ele>
        <time>2022-05-07T12:30:53.000Z</time>
      </trkpt>
      <trkpt lat="45.08015" lon="5.15095">
        <ele>204.5</ele>
        <time>2022-05-07T12:30:54.000Z</time>
      </trkpt>
      <trkpt lat="45.08017" lon="5.15098">
        <ele>204.6</ele>
        <time>2022-05-07T12:30:55.000Z</time>
      </trkpt>
      <trkpt lat="45.08019" lon="5.15101">
        <ele>204.7</ele>
        <time>2022-05-07T12:30:56.000Z</time>
      </trkpt>
      <trkpt lat="45.08021" lon="5.15104">
        <ele>204.7</ele>
        <time>2022-05-07T12:30:57.000Z</time>
      </trkpt>
      <trkpt lat="45.08023" lon="5.15107">
        <ele>204.8</ele>
        <time>2022-05-07T12:30:58.000Z</time>
      </trkpt>
      <trkpt lat="45.08025" lon="5.15109">
        <ele>204.9</ele>
        <time>2022-05-07T12:30:59.000Z</time>
      </trkpt>
      <trkpt lat="45.08027" lon="5.15112">
        <ele>205</ele>
        <time>2022-05-07T12:31:00.000Z</time>
      </trkpt>
      <trkpt lat="45.08028" lon="5.15114">
        <ele>205.3</ele>
        <time>2022-05-07T12:31:01.000Z</time>
      </trkpt>
      <trkpt lat="45.08029" lon="5.15116">
        <ele>205.5</ele>
        <time>2022-05-07T12:31:04.000Z</time>
      </trkpt>
      <trkpt lat="45.0803" lon="5.1512">
        <ele>206.1</ele>
        <time>2022-05-07T12:32:09.000Z</time>
      </trkpt>
      <trkpt lat="45.08025" lon="5.15131">
        <ele>206.8</ele>
        <time>2022-05-07T12:36:11.000Z</time>
      </trkpt>
      <trkpt lat="45.08031" lon="5.15128">
        <ele>207</ele>
        <time>2022-05-07T12:39:35.000Z</time>
      </trkpt>
      <trkpt lat="45.08031" lon="5.15131">
        <ele>207.3</ele>
        <time>2022-05-07T12:39:38.000Z</time>
      </trkpt>
      <trkpt lat="45.08032" lon="5.15128">
        <ele>207.1</ele>
        <time>2022-05-07T12:40:09.000Z</time>
      </trkpt>
      <trkpt lat="45.0803" lon="5.15125">
        <ele>206.6</ele>
        <time>2022-05-07T12:40:11.000Z</time>
      </trkpt>
      <trkpt lat="45.0803" lon="5.15122">
        <ele>206.2</ele>
        <time>2022-05-07T12:40:12.000Z</time>
      </trkpt>
      <trkpt lat="45.08028" lon="5.15119">
        <ele>205.8</ele>
        <time>2022-05-07T12:40:13.000Z</time>
      </trkpt>
      <trkpt lat="45.08027" lon="5.15117">
        <ele>205.6</ele>
        <time>2022-05-07T12:40:14.000Z</time>
      </trkpt>
      <trkpt lat="45.08025" lon="5.15115">
        <ele>205.3</ele>
        <time>2022-05-07T12:40:15.000Z</time>
      </trkpt>
      <trkpt lat="45.08024" lon="5.15113">
        <ele>205</ele>
        <time>2022-05-07T12:40:16.000Z</time>
      </trkpt>
      <trkpt lat="45.08022" lon="5.15111">
        <ele>204.8</ele>
        <time>2022-05-07T12:40:17.000Z</time>
      </trkpt>
      <trkpt lat="45.08019" lon="5.15106">
        <ele>204.7</ele>
        <time>2022-05-07T12:40:19.000Z</time>
      </trkpt>
      <trkpt lat="45.08017" lon="5.15103">
        <ele>204.6</ele>
        <time>2022-05-07T12:40:20.000Z</time>
      </trkpt>
      <trkpt lat="45.08016" lon="5.15101">
        <ele>204.6</ele>
        <time>2022-05-07T12:40:21.000Z</time>
      </trkpt>
      <trkpt lat="45.08014" lon="5.15098">
        <ele>204.5</ele>
        <time>2022-05-07T12:40:22.000Z</time>
      </trkpt>
      <trkpt lat="45.08013" lon="5.15096">
        <ele>204.5</ele>
        <time>2022-05-07T12:40:23.000Z</time>
      </trkpt>
      <trkpt lat="45.08011" lon="5.15091">
        <ele>204.4</ele>
        <time>2022-05-07T12:40:24.000Z</time>
      </trkpt>
      <trkpt lat="45.08008" lon="5.15088">
        <ele>204.3</ele>
        <time>2022-05-07T12:40:25.000Z</time>
      </trkpt>
      <trkpt lat="45.08006" lon="5.15084">
        <ele>204.2</ele>
        <time>2022-05-07T12:40:26.000Z</time>
      </trkpt>
      <trkpt lat="45.08004" lon="5.15081">
        <ele>204.1</ele>
        <time>2022-05-07T12:40:27.000Z</time>
      </trkpt>
      <trkpt lat="45.08003" lon="5.15078">
        <ele>203.9</ele>
        <time>2022-05-07T12:40:28.000Z</time>
      </trkpt>
      <trkpt lat="45.08003" lon="5.15075">
        <ele>203.8</ele>
        <time>2022-05-07T12:40:29.000Z</time>
      </trkpt>
      <trkpt lat="45.08003" lon="5.15072">
        <ele>203.7</ele>
        <time>2022-05-07T12:40:30.000Z</time>
      </trkpt>
      <trkpt lat="45.08005" lon="5.1507">
        <ele>203.7</ele>
        <time>2022-05-07T12:40:31.000Z</time>
      </trkpt>
      <trkpt lat="45.08006" lon="5.15067">
        <ele>203.6</ele>
        <time>2022-05-07T12:40:32.000Z</time>
      </trkpt>
      <trkpt lat="45.08006" lon="5.15063">
        <ele>203.5</ele>
        <time>2022-05-07T12:40:33.000Z</time>
      </trkpt>
      <trkpt lat="45.08006" lon="5.15058">
        <ele>203.3</ele>
        <time>2022-05-07T12:40:34.000Z</time>
      </trkpt>
      <trkpt lat="45.08007" lon="5.15054">
        <ele>203.2</ele>
        <time>2022-05-07T12:40:35.000Z</time>
      </trkpt>
      <trkpt lat="45.08008" lon="5.1505">
        <ele>203.1</ele>
        <time>2022-05-07T12:40:36.000Z</time>
      </trkpt>
      <trkpt lat="45.08009" lon="5.15045">
        <ele>203.1</ele>
        <time>2022-05-07T12:40:37.000Z</time>
      </trkpt>
      <trkpt lat="45.08011" lon="5.15041">
        <ele>203.1</ele>
        <time>2022-05-07T12:40:38.000Z</time>
      </trkpt>
      <trkpt lat="45.08012" lon="5.15036">
        <ele>203</ele>
        <time>2022-05-07T12:40:39.000Z</time>
      </trkpt>
      <trkpt lat="45.08014" lon="5.1503">
        <ele>203.1</ele>
        <time>2022-05-07T12:40:40.000Z</time>
      </trkpt>
      <trkpt lat="45.08016" lon="5.15025">
        <ele>203</ele>
        <time>2022-05-07T12:40:41.000Z</time>
      </trkpt>
      <trkpt lat="45.08018" lon="5.1502">
        <ele>202.9</ele>
        <time>2022-05-07T12:40:42.000Z</time>
      </trkpt>
      <trkpt lat="45.08019" lon="5.15014">
        <ele>202.7</ele>
        <time>2022-05-07T12:40:43.000Z</time>
      </trkpt>
      <trkpt lat="45.08021" lon="5.15007">
        <ele>202.6</ele>
        <time>2022-05-07T12:40:44.000Z</time>
      </trkpt>
      <trkpt lat="45.08024" lon="5.15">
        <ele>202.5</ele>
        <time>2022-05-07T12:40:45.000Z</time>
      </trkpt>
      <trkpt lat="45.08026" lon="5.14992">
        <ele>202.5</ele>
        <time>2022-05-07T12:40:46.000Z</time>
      </trkpt>
      <trkpt lat="45.08028" lon="5.14984">
        <ele>202.4</ele>
        <time>2022-05-07T12:40:47.000Z</time>
      </trkpt>
      <trkpt lat="45.0803" lon="5.14976">
        <ele>202.3</ele>
        <time>2022-05-07T12:40:48.000Z</time>
      </trkpt>
      <trkpt lat="45.08031" lon="5.14968">
        <ele>202.1</ele>
        <time>2022-05-07T12:40:49.000Z</time>
      </trkpt>
      <trkpt lat="45.08033" lon="5.14959">
        <ele>201.8</ele>
        <time>2022-05-07T12:40:50.000Z</time>
      </trkpt>
      <trkpt lat="45.08035" lon="5.14951">
        <ele>201.5</ele>
        <time>2022-05-07T12:40:51.000Z</time>
      </trkpt>
      <trkpt lat="45.08037" lon="5.14943">
        <ele>201.3</ele>
        <time>2022-05-07T12:40:52.000Z</time>
      </trkpt>
      <trkpt lat="45.08039" lon="5.14934">
        <ele>201.1</ele>
        <time>2022-05-07T12:40:53.000Z</time>
      </trkpt>
      <trkpt lat="45.08041" lon="5.14925">
        <ele>200.9</ele>
        <time>2022-05-07T12:40:54.000Z</time>
      </trkpt>
      <trkpt lat="45.08043" lon="5.14915">
        <ele>200.6</ele>
        <time>2022-05-07T12:40:55.000Z</time>
      </trkpt>
      <trkpt lat="45.08045" lon="5.14906">
        <ele>200.3</ele>
        <time>2022-05-07T12:40:56.000Z</time>
      </trkpt>
      <trkpt lat="45.08046" lon="5.14898">
        <ele>200.1</ele>
        <time>2022-05-07T12:40:57.000Z</time>
      </trkpt>
      <trkpt lat="45.08048" lon="5.1489">
        <ele>200</ele>
        <time>2022-05-07T12:40:58.000Z</time>
      </trkpt>
      <trkpt lat="45.0805" lon="5.14882">
        <ele>199.9</ele>
        <time>2022-05-07T12:40:59.000Z</time>
      </trkpt>
      <trkpt lat="45.08051" lon="5.14875">
        <ele>199.9</ele>
        <time>2022-05-07T12:41:00.000Z</time>
      </trkpt>
      <trkpt lat="45.08053" lon="5.14868">
        <ele>199.9</ele>
        <time>2022-05-07T12:41:01.000Z</time>
      </trkpt>
      <trkpt lat="45.08055" lon="5.14862">
        <ele>199.9</ele>
        <time>2022-05-07T12:41:02.000Z</time>
      </trkpt>
      <trkpt lat="45.08057" lon="5.14853">
        <ele>199.6</ele>
        <time>2022-05-07T12:41:03.000Z</time>
      </trkpt>
      <trkpt lat="45.08058" lon="5.14845">
        <ele>199.2</ele>
        <time>2022-05-07T12:41:04.000Z</time>
      </trkpt>
      <trkpt lat="45.08059" lon="5.14838">
        <ele>198.8</ele>
        <time>2022-05-07T12:41:05.000Z</time>
      </trkpt>
      <trkpt lat="45.0806" lon="5.14831">
        <ele>198.6</ele>
        <time>2022-05-07T12:41:06.000Z</time>
      </trkpt>
      <trkpt lat="45.08062" lon="5.14825">
        <ele>198.6</ele>
        <time>2022-05-07T12:41:07.000Z</time>
      </trkpt>
      <trkpt lat="45.08064" lon="5.1482">
        <ele>198.8</ele>
        <time>2022-05-07T12:41:08.000Z</time>
      </trkpt>
      <trkpt lat="45.08067" lon="5.14814">
        <ele>199</ele>
        <time>2022-05-07T12:41:09.000Z</time>
      </trkpt>
      <trkpt lat="45.0807" lon="5.1481">
        <ele>199.2</ele>
        <time>2022-05-07T12:41:10.000Z</time>
      </trkpt>
      <trkpt lat="45.08071" lon="5.14805">
        <ele>199.2</ele>
        <time>2022-05-07T12:41:11.000Z</time>
      </trkpt>
      <trkpt lat="45.08073" lon="5.148">
        <ele>199.3</ele>
        <time>2022-05-07T12:41:12.000Z</time>
      </trkpt>
      <trkpt lat="45.08075" lon="5.14795">
        <ele>199.4</ele>
        <time>2022-05-07T12:41:13.000Z</time>
      </trkpt>
      <trkpt lat="45.08077" lon="5.14789">
        <ele>199.5</ele>
        <time>2022-05-07T12:41:14.000Z</time>
      </trkpt>
      <trkpt lat="45.08079" lon="5.14784">
        <ele>199.6</ele>
        <time>2022-05-07T12:41:15.000Z</time>
      </trkpt>
      <trkpt lat="45.08081" lon="5.1478">
        <ele>199.7</ele>
        <time>2022-05-07T12:41:16.000Z</time>
      </trkpt>
      <trkpt lat="45.08083" lon="5.14774">
        <ele>199.8</ele>
        <time>2022-05-07T12:41:17.000Z</time>
      </trkpt>
      <trkpt lat="45.08085" lon="5.1477">
        <ele>199.9</ele>
        <time>2022-05-07T12:41:18.000Z</time>
      </trkpt>
      <trkpt lat="45.08088" lon="5.14765">
        <ele>200</ele>
        <time>2022-05-07T12:41:19.000Z</time>
      </trkpt>
      <trkpt lat="45.0809" lon="5.14758">
        <ele>200</ele>
        <time>2022-05-07T12:41:20.000Z</time>
      </trkpt>
      <trkpt lat="45.08092" lon="5.14752">
        <ele>200</ele>
        <time>2022-05-07T12:41:21.000Z</time>
      </trkpt>
      <trkpt lat="45.08096" lon="5.14747">
        <ele>200.2</ele>
        <time>2022-05-07T12:41:22.000Z</time>
      </trkpt>
      <trkpt lat="45.08099" lon="5.14741">
        <ele>200.3</ele>
        <time>2022-05-07T12:41:23.000Z</time>
      </trkpt>
      <trkpt lat="45.08101" lon="5.14734">
        <ele>200.3</ele>
        <time>2022-05-07T12:41:24.000Z</time>
      </trkpt>
      <trkpt lat="45.08103" lon="5.14728">
        <ele>200.3</ele>
        <time>2022-05-07T12:41:25.000Z</time>
      </trkpt>
      <trkpt lat="45.08105" lon="5.14722">
        <ele>200.3</ele>
        <time>2022-05-07T12:41:26.000Z</time>
      </trkpt>
      <trkpt lat="45.08108" lon="5.14717">
        <ele>200.5</ele>
        <time>2022-05-07T12:41:27.000Z</time>
      </trkpt>
      <trkpt lat="45.0811" lon="5.14712">
        <ele>200.5</ele>
        <time>2022-05-07T12:41:28.000Z</time>
      </trkpt>
      <trkpt lat="45.08111" lon="5.14706">
        <ele>200.4</ele>
        <time>2022-05-07T12:41:29.000Z</time>
      </trkpt>
      <trkpt lat="45.08112" lon="5.14699">
        <ele>200.3</ele>
        <time>2022-05-07T12:41:30.000Z</time>
      </trkpt>
      <trkpt lat="45.08114" lon="5.14693">
        <ele>200.2</ele>
        <time>2022-05-07T12:41:31.000Z</time>
      </trkpt>
      <trkpt lat="45.08116" lon="5.14687">
        <ele>200.3</ele>
        <time>2022-05-07T12:41:32.000Z</time>
      </trkpt>
      <trkpt lat="45.08117" lon="5.14681">
        <ele>200.3</ele>
        <time>2022-05-07T12:41:33.000Z</time>
      </trkpt>
      <trkpt lat="45.0812" lon="5.14675">
        <ele>200.4</ele>
        <time>2022-05-07T12:41:34.000Z</time>
      </trkpt>
      <trkpt lat="45.08122" lon="5.1467">
        <ele>200.6</ele>
        <time>2022-05-07T12:41:35.000Z</time>
      </trkpt>
      <trkpt lat="45.08124" lon="5.14665">
        <ele>200.8</ele>
        <time>2022-05-07T12:41:36.000Z</time>
      </trkpt>
      <trkpt lat="45.08126" lon="5.1466">
        <ele>201</ele>
        <time>2022-05-07T12:41:37.000Z</time>
      </trkpt>
      <trkpt lat="45.08128" lon="5.14654">
        <ele>201.2</ele>
        <time>2022-05-07T12:41:38.000Z</time>
      </trkpt>
      <trkpt lat="45.08131" lon="5.14649">
        <ele>201.4</ele>
        <time>2022-05-07T12:41:39.000Z</time>
      </trkpt>
      <trkpt lat="45.08133" lon="5.14644">
        <ele>201.5</ele>
        <time>2022-05-07T12:41:40.000Z</time>
      </trkpt>
      <trkpt lat="45.08135" lon="5.14638">
        <ele>201.5</ele>
        <time>2022-05-07T12:41:41.000Z</time>
      </trkpt>
      <trkpt lat="45.08137" lon="5.14632">
        <ele>201.5</ele>
        <time>2022-05-07T12:41:42.000Z</time>
      </trkpt>
      <trkpt lat="45.08138" lon="5.14627">
        <ele>201.5</ele>
        <time>2022-05-07T12:41:43.000Z</time>
      </trkpt>
      <trkpt lat="45.0814" lon="5.14622">
        <ele>201.5</ele>
        <time>2022-05-07T12:41:44.000Z</time>
      </trkpt>
      <trkpt lat="45.08142" lon="5.14617">
        <ele>201.6</ele>
        <time>2022-05-07T12:41:45.000Z</time>
      </trkpt>
      <trkpt lat="45.08143" lon="5.14611">
        <ele>201.6</ele>
        <time>2022-05-07T12:41:46.000Z</time>
      </trkpt>
      <trkpt lat="45.08145" lon="5.14605">
        <ele>201.6</ele>
        <time>2022-05-07T12:41:47.000Z</time>
      </trkpt>
      <trkpt lat="45.08147" lon="5.146">
        <ele>201.7</ele>
        <time>2022-05-07T12:41:48.000Z</time>
      </trkpt>
      <trkpt lat="45.08148" lon="5.14595">
        <ele>201.8</ele>
        <time>2022-05-07T12:41:49.000Z</time>
      </trkpt>
      <trkpt lat="45.08149" lon="5.1459">
        <ele>201.7</ele>
        <time>2022-05-07T12:41:50.000Z</time>
      </trkpt>
      <trkpt lat="45.08151" lon="5.14585">
        <ele>201.7</ele>
        <time>2022-05-07T12:41:51.000Z</time>
      </trkpt>
      <trkpt lat="45.08151" lon="5.1458">
        <ele>201.7</ele>
        <time>2022-05-07T12:41:52.000Z</time>
      </trkpt>
      <trkpt lat="45.08153" lon="5.14575">
        <ele>201.8</ele>
        <time>2022-05-07T12:41:53.000Z</time>
      </trkpt>
      <trkpt lat="45.08155" lon="5.1457">
        <ele>202</ele>
        <time>2022-05-07T12:41:54.000Z</time>
      </trkpt>
      <trkpt lat="45.08156" lon="5.14565">
        <ele>202.1</ele>
        <time>2022-05-07T12:41:55.000Z</time>
      </trkpt>
      <trkpt lat="45.08158" lon="5.1456">
        <ele>202.2</ele>
        <time>2022-05-07T12:41:56.000Z</time>
      </trkpt>
      <trkpt lat="45.0816" lon="5.14554">
        <ele>202.3</ele>
        <time>2022-05-07T12:41:57.000Z</time>
      </trkpt>
      <trkpt lat="45.08162" lon="5.1455">
        <ele>202.5</ele>
        <time>2022-05-07T12:41:58.000Z</time>
      </trkpt>
      <trkpt lat="45.08163" lon="5.14543">
        <ele>202.7</ele>
        <time>2022-05-07T12:41:59.000Z</time>
      </trkpt>
      <trkpt lat="45.08165" lon="5.14538">
        <ele>202.8</ele>
        <time>2022-05-07T12:42:00.000Z</time>
      </trkpt>
      <trkpt lat="45.08165" lon="5.14532">
        <ele>202.9</ele>
        <time>2022-05-07T12:42:01.000Z</time>
      </trkpt>
      <trkpt lat="45.08167" lon="5.14527">
        <ele>203.1</ele>
        <time>2022-05-07T12:42:02.000Z</time>
      </trkpt>
      <trkpt lat="45.08169" lon="5.14523">
        <ele>203.2</ele>
        <time>2022-05-07T12:42:03.000Z</time>
      </trkpt>
      <trkpt lat="45.08171" lon="5.14519">
        <ele>203.4</ele>
        <time>2022-05-07T12:42:04.000Z</time>
      </trkpt>
      <trkpt lat="45.08172" lon="5.14515">
        <ele>203.6</ele>
        <time>2022-05-07T12:42:05.000Z</time>
      </trkpt>
      <trkpt lat="45.08172" lon="5.14512">
        <ele>203.7</ele>
        <time>2022-05-07T12:42:06.000Z</time>
      </trkpt>
      <trkpt lat="45.08174" lon="5.1451">
        <ele>203.7</ele>
        <time>2022-05-07T12:42:08.000Z</time>
      </trkpt>
      <trkpt lat="45.08174" lon="5.14507">
        <ele>203.8</ele>
        <time>2022-05-07T12:42:09.000Z</time>
      </trkpt>
      <trkpt lat="45.08175" lon="5.14503">
        <ele>203.9</ele>
        <time>2022-05-07T12:42:10.000Z</time>
      </trkpt>
      <trkpt lat="45.08175" lon="5.14498">
        <ele>203.9</ele>
        <time>2022-05-07T12:42:11.000Z</time>
      </trkpt>
      <trkpt lat="45.08176" lon="5.14493">
        <ele>203.6</ele>
        <time>2022-05-07T12:42:12.000Z</time>
      </trkpt>
      <trkpt lat="45.08177" lon="5.14488">
        <ele>203.3</ele>
        <time>2022-05-07T12:42:13.000Z</time>
      </trkpt>
      <trkpt lat="45.08178" lon="5.14483">
        <ele>203</ele>
        <time>2022-05-07T12:42:14.000Z</time>
      </trkpt>
      <trkpt lat="45.08179" lon="5.14476">
        <ele>202.7</ele>
        <time>2022-05-07T12:42:15.000Z</time>
      </trkpt>
      <trkpt lat="45.0818" lon="5.14471">
        <ele>202.4</ele>
        <time>2022-05-07T12:42:16.000Z</time>
      </trkpt>
      <trkpt lat="45.08182" lon="5.14465">
        <ele>202.4</ele>
        <time>2022-05-07T12:42:17.000Z</time>
      </trkpt>
      <trkpt lat="45.08185" lon="5.1446">
        <ele>202.5</ele>
        <time>2022-05-07T12:42:18.000Z</time>
      </trkpt>
      <trkpt lat="45.08188" lon="5.14453">
        <ele>202.6</ele>
        <time>2022-05-07T12:42:19.000Z</time>
      </trkpt>
      <trkpt lat="45.0819" lon="5.14446">
        <ele>202.7</ele>
        <time>2022-05-07T12:42:20.000Z</time>
      </trkpt>
      <trkpt lat="45.08192" lon="5.14438">
        <ele>202.8</ele>
        <time>2022-05-07T12:42:21.000Z</time>
      </trkpt>
      <trkpt lat="45.08195" lon="5.14431">
        <ele>203</ele>
        <time>2022-05-07T12:42:22.000Z</time>
      </trkpt>
      <trkpt lat="45.08198" lon="5.14424">
        <ele>203.2</ele>
        <time>2022-05-07T12:42:23.000Z</time>
      </trkpt>
      <trkpt lat="45.08201" lon="5.14417">
        <ele>203.2</ele>
        <time>2022-05-07T12:42:24.000Z</time>
      </trkpt>
      <trkpt lat="45.08203" lon="5.14409">
        <ele>202.7</ele>
        <time>2022-05-07T12:42:25.000Z</time>
      </trkpt>
      <trkpt lat="45.08205" lon="5.14402">
        <ele>202.4</ele>
        <time>2022-05-07T12:42:26.000Z</time>
      </trkpt>
      <trkpt lat="45.08208" lon="5.14394">
        <ele>202.2</ele>
        <time>2022-05-07T12:42:27.000Z</time>
      </trkpt>
      <trkpt lat="45.08211" lon="5.14386">
        <ele>202.3</ele>
        <time>2022-05-07T12:42:28.000Z</time>
      </trkpt>
      <trkpt lat="45.08214" lon="5.1438">
        <ele>202.5</ele>
        <time>2022-05-07T12:42:29.000Z</time>
      </trkpt>
      <trkpt lat="45.08216" lon="5.14373">
        <ele>202.7</ele>
        <time>2022-05-07T12:42:30.000Z</time>
      </trkpt>
      <trkpt lat="45.08219" lon="5.14367">
        <ele>202.8</ele>
        <time>2022-05-07T12:42:31.000Z</time>
      </trkpt>
      <trkpt lat="45.08221" lon="5.1436">
        <ele>202.9</ele>
        <time>2022-05-07T12:42:32.000Z</time>
      </trkpt>
      <trkpt lat="45.08223" lon="5.14355">
        <ele>203</ele>
        <time>2022-05-07T12:42:33.000Z</time>
      </trkpt>
      <trkpt lat="45.08225" lon="5.14349">
        <ele>203.1</ele>
        <time>2022-05-07T12:42:34.000Z</time>
      </trkpt>
      <trkpt lat="45.08227" lon="5.14343">
        <ele>203.2</ele>
        <time>2022-05-07T12:42:35.000Z</time>
      </trkpt>
      <trkpt lat="45.08229" lon="5.14338">
        <ele>203.2</ele>
        <time>2022-05-07T12:42:36.000Z</time>
      </trkpt>
      <trkpt lat="45.0823" lon="5.14332">
        <ele>203.2</ele>
        <time>2022-05-07T12:42:37.000Z</time>
      </trkpt>
      <trkpt lat="45.08231" lon="5.14325">
        <ele>202.9</ele>
        <time>2022-05-07T12:42:38.000Z</time>
      </trkpt>
      <trkpt lat="45.08234" lon="5.14319">
        <ele>202.8</ele>
        <time>2022-05-07T12:42:39.000Z</time>
      </trkpt>
      <trkpt lat="45.08236" lon="5.14314">
        <ele>202.8</ele>
        <time>2022-05-07T12:42:40.000Z</time>
      </trkpt>
      <trkpt lat="45.08238" lon="5.14308">
        <ele>202.8</ele>
        <time>2022-05-07T12:42:41.000Z</time>
      </trkpt>
      <trkpt lat="45.0824" lon="5.14303">
        <ele>202.8</ele>
        <time>2022-05-07T12:42:42.000Z</time>
      </trkpt>
      <trkpt lat="45.08242" lon="5.14298">
        <ele>202.6</ele>
        <time>2022-05-07T12:42:43.000Z</time>
      </trkpt>
      <trkpt lat="45.08244" lon="5.14293">
        <ele>202.4</ele>
        <time>2022-05-07T12:42:44.000Z</time>
      </trkpt>
      <trkpt lat="45.08246" lon="5.14287">
        <ele>202.3</ele>
        <time>2022-05-07T12:42:45.000Z</time>
      </trkpt>
      <trkpt lat="45.08248" lon="5.14282">
        <ele>202.1</ele>
        <time>2022-05-07T12:42:46.000Z</time>
      </trkpt>
      <trkpt lat="45.0825" lon="5.14277">
        <ele>202</ele>
        <time>2022-05-07T12:42:47.000Z</time>
      </trkpt>
      <trkpt lat="45.08252" lon="5.14271">
        <ele>202.1</ele>
        <time>2022-05-07T12:42:48.000Z</time>
      </trkpt>
      <trkpt lat="45.08253" lon="5.14267">
        <ele>202</ele>
        <time>2022-05-07T12:42:49.000Z</time>
      </trkpt>
      <trkpt lat="45.08255" lon="5.14261">
        <ele>201.9</ele>
        <time>2022-05-07T12:42:50.000Z</time>
      </trkpt>
      <trkpt lat="45.08257" lon="5.14255">
        <ele>201.7</ele>
        <time>2022-05-07T12:42:51.000Z</time>
      </trkpt>
      <trkpt lat="45.08258" lon="5.1425">
        <ele>201.4</ele>
        <time>2022-05-07T12:42:52.000Z</time>
      </trkpt>
      <trkpt lat="45.0826" lon="5.14245">
        <ele>201</ele>
        <time>2022-05-07T12:42:53.000Z</time>
      </trkpt>
      <trkpt lat="45.08262" lon="5.14238">
        <ele>200.7</ele>
        <time>2022-05-07T12:42:54.000Z</time>
      </trkpt>
      <trkpt lat="45.08264" lon="5.14232">
        <ele>200.4</ele>
        <time>2022-05-07T12:42:55.000Z</time>
      </trkpt>
      <trkpt lat="45.08266" lon="5.14225">
        <ele>200.1</ele>
        <time>2022-05-07T12:42:56.000Z</time>
      </trkpt>
      <trkpt lat="45.08268" lon="5.14218">
        <ele>199.8</ele>
        <time>2022-05-07T12:42:57.000Z</time>
      </trkpt>
      <trkpt lat="45.08271" lon="5.14209">
        <ele>199.6</ele>
        <time>2022-05-07T12:42:58.000Z</time>
      </trkpt>
      <trkpt lat="45.08273" lon="5.142">
        <ele>199.6</ele>
        <time>2022-05-07T12:42:59.000Z</time>
      </trkpt>
      <trkpt lat="45.08275" lon="5.14192">
        <ele>199.7</ele>
        <time>2022-05-07T12:43:00.000Z</time>
      </trkpt>
      <trkpt lat="45.08277" lon="5.14183">
        <ele>199.9</ele>
        <time>2022-05-07T12:43:01.000Z</time>
      </trkpt>
      <trkpt lat="45.0828" lon="5.14174">
        <ele>199.9</ele>
        <time>2022-05-07T12:43:02.000Z</time>
      </trkpt>
      <trkpt lat="45.08282" lon="5.14165">
        <ele>199.8</ele>
        <time>2022-05-07T12:43:03.000Z</time>
      </trkpt>
      <trkpt lat="45.08285" lon="5.14157">
        <ele>199.5</ele>
        <time>2022-05-07T12:43:04.000Z</time>
      </trkpt>
      <trkpt lat="45.08287" lon="5.14148">
        <ele>199.2</ele>
        <time>2022-05-07T12:43:05.000Z</time>
      </trkpt>
      <trkpt lat="45.08289" lon="5.14138">
        <ele>199</ele>
        <time>2022-05-07T12:43:06.000Z</time>
      </trkpt>
      <trkpt lat="45.08292" lon="5.14129">
        <ele>198.6</ele>
        <time>2022-05-07T12:43:07.000Z</time>
      </trkpt>
      <trkpt lat="45.08295" lon="5.14119">
        <ele>198.5</ele>
        <time>2022-05-07T12:43:08.000Z</time>
      </trkpt>
      <trkpt lat="45.08298" lon="5.14111">
        <ele>198.5</ele>
        <time>2022-05-07T12:43:09.000Z</time>
      </trkpt>
      <trkpt lat="45.08301" lon="5.14102">
        <ele>198.6</ele>
        <time>2022-05-07T12:43:10.000Z</time>
      </trkpt>
      <trkpt lat="45.08303" lon="5.14093">
        <ele>198.8</ele>
        <time>2022-05-07T12:43:11.000Z</time>
      </trkpt>
      <trkpt lat="45.08306" lon="5.14084">
        <ele>199</ele>
        <time>2022-05-07T12:43:12.000Z</time>
      </trkpt>
      <trkpt lat="45.08309" lon="5.14076">
        <ele>199</ele>
        <time>2022-05-07T12:43:13.000Z</time>
      </trkpt>
      <trkpt lat="45.08312" lon="5.14068">
        <ele>198.9</ele>
        <time>2022-05-07T12:43:14.000Z</time>
      </trkpt>
      <trkpt lat="45.08314" lon="5.14061">
        <ele>198.7</ele>
        <time>2022-05-07T12:43:15.000Z</time>
      </trkpt>
      <trkpt lat="45.08317" lon="5.14054">
        <ele>198.5</ele>
        <time>2022-05-07T12:43:16.000Z</time>
      </trkpt>
      <trkpt lat="45.0832" lon="5.14046">
        <ele>198.1</ele>
        <time>2022-05-07T12:43:17.000Z</time>
      </trkpt>
      <trkpt lat="45.08323" lon="5.14038">
        <ele>197.9</ele>
        <time>2022-05-07T12:43:18.000Z</time>
      </trkpt>
      <trkpt lat="45.08325" lon="5.1403">
        <ele>197.8</ele>
        <time>2022-05-07T12:43:19.000Z</time>
      </trkpt>
      <trkpt lat="45.08328" lon="5.14022">
        <ele>197.8</ele>
        <time>2022-05-07T12:43:20.000Z</time>
      </trkpt>
      <trkpt lat="45.08331" lon="5.14014">
        <ele>197.9</ele>
        <time>2022-05-07T12:43:21.000Z</time>
      </trkpt>
      <trkpt lat="45.08334" lon="5.14005">
        <ele>198</ele>
        <time>2022-05-07T12:43:22.000Z</time>
      </trkpt>
      <trkpt lat="45.08337" lon="5.13996">
        <ele>198.2</ele>
        <time>2022-05-07T12:43:23.000Z</time>
      </trkpt>
      <trkpt lat="45.0834" lon="5.13987">
        <ele>198.5</ele>
        <time>2022-05-07T12:43:24.000Z</time>
      </trkpt>
      <trkpt lat="45.08342" lon="5.13979">
        <ele>198.8</ele>
        <time>2022-05-07T12:43:25.000Z</time>
      </trkpt>
      <trkpt lat="45.08345" lon="5.13971">
        <ele>199</ele>
        <time>2022-05-07T12:43:26.000Z</time>
      </trkpt>
      <trkpt lat="45.08347" lon="5.13963">
        <ele>199</ele>
        <time>2022-05-07T12:43:27.000Z</time>
      </trkpt>
      <trkpt lat="45.0835" lon="5.13955">
        <ele>199</ele>
        <time>2022-05-07T12:43:28.000Z</time>
      </trkpt>
      <trkpt lat="45.08352" lon="5.13948">
        <ele>199</ele>
        <time>2022-05-07T12:43:29.000Z</time>
      </trkpt>
      <trkpt lat="45.08354" lon="5.13941">
        <ele>198.9</ele>
        <time>2022-05-07T12:43:30.000Z</time>
      </trkpt>
      <trkpt lat="45.08356" lon="5.13933">
        <ele>198.8</ele>
        <time>2022-05-07T12:43:31.000Z</time>
      </trkpt>
      <trkpt lat="45.08358" lon="5.13928">
        <ele>198.8</ele>
        <time>2022-05-07T12:43:32.000Z</time>
      </trkpt>
      <trkpt lat="45.08359" lon="5.1392">
        <ele>198.8</ele>
        <time>2022-05-07T12:43:33.000Z</time>
      </trkpt>
      <trkpt lat="45.0836" lon="5.13913">
        <ele>199</ele>
        <time>2022-05-07T12:43:34.000Z</time>
      </trkpt>
      <trkpt lat="45.08361" lon="5.13908">
        <ele>199.3</ele>
        <time>2022-05-07T12:43:35.000Z</time>
      </trkpt>
      <trkpt lat="45.08364" lon="5.13903">
        <ele>199.5</ele>
        <time>2022-05-07T12:43:36.000Z</time>
      </trkpt>
      <trkpt lat="45.08366" lon="5.13898">
        <ele>199.7</ele>
        <time>2022-05-07T12:43:37.000Z</time>
      </trkpt>
      <trkpt lat="45.08368" lon="5.13892">
        <ele>199.9</ele>
        <time>2022-05-07T12:43:38.000Z</time>
      </trkpt>
      <trkpt lat="45.0837" lon="5.13886">
        <ele>199.9</ele>
        <time>2022-05-07T12:43:39.000Z</time>
      </trkpt>
      <trkpt lat="45.08374" lon="5.13879">
        <ele>199.6</ele>
        <time>2022-05-07T12:43:40.000Z</time>
      </trkpt>
      <trkpt lat="45.08377" lon="5.13874">
        <ele>199.5</ele>
        <time>2022-05-07T12:43:41.000Z</time>
      </trkpt>
      <trkpt lat="45.0838" lon="5.13869">
        <ele>199.5</ele>
        <time>2022-05-07T12:43:42.000Z</time>
      </trkpt>
      <trkpt lat="45.08383" lon="5.13864">
        <ele>199.6</ele>
        <time>2022-05-07T12:43:43.000Z</time>
      </trkpt>
      <trkpt lat="45.08387" lon="5.1386">
        <ele>199.8</ele>
        <time>2022-05-07T12:43:44.000Z</time>
      </trkpt>
      <trkpt lat="45.08391" lon="5.13857">
        <ele>200</ele>
        <time>2022-05-07T12:43:45.000Z</time>
      </trkpt>
      <trkpt lat="45.08394" lon="5.13852">
        <ele>200.1</ele>
        <time>2022-05-07T12:43:46.000Z</time>
      </trkpt>
      <trkpt lat="45.08398" lon="5.13847">
        <ele>200.2</ele>
        <time>2022-05-07T12:43:47.000Z</time>
      </trkpt>
      <trkpt lat="45.08402" lon="5.13843">
        <ele>200.3</ele>
        <time>2022-05-07T12:43:48.000Z</time>
      </trkpt>
      <trkpt lat="45.08406" lon="5.13837">
        <ele>200.5</ele>
        <time>2022-05-07T12:43:49.000Z</time>
      </trkpt>
      <trkpt lat="45.0841" lon="5.1383">
        <ele>200.6</ele>
        <time>2022-05-07T12:43:50.000Z</time>
      </trkpt>
      <trkpt lat="45.08414" lon="5.13824">
        <ele>200.5</ele>
        <time>2022-05-07T12:43:51.000Z</time>
      </trkpt>
      <trkpt lat="45.08418" lon="5.13818">
        <ele>200.5</ele>
        <time>2022-05-07T12:43:52.000Z</time>
      </trkpt>
      <trkpt lat="45.08421" lon="5.13812">
        <ele>200.3</ele>
        <time>2022-05-07T12:43:53.000Z</time>
      </trkpt>
      <trkpt lat="45.08424" lon="5.13807">
        <ele>200.3</ele>
        <time>2022-05-07T12:43:54.000Z</time>
      </trkpt>
      <trkpt lat="45.08427" lon="5.13801">
        <ele>200.2</ele>
        <time>2022-05-07T12:43:55.000Z</time>
      </trkpt>
      <trkpt lat="45.0843" lon="5.13795">
        <ele>200.1</ele>
        <time>2022-05-07T12:43:56.000Z</time>
      </trkpt>
      <trkpt lat="45.08433" lon="5.1379">
        <ele>200</ele>
        <time>2022-05-07T12:43:57.000Z</time>
      </trkpt>
      <trkpt lat="45.08436" lon="5.13785">
        <ele>199.9</ele>
        <time>2022-05-07T12:43:58.000Z</time>
      </trkpt>
      <trkpt lat="45.08439" lon="5.13779">
        <ele>199.9</ele>
        <time>2022-05-07T12:43:59.000Z</time>
      </trkpt>
      <trkpt lat="45.08442" lon="5.13775">
        <ele>199.8</ele>
        <time>2022-05-07T12:44:00.000Z</time>
      </trkpt>
      <trkpt lat="45.08445" lon="5.1377">
        <ele>199.7</ele>
        <time>2022-05-07T12:44:01.000Z</time>
      </trkpt>
      <trkpt lat="45.08449" lon="5.13764">
        <ele>199.8</ele>
        <time>2022-05-07T12:44:02.000Z</time>
      </trkpt>
      <trkpt lat="45.08453" lon="5.13759">
        <ele>199.9</ele>
        <time>2022-05-07T12:44:03.000Z</time>
      </trkpt>
      <trkpt lat="45.08457" lon="5.13754">
        <ele>200</ele>
        <time>2022-05-07T12:44:04.000Z</time>
      </trkpt>
      <trkpt lat="45.08461" lon="5.13749">
        <ele>200.1</ele>
        <time>2022-05-07T12:44:05.000Z</time>
      </trkpt>
      <trkpt lat="45.08465" lon="5.13744">
        <ele>200.1</ele>
        <time>2022-05-07T12:44:06.000Z</time>
      </trkpt>
      <trkpt lat="45.08468" lon="5.13739">
        <ele>200</ele>
        <time>2022-05-07T12:44:07.000Z</time>
      </trkpt>
      <trkpt lat="45.08472" lon="5.13735">
        <ele>199.9</ele>
        <time>2022-05-07T12:44:08.000Z</time>
      </trkpt>
      <trkpt lat="45.08476" lon="5.1373">
        <ele>199.8</ele>
        <time>2022-05-07T12:44:09.000Z</time>
      </trkpt>
      <trkpt lat="45.0848" lon="5.13726">
        <ele>199.8</ele>
        <time>2022-05-07T12:44:10.000Z</time>
      </trkpt>
      <trkpt lat="45.08484" lon="5.13722">
        <ele>199.8</ele>
        <time>2022-05-07T12:44:11.000Z</time>
      </trkpt>
      <trkpt lat="45.08488" lon="5.13717">
        <ele>199.9</ele>
        <time>2022-05-07T12:44:12.000Z</time>
      </trkpt>
      <trkpt lat="45.08492" lon="5.13712">
        <ele>200.1</ele>
        <time>2022-05-07T12:44:13.000Z</time>
      </trkpt>
      <trkpt lat="45.08496" lon="5.13708">
        <ele>200.2</ele>
        <time>2022-05-07T12:44:14.000Z</time>
      </trkpt>
      <trkpt lat="45.08499" lon="5.13703">
        <ele>200.2</ele>
        <time>2022-05-07T12:44:15.000Z</time>
      </trkpt>
      <trkpt lat="45.08502" lon="5.13699">
        <ele>200.3</ele>
        <time>2022-05-07T12:44:16.000Z</time>
      </trkpt>
      <trkpt lat="45.08505" lon="5.13694">
        <ele>200.3</ele>
        <time>2022-05-07T12:44:17.000Z</time>
      </trkpt>
      <trkpt lat="45.08508" lon="5.1369">
        <ele>200.3</ele>
        <time>2022-05-07T12:44:18.000Z</time>
      </trkpt>
      <trkpt lat="45.08511" lon="5.13687">
        <ele>200.3</ele>
        <time>2022-05-07T12:44:19.000Z</time>
      </trkpt>
      <trkpt lat="45.08515" lon="5.13684">
        <ele>200.3</ele>
        <time>2022-05-07T12:44:20.000Z</time>
      </trkpt>
      <trkpt lat="45.08518" lon="5.1368">
        <ele>200.3</ele>
        <time>2022-05-07T12:44:21.000Z</time>
      </trkpt>
      <trkpt lat="45.08521" lon="5.13676">
        <ele>200.2</ele>
        <time>2022-05-07T12:44:22.000Z</time>
      </trkpt>
      <trkpt lat="45.08524" lon="5.13673">
        <ele>200.2</ele>
        <time>2022-05-07T12:44:23.000Z</time>
      </trkpt>
      <trkpt lat="45.08527" lon="5.1367">
        <ele>200.2</ele>
        <time>2022-05-07T12:44:24.000Z</time>
      </trkpt>
      <trkpt lat="45.0853" lon="5.13666">
        <ele>200.1</ele>
        <time>2022-05-07T12:44:25.000Z</time>
      </trkpt>
      <trkpt lat="45.08533" lon="5.13661">
        <ele>200</ele>
        <time>2022-05-07T12:44:26.000Z</time>
      </trkpt>
      <trkpt lat="45.08536" lon="5.13657">
        <ele>199.9</ele>
        <time>2022-05-07T12:44:27.000Z</time>
      </trkpt>
      <trkpt lat="45.08539" lon="5.13653">
        <ele>199.8</ele>
        <time>2022-05-07T12:44:28.000Z</time>
      </trkpt>
      <trkpt lat="45.08542" lon="5.13649">
        <ele>199.7</ele>
        <time>2022-05-07T12:44:29.000Z</time>
      </trkpt>
      <trkpt lat="45.08545" lon="5.13645">
        <ele>199.6</ele>
        <time>2022-05-07T12:44:30.000Z</time>
      </trkpt>
      <trkpt lat="45.08549" lon="5.1364">
        <ele>199.6</ele>
        <time>2022-05-07T12:44:31.000Z</time>
      </trkpt>
      <trkpt lat="45.08552" lon="5.13636">
        <ele>199.7</ele>
        <time>2022-05-07T12:44:32.000Z</time>
      </trkpt>
      <trkpt lat="45.08556" lon="5.13631">
        <ele>199.7</ele>
        <time>2022-05-07T12:44:33.000Z</time>
      </trkpt>
      <trkpt lat="45.08559" lon="5.13626">
        <ele>199.7</ele>
        <time>2022-05-07T12:44:34.000Z</time>
      </trkpt>
      <trkpt lat="45.08563" lon="5.13621">
        <ele>199.6</ele>
        <time>2022-05-07T12:44:35.000Z</time>
      </trkpt>
      <trkpt lat="45.08567" lon="5.13616">
        <ele>199.6</ele>
        <time>2022-05-07T12:44:36.000Z</time>
      </trkpt>
      <trkpt lat="45.08571" lon="5.13611">
        <ele>199.5</ele>
        <time>2022-05-07T12:44:37.000Z</time>
      </trkpt>
      <trkpt lat="45.08574" lon="5.13606">
        <ele>199.6</ele>
        <time>2022-05-07T12:44:38.000Z</time>
      </trkpt>
      <trkpt lat="45.08578" lon="5.136">
        <ele>199.7</ele>
        <time>2022-05-07T12:44:39.000Z</time>
      </trkpt>
      <trkpt lat="45.08581" lon="5.13595">
        <ele>199.9</ele>
        <time>2022-05-07T12:44:40.000Z</time>
      </trkpt>
      <trkpt lat="45.08584" lon="5.1359">
        <ele>200</ele>
        <time>2022-05-07T12:44:41.000Z</time>
      </trkpt>
      <trkpt lat="45.08587" lon="5.13585">
        <ele>199.9</ele>
        <time>2022-05-07T12:44:42.000Z</time>
      </trkpt>
      <trkpt lat="45.0859" lon="5.1358">
        <ele>199.7</ele>
        <time>2022-05-07T12:44:43.000Z</time>
      </trkpt>
      <trkpt lat="45.08593" lon="5.13575">
        <ele>199.5</ele>
        <time>2022-05-07T12:44:44.000Z</time>
      </trkpt>
      <trkpt lat="45.08596" lon="5.1357">
        <ele>199.3</ele>
        <time>2022-05-07T12:44:45.000Z</time>
      </trkpt>
      <trkpt lat="45.08598" lon="5.13566">
        <ele>199.2</ele>
        <time>2022-05-07T12:44:46.000Z</time>
      </trkpt>
      <trkpt lat="45.08601" lon="5.13561">
        <ele>199.1</ele>
        <time>2022-05-07T12:44:47.000Z</time>
      </trkpt>
      <trkpt lat="45.08603" lon="5.13556">
        <ele>199</ele>
        <time>2022-05-07T12:44:48.000Z</time>
      </trkpt>
      <trkpt lat="45.08605" lon="5.13551">
        <ele>199</ele>
        <time>2022-05-07T12:44:49.000Z</time>
      </trkpt>
      <trkpt lat="45.08607" lon="5.13547">
        <ele>199</ele>
        <time>2022-05-07T12:44:50.000Z</time>
      </trkpt>
      <trkpt lat="45.08609" lon="5.13541">
        <ele>199</ele>
        <time>2022-05-07T12:44:51.000Z</time>
      </trkpt>
      <trkpt lat="45.08611" lon="5.13536">
        <ele>199</ele>
        <time>2022-05-07T12:44:52.000Z</time>
      </trkpt>
      <trkpt lat="45.08613" lon="5.13532">
        <ele>199</ele>
        <time>2022-05-07T12:44:53.000Z</time>
      </trkpt>
      <trkpt lat="45.08614" lon="5.13528">
        <ele>199</ele>
        <time>2022-05-07T12:44:54.000Z</time>
      </trkpt>
      <trkpt lat="45.08616" lon="5.13524">
        <ele>199</ele>
        <time>2022-05-07T12:44:55.000Z</time>
      </trkpt>
      <trkpt lat="45.08618" lon="5.1352">
        <ele>199</ele>
        <time>2022-05-07T12:44:56.000Z</time>
      </trkpt>
      <trkpt lat="45.08619" lon="5.13517">
        <ele>199</ele>
        <time>2022-05-07T12:44:57.000Z</time>
      </trkpt>
      <trkpt lat="45.08621" lon="5.13512">
        <ele>199</ele>
        <time>2022-05-07T12:44:58.000Z</time>
      </trkpt>
      <trkpt lat="45.08624" lon="5.13506">
        <ele>199</ele>
        <time>2022-05-07T12:44:59.000Z</time>
      </trkpt>
      <trkpt lat="45.08627" lon="5.135">
        <ele>199</ele>
        <time>2022-05-07T12:45:00.000Z</time>
      </trkpt>
      <trkpt lat="45.08631" lon="5.13496">
        <ele>199.2</ele>
        <time>2022-05-07T12:45:01.000Z</time>
      </trkpt>
      <trkpt lat="45.08635" lon="5.1349">
        <ele>199.3</ele>
        <time>2022-05-07T12:45:02.000Z</time>
      </trkpt>
      <trkpt lat="45.08638" lon="5.13483">
        <ele>199.6</ele>
        <time>2022-05-07T12:45:03.000Z</time>
      </trkpt>
      <trkpt lat="45.08639" lon="5.13475">
        <ele>199.9</ele>
        <time>2022-05-07T12:45:04.000Z</time>
      </trkpt>
      <trkpt lat="45.08641" lon="5.13467">
        <ele>199.9</ele>
        <time>2022-05-07T12:45:05.000Z</time>
      </trkpt>
      <trkpt lat="45.08644" lon="5.1346">
        <ele>199.9</ele>
        <time>2022-05-07T12:45:06.000Z</time>
      </trkpt>
      <trkpt lat="45.08647" lon="5.13453">
        <ele>199.9</ele>
        <time>2022-05-07T12:45:07.000Z</time>
      </trkpt>
      <trkpt lat="45.0865" lon="5.13446">
        <ele>200</ele>
        <time>2022-05-07T12:45:08.000Z</time>
      </trkpt>
      <trkpt lat="45.08652" lon="5.13439">
        <ele>199.9</ele>
        <time>2022-05-07T12:45:09.000Z</time>
      </trkpt>
      <trkpt lat="45.08654" lon="5.13431">
        <ele>199.8</ele>
        <time>2022-05-07T12:45:10.000Z</time>
      </trkpt>
      <trkpt lat="45.08657" lon="5.13425">
        <ele>199.7</ele>
        <time>2022-05-07T12:45:11.000Z</time>
      </trkpt>
      <trkpt lat="45.0866" lon="5.13418">
        <ele>199.8</ele>
        <time>2022-05-07T12:45:12.000Z</time>
      </trkpt>
      <trkpt lat="45.08663" lon="5.13411">
        <ele>199.8</ele>
        <time>2022-05-07T12:45:13.000Z</time>
      </trkpt>
      <trkpt lat="45.08665" lon="5.13404">
        <ele>199.9</ele>
        <time>2022-05-07T12:45:14.000Z</time>
      </trkpt>
      <trkpt lat="45.08668" lon="5.13397">
        <ele>200</ele>
        <time>2022-05-07T12:45:15.000Z</time>
      </trkpt>
      <trkpt lat="45.0867" lon="5.1339">
        <ele>200</ele>
        <time>2022-05-07T12:45:16.000Z</time>
      </trkpt>
      <trkpt lat="45.08673" lon="5.13382">
        <ele>200</ele>
        <time>2022-05-07T12:45:17.000Z</time>
      </trkpt>
      <trkpt lat="45.08675" lon="5.13375">
        <ele>200</ele>
        <time>2022-05-07T12:45:18.000Z</time>
      </trkpt>
      <trkpt lat="45.08678" lon="5.13368">
        <ele>200</ele>
        <time>2022-05-07T12:45:19.000Z</time>
      </trkpt>
      <trkpt lat="45.08681" lon="5.13361">
        <ele>200</ele>
        <time>2022-05-07T12:45:20.000Z</time>
      </trkpt>
      <trkpt lat="45.08684" lon="5.13354">
        <ele>199.9</ele>
        <time>2022-05-07T12:45:21.000Z</time>
      </trkpt>
      <trkpt lat="45.08687" lon="5.13346">
        <ele>199.9</ele>
        <time>2022-05-07T12:45:22.000Z</time>
      </trkpt>
      <trkpt lat="45.0869" lon="5.13339">
        <ele>199.9</ele>
        <time>2022-05-07T12:45:23.000Z</time>
      </trkpt>
      <trkpt lat="45.08694" lon="5.13331">
        <ele>199.9</ele>
        <time>2022-05-07T12:45:24.000Z</time>
      </trkpt>
      <trkpt lat="45.08697" lon="5.13324">
        <ele>199.7</ele>
        <time>2022-05-07T12:45:25.000Z</time>
      </trkpt>
      <trkpt lat="45.087" lon="5.13317">
        <ele>199.5</ele>
        <time>2022-05-07T12:45:26.000Z</time>
      </trkpt>
      <trkpt lat="45.08703" lon="5.1331">
        <ele>199.4</ele>
        <time>2022-05-07T12:45:27.000Z</time>
      </trkpt>
      <trkpt lat="45.08706" lon="5.13302">
        <ele>199.4</ele>
        <time>2022-05-07T12:45:28.000Z</time>
      </trkpt>
      <trkpt lat="45.08709" lon="5.13295">
        <ele>199.3</ele>
        <time>2022-05-07T12:45:29.000Z</time>
      </trkpt>
      <trkpt lat="45.08712" lon="5.13288">
        <ele>199.2</ele>
        <time>2022-05-07T12:45:30.000Z</time>
      </trkpt>
      <trkpt lat="45.08716" lon="5.13281">
        <ele>199.1</ele>
        <time>2022-05-07T12:45:31.000Z</time>
      </trkpt>
      <trkpt lat="45.08719" lon="5.13273">
        <ele>199</ele>
        <time>2022-05-07T12:45:32.000Z</time>
      </trkpt>
      <trkpt lat="45.08722" lon="5.13266">
        <ele>199</ele>
        <time>2022-05-07T12:45:33.000Z</time>
      </trkpt>
      <trkpt lat="45.08725" lon="5.13259">
        <ele>199.1</ele>
        <time>2022-05-07T12:45:34.000Z</time>
      </trkpt>
      <trkpt lat="45.08728" lon="5.13253">
        <ele>199.2</ele>
        <time>2022-05-07T12:45:35.000Z</time>
      </trkpt>
      <trkpt lat="45.08731" lon="5.13248">
        <ele>199.3</ele>
        <time>2022-05-07T12:45:36.000Z</time>
      </trkpt>
      <trkpt lat="45.08733" lon="5.13242">
        <ele>199.3</ele>
        <time>2022-05-07T12:45:37.000Z</time>
      </trkpt>
      <trkpt lat="45.08736" lon="5.13236">
        <ele>199.2</ele>
        <time>2022-05-07T12:45:38.000Z</time>
      </trkpt>
      <trkpt lat="45.08739" lon="5.1323">
        <ele>199.2</ele>
        <time>2022-05-07T12:45:39.000Z</time>
      </trkpt>
      <trkpt lat="45.08742" lon="5.13225">
        <ele>199.1</ele>
        <time>2022-05-07T12:45:40.000Z</time>
      </trkpt>
      <trkpt lat="45.08745" lon="5.13219">
        <ele>199</ele>
        <time>2022-05-07T12:45:41.000Z</time>
      </trkpt>
      <trkpt lat="45.08748" lon="5.13214">
        <ele>199</ele>
        <time>2022-05-07T12:45:42.000Z</time>
      </trkpt>
      <trkpt lat="45.0875" lon="5.13209">
        <ele>199</ele>
        <time>2022-05-07T12:45:43.000Z</time>
      </trkpt>
      <trkpt lat="45.08753" lon="5.13204">
        <ele>199.1</ele>
        <time>2022-05-07T12:45:44.000Z</time>
      </trkpt>
      <trkpt lat="45.08756" lon="5.13198">
        <ele>199.2</ele>
        <time>2022-05-07T12:45:45.000Z</time>
      </trkpt>
      <trkpt lat="45.08758" lon="5.13193">
        <ele>199.3</ele>
        <time>2022-05-07T12:45:46.000Z</time>
      </trkpt>
      <trkpt lat="45.08761" lon="5.13187">
        <ele>199.4</ele>
        <time>2022-05-07T12:45:47.000Z</time>
      </trkpt>
      <trkpt lat="45.08763" lon="5.13182">
        <ele>199.5</ele>
        <time>2022-05-07T12:45:48.000Z</time>
      </trkpt>
      <trkpt lat="45.08765" lon="5.13178">
        <ele>199.6</ele>
        <time>2022-05-07T12:45:49.000Z</time>
      </trkpt>
      <trkpt lat="45.08768" lon="5.13174">
        <ele>199.6</ele>
        <time>2022-05-07T12:45:50.000Z</time>
      </trkpt>
      <trkpt lat="45.08771" lon="5.1317">
        <ele>199.7</ele>
        <time>2022-05-07T12:45:51.000Z</time>
      </trkpt>
      <trkpt lat="45.08773" lon="5.13167">
        <ele>199.8</ele>
        <time>2022-05-07T12:45:52.000Z</time>
      </trkpt>
      <trkpt lat="45.08774" lon="5.13163">
        <ele>199.7</ele>
        <time>2022-05-07T12:45:53.000Z</time>
      </trkpt>
      <trkpt lat="45.08774" lon="5.1316">
        <ele>199.7</ele>
        <time>2022-05-07T12:45:54.000Z</time>
      </trkpt>
      <trkpt lat="45.08776" lon="5.13155">
        <ele>199.6</ele>
        <time>2022-05-07T12:45:56.000Z</time>
      </trkpt>
      <trkpt lat="45.08778" lon="5.13151">
        <ele>199.4</ele>
        <time>2022-05-07T12:45:57.000Z</time>
      </trkpt>
      <trkpt lat="45.08779" lon="5.13147">
        <ele>199.3</ele>
        <time>2022-05-07T12:45:58.000Z</time>
      </trkpt>
      <trkpt lat="45.0878" lon="5.13142">
        <ele>199.2</ele>
        <time>2022-05-07T12:45:59.000Z</time>
      </trkpt>
      <trkpt lat="45.08781" lon="5.13135">
        <ele>199.1</ele>
        <time>2022-05-07T12:46:00.000Z</time>
      </trkpt>
      <trkpt lat="45.08781" lon="5.13128">
        <ele>199.1</ele>
        <time>2022-05-07T12:46:01.000Z</time>
      </trkpt>
      <trkpt lat="45.08783" lon="5.1312">
        <ele>199.2</ele>
        <time>2022-05-07T12:46:02.000Z</time>
      </trkpt>
      <trkpt lat="45.08784" lon="5.13112">
        <ele>199.2</ele>
        <time>2022-05-07T12:46:03.000Z</time>
      </trkpt>
      <trkpt lat="45.08787" lon="5.13105">
        <ele>199.2</ele>
        <time>2022-05-07T12:46:04.000Z</time>
      </trkpt>
      <trkpt lat="45.08789" lon="5.13098">
        <ele>199.2</ele>
        <time>2022-05-07T12:46:05.000Z</time>
      </trkpt>
      <trkpt lat="45.08791" lon="5.13092">
        <ele>199.1</ele>
        <time>2022-05-07T12:46:06.000Z</time>
      </trkpt>
      <trkpt lat="45.08793" lon="5.13083">
        <ele>199</ele>
        <time>2022-05-07T12:46:07.000Z</time>
      </trkpt>
      <trkpt lat="45.08791" lon="5.1307">
        <ele>198.7</ele>
        <time>2022-05-07T12:46:08.000Z</time>
      </trkpt>
      <trkpt lat="45.08791" lon="5.13061">
        <ele>198.6</ele>
        <time>2022-05-07T12:46:09.000Z</time>
      </trkpt>
      <trkpt lat="45.08792" lon="5.13054">
        <ele>198.5</ele>
        <time>2022-05-07T12:46:10.000Z</time>
      </trkpt>
      <trkpt lat="45.08793" lon="5.13047">
        <ele>198.7</ele>
        <time>2022-05-07T12:46:11.000Z</time>
      </trkpt>
      <trkpt lat="45.08793" lon="5.1304">
        <ele>198.8</ele>
        <time>2022-05-07T12:46:12.000Z</time>
      </trkpt>
      <trkpt lat="45.08793" lon="5.13032">
        <ele>198.9</ele>
        <time>2022-05-07T12:46:13.000Z</time>
      </trkpt>
      <trkpt lat="45.08795" lon="5.13026">
        <ele>199</ele>
        <time>2022-05-07T12:46:14.000Z</time>
      </trkpt>
      <trkpt lat="45.08796" lon="5.1302">
        <ele>199.2</ele>
        <time>2022-05-07T12:46:15.000Z</time>
      </trkpt>
      <trkpt lat="45.08797" lon="5.13015">
        <ele>199.3</ele>
        <time>2022-05-07T12:46:16.000Z</time>
      </trkpt>
      <trkpt lat="45.08796" lon="5.1301">
        <ele>199.4</ele>
        <time>2022-05-07T12:46:17.000Z</time>
      </trkpt>
      <trkpt lat="45.08795" lon="5.13003">
        <ele>199.6</ele>
        <time>2022-05-07T12:46:18.000Z</time>
      </trkpt>
      <trkpt lat="45.08796" lon="5.12997">
        <ele>199.7</ele>
        <time>2022-05-07T12:46:19.000Z</time>
      </trkpt>
      <trkpt lat="45.08796" lon="5.12992">
        <ele>199.8</ele>
        <time>2022-05-07T12:46:20.000Z</time>
      </trkpt>
      <trkpt lat="45.08799" lon="5.1299">
        <ele>200</ele>
        <time>2022-05-07T12:46:21.000Z</time>
      </trkpt>
      <trkpt lat="45.088" lon="5.12989">
        <ele>200.1</ele>
        <time>2022-05-07T12:46:22.000Z</time>
      </trkpt>
      <trkpt lat="45.08802" lon="5.12987">
        <ele>200.3</ele>
        <time>2022-05-07T12:46:23.000Z</time>
      </trkpt>
      <trkpt lat="45.08801" lon="5.12981">
        <ele>200.4</ele>
        <time>2022-05-07T12:46:24.000Z</time>
      </trkpt>
      <trkpt lat="45.08801" lon="5.12974">
        <ele>200.6</ele>
        <time>2022-05-07T12:46:25.000Z</time>
      </trkpt>
      <trkpt lat="45.08801" lon="5.12968">
        <ele>200.5</ele>
        <time>2022-05-07T12:46:26.000Z</time>
      </trkpt>
      <trkpt lat="45.08801" lon="5.12961">
        <ele>200.3</ele>
        <time>2022-05-07T12:46:27.000Z</time>
      </trkpt>
      <trkpt lat="45.08801" lon="5.12956">
        <ele>200.2</ele>
        <time>2022-05-07T12:46:28.000Z</time>
      </trkpt>
      <trkpt lat="45.08801" lon="5.12951">
        <ele>200</ele>
        <time>2022-05-07T12:46:29.000Z</time>
      </trkpt>
      <trkpt lat="45.08801" lon="5.12946">
        <ele>199.9</ele>
        <time>2022-05-07T12:46:30.000Z</time>
      </trkpt>
      <trkpt lat="45.08802" lon="5.1294">
        <ele>200</ele>
        <time>2022-05-07T12:46:31.000Z</time>
      </trkpt>
      <trkpt lat="45.08803" lon="5.12936">
        <ele>200.2</ele>
        <time>2022-05-07T12:46:32.000Z</time>
      </trkpt>
      <trkpt lat="45.08804" lon="5.12931">
        <ele>200.4</ele>
        <time>2022-05-07T12:46:33.000Z</time>
      </trkpt>
      <trkpt lat="45.08806" lon="5.12926">
        <ele>200.7</ele>
        <time>2022-05-07T12:46:34.000Z</time>
      </trkpt>
      <trkpt lat="45.08807" lon="5.12921">
        <ele>201</ele>
        <time>2022-05-07T12:46:35.000Z</time>
      </trkpt>
      <trkpt lat="45.08807" lon="5.12916">
        <ele>201.2</ele>
        <time>2022-05-07T12:46:36.000Z</time>
      </trkpt>
      <trkpt lat="45.08808" lon="5.12911">
        <ele>201.3</ele>
        <time>2022-05-07T12:46:37.000Z</time>
      </trkpt>
      <trkpt lat="45.08809" lon="5.12906">
        <ele>201.4</ele>
        <time>2022-05-07T12:46:38.000Z</time>
      </trkpt>
      <trkpt lat="45.08809" lon="5.12899">
        <ele>201.5</ele>
        <time>2022-05-07T12:46:39.000Z</time>
      </trkpt>
      <trkpt lat="45.08811" lon="5.12893">
        <ele>201.7</ele>
        <time>2022-05-07T12:46:40.000Z</time>
      </trkpt>
      <trkpt lat="45.08812" lon="5.12887">
        <ele>201.9</ele>
        <time>2022-05-07T12:46:41.000Z</time>
      </trkpt>
      <trkpt lat="45.08813" lon="5.12882">
        <ele>202</ele>
        <time>2022-05-07T12:46:42.000Z</time>
      </trkpt>
      <trkpt lat="45.08814" lon="5.12876">
        <ele>202.2</ele>
        <time>2022-05-07T12:46:43.000Z</time>
      </trkpt>
      <trkpt lat="45.08815" lon="5.1287">
        <ele>202.3</ele>
        <time>2022-05-07T12:46:44.000Z</time>
      </trkpt>
      <trkpt lat="45.08816" lon="5.12864">
        <ele>202.5</ele>
        <time>2022-05-07T12:46:45.000Z</time>
      </trkpt>
      <trkpt lat="45.08817" lon="5.12859">
        <ele>202.6</ele>
        <time>2022-05-07T12:46:46.000Z</time>
      </trkpt>
      <trkpt lat="45.08818" lon="5.12854">
        <ele>202.6</ele>
        <time>2022-05-07T12:46:47.000Z</time>
      </trkpt>
      <trkpt lat="45.08818" lon="5.12849">
        <ele>202.6</ele>
        <time>2022-05-07T12:46:48.000Z</time>
      </trkpt>
      <trkpt lat="45.08819" lon="5.12843">
        <ele>202.6</ele>
        <time>2022-05-07T12:46:49.000Z</time>
      </trkpt>
      <trkpt lat="45.0882" lon="5.12837">
        <ele>202.6</ele>
        <time>2022-05-07T12:46:50.000Z</time>
      </trkpt>
      <trkpt lat="45.08821" lon="5.1283">
        <ele>202.8</ele>
        <time>2022-05-07T12:46:51.000Z</time>
      </trkpt>
      <trkpt lat="45.08823" lon="5.12825">
        <ele>203.1</ele>
        <time>2022-05-07T12:46:52.000Z</time>
      </trkpt>
      <trkpt lat="45.08825" lon="5.12819">
        <ele>203.4</ele>
        <time>2022-05-07T12:46:53.000Z</time>
      </trkpt>
      <trkpt lat="45.08826" lon="5.12814">
        <ele>203.7</ele>
        <time>2022-05-07T12:46:54.000Z</time>
      </trkpt>
      <trkpt lat="45.08827" lon="5.12808">
        <ele>204</ele>
        <time>2022-05-07T12:46:55.000Z</time>
      </trkpt>
      <trkpt lat="45.08828" lon="5.12802">
        <ele>204.1</ele>
        <time>2022-05-07T12:46:56.000Z</time>
      </trkpt>
      <trkpt lat="45.08829" lon="5.12796">
        <ele>204.1</ele>
        <time>2022-05-07T12:46:57.000Z</time>
      </trkpt>
      <trkpt lat="45.0883" lon="5.1279">
        <ele>204.1</ele>
        <time>2022-05-07T12:46:58.000Z</time>
      </trkpt>
      <trkpt lat="45.08832" lon="5.12785">
        <ele>204.1</ele>
        <time>2022-05-07T12:46:59.000Z</time>
      </trkpt>
      <trkpt lat="45.08833" lon="5.1278">
        <ele>204</ele>
        <time>2022-05-07T12:47:00.000Z</time>
      </trkpt>
      <trkpt lat="45.08834" lon="5.12774">
        <ele>203.9</ele>
        <time>2022-05-07T12:47:01.000Z</time>
      </trkpt>
      <trkpt lat="45.08836" lon="5.12768">
        <ele>203.8</ele>
        <time>2022-05-07T12:47:02.000Z</time>
      </trkpt>
      <trkpt lat="45.08838" lon="5.12762">
        <ele>203.8</ele>
        <time>2022-05-07T12:47:03.000Z</time>
      </trkpt>
      <trkpt lat="45.0884" lon="5.12756">
        <ele>203.9</ele>
        <time>2022-05-07T12:47:04.000Z</time>
      </trkpt>
      <trkpt lat="45.08842" lon="5.12752">
        <ele>204</ele>
        <time>2022-05-07T12:47:05.000Z</time>
      </trkpt>
      <trkpt lat="45.08844" lon="5.12747">
        <ele>204.2</ele>
        <time>2022-05-07T12:47:06.000Z</time>
      </trkpt>
      <trkpt lat="45.08846" lon="5.12741">
        <ele>204.3</ele>
        <time>2022-05-07T12:47:07.000Z</time>
      </trkpt>
      <trkpt lat="45.08847" lon="5.12736">
        <ele>204.5</ele>
        <time>2022-05-07T12:47:08.000Z</time>
      </trkpt>
      <trkpt lat="45.08848" lon="5.12731">
        <ele>204.6</ele>
        <time>2022-05-07T12:47:09.000Z</time>
      </trkpt>
      <trkpt lat="45.08849" lon="5.12726">
        <ele>204.7</ele>
        <time>2022-05-07T12:47:10.000Z</time>
      </trkpt>
      <trkpt lat="45.0885" lon="5.12721">
        <ele>204.8</ele>
        <time>2022-05-07T12:47:11.000Z</time>
      </trkpt>
      <trkpt lat="45.08852" lon="5.12717">
        <ele>204.8</ele>
        <time>2022-05-07T12:47:12.000Z</time>
      </trkpt>
      <trkpt lat="45.08853" lon="5.12713">
        <ele>204.8</ele>
        <time>2022-05-07T12:47:13.000Z</time>
      </trkpt>
      <trkpt lat="45.08854" lon="5.12709">
        <ele>204.7</ele>
        <time>2022-05-07T12:47:14.000Z</time>
      </trkpt>
      <trkpt lat="45.08855" lon="5.12704">
        <ele>204.7</ele>
        <time>2022-05-07T12:47:15.000Z</time>
      </trkpt>
      <trkpt lat="45.08857" lon="5.127">
        <ele>204.7</ele>
        <time>2022-05-07T12:47:16.000Z</time>
      </trkpt>
      <trkpt lat="45.08858" lon="5.12695">
        <ele>204.7</ele>
        <time>2022-05-07T12:47:17.000Z</time>
      </trkpt>
      <trkpt lat="45.08859" lon="5.12691">
        <ele>204.6</ele>
        <time>2022-05-07T12:47:18.000Z</time>
      </trkpt>
      <trkpt lat="45.0886" lon="5.12686">
        <ele>204.6</ele>
        <time>2022-05-07T12:47:19.000Z</time>
      </trkpt>
      <trkpt lat="45.08862" lon="5.12682">
        <ele>204.6</ele>
        <time>2022-05-07T12:47:20.000Z</time>
      </trkpt>
      <trkpt lat="45.08863" lon="5.12676">
        <ele>204.4</ele>
        <time>2022-05-07T12:47:21.000Z</time>
      </trkpt>
      <trkpt lat="45.08864" lon="5.12671">
        <ele>204.3</ele>
        <time>2022-05-07T12:47:22.000Z</time>
      </trkpt>
      <trkpt lat="45.08865" lon="5.12665">
        <ele>204.2</ele>
        <time>2022-05-07T12:47:23.000Z</time>
      </trkpt>
      <trkpt lat="45.08866" lon="5.12661">
        <ele>204.2</ele>
        <time>2022-05-07T12:47:24.000Z</time>
      </trkpt>
      <trkpt lat="45.08867" lon="5.12655">
        <ele>204.1</ele>
        <time>2022-05-07T12:47:25.000Z</time>
      </trkpt>
      <trkpt lat="45.08868" lon="5.1265">
        <ele>204.1</ele>
        <time>2022-05-07T12:47:26.000Z</time>
      </trkpt>
      <trkpt lat="45.0887" lon="5.12645">
        <ele>204.1</ele>
        <time>2022-05-07T12:47:27.000Z</time>
      </trkpt>
      <trkpt lat="45.08871" lon="5.12641">
        <ele>204.1</ele>
        <time>2022-05-07T12:47:28.000Z</time>
      </trkpt>
      <trkpt lat="45.08873" lon="5.12637">
        <ele>204.2</ele>
        <time>2022-05-07T12:47:29.000Z</time>
      </trkpt>
      <trkpt lat="45.08874" lon="5.12631">
        <ele>204.1</ele>
        <time>2022-05-07T12:47:30.000Z</time>
      </trkpt>
      <trkpt lat="45.08876" lon="5.12626">
        <ele>204.2</ele>
        <time>2022-05-07T12:47:31.000Z</time>
      </trkpt>
      <trkpt lat="45.08879" lon="5.12623">
        <ele>204.4</ele>
        <time>2022-05-07T12:47:32.000Z</time>
      </trkpt>
      <trkpt lat="45.08882" lon="5.12618">
        <ele>204.5</ele>
        <time>2022-05-07T12:47:33.000Z</time>
      </trkpt>
      <trkpt lat="45.08884" lon="5.12613">
        <ele>204.6</ele>
        <time>2022-05-07T12:47:34.000Z</time>
      </trkpt>
      <trkpt lat="45.08886" lon="5.12608">
        <ele>204.7</ele>
        <time>2022-05-07T12:47:35.000Z</time>
      </trkpt>
      <trkpt lat="45.08888" lon="5.12602">
        <ele>204.9</ele>
        <time>2022-05-07T12:47:36.000Z</time>
      </trkpt>
      <trkpt lat="45.0889" lon="5.12597">
        <ele>205</ele>
        <time>2022-05-07T12:47:37.000Z</time>
      </trkpt>
      <trkpt lat="45.08891" lon="5.12591">
        <ele>205</ele>
        <time>2022-05-07T12:47:38.000Z</time>
      </trkpt>
      <trkpt lat="45.08893" lon="5.12586">
        <ele>205</ele>
        <time>2022-05-07T12:47:39.000Z</time>
      </trkpt>
      <trkpt lat="45.08895" lon="5.1258">
        <ele>204.8</ele>
        <time>2022-05-07T12:47:40.000Z</time>
      </trkpt>
      <trkpt lat="45.08896" lon="5.12575">
        <ele>204.5</ele>
        <time>2022-05-07T12:47:41.000Z</time>
      </trkpt>
      <trkpt lat="45.08898" lon="5.12569">
        <ele>204.3</ele>
        <time>2022-05-07T12:47:42.000Z</time>
      </trkpt>
      <trkpt lat="45.089" lon="5.12563">
        <ele>204.1</ele>
        <time>2022-05-07T12:47:43.000Z</time>
      </trkpt>
      <trkpt lat="45.08902" lon="5.12557">
        <ele>204</ele>
        <time>2022-05-07T12:47:44.000Z</time>
      </trkpt>
      <trkpt lat="45.08903" lon="5.12551">
        <ele>204</ele>
        <time>2022-05-07T12:47:45.000Z</time>
      </trkpt>
      <trkpt lat="45.08905" lon="5.12546">
        <ele>204.2</ele>
        <time>2022-05-07T12:47:46.000Z</time>
      </trkpt>
      <trkpt lat="45.08907" lon="5.12541">
        <ele>204.3</ele>
        <time>2022-05-07T12:47:47.000Z</time>
      </trkpt>
      <trkpt lat="45.08909" lon="5.12535">
        <ele>204.4</ele>
        <time>2022-05-07T12:47:48.000Z</time>
      </trkpt>
      <trkpt lat="45.0891" lon="5.12529">
        <ele>204.5</ele>
        <time>2022-05-07T12:47:49.000Z</time>
      </trkpt>
      <trkpt lat="45.08911" lon="5.12523">
        <ele>204.5</ele>
        <time>2022-05-07T12:47:50.000Z</time>
      </trkpt>
      <trkpt lat="45.08912" lon="5.12517">
        <ele>204.3</ele>
        <time>2022-05-07T12:47:51.000Z</time>
      </trkpt>
      <trkpt lat="45.08913" lon="5.12511">
        <ele>204.1</ele>
        <time>2022-05-07T12:47:52.000Z</time>
      </trkpt>
      <trkpt lat="45.08914" lon="5.12504">
        <ele>204</ele>
        <time>2022-05-07T12:47:53.000Z</time>
      </trkpt>
      <trkpt lat="45.08916" lon="5.12498">
        <ele>203.9</ele>
        <time>2022-05-07T12:47:54.000Z</time>
      </trkpt>
      <trkpt lat="45.08917" lon="5.12491">
        <ele>204</ele>
        <time>2022-05-07T12:47:55.000Z</time>
      </trkpt>
      <trkpt lat="45.08918" lon="5.12485">
        <ele>204</ele>
        <time>2022-05-07T12:47:56.000Z</time>
      </trkpt>
      <trkpt lat="45.08919" lon="5.12478">
        <ele>204</ele>
        <time>2022-05-07T12:47:57.000Z</time>
      </trkpt>
      <trkpt lat="45.08919" lon="5.12472">
        <ele>204</ele>
        <time>2022-05-07T12:47:58.000Z</time>
      </trkpt>
      <trkpt lat="45.0892" lon="5.12465">
        <ele>204</ele>
        <time>2022-05-07T12:47:59.000Z</time>
      </trkpt>
      <trkpt lat="45.08921" lon="5.12459">
        <ele>203.9</ele>
        <time>2022-05-07T12:48:00.000Z</time>
      </trkpt>
      <trkpt lat="45.0892" lon="5.12453">
        <ele>203.9</ele>
        <time>2022-05-07T12:48:01.000Z</time>
      </trkpt>
      <trkpt lat="45.08921" lon="5.12446">
        <ele>203.9</ele>
        <time>2022-05-07T12:48:02.000Z</time>
      </trkpt>
      <trkpt lat="45.08921" lon="5.12438">
        <ele>203.6</ele>
        <time>2022-05-07T12:48:03.000Z</time>
      </trkpt>
      <trkpt lat="45.08921" lon="5.12429">
        <ele>203.3</ele>
        <time>2022-05-07T12:48:04.000Z</time>
      </trkpt>
      <trkpt lat="45.0892" lon="5.1242">
        <ele>203</ele>
        <time>2022-05-07T12:48:05.000Z</time>
      </trkpt>
      <trkpt lat="45.08919" lon="5.12411">
        <ele>202.7</ele>
        <time>2022-05-07T12:48:06.000Z</time>
      </trkpt>
      <trkpt lat="45.08919" lon="5.12401">
        <ele>202.4</ele>
        <time>2022-05-07T12:48:07.000Z</time>
      </trkpt>
      <trkpt lat="45.08918" lon="5.12392">
        <ele>202.1</ele>
        <time>2022-05-07T12:48:08.000Z</time>
      </trkpt>
      <trkpt lat="45.08917" lon="5.12382">
        <ele>201.7</ele>
        <time>2022-05-07T12:48:09.000Z</time>
      </trkpt>
      <trkpt lat="45.08917" lon="5.12372">
        <ele>201.4</ele>
        <time>2022-05-07T12:48:10.000Z</time>
      </trkpt>
      <trkpt lat="45.08917" lon="5.12363">
        <ele>201</ele>
        <time>2022-05-07T12:48:11.000Z</time>
      </trkpt>
      <trkpt lat="45.08916" lon="5.12353">
        <ele>200.7</ele>
        <time>2022-05-07T12:48:12.000Z</time>
      </trkpt>
      <trkpt lat="45.08916" lon="5.12343">
        <ele>200.3</ele>
        <time>2022-05-07T12:48:13.000Z</time>
      </trkpt>
      <trkpt lat="45.08916" lon="5.12333">
        <ele>200</ele>
        <time>2022-05-07T12:48:14.000Z</time>
      </trkpt>
      <trkpt lat="45.08916" lon="5.12322">
        <ele>200</ele>
        <time>2022-05-07T12:48:15.000Z</time>
      </trkpt>
      <trkpt lat="45.08916" lon="5.12311">
        <ele>200</ele>
        <time>2022-05-07T12:48:16.000Z</time>
      </trkpt>
      <trkpt lat="45.08916" lon="5.12301">
        <ele>200</ele>
        <time>2022-05-07T12:48:17.000Z</time>
      </trkpt>
      <trkpt lat="45.08916" lon="5.1229">
        <ele>200</ele>
        <time>2022-05-07T12:48:18.000Z</time>
      </trkpt>
      <trkpt lat="45.08916" lon="5.12279">
        <ele>200</ele>
        <time>2022-05-07T12:48:19.000Z</time>
      </trkpt>
      <trkpt lat="45.08916" lon="5.12269">
        <ele>200</ele>
        <time>2022-05-07T12:48:20.000Z</time>
      </trkpt>
      <trkpt lat="45.08916" lon="5.12258">
        <ele>200</ele>
        <time>2022-05-07T12:48:21.000Z</time>
      </trkpt>
      <trkpt lat="45.08916" lon="5.12247">
        <ele>199.9</ele>
        <time>2022-05-07T12:48:22.000Z</time>
      </trkpt>
      <trkpt lat="45.08916" lon="5.12237">
        <ele>199.5</ele>
        <time>2022-05-07T12:48:23.000Z</time>
      </trkpt>
      <trkpt lat="45.08915" lon="5.12226">
        <ele>199</ele>
        <time>2022-05-07T12:48:24.000Z</time>
      </trkpt>
      <trkpt lat="45.08914" lon="5.12216">
        <ele>198.8</ele>
        <time>2022-05-07T12:48:25.000Z</time>
      </trkpt>
      <trkpt lat="45.08914" lon="5.12205">
        <ele>198.8</ele>
        <time>2022-05-07T12:48:26.000Z</time>
      </trkpt>
      <trkpt lat="45.08913" lon="5.12195">
        <ele>198.7</ele>
        <time>2022-05-07T12:48:27.000Z</time>
      </trkpt>
      <trkpt lat="45.08912" lon="5.12184">
        <ele>198.4</ele>
        <time>2022-05-07T12:48:28.000Z</time>
      </trkpt>
      <trkpt lat="45.08911" lon="5.12173">
        <ele>198</ele>
        <time>2022-05-07T12:48:29.000Z</time>
      </trkpt>
      <trkpt lat="45.0891" lon="5.12163">
        <ele>197.7</ele>
        <time>2022-05-07T12:48:30.000Z</time>
      </trkpt>
      <trkpt lat="45.08909" lon="5.12152">
        <ele>197.3</ele>
        <time>2022-05-07T12:48:31.000Z</time>
      </trkpt>
      <trkpt lat="45.08908" lon="5.12141">
        <ele>197.1</ele>
        <time>2022-05-07T12:48:32.000Z</time>
      </trkpt>
      <trkpt lat="45.08907" lon="5.1213">
        <ele>197</ele>
        <time>2022-05-07T12:48:33.000Z</time>
      </trkpt>
      <trkpt lat="45.08906" lon="5.12119">
        <ele>197</ele>
        <time>2022-05-07T12:48:34.000Z</time>
      </trkpt>
      <trkpt lat="45.08904" lon="5.12109">
        <ele>197</ele>
        <time>2022-05-07T12:48:35.000Z</time>
      </trkpt>
      <trkpt lat="45.08903" lon="5.12098">
        <ele>197</ele>
        <time>2022-05-07T12:48:36.000Z</time>
      </trkpt>
      <trkpt lat="45.08902" lon="5.12087">
        <ele>197</ele>
        <time>2022-05-07T12:48:37.000Z</time>
      </trkpt>
      <trkpt lat="45.08901" lon="5.12077">
        <ele>197</ele>
        <time>2022-05-07T12:48:38.000Z</time>
      </trkpt>
      <trkpt lat="45.089" lon="5.12066">
        <ele>197</ele>
        <time>2022-05-07T12:48:39.000Z</time>
      </trkpt>
      <trkpt lat="45.08899" lon="5.12055">
        <ele>197</ele>
        <time>2022-05-07T12:48:40.000Z</time>
      </trkpt>
      <trkpt lat="45.08899" lon="5.12044">
        <ele>196.9</ele>
        <time>2022-05-07T12:48:41.000Z</time>
      </trkpt>
      <trkpt lat="45.08898" lon="5.12033">
        <ele>196.7</ele>
        <time>2022-05-07T12:48:42.000Z</time>
      </trkpt>
      <trkpt lat="45.08897" lon="5.12022">
        <ele>196.7</ele>
        <time>2022-05-07T12:48:43.000Z</time>
      </trkpt>
      <trkpt lat="45.08897" lon="5.12011">
        <ele>196.7</ele>
        <time>2022-05-07T12:48:44.000Z</time>
      </trkpt>
      <trkpt lat="45.08896" lon="5.12">
        <ele>196.8</ele>
        <time>2022-05-07T12:48:45.000Z</time>
      </trkpt>
      <trkpt lat="45.08895" lon="5.11988">
        <ele>197.1</ele>
        <time>2022-05-07T12:48:46.000Z</time>
      </trkpt>
      <trkpt lat="45.08894" lon="5.11977">
        <ele>197.5</ele>
        <time>2022-05-07T12:48:47.000Z</time>
      </trkpt>
      <trkpt lat="45.08893" lon="5.11966">
        <ele>197.5</ele>
        <time>2022-05-07T12:48:48.000Z</time>
      </trkpt>
      <trkpt lat="45.08893" lon="5.11955">
        <ele>197.2</ele>
        <time>2022-05-07T12:48:49.000Z</time>
      </trkpt>
      <trkpt lat="45.08892" lon="5.11944">
        <ele>196.9</ele>
        <time>2022-05-07T12:48:50.000Z</time>
      </trkpt>
      <trkpt lat="45.08891" lon="5.11932">
        <ele>196.9</ele>
        <time>2022-05-07T12:48:51.000Z</time>
      </trkpt>
      <trkpt lat="45.0889" lon="5.11921">
        <ele>197</ele>
        <time>2022-05-07T12:48:52.000Z</time>
      </trkpt>
      <trkpt lat="45.0889" lon="5.1191">
        <ele>196.7</ele>
        <time>2022-05-07T12:48:53.000Z</time>
      </trkpt>
      <trkpt lat="45.08889" lon="5.11898">
        <ele>196.3</ele>
        <time>2022-05-07T12:48:54.000Z</time>
      </trkpt>
      <trkpt lat="45.08888" lon="5.11887">
        <ele>196</ele>
        <time>2022-05-07T12:48:55.000Z</time>
      </trkpt>
      <trkpt lat="45.08887" lon="5.11876">
        <ele>195.9</ele>
        <time>2022-05-07T12:48:56.000Z</time>
      </trkpt>
      <trkpt lat="45.08886" lon="5.11865">
        <ele>195.9</ele>
        <time>2022-05-07T12:48:57.000Z</time>
      </trkpt>
      <trkpt lat="45.08886" lon="5.11854">
        <ele>195.9</ele>
        <time>2022-05-07T12:48:58.000Z</time>
      </trkpt>
      <trkpt lat="45.08885" lon="5.11843">
        <ele>195.8</ele>
        <time>2022-05-07T12:48:59.000Z</time>
      </trkpt>
      <trkpt lat="45.08884" lon="5.11832">
        <ele>195.8</ele>
        <time>2022-05-07T12:49:00.000Z</time>
      </trkpt>
      <trkpt lat="45.08883" lon="5.11822">
        <ele>195.5</ele>
        <time>2022-05-07T12:49:01.000Z</time>
      </trkpt>
      <trkpt lat="45.08883" lon="5.11811">
        <ele>195.1</ele>
        <time>2022-05-07T12:49:02.000Z</time>
      </trkpt>
      <trkpt lat="45.08882" lon="5.118">
        <ele>195</ele>
        <time>2022-05-07T12:49:03.000Z</time>
      </trkpt>
      <trkpt lat="45.08881" lon="5.11789">
        <ele>195</ele>
        <time>2022-05-07T12:49:04.000Z</time>
      </trkpt>
      <trkpt lat="45.0888" lon="5.11779">
        <ele>195</ele>
        <time>2022-05-07T12:49:05.000Z</time>
      </trkpt>
      <trkpt lat="45.08879" lon="5.11768">
        <ele>195</ele>
        <time>2022-05-07T12:49:06.000Z</time>
      </trkpt>
      <trkpt lat="45.08879" lon="5.11757">
        <ele>195</ele>
        <time>2022-05-07T12:49:07.000Z</time>
      </trkpt>
      <trkpt lat="45.08878" lon="5.11747">
        <ele>195</ele>
        <time>2022-05-07T12:49:08.000Z</time>
      </trkpt>
      <trkpt lat="45.08877" lon="5.11737">
        <ele>195</ele>
        <time>2022-05-07T12:49:09.000Z</time>
      </trkpt>
      <trkpt lat="45.08877" lon="5.11727">
        <ele>195</ele>
        <time>2022-05-07T12:49:10.000Z</time>
      </trkpt>
      <trkpt lat="45.08876" lon="5.11717">
        <ele>195.1</ele>
        <time>2022-05-07T12:49:11.000Z</time>
      </trkpt>
      <trkpt lat="45.08875" lon="5.11707">
        <ele>195.3</ele>
        <time>2022-05-07T12:49:12.000Z</time>
      </trkpt>
      <trkpt lat="45.08874" lon="5.11697">
        <ele>195.4</ele>
        <time>2022-05-07T12:49:13.000Z</time>
      </trkpt>
      <trkpt lat="45.08874" lon="5.11688">
        <ele>195.3</ele>
        <time>2022-05-07T12:49:14.000Z</time>
      </trkpt>
      <trkpt lat="45.08873" lon="5.11678">
        <ele>195.2</ele>
        <time>2022-05-07T12:49:15.000Z</time>
      </trkpt>
      <trkpt lat="45.08872" lon="5.11668">
        <ele>195</ele>
        <time>2022-05-07T12:49:16.000Z</time>
      </trkpt>
      <trkpt lat="45.08872" lon="5.11659">
        <ele>195.1</ele>
        <time>2022-05-07T12:49:17.000Z</time>
      </trkpt>
      <trkpt lat="45.08871" lon="5.1165">
        <ele>195.2</ele>
        <time>2022-05-07T12:49:18.000Z</time>
      </trkpt>
      <trkpt lat="45.0887" lon="5.11641">
        <ele>195.3</ele>
        <time>2022-05-07T12:49:19.000Z</time>
      </trkpt>
      <trkpt lat="45.0887" lon="5.11632">
        <ele>195.4</ele>
        <time>2022-05-07T12:49:20.000Z</time>
      </trkpt>
      <trkpt lat="45.08869" lon="5.11623">
        <ele>195.4</ele>
        <time>2022-05-07T12:49:21.000Z</time>
      </trkpt>
      <trkpt lat="45.08868" lon="5.11615">
        <ele>195.5</ele>
        <time>2022-05-07T12:49:22.000Z</time>
      </trkpt>
      <trkpt lat="45.08868" lon="5.11606">
        <ele>195.7</ele>
        <time>2022-05-07T12:49:23.000Z</time>
      </trkpt>
      <trkpt lat="45.08868" lon="5.11597">
        <ele>196.2</ele>
        <time>2022-05-07T12:49:24.000Z</time>
      </trkpt>
      <trkpt lat="45.08867" lon="5.11589">
        <ele>196.5</ele>
        <time>2022-05-07T12:49:25.000Z</time>
      </trkpt>
      <trkpt lat="45.08867" lon="5.1158">
        <ele>196.7</ele>
        <time>2022-05-07T12:49:26.000Z</time>
      </trkpt>
      <trkpt lat="45.08866" lon="5.11572">
        <ele>196.4</ele>
        <time>2022-05-07T12:49:27.000Z</time>
      </trkpt>
      <trkpt lat="45.08865" lon="5.11564">
        <ele>196.2</ele>
        <time>2022-05-07T12:49:28.000Z</time>
      </trkpt>
      <trkpt lat="45.08864" lon="5.11556">
        <ele>195.9</ele>
        <time>2022-05-07T12:49:29.000Z</time>
      </trkpt>
      <trkpt lat="45.08863" lon="5.11547">
        <ele>195.9</ele>
        <time>2022-05-07T12:49:30.000Z</time>
      </trkpt>
      <trkpt lat="45.08862" lon="5.11539">
        <ele>195.9</ele>
        <time>2022-05-07T12:49:31.000Z</time>
      </trkpt>
      <trkpt lat="45.08862" lon="5.11531">
        <ele>196</ele>
        <time>2022-05-07T12:49:32.000Z</time>
      </trkpt>
      <trkpt lat="45.08861" lon="5.11523">
        <ele>195.8</ele>
        <time>2022-05-07T12:49:33.000Z</time>
      </trkpt>
      <trkpt lat="45.0886" lon="5.11514">
        <ele>195.5</ele>
        <time>2022-05-07T12:49:34.000Z</time>
      </trkpt>
      <trkpt lat="45.0886" lon="5.11505">
        <ele>195.1</ele>
        <time>2022-05-07T12:49:35.000Z</time>
      </trkpt>
      <trkpt lat="45.08859" lon="5.11496">
        <ele>194.9</ele>
        <time>2022-05-07T12:49:36.000Z</time>
      </trkpt>
      <trkpt lat="45.08858" lon="5.11487">
        <ele>194.9</ele>
        <time>2022-05-07T12:49:37.000Z</time>
      </trkpt>
      <trkpt lat="45.08857" lon="5.11478">
        <ele>194.9</ele>
        <time>2022-05-07T12:49:38.000Z</time>
      </trkpt>
      <trkpt lat="45.08856" lon="5.11469">
        <ele>194.8</ele>
        <time>2022-05-07T12:49:39.000Z</time>
      </trkpt>
      <trkpt lat="45.08856" lon="5.1146">
        <ele>194.8</ele>
        <time>2022-05-07T12:49:40.000Z</time>
      </trkpt>
      <trkpt lat="45.08855" lon="5.11451">
        <ele>194.8</ele>
        <time>2022-05-07T12:49:41.000Z</time>
      </trkpt>
      <trkpt lat="45.08854" lon="5.11441">
        <ele>194.7</ele>
        <time>2022-05-07T12:49:42.000Z</time>
      </trkpt>
      <trkpt lat="45.08853" lon="5.11432">
        <ele>194.5</ele>
        <time>2022-05-07T12:49:43.000Z</time>
      </trkpt>
      <trkpt lat="45.08853" lon="5.11423">
        <ele>194.4</ele>
        <time>2022-05-07T12:49:44.000Z</time>
      </trkpt>
      <trkpt lat="45.08852" lon="5.11413">
        <ele>194.3</ele>
        <time>2022-05-07T12:49:45.000Z</time>
      </trkpt>
      <trkpt lat="45.08851" lon="5.11404">
        <ele>194.2</ele>
        <time>2022-05-07T12:49:46.000Z</time>
      </trkpt>
      <trkpt lat="45.0885" lon="5.11394">
        <ele>194.1</ele>
        <time>2022-05-07T12:49:47.000Z</time>
      </trkpt>
      <trkpt lat="45.08849" lon="5.11384">
        <ele>194</ele>
        <time>2022-05-07T12:49:48.000Z</time>
      </trkpt>
      <trkpt lat="45.08848" lon="5.11374">
        <ele>194</ele>
        <time>2022-05-07T12:49:49.000Z</time>
      </trkpt>
      <trkpt lat="45.08847" lon="5.11364">
        <ele>194</ele>
        <time>2022-05-07T12:49:50.000Z</time>
      </trkpt>
      <trkpt lat="45.08846" lon="5.11354">
        <ele>193.9</ele>
        <time>2022-05-07T12:49:51.000Z</time>
      </trkpt>
      <trkpt lat="45.08845" lon="5.11344">
        <ele>193.7</ele>
        <time>2022-05-07T12:49:52.000Z</time>
      </trkpt>
      <trkpt lat="45.08844" lon="5.11334">
        <ele>193.6</ele>
        <time>2022-05-07T12:49:53.000Z</time>
      </trkpt>
      <trkpt lat="45.08843" lon="5.11324">
        <ele>193.7</ele>
        <time>2022-05-07T12:49:54.000Z</time>
      </trkpt>
      <trkpt lat="45.08842" lon="5.11313">
        <ele>193.7</ele>
        <time>2022-05-07T12:49:55.000Z</time>
      </trkpt>
      <trkpt lat="45.08841" lon="5.11303">
        <ele>193.7</ele>
        <time>2022-05-07T12:49:56.000Z</time>
      </trkpt>
      <trkpt lat="45.0884" lon="5.11293">
        <ele>193.7</ele>
        <time>2022-05-07T12:49:57.000Z</time>
      </trkpt>
      <trkpt lat="45.08839" lon="5.11283">
        <ele>193.8</ele>
        <time>2022-05-07T12:49:58.000Z</time>
      </trkpt>
      <trkpt lat="45.08839" lon="5.11273">
        <ele>193.8</ele>
        <time>2022-05-07T12:49:59.000Z</time>
      </trkpt>
      <trkpt lat="45.08838" lon="5.11264">
        <ele>193.8</ele>
        <time>2022-05-07T12:50:00.000Z</time>
      </trkpt>
      <trkpt lat="45.08837" lon="5.11254">
        <ele>193.9</ele>
        <time>2022-05-07T12:50:01.000Z</time>
      </trkpt>
      <trkpt lat="45.08836" lon="5.11244">
        <ele>193.9</ele>
        <time>2022-05-07T12:50:02.000Z</time>
      </trkpt>
      <trkpt lat="45.08835" lon="5.11234">
        <ele>193.9</ele>
        <time>2022-05-07T12:50:03.000Z</time>
      </trkpt>
      <trkpt lat="45.08834" lon="5.11224">
        <ele>194</ele>
        <time>2022-05-07T12:50:04.000Z</time>
      </trkpt>
      <trkpt lat="45.08834" lon="5.11214">
        <ele>193.7</ele>
        <time>2022-05-07T12:50:05.000Z</time>
      </trkpt>
      <trkpt lat="45.08833" lon="5.11204">
        <ele>193.3</ele>
        <time>2022-05-07T12:50:06.000Z</time>
      </trkpt>
      <trkpt lat="45.08832" lon="5.11195">
        <ele>192.9</ele>
        <time>2022-05-07T12:50:07.000Z</time>
      </trkpt>
      <trkpt lat="45.08831" lon="5.11185">
        <ele>192.9</ele>
        <time>2022-05-07T12:50:08.000Z</time>
      </trkpt>
      <trkpt lat="45.0883" lon="5.11175">
        <ele>192.9</ele>
        <time>2022-05-07T12:50:09.000Z</time>
      </trkpt>
      <trkpt lat="45.08829" lon="5.11165">
        <ele>192.8</ele>
        <time>2022-05-07T12:50:10.000Z</time>
      </trkpt>
      <trkpt lat="45.08827" lon="5.11155">
        <ele>192.9</ele>
        <time>2022-05-07T12:50:11.000Z</time>
      </trkpt>
      <trkpt lat="45.08825" lon="5.11145">
        <ele>192.9</ele>
        <time>2022-05-07T12:50:12.000Z</time>
      </trkpt>
      <trkpt lat="45.08824" lon="5.11135">
        <ele>192.9</ele>
        <time>2022-05-07T12:50:13.000Z</time>
      </trkpt>
      <trkpt lat="45.08822" lon="5.11126">
        <ele>192.5</ele>
        <time>2022-05-07T12:50:14.000Z</time>
      </trkpt>
      <trkpt lat="45.0882" lon="5.11117">
        <ele>192.2</ele>
        <time>2022-05-07T12:50:15.000Z</time>
      </trkpt>
      <trkpt lat="45.08818" lon="5.11108">
        <ele>192</ele>
        <time>2022-05-07T12:50:16.000Z</time>
      </trkpt>
      <trkpt lat="45.08816" lon="5.11099">
        <ele>192</ele>
        <time>2022-05-07T12:50:17.000Z</time>
      </trkpt>
      <trkpt lat="45.08815" lon="5.1109">
        <ele>192</ele>
        <time>2022-05-07T12:50:18.000Z</time>
      </trkpt>
      <trkpt lat="45.08814" lon="5.11081">
        <ele>192</ele>
        <time>2022-05-07T12:50:19.000Z</time>
      </trkpt>
      <trkpt lat="45.08812" lon="5.11072">
        <ele>192</ele>
        <time>2022-05-07T12:50:20.000Z</time>
      </trkpt>
      <trkpt lat="45.08811" lon="5.11063">
        <ele>192</ele>
        <time>2022-05-07T12:50:21.000Z</time>
      </trkpt>
      <trkpt lat="45.08809" lon="5.11054">
        <ele>192</ele>
        <time>2022-05-07T12:50:22.000Z</time>
      </trkpt>
      <trkpt lat="45.08807" lon="5.11044">
        <ele>192</ele>
        <time>2022-05-07T12:50:23.000Z</time>
      </trkpt>
      <trkpt lat="45.08805" lon="5.11034">
        <ele>192</ele>
        <time>2022-05-07T12:50:24.000Z</time>
      </trkpt>
      <trkpt lat="45.08803" lon="5.11025">
        <ele>191.9</ele>
        <time>2022-05-07T12:50:25.000Z</time>
      </trkpt>
      <trkpt lat="45.08801" lon="5.11015">
        <ele>191.8</ele>
        <time>2022-05-07T12:50:26.000Z</time>
      </trkpt>
      <trkpt lat="45.08799" lon="5.11005">
        <ele>191.8</ele>
        <time>2022-05-07T12:50:27.000Z</time>
      </trkpt>
      <trkpt lat="45.08798" lon="5.10996">
        <ele>191.6</ele>
        <time>2022-05-07T12:50:28.000Z</time>
      </trkpt>
      <trkpt lat="45.08796" lon="5.10986">
        <ele>191.3</ele>
        <time>2022-05-07T12:50:29.000Z</time>
      </trkpt>
      <trkpt lat="45.08794" lon="5.10976">
        <ele>191.1</ele>
        <time>2022-05-07T12:50:30.000Z</time>
      </trkpt>
      <trkpt lat="45.08793" lon="5.10966">
        <ele>191</ele>
        <time>2022-05-07T12:50:31.000Z</time>
      </trkpt>
      <trkpt lat="45.08792" lon="5.10956">
        <ele>191</ele>
        <time>2022-05-07T12:50:32.000Z</time>
      </trkpt>
      <trkpt lat="45.08791" lon="5.10946">
        <ele>191</ele>
        <time>2022-05-07T12:50:33.000Z</time>
      </trkpt>
      <trkpt lat="45.0879" lon="5.10937">
        <ele>191</ele>
        <time>2022-05-07T12:50:34.000Z</time>
      </trkpt>
      <trkpt lat="45.08789" lon="5.10927">
        <ele>191</ele>
        <time>2022-05-07T12:50:35.000Z</time>
      </trkpt>
      <trkpt lat="45.08788" lon="5.10918">
        <ele>191</ele>
        <time>2022-05-07T12:50:36.000Z</time>
      </trkpt>
      <trkpt lat="45.08787" lon="5.10909">
        <ele>191</ele>
        <time>2022-05-07T12:50:37.000Z</time>
      </trkpt>
      <trkpt lat="45.08787" lon="5.109">
        <ele>191</ele>
        <time>2022-05-07T12:50:38.000Z</time>
      </trkpt>
      <trkpt lat="45.08786" lon="5.1089">
        <ele>191</ele>
        <time>2022-05-07T12:50:39.000Z</time>
      </trkpt>
      <trkpt lat="45.08786" lon="5.10881">
        <ele>191.1</ele>
        <time>2022-05-07T12:50:40.000Z</time>
      </trkpt>
      <trkpt lat="45.08785" lon="5.10872">
        <ele>191.2</ele>
        <time>2022-05-07T12:50:41.000Z</time>
      </trkpt>
      <trkpt lat="45.08785" lon="5.10864">
        <ele>191.2</ele>
        <time>2022-05-07T12:50:42.000Z</time>
      </trkpt>
      <trkpt lat="45.08785" lon="5.10855">
        <ele>191.2</ele>
        <time>2022-05-07T12:50:43.000Z</time>
      </trkpt>
      <trkpt lat="45.08785" lon="5.10846">
        <ele>191.2</ele>
        <time>2022-05-07T12:50:44.000Z</time>
      </trkpt>
      <trkpt lat="45.08784" lon="5.10837">
        <ele>191.2</ele>
        <time>2022-05-07T12:50:45.000Z</time>
      </trkpt>
      <trkpt lat="45.08784" lon="5.10828">
        <ele>191.4</ele>
        <time>2022-05-07T12:50:46.000Z</time>
      </trkpt>
      <trkpt lat="45.08784" lon="5.10819">
        <ele>191.6</ele>
        <time>2022-05-07T12:50:47.000Z</time>
      </trkpt>
      <trkpt lat="45.08784" lon="5.1081">
        <ele>191.9</ele>
        <time>2022-05-07T12:50:48.000Z</time>
      </trkpt>
      <trkpt lat="45.08784" lon="5.10802">
        <ele>192</ele>
        <time>2022-05-07T12:50:49.000Z</time>
      </trkpt>
      <trkpt lat="45.08784" lon="5.10793">
        <ele>192</ele>
        <time>2022-05-07T12:50:50.000Z</time>
      </trkpt>
      <trkpt lat="45.08784" lon="5.10784">
        <ele>192</ele>
        <time>2022-05-07T12:50:51.000Z</time>
      </trkpt>
      <trkpt lat="45.08783" lon="5.10776">
        <ele>192</ele>
        <time>2022-05-07T12:50:52.000Z</time>
      </trkpt>
      <trkpt lat="45.08783" lon="5.10767">
        <ele>192</ele>
        <time>2022-05-07T12:50:53.000Z</time>
      </trkpt>
      <trkpt lat="45.08783" lon="5.10758">
        <ele>192</ele>
        <time>2022-05-07T12:50:54.000Z</time>
      </trkpt>
      <trkpt lat="45.08782" lon="5.10749">
        <ele>192</ele>
        <time>2022-05-07T12:50:55.000Z</time>
      </trkpt>
      <trkpt lat="45.08781" lon="5.1074">
        <ele>192</ele>
        <time>2022-05-07T12:50:56.000Z</time>
      </trkpt>
      <trkpt lat="45.08781" lon="5.10731">
        <ele>192</ele>
        <time>2022-05-07T12:50:57.000Z</time>
      </trkpt>
      <trkpt lat="45.0878" lon="5.10721">
        <ele>192</ele>
        <time>2022-05-07T12:50:58.000Z</time>
      </trkpt>
      <trkpt lat="45.08779" lon="5.10712">
        <ele>192</ele>
        <time>2022-05-07T12:50:59.000Z</time>
      </trkpt>
      <trkpt lat="45.08778" lon="5.10703">
        <ele>192</ele>
        <time>2022-05-07T12:51:00.000Z</time>
      </trkpt>
      <trkpt lat="45.08777" lon="5.10694">
        <ele>192</ele>
        <time>2022-05-07T12:51:01.000Z</time>
      </trkpt>
      <trkpt lat="45.08776" lon="5.10685">
        <ele>191.9</ele>
        <time>2022-05-07T12:51:02.000Z</time>
      </trkpt>
      <trkpt lat="45.08774" lon="5.10677">
        <ele>191.9</ele>
        <time>2022-05-07T12:51:03.000Z</time>
      </trkpt>
      <trkpt lat="45.08773" lon="5.10668">
        <ele>191.8</ele>
        <time>2022-05-07T12:51:04.000Z</time>
      </trkpt>
      <trkpt lat="45.08771" lon="5.10659">
        <ele>191.8</ele>
        <time>2022-05-07T12:51:05.000Z</time>
      </trkpt>
      <trkpt lat="45.08769" lon="5.10651">
        <ele>191.7</ele>
        <time>2022-05-07T12:51:06.000Z</time>
      </trkpt>
      <trkpt lat="45.08767" lon="5.10642">
        <ele>191.6</ele>
        <time>2022-05-07T12:51:07.000Z</time>
      </trkpt>
      <trkpt lat="45.08765" lon="5.10633">
        <ele>191.4</ele>
        <time>2022-05-07T12:51:08.000Z</time>
      </trkpt>
      <trkpt lat="45.08763" lon="5.10625">
        <ele>191.2</ele>
        <time>2022-05-07T12:51:09.000Z</time>
      </trkpt>
      <trkpt lat="45.08761" lon="5.10616">
        <ele>191.1</ele>
        <time>2022-05-07T12:51:10.000Z</time>
      </trkpt>
      <trkpt lat="45.08759" lon="5.10608">
        <ele>191.1</ele>
        <time>2022-05-07T12:51:11.000Z</time>
      </trkpt>
      <trkpt lat="45.08757" lon="5.10599">
        <ele>191.3</ele>
        <time>2022-05-07T12:51:12.000Z</time>
      </trkpt>
      <trkpt lat="45.08755" lon="5.1059">
        <ele>191.6</ele>
        <time>2022-05-07T12:51:13.000Z</time>
      </trkpt>
      <trkpt lat="45.08752" lon="5.10582">
        <ele>191.9</ele>
        <time>2022-05-07T12:51:14.000Z</time>
      </trkpt>
      <trkpt lat="45.0875" lon="5.10573">
        <ele>191.6</ele>
        <time>2022-05-07T12:51:15.000Z</time>
      </trkpt>
      <trkpt lat="45.08748" lon="5.10564">
        <ele>191.2</ele>
        <time>2022-05-07T12:51:16.000Z</time>
      </trkpt>
      <trkpt lat="45.08746" lon="5.10555">
        <ele>190.8</ele>
        <time>2022-05-07T12:51:17.000Z</time>
      </trkpt>
      <trkpt lat="45.08743" lon="5.10546">
        <ele>190.8</ele>
        <time>2022-05-07T12:51:18.000Z</time>
      </trkpt>
      <trkpt lat="45.08741" lon="5.10537">
        <ele>190.9</ele>
        <time>2022-05-07T12:51:19.000Z</time>
      </trkpt>
      <trkpt lat="45.08738" lon="5.10528">
        <ele>191</ele>
        <time>2022-05-07T12:51:20.000Z</time>
      </trkpt>
      <trkpt lat="45.08736" lon="5.10519">
        <ele>191.2</ele>
        <time>2022-05-07T12:51:21.000Z</time>
      </trkpt>
      <trkpt lat="45.08734" lon="5.1051">
        <ele>191.4</ele>
        <time>2022-05-07T12:51:22.000Z</time>
      </trkpt>
      <trkpt lat="45.08732" lon="5.10502">
        <ele>191.6</ele>
        <time>2022-05-07T12:51:23.000Z</time>
      </trkpt>
      <trkpt lat="45.0873" lon="5.10494">
        <ele>191.9</ele>
        <time>2022-05-07T12:51:24.000Z</time>
      </trkpt>
      <trkpt lat="45.08728" lon="5.10485">
        <ele>192.2</ele>
        <time>2022-05-07T12:51:25.000Z</time>
      </trkpt>
      <trkpt lat="45.08726" lon="5.10478">
        <ele>192.6</ele>
        <time>2022-05-07T12:51:26.000Z</time>
      </trkpt>
      <trkpt lat="45.08724" lon="5.1047">
        <ele>192.8</ele>
        <time>2022-05-07T12:51:27.000Z</time>
      </trkpt>
      <trkpt lat="45.08722" lon="5.10463">
        <ele>192.6</ele>
        <time>2022-05-07T12:51:28.000Z</time>
      </trkpt>
      <trkpt lat="45.0872" lon="5.10456">
        <ele>192.2</ele>
        <time>2022-05-07T12:51:29.000Z</time>
      </trkpt>
      <trkpt lat="45.08718" lon="5.10449">
        <ele>191.9</ele>
        <time>2022-05-07T12:51:30.000Z</time>
      </trkpt>
      <trkpt lat="45.08717" lon="5.10442">
        <ele>191.7</ele>
        <time>2022-05-07T12:51:31.000Z</time>
      </trkpt>
      <trkpt lat="45.08715" lon="5.10435">
        <ele>191.9</ele>
        <time>2022-05-07T12:51:32.000Z</time>
      </trkpt>
      <trkpt lat="45.08713" lon="5.10428">
        <ele>192.1</ele>
        <time>2022-05-07T12:51:33.000Z</time>
      </trkpt>
      <trkpt lat="45.08711" lon="5.10421">
        <ele>192.4</ele>
        <time>2022-05-07T12:51:34.000Z</time>
      </trkpt>
      <trkpt lat="45.08709" lon="5.10414">
        <ele>192.5</ele>
        <time>2022-05-07T12:51:35.000Z</time>
      </trkpt>
      <trkpt lat="45.08707" lon="5.10407">
        <ele>192.3</ele>
        <time>2022-05-07T12:51:36.000Z</time>
      </trkpt>
      <trkpt lat="45.08705" lon="5.104">
        <ele>192.3</ele>
        <time>2022-05-07T12:51:37.000Z</time>
      </trkpt>
      <trkpt lat="45.08704" lon="5.10393">
        <ele>192.3</ele>
        <time>2022-05-07T12:51:38.000Z</time>
      </trkpt>
      <trkpt lat="45.08702" lon="5.10386">
        <ele>192.4</ele>
        <time>2022-05-07T12:51:39.000Z</time>
      </trkpt>
      <trkpt lat="45.087" lon="5.10379">
        <ele>192.3</ele>
        <time>2022-05-07T12:51:40.000Z</time>
      </trkpt>
      <trkpt lat="45.08698" lon="5.10371">
        <ele>192.2</ele>
        <time>2022-05-07T12:51:41.000Z</time>
      </trkpt>
      <trkpt lat="45.08696" lon="5.10364">
        <ele>192.1</ele>
        <time>2022-05-07T12:51:42.000Z</time>
      </trkpt>
      <trkpt lat="45.08693" lon="5.10357">
        <ele>191.8</ele>
        <time>2022-05-07T12:51:43.000Z</time>
      </trkpt>
      <trkpt lat="45.08691" lon="5.1035">
        <ele>191.5</ele>
        <time>2022-05-07T12:51:44.000Z</time>
      </trkpt>
      <trkpt lat="45.08689" lon="5.10343">
        <ele>191.2</ele>
        <time>2022-05-07T12:51:45.000Z</time>
      </trkpt>
      <trkpt lat="45.08687" lon="5.10335">
        <ele>191</ele>
        <time>2022-05-07T12:51:46.000Z</time>
      </trkpt>
      <trkpt lat="45.08685" lon="5.10328">
        <ele>191.3</ele>
        <time>2022-05-07T12:51:47.000Z</time>
      </trkpt>
      <trkpt lat="45.08683" lon="5.10321">
        <ele>191.7</ele>
        <time>2022-05-07T12:51:48.000Z</time>
      </trkpt>
      <trkpt lat="45.08681" lon="5.10313">
        <ele>192.1</ele>
        <time>2022-05-07T12:51:49.000Z</time>
      </trkpt>
      <trkpt lat="45.08679" lon="5.10306">
        <ele>192.5</ele>
        <time>2022-05-07T12:51:50.000Z</time>
      </trkpt>
      <trkpt lat="45.08677" lon="5.10299">
        <ele>192.8</ele>
        <time>2022-05-07T12:51:51.000Z</time>
      </trkpt>
      <trkpt lat="45.08675" lon="5.10292">
        <ele>193.1</ele>
        <time>2022-05-07T12:51:52.000Z</time>
      </trkpt>
      <trkpt lat="45.08673" lon="5.10285">
        <ele>193.4</ele>
        <time>2022-05-07T12:51:53.000Z</time>
      </trkpt>
      <trkpt lat="45.08671" lon="5.10278">
        <ele>193.7</ele>
        <time>2022-05-07T12:51:54.000Z</time>
      </trkpt>
      <trkpt lat="45.08669" lon="5.10271">
        <ele>193.9</ele>
        <time>2022-05-07T12:51:55.000Z</time>
      </trkpt>
      <trkpt lat="45.08667" lon="5.10264">
        <ele>194</ele>
        <time>2022-05-07T12:51:56.000Z</time>
      </trkpt>
      <trkpt lat="45.08665" lon="5.10257">
        <ele>193.9</ele>
        <time>2022-05-07T12:51:57.000Z</time>
      </trkpt>
      <trkpt lat="45.08664" lon="5.1025">
        <ele>193.7</ele>
        <time>2022-05-07T12:51:58.000Z</time>
      </trkpt>
      <trkpt lat="45.08662" lon="5.10243">
        <ele>193.6</ele>
        <time>2022-05-07T12:51:59.000Z</time>
      </trkpt>
      <trkpt lat="45.08661" lon="5.10236">
        <ele>193.6</ele>
        <time>2022-05-07T12:52:00.000Z</time>
      </trkpt>
      <trkpt lat="45.08659" lon="5.10229">
        <ele>193.6</ele>
        <time>2022-05-07T12:52:01.000Z</time>
      </trkpt>
      <trkpt lat="45.08657" lon="5.10223">
        <ele>193.7</ele>
        <time>2022-05-07T12:52:02.000Z</time>
      </trkpt>
      <trkpt lat="45.08656" lon="5.10216">
        <ele>194</ele>
        <time>2022-05-07T12:52:03.000Z</time>
      </trkpt>
      <trkpt lat="45.08655" lon="5.10209">
        <ele>194.3</ele>
        <time>2022-05-07T12:52:04.000Z</time>
      </trkpt>
      <trkpt lat="45.08653" lon="5.10202">
        <ele>194.6</ele>
        <time>2022-05-07T12:52:05.000Z</time>
      </trkpt>
      <trkpt lat="45.08652" lon="5.10195">
        <ele>194.9</ele>
        <time>2022-05-07T12:52:06.000Z</time>
      </trkpt>
      <trkpt lat="45.08651" lon="5.10187">
        <ele>194.9</ele>
        <time>2022-05-07T12:52:07.000Z</time>
      </trkpt>
      <trkpt lat="45.08649" lon="5.1018">
        <ele>194.9</ele>
        <time>2022-05-07T12:52:08.000Z</time>
      </trkpt>
      <trkpt lat="45.08648" lon="5.10173">
        <ele>194.9</ele>
        <time>2022-05-07T12:52:09.000Z</time>
      </trkpt>
      <trkpt lat="45.08646" lon="5.10166">
        <ele>195</ele>
        <time>2022-05-07T12:52:10.000Z</time>
      </trkpt>
      <trkpt lat="45.08645" lon="5.10158">
        <ele>195</ele>
        <time>2022-05-07T12:52:11.000Z</time>
      </trkpt>
      <trkpt lat="45.08643" lon="5.10151">
        <ele>195</ele>
        <time>2022-05-07T12:52:12.000Z</time>
      </trkpt>
      <trkpt lat="45.08642" lon="5.10143">
        <ele>195</ele>
        <time>2022-05-07T12:52:13.000Z</time>
      </trkpt>
      <trkpt lat="45.0864" lon="5.10136">
        <ele>194.9</ele>
        <time>2022-05-07T12:52:14.000Z</time>
      </trkpt>
      <trkpt lat="45.08639" lon="5.10128">
        <ele>194.6</ele>
        <time>2022-05-07T12:52:15.000Z</time>
      </trkpt>
      <trkpt lat="45.08637" lon="5.1012">
        <ele>194.1</ele>
        <time>2022-05-07T12:52:16.000Z</time>
      </trkpt>
      <trkpt lat="45.08635" lon="5.10113">
        <ele>193.7</ele>
        <time>2022-05-07T12:52:17.000Z</time>
      </trkpt>
      <trkpt lat="45.08633" lon="5.10106">
        <ele>193.4</ele>
        <time>2022-05-07T12:52:18.000Z</time>
      </trkpt>
      <trkpt lat="45.08631" lon="5.10098">
        <ele>193.3</ele>
        <time>2022-05-07T12:52:19.000Z</time>
      </trkpt>
      <trkpt lat="45.08629" lon="5.1009">
        <ele>193.2</ele>
        <time>2022-05-07T12:52:20.000Z</time>
      </trkpt>
      <trkpt lat="45.08628" lon="5.10083">
        <ele>193.2</ele>
        <time>2022-05-07T12:52:21.000Z</time>
      </trkpt>
      <trkpt lat="45.08626" lon="5.10075">
        <ele>193.2</ele>
        <time>2022-05-07T12:52:22.000Z</time>
      </trkpt>
      <trkpt lat="45.08625" lon="5.10067">
        <ele>193.3</ele>
        <time>2022-05-07T12:52:23.000Z</time>
      </trkpt>
      <trkpt lat="45.08623" lon="5.1006">
        <ele>193.3</ele>
        <time>2022-05-07T12:52:24.000Z</time>
      </trkpt>
      <trkpt lat="45.08621" lon="5.10052">
        <ele>193.3</ele>
        <time>2022-05-07T12:52:25.000Z</time>
      </trkpt>
      <trkpt lat="45.08619" lon="5.10045">
        <ele>193.2</ele>
        <time>2022-05-07T12:52:26.000Z</time>
      </trkpt>
      <trkpt lat="45.08617" lon="5.10037">
        <ele>193.1</ele>
        <time>2022-05-07T12:52:27.000Z</time>
      </trkpt>
      <trkpt lat="45.08615" lon="5.1003">
        <ele>193</ele>
        <time>2022-05-07T12:52:28.000Z</time>
      </trkpt>
      <trkpt lat="45.08613" lon="5.10022">
        <ele>192.8</ele>
        <time>2022-05-07T12:52:29.000Z</time>
      </trkpt>
      <trkpt lat="45.08611" lon="5.10015">
        <ele>192.5</ele>
        <time>2022-05-07T12:52:30.000Z</time>
      </trkpt>
      <trkpt lat="45.08609" lon="5.10007">
        <ele>192</ele>
        <time>2022-05-07T12:52:31.000Z</time>
      </trkpt>
      <trkpt lat="45.08606" lon="5.09999">
        <ele>191.7</ele>
        <time>2022-05-07T12:52:32.000Z</time>
      </trkpt>
      <trkpt lat="45.08604" lon="5.09992">
        <ele>191.6</ele>
        <time>2022-05-07T12:52:33.000Z</time>
      </trkpt>
      <trkpt lat="45.08602" lon="5.09984">
        <ele>191.5</ele>
        <time>2022-05-07T12:52:34.000Z</time>
      </trkpt>
      <trkpt lat="45.08599" lon="5.09977">
        <ele>191.5</ele>
        <time>2022-05-07T12:52:35.000Z</time>
      </trkpt>
      <trkpt lat="45.08597" lon="5.0997">
        <ele>191.5</ele>
        <time>2022-05-07T12:52:36.000Z</time>
      </trkpt>
      <trkpt lat="45.08595" lon="5.09963">
        <ele>191.6</ele>
        <time>2022-05-07T12:52:37.000Z</time>
      </trkpt>
      <trkpt lat="45.08593" lon="5.09956">
        <ele>191.7</ele>
        <time>2022-05-07T12:52:38.000Z</time>
      </trkpt>
      <trkpt lat="45.08591" lon="5.09948">
        <ele>191.9</ele>
        <time>2022-05-07T12:52:39.000Z</time>
      </trkpt>
      <trkpt lat="45.08589" lon="5.09941">
        <ele>192</ele>
        <time>2022-05-07T12:52:40.000Z</time>
      </trkpt>
      <trkpt lat="45.08587" lon="5.09934">
        <ele>192</ele>
        <time>2022-05-07T12:52:41.000Z</time>
      </trkpt>
      <trkpt lat="45.08585" lon="5.09927">
        <ele>192</ele>
        <time>2022-05-07T12:52:42.000Z</time>
      </trkpt>
      <trkpt lat="45.08583" lon="5.0992">
        <ele>192</ele>
        <time>2022-05-07T12:52:43.000Z</time>
      </trkpt>
      <trkpt lat="45.08583" lon="5.09914">
        <ele>191.9</ele>
        <time>2022-05-07T12:52:44.000Z</time>
      </trkpt>
      <trkpt lat="45.08582" lon="5.09907">
        <ele>191.8</ele>
        <time>2022-05-07T12:52:45.000Z</time>
      </trkpt>
      <trkpt lat="45.0858" lon="5.099">
        <ele>191.7</ele>
        <time>2022-05-07T12:52:46.000Z</time>
      </trkpt>
      <trkpt lat="45.08578" lon="5.09893">
        <ele>191.6</ele>
        <time>2022-05-07T12:52:47.000Z</time>
      </trkpt>
      <trkpt lat="45.08576" lon="5.09886">
        <ele>191.6</ele>
        <time>2022-05-07T12:52:48.000Z</time>
      </trkpt>
      <trkpt lat="45.08573" lon="5.09879">
        <ele>191.6</ele>
        <time>2022-05-07T12:52:49.000Z</time>
      </trkpt>
      <trkpt lat="45.08572" lon="5.09872">
        <ele>191.8</ele>
        <time>2022-05-07T12:52:50.000Z</time>
      </trkpt>
      <trkpt lat="45.0857" lon="5.09865">
        <ele>191.9</ele>
        <time>2022-05-07T12:52:51.000Z</time>
      </trkpt>
      <trkpt lat="45.08568" lon="5.09858">
        <ele>192</ele>
        <time>2022-05-07T12:52:52.000Z</time>
      </trkpt>
      <trkpt lat="45.08566" lon="5.09849">
        <ele>192.2</ele>
        <time>2022-05-07T12:52:53.000Z</time>
      </trkpt>
      <trkpt lat="45.08564" lon="5.09842">
        <ele>192.3</ele>
        <time>2022-05-07T12:52:54.000Z</time>
      </trkpt>
      <trkpt lat="45.08561" lon="5.09834">
        <ele>192.4</ele>
        <time>2022-05-07T12:52:55.000Z</time>
      </trkpt>
      <trkpt lat="45.08559" lon="5.09827">
        <ele>192.4</ele>
        <time>2022-05-07T12:52:56.000Z</time>
      </trkpt>
      <trkpt lat="45.08557" lon="5.0982">
        <ele>192.5</ele>
        <time>2022-05-07T12:52:57.000Z</time>
      </trkpt>
      <trkpt lat="45.08554" lon="5.09813">
        <ele>192.6</ele>
        <time>2022-05-07T12:52:58.000Z</time>
      </trkpt>
      <trkpt lat="45.08552" lon="5.09806">
        <ele>192.7</ele>
        <time>2022-05-07T12:52:59.000Z</time>
      </trkpt>
      <trkpt lat="45.0855" lon="5.09799">
        <ele>192.8</ele>
        <time>2022-05-07T12:53:00.000Z</time>
      </trkpt>
      <trkpt lat="45.08547" lon="5.09792">
        <ele>192.7</ele>
        <time>2022-05-07T12:53:01.000Z</time>
      </trkpt>
      <trkpt lat="45.08545" lon="5.09784">
        <ele>192.7</ele>
        <time>2022-05-07T12:53:02.000Z</time>
      </trkpt>
      <trkpt lat="45.08543" lon="5.09776">
        <ele>192.6</ele>
        <time>2022-05-07T12:53:03.000Z</time>
      </trkpt>
      <trkpt lat="45.0854" lon="5.09769">
        <ele>192.5</ele>
        <time>2022-05-07T12:53:04.000Z</time>
      </trkpt>
      <trkpt lat="45.08538" lon="5.09762">
        <ele>192.5</ele>
        <time>2022-05-07T12:53:05.000Z</time>
      </trkpt>
      <trkpt lat="45.08536" lon="5.09755">
        <ele>192.4</ele>
        <time>2022-05-07T12:53:06.000Z</time>
      </trkpt>
      <trkpt lat="45.08533" lon="5.09749">
        <ele>192.4</ele>
        <time>2022-05-07T12:53:07.000Z</time>
      </trkpt>
      <trkpt lat="45.08531" lon="5.09742">
        <ele>192.2</ele>
        <time>2022-05-07T12:53:08.000Z</time>
      </trkpt>
      <trkpt lat="45.08528" lon="5.09734">
        <ele>192</ele>
        <time>2022-05-07T12:53:09.000Z</time>
      </trkpt>
      <trkpt lat="45.08526" lon="5.09727">
        <ele>191.8</ele>
        <time>2022-05-07T12:53:10.000Z</time>
      </trkpt>
      <trkpt lat="45.08524" lon="5.0972">
        <ele>191.7</ele>
        <time>2022-05-07T12:53:11.000Z</time>
      </trkpt>
      <trkpt lat="45.08522" lon="5.09713">
        <ele>191.6</ele>
        <time>2022-05-07T12:53:12.000Z</time>
      </trkpt>
      <trkpt lat="45.08519" lon="5.09706">
        <ele>191.4</ele>
        <time>2022-05-07T12:53:13.000Z</time>
      </trkpt>
      <trkpt lat="45.08516" lon="5.09698">
        <ele>191.3</ele>
        <time>2022-05-07T12:53:14.000Z</time>
      </trkpt>
      <trkpt lat="45.08514" lon="5.09691">
        <ele>191.1</ele>
        <time>2022-05-07T12:53:15.000Z</time>
      </trkpt>
      <trkpt lat="45.08511" lon="5.09683">
        <ele>191.1</ele>
        <time>2022-05-07T12:53:16.000Z</time>
      </trkpt>
      <trkpt lat="45.08509" lon="5.09675">
        <ele>191.2</ele>
        <time>2022-05-07T12:53:17.000Z</time>
      </trkpt>
      <trkpt lat="45.08506" lon="5.09668">
        <ele>191.4</ele>
        <time>2022-05-07T12:53:18.000Z</time>
      </trkpt>
      <trkpt lat="45.08503" lon="5.09661">
        <ele>191.5</ele>
        <time>2022-05-07T12:53:19.000Z</time>
      </trkpt>
      <trkpt lat="45.08501" lon="5.09654">
        <ele>191.5</ele>
        <time>2022-05-07T12:53:20.000Z</time>
      </trkpt>
      <trkpt lat="45.08498" lon="5.09647">
        <ele>191.5</ele>
        <time>2022-05-07T12:53:21.000Z</time>
      </trkpt>
      <trkpt lat="45.08495" lon="5.0964">
        <ele>191.3</ele>
        <time>2022-05-07T12:53:22.000Z</time>
      </trkpt>
      <trkpt lat="45.08492" lon="5.09633">
        <ele>191</ele>
        <time>2022-05-07T12:53:23.000Z</time>
      </trkpt>
      <trkpt lat="45.08489" lon="5.09626">
        <ele>190.8</ele>
        <time>2022-05-07T12:53:24.000Z</time>
      </trkpt>
      <trkpt lat="45.08486" lon="5.09619">
        <ele>190.7</ele>
        <time>2022-05-07T12:53:25.000Z</time>
      </trkpt>
      <trkpt lat="45.08481" lon="5.09612">
        <ele>190.6</ele>
        <time>2022-05-07T12:53:26.000Z</time>
      </trkpt>
      <trkpt lat="45.08478" lon="5.09605">
        <ele>190.6</ele>
        <time>2022-05-07T12:53:27.000Z</time>
      </trkpt>
      <trkpt lat="45.08475" lon="5.09598">
        <ele>190.6</ele>
        <time>2022-05-07T12:53:28.000Z</time>
      </trkpt>
      <trkpt lat="45.08472" lon="5.09592">
        <ele>190.7</ele>
        <time>2022-05-07T12:53:29.000Z</time>
      </trkpt>
      <trkpt lat="45.0847" lon="5.09585">
        <ele>190.8</ele>
        <time>2022-05-07T12:53:30.000Z</time>
      </trkpt>
      <trkpt lat="45.08468" lon="5.09579">
        <ele>190.7</ele>
        <time>2022-05-07T12:53:31.000Z</time>
      </trkpt>
      <trkpt lat="45.08466" lon="5.09572">
        <ele>190.6</ele>
        <time>2022-05-07T12:53:32.000Z</time>
      </trkpt>
      <trkpt lat="45.08464" lon="5.09566">
        <ele>190.4</ele>
        <time>2022-05-07T12:53:33.000Z</time>
      </trkpt>
      <trkpt lat="45.08462" lon="5.0956">
        <ele>190.3</ele>
        <time>2022-05-07T12:53:34.000Z</time>
      </trkpt>
      <trkpt lat="45.08461" lon="5.09554">
        <ele>190.2</ele>
        <time>2022-05-07T12:53:35.000Z</time>
      </trkpt>
      <trkpt lat="45.0846" lon="5.09548">
        <ele>190.2</ele>
        <time>2022-05-07T12:53:36.000Z</time>
      </trkpt>
      <trkpt lat="45.08458" lon="5.09541">
        <ele>190.2</ele>
        <time>2022-05-07T12:53:37.000Z</time>
      </trkpt>
      <trkpt lat="45.08455" lon="5.09536">
        <ele>190.2</ele>
        <time>2022-05-07T12:53:38.000Z</time>
      </trkpt>
      <trkpt lat="45.08451" lon="5.09531">
        <ele>190.1</ele>
        <time>2022-05-07T12:53:39.000Z</time>
      </trkpt>
      <trkpt lat="45.08446" lon="5.09528">
        <ele>190</ele>
        <time>2022-05-07T12:53:40.000Z</time>
      </trkpt>
      <trkpt lat="45.0844" lon="5.09524">
        <ele>189.3</ele>
        <time>2022-05-07T12:53:41.000Z</time>
      </trkpt>
      <trkpt lat="45.08433" lon="5.09519">
        <ele>188.5</ele>
        <time>2022-05-07T12:53:42.000Z</time>
      </trkpt>
      <trkpt lat="45.08425" lon="5.09514">
        <ele>188</ele>
        <time>2022-05-07T12:53:43.000Z</time>
      </trkpt>
      <trkpt lat="45.08418" lon="5.09508">
        <ele>187.8</ele>
        <time>2022-05-07T12:53:44.000Z</time>
      </trkpt>
      <trkpt lat="45.08411" lon="5.09501">
        <ele>187.6</ele>
        <time>2022-05-07T12:53:45.000Z</time>
      </trkpt>
      <trkpt lat="45.08405" lon="5.09495">
        <ele>187.1</ele>
        <time>2022-05-07T12:53:46.000Z</time>
      </trkpt>
      <trkpt lat="45.08399" lon="5.09488">
        <ele>186.8</ele>
        <time>2022-05-07T12:53:47.000Z</time>
      </trkpt>
      <trkpt lat="45.08393" lon="5.0948">
        <ele>186.8</ele>
        <time>2022-05-07T12:53:48.000Z</time>
      </trkpt>
      <trkpt lat="45.08387" lon="5.09472">
        <ele>186.9</ele>
        <time>2022-05-07T12:53:49.000Z</time>
      </trkpt>
      <trkpt lat="45.08381" lon="5.09464">
        <ele>186.3</ele>
        <time>2022-05-07T12:53:50.000Z</time>
      </trkpt>
      <trkpt lat="45.08375" lon="5.09456">
        <ele>186</ele>
        <time>2022-05-07T12:53:51.000Z</time>
      </trkpt>
      <trkpt lat="45.08368" lon="5.09448">
        <ele>185.9</ele>
        <time>2022-05-07T12:53:52.000Z</time>
      </trkpt>
      <trkpt lat="45.08362" lon="5.0944">
        <ele>186</ele>
        <time>2022-05-07T12:53:53.000Z</time>
      </trkpt>
      <trkpt lat="45.08356" lon="5.09432">
        <ele>185.9</ele>
        <time>2022-05-07T12:53:54.000Z</time>
      </trkpt>
      <trkpt lat="45.0835" lon="5.09425">
        <ele>185.9</ele>
        <time>2022-05-07T12:53:55.000Z</time>
      </trkpt>
      <trkpt lat="45.08344" lon="5.09417">
        <ele>186</ele>
        <time>2022-05-07T12:53:56.000Z</time>
      </trkpt>
      <trkpt lat="45.08339" lon="5.0941">
        <ele>186</ele>
        <time>2022-05-07T12:53:57.000Z</time>
      </trkpt>
      <trkpt lat="45.08333" lon="5.09402">
        <ele>186</ele>
        <time>2022-05-07T12:53:58.000Z</time>
      </trkpt>
      <trkpt lat="45.08327" lon="5.09394">
        <ele>185.8</ele>
        <time>2022-05-07T12:53:59.000Z</time>
      </trkpt>
      <trkpt lat="45.08321" lon="5.09387">
        <ele>185.5</ele>
        <time>2022-05-07T12:54:00.000Z</time>
      </trkpt>
      <trkpt lat="45.08316" lon="5.0938">
        <ele>185.2</ele>
        <time>2022-05-07T12:54:01.000Z</time>
      </trkpt>
      <trkpt lat="45.0831" lon="5.09372">
        <ele>185.1</ele>
        <time>2022-05-07T12:54:02.000Z</time>
      </trkpt>
      <trkpt lat="45.08305" lon="5.09365">
        <ele>185</ele>
        <time>2022-05-07T12:54:03.000Z</time>
      </trkpt>
      <trkpt lat="45.083" lon="5.09358">
        <ele>185</ele>
        <time>2022-05-07T12:54:04.000Z</time>
      </trkpt>
      <trkpt lat="45.08296" lon="5.0935">
        <ele>185</ele>
        <time>2022-05-07T12:54:05.000Z</time>
      </trkpt>
      <trkpt lat="45.08292" lon="5.09342">
        <ele>185</ele>
        <time>2022-05-07T12:54:06.000Z</time>
      </trkpt>
      <trkpt lat="45.08289" lon="5.09334">
        <ele>185</ele>
        <time>2022-05-07T12:54:07.000Z</time>
      </trkpt>
      <trkpt lat="45.08286" lon="5.09327">
        <ele>185.2</ele>
        <time>2022-05-07T12:54:08.000Z</time>
      </trkpt>
      <trkpt lat="45.08283" lon="5.09319">
        <ele>185.4</ele>
        <time>2022-05-07T12:54:09.000Z</time>
      </trkpt>
      <trkpt lat="45.08279" lon="5.09311">
        <ele>185.8</ele>
        <time>2022-05-07T12:54:10.000Z</time>
      </trkpt>
      <trkpt lat="45.08276" lon="5.09303">
        <ele>185.8</ele>
        <time>2022-05-07T12:54:11.000Z</time>
      </trkpt>
      <trkpt lat="45.08273" lon="5.09294">
        <ele>185.5</ele>
        <time>2022-05-07T12:54:12.000Z</time>
      </trkpt>
      <trkpt lat="45.0827" lon="5.09285">
        <ele>185.2</ele>
        <time>2022-05-07T12:54:13.000Z</time>
      </trkpt>
      <trkpt lat="45.08268" lon="5.09276">
        <ele>185</ele>
        <time>2022-05-07T12:54:14.000Z</time>
      </trkpt>
      <trkpt lat="45.08265" lon="5.09267">
        <ele>185.2</ele>
        <time>2022-05-07T12:54:15.000Z</time>
      </trkpt>
      <trkpt lat="45.08263" lon="5.09259">
        <ele>185.4</ele>
        <time>2022-05-07T12:54:16.000Z</time>
      </trkpt>
      <trkpt lat="45.08261" lon="5.0925">
        <ele>185.6</ele>
        <time>2022-05-07T12:54:17.000Z</time>
      </trkpt>
      <trkpt lat="45.08258" lon="5.09241">
        <ele>185.7</ele>
        <time>2022-05-07T12:54:18.000Z</time>
      </trkpt>
      <trkpt lat="45.08256" lon="5.09233">
        <ele>185.8</ele>
        <time>2022-05-07T12:54:19.000Z</time>
      </trkpt>
      <trkpt lat="45.08253" lon="5.09224">
        <ele>185.9</ele>
        <time>2022-05-07T12:54:20.000Z</time>
      </trkpt>
      <trkpt lat="45.08251" lon="5.09215">
        <ele>185.7</ele>
        <time>2022-05-07T12:54:21.000Z</time>
      </trkpt>
      <trkpt lat="45.08249" lon="5.09206">
        <ele>185.4</ele>
        <time>2022-05-07T12:54:22.000Z</time>
      </trkpt>
      <trkpt lat="45.08247" lon="5.09198">
        <ele>185.1</ele>
        <time>2022-05-07T12:54:23.000Z</time>
      </trkpt>
      <trkpt lat="45.08246" lon="5.09188">
        <ele>185</ele>
        <time>2022-05-07T12:54:24.000Z</time>
      </trkpt>
      <trkpt lat="45.08245" lon="5.09179">
        <ele>185</ele>
        <time>2022-05-07T12:54:25.000Z</time>
      </trkpt>
      <trkpt lat="45.08243" lon="5.0917">
        <ele>185</ele>
        <time>2022-05-07T12:54:26.000Z</time>
      </trkpt>
      <trkpt lat="45.08242" lon="5.0916">
        <ele>185</ele>
        <time>2022-05-07T12:54:27.000Z</time>
      </trkpt>
      <trkpt lat="45.08241" lon="5.09151">
        <ele>185</ele>
        <time>2022-05-07T12:54:28.000Z</time>
      </trkpt>
      <trkpt lat="45.0824" lon="5.09141">
        <ele>185</ele>
        <time>2022-05-07T12:54:29.000Z</time>
      </trkpt>
      <trkpt lat="45.08239" lon="5.09131">
        <ele>185</ele>
        <time>2022-05-07T12:54:30.000Z</time>
      </trkpt>
      <trkpt lat="45.08238" lon="5.09122">
        <ele>185</ele>
        <time>2022-05-07T12:54:31.000Z</time>
      </trkpt>
      <trkpt lat="45.08236" lon="5.09112">
        <ele>185</ele>
        <time>2022-05-07T12:54:32.000Z</time>
      </trkpt>
      <trkpt lat="45.08235" lon="5.09103">
        <ele>185</ele>
        <time>2022-05-07T12:54:33.000Z</time>
      </trkpt>
      <trkpt lat="45.08234" lon="5.09094">
        <ele>185</ele>
        <time>2022-05-07T12:54:34.000Z</time>
      </trkpt>
      <trkpt lat="45.08233" lon="5.09085">
        <ele>185</ele>
        <time>2022-05-07T12:54:35.000Z</time>
      </trkpt>
      <trkpt lat="45.08232" lon="5.09077">
        <ele>185</ele>
        <time>2022-05-07T12:54:36.000Z</time>
      </trkpt>
      <trkpt lat="45.08231" lon="5.09069">
        <ele>185</ele>
        <time>2022-05-07T12:54:37.000Z</time>
      </trkpt>
      <trkpt lat="45.0823" lon="5.09061">
        <ele>185</ele>
        <time>2022-05-07T12:54:38.000Z</time>
      </trkpt>
      <trkpt lat="45.0823" lon="5.09053">
        <ele>185</ele>
        <time>2022-05-07T12:54:39.000Z</time>
      </trkpt>
      <trkpt lat="45.08229" lon="5.09045">
        <ele>185</ele>
        <time>2022-05-07T12:54:40.000Z</time>
      </trkpt>
      <trkpt lat="45.08229" lon="5.09038">
        <ele>185</ele>
        <time>2022-05-07T12:54:41.000Z</time>
      </trkpt>
      <trkpt lat="45.08228" lon="5.09031">
        <ele>185</ele>
        <time>2022-05-07T12:54:42.000Z</time>
      </trkpt>
      <trkpt lat="45.08228" lon="5.09024">
        <ele>185</ele>
        <time>2022-05-07T12:54:43.000Z</time>
      </trkpt>
      <trkpt lat="45.08228" lon="5.09017">
        <ele>185</ele>
        <time>2022-05-07T12:54:44.000Z</time>
      </trkpt>
      <trkpt lat="45.08228" lon="5.0901">
        <ele>185</ele>
        <time>2022-05-07T12:54:45.000Z</time>
      </trkpt>
      <trkpt lat="45.08228" lon="5.09003">
        <ele>185</ele>
        <time>2022-05-07T12:54:46.000Z</time>
      </trkpt>
      <trkpt lat="45.08228" lon="5.08997">
        <ele>185</ele>
        <time>2022-05-07T12:54:47.000Z</time>
      </trkpt>
      <trkpt lat="45.08227" lon="5.0899">
        <ele>185</ele>
        <time>2022-05-07T12:54:48.000Z</time>
      </trkpt>
      <trkpt lat="45.08228" lon="5.08984">
        <ele>185</ele>
        <time>2022-05-07T12:54:49.000Z</time>
      </trkpt>
      <trkpt lat="45.08227" lon="5.08979">
        <ele>185</ele>
        <time>2022-05-07T12:54:50.000Z</time>
      </trkpt>
      <trkpt lat="45.08227" lon="5.08974">
        <ele>185</ele>
        <time>2022-05-07T12:54:51.000Z</time>
      </trkpt>
      <trkpt lat="45.08227" lon="5.08969">
        <ele>185</ele>
        <time>2022-05-07T12:54:52.000Z</time>
      </trkpt>
      <trkpt lat="45.08227" lon="5.08964">
        <ele>185</ele>
        <time>2022-05-07T12:54:53.000Z</time>
      </trkpt>
      <trkpt lat="45.08227" lon="5.0896">
        <ele>185</ele>
        <time>2022-05-07T12:54:54.000Z</time>
      </trkpt>
      <trkpt lat="45.08226" lon="5.08955">
        <ele>185</ele>
        <time>2022-05-07T12:54:55.000Z</time>
      </trkpt>
      <trkpt lat="45.08225" lon="5.0895">
        <ele>185</ele>
        <time>2022-05-07T12:54:56.000Z</time>
      </trkpt>
      <trkpt lat="45.08225" lon="5.08946">
        <ele>185</ele>
        <time>2022-05-07T12:54:57.000Z</time>
      </trkpt>
      <trkpt lat="45.08224" lon="5.0894">
        <ele>185</ele>
        <time>2022-05-07T12:54:58.000Z</time>
      </trkpt>
      <trkpt lat="45.08224" lon="5.08936">
        <ele>185</ele>
        <time>2022-05-07T12:54:59.000Z</time>
      </trkpt>
      <trkpt lat="45.08224" lon="5.08932">
        <ele>185</ele>
        <time>2022-05-07T12:55:00.000Z</time>
      </trkpt>
      <trkpt lat="45.08223" lon="5.08927">
        <ele>185</ele>
        <time>2022-05-07T12:55:01.000Z</time>
      </trkpt>
      <trkpt lat="45.08223" lon="5.08922">
        <ele>185</ele>
        <time>2022-05-07T12:55:02.000Z</time>
      </trkpt>
      <trkpt lat="45.08223" lon="5.08917">
        <ele>185</ele>
        <time>2022-05-07T12:55:03.000Z</time>
      </trkpt>
      <trkpt lat="45.08223" lon="5.0891">
        <ele>185</ele>
        <time>2022-05-07T12:55:04.000Z</time>
      </trkpt>
      <trkpt lat="45.08223" lon="5.08903">
        <ele>185</ele>
        <time>2022-05-07T12:55:05.000Z</time>
      </trkpt>
      <trkpt lat="45.08223" lon="5.08896">
        <ele>185</ele>
        <time>2022-05-07T12:55:06.000Z</time>
      </trkpt>
      <trkpt lat="45.08223" lon="5.0889">
        <ele>185</ele>
        <time>2022-05-07T12:55:07.000Z</time>
      </trkpt>
      <trkpt lat="45.08222" lon="5.08884">
        <ele>185</ele>
        <time>2022-05-07T12:55:08.000Z</time>
      </trkpt>
      <trkpt lat="45.08222" lon="5.08877">
        <ele>185</ele>
        <time>2022-05-07T12:55:09.000Z</time>
      </trkpt>
      <trkpt lat="45.08221" lon="5.08871">
        <ele>185</ele>
        <time>2022-05-07T12:55:10.000Z</time>
      </trkpt>
      <trkpt lat="45.08221" lon="5.08865">
        <ele>185</ele>
        <time>2022-05-07T12:55:11.000Z</time>
      </trkpt>
      <trkpt lat="45.08222" lon="5.08859">
        <ele>185.1</ele>
        <time>2022-05-07T12:55:12.000Z</time>
      </trkpt>
      <trkpt lat="45.08221" lon="5.08853">
        <ele>185.3</ele>
        <time>2022-05-07T12:55:13.000Z</time>
      </trkpt>
      <trkpt lat="45.08221" lon="5.08848">
        <ele>185.5</ele>
        <time>2022-05-07T12:55:14.000Z</time>
      </trkpt>
      <trkpt lat="45.08221" lon="5.08842">
        <ele>185.7</ele>
        <time>2022-05-07T12:55:15.000Z</time>
      </trkpt>
      <trkpt lat="45.08221" lon="5.08837">
        <ele>185.8</ele>
        <time>2022-05-07T12:55:16.000Z</time>
      </trkpt>
      <trkpt lat="45.08221" lon="5.08832">
        <ele>185.9</ele>
        <time>2022-05-07T12:55:17.000Z</time>
      </trkpt>
      <trkpt lat="45.08221" lon="5.08827">
        <ele>185.9</ele>
        <time>2022-05-07T12:55:18.000Z</time>
      </trkpt>
      <trkpt lat="45.08222" lon="5.08822">
        <ele>186</ele>
        <time>2022-05-07T12:55:19.000Z</time>
      </trkpt>
      <trkpt lat="45.08222" lon="5.08817">
        <ele>186</ele>
        <time>2022-05-07T12:55:20.000Z</time>
      </trkpt>
      <trkpt lat="45.08222" lon="5.08812">
        <ele>186</ele>
        <time>2022-05-07T12:55:21.000Z</time>
      </trkpt>
      <trkpt lat="45.08222" lon="5.08806">
        <ele>186</ele>
        <time>2022-05-07T12:55:22.000Z</time>
      </trkpt>
      <trkpt lat="45.08222" lon="5.08799">
        <ele>186</ele>
        <time>2022-05-07T12:55:23.000Z</time>
      </trkpt>
      <trkpt lat="45.08223" lon="5.08794">
        <ele>186</ele>
        <time>2022-05-07T12:55:24.000Z</time>
      </trkpt>
      <trkpt lat="45.08222" lon="5.08788">
        <ele>186</ele>
        <time>2022-05-07T12:55:25.000Z</time>
      </trkpt>
      <trkpt lat="45.08222" lon="5.08781">
        <ele>186</ele>
        <time>2022-05-07T12:55:26.000Z</time>
      </trkpt>
      <trkpt lat="45.0822" lon="5.08774">
        <ele>185.9</ele>
        <time>2022-05-07T12:55:27.000Z</time>
      </trkpt>
      <trkpt lat="45.08218" lon="5.08766">
        <ele>185.9</ele>
        <time>2022-05-07T12:55:28.000Z</time>
      </trkpt>
      <trkpt lat="45.08217" lon="5.08759">
        <ele>185.9</ele>
        <time>2022-05-07T12:55:29.000Z</time>
      </trkpt>
      <trkpt lat="45.08216" lon="5.08753">
        <ele>186</ele>
        <time>2022-05-07T12:55:30.000Z</time>
      </trkpt>
      <trkpt lat="45.08216" lon="5.08747">
        <ele>186.1</ele>
        <time>2022-05-07T12:55:31.000Z</time>
      </trkpt>
      <trkpt lat="45.08214" lon="5.08741">
        <ele>186.2</ele>
        <time>2022-05-07T12:55:32.000Z</time>
      </trkpt>
      <trkpt lat="45.08211" lon="5.08735">
        <ele>186.3</ele>
        <time>2022-05-07T12:55:33.000Z</time>
      </trkpt>
      <trkpt lat="45.0821" lon="5.08729">
        <ele>186.4</ele>
        <time>2022-05-07T12:55:34.000Z</time>
      </trkpt>
      <trkpt lat="45.08208" lon="5.08722">
        <ele>186.5</ele>
        <time>2022-05-07T12:55:35.000Z</time>
      </trkpt>
      <trkpt lat="45.08206" lon="5.08716">
        <ele>186.1</ele>
        <time>2022-05-07T12:55:36.000Z</time>
      </trkpt>
      <trkpt lat="45.08202" lon="5.0871">
        <ele>185.7</ele>
        <time>2022-05-07T12:55:37.000Z</time>
      </trkpt>
      <trkpt lat="45.08198" lon="5.08703">
        <ele>185.3</ele>
        <time>2022-05-07T12:55:38.000Z</time>
      </trkpt>
      <trkpt lat="45.08195" lon="5.08695">
        <ele>185</ele>
        <time>2022-05-07T12:55:39.000Z</time>
      </trkpt>
      <trkpt lat="45.08193" lon="5.08686">
        <ele>184.6</ele>
        <time>2022-05-07T12:55:40.000Z</time>
      </trkpt>
      <trkpt lat="45.08192" lon="5.08676">
        <ele>184.3</ele>
        <time>2022-05-07T12:55:41.000Z</time>
      </trkpt>
      <trkpt lat="45.0819" lon="5.08666">
        <ele>184</ele>
        <time>2022-05-07T12:55:42.000Z</time>
      </trkpt>
      <trkpt lat="45.08188" lon="5.08656">
        <ele>183.9</ele>
        <time>2022-05-07T12:55:43.000Z</time>
      </trkpt>
      <trkpt lat="45.08186" lon="5.08646">
        <ele>183.8</ele>
        <time>2022-05-07T12:55:44.000Z</time>
      </trkpt>
      <trkpt lat="45.08185" lon="5.08635">
        <ele>183.6</ele>
        <time>2022-05-07T12:55:45.000Z</time>
      </trkpt>
      <trkpt lat="45.08183" lon="5.08625">
        <ele>183.6</ele>
        <time>2022-05-07T12:55:46.000Z</time>
      </trkpt>
      <trkpt lat="45.08182" lon="5.08615">
        <ele>183.5</ele>
        <time>2022-05-07T12:55:47.000Z</time>
      </trkpt>
      <trkpt lat="45.0818" lon="5.08605">
        <ele>183.5</ele>
        <time>2022-05-07T12:55:48.000Z</time>
      </trkpt>
      <trkpt lat="45.08179" lon="5.08596">
        <ele>183.4</ele>
        <time>2022-05-07T12:55:49.000Z</time>
      </trkpt>
      <trkpt lat="45.08178" lon="5.08587">
        <ele>183.4</ele>
        <time>2022-05-07T12:55:50.000Z</time>
      </trkpt>
      <trkpt lat="45.08176" lon="5.08578">
        <ele>183.3</ele>
        <time>2022-05-07T12:55:51.000Z</time>
      </trkpt>
      <trkpt lat="45.08175" lon="5.08569">
        <ele>183.3</ele>
        <time>2022-05-07T12:55:52.000Z</time>
      </trkpt>
      <trkpt lat="45.08174" lon="5.08559">
        <ele>183.2</ele>
        <time>2022-05-07T12:55:53.000Z</time>
      </trkpt>
      <trkpt lat="45.08172" lon="5.08551">
        <ele>183.4</ele>
        <time>2022-05-07T12:55:54.000Z</time>
      </trkpt>
      <trkpt lat="45.08171" lon="5.08542">
        <ele>183.6</ele>
        <time>2022-05-07T12:55:55.000Z</time>
      </trkpt>
      <trkpt lat="45.0817" lon="5.08534">
        <ele>183.9</ele>
        <time>2022-05-07T12:55:56.000Z</time>
      </trkpt>
      <trkpt lat="45.08168" lon="5.08525">
        <ele>184.1</ele>
        <time>2022-05-07T12:55:57.000Z</time>
      </trkpt>
      <trkpt lat="45.08166" lon="5.08516">
        <ele>184</ele>
        <time>2022-05-07T12:55:58.000Z</time>
      </trkpt>
      <trkpt lat="45.08166" lon="5.08508">
        <ele>184</ele>
        <time>2022-05-07T12:55:59.000Z</time>
      </trkpt>
      <trkpt lat="45.08165" lon="5.08501">
        <ele>183.9</ele>
        <time>2022-05-07T12:56:00.000Z</time>
      </trkpt>
      <trkpt lat="45.08164" lon="5.08494">
        <ele>184.1</ele>
        <time>2022-05-07T12:56:01.000Z</time>
      </trkpt>
      <trkpt lat="45.08162" lon="5.08487">
        <ele>184.2</ele>
        <time>2022-05-07T12:56:02.000Z</time>
      </trkpt>
      <trkpt lat="45.08161" lon="5.0848">
        <ele>184.4</ele>
        <time>2022-05-07T12:56:03.000Z</time>
      </trkpt>
      <trkpt lat="45.0816" lon="5.08472">
        <ele>184.5</ele>
        <time>2022-05-07T12:56:04.000Z</time>
      </trkpt>
      <trkpt lat="45.08159" lon="5.08464">
        <ele>184.5</ele>
        <time>2022-05-07T12:56:05.000Z</time>
      </trkpt>
      <trkpt lat="45.08158" lon="5.08457">
        <ele>184.5</ele>
        <time>2022-05-07T12:56:06.000Z</time>
      </trkpt>
      <trkpt lat="45.08157" lon="5.0845">
        <ele>184.6</ele>
        <time>2022-05-07T12:56:07.000Z</time>
      </trkpt>
      <trkpt lat="45.08156" lon="5.08442">
        <ele>184.6</ele>
        <time>2022-05-07T12:56:08.000Z</time>
      </trkpt>
      <trkpt lat="45.08155" lon="5.08434">
        <ele>184.6</ele>
        <time>2022-05-07T12:56:09.000Z</time>
      </trkpt>
      <trkpt lat="45.08154" lon="5.08427">
        <ele>184.6</ele>
        <time>2022-05-07T12:56:10.000Z</time>
      </trkpt>
      <trkpt lat="45.08154" lon="5.0842">
        <ele>184.6</ele>
        <time>2022-05-07T12:56:11.000Z</time>
      </trkpt>
      <trkpt lat="45.08154" lon="5.08414">
        <ele>184.6</ele>
        <time>2022-05-07T12:56:12.000Z</time>
      </trkpt>
      <trkpt lat="45.08154" lon="5.08408">
        <ele>184.6</ele>
        <time>2022-05-07T12:56:13.000Z</time>
      </trkpt>
      <trkpt lat="45.08154" lon="5.08401">
        <ele>184.5</ele>
        <time>2022-05-07T12:56:14.000Z</time>
      </trkpt>
      <trkpt lat="45.08153" lon="5.08393">
        <ele>184.5</ele>
        <time>2022-05-07T12:56:15.000Z</time>
      </trkpt>
      <trkpt lat="45.08152" lon="5.08385">
        <ele>184.5</ele>
        <time>2022-05-07T12:56:16.000Z</time>
      </trkpt>
      <trkpt lat="45.08152" lon="5.08377">
        <ele>184.5</ele>
        <time>2022-05-07T12:56:17.000Z</time>
      </trkpt>
      <trkpt lat="45.08151" lon="5.08369">
        <ele>184.4</ele>
        <time>2022-05-07T12:56:18.000Z</time>
      </trkpt>
      <trkpt lat="45.0815" lon="5.0836">
        <ele>184.4</ele>
        <time>2022-05-07T12:56:19.000Z</time>
      </trkpt>
      <trkpt lat="45.08149" lon="5.08351">
        <ele>184.6</ele>
        <time>2022-05-07T12:56:20.000Z</time>
      </trkpt>
      <trkpt lat="45.08148" lon="5.08343">
        <ele>184.8</ele>
        <time>2022-05-07T12:56:21.000Z</time>
      </trkpt>
      <trkpt lat="45.08146" lon="5.08335">
        <ele>185</ele>
        <time>2022-05-07T12:56:22.000Z</time>
      </trkpt>
      <trkpt lat="45.08144" lon="5.08327">
        <ele>185</ele>
        <time>2022-05-07T12:56:23.000Z</time>
      </trkpt>
      <trkpt lat="45.08142" lon="5.08319">
        <ele>185</ele>
        <time>2022-05-07T12:56:24.000Z</time>
      </trkpt>
      <trkpt lat="45.0814" lon="5.08312">
        <ele>185</ele>
        <time>2022-05-07T12:56:25.000Z</time>
      </trkpt>
      <trkpt lat="45.08137" lon="5.08304">
        <ele>184.9</ele>
        <time>2022-05-07T12:56:26.000Z</time>
      </trkpt>
      <trkpt lat="45.08136" lon="5.08297">
        <ele>184.9</ele>
        <time>2022-05-07T12:56:27.000Z</time>
      </trkpt>
      <trkpt lat="45.08134" lon="5.0829">
        <ele>184.8</ele>
        <time>2022-05-07T12:56:28.000Z</time>
      </trkpt>
      <trkpt lat="45.08131" lon="5.08282">
        <ele>184.7</ele>
        <time>2022-05-07T12:56:29.000Z</time>
      </trkpt>
      <trkpt lat="45.08129" lon="5.08274">
        <ele>184.8</ele>
        <time>2022-05-07T12:56:30.000Z</time>
      </trkpt>
      <trkpt lat="45.08127" lon="5.08267">
        <ele>185</ele>
        <time>2022-05-07T12:56:31.000Z</time>
      </trkpt>
      <trkpt lat="45.08124" lon="5.0826">
        <ele>185.1</ele>
        <time>2022-05-07T12:56:32.000Z</time>
      </trkpt>
      <trkpt lat="45.08122" lon="5.08253">
        <ele>185.3</ele>
        <time>2022-05-07T12:56:33.000Z</time>
      </trkpt>
      <trkpt lat="45.0812" lon="5.08246">
        <ele>185.4</ele>
        <time>2022-05-07T12:56:34.000Z</time>
      </trkpt>
      <trkpt lat="45.08118" lon="5.08239">
        <ele>185.5</ele>
        <time>2022-05-07T12:56:35.000Z</time>
      </trkpt>
      <trkpt lat="45.08117" lon="5.08233">
        <ele>185.7</ele>
        <time>2022-05-07T12:56:36.000Z</time>
      </trkpt>
      <trkpt lat="45.08114" lon="5.08227">
        <ele>185.8</ele>
        <time>2022-05-07T12:56:37.000Z</time>
      </trkpt>
      <trkpt lat="45.08111" lon="5.08222">
        <ele>186</ele>
        <time>2022-05-07T12:56:38.000Z</time>
      </trkpt>
      <trkpt lat="45.08108" lon="5.08216">
        <ele>185.8</ele>
        <time>2022-05-07T12:56:39.000Z</time>
      </trkpt>
      <trkpt lat="45.08105" lon="5.08211">
        <ele>185.6</ele>
        <time>2022-05-07T12:56:40.000Z</time>
      </trkpt>
      <trkpt lat="45.08101" lon="5.08206">
        <ele>185.5</ele>
        <time>2022-05-07T12:56:41.000Z</time>
      </trkpt>
      <trkpt lat="45.08099" lon="5.082">
        <ele>185.5</ele>
        <time>2022-05-07T12:56:42.000Z</time>
      </trkpt>
      <trkpt lat="45.08096" lon="5.08194">
        <ele>185.4</ele>
        <time>2022-05-07T12:56:43.000Z</time>
      </trkpt>
      <trkpt lat="45.08092" lon="5.08189">
        <ele>185.6</ele>
        <time>2022-05-07T12:56:44.000Z</time>
      </trkpt>
      <trkpt lat="45.08089" lon="5.08183">
        <ele>185.8</ele>
        <time>2022-05-07T12:56:45.000Z</time>
      </trkpt>
      <trkpt lat="45.08086" lon="5.08178">
        <ele>186.2</ele>
        <time>2022-05-07T12:56:46.000Z</time>
      </trkpt>
      <trkpt lat="45.08083" lon="5.08173">
        <ele>186.5</ele>
        <time>2022-05-07T12:56:47.000Z</time>
      </trkpt>
      <trkpt lat="45.0808" lon="5.08169">
        <ele>186.5</ele>
        <time>2022-05-07T12:56:48.000Z</time>
      </trkpt>
      <trkpt lat="45.08078" lon="5.08165">
        <ele>186.4</ele>
        <time>2022-05-07T12:56:49.000Z</time>
      </trkpt>
      <trkpt lat="45.08075" lon="5.08161">
        <ele>186.2</ele>
        <time>2022-05-07T12:56:50.000Z</time>
      </trkpt>
      <trkpt lat="45.08071" lon="5.08157">
        <ele>186</ele>
        <time>2022-05-07T12:56:51.000Z</time>
      </trkpt>
      <trkpt lat="45.08067" lon="5.08153">
        <ele>185.8</ele>
        <time>2022-05-07T12:56:52.000Z</time>
      </trkpt>
      <trkpt lat="45.08063" lon="5.08149">
        <ele>185.7</ele>
        <time>2022-05-07T12:56:53.000Z</time>
      </trkpt>
      <trkpt lat="45.08059" lon="5.08145">
        <ele>185.8</ele>
        <time>2022-05-07T12:56:54.000Z</time>
      </trkpt>
      <trkpt lat="45.08055" lon="5.08141">
        <ele>185.8</ele>
        <time>2022-05-07T12:56:55.000Z</time>
      </trkpt>
      <trkpt lat="45.0805" lon="5.08137">
        <ele>185.6</ele>
        <time>2022-05-07T12:56:56.000Z</time>
      </trkpt>
      <trkpt lat="45.08046" lon="5.08132">
        <ele>185.4</ele>
        <time>2022-05-07T12:56:57.000Z</time>
      </trkpt>
      <trkpt lat="45.08042" lon="5.08129">
        <ele>185.2</ele>
        <time>2022-05-07T12:56:58.000Z</time>
      </trkpt>
      <trkpt lat="45.08038" lon="5.08125">
        <ele>185.1</ele>
        <time>2022-05-07T12:56:59.000Z</time>
      </trkpt>
      <trkpt lat="45.08034" lon="5.0812">
        <ele>185</ele>
        <time>2022-05-07T12:57:00.000Z</time>
      </trkpt>
      <trkpt lat="45.08029" lon="5.08116">
        <ele>184.9</ele>
        <time>2022-05-07T12:57:01.000Z</time>
      </trkpt>
      <trkpt lat="45.08025" lon="5.08112">
        <ele>184.8</ele>
        <time>2022-05-07T12:57:02.000Z</time>
      </trkpt>
      <trkpt lat="45.0802" lon="5.08106">
        <ele>184.5</ele>
        <time>2022-05-07T12:57:03.000Z</time>
      </trkpt>
      <trkpt lat="45.08015" lon="5.08101">
        <ele>184.4</ele>
        <time>2022-05-07T12:57:04.000Z</time>
      </trkpt>
      <trkpt lat="45.0801" lon="5.08096">
        <ele>184.4</ele>
        <time>2022-05-07T12:57:05.000Z</time>
      </trkpt>
      <trkpt lat="45.08006" lon="5.08091">
        <ele>184.6</ele>
        <time>2022-05-07T12:57:06.000Z</time>
      </trkpt>
      <trkpt lat="45.08" lon="5.08085">
        <ele>184.9</ele>
        <time>2022-05-07T12:57:07.000Z</time>
      </trkpt>
      <trkpt lat="45.07995" lon="5.0808">
        <ele>184.5</ele>
        <time>2022-05-07T12:57:08.000Z</time>
      </trkpt>
      <trkpt lat="45.0799" lon="5.08074">
        <ele>184.1</ele>
        <time>2022-05-07T12:57:09.000Z</time>
      </trkpt>
      <trkpt lat="45.07985" lon="5.08068">
        <ele>184</ele>
        <time>2022-05-07T12:57:10.000Z</time>
      </trkpt>
      <trkpt lat="45.0798" lon="5.08062">
        <ele>183.9</ele>
        <time>2022-05-07T12:57:11.000Z</time>
      </trkpt>
      <trkpt lat="45.07975" lon="5.08055">
        <ele>184.1</ele>
        <time>2022-05-07T12:57:12.000Z</time>
      </trkpt>
      <trkpt lat="45.0797" lon="5.08048">
        <ele>183.8</ele>
        <time>2022-05-07T12:57:13.000Z</time>
      </trkpt>
      <trkpt lat="45.07965" lon="5.08041">
        <ele>183.6</ele>
        <time>2022-05-07T12:57:14.000Z</time>
      </trkpt>
      <trkpt lat="45.07959" lon="5.08033">
        <ele>183.4</ele>
        <time>2022-05-07T12:57:15.000Z</time>
      </trkpt>
      <trkpt lat="45.07953" lon="5.08025">
        <ele>183.3</ele>
        <time>2022-05-07T12:57:16.000Z</time>
      </trkpt>
      <trkpt lat="45.07947" lon="5.08017">
        <ele>183.1</ele>
        <time>2022-05-07T12:57:17.000Z</time>
      </trkpt>
      <trkpt lat="45.07941" lon="5.08009">
        <ele>182.7</ele>
        <time>2022-05-07T12:57:18.000Z</time>
      </trkpt>
      <trkpt lat="45.07935" lon="5.08001">
        <ele>182.3</ele>
        <time>2022-05-07T12:57:19.000Z</time>
      </trkpt>
      <trkpt lat="45.07929" lon="5.07992">
        <ele>182.2</ele>
        <time>2022-05-07T12:57:20.000Z</time>
      </trkpt>
      <trkpt lat="45.07923" lon="5.07984">
        <ele>182.4</ele>
        <time>2022-05-07T12:57:21.000Z</time>
      </trkpt>
      <trkpt lat="45.07916" lon="5.07975">
        <ele>182.8</ele>
        <time>2022-05-07T12:57:22.000Z</time>
      </trkpt>
      <trkpt lat="45.0791" lon="5.07966">
        <ele>182.6</ele>
        <time>2022-05-07T12:57:23.000Z</time>
      </trkpt>
      <trkpt lat="45.07904" lon="5.07958">
        <ele>182.3</ele>
        <time>2022-05-07T12:57:24.000Z</time>
      </trkpt>
      <trkpt lat="45.07898" lon="5.07949">
        <ele>182.2</ele>
        <time>2022-05-07T12:57:25.000Z</time>
      </trkpt>
      <trkpt lat="45.07892" lon="5.07939">
        <ele>182.3</ele>
        <time>2022-05-07T12:57:26.000Z</time>
      </trkpt>
      <trkpt lat="45.07886" lon="5.0793">
        <ele>182.3</ele>
        <time>2022-05-07T12:57:27.000Z</time>
      </trkpt>
      <trkpt lat="45.0788" lon="5.07921">
        <ele>182.2</ele>
        <time>2022-05-07T12:57:28.000Z</time>
      </trkpt>
      <trkpt lat="45.07874" lon="5.07912">
        <ele>182</ele>
        <time>2022-05-07T12:57:29.000Z</time>
      </trkpt>
      <trkpt lat="45.07869" lon="5.07902">
        <ele>181.9</ele>
        <time>2022-05-07T12:57:30.000Z</time>
      </trkpt>
      <trkpt lat="45.07863" lon="5.07893">
        <ele>181.9</ele>
        <time>2022-05-07T12:57:31.000Z</time>
      </trkpt>
      <trkpt lat="45.07857" lon="5.07885">
        <ele>181.7</ele>
        <time>2022-05-07T12:57:32.000Z</time>
      </trkpt>
      <trkpt lat="45.07851" lon="5.07876">
        <ele>181.5</ele>
        <time>2022-05-07T12:57:33.000Z</time>
      </trkpt>
      <trkpt lat="45.07846" lon="5.07868">
        <ele>181.3</ele>
        <time>2022-05-07T12:57:34.000Z</time>
      </trkpt>
      <trkpt lat="45.07841" lon="5.0786">
        <ele>181.3</ele>
        <time>2022-05-07T12:57:35.000Z</time>
      </trkpt>
      <trkpt lat="45.07835" lon="5.07852">
        <ele>181.1</ele>
        <time>2022-05-07T12:57:36.000Z</time>
      </trkpt>
      <trkpt lat="45.0783" lon="5.07844">
        <ele>180.8</ele>
        <time>2022-05-07T12:57:37.000Z</time>
      </trkpt>
      <trkpt lat="45.07824" lon="5.07836">
        <ele>180.6</ele>
        <time>2022-05-07T12:57:38.000Z</time>
      </trkpt>
      <trkpt lat="45.07819" lon="5.07828">
        <ele>180.6</ele>
        <time>2022-05-07T12:57:39.000Z</time>
      </trkpt>
      <trkpt lat="45.07814" lon="5.0782">
        <ele>180.6</ele>
        <time>2022-05-07T12:57:40.000Z</time>
      </trkpt>
      <trkpt lat="45.07809" lon="5.07812">
        <ele>180.8</ele>
        <time>2022-05-07T12:57:41.000Z</time>
      </trkpt>
      <trkpt lat="45.07804" lon="5.07804">
        <ele>180.9</ele>
        <time>2022-05-07T12:57:42.000Z</time>
      </trkpt>
      <trkpt lat="45.07799" lon="5.07795">
        <ele>180.8</ele>
        <time>2022-05-07T12:57:43.000Z</time>
      </trkpt>
      <trkpt lat="45.07794" lon="5.07787">
        <ele>180.9</ele>
        <time>2022-05-07T12:57:44.000Z</time>
      </trkpt>
      <trkpt lat="45.07788" lon="5.07779">
        <ele>181</ele>
        <time>2022-05-07T12:57:45.000Z</time>
      </trkpt>
      <trkpt lat="45.07783" lon="5.0777">
        <ele>181.3</ele>
        <time>2022-05-07T12:57:46.000Z</time>
      </trkpt>
      <trkpt lat="45.07777" lon="5.07762">
        <ele>181.6</ele>
        <time>2022-05-07T12:57:47.000Z</time>
      </trkpt>
      <trkpt lat="45.07772" lon="5.07753">
        <ele>181.7</ele>
        <time>2022-05-07T12:57:48.000Z</time>
      </trkpt>
      <trkpt lat="45.07767" lon="5.07744">
        <ele>181.9</ele>
        <time>2022-05-07T12:57:49.000Z</time>
      </trkpt>
      <trkpt lat="45.07762" lon="5.07735">
        <ele>182.3</ele>
        <time>2022-05-07T12:57:50.000Z</time>
      </trkpt>
      <trkpt lat="45.07757" lon="5.07727">
        <ele>182.7</ele>
        <time>2022-05-07T12:57:51.000Z</time>
      </trkpt>
      <trkpt lat="45.07753" lon="5.07718">
        <ele>182.8</ele>
        <time>2022-05-07T12:57:52.000Z</time>
      </trkpt>
      <trkpt lat="45.07749" lon="5.07708">
        <ele>182.5</ele>
        <time>2022-05-07T12:57:53.000Z</time>
      </trkpt>
      <trkpt lat="45.07746" lon="5.07698">
        <ele>182</ele>
        <time>2022-05-07T12:57:54.000Z</time>
      </trkpt>
      <trkpt lat="45.07743" lon="5.07689">
        <ele>181.7</ele>
        <time>2022-05-07T12:57:55.000Z</time>
      </trkpt>
      <trkpt lat="45.0774" lon="5.07679">
        <ele>181.6</ele>
        <time>2022-05-07T12:57:56.000Z</time>
      </trkpt>
      <trkpt lat="45.07737" lon="5.07668">
        <ele>181.5</ele>
        <time>2022-05-07T12:57:57.000Z</time>
      </trkpt>
      <trkpt lat="45.07734" lon="5.07658">
        <ele>181.4</ele>
        <time>2022-05-07T12:57:58.000Z</time>
      </trkpt>
      <trkpt lat="45.07731" lon="5.07646">
        <ele>181.3</ele>
        <time>2022-05-07T12:57:59.000Z</time>
      </trkpt>
      <trkpt lat="45.07728" lon="5.07635">
        <ele>181.2</ele>
        <time>2022-05-07T12:58:00.000Z</time>
      </trkpt>
      <trkpt lat="45.07725" lon="5.07623">
        <ele>181.1</ele>
        <time>2022-05-07T12:58:01.000Z</time>
      </trkpt>
      <trkpt lat="45.07722" lon="5.07612">
        <ele>181</ele>
        <time>2022-05-07T12:58:02.000Z</time>
      </trkpt>
      <trkpt lat="45.07719" lon="5.07601">
        <ele>180.8</ele>
        <time>2022-05-07T12:58:03.000Z</time>
      </trkpt>
      <trkpt lat="45.07716" lon="5.0759">
        <ele>180.6</ele>
        <time>2022-05-07T12:58:04.000Z</time>
      </trkpt>
      <trkpt lat="45.07714" lon="5.07579">
        <ele>180.4</ele>
        <time>2022-05-07T12:58:05.000Z</time>
      </trkpt>
      <trkpt lat="45.07712" lon="5.07569">
        <ele>180.4</ele>
        <time>2022-05-07T12:58:06.000Z</time>
      </trkpt>
      <trkpt lat="45.07709" lon="5.07559">
        <ele>180.5</ele>
        <time>2022-05-07T12:58:07.000Z</time>
      </trkpt>
      <trkpt lat="45.07706" lon="5.07549">
        <ele>180.7</ele>
        <time>2022-05-07T12:58:08.000Z</time>
      </trkpt>
      <trkpt lat="45.07703" lon="5.0754">
        <ele>180.9</ele>
        <time>2022-05-07T12:58:09.000Z</time>
      </trkpt>
      <trkpt lat="45.077" lon="5.07531">
        <ele>181.1</ele>
        <time>2022-05-07T12:58:10.000Z</time>
      </trkpt>
      <trkpt lat="45.07697" lon="5.07523">
        <ele>181.1</ele>
        <time>2022-05-07T12:58:11.000Z</time>
      </trkpt>
      <trkpt lat="45.07694" lon="5.07515">
        <ele>181</ele>
        <time>2022-05-07T12:58:12.000Z</time>
      </trkpt>
      <trkpt lat="45.0769" lon="5.07507">
        <ele>180.7</ele>
        <time>2022-05-07T12:58:13.000Z</time>
      </trkpt>
      <trkpt lat="45.07686" lon="5.075">
        <ele>180.4</ele>
        <time>2022-05-07T12:58:14.000Z</time>
      </trkpt>
      <trkpt lat="45.07682" lon="5.07492">
        <ele>180.2</ele>
        <time>2022-05-07T12:58:15.000Z</time>
      </trkpt>
      <trkpt lat="45.07678" lon="5.07485">
        <ele>180.1</ele>
        <time>2022-05-07T12:58:16.000Z</time>
      </trkpt>
      <trkpt lat="45.07674" lon="5.07479">
        <ele>180.1</ele>
        <time>2022-05-07T12:58:17.000Z</time>
      </trkpt>
      <trkpt lat="45.0767" lon="5.07472">
        <ele>180.1</ele>
        <time>2022-05-07T12:58:18.000Z</time>
      </trkpt>
      <trkpt lat="45.07667" lon="5.07465">
        <ele>180</ele>
        <time>2022-05-07T12:58:19.000Z</time>
      </trkpt>
      <trkpt lat="45.07663" lon="5.07458">
        <ele>179.9</ele>
        <time>2022-05-07T12:58:20.000Z</time>
      </trkpt>
      <trkpt lat="45.0766" lon="5.07451">
        <ele>179.7</ele>
        <time>2022-05-07T12:58:21.000Z</time>
      </trkpt>
      <trkpt lat="45.07656" lon="5.07444">
        <ele>179.6</ele>
        <time>2022-05-07T12:58:22.000Z</time>
      </trkpt>
      <trkpt lat="45.07652" lon="5.07438">
        <ele>179.8</ele>
        <time>2022-05-07T12:58:23.000Z</time>
      </trkpt>
      <trkpt lat="45.07648" lon="5.07431">
        <ele>180.1</ele>
        <time>2022-05-07T12:58:24.000Z</time>
      </trkpt>
      <trkpt lat="45.07645" lon="5.07425">
        <ele>180.5</ele>
        <time>2022-05-07T12:58:25.000Z</time>
      </trkpt>
      <trkpt lat="45.07642" lon="5.07419">
        <ele>180.9</ele>
        <time>2022-05-07T12:58:26.000Z</time>
      </trkpt>
      <trkpt lat="45.07639" lon="5.07413">
        <ele>181.1</ele>
        <time>2022-05-07T12:58:27.000Z</time>
      </trkpt>
      <trkpt lat="45.07636" lon="5.07407">
        <ele>181.2</ele>
        <time>2022-05-07T12:58:28.000Z</time>
      </trkpt>
      <trkpt lat="45.07633" lon="5.07401">
        <ele>181.2</ele>
        <time>2022-05-07T12:58:29.000Z</time>
      </trkpt>
      <trkpt lat="45.0763" lon="5.07396">
        <ele>181.2</ele>
        <time>2022-05-07T12:58:30.000Z</time>
      </trkpt>
      <trkpt lat="45.07628" lon="5.07391">
        <ele>181.1</ele>
        <time>2022-05-07T12:58:31.000Z</time>
      </trkpt>
      <trkpt lat="45.07625" lon="5.07385">
        <ele>181.1</ele>
        <time>2022-05-07T12:58:32.000Z</time>
      </trkpt>
      <trkpt lat="45.07623" lon="5.0738">
        <ele>181</ele>
        <time>2022-05-07T12:58:33.000Z</time>
      </trkpt>
      <trkpt lat="45.07619" lon="5.07374">
        <ele>181</ele>
        <time>2022-05-07T12:58:34.000Z</time>
      </trkpt>
      <trkpt lat="45.07616" lon="5.07367">
        <ele>181</ele>
        <time>2022-05-07T12:58:35.000Z</time>
      </trkpt>
      <trkpt lat="45.07613" lon="5.07359">
        <ele>181</ele>
        <time>2022-05-07T12:58:36.000Z</time>
      </trkpt>
      <trkpt lat="45.0761" lon="5.07352">
        <ele>180.5</ele>
        <time>2022-05-07T12:58:37.000Z</time>
      </trkpt>
      <trkpt lat="45.07606" lon="5.07343">
        <ele>179.9</ele>
        <time>2022-05-07T12:58:38.000Z</time>
      </trkpt>
      <trkpt lat="45.07602" lon="5.07334">
        <ele>179.4</ele>
        <time>2022-05-07T12:58:39.000Z</time>
      </trkpt>
      <trkpt lat="45.07599" lon="5.07326">
        <ele>179.2</ele>
        <time>2022-05-07T12:58:40.000Z</time>
      </trkpt>
      <trkpt lat="45.07595" lon="5.07318">
        <ele>179.1</ele>
        <time>2022-05-07T12:58:41.000Z</time>
      </trkpt>
      <trkpt lat="45.0759" lon="5.07309">
        <ele>179.1</ele>
        <time>2022-05-07T12:58:42.000Z</time>
      </trkpt>
      <trkpt lat="45.07586" lon="5.073">
        <ele>179.3</ele>
        <time>2022-05-07T12:58:43.000Z</time>
      </trkpt>
      <trkpt lat="45.07582" lon="5.07292">
        <ele>179.4</ele>
        <time>2022-05-07T12:58:44.000Z</time>
      </trkpt>
      <trkpt lat="45.07579" lon="5.07284">
        <ele>179.4</ele>
        <time>2022-05-07T12:58:45.000Z</time>
      </trkpt>
      <trkpt lat="45.07575" lon="5.07276">
        <ele>179.4</ele>
        <time>2022-05-07T12:58:46.000Z</time>
      </trkpt>
      <trkpt lat="45.07571" lon="5.07267">
        <ele>179.4</ele>
        <time>2022-05-07T12:58:47.000Z</time>
      </trkpt>
      <trkpt lat="45.07566" lon="5.07258">
        <ele>179.7</ele>
        <time>2022-05-07T12:58:48.000Z</time>
      </trkpt>
      <trkpt lat="45.07562" lon="5.07249">
        <ele>180.1</ele>
        <time>2022-05-07T12:58:49.000Z</time>
      </trkpt>
      <trkpt lat="45.07559" lon="5.0724">
        <ele>180.4</ele>
        <time>2022-05-07T12:58:50.000Z</time>
      </trkpt>
      <trkpt lat="45.07556" lon="5.07231">
        <ele>180.7</ele>
        <time>2022-05-07T12:58:51.000Z</time>
      </trkpt>
      <trkpt lat="45.07553" lon="5.07222">
        <ele>180.7</ele>
        <time>2022-05-07T12:58:52.000Z</time>
      </trkpt>
      <trkpt lat="45.07549" lon="5.07213">
        <ele>180.3</ele>
        <time>2022-05-07T12:58:53.000Z</time>
      </trkpt>
      <trkpt lat="45.07547" lon="5.07203">
        <ele>180</ele>
        <time>2022-05-07T12:58:54.000Z</time>
      </trkpt>
      <trkpt lat="45.07544" lon="5.07193">
        <ele>179.8</ele>
        <time>2022-05-07T12:58:55.000Z</time>
      </trkpt>
      <trkpt lat="45.07542" lon="5.07184">
        <ele>179.5</ele>
        <time>2022-05-07T12:58:56.000Z</time>
      </trkpt>
      <trkpt lat="45.07539" lon="5.07174">
        <ele>179.2</ele>
        <time>2022-05-07T12:58:57.000Z</time>
      </trkpt>
      <trkpt lat="45.07537" lon="5.07166">
        <ele>179.1</ele>
        <time>2022-05-07T12:58:58.000Z</time>
      </trkpt>
      <trkpt lat="45.07535" lon="5.07157">
        <ele>179.3</ele>
        <time>2022-05-07T12:58:59.000Z</time>
      </trkpt>
      <trkpt lat="45.07533" lon="5.07148">
        <ele>179.6</ele>
        <time>2022-05-07T12:59:00.000Z</time>
      </trkpt>
      <trkpt lat="45.07531" lon="5.07139">
        <ele>180.1</ele>
        <time>2022-05-07T12:59:01.000Z</time>
      </trkpt>
      <trkpt lat="45.07529" lon="5.07131">
        <ele>180.1</ele>
        <time>2022-05-07T12:59:02.000Z</time>
      </trkpt>
      <trkpt lat="45.07527" lon="5.07123">
        <ele>179.9</ele>
        <time>2022-05-07T12:59:03.000Z</time>
      </trkpt>
      <trkpt lat="45.07525" lon="5.07115">
        <ele>179.8</ele>
        <time>2022-05-07T12:59:04.000Z</time>
      </trkpt>
      <trkpt lat="45.07523" lon="5.07107">
        <ele>179.8</ele>
        <time>2022-05-07T12:59:05.000Z</time>
      </trkpt>
      <trkpt lat="45.07521" lon="5.071">
        <ele>179.8</ele>
        <time>2022-05-07T12:59:06.000Z</time>
      </trkpt>
      <trkpt lat="45.0752" lon="5.07093">
        <ele>179.9</ele>
        <time>2022-05-07T12:59:07.000Z</time>
      </trkpt>
      <trkpt lat="45.07518" lon="5.07085">
        <ele>179.9</ele>
        <time>2022-05-07T12:59:08.000Z</time>
      </trkpt>
      <trkpt lat="45.07516" lon="5.07078">
        <ele>179.9</ele>
        <time>2022-05-07T12:59:09.000Z</time>
      </trkpt>
      <trkpt lat="45.07514" lon="5.07071">
        <ele>180</ele>
        <time>2022-05-07T12:59:10.000Z</time>
      </trkpt>
      <trkpt lat="45.07512" lon="5.07064">
        <ele>180</ele>
        <time>2022-05-07T12:59:11.000Z</time>
      </trkpt>
      <trkpt lat="45.0751" lon="5.07056">
        <ele>180.1</ele>
        <time>2022-05-07T12:59:12.000Z</time>
      </trkpt>
      <trkpt lat="45.07508" lon="5.07049">
        <ele>180.2</ele>
        <time>2022-05-07T12:59:13.000Z</time>
      </trkpt>
      <trkpt lat="45.07506" lon="5.07041">
        <ele>180.5</ele>
        <time>2022-05-07T12:59:14.000Z</time>
      </trkpt>
      <trkpt lat="45.07504" lon="5.07033">
        <ele>180.8</ele>
        <time>2022-05-07T12:59:15.000Z</time>
      </trkpt>
      <trkpt lat="45.07502" lon="5.07026">
        <ele>181.1</ele>
        <time>2022-05-07T12:59:16.000Z</time>
      </trkpt>
      <trkpt lat="45.075" lon="5.07019">
        <ele>181</ele>
        <time>2022-05-07T12:59:17.000Z</time>
      </trkpt>
      <trkpt lat="45.07497" lon="5.07011">
        <ele>180.9</ele>
        <time>2022-05-07T12:59:18.000Z</time>
      </trkpt>
      <trkpt lat="45.07495" lon="5.07004">
        <ele>180.8</ele>
        <time>2022-05-07T12:59:19.000Z</time>
      </trkpt>
      <trkpt lat="45.07493" lon="5.06996">
        <ele>180.9</ele>
        <time>2022-05-07T12:59:20.000Z</time>
      </trkpt>
      <trkpt lat="45.07491" lon="5.06989">
        <ele>180.9</ele>
        <time>2022-05-07T12:59:21.000Z</time>
      </trkpt>
      <trkpt lat="45.07489" lon="5.06981">
        <ele>181</ele>
        <time>2022-05-07T12:59:22.000Z</time>
      </trkpt>
      <trkpt lat="45.07486" lon="5.06974">
        <ele>181</ele>
        <time>2022-05-07T12:59:23.000Z</time>
      </trkpt>
      <trkpt lat="45.07484" lon="5.06967">
        <ele>181</ele>
        <time>2022-05-07T12:59:24.000Z</time>
      </trkpt>
      <trkpt lat="45.07482" lon="5.0696">
        <ele>181</ele>
        <time>2022-05-07T12:59:25.000Z</time>
      </trkpt>
      <trkpt lat="45.07481" lon="5.06953">
        <ele>181.1</ele>
        <time>2022-05-07T12:59:26.000Z</time>
      </trkpt>
      <trkpt lat="45.07479" lon="5.06946">
        <ele>181.2</ele>
        <time>2022-05-07T12:59:27.000Z</time>
      </trkpt>
      <trkpt lat="45.07477" lon="5.06939">
        <ele>181.4</ele>
        <time>2022-05-07T12:59:28.000Z</time>
      </trkpt>
      <trkpt lat="45.07475" lon="5.06932">
        <ele>181.5</ele>
        <time>2022-05-07T12:59:29.000Z</time>
      </trkpt>
      <trkpt lat="45.07474" lon="5.06926">
        <ele>181.7</ele>
        <time>2022-05-07T12:59:30.000Z</time>
      </trkpt>
      <trkpt lat="45.07472" lon="5.06919">
        <ele>181.9</ele>
        <time>2022-05-07T12:59:31.000Z</time>
      </trkpt>
      <trkpt lat="45.07471" lon="5.06912">
        <ele>182.2</ele>
        <time>2022-05-07T12:59:32.000Z</time>
      </trkpt>
      <trkpt lat="45.0747" lon="5.06905">
        <ele>182.4</ele>
        <time>2022-05-07T12:59:33.000Z</time>
      </trkpt>
      <trkpt lat="45.07468" lon="5.06899">
        <ele>182.6</ele>
        <time>2022-05-07T12:59:34.000Z</time>
      </trkpt>
      <trkpt lat="45.07467" lon="5.06892">
        <ele>182.7</ele>
        <time>2022-05-07T12:59:35.000Z</time>
      </trkpt>
      <trkpt lat="45.07466" lon="5.06886">
        <ele>182.8</ele>
        <time>2022-05-07T12:59:36.000Z</time>
      </trkpt>
      <trkpt lat="45.07465" lon="5.06879">
        <ele>182.7</ele>
        <time>2022-05-07T12:59:37.000Z</time>
      </trkpt>
      <trkpt lat="45.07464" lon="5.06873">
        <ele>182.7</ele>
        <time>2022-05-07T12:59:38.000Z</time>
      </trkpt>
      <trkpt lat="45.07463" lon="5.06867">
        <ele>182.7</ele>
        <time>2022-05-07T12:59:39.000Z</time>
      </trkpt>
      <trkpt lat="45.07462" lon="5.0686">
        <ele>182.6</ele>
        <time>2022-05-07T12:59:40.000Z</time>
      </trkpt>
      <trkpt lat="45.07461" lon="5.06854">
        <ele>182.6</ele>
        <time>2022-05-07T12:59:41.000Z</time>
      </trkpt>
      <trkpt lat="45.0746" lon="5.06848">
        <ele>182.6</ele>
        <time>2022-05-07T12:59:42.000Z</time>
      </trkpt>
      <trkpt lat="45.07459" lon="5.06842">
        <ele>182.5</ele>
        <time>2022-05-07T12:59:43.000Z</time>
      </trkpt>
      <trkpt lat="45.07459" lon="5.06835">
        <ele>182.5</ele>
        <time>2022-05-07T12:59:44.000Z</time>
      </trkpt>
      <trkpt lat="45.07457" lon="5.06829">
        <ele>182.5</ele>
        <time>2022-05-07T12:59:45.000Z</time>
      </trkpt>
      <trkpt lat="45.07456" lon="5.06823">
        <ele>182.6</ele>
        <time>2022-05-07T12:59:46.000Z</time>
      </trkpt>
      <trkpt lat="45.07455" lon="5.06817">
        <ele>182.7</ele>
        <time>2022-05-07T12:59:47.000Z</time>
      </trkpt>
      <trkpt lat="45.07454" lon="5.06811">
        <ele>182.9</ele>
        <time>2022-05-07T12:59:48.000Z</time>
      </trkpt>
      <trkpt lat="45.07453" lon="5.06804">
        <ele>183</ele>
        <time>2022-05-07T12:59:49.000Z</time>
      </trkpt>
      <trkpt lat="45.07452" lon="5.06798">
        <ele>183.1</ele>
        <time>2022-05-07T12:59:50.000Z</time>
      </trkpt>
      <trkpt lat="45.07451" lon="5.06793">
        <ele>183.1</ele>
        <time>2022-05-07T12:59:51.000Z</time>
      </trkpt>
      <trkpt lat="45.0745" lon="5.06788">
        <ele>183.1</ele>
        <time>2022-05-07T12:59:52.000Z</time>
      </trkpt>
      <trkpt lat="45.07449" lon="5.06783">
        <ele>183.1</ele>
        <time>2022-05-07T12:59:53.000Z</time>
      </trkpt>
      <trkpt lat="45.07448" lon="5.06777">
        <ele>183.1</ele>
        <time>2022-05-07T12:59:54.000Z</time>
      </trkpt>
      <trkpt lat="45.07447" lon="5.06771">
        <ele>183.1</ele>
        <time>2022-05-07T12:59:55.000Z</time>
      </trkpt>
      <trkpt lat="45.07445" lon="5.06764">
        <ele>183</ele>
        <time>2022-05-07T12:59:56.000Z</time>
      </trkpt>
      <trkpt lat="45.07444" lon="5.06758">
        <ele>183</ele>
        <time>2022-05-07T12:59:57.000Z</time>
      </trkpt>
      <trkpt lat="45.07442" lon="5.06751">
        <ele>183</ele>
        <time>2022-05-07T12:59:58.000Z</time>
      </trkpt>
      <trkpt lat="45.0744" lon="5.06744">
        <ele>182.8</ele>
        <time>2022-05-07T12:59:59.000Z</time>
      </trkpt>
      <trkpt lat="45.07438" lon="5.06737">
        <ele>182.5</ele>
        <time>2022-05-07T13:00:00.000Z</time>
      </trkpt>
      <trkpt lat="45.07436" lon="5.06728">
        <ele>182.2</ele>
        <time>2022-05-07T13:00:01.000Z</time>
      </trkpt>
      <trkpt lat="45.07434" lon="5.0672">
        <ele>181.9</ele>
        <time>2022-05-07T13:00:02.000Z</time>
      </trkpt>
      <trkpt lat="45.07431" lon="5.06711">
        <ele>181.6</ele>
        <time>2022-05-07T13:00:03.000Z</time>
      </trkpt>
      <trkpt lat="45.07429" lon="5.06701">
        <ele>181.2</ele>
        <time>2022-05-07T13:00:04.000Z</time>
      </trkpt>
      <trkpt lat="45.07427" lon="5.06692">
        <ele>180.9</ele>
        <time>2022-05-07T13:00:05.000Z</time>
      </trkpt>
      <trkpt lat="45.07425" lon="5.06682">
        <ele>180.5</ele>
        <time>2022-05-07T13:00:06.000Z</time>
      </trkpt>
      <trkpt lat="45.07422" lon="5.06671">
        <ele>180.1</ele>
        <time>2022-05-07T13:00:07.000Z</time>
      </trkpt>
      <trkpt lat="45.0742" lon="5.0666">
        <ele>180</ele>
        <time>2022-05-07T13:00:08.000Z</time>
      </trkpt>
      <trkpt lat="45.07417" lon="5.06649">
        <ele>180</ele>
        <time>2022-05-07T13:00:09.000Z</time>
      </trkpt>
      <trkpt lat="45.07414" lon="5.06638">
        <ele>179.8</ele>
        <time>2022-05-07T13:00:10.000Z</time>
      </trkpt>
      <trkpt lat="45.07412" lon="5.06627">
        <ele>179.6</ele>
        <time>2022-05-07T13:00:11.000Z</time>
      </trkpt>
      <trkpt lat="45.07409" lon="5.06615">
        <ele>179.5</ele>
        <time>2022-05-07T13:00:12.000Z</time>
      </trkpt>
      <trkpt lat="45.07407" lon="5.06604">
        <ele>179.1</ele>
        <time>2022-05-07T13:00:13.000Z</time>
      </trkpt>
      <trkpt lat="45.07404" lon="5.06592">
        <ele>178.7</ele>
        <time>2022-05-07T13:00:14.000Z</time>
      </trkpt>
      <trkpt lat="45.07402" lon="5.06581">
        <ele>178.5</ele>
        <time>2022-05-07T13:00:15.000Z</time>
      </trkpt>
      <trkpt lat="45.07399" lon="5.06569">
        <ele>178.7</ele>
        <time>2022-05-07T13:00:16.000Z</time>
      </trkpt>
      <trkpt lat="45.07397" lon="5.06557">
        <ele>179</ele>
        <time>2022-05-07T13:00:17.000Z</time>
      </trkpt>
      <trkpt lat="45.07394" lon="5.06546">
        <ele>178.9</ele>
        <time>2022-05-07T13:00:18.000Z</time>
      </trkpt>
      <trkpt lat="45.07391" lon="5.06535">
        <ele>178.9</ele>
        <time>2022-05-07T13:00:19.000Z</time>
      </trkpt>
      <trkpt lat="45.07389" lon="5.06523">
        <ele>179</ele>
        <time>2022-05-07T13:00:20.000Z</time>
      </trkpt>
      <trkpt lat="45.07387" lon="5.06512">
        <ele>178.9</ele>
        <time>2022-05-07T13:00:21.000Z</time>
      </trkpt>
      <trkpt lat="45.07385" lon="5.06501">
        <ele>178.7</ele>
        <time>2022-05-07T13:00:22.000Z</time>
      </trkpt>
      <trkpt lat="45.07382" lon="5.06489">
        <ele>178.6</ele>
        <time>2022-05-07T13:00:23.000Z</time>
      </trkpt>
      <trkpt lat="45.0738" lon="5.06478">
        <ele>178.6</ele>
        <time>2022-05-07T13:00:24.000Z</time>
      </trkpt>
      <trkpt lat="45.07377" lon="5.06467">
        <ele>178.7</ele>
        <time>2022-05-07T13:00:25.000Z</time>
      </trkpt>
      <trkpt lat="45.07374" lon="5.06456">
        <ele>178.8</ele>
        <time>2022-05-07T13:00:26.000Z</time>
      </trkpt>
      <trkpt lat="45.07372" lon="5.06445">
        <ele>178.7</ele>
        <time>2022-05-07T13:00:27.000Z</time>
      </trkpt>
      <trkpt lat="45.07369" lon="5.06434">
        <ele>179.1</ele>
        <time>2022-05-07T13:00:28.000Z</time>
      </trkpt>
      <trkpt lat="45.07366" lon="5.06423">
        <ele>179.6</ele>
        <time>2022-05-07T13:00:29.000Z</time>
      </trkpt>
      <trkpt lat="45.07363" lon="5.06412">
        <ele>180</ele>
        <time>2022-05-07T13:00:30.000Z</time>
      </trkpt>
      <trkpt lat="45.07361" lon="5.06402">
        <ele>179.9</ele>
        <time>2022-05-07T13:00:31.000Z</time>
      </trkpt>
      <trkpt lat="45.07358" lon="5.06391">
        <ele>179.7</ele>
        <time>2022-05-07T13:00:32.000Z</time>
      </trkpt>
      <trkpt lat="45.07356" lon="5.06381">
        <ele>179.2</ele>
        <time>2022-05-07T13:00:33.000Z</time>
      </trkpt>
      <trkpt lat="45.07353" lon="5.0637">
        <ele>178.8</ele>
        <time>2022-05-07T13:00:34.000Z</time>
      </trkpt>
      <trkpt lat="45.0735" lon="5.0636">
        <ele>178.7</ele>
        <time>2022-05-07T13:00:35.000Z</time>
      </trkpt>
      <trkpt lat="45.07348" lon="5.06351">
        <ele>179.4</ele>
        <time>2022-05-07T13:00:36.000Z</time>
      </trkpt>
      <trkpt lat="45.07346" lon="5.06343">
        <ele>180.2</ele>
        <time>2022-05-07T13:00:37.000Z</time>
      </trkpt>
      <trkpt lat="45.07344" lon="5.06335">
        <ele>181</ele>
        <time>2022-05-07T13:00:38.000Z</time>
      </trkpt>
      <trkpt lat="45.07343" lon="5.06328">
        <ele>181.2</ele>
        <time>2022-05-07T13:00:39.000Z</time>
      </trkpt>
      <trkpt lat="45.07341" lon="5.06322">
        <ele>181.3</ele>
        <time>2022-05-07T13:00:40.000Z</time>
      </trkpt>
      <trkpt lat="45.07339" lon="5.06315">
        <ele>181.2</ele>
        <time>2022-05-07T13:00:41.000Z</time>
      </trkpt>
      <trkpt lat="45.07337" lon="5.06307">
        <ele>181</ele>
        <time>2022-05-07T13:00:42.000Z</time>
      </trkpt>
      <trkpt lat="45.07335" lon="5.06297">
        <ele>181</ele>
        <time>2022-05-07T13:00:43.000Z</time>
      </trkpt>
      <trkpt lat="45.07332" lon="5.06288">
        <ele>180.9</ele>
        <time>2022-05-07T13:00:44.000Z</time>
      </trkpt>
      <trkpt lat="45.0733" lon="5.06279">
        <ele>180.7</ele>
        <time>2022-05-07T13:00:45.000Z</time>
      </trkpt>
      <trkpt lat="45.07327" lon="5.06269">
        <ele>180.1</ele>
        <time>2022-05-07T13:00:46.000Z</time>
      </trkpt>
      <trkpt lat="45.07324" lon="5.06259">
        <ele>179.6</ele>
        <time>2022-05-07T13:00:47.000Z</time>
      </trkpt>
      <trkpt lat="45.07321" lon="5.06248">
        <ele>179.4</ele>
        <time>2022-05-07T13:00:48.000Z</time>
      </trkpt>
      <trkpt lat="45.07319" lon="5.06238">
        <ele>179.5</ele>
        <time>2022-05-07T13:00:49.000Z</time>
      </trkpt>
      <trkpt lat="45.07316" lon="5.06228">
        <ele>179.6</ele>
        <time>2022-05-07T13:00:50.000Z</time>
      </trkpt>
      <trkpt lat="45.07314" lon="5.06219">
        <ele>179.7</ele>
        <time>2022-05-07T13:00:51.000Z</time>
      </trkpt>
      <trkpt lat="45.07312" lon="5.0621">
        <ele>179.9</ele>
        <time>2022-05-07T13:00:52.000Z</time>
      </trkpt>
      <trkpt lat="45.07309" lon="5.06201">
        <ele>180</ele>
        <time>2022-05-07T13:00:53.000Z</time>
      </trkpt>
      <trkpt lat="45.07307" lon="5.06192">
        <ele>180</ele>
        <time>2022-05-07T13:00:54.000Z</time>
      </trkpt>
      <trkpt lat="45.07304" lon="5.06183">
        <ele>179.9</ele>
        <time>2022-05-07T13:00:55.000Z</time>
      </trkpt>
      <trkpt lat="45.07301" lon="5.06174">
        <ele>179.8</ele>
        <time>2022-05-07T13:00:56.000Z</time>
      </trkpt>
      <trkpt lat="45.07298" lon="5.06166">
        <ele>179.7</ele>
        <time>2022-05-07T13:00:57.000Z</time>
      </trkpt>
      <trkpt lat="45.07295" lon="5.06157">
        <ele>179.6</ele>
        <time>2022-05-07T13:00:58.000Z</time>
      </trkpt>
      <trkpt lat="45.07292" lon="5.06148">
        <ele>179.5</ele>
        <time>2022-05-07T13:00:59.000Z</time>
      </trkpt>
      <trkpt lat="45.0729" lon="5.06138">
        <ele>179.4</ele>
        <time>2022-05-07T13:01:00.000Z</time>
      </trkpt>
      <trkpt lat="45.07287" lon="5.06129">
        <ele>179.6</ele>
        <time>2022-05-07T13:01:01.000Z</time>
      </trkpt>
      <trkpt lat="45.07285" lon="5.0612">
        <ele>179.8</ele>
        <time>2022-05-07T13:01:02.000Z</time>
      </trkpt>
      <trkpt lat="45.07282" lon="5.0611">
        <ele>180</ele>
        <time>2022-05-07T13:01:03.000Z</time>
      </trkpt>
      <trkpt lat="45.07279" lon="5.061">
        <ele>180.4</ele>
        <time>2022-05-07T13:01:04.000Z</time>
      </trkpt>
      <trkpt lat="45.07276" lon="5.0609">
        <ele>180.7</ele>
        <time>2022-05-07T13:01:05.000Z</time>
      </trkpt>
      <trkpt lat="45.07274" lon="5.0608">
        <ele>180.7</ele>
        <time>2022-05-07T13:01:06.000Z</time>
      </trkpt>
      <trkpt lat="45.07271" lon="5.06071">
        <ele>180.6</ele>
        <time>2022-05-07T13:01:07.000Z</time>
      </trkpt>
      <trkpt lat="45.07268" lon="5.06061">
        <ele>180.6</ele>
        <time>2022-05-07T13:01:08.000Z</time>
      </trkpt>
      <trkpt lat="45.07266" lon="5.06053">
        <ele>180.5</ele>
        <time>2022-05-07T13:01:09.000Z</time>
      </trkpt>
      <trkpt lat="45.07263" lon="5.06044">
        <ele>180.3</ele>
        <time>2022-05-07T13:01:10.000Z</time>
      </trkpt>
      <trkpt lat="45.0726" lon="5.06035">
        <ele>180.3</ele>
        <time>2022-05-07T13:01:11.000Z</time>
      </trkpt>
      <trkpt lat="45.07257" lon="5.06026">
        <ele>180.5</ele>
        <time>2022-05-07T13:01:12.000Z</time>
      </trkpt>
      <trkpt lat="45.07255" lon="5.06018">
        <ele>181.1</ele>
        <time>2022-05-07T13:01:13.000Z</time>
      </trkpt>
      <trkpt lat="45.07252" lon="5.06009">
        <ele>181.6</ele>
        <time>2022-05-07T13:01:14.000Z</time>
      </trkpt>
      <trkpt lat="45.0725" lon="5.06002">
        <ele>181.9</ele>
        <time>2022-05-07T13:01:15.000Z</time>
      </trkpt>
      <trkpt lat="45.07247" lon="5.05994">
        <ele>182</ele>
        <time>2022-05-07T13:01:16.000Z</time>
      </trkpt>
      <trkpt lat="45.07246" lon="5.05987">
        <ele>182.2</ele>
        <time>2022-05-07T13:01:17.000Z</time>
      </trkpt>
      <trkpt lat="45.07244" lon="5.0598">
        <ele>182.3</ele>
        <time>2022-05-07T13:01:18.000Z</time>
      </trkpt>
      <trkpt lat="45.07242" lon="5.05973">
        <ele>182.4</ele>
        <time>2022-05-07T13:01:19.000Z</time>
      </trkpt>
      <trkpt lat="45.0724" lon="5.05966">
        <ele>182.3</ele>
        <time>2022-05-07T13:01:20.000Z</time>
      </trkpt>
      <trkpt lat="45.07238" lon="5.0596">
        <ele>182.4</ele>
        <time>2022-05-07T13:01:21.000Z</time>
      </trkpt>
      <trkpt lat="45.07237" lon="5.05952">
        <ele>182.4</ele>
        <time>2022-05-07T13:01:22.000Z</time>
      </trkpt>
      <trkpt lat="45.07235" lon="5.05945">
        <ele>182.4</ele>
        <time>2022-05-07T13:01:23.000Z</time>
      </trkpt>
      <trkpt lat="45.07233" lon="5.05938">
        <ele>182.4</ele>
        <time>2022-05-07T13:01:24.000Z</time>
      </trkpt>
      <trkpt lat="45.07231" lon="5.05931">
        <ele>182.3</ele>
        <time>2022-05-07T13:01:25.000Z</time>
      </trkpt>
      <trkpt lat="45.07229" lon="5.05925">
        <ele>182.3</ele>
        <time>2022-05-07T13:01:26.000Z</time>
      </trkpt>
      <trkpt lat="45.07227" lon="5.05917">
        <ele>182.2</ele>
        <time>2022-05-07T13:01:27.000Z</time>
      </trkpt>
      <trkpt lat="45.07225" lon="5.0591">
        <ele>182.3</ele>
        <time>2022-05-07T13:01:28.000Z</time>
      </trkpt>
      <trkpt lat="45.07222" lon="5.05902">
        <ele>182.5</ele>
        <time>2022-05-07T13:01:29.000Z</time>
      </trkpt>
      <trkpt lat="45.07221" lon="5.05894">
        <ele>182.8</ele>
        <time>2022-05-07T13:01:30.000Z</time>
      </trkpt>
      <trkpt lat="45.0722" lon="5.05886">
        <ele>182.8</ele>
        <time>2022-05-07T13:01:31.000Z</time>
      </trkpt>
      <trkpt lat="45.07219" lon="5.05878">
        <ele>182.5</ele>
        <time>2022-05-07T13:01:32.000Z</time>
      </trkpt>
      <trkpt lat="45.07219" lon="5.0587">
        <ele>182.2</ele>
        <time>2022-05-07T13:01:33.000Z</time>
      </trkpt>
      <trkpt lat="45.07218" lon="5.05862">
        <ele>181.9</ele>
        <time>2022-05-07T13:01:34.000Z</time>
      </trkpt>
      <trkpt lat="45.07217" lon="5.05854">
        <ele>181.8</ele>
        <time>2022-05-07T13:01:35.000Z</time>
      </trkpt>
      <trkpt lat="45.07216" lon="5.05845">
        <ele>181.8</ele>
        <time>2022-05-07T13:01:36.000Z</time>
      </trkpt>
      <trkpt lat="45.07215" lon="5.05837">
        <ele>181.7</ele>
        <time>2022-05-07T13:01:37.000Z</time>
      </trkpt>
      <trkpt lat="45.07214" lon="5.05828">
        <ele>181.6</ele>
        <time>2022-05-07T13:01:38.000Z</time>
      </trkpt>
      <trkpt lat="45.07213" lon="5.0582">
        <ele>181.5</ele>
        <time>2022-05-07T13:01:39.000Z</time>
      </trkpt>
      <trkpt lat="45.07212" lon="5.05811">
        <ele>181.3</ele>
        <time>2022-05-07T13:01:40.000Z</time>
      </trkpt>
      <trkpt lat="45.07211" lon="5.05802">
        <ele>181.3</ele>
        <time>2022-05-07T13:01:41.000Z</time>
      </trkpt>
      <trkpt lat="45.07211" lon="5.05794">
        <ele>181.4</ele>
        <time>2022-05-07T13:01:42.000Z</time>
      </trkpt>
      <trkpt lat="45.0721" lon="5.05785">
        <ele>181.5</ele>
        <time>2022-05-07T13:01:43.000Z</time>
      </trkpt>
      <trkpt lat="45.07209" lon="5.05776">
        <ele>181.5</ele>
        <time>2022-05-07T13:01:44.000Z</time>
      </trkpt>
      <trkpt lat="45.07208" lon="5.05767">
        <ele>181.3</ele>
        <time>2022-05-07T13:01:45.000Z</time>
      </trkpt>
      <trkpt lat="45.07207" lon="5.05758">
        <ele>181</ele>
        <time>2022-05-07T13:01:46.000Z</time>
      </trkpt>
      <trkpt lat="45.07206" lon="5.05748">
        <ele>180.7</ele>
        <time>2022-05-07T13:01:47.000Z</time>
      </trkpt>
      <trkpt lat="45.07206" lon="5.05738">
        <ele>180.8</ele>
        <time>2022-05-07T13:01:48.000Z</time>
      </trkpt>
      <trkpt lat="45.07205" lon="5.05728">
        <ele>180.8</ele>
        <time>2022-05-07T13:01:49.000Z</time>
      </trkpt>
      <trkpt lat="45.07204" lon="5.05718">
        <ele>180.9</ele>
        <time>2022-05-07T13:01:50.000Z</time>
      </trkpt>
      <trkpt lat="45.07204" lon="5.05708">
        <ele>181</ele>
        <time>2022-05-07T13:01:51.000Z</time>
      </trkpt>
      <trkpt lat="45.07203" lon="5.05698">
        <ele>181.1</ele>
        <time>2022-05-07T13:01:52.000Z</time>
      </trkpt>
      <trkpt lat="45.07201" lon="5.05688">
        <ele>181.1</ele>
        <time>2022-05-07T13:01:53.000Z</time>
      </trkpt>
      <trkpt lat="45.07199" lon="5.05678">
        <ele>181.1</ele>
        <time>2022-05-07T13:01:54.000Z</time>
      </trkpt>
      <trkpt lat="45.07197" lon="5.05669">
        <ele>181.2</ele>
        <time>2022-05-07T13:01:55.000Z</time>
      </trkpt>
      <trkpt lat="45.07194" lon="5.05661">
        <ele>181.4</ele>
        <time>2022-05-07T13:01:56.000Z</time>
      </trkpt>
      <trkpt lat="45.07192" lon="5.05652">
        <ele>181.6</ele>
        <time>2022-05-07T13:01:57.000Z</time>
      </trkpt>
      <trkpt lat="45.07189" lon="5.05644">
        <ele>181.7</ele>
        <time>2022-05-07T13:01:58.000Z</time>
      </trkpt>
      <trkpt lat="45.07186" lon="5.05635">
        <ele>181.6</ele>
        <time>2022-05-07T13:01:59.000Z</time>
      </trkpt>
      <trkpt lat="45.07183" lon="5.05628">
        <ele>181.3</ele>
        <time>2022-05-07T13:02:00.000Z</time>
      </trkpt>
      <trkpt lat="45.07181" lon="5.05619">
        <ele>181.2</ele>
        <time>2022-05-07T13:02:01.000Z</time>
      </trkpt>
      <trkpt lat="45.07179" lon="5.0561">
        <ele>181.2</ele>
        <time>2022-05-07T13:02:02.000Z</time>
      </trkpt>
      <trkpt lat="45.07177" lon="5.05601">
        <ele>181.5</ele>
        <time>2022-05-07T13:02:03.000Z</time>
      </trkpt>
      <trkpt lat="45.07174" lon="5.05591">
        <ele>181.8</ele>
        <time>2022-05-07T13:02:04.000Z</time>
      </trkpt>
      <trkpt lat="45.07172" lon="5.05581">
        <ele>182.2</ele>
        <time>2022-05-07T13:02:05.000Z</time>
      </trkpt>
      <trkpt lat="45.07169" lon="5.05572">
        <ele>182.6</ele>
        <time>2022-05-07T13:02:06.000Z</time>
      </trkpt>
      <trkpt lat="45.07165" lon="5.05563">
        <ele>182.9</ele>
        <time>2022-05-07T13:02:07.000Z</time>
      </trkpt>
      <trkpt lat="45.0716" lon="5.05554">
        <ele>182.8</ele>
        <time>2022-05-07T13:02:08.000Z</time>
      </trkpt>
      <trkpt lat="45.07154" lon="5.05547">
        <ele>182.3</ele>
        <time>2022-05-07T13:02:09.000Z</time>
      </trkpt>
      <trkpt lat="45.07148" lon="5.05539">
        <ele>181.8</ele>
        <time>2022-05-07T13:02:10.000Z</time>
      </trkpt>
      <trkpt lat="45.07143" lon="5.05531">
        <ele>181.4</ele>
        <time>2022-05-07T13:02:11.000Z</time>
      </trkpt>
      <trkpt lat="45.07137" lon="5.05524">
        <ele>181.1</ele>
        <time>2022-05-07T13:02:12.000Z</time>
      </trkpt>
      <trkpt lat="45.07131" lon="5.05516">
        <ele>180.8</ele>
        <time>2022-05-07T13:02:13.000Z</time>
      </trkpt>
      <trkpt lat="45.07126" lon="5.05509">
        <ele>180.4</ele>
        <time>2022-05-07T13:02:14.000Z</time>
      </trkpt>
      <trkpt lat="45.0712" lon="5.05499">
        <ele>180</ele>
        <time>2022-05-07T13:02:15.000Z</time>
      </trkpt>
      <trkpt lat="45.07116" lon="5.05489">
        <ele>179.1</ele>
        <time>2022-05-07T13:02:16.000Z</time>
      </trkpt>
      <trkpt lat="45.07111" lon="5.05478">
        <ele>178</ele>
        <time>2022-05-07T13:02:17.000Z</time>
      </trkpt>
      <trkpt lat="45.07106" lon="5.05467">
        <ele>177.4</ele>
        <time>2022-05-07T13:02:18.000Z</time>
      </trkpt>
      <trkpt lat="45.07103" lon="5.05457">
        <ele>177.1</ele>
        <time>2022-05-07T13:02:19.000Z</time>
      </trkpt>
      <trkpt lat="45.07099" lon="5.05447">
        <ele>176.7</ele>
        <time>2022-05-07T13:02:20.000Z</time>
      </trkpt>
      <trkpt lat="45.07096" lon="5.05436">
        <ele>176.3</ele>
        <time>2022-05-07T13:02:21.000Z</time>
      </trkpt>
      <trkpt lat="45.07094" lon="5.05426">
        <ele>176.1</ele>
        <time>2022-05-07T13:02:22.000Z</time>
      </trkpt>
      <trkpt lat="45.07094" lon="5.05416">
        <ele>176.1</ele>
        <time>2022-05-07T13:02:23.000Z</time>
      </trkpt>
      <trkpt lat="45.07094" lon="5.05404">
        <ele>176.2</ele>
        <time>2022-05-07T13:02:24.000Z</time>
      </trkpt>
      <trkpt lat="45.07094" lon="5.05394">
        <ele>176.4</ele>
        <time>2022-05-07T13:02:25.000Z</time>
      </trkpt>
      <trkpt lat="45.07095" lon="5.05383">
        <ele>176.5</ele>
        <time>2022-05-07T13:02:26.000Z</time>
      </trkpt>
      <trkpt lat="45.07096" lon="5.05374">
        <ele>176.7</ele>
        <time>2022-05-07T13:02:27.000Z</time>
      </trkpt>
      <trkpt lat="45.07097" lon="5.05365">
        <ele>176.9</ele>
        <time>2022-05-07T13:02:28.000Z</time>
      </trkpt>
      <trkpt lat="45.07098" lon="5.05357">
        <ele>177</ele>
        <time>2022-05-07T13:02:29.000Z</time>
      </trkpt>
      <trkpt lat="45.07098" lon="5.05348">
        <ele>177.1</ele>
        <time>2022-05-07T13:02:30.000Z</time>
      </trkpt>
      <trkpt lat="45.07098" lon="5.05341">
        <ele>177.1</ele>
        <time>2022-05-07T13:02:31.000Z</time>
      </trkpt>
      <trkpt lat="45.07099" lon="5.05333">
        <ele>177.1</ele>
        <time>2022-05-07T13:02:32.000Z</time>
      </trkpt>
      <trkpt lat="45.071" lon="5.05326">
        <ele>177.6</ele>
        <time>2022-05-07T13:02:33.000Z</time>
      </trkpt>
      <trkpt lat="45.071" lon="5.0532">
        <ele>178</ele>
        <time>2022-05-07T13:02:34.000Z</time>
      </trkpt>
      <trkpt lat="45.07101" lon="5.05314">
        <ele>178.4</ele>
        <time>2022-05-07T13:02:35.000Z</time>
      </trkpt>
      <trkpt lat="45.07101" lon="5.05308">
        <ele>178.7</ele>
        <time>2022-05-07T13:02:36.000Z</time>
      </trkpt>
      <trkpt lat="45.07101" lon="5.05303">
        <ele>178.8</ele>
        <time>2022-05-07T13:02:37.000Z</time>
      </trkpt>
      <trkpt lat="45.07101" lon="5.05297">
        <ele>178.6</ele>
        <time>2022-05-07T13:02:38.000Z</time>
      </trkpt>
      <trkpt lat="45.07101" lon="5.05292">
        <ele>178.3</ele>
        <time>2022-05-07T13:02:39.000Z</time>
      </trkpt>
      <trkpt lat="45.07099" lon="5.05287">
        <ele>178</ele>
        <time>2022-05-07T13:02:40.000Z</time>
      </trkpt>
      <trkpt lat="45.07098" lon="5.05281">
        <ele>177.6</ele>
        <time>2022-05-07T13:02:41.000Z</time>
      </trkpt>
      <trkpt lat="45.07096" lon="5.05275">
        <ele>177.5</ele>
        <time>2022-05-07T13:02:42.000Z</time>
      </trkpt>
      <trkpt lat="45.07094" lon="5.05268">
        <ele>177.5</ele>
        <time>2022-05-07T13:02:43.000Z</time>
      </trkpt>
      <trkpt lat="45.07091" lon="5.05262">
        <ele>177.4</ele>
        <time>2022-05-07T13:02:44.000Z</time>
      </trkpt>
      <trkpt lat="45.07088" lon="5.05255">
        <ele>177.3</ele>
        <time>2022-05-07T13:02:45.000Z</time>
      </trkpt>
      <trkpt lat="45.07085" lon="5.05249">
        <ele>177.1</ele>
        <time>2022-05-07T13:02:46.000Z</time>
      </trkpt>
      <trkpt lat="45.07081" lon="5.05243">
        <ele>177.2</ele>
        <time>2022-05-07T13:02:47.000Z</time>
      </trkpt>
      <trkpt lat="45.07079" lon="5.05238">
        <ele>177.4</ele>
        <time>2022-05-07T13:02:48.000Z</time>
      </trkpt>
      <trkpt lat="45.07076" lon="5.05232">
        <ele>177.5</ele>
        <time>2022-05-07T13:02:49.000Z</time>
      </trkpt>
      <trkpt lat="45.07074" lon="5.05227">
        <ele>177.5</ele>
        <time>2022-05-07T13:02:50.000Z</time>
      </trkpt>
      <trkpt lat="45.07072" lon="5.0522">
        <ele>177.6</ele>
        <time>2022-05-07T13:02:51.000Z</time>
      </trkpt>
      <trkpt lat="45.0707" lon="5.05213">
        <ele>177.5</ele>
        <time>2022-05-07T13:02:52.000Z</time>
      </trkpt>
      <trkpt lat="45.07069" lon="5.05205">
        <ele>177.5</ele>
        <time>2022-05-07T13:02:53.000Z</time>
      </trkpt>
      <trkpt lat="45.07065" lon="5.05198">
        <ele>177.4</ele>
        <time>2022-05-07T13:02:54.000Z</time>
      </trkpt>
      <trkpt lat="45.07063" lon="5.0519">
        <ele>177.3</ele>
        <time>2022-05-07T13:02:55.000Z</time>
      </trkpt>
      <trkpt lat="45.0706" lon="5.05183">
        <ele>177.2</ele>
        <time>2022-05-07T13:02:56.000Z</time>
      </trkpt>
      <trkpt lat="45.07057" lon="5.05176">
        <ele>177.1</ele>
        <time>2022-05-07T13:02:57.000Z</time>
      </trkpt>
      <trkpt lat="45.07054" lon="5.05169">
        <ele>176.9</ele>
        <time>2022-05-07T13:02:58.000Z</time>
      </trkpt>
      <trkpt lat="45.0705" lon="5.05162">
        <ele>176.6</ele>
        <time>2022-05-07T13:02:59.000Z</time>
      </trkpt>
      <trkpt lat="45.07047" lon="5.05154">
        <ele>176.3</ele>
        <time>2022-05-07T13:03:00.000Z</time>
      </trkpt>
      <trkpt lat="45.07044" lon="5.05146">
        <ele>176.1</ele>
        <time>2022-05-07T13:03:01.000Z</time>
      </trkpt>
      <trkpt lat="45.07042" lon="5.05139">
        <ele>176</ele>
        <time>2022-05-07T13:03:02.000Z</time>
      </trkpt>
      <trkpt lat="45.07039" lon="5.05132">
        <ele>175.8</ele>
        <time>2022-05-07T13:03:03.000Z</time>
      </trkpt>
      <trkpt lat="45.07038" lon="5.05123">
        <ele>175.8</ele>
        <time>2022-05-07T13:03:04.000Z</time>
      </trkpt>
      <trkpt lat="45.07038" lon="5.05115">
        <ele>175.7</ele>
        <time>2022-05-07T13:03:05.000Z</time>
      </trkpt>
      <trkpt lat="45.07038" lon="5.05106">
        <ele>175.7</ele>
        <time>2022-05-07T13:03:06.000Z</time>
      </trkpt>
      <trkpt lat="45.07038" lon="5.05098">
        <ele>175.6</ele>
        <time>2022-05-07T13:03:07.000Z</time>
      </trkpt>
      <trkpt lat="45.07037" lon="5.05091">
        <ele>175.4</ele>
        <time>2022-05-07T13:03:08.000Z</time>
      </trkpt>
      <trkpt lat="45.07034" lon="5.05085">
        <ele>175.3</ele>
        <time>2022-05-07T13:03:09.000Z</time>
      </trkpt>
      <trkpt lat="45.07031" lon="5.05079">
        <ele>175.1</ele>
        <time>2022-05-07T13:03:10.000Z</time>
      </trkpt>
      <trkpt lat="45.07028" lon="5.05071">
        <ele>175</ele>
        <time>2022-05-07T13:03:11.000Z</time>
      </trkpt>
      <trkpt lat="45.07025" lon="5.05063">
        <ele>174.9</ele>
        <time>2022-05-07T13:03:12.000Z</time>
      </trkpt>
      <trkpt lat="45.07023" lon="5.05054">
        <ele>174.8</ele>
        <time>2022-05-07T13:03:13.000Z</time>
      </trkpt>
      <trkpt lat="45.07021" lon="5.05045">
        <ele>174.8</ele>
        <time>2022-05-07T13:03:14.000Z</time>
      </trkpt>
      <trkpt lat="45.07019" lon="5.05036">
        <ele>174.7</ele>
        <time>2022-05-07T13:03:15.000Z</time>
      </trkpt>
      <trkpt lat="45.07017" lon="5.05027">
        <ele>174.6</ele>
        <time>2022-05-07T13:03:16.000Z</time>
      </trkpt>
      <trkpt lat="45.07014" lon="5.05017">
        <ele>174.3</ele>
        <time>2022-05-07T13:03:17.000Z</time>
      </trkpt>
      <trkpt lat="45.07012" lon="5.05008">
        <ele>174</ele>
        <time>2022-05-07T13:03:18.000Z</time>
      </trkpt>
      <trkpt lat="45.07009" lon="5.04998">
        <ele>173.6</ele>
        <time>2022-05-07T13:03:19.000Z</time>
      </trkpt>
      <trkpt lat="45.07006" lon="5.04989">
        <ele>173.3</ele>
        <time>2022-05-07T13:03:20.000Z</time>
      </trkpt>
      <trkpt lat="45.07003" lon="5.0498">
        <ele>173.2</ele>
        <time>2022-05-07T13:03:21.000Z</time>
      </trkpt>
      <trkpt lat="45.07001" lon="5.04971">
        <ele>173</ele>
        <time>2022-05-07T13:03:22.000Z</time>
      </trkpt>
      <trkpt lat="45.06998" lon="5.04962">
        <ele>172.9</ele>
        <time>2022-05-07T13:03:23.000Z</time>
      </trkpt>
      <trkpt lat="45.06996" lon="5.04953">
        <ele>172.9</ele>
        <time>2022-05-07T13:03:24.000Z</time>
      </trkpt>
      <trkpt lat="45.06995" lon="5.04944">
        <ele>172.8</ele>
        <time>2022-05-07T13:03:25.000Z</time>
      </trkpt>
      <trkpt lat="45.06993" lon="5.04935">
        <ele>172.8</ele>
        <time>2022-05-07T13:03:26.000Z</time>
      </trkpt>
      <trkpt lat="45.0699" lon="5.04927">
        <ele>172.9</ele>
        <time>2022-05-07T13:03:27.000Z</time>
      </trkpt>
      <trkpt lat="45.06988" lon="5.04917">
        <ele>173</ele>
        <time>2022-05-07T13:03:28.000Z</time>
      </trkpt>
      <trkpt lat="45.06987" lon="5.04908">
        <ele>172.8</ele>
        <time>2022-05-07T13:03:29.000Z</time>
      </trkpt>
      <trkpt lat="45.06985" lon="5.04899">
        <ele>172.7</ele>
        <time>2022-05-07T13:03:30.000Z</time>
      </trkpt>
      <trkpt lat="45.06984" lon="5.04891">
        <ele>172.5</ele>
        <time>2022-05-07T13:03:31.000Z</time>
      </trkpt>
      <trkpt lat="45.06982" lon="5.04882">
        <ele>172.4</ele>
        <time>2022-05-07T13:03:32.000Z</time>
      </trkpt>
      <trkpt lat="45.06981" lon="5.04873">
        <ele>172.3</ele>
        <time>2022-05-07T13:03:33.000Z</time>
      </trkpt>
      <trkpt lat="45.06979" lon="5.04863">
        <ele>172.2</ele>
        <time>2022-05-07T13:03:34.000Z</time>
      </trkpt>
      <trkpt lat="45.06977" lon="5.04854">
        <ele>172.2</ele>
        <time>2022-05-07T13:03:35.000Z</time>
      </trkpt>
      <trkpt lat="45.06976" lon="5.04845">
        <ele>172.1</ele>
        <time>2022-05-07T13:03:36.000Z</time>
      </trkpt>
      <trkpt lat="45.06974" lon="5.04837">
        <ele>172.1</ele>
        <time>2022-05-07T13:03:37.000Z</time>
      </trkpt>
      <trkpt lat="45.06973" lon="5.04826">
        <ele>172.3</ele>
        <time>2022-05-07T13:03:38.000Z</time>
      </trkpt>
      <trkpt lat="45.06972" lon="5.04816">
        <ele>172.6</ele>
        <time>2022-05-07T13:03:39.000Z</time>
      </trkpt>
      <trkpt lat="45.06971" lon="5.04806">
        <ele>172.9</ele>
        <time>2022-05-07T13:03:40.000Z</time>
      </trkpt>
      <trkpt lat="45.06969" lon="5.04796">
        <ele>172.8</ele>
        <time>2022-05-07T13:03:41.000Z</time>
      </trkpt>
      <trkpt lat="45.06968" lon="5.04788">
        <ele>172.7</ele>
        <time>2022-05-07T13:03:42.000Z</time>
      </trkpt>
      <trkpt lat="45.06966" lon="5.04779">
        <ele>172.6</ele>
        <time>2022-05-07T13:03:43.000Z</time>
      </trkpt>
      <trkpt lat="45.06965" lon="5.0477">
        <ele>172.5</ele>
        <time>2022-05-07T13:03:44.000Z</time>
      </trkpt>
      <trkpt lat="45.06964" lon="5.04762">
        <ele>172.4</ele>
        <time>2022-05-07T13:03:45.000Z</time>
      </trkpt>
      <trkpt lat="45.06963" lon="5.04754">
        <ele>172.4</ele>
        <time>2022-05-07T13:03:46.000Z</time>
      </trkpt>
      <trkpt lat="45.06962" lon="5.04745">
        <ele>172.4</ele>
        <time>2022-05-07T13:03:47.000Z</time>
      </trkpt>
      <trkpt lat="45.06961" lon="5.04737">
        <ele>172.5</ele>
        <time>2022-05-07T13:03:48.000Z</time>
      </trkpt>
      <trkpt lat="45.0696" lon="5.04728">
        <ele>172.6</ele>
        <time>2022-05-07T13:03:49.000Z</time>
      </trkpt>
      <trkpt lat="45.06959" lon="5.0472">
        <ele>172.6</ele>
        <time>2022-05-07T13:03:50.000Z</time>
      </trkpt>
      <trkpt lat="45.06959" lon="5.04712">
        <ele>172.5</ele>
        <time>2022-05-07T13:03:51.000Z</time>
      </trkpt>
      <trkpt lat="45.06958" lon="5.04704">
        <ele>172.4</ele>
        <time>2022-05-07T13:03:52.000Z</time>
      </trkpt>
      <trkpt lat="45.06957" lon="5.04696">
        <ele>172.3</ele>
        <time>2022-05-07T13:03:53.000Z</time>
      </trkpt>
      <trkpt lat="45.06956" lon="5.04688">
        <ele>172.5</ele>
        <time>2022-05-07T13:03:54.000Z</time>
      </trkpt>
      <trkpt lat="45.06955" lon="5.0468">
        <ele>172.8</ele>
        <time>2022-05-07T13:03:55.000Z</time>
      </trkpt>
      <trkpt lat="45.06955" lon="5.04672">
        <ele>173.1</ele>
        <time>2022-05-07T13:03:56.000Z</time>
      </trkpt>
      <trkpt lat="45.06954" lon="5.04664">
        <ele>173.4</ele>
        <time>2022-05-07T13:03:57.000Z</time>
      </trkpt>
      <trkpt lat="45.06953" lon="5.04656">
        <ele>173.4</ele>
        <time>2022-05-07T13:03:58.000Z</time>
      </trkpt>
      <trkpt lat="45.06952" lon="5.04647">
        <ele>173.4</ele>
        <time>2022-05-07T13:03:59.000Z</time>
      </trkpt>
      <trkpt lat="45.06951" lon="5.04639">
        <ele>173.4</ele>
        <time>2022-05-07T13:04:00.000Z</time>
      </trkpt>
      <trkpt lat="45.0695" lon="5.04631">
        <ele>173.7</ele>
        <time>2022-05-07T13:04:01.000Z</time>
      </trkpt>
      <trkpt lat="45.06948" lon="5.04623">
        <ele>173.8</ele>
        <time>2022-05-07T13:04:02.000Z</time>
      </trkpt>
      <trkpt lat="45.06946" lon="5.04615">
        <ele>174</ele>
        <time>2022-05-07T13:04:03.000Z</time>
      </trkpt>
      <trkpt lat="45.06944" lon="5.04608">
        <ele>174.5</ele>
        <time>2022-05-07T13:04:04.000Z</time>
      </trkpt>
      <trkpt lat="45.06942" lon="5.04601">
        <ele>175.1</ele>
        <time>2022-05-07T13:04:05.000Z</time>
      </trkpt>
      <trkpt lat="45.06938" lon="5.04593">
        <ele>175.5</ele>
        <time>2022-05-07T13:04:06.000Z</time>
      </trkpt>
      <trkpt lat="45.06936" lon="5.04586">
        <ele>175.9</ele>
        <time>2022-05-07T13:04:07.000Z</time>
      </trkpt>
      <trkpt lat="45.06933" lon="5.04578">
        <ele>175.7</ele>
        <time>2022-05-07T13:04:08.000Z</time>
      </trkpt>
      <trkpt lat="45.0693" lon="5.04571">
        <ele>175.4</ele>
        <time>2022-05-07T13:04:09.000Z</time>
      </trkpt>
      <trkpt lat="45.06928" lon="5.04564">
        <ele>175.1</ele>
        <time>2022-05-07T13:04:10.000Z</time>
      </trkpt>
      <trkpt lat="45.06925" lon="5.04556">
        <ele>174.7</ele>
        <time>2022-05-07T13:04:11.000Z</time>
      </trkpt>
      <trkpt lat="45.06923" lon="5.04549">
        <ele>175</ele>
        <time>2022-05-07T13:04:12.000Z</time>
      </trkpt>
      <trkpt lat="45.0692" lon="5.04541">
        <ele>175.2</ele>
        <time>2022-05-07T13:04:13.000Z</time>
      </trkpt>
      <trkpt lat="45.06918" lon="5.04533">
        <ele>175.6</ele>
        <time>2022-05-07T13:04:14.000Z</time>
      </trkpt>
      <trkpt lat="45.06916" lon="5.04526">
        <ele>176</ele>
        <time>2022-05-07T13:04:15.000Z</time>
      </trkpt>
      <trkpt lat="45.06913" lon="5.04519">
        <ele>176.3</ele>
        <time>2022-05-07T13:04:16.000Z</time>
      </trkpt>
      <trkpt lat="45.06911" lon="5.04512">
        <ele>176.5</ele>
        <time>2022-05-07T13:04:17.000Z</time>
      </trkpt>
      <trkpt lat="45.06909" lon="5.04504">
        <ele>176.7</ele>
        <time>2022-05-07T13:04:18.000Z</time>
      </trkpt>
      <trkpt lat="45.06908" lon="5.04497">
        <ele>176.9</ele>
        <time>2022-05-07T13:04:19.000Z</time>
      </trkpt>
      <trkpt lat="45.06906" lon="5.04489">
        <ele>176.9</ele>
        <time>2022-05-07T13:04:20.000Z</time>
      </trkpt>
      <trkpt lat="45.06905" lon="5.04481">
        <ele>177.2</ele>
        <time>2022-05-07T13:04:21.000Z</time>
      </trkpt>
      <trkpt lat="45.06904" lon="5.04473">
        <ele>177.3</ele>
        <time>2022-05-07T13:04:22.000Z</time>
      </trkpt>
      <trkpt lat="45.06903" lon="5.04465">
        <ele>177.1</ele>
        <time>2022-05-07T13:04:23.000Z</time>
      </trkpt>
      <trkpt lat="45.06902" lon="5.04456">
        <ele>177.1</ele>
        <time>2022-05-07T13:04:24.000Z</time>
      </trkpt>
      <trkpt lat="45.06901" lon="5.04447">
        <ele>176.9</ele>
        <time>2022-05-07T13:04:25.000Z</time>
      </trkpt>
      <trkpt lat="45.06899" lon="5.04439">
        <ele>176.9</ele>
        <time>2022-05-07T13:04:26.000Z</time>
      </trkpt>
      <trkpt lat="45.06898" lon="5.04431">
        <ele>177</ele>
        <time>2022-05-07T13:04:27.000Z</time>
      </trkpt>
      <trkpt lat="45.06897" lon="5.04424">
        <ele>176.9</ele>
        <time>2022-05-07T13:04:28.000Z</time>
      </trkpt>
      <trkpt lat="45.06895" lon="5.04417">
        <ele>176.8</ele>
        <time>2022-05-07T13:04:29.000Z</time>
      </trkpt>
      <trkpt lat="45.06894" lon="5.0441">
        <ele>176.3</ele>
        <time>2022-05-07T13:04:30.000Z</time>
      </trkpt>
      <trkpt lat="45.06893" lon="5.04402">
        <ele>176</ele>
        <time>2022-05-07T13:04:31.000Z</time>
      </trkpt>
      <trkpt lat="45.06892" lon="5.04395">
        <ele>175.8</ele>
        <time>2022-05-07T13:04:32.000Z</time>
      </trkpt>
      <trkpt lat="45.06892" lon="5.04387">
        <ele>175.7</ele>
        <time>2022-05-07T13:04:33.000Z</time>
      </trkpt>
      <trkpt lat="45.06893" lon="5.0438">
        <ele>175.5</ele>
        <time>2022-05-07T13:04:34.000Z</time>
      </trkpt>
      <trkpt lat="45.06893" lon="5.04374">
        <ele>175.3</ele>
        <time>2022-05-07T13:04:35.000Z</time>
      </trkpt>
      <trkpt lat="45.06894" lon="5.04368">
        <ele>175.2</ele>
        <time>2022-05-07T13:04:36.000Z</time>
      </trkpt>
      <trkpt lat="45.06895" lon="5.04361">
        <ele>175.1</ele>
        <time>2022-05-07T13:04:37.000Z</time>
      </trkpt>
      <trkpt lat="45.06896" lon="5.04354">
        <ele>175.2</ele>
        <time>2022-05-07T13:04:38.000Z</time>
      </trkpt>
      <trkpt lat="45.06896" lon="5.04347">
        <ele>175.2</ele>
        <time>2022-05-07T13:04:39.000Z</time>
      </trkpt>
      <trkpt lat="45.06896" lon="5.0434">
        <ele>175.1</ele>
        <time>2022-05-07T13:04:40.000Z</time>
      </trkpt>
      <trkpt lat="45.06896" lon="5.04333">
        <ele>175</ele>
        <time>2022-05-07T13:04:41.000Z</time>
      </trkpt>
      <trkpt lat="45.06896" lon="5.04326">
        <ele>174.7</ele>
        <time>2022-05-07T13:04:42.000Z</time>
      </trkpt>
      <trkpt lat="45.06896" lon="5.0432">
        <ele>174.4</ele>
        <time>2022-05-07T13:04:43.000Z</time>
      </trkpt>
      <trkpt lat="45.06896" lon="5.04314">
        <ele>174.1</ele>
        <time>2022-05-07T13:04:44.000Z</time>
      </trkpt>
      <trkpt lat="45.06896" lon="5.04308">
        <ele>173.9</ele>
        <time>2022-05-07T13:04:45.000Z</time>
      </trkpt>
      <trkpt lat="45.06897" lon="5.04302">
        <ele>173.8</ele>
        <time>2022-05-07T13:04:46.000Z</time>
      </trkpt>
      <trkpt lat="45.06896" lon="5.04296">
        <ele>173.7</ele>
        <time>2022-05-07T13:04:47.000Z</time>
      </trkpt>
      <trkpt lat="45.06896" lon="5.04291">
        <ele>173.6</ele>
        <time>2022-05-07T13:04:48.000Z</time>
      </trkpt>
      <trkpt lat="45.06896" lon="5.04285">
        <ele>173.6</ele>
        <time>2022-05-07T13:04:49.000Z</time>
      </trkpt>
      <trkpt lat="45.06896" lon="5.04281">
        <ele>173.5</ele>
        <time>2022-05-07T13:04:50.000Z</time>
      </trkpt>
      <trkpt lat="45.06896" lon="5.04276">
        <ele>173.5</ele>
        <time>2022-05-07T13:04:51.000Z</time>
      </trkpt>
      <trkpt lat="45.06896" lon="5.04271">
        <ele>173.5</ele>
        <time>2022-05-07T13:04:52.000Z</time>
      </trkpt>
      <trkpt lat="45.06896" lon="5.04264">
        <ele>173.4</ele>
        <time>2022-05-07T13:04:53.000Z</time>
      </trkpt>
      <trkpt lat="45.06896" lon="5.04257">
        <ele>173.3</ele>
        <time>2022-05-07T13:04:54.000Z</time>
      </trkpt>
      <trkpt lat="45.06896" lon="5.0425">
        <ele>173.3</ele>
        <time>2022-05-07T13:04:55.000Z</time>
      </trkpt>
      <trkpt lat="45.06896" lon="5.04244">
        <ele>173.3</ele>
        <time>2022-05-07T13:04:56.000Z</time>
      </trkpt>
      <trkpt lat="45.06895" lon="5.04237">
        <ele>173.3</ele>
        <time>2022-05-07T13:04:57.000Z</time>
      </trkpt>
      <trkpt lat="45.06894" lon="5.0423">
        <ele>173.3</ele>
        <time>2022-05-07T13:04:58.000Z</time>
      </trkpt>
      <trkpt lat="45.06894" lon="5.04224">
        <ele>173.3</ele>
        <time>2022-05-07T13:04:59.000Z</time>
      </trkpt>
      <trkpt lat="45.06892" lon="5.04217">
        <ele>173.4</ele>
        <time>2022-05-07T13:05:00.000Z</time>
      </trkpt>
      <trkpt lat="45.0689" lon="5.04207">
        <ele>173.6</ele>
        <time>2022-05-07T13:05:01.000Z</time>
      </trkpt>
      <trkpt lat="45.06887" lon="5.04197">
        <ele>173.7</ele>
        <time>2022-05-07T13:05:02.000Z</time>
      </trkpt>
      <trkpt lat="45.06885" lon="5.04191">
        <ele>173.9</ele>
        <time>2022-05-07T13:05:03.000Z</time>
      </trkpt>
      <trkpt lat="45.06886" lon="5.04187">
        <ele>174.1</ele>
        <time>2022-05-07T13:05:04.000Z</time>
      </trkpt>
      <trkpt lat="45.06886" lon="5.04181">
        <ele>174.3</ele>
        <time>2022-05-07T13:05:05.000Z</time>
      </trkpt>
      <trkpt lat="45.06886" lon="5.04174">
        <ele>174.4</ele>
        <time>2022-05-07T13:05:06.000Z</time>
      </trkpt>
      <trkpt lat="45.06886" lon="5.04168">
        <ele>174.6</ele>
        <time>2022-05-07T13:05:07.000Z</time>
      </trkpt>
      <trkpt lat="45.06885" lon="5.04162">
        <ele>174.9</ele>
        <time>2022-05-07T13:05:08.000Z</time>
      </trkpt>
      <trkpt lat="45.06885" lon="5.04156">
        <ele>175.3</ele>
        <time>2022-05-07T13:05:09.000Z</time>
      </trkpt>
      <trkpt lat="45.06885" lon="5.0415">
        <ele>175.7</ele>
        <time>2022-05-07T13:05:10.000Z</time>
      </trkpt>
      <trkpt lat="45.06884" lon="5.04143">
        <ele>176</ele>
        <time>2022-05-07T13:05:11.000Z</time>
      </trkpt>
      <trkpt lat="45.06884" lon="5.04137">
        <ele>176.3</ele>
        <time>2022-05-07T13:05:12.000Z</time>
      </trkpt>
      <trkpt lat="45.06883" lon="5.0413">
        <ele>176.3</ele>
        <time>2022-05-07T13:05:13.000Z</time>
      </trkpt>
      <trkpt lat="45.06883" lon="5.04123">
        <ele>176.2</ele>
        <time>2022-05-07T13:05:14.000Z</time>
      </trkpt>
      <trkpt lat="45.06882" lon="5.04116">
        <ele>176.2</ele>
        <time>2022-05-07T13:05:15.000Z</time>
      </trkpt>
      <trkpt lat="45.06881" lon="5.0411">
        <ele>176.2</ele>
        <time>2022-05-07T13:05:16.000Z</time>
      </trkpt>
      <trkpt lat="45.06881" lon="5.04104">
        <ele>176.1</ele>
        <time>2022-05-07T13:05:17.000Z</time>
      </trkpt>
      <trkpt lat="45.0688" lon="5.04098">
        <ele>176.1</ele>
        <time>2022-05-07T13:05:18.000Z</time>
      </trkpt>
      <trkpt lat="45.0688" lon="5.04094">
        <ele>176</ele>
        <time>2022-05-07T13:05:19.000Z</time>
      </trkpt>
      <trkpt lat="45.06879" lon="5.04089">
        <ele>175.9</ele>
        <time>2022-05-07T13:05:20.000Z</time>
      </trkpt>
      <trkpt lat="45.06878" lon="5.04084">
        <ele>175.8</ele>
        <time>2022-05-07T13:05:21.000Z</time>
      </trkpt>
      <trkpt lat="45.06878" lon="5.04079">
        <ele>175.7</ele>
        <time>2022-05-07T13:05:22.000Z</time>
      </trkpt>
      <trkpt lat="45.06877" lon="5.04074">
        <ele>175.5</ele>
        <time>2022-05-07T13:05:23.000Z</time>
      </trkpt>
      <trkpt lat="45.06877" lon="5.04069">
        <ele>175.4</ele>
        <time>2022-05-07T13:05:24.000Z</time>
      </trkpt>
      <trkpt lat="45.06876" lon="5.04064">
        <ele>175.3</ele>
        <time>2022-05-07T13:05:25.000Z</time>
      </trkpt>
      <trkpt lat="45.06876" lon="5.04059">
        <ele>175.1</ele>
        <time>2022-05-07T13:05:26.000Z</time>
      </trkpt>
      <trkpt lat="45.06876" lon="5.04053">
        <ele>175.1</ele>
        <time>2022-05-07T13:05:27.000Z</time>
      </trkpt>
      <trkpt lat="45.06875" lon="5.04047">
        <ele>175</ele>
        <time>2022-05-07T13:05:28.000Z</time>
      </trkpt>
      <trkpt lat="45.06874" lon="5.04041">
        <ele>174.9</ele>
        <time>2022-05-07T13:05:29.000Z</time>
      </trkpt>
      <trkpt lat="45.06873" lon="5.04034">
        <ele>174.9</ele>
        <time>2022-05-07T13:05:30.000Z</time>
      </trkpt>
      <trkpt lat="45.06872" lon="5.04028">
        <ele>174.8</ele>
        <time>2022-05-07T13:05:31.000Z</time>
      </trkpt>
      <trkpt lat="45.06871" lon="5.04022">
        <ele>174.9</ele>
        <time>2022-05-07T13:05:32.000Z</time>
      </trkpt>
      <trkpt lat="45.06869" lon="5.04016">
        <ele>175.1</ele>
        <time>2022-05-07T13:05:33.000Z</time>
      </trkpt>
      <trkpt lat="45.06867" lon="5.04011">
        <ele>175.3</ele>
        <time>2022-05-07T13:05:34.000Z</time>
      </trkpt>
      <trkpt lat="45.06865" lon="5.04006">
        <ele>175.5</ele>
        <time>2022-05-07T13:05:35.000Z</time>
      </trkpt>
      <trkpt lat="45.06864" lon="5.04001">
        <ele>175.9</ele>
        <time>2022-05-07T13:05:36.000Z</time>
      </trkpt>
      <trkpt lat="45.06861" lon="5.03996">
        <ele>175.7</ele>
        <time>2022-05-07T13:05:37.000Z</time>
      </trkpt>
      <trkpt lat="45.06859" lon="5.03992">
        <ele>175.3</ele>
        <time>2022-05-07T13:05:38.000Z</time>
      </trkpt>
      <trkpt lat="45.06857" lon="5.03988">
        <ele>175</ele>
        <time>2022-05-07T13:05:39.000Z</time>
      </trkpt>
      <trkpt lat="45.06856" lon="5.03984">
        <ele>174.8</ele>
        <time>2022-05-07T13:05:40.000Z</time>
      </trkpt>
      <trkpt lat="45.06854" lon="5.03981">
        <ele>174.7</ele>
        <time>2022-05-07T13:05:41.000Z</time>
      </trkpt>
      <trkpt lat="45.06852" lon="5.03977">
        <ele>174.7</ele>
        <time>2022-05-07T13:05:42.000Z</time>
      </trkpt>
      <trkpt lat="45.0685" lon="5.03975">
        <ele>174.8</ele>
        <time>2022-05-07T13:05:43.000Z</time>
      </trkpt>
      <trkpt lat="45.06849" lon="5.03971">
        <ele>174.9</ele>
        <time>2022-05-07T13:05:44.000Z</time>
      </trkpt>
      <trkpt lat="45.06848" lon="5.03969">
        <ele>175.1</ele>
        <time>2022-05-07T13:05:45.000Z</time>
      </trkpt>
      <trkpt lat="45.06848" lon="5.03965">
        <ele>175.3</ele>
        <time>2022-05-07T13:05:47.000Z</time>
      </trkpt>
      <trkpt lat="45.06848" lon="5.03962">
        <ele>175.4</ele>
        <time>2022-05-07T13:05:48.000Z</time>
      </trkpt>
      <trkpt lat="45.06847" lon="5.03959">
        <ele>175.5</ele>
        <time>2022-05-07T13:05:50.000Z</time>
      </trkpt>
      <trkpt lat="45.06848" lon="5.03954">
        <ele>175.7</ele>
        <time>2022-05-07T13:05:52.000Z</time>
      </trkpt>
      <trkpt lat="45.06848" lon="5.03951">
        <ele>175.8</ele>
        <time>2022-05-07T13:05:53.000Z</time>
      </trkpt>
      <trkpt lat="45.0685" lon="5.03947">
        <ele>176</ele>
        <time>2022-05-07T13:05:54.000Z</time>
      </trkpt>
      <trkpt lat="45.06851" lon="5.03944">
        <ele>176.2</ele>
        <time>2022-05-07T13:05:55.000Z</time>
      </trkpt>
      <trkpt lat="45.06852" lon="5.03939">
        <ele>176.3</ele>
        <time>2022-05-07T13:05:56.000Z</time>
      </trkpt>
      <trkpt lat="45.06854" lon="5.03935">
        <ele>176.4</ele>
        <time>2022-05-07T13:05:57.000Z</time>
      </trkpt>
      <trkpt lat="45.06856" lon="5.0393">
        <ele>176.5</ele>
        <time>2022-05-07T13:05:58.000Z</time>
      </trkpt>
      <trkpt lat="45.06858" lon="5.03926">
        <ele>176.7</ele>
        <time>2022-05-07T13:05:59.000Z</time>
      </trkpt>
      <trkpt lat="45.06859" lon="5.0392">
        <ele>176.8</ele>
        <time>2022-05-07T13:06:00.000Z</time>
      </trkpt>
      <trkpt lat="45.06859" lon="5.03914">
        <ele>176.7</ele>
        <time>2022-05-07T13:06:01.000Z</time>
      </trkpt>
      <trkpt lat="45.06858" lon="5.0391">
        <ele>176.6</ele>
        <time>2022-05-07T13:06:02.000Z</time>
      </trkpt>
      <trkpt lat="45.06855" lon="5.03905">
        <ele>176.4</ele>
        <time>2022-05-07T13:06:03.000Z</time>
      </trkpt>
      <trkpt lat="45.06852" lon="5.039">
        <ele>176</ele>
        <time>2022-05-07T13:06:04.000Z</time>
      </trkpt>
      <trkpt lat="45.06849" lon="5.03894">
        <ele>175.6</ele>
        <time>2022-05-07T13:06:05.000Z</time>
      </trkpt>
      <trkpt lat="45.06844" lon="5.03888">
        <ele>175.2</ele>
        <time>2022-05-07T13:06:06.000Z</time>
      </trkpt>
      <trkpt lat="45.0684" lon="5.0388">
        <ele>174.9</ele>
        <time>2022-05-07T13:06:07.000Z</time>
      </trkpt>
      <trkpt lat="45.06836" lon="5.03872">
        <ele>174.8</ele>
        <time>2022-05-07T13:06:08.000Z</time>
      </trkpt>
      <trkpt lat="45.06832" lon="5.03864">
        <ele>174.8</ele>
        <time>2022-05-07T13:06:09.000Z</time>
      </trkpt>
      <trkpt lat="45.06828" lon="5.03855">
        <ele>174.2</ele>
        <time>2022-05-07T13:06:10.000Z</time>
      </trkpt>
      <trkpt lat="45.06824" lon="5.03846">
        <ele>173.6</ele>
        <time>2022-05-07T13:06:11.000Z</time>
      </trkpt>
      <trkpt lat="45.06819" lon="5.03835">
        <ele>173.1</ele>
        <time>2022-05-07T13:06:12.000Z</time>
      </trkpt>
      <trkpt lat="45.06813" lon="5.03825">
        <ele>173</ele>
        <time>2022-05-07T13:06:13.000Z</time>
      </trkpt>
      <trkpt lat="45.06809" lon="5.03815">
        <ele>173</ele>
        <time>2022-05-07T13:06:14.000Z</time>
      </trkpt>
      <trkpt lat="45.06807" lon="5.03806">
        <ele>173</ele>
        <time>2022-05-07T13:06:15.000Z</time>
      </trkpt>
      <trkpt lat="45.06803" lon="5.03797">
        <ele>172.9</ele>
        <time>2022-05-07T13:06:16.000Z</time>
      </trkpt>
      <trkpt lat="45.068" lon="5.03788">
        <ele>172.8</ele>
        <time>2022-05-07T13:06:17.000Z</time>
      </trkpt>
      <trkpt lat="45.06796" lon="5.03779">
        <ele>172.7</ele>
        <time>2022-05-07T13:06:18.000Z</time>
      </trkpt>
      <trkpt lat="45.06793" lon="5.03769">
        <ele>172.5</ele>
        <time>2022-05-07T13:06:19.000Z</time>
      </trkpt>
      <trkpt lat="45.0679" lon="5.0376">
        <ele>172.5</ele>
        <time>2022-05-07T13:06:20.000Z</time>
      </trkpt>
      <trkpt lat="45.06787" lon="5.03751">
        <ele>172.6</ele>
        <time>2022-05-07T13:06:21.000Z</time>
      </trkpt>
      <trkpt lat="45.06785" lon="5.03742">
        <ele>172.8</ele>
        <time>2022-05-07T13:06:22.000Z</time>
      </trkpt>
      <trkpt lat="45.06782" lon="5.03733">
        <ele>172.9</ele>
        <time>2022-05-07T13:06:23.000Z</time>
      </trkpt>
      <trkpt lat="45.0678" lon="5.03725">
        <ele>173</ele>
        <time>2022-05-07T13:06:24.000Z</time>
      </trkpt>
      <trkpt lat="45.06778" lon="5.03717">
        <ele>172.8</ele>
        <time>2022-05-07T13:06:25.000Z</time>
      </trkpt>
      <trkpt lat="45.06776" lon="5.0371">
        <ele>172.5</ele>
        <time>2022-05-07T13:06:26.000Z</time>
      </trkpt>
      <trkpt lat="45.06773" lon="5.03701">
        <ele>172.2</ele>
        <time>2022-05-07T13:06:27.000Z</time>
      </trkpt>
      <trkpt lat="45.06772" lon="5.03694">
        <ele>172</ele>
        <time>2022-05-07T13:06:28.000Z</time>
      </trkpt>
      <trkpt lat="45.06769" lon="5.03687">
        <ele>172</ele>
        <time>2022-05-07T13:06:29.000Z</time>
      </trkpt>
      <trkpt lat="45.06767" lon="5.0368">
        <ele>172</ele>
        <time>2022-05-07T13:06:30.000Z</time>
      </trkpt>
      <trkpt lat="45.06764" lon="5.03673">
        <ele>172</ele>
        <time>2022-05-07T13:06:31.000Z</time>
      </trkpt>
      <trkpt lat="45.06762" lon="5.03667">
        <ele>172</ele>
        <time>2022-05-07T13:06:32.000Z</time>
      </trkpt>
      <trkpt lat="45.0676" lon="5.0366">
        <ele>172</ele>
        <time>2022-05-07T13:06:33.000Z</time>
      </trkpt>
      <trkpt lat="45.06757" lon="5.03652">
        <ele>172</ele>
        <time>2022-05-07T13:06:34.000Z</time>
      </trkpt>
      <trkpt lat="45.06754" lon="5.03645">
        <ele>172</ele>
        <time>2022-05-07T13:06:35.000Z</time>
      </trkpt>
      <trkpt lat="45.06751" lon="5.03638">
        <ele>172</ele>
        <time>2022-05-07T13:06:36.000Z</time>
      </trkpt>
      <trkpt lat="45.06748" lon="5.0363">
        <ele>172</ele>
        <time>2022-05-07T13:06:37.000Z</time>
      </trkpt>
      <trkpt lat="45.06745" lon="5.03623">
        <ele>171.9</ele>
        <time>2022-05-07T13:06:38.000Z</time>
      </trkpt>
      <trkpt lat="45.06743" lon="5.03617">
        <ele>171.9</ele>
        <time>2022-05-07T13:06:39.000Z</time>
      </trkpt>
      <trkpt lat="45.0674" lon="5.0361">
        <ele>172</ele>
        <time>2022-05-07T13:06:40.000Z</time>
      </trkpt>
      <trkpt lat="45.06738" lon="5.03603">
        <ele>172</ele>
        <time>2022-05-07T13:06:41.000Z</time>
      </trkpt>
      <trkpt lat="45.06735" lon="5.03596">
        <ele>172</ele>
        <time>2022-05-07T13:06:42.000Z</time>
      </trkpt>
      <trkpt lat="45.06733" lon="5.03589">
        <ele>172</ele>
        <time>2022-05-07T13:06:43.000Z</time>
      </trkpt>
      <trkpt lat="45.06729" lon="5.03582">
        <ele>172</ele>
        <time>2022-05-07T13:06:44.000Z</time>
      </trkpt>
      <trkpt lat="45.06726" lon="5.03576">
        <ele>172</ele>
        <time>2022-05-07T13:06:45.000Z</time>
      </trkpt>
      <trkpt lat="45.06723" lon="5.03569">
        <ele>172</ele>
        <time>2022-05-07T13:06:46.000Z</time>
      </trkpt>
      <trkpt lat="45.0672" lon="5.03562">
        <ele>172</ele>
        <time>2022-05-07T13:06:47.000Z</time>
      </trkpt>
      <trkpt lat="45.06716" lon="5.03556">
        <ele>171.8</ele>
        <time>2022-05-07T13:06:48.000Z</time>
      </trkpt>
      <trkpt lat="45.06713" lon="5.03549">
        <ele>171.7</ele>
        <time>2022-05-07T13:06:49.000Z</time>
      </trkpt>
      <trkpt lat="45.0671" lon="5.03542">
        <ele>171.5</ele>
        <time>2022-05-07T13:06:50.000Z</time>
      </trkpt>
      <trkpt lat="45.06707" lon="5.03534">
        <ele>171.5</ele>
        <time>2022-05-07T13:06:51.000Z</time>
      </trkpt>
      <trkpt lat="45.06704" lon="5.03527">
        <ele>171.4</ele>
        <time>2022-05-07T13:06:52.000Z</time>
      </trkpt>
      <trkpt lat="45.06702" lon="5.0352">
        <ele>171.5</ele>
        <time>2022-05-07T13:06:53.000Z</time>
      </trkpt>
      <trkpt lat="45.06699" lon="5.03512">
        <ele>171.6</ele>
        <time>2022-05-07T13:06:54.000Z</time>
      </trkpt>
      <trkpt lat="45.06696" lon="5.03504">
        <ele>171.9</ele>
        <time>2022-05-07T13:06:55.000Z</time>
      </trkpt>
      <trkpt lat="45.06694" lon="5.03496">
        <ele>172</ele>
        <time>2022-05-07T13:06:56.000Z</time>
      </trkpt>
      <trkpt lat="45.06691" lon="5.03489">
        <ele>171.9</ele>
        <time>2022-05-07T13:06:57.000Z</time>
      </trkpt>
      <trkpt lat="45.06689" lon="5.03481">
        <ele>171.8</ele>
        <time>2022-05-07T13:06:58.000Z</time>
      </trkpt>
      <trkpt lat="45.06686" lon="5.03474">
        <ele>171.7</ele>
        <time>2022-05-07T13:06:59.000Z</time>
      </trkpt>
      <trkpt lat="45.06684" lon="5.03468">
        <ele>171.7</ele>
        <time>2022-05-07T13:07:00.000Z</time>
      </trkpt>
      <trkpt lat="45.06681" lon="5.03461">
        <ele>171.7</ele>
        <time>2022-05-07T13:07:01.000Z</time>
      </trkpt>
      <trkpt lat="45.06678" lon="5.03455">
        <ele>171.8</ele>
        <time>2022-05-07T13:07:02.000Z</time>
      </trkpt>
      <trkpt lat="45.06676" lon="5.03448">
        <ele>171.9</ele>
        <time>2022-05-07T13:07:03.000Z</time>
      </trkpt>
      <trkpt lat="45.06674" lon="5.0344">
        <ele>172.1</ele>
        <time>2022-05-07T13:07:04.000Z</time>
      </trkpt>
      <trkpt lat="45.06672" lon="5.03434">
        <ele>172.3</ele>
        <time>2022-05-07T13:07:05.000Z</time>
      </trkpt>
      <trkpt lat="45.0667" lon="5.0343">
        <ele>172.5</ele>
        <time>2022-05-07T13:07:06.000Z</time>
      </trkpt>
      <trkpt lat="45.06668" lon="5.03425">
        <ele>172.7</ele>
        <time>2022-05-07T13:07:07.000Z</time>
      </trkpt>
      <trkpt lat="45.06667" lon="5.0342">
        <ele>172.9</ele>
        <time>2022-05-07T13:07:08.000Z</time>
      </trkpt>
      <trkpt lat="45.06667" lon="5.03415">
        <ele>172.9</ele>
        <time>2022-05-07T13:07:09.000Z</time>
      </trkpt>
      <trkpt lat="45.06666" lon="5.0341">
        <ele>172.7</ele>
        <time>2022-05-07T13:07:10.000Z</time>
      </trkpt>
      <trkpt lat="45.06665" lon="5.03405">
        <ele>172.5</ele>
        <time>2022-05-07T13:07:11.000Z</time>
      </trkpt>
      <trkpt lat="45.06664" lon="5.03398">
        <ele>172.3</ele>
        <time>2022-05-07T13:07:12.000Z</time>
      </trkpt>
      <trkpt lat="45.06662" lon="5.03391">
        <ele>172.1</ele>
        <time>2022-05-07T13:07:13.000Z</time>
      </trkpt>
      <trkpt lat="45.0666" lon="5.03384">
        <ele>172</ele>
        <time>2022-05-07T13:07:14.000Z</time>
      </trkpt>
      <trkpt lat="45.06658" lon="5.03377">
        <ele>172</ele>
        <time>2022-05-07T13:07:15.000Z</time>
      </trkpt>
      <trkpt lat="45.06657" lon="5.03369">
        <ele>172</ele>
        <time>2022-05-07T13:07:16.000Z</time>
      </trkpt>
      <trkpt lat="45.06655" lon="5.03362">
        <ele>172</ele>
        <time>2022-05-07T13:07:17.000Z</time>
      </trkpt>
      <trkpt lat="45.06653" lon="5.03355">
        <ele>172</ele>
        <time>2022-05-07T13:07:18.000Z</time>
      </trkpt>
      <trkpt lat="45.06651" lon="5.03348">
        <ele>172</ele>
        <time>2022-05-07T13:07:19.000Z</time>
      </trkpt>
      <trkpt lat="45.06649" lon="5.03341">
        <ele>172</ele>
        <time>2022-05-07T13:07:20.000Z</time>
      </trkpt>
      <trkpt lat="45.06647" lon="5.03333">
        <ele>172</ele>
        <time>2022-05-07T13:07:21.000Z</time>
      </trkpt>
      <trkpt lat="45.06646" lon="5.03327">
        <ele>172</ele>
        <time>2022-05-07T13:07:22.000Z</time>
      </trkpt>
      <trkpt lat="45.06643" lon="5.0332">
        <ele>172</ele>
        <time>2022-05-07T13:07:23.000Z</time>
      </trkpt>
      <trkpt lat="45.06641" lon="5.03314">
        <ele>172</ele>
        <time>2022-05-07T13:07:24.000Z</time>
      </trkpt>
      <trkpt lat="45.06639" lon="5.03308">
        <ele>172</ele>
        <time>2022-05-07T13:07:25.000Z</time>
      </trkpt>
      <trkpt lat="45.06638" lon="5.03301">
        <ele>172</ele>
        <time>2022-05-07T13:07:26.000Z</time>
      </trkpt>
      <trkpt lat="45.06636" lon="5.03294">
        <ele>171.9</ele>
        <time>2022-05-07T13:07:27.000Z</time>
      </trkpt>
      <trkpt lat="45.06634" lon="5.03286">
        <ele>171.8</ele>
        <time>2022-05-07T13:07:28.000Z</time>
      </trkpt>
      <trkpt lat="45.06631" lon="5.03278">
        <ele>171.7</ele>
        <time>2022-05-07T13:07:29.000Z</time>
      </trkpt>
      <trkpt lat="45.06629" lon="5.0327">
        <ele>171.6</ele>
        <time>2022-05-07T13:07:30.000Z</time>
      </trkpt>
      <trkpt lat="45.06627" lon="5.03263">
        <ele>171.6</ele>
        <time>2022-05-07T13:07:31.000Z</time>
      </trkpt>
      <trkpt lat="45.06625" lon="5.03255">
        <ele>171.5</ele>
        <time>2022-05-07T13:07:32.000Z</time>
      </trkpt>
      <trkpt lat="45.06623" lon="5.03247">
        <ele>171.5</ele>
        <time>2022-05-07T13:07:33.000Z</time>
      </trkpt>
      <trkpt lat="45.0662" lon="5.03239">
        <ele>171.6</ele>
        <time>2022-05-07T13:07:34.000Z</time>
      </trkpt>
      <trkpt lat="45.06618" lon="5.03232">
        <ele>171.8</ele>
        <time>2022-05-07T13:07:35.000Z</time>
      </trkpt>
      <trkpt lat="45.06616" lon="5.03223">
        <ele>172</ele>
        <time>2022-05-07T13:07:36.000Z</time>
      </trkpt>
      <trkpt lat="45.06614" lon="5.03215">
        <ele>172</ele>
        <time>2022-05-07T13:07:37.000Z</time>
      </trkpt>
      <trkpt lat="45.06612" lon="5.03207">
        <ele>172</ele>
        <time>2022-05-07T13:07:38.000Z</time>
      </trkpt>
      <trkpt lat="45.0661" lon="5.03198">
        <ele>172</ele>
        <time>2022-05-07T13:07:39.000Z</time>
      </trkpt>
      <trkpt lat="45.06608" lon="5.0319">
        <ele>171.7</ele>
        <time>2022-05-07T13:07:40.000Z</time>
      </trkpt>
      <trkpt lat="45.06606" lon="5.03181">
        <ele>171.4</ele>
        <time>2022-05-07T13:07:41.000Z</time>
      </trkpt>
      <trkpt lat="45.06603" lon="5.03172">
        <ele>171.1</ele>
        <time>2022-05-07T13:07:42.000Z</time>
      </trkpt>
      <trkpt lat="45.06601" lon="5.03163">
        <ele>171</ele>
        <time>2022-05-07T13:07:43.000Z</time>
      </trkpt>
      <trkpt lat="45.06598" lon="5.03154">
        <ele>171</ele>
        <time>2022-05-07T13:07:44.000Z</time>
      </trkpt>
      <trkpt lat="45.06596" lon="5.03145">
        <ele>171</ele>
        <time>2022-05-07T13:07:45.000Z</time>
      </trkpt>
      <trkpt lat="45.06594" lon="5.03136">
        <ele>171</ele>
        <time>2022-05-07T13:07:46.000Z</time>
      </trkpt>
      <trkpt lat="45.06593" lon="5.03127">
        <ele>171</ele>
        <time>2022-05-07T13:07:47.000Z</time>
      </trkpt>
      <trkpt lat="45.06591" lon="5.03117">
        <ele>171</ele>
        <time>2022-05-07T13:07:48.000Z</time>
      </trkpt>
      <trkpt lat="45.0659" lon="5.03108">
        <ele>171</ele>
        <time>2022-05-07T13:07:49.000Z</time>
      </trkpt>
      <trkpt lat="45.06588" lon="5.03098">
        <ele>171</ele>
        <time>2022-05-07T13:07:50.000Z</time>
      </trkpt>
      <trkpt lat="45.06587" lon="5.03089">
        <ele>171</ele>
        <time>2022-05-07T13:07:51.000Z</time>
      </trkpt>
      <trkpt lat="45.06585" lon="5.03079">
        <ele>171</ele>
        <time>2022-05-07T13:07:52.000Z</time>
      </trkpt>
      <trkpt lat="45.06584" lon="5.03069">
        <ele>171</ele>
        <time>2022-05-07T13:07:53.000Z</time>
      </trkpt>
      <trkpt lat="45.06584" lon="5.03059">
        <ele>171</ele>
        <time>2022-05-07T13:07:54.000Z</time>
      </trkpt>
      <trkpt lat="45.06583" lon="5.0305">
        <ele>171</ele>
        <time>2022-05-07T13:07:55.000Z</time>
      </trkpt>
      <trkpt lat="45.06581" lon="5.03041">
        <ele>170.9</ele>
        <time>2022-05-07T13:07:56.000Z</time>
      </trkpt>
      <trkpt lat="45.0658" lon="5.03032">
        <ele>170.9</ele>
        <time>2022-05-07T13:07:57.000Z</time>
      </trkpt>
      <trkpt lat="45.06578" lon="5.03023">
        <ele>170.7</ele>
        <time>2022-05-07T13:07:58.000Z</time>
      </trkpt>
      <trkpt lat="45.06577" lon="5.03012">
        <ele>170.3</ele>
        <time>2022-05-07T13:07:59.000Z</time>
      </trkpt>
      <trkpt lat="45.06575" lon="5.03002">
        <ele>170</ele>
        <time>2022-05-07T13:08:00.000Z</time>
      </trkpt>
      <trkpt lat="45.06577" lon="5.02996">
        <ele>169.9</ele>
        <time>2022-05-07T13:08:01.000Z</time>
      </trkpt>
      <trkpt lat="45.06577" lon="5.02986">
        <ele>169.5</ele>
        <time>2022-05-07T13:08:02.000Z</time>
      </trkpt>
      <trkpt lat="45.06579" lon="5.02977">
        <ele>169.2</ele>
        <time>2022-05-07T13:08:03.000Z</time>
      </trkpt>
      <trkpt lat="45.06579" lon="5.02967">
        <ele>169.4</ele>
        <time>2022-05-07T13:08:04.000Z</time>
      </trkpt>
      <trkpt lat="45.06578" lon="5.02957">
        <ele>170</ele>
        <time>2022-05-07T13:08:05.000Z</time>
      </trkpt>
      <trkpt lat="45.06577" lon="5.02949">
        <ele>170.5</ele>
        <time>2022-05-07T13:08:06.000Z</time>
      </trkpt>
      <trkpt lat="45.06576" lon="5.02941">
        <ele>170.7</ele>
        <time>2022-05-07T13:08:07.000Z</time>
      </trkpt>
      <trkpt lat="45.06574" lon="5.02934">
        <ele>170.7</ele>
        <time>2022-05-07T13:08:08.000Z</time>
      </trkpt>
      <trkpt lat="45.06573" lon="5.02928">
        <ele>170.6</ele>
        <time>2022-05-07T13:08:09.000Z</time>
      </trkpt>
      <trkpt lat="45.06573" lon="5.02921">
        <ele>170.6</ele>
        <time>2022-05-07T13:08:10.000Z</time>
      </trkpt>
      <trkpt lat="45.06572" lon="5.02915">
        <ele>170.6</ele>
        <time>2022-05-07T13:08:11.000Z</time>
      </trkpt>
      <trkpt lat="45.06571" lon="5.02909">
        <ele>170.7</ele>
        <time>2022-05-07T13:08:12.000Z</time>
      </trkpt>
      <trkpt lat="45.0657" lon="5.02901">
        <ele>170.8</ele>
        <time>2022-05-07T13:08:13.000Z</time>
      </trkpt>
      <trkpt lat="45.0657" lon="5.02894">
        <ele>170.9</ele>
        <time>2022-05-07T13:08:14.000Z</time>
      </trkpt>
      <trkpt lat="45.0657" lon="5.02885">
        <ele>170.9</ele>
        <time>2022-05-07T13:08:15.000Z</time>
      </trkpt>
      <trkpt lat="45.0657" lon="5.02877">
        <ele>170.8</ele>
        <time>2022-05-07T13:08:16.000Z</time>
      </trkpt>
      <trkpt lat="45.06569" lon="5.02867">
        <ele>170.6</ele>
        <time>2022-05-07T13:08:17.000Z</time>
      </trkpt>
      <trkpt lat="45.06567" lon="5.02858">
        <ele>170.6</ele>
        <time>2022-05-07T13:08:18.000Z</time>
      </trkpt>
      <trkpt lat="45.06565" lon="5.02849">
        <ele>170.7</ele>
        <time>2022-05-07T13:08:19.000Z</time>
      </trkpt>
      <trkpt lat="45.06563" lon="5.0284">
        <ele>170.7</ele>
        <time>2022-05-07T13:08:20.000Z</time>
      </trkpt>
      <trkpt lat="45.06561" lon="5.02831">
        <ele>170.8</ele>
        <time>2022-05-07T13:08:21.000Z</time>
      </trkpt>
      <trkpt lat="45.06559" lon="5.02823">
        <ele>170.9</ele>
        <time>2022-05-07T13:08:22.000Z</time>
      </trkpt>
      <trkpt lat="45.06557" lon="5.02815">
        <ele>170.9</ele>
        <time>2022-05-07T13:08:23.000Z</time>
      </trkpt>
      <trkpt lat="45.06556" lon="5.02807">
        <ele>171</ele>
        <time>2022-05-07T13:08:24.000Z</time>
      </trkpt>
      <trkpt lat="45.06554" lon="5.02799">
        <ele>171</ele>
        <time>2022-05-07T13:08:25.000Z</time>
      </trkpt>
      <trkpt lat="45.06554" lon="5.02791">
        <ele>171</ele>
        <time>2022-05-07T13:08:26.000Z</time>
      </trkpt>
      <trkpt lat="45.06553" lon="5.02783">
        <ele>171</ele>
        <time>2022-05-07T13:08:27.000Z</time>
      </trkpt>
      <trkpt lat="45.06552" lon="5.02775">
        <ele>170.9</ele>
        <time>2022-05-07T13:08:28.000Z</time>
      </trkpt>
      <trkpt lat="45.06551" lon="5.02768">
        <ele>170.6</ele>
        <time>2022-05-07T13:08:29.000Z</time>
      </trkpt>
      <trkpt lat="45.0655" lon="5.02761">
        <ele>170.4</ele>
        <time>2022-05-07T13:08:30.000Z</time>
      </trkpt>
      <trkpt lat="45.06549" lon="5.02753">
        <ele>170.1</ele>
        <time>2022-05-07T13:08:31.000Z</time>
      </trkpt>
      <trkpt lat="45.06548" lon="5.02747">
        <ele>170</ele>
        <time>2022-05-07T13:08:32.000Z</time>
      </trkpt>
      <trkpt lat="45.06547" lon="5.02741">
        <ele>170.1</ele>
        <time>2022-05-07T13:08:33.000Z</time>
      </trkpt>
      <trkpt lat="45.06546" lon="5.02735">
        <ele>170.2</ele>
        <time>2022-05-07T13:08:34.000Z</time>
      </trkpt>
      <trkpt lat="45.06545" lon="5.02729">
        <ele>170.3</ele>
        <time>2022-05-07T13:08:35.000Z</time>
      </trkpt>
      <trkpt lat="45.06544" lon="5.02723">
        <ele>170.4</ele>
        <time>2022-05-07T13:08:36.000Z</time>
      </trkpt>
      <trkpt lat="45.06542" lon="5.02716">
        <ele>170.5</ele>
        <time>2022-05-07T13:08:37.000Z</time>
      </trkpt>
      <trkpt lat="45.06541" lon="5.02709">
        <ele>170.5</ele>
        <time>2022-05-07T13:08:38.000Z</time>
      </trkpt>
      <trkpt lat="45.0654" lon="5.02702">
        <ele>170.6</ele>
        <time>2022-05-07T13:08:39.000Z</time>
      </trkpt>
      <trkpt lat="45.06539" lon="5.02696">
        <ele>170.6</ele>
        <time>2022-05-07T13:08:40.000Z</time>
      </trkpt>
      <trkpt lat="45.06538" lon="5.02689">
        <ele>170.6</ele>
        <time>2022-05-07T13:08:41.000Z</time>
      </trkpt>
      <trkpt lat="45.06537" lon="5.02683">
        <ele>170.7</ele>
        <time>2022-05-07T13:08:42.000Z</time>
      </trkpt>
      <trkpt lat="45.06535" lon="5.02676">
        <ele>170.7</ele>
        <time>2022-05-07T13:08:43.000Z</time>
      </trkpt>
      <trkpt lat="45.06534" lon="5.02669">
        <ele>170.8</ele>
        <time>2022-05-07T13:08:44.000Z</time>
      </trkpt>
      <trkpt lat="45.06533" lon="5.02663">
        <ele>170.8</ele>
        <time>2022-05-07T13:08:45.000Z</time>
      </trkpt>
      <trkpt lat="45.06532" lon="5.02657">
        <ele>170.9</ele>
        <time>2022-05-07T13:08:46.000Z</time>
      </trkpt>
      <trkpt lat="45.06531" lon="5.02652">
        <ele>170.9</ele>
        <time>2022-05-07T13:08:47.000Z</time>
      </trkpt>
      <trkpt lat="45.0653" lon="5.02646">
        <ele>171</ele>
        <time>2022-05-07T13:08:48.000Z</time>
      </trkpt>
      <trkpt lat="45.06528" lon="5.02641">
        <ele>171</ele>
        <time>2022-05-07T13:08:49.000Z</time>
      </trkpt>
      <trkpt lat="45.06528" lon="5.02634">
        <ele>171.2</ele>
        <time>2022-05-07T13:08:50.000Z</time>
      </trkpt>
      <trkpt lat="45.06527" lon="5.02628">
        <ele>171.4</ele>
        <time>2022-05-07T13:08:51.000Z</time>
      </trkpt>
      <trkpt lat="45.06526" lon="5.02623">
        <ele>171.5</ele>
        <time>2022-05-07T13:08:52.000Z</time>
      </trkpt>
      <trkpt lat="45.06525" lon="5.02618">
        <ele>171.7</ele>
        <time>2022-05-07T13:08:53.000Z</time>
      </trkpt>
      <trkpt lat="45.06525" lon="5.02613">
        <ele>171.8</ele>
        <time>2022-05-07T13:08:54.000Z</time>
      </trkpt>
      <trkpt lat="45.06525" lon="5.02608">
        <ele>171.9</ele>
        <time>2022-05-07T13:08:55.000Z</time>
      </trkpt>
      <trkpt lat="45.06524" lon="5.02604">
        <ele>171.9</ele>
        <time>2022-05-07T13:08:56.000Z</time>
      </trkpt>
      <trkpt lat="45.06524" lon="5.026">
        <ele>171.9</ele>
        <time>2022-05-07T13:08:57.000Z</time>
      </trkpt>
      <trkpt lat="45.06523" lon="5.02595">
        <ele>171.9</ele>
        <time>2022-05-07T13:08:58.000Z</time>
      </trkpt>
      <trkpt lat="45.06522" lon="5.02591">
        <ele>171.9</ele>
        <time>2022-05-07T13:08:59.000Z</time>
      </trkpt>
      <trkpt lat="45.06522" lon="5.02588">
        <ele>172</ele>
        <time>2022-05-07T13:09:00.000Z</time>
      </trkpt>
      <trkpt lat="45.06522" lon="5.02584">
        <ele>172</ele>
        <time>2022-05-07T13:09:01.000Z</time>
      </trkpt>
      <trkpt lat="45.06522" lon="5.0258">
        <ele>172.1</ele>
        <time>2022-05-07T13:09:02.000Z</time>
      </trkpt>
      <trkpt lat="45.06521" lon="5.02576">
        <ele>172.2</ele>
        <time>2022-05-07T13:09:03.000Z</time>
      </trkpt>
      <trkpt lat="45.0652" lon="5.02572">
        <ele>172.3</ele>
        <time>2022-05-07T13:09:04.000Z</time>
      </trkpt>
      <trkpt lat="45.0652" lon="5.02568">
        <ele>172.4</ele>
        <time>2022-05-07T13:09:05.000Z</time>
      </trkpt>
      <trkpt lat="45.06519" lon="5.02563">
        <ele>172.5</ele>
        <time>2022-05-07T13:09:06.000Z</time>
      </trkpt>
      <trkpt lat="45.06519" lon="5.02559">
        <ele>172.6</ele>
        <time>2022-05-07T13:09:07.000Z</time>
      </trkpt>
      <trkpt lat="45.06518" lon="5.02555">
        <ele>172.6</ele>
        <time>2022-05-07T13:09:08.000Z</time>
      </trkpt>
      <trkpt lat="45.06517" lon="5.02551">
        <ele>172.8</ele>
        <time>2022-05-07T13:09:09.000Z</time>
      </trkpt>
      <trkpt lat="45.06516" lon="5.02547">
        <ele>172.9</ele>
        <time>2022-05-07T13:09:10.000Z</time>
      </trkpt>
      <trkpt lat="45.06515" lon="5.02543">
        <ele>173</ele>
        <time>2022-05-07T13:09:11.000Z</time>
      </trkpt>
      <trkpt lat="45.06514" lon="5.02538">
        <ele>173.1</ele>
        <time>2022-05-07T13:09:12.000Z</time>
      </trkpt>
      <trkpt lat="45.06514" lon="5.02534">
        <ele>173.3</ele>
        <time>2022-05-07T13:09:13.000Z</time>
      </trkpt>
      <trkpt lat="45.06514" lon="5.0253">
        <ele>173.4</ele>
        <time>2022-05-07T13:09:14.000Z</time>
      </trkpt>
      <trkpt lat="45.06514" lon="5.02526">
        <ele>173.7</ele>
        <time>2022-05-07T13:09:15.000Z</time>
      </trkpt>
      <trkpt lat="45.06513" lon="5.02521">
        <ele>174.1</ele>
        <time>2022-05-07T13:09:16.000Z</time>
      </trkpt>
      <trkpt lat="45.06512" lon="5.02517">
        <ele>174.4</ele>
        <time>2022-05-07T13:09:17.000Z</time>
      </trkpt>
      <trkpt lat="45.06511" lon="5.02513">
        <ele>174.7</ele>
        <time>2022-05-07T13:09:18.000Z</time>
      </trkpt>
      <trkpt lat="45.0651" lon="5.02508">
        <ele>175</ele>
        <time>2022-05-07T13:09:19.000Z</time>
      </trkpt>
      <trkpt lat="45.06509" lon="5.02504">
        <ele>175.3</ele>
        <time>2022-05-07T13:09:20.000Z</time>
      </trkpt>
      <trkpt lat="45.06507" lon="5.025">
        <ele>175.5</ele>
        <time>2022-05-07T13:09:21.000Z</time>
      </trkpt>
      <trkpt lat="45.06506" lon="5.02495">
        <ele>175.9</ele>
        <time>2022-05-07T13:09:22.000Z</time>
      </trkpt>
      <trkpt lat="45.06505" lon="5.02491">
        <ele>176.1</ele>
        <time>2022-05-07T13:09:23.000Z</time>
      </trkpt>
      <trkpt lat="45.06503" lon="5.02487">
        <ele>176.2</ele>
        <time>2022-05-07T13:09:24.000Z</time>
      </trkpt>
      <trkpt lat="45.06501" lon="5.02483">
        <ele>176.3</ele>
        <time>2022-05-07T13:09:25.000Z</time>
      </trkpt>
      <trkpt lat="45.06499" lon="5.02479">
        <ele>176.5</ele>
        <time>2022-05-07T13:09:26.000Z</time>
      </trkpt>
      <trkpt lat="45.06498" lon="5.02474">
        <ele>176.6</ele>
        <time>2022-05-07T13:09:27.000Z</time>
      </trkpt>
      <trkpt lat="45.06495" lon="5.02471">
        <ele>176.6</ele>
        <time>2022-05-07T13:09:28.000Z</time>
      </trkpt>
      <trkpt lat="45.06492" lon="5.02468">
        <ele>176.7</ele>
        <time>2022-05-07T13:09:29.000Z</time>
      </trkpt>
      <trkpt lat="45.06489" lon="5.02464">
        <ele>176.7</ele>
        <time>2022-05-07T13:09:30.000Z</time>
      </trkpt>
      <trkpt lat="45.06486" lon="5.0246">
        <ele>176.8</ele>
        <time>2022-05-07T13:09:31.000Z</time>
      </trkpt>
      <trkpt lat="45.06484" lon="5.02457">
        <ele>176.9</ele>
        <time>2022-05-07T13:09:32.000Z</time>
      </trkpt>
      <trkpt lat="45.06481" lon="5.02453">
        <ele>177</ele>
        <time>2022-05-07T13:09:33.000Z</time>
      </trkpt>
      <trkpt lat="45.06478" lon="5.02449">
        <ele>177.1</ele>
        <time>2022-05-07T13:09:34.000Z</time>
      </trkpt>
      <trkpt lat="45.06474" lon="5.02445">
        <ele>177.1</ele>
        <time>2022-05-07T13:09:35.000Z</time>
      </trkpt>
      <trkpt lat="45.06471" lon="5.02441">
        <ele>177.3</ele>
        <time>2022-05-07T13:09:36.000Z</time>
      </trkpt>
      <trkpt lat="45.06468" lon="5.02438">
        <ele>177.5</ele>
        <time>2022-05-07T13:09:37.000Z</time>
      </trkpt>
      <trkpt lat="45.06466" lon="5.02435">
        <ele>177.7</ele>
        <time>2022-05-07T13:09:38.000Z</time>
      </trkpt>
      <trkpt lat="45.06463" lon="5.02431">
        <ele>177.8</ele>
        <time>2022-05-07T13:09:39.000Z</time>
      </trkpt>
      <trkpt lat="45.0646" lon="5.02428">
        <ele>177.9</ele>
        <time>2022-05-07T13:09:40.000Z</time>
      </trkpt>
      <trkpt lat="45.06458" lon="5.02424">
        <ele>178</ele>
        <time>2022-05-07T13:09:41.000Z</time>
      </trkpt>
      <trkpt lat="45.06456" lon="5.0242">
        <ele>178.3</ele>
        <time>2022-05-07T13:09:42.000Z</time>
      </trkpt>
      <trkpt lat="45.06453" lon="5.02416">
        <ele>178.3</ele>
        <time>2022-05-07T13:09:43.000Z</time>
      </trkpt>
      <trkpt lat="45.06451" lon="5.02413">
        <ele>178.4</ele>
        <time>2022-05-07T13:09:44.000Z</time>
      </trkpt>
      <trkpt lat="45.06449" lon="5.02409">
        <ele>178.6</ele>
        <time>2022-05-07T13:09:45.000Z</time>
      </trkpt>
      <trkpt lat="45.06446" lon="5.02405">
        <ele>178.8</ele>
        <time>2022-05-07T13:09:46.000Z</time>
      </trkpt>
      <trkpt lat="45.06443" lon="5.02402">
        <ele>178.9</ele>
        <time>2022-05-07T13:09:47.000Z</time>
      </trkpt>
      <trkpt lat="45.06441" lon="5.02399">
        <ele>179</ele>
        <time>2022-05-07T13:09:48.000Z</time>
      </trkpt>
      <trkpt lat="45.06439" lon="5.02395">
        <ele>179</ele>
        <time>2022-05-07T13:09:49.000Z</time>
      </trkpt>
      <trkpt lat="45.06437" lon="5.02391">
        <ele>179.1</ele>
        <time>2022-05-07T13:09:50.000Z</time>
      </trkpt>
      <trkpt lat="45.06435" lon="5.02386">
        <ele>179.1</ele>
        <time>2022-05-07T13:09:51.000Z</time>
      </trkpt>
      <trkpt lat="45.06433" lon="5.02382">
        <ele>179.1</ele>
        <time>2022-05-07T13:09:52.000Z</time>
      </trkpt>
      <trkpt lat="45.06431" lon="5.02377">
        <ele>179</ele>
        <time>2022-05-07T13:09:53.000Z</time>
      </trkpt>
      <trkpt lat="45.0643" lon="5.02372">
        <ele>179.1</ele>
        <time>2022-05-07T13:09:54.000Z</time>
      </trkpt>
      <trkpt lat="45.06429" lon="5.02367">
        <ele>179.1</ele>
        <time>2022-05-07T13:09:55.000Z</time>
      </trkpt>
      <trkpt lat="45.06427" lon="5.02363">
        <ele>179.2</ele>
        <time>2022-05-07T13:09:56.000Z</time>
      </trkpt>
      <trkpt lat="45.06426" lon="5.02358">
        <ele>179.2</ele>
        <time>2022-05-07T13:09:57.000Z</time>
      </trkpt>
      <trkpt lat="45.06425" lon="5.02354">
        <ele>179.2</ele>
        <time>2022-05-07T13:09:58.000Z</time>
      </trkpt>
      <trkpt lat="45.06424" lon="5.02351">
        <ele>179.1</ele>
        <time>2022-05-07T13:09:59.000Z</time>
      </trkpt>
      <trkpt lat="45.06423" lon="5.02347">
        <ele>179.1</ele>
        <time>2022-05-07T13:10:00.000Z</time>
      </trkpt>
      <trkpt lat="45.06421" lon="5.02342">
        <ele>179.1</ele>
        <time>2022-05-07T13:10:01.000Z</time>
      </trkpt>
      <trkpt lat="45.0642" lon="5.02336">
        <ele>179.4</ele>
        <time>2022-05-07T13:10:02.000Z</time>
      </trkpt>
      <trkpt lat="45.0642" lon="5.02333">
        <ele>179.4</ele>
        <time>2022-05-07T13:10:03.000Z</time>
      </trkpt>
      <trkpt lat="45.06419" lon="5.02328">
        <ele>179.3</ele>
        <time>2022-05-07T13:10:04.000Z</time>
      </trkpt>
      <trkpt lat="45.06419" lon="5.02326">
        <ele>179.3</ele>
        <time>2022-05-07T13:10:05.000Z</time>
      </trkpt>
      <trkpt lat="45.06422" lon="5.02325">
        <ele>179.7</ele>
        <time>2022-05-07T13:10:06.000Z</time>
      </trkpt>
      <trkpt lat="45.06421" lon="5.0232">
        <ele>179.5</ele>
        <time>2022-05-07T13:10:07.000Z</time>
      </trkpt>
      <trkpt lat="45.06418" lon="5.02315">
        <ele>179.2</ele>
        <time>2022-05-07T13:10:08.000Z</time>
      </trkpt>
      <trkpt lat="45.06416" lon="5.02309">
        <ele>178.9</ele>
        <time>2022-05-07T13:10:09.000Z</time>
      </trkpt>
      <trkpt lat="45.06413" lon="5.02303">
        <ele>178.8</ele>
        <time>2022-05-07T13:10:10.000Z</time>
      </trkpt>
      <trkpt lat="45.0641" lon="5.02297">
        <ele>178.7</ele>
        <time>2022-05-07T13:10:11.000Z</time>
      </trkpt>
      <trkpt lat="45.06406" lon="5.02292">
        <ele>178.6</ele>
        <time>2022-05-07T13:10:12.000Z</time>
      </trkpt>
      <trkpt lat="45.06403" lon="5.02287">
        <ele>178.4</ele>
        <time>2022-05-07T13:10:13.000Z</time>
      </trkpt>
      <trkpt lat="45.064" lon="5.02282">
        <ele>178.1</ele>
        <time>2022-05-07T13:10:14.000Z</time>
      </trkpt>
      <trkpt lat="45.06397" lon="5.02277">
        <ele>177.9</ele>
        <time>2022-05-07T13:10:15.000Z</time>
      </trkpt>
      <trkpt lat="45.06394" lon="5.02272">
        <ele>177.9</ele>
        <time>2022-05-07T13:10:16.000Z</time>
      </trkpt>
      <trkpt lat="45.06391" lon="5.02266">
        <ele>178</ele>
        <time>2022-05-07T13:10:17.000Z</time>
      </trkpt>
      <trkpt lat="45.06387" lon="5.0226">
        <ele>178.1</ele>
        <time>2022-05-07T13:10:18.000Z</time>
      </trkpt>
      <trkpt lat="45.06384" lon="5.02254">
        <ele>178.3</ele>
        <time>2022-05-07T13:10:19.000Z</time>
      </trkpt>
      <trkpt lat="45.06381" lon="5.02247">
        <ele>178.3</ele>
        <time>2022-05-07T13:10:20.000Z</time>
      </trkpt>
      <trkpt lat="45.06378" lon="5.02241">
        <ele>178.3</ele>
        <time>2022-05-07T13:10:21.000Z</time>
      </trkpt>
      <trkpt lat="45.06375" lon="5.02234">
        <ele>178.4</ele>
        <time>2022-05-07T13:10:22.000Z</time>
      </trkpt>
      <trkpt lat="45.06373" lon="5.02228">
        <ele>178.4</ele>
        <time>2022-05-07T13:10:23.000Z</time>
      </trkpt>
      <trkpt lat="45.06371" lon="5.02223">
        <ele>178.4</ele>
        <time>2022-05-07T13:10:24.000Z</time>
      </trkpt>
      <trkpt lat="45.0637" lon="5.02218">
        <ele>178.7</ele>
        <time>2022-05-07T13:10:25.000Z</time>
      </trkpt>
      <trkpt lat="45.0637" lon="5.02214">
        <ele>178.9</ele>
        <time>2022-05-07T13:10:26.000Z</time>
      </trkpt>
      <trkpt lat="45.06369" lon="5.02209">
        <ele>179.2</ele>
        <time>2022-05-07T13:10:27.000Z</time>
      </trkpt>
      <trkpt lat="45.06368" lon="5.02205">
        <ele>179.4</ele>
        <time>2022-05-07T13:10:28.000Z</time>
      </trkpt>
      <trkpt lat="45.06367" lon="5.02201">
        <ele>179.5</ele>
        <time>2022-05-07T13:10:29.000Z</time>
      </trkpt>
      <trkpt lat="45.06366" lon="5.02198">
        <ele>179.6</ele>
        <time>2022-05-07T13:10:30.000Z</time>
      </trkpt>
      <trkpt lat="45.06365" lon="5.02195">
        <ele>179.6</ele>
        <time>2022-05-07T13:10:31.000Z</time>
      </trkpt>
      <trkpt lat="45.06363" lon="5.02191">
        <ele>179.6</ele>
        <time>2022-05-07T13:10:32.000Z</time>
      </trkpt>
      <trkpt lat="45.06362" lon="5.02188">
        <ele>179.6</ele>
        <time>2022-05-07T13:10:33.000Z</time>
      </trkpt>
      <trkpt lat="45.06361" lon="5.02185">
        <ele>179.7</ele>
        <time>2022-05-07T13:10:34.000Z</time>
      </trkpt>
      <trkpt lat="45.0636" lon="5.02182">
        <ele>179.7</ele>
        <time>2022-05-07T13:10:35.000Z</time>
      </trkpt>
      <trkpt lat="45.06358" lon="5.0218">
        <ele>179.7</ele>
        <time>2022-05-07T13:10:36.000Z</time>
      </trkpt>
      <trkpt lat="45.06357" lon="5.02177">
        <ele>179.6</ele>
        <time>2022-05-07T13:10:37.000Z</time>
      </trkpt>
      <trkpt lat="45.06355" lon="5.02175">
        <ele>179.5</ele>
        <time>2022-05-07T13:10:38.000Z</time>
      </trkpt>
      <trkpt lat="45.06353" lon="5.02171">
        <ele>179.5</ele>
        <time>2022-05-07T13:10:39.000Z</time>
      </trkpt>
      <trkpt lat="45.06351" lon="5.02169">
        <ele>179.4</ele>
        <time>2022-05-07T13:10:40.000Z</time>
      </trkpt>
      <trkpt lat="45.06349" lon="5.02166">
        <ele>179.4</ele>
        <time>2022-05-07T13:10:41.000Z</time>
      </trkpt>
      <trkpt lat="45.06347" lon="5.02162">
        <ele>179.3</ele>
        <time>2022-05-07T13:10:42.000Z</time>
      </trkpt>
      <trkpt lat="45.06345" lon="5.02159">
        <ele>179.4</ele>
        <time>2022-05-07T13:10:43.000Z</time>
      </trkpt>
      <trkpt lat="45.06343" lon="5.02155">
        <ele>179.4</ele>
        <time>2022-05-07T13:10:44.000Z</time>
      </trkpt>
      <trkpt lat="45.0634" lon="5.02151">
        <ele>179.5</ele>
        <time>2022-05-07T13:10:45.000Z</time>
      </trkpt>
      <trkpt lat="45.06338" lon="5.02147">
        <ele>179.6</ele>
        <time>2022-05-07T13:10:46.000Z</time>
      </trkpt>
      <trkpt lat="45.06335" lon="5.02142">
        <ele>179.8</ele>
        <time>2022-05-07T13:10:47.000Z</time>
      </trkpt>
      <trkpt lat="45.06332" lon="5.02137">
        <ele>179.9</ele>
        <time>2022-05-07T13:10:48.000Z</time>
      </trkpt>
      <trkpt lat="45.0633" lon="5.02131">
        <ele>179.7</ele>
        <time>2022-05-07T13:10:49.000Z</time>
      </trkpt>
      <trkpt lat="45.06328" lon="5.02124">
        <ele>179.4</ele>
        <time>2022-05-07T13:10:50.000Z</time>
      </trkpt>
      <trkpt lat="45.06325" lon="5.02117">
        <ele>179</ele>
        <time>2022-05-07T13:10:51.000Z</time>
      </trkpt>
      <trkpt lat="45.06322" lon="5.0211">
        <ele>178.5</ele>
        <time>2022-05-07T13:10:52.000Z</time>
      </trkpt>
      <trkpt lat="45.06319" lon="5.02102">
        <ele>178.3</ele>
        <time>2022-05-07T13:10:53.000Z</time>
      </trkpt>
      <trkpt lat="45.06317" lon="5.02095">
        <ele>177.9</ele>
        <time>2022-05-07T13:10:54.000Z</time>
      </trkpt>
      <trkpt lat="45.06314" lon="5.02088">
        <ele>177.7</ele>
        <time>2022-05-07T13:10:55.000Z</time>
      </trkpt>
      <trkpt lat="45.06311" lon="5.0208">
        <ele>177.5</ele>
        <time>2022-05-07T13:10:56.000Z</time>
      </trkpt>
      <trkpt lat="45.06309" lon="5.02073">
        <ele>177.5</ele>
        <time>2022-05-07T13:10:57.000Z</time>
      </trkpt>
      <trkpt lat="45.06306" lon="5.02065">
        <ele>177.4</ele>
        <time>2022-05-07T13:10:58.000Z</time>
      </trkpt>
      <trkpt lat="45.06304" lon="5.02057">
        <ele>177.5</ele>
        <time>2022-05-07T13:10:59.000Z</time>
      </trkpt>
      <trkpt lat="45.06301" lon="5.02049">
        <ele>177.5</ele>
        <time>2022-05-07T13:11:00.000Z</time>
      </trkpt>
      <trkpt lat="45.06298" lon="5.02041">
        <ele>177.4</ele>
        <time>2022-05-07T13:11:01.000Z</time>
      </trkpt>
      <trkpt lat="45.06296" lon="5.02033">
        <ele>177.2</ele>
        <time>2022-05-07T13:11:02.000Z</time>
      </trkpt>
      <trkpt lat="45.06292" lon="5.02026">
        <ele>176.8</ele>
        <time>2022-05-07T13:11:03.000Z</time>
      </trkpt>
      <trkpt lat="45.06289" lon="5.02018">
        <ele>176.4</ele>
        <time>2022-05-07T13:11:04.000Z</time>
      </trkpt>
      <trkpt lat="45.06286" lon="5.0201">
        <ele>176.1</ele>
        <time>2022-05-07T13:11:05.000Z</time>
      </trkpt>
      <trkpt lat="45.06283" lon="5.02003">
        <ele>175.9</ele>
        <time>2022-05-07T13:11:06.000Z</time>
      </trkpt>
      <trkpt lat="45.06279" lon="5.01996">
        <ele>175.8</ele>
        <time>2022-05-07T13:11:07.000Z</time>
      </trkpt>
      <trkpt lat="45.06276" lon="5.01988">
        <ele>176</ele>
        <time>2022-05-07T13:11:08.000Z</time>
      </trkpt>
      <trkpt lat="45.06272" lon="5.01981">
        <ele>176.1</ele>
        <time>2022-05-07T13:11:09.000Z</time>
      </trkpt>
      <trkpt lat="45.06269" lon="5.01974">
        <ele>176.3</ele>
        <time>2022-05-07T13:11:10.000Z</time>
      </trkpt>
      <trkpt lat="45.06266" lon="5.01967">
        <ele>176.1</ele>
        <time>2022-05-07T13:11:11.000Z</time>
      </trkpt>
      <trkpt lat="45.06264" lon="5.0196">
        <ele>175.9</ele>
        <time>2022-05-07T13:11:12.000Z</time>
      </trkpt>
      <trkpt lat="45.06261" lon="5.01953">
        <ele>175.8</ele>
        <time>2022-05-07T13:11:13.000Z</time>
      </trkpt>
      <trkpt lat="45.06258" lon="5.01947">
        <ele>175.7</ele>
        <time>2022-05-07T13:11:14.000Z</time>
      </trkpt>
      <trkpt lat="45.06255" lon="5.01941">
        <ele>175.7</ele>
        <time>2022-05-07T13:11:15.000Z</time>
      </trkpt>
      <trkpt lat="45.06252" lon="5.01934">
        <ele>175.6</ele>
        <time>2022-05-07T13:11:16.000Z</time>
      </trkpt>
      <trkpt lat="45.0625" lon="5.01928">
        <ele>175.5</ele>
        <time>2022-05-07T13:11:17.000Z</time>
      </trkpt>
      <trkpt lat="45.06247" lon="5.01922">
        <ele>175.5</ele>
        <time>2022-05-07T13:11:18.000Z</time>
      </trkpt>
      <trkpt lat="45.06244" lon="5.01915">
        <ele>175.4</ele>
        <time>2022-05-07T13:11:19.000Z</time>
      </trkpt>
      <trkpt lat="45.06242" lon="5.01909">
        <ele>175.4</ele>
        <time>2022-05-07T13:11:20.000Z</time>
      </trkpt>
      <trkpt lat="45.06239" lon="5.01902">
        <ele>175.3</ele>
        <time>2022-05-07T13:11:21.000Z</time>
      </trkpt>
      <trkpt lat="45.06236" lon="5.01896">
        <ele>175.3</ele>
        <time>2022-05-07T13:11:22.000Z</time>
      </trkpt>
      <trkpt lat="45.06234" lon="5.01889">
        <ele>175.3</ele>
        <time>2022-05-07T13:11:23.000Z</time>
      </trkpt>
      <trkpt lat="45.06232" lon="5.01883">
        <ele>175.3</ele>
        <time>2022-05-07T13:11:24.000Z</time>
      </trkpt>
      <trkpt lat="45.0623" lon="5.01876">
        <ele>175.3</ele>
        <time>2022-05-07T13:11:25.000Z</time>
      </trkpt>
      <trkpt lat="45.06229" lon="5.01869">
        <ele>175.4</ele>
        <time>2022-05-07T13:11:26.000Z</time>
      </trkpt>
      <trkpt lat="45.06227" lon="5.01862">
        <ele>175.5</ele>
        <time>2022-05-07T13:11:27.000Z</time>
      </trkpt>
      <trkpt lat="45.06225" lon="5.01854">
        <ele>175.5</ele>
        <time>2022-05-07T13:11:28.000Z</time>
      </trkpt>
      <trkpt lat="45.06223" lon="5.01848">
        <ele>175.6</ele>
        <time>2022-05-07T13:11:29.000Z</time>
      </trkpt>
      <trkpt lat="45.06222" lon="5.01842">
        <ele>175.6</ele>
        <time>2022-05-07T13:11:30.000Z</time>
      </trkpt>
      <trkpt lat="45.0622" lon="5.01835">
        <ele>175.5</ele>
        <time>2022-05-07T13:11:31.000Z</time>
      </trkpt>
      <trkpt lat="45.06218" lon="5.01828">
        <ele>175.3</ele>
        <time>2022-05-07T13:11:32.000Z</time>
      </trkpt>
      <trkpt lat="45.06216" lon="5.01821">
        <ele>175</ele>
        <time>2022-05-07T13:11:33.000Z</time>
      </trkpt>
      <trkpt lat="45.06213" lon="5.01814">
        <ele>174.8</ele>
        <time>2022-05-07T13:11:34.000Z</time>
      </trkpt>
      <trkpt lat="45.06212" lon="5.01808">
        <ele>174.6</ele>
        <time>2022-05-07T13:11:35.000Z</time>
      </trkpt>
      <trkpt lat="45.06211" lon="5.01802">
        <ele>174.7</ele>
        <time>2022-05-07T13:11:36.000Z</time>
      </trkpt>
      <trkpt lat="45.06209" lon="5.01795">
        <ele>174.6</ele>
        <time>2022-05-07T13:11:37.000Z</time>
      </trkpt>
      <trkpt lat="45.06208" lon="5.01787">
        <ele>174.5</ele>
        <time>2022-05-07T13:11:38.000Z</time>
      </trkpt>
      <trkpt lat="45.06206" lon="5.0178">
        <ele>174.3</ele>
        <time>2022-05-07T13:11:39.000Z</time>
      </trkpt>
      <trkpt lat="45.06204" lon="5.01773">
        <ele>174.4</ele>
        <time>2022-05-07T13:11:40.000Z</time>
      </trkpt>
      <trkpt lat="45.06201" lon="5.01766">
        <ele>174.6</ele>
        <time>2022-05-07T13:11:41.000Z</time>
      </trkpt>
      <trkpt lat="45.062" lon="5.01759">
        <ele>174.9</ele>
        <time>2022-05-07T13:11:42.000Z</time>
      </trkpt>
      <trkpt lat="45.06198" lon="5.01752">
        <ele>175.3</ele>
        <time>2022-05-07T13:11:43.000Z</time>
      </trkpt>
      <trkpt lat="45.06196" lon="5.01745">
        <ele>175.5</ele>
        <time>2022-05-07T13:11:44.000Z</time>
      </trkpt>
      <trkpt lat="45.06195" lon="5.01738">
        <ele>175.5</ele>
        <time>2022-05-07T13:11:45.000Z</time>
      </trkpt>
      <trkpt lat="45.06193" lon="5.01731">
        <ele>175.5</ele>
        <time>2022-05-07T13:11:46.000Z</time>
      </trkpt>
      <trkpt lat="45.06191" lon="5.01724">
        <ele>175.5</ele>
        <time>2022-05-07T13:11:47.000Z</time>
      </trkpt>
      <trkpt lat="45.06189" lon="5.01716">
        <ele>175.4</ele>
        <time>2022-05-07T13:11:48.000Z</time>
      </trkpt>
      <trkpt lat="45.06187" lon="5.01709">
        <ele>175.4</ele>
        <time>2022-05-07T13:11:49.000Z</time>
      </trkpt>
      <trkpt lat="45.06185" lon="5.017">
        <ele>175.4</ele>
        <time>2022-05-07T13:11:50.000Z</time>
      </trkpt>
      <trkpt lat="45.06183" lon="5.01692">
        <ele>175.4</ele>
        <time>2022-05-07T13:11:51.000Z</time>
      </trkpt>
      <trkpt lat="45.06181" lon="5.01684">
        <ele>175.2</ele>
        <time>2022-05-07T13:11:52.000Z</time>
      </trkpt>
      <trkpt lat="45.0618" lon="5.01676">
        <ele>175.2</ele>
        <time>2022-05-07T13:11:53.000Z</time>
      </trkpt>
      <trkpt lat="45.06178" lon="5.01668">
        <ele>175.2</ele>
        <time>2022-05-07T13:11:54.000Z</time>
      </trkpt>
      <trkpt lat="45.06176" lon="5.01659">
        <ele>175</ele>
        <time>2022-05-07T13:11:55.000Z</time>
      </trkpt>
      <trkpt lat="45.06175" lon="5.0165">
        <ele>174.9</ele>
        <time>2022-05-07T13:11:56.000Z</time>
      </trkpt>
      <trkpt lat="45.06174" lon="5.01641">
        <ele>174.7</ele>
        <time>2022-05-07T13:11:57.000Z</time>
      </trkpt>
      <trkpt lat="45.06172" lon="5.01633">
        <ele>174.9</ele>
        <time>2022-05-07T13:11:58.000Z</time>
      </trkpt>
      <trkpt lat="45.06171" lon="5.01624">
        <ele>175.1</ele>
        <time>2022-05-07T13:11:59.000Z</time>
      </trkpt>
      <trkpt lat="45.0617" lon="5.01616">
        <ele>175.3</ele>
        <time>2022-05-07T13:12:00.000Z</time>
      </trkpt>
      <trkpt lat="45.06169" lon="5.01608">
        <ele>175.4</ele>
        <time>2022-05-07T13:12:01.000Z</time>
      </trkpt>
      <trkpt lat="45.06167" lon="5.016">
        <ele>175.4</ele>
        <time>2022-05-07T13:12:02.000Z</time>
      </trkpt>
      <trkpt lat="45.06165" lon="5.01592">
        <ele>175.5</ele>
        <time>2022-05-07T13:12:03.000Z</time>
      </trkpt>
      <trkpt lat="45.06163" lon="5.01584">
        <ele>175.5</ele>
        <time>2022-05-07T13:12:04.000Z</time>
      </trkpt>
      <trkpt lat="45.06161" lon="5.01576">
        <ele>175.4</ele>
        <time>2022-05-07T13:12:05.000Z</time>
      </trkpt>
      <trkpt lat="45.06159" lon="5.01569">
        <ele>175.3</ele>
        <time>2022-05-07T13:12:06.000Z</time>
      </trkpt>
      <trkpt lat="45.06157" lon="5.01561">
        <ele>175.1</ele>
        <time>2022-05-07T13:12:07.000Z</time>
      </trkpt>
      <trkpt lat="45.06155" lon="5.01553">
        <ele>174.9</ele>
        <time>2022-05-07T13:12:08.000Z</time>
      </trkpt>
      <trkpt lat="45.06153" lon="5.01545">
        <ele>174.6</ele>
        <time>2022-05-07T13:12:09.000Z</time>
      </trkpt>
      <trkpt lat="45.06151" lon="5.01537">
        <ele>174.2</ele>
        <time>2022-05-07T13:12:10.000Z</time>
      </trkpt>
      <trkpt lat="45.06149" lon="5.01529">
        <ele>173.9</ele>
        <time>2022-05-07T13:12:11.000Z</time>
      </trkpt>
      <trkpt lat="45.06148" lon="5.01521">
        <ele>174</ele>
        <time>2022-05-07T13:12:12.000Z</time>
      </trkpt>
      <trkpt lat="45.06146" lon="5.01514">
        <ele>174.2</ele>
        <time>2022-05-07T13:12:13.000Z</time>
      </trkpt>
      <trkpt lat="45.06144" lon="5.01506">
        <ele>174.4</ele>
        <time>2022-05-07T13:12:14.000Z</time>
      </trkpt>
      <trkpt lat="45.06143" lon="5.01499">
        <ele>174.6</ele>
        <time>2022-05-07T13:12:15.000Z</time>
      </trkpt>
      <trkpt lat="45.06141" lon="5.01491">
        <ele>174.6</ele>
        <time>2022-05-07T13:12:16.000Z</time>
      </trkpt>
      <trkpt lat="45.06139" lon="5.01484">
        <ele>174.6</ele>
        <time>2022-05-07T13:12:17.000Z</time>
      </trkpt>
      <trkpt lat="45.06138" lon="5.01477">
        <ele>174.6</ele>
        <time>2022-05-07T13:12:18.000Z</time>
      </trkpt>
      <trkpt lat="45.06137" lon="5.01471">
        <ele>174.7</ele>
        <time>2022-05-07T13:12:19.000Z</time>
      </trkpt>
      <trkpt lat="45.06136" lon="5.01464">
        <ele>175</ele>
        <time>2022-05-07T13:12:20.000Z</time>
      </trkpt>
      <trkpt lat="45.06135" lon="5.01457">
        <ele>175.3</ele>
        <time>2022-05-07T13:12:21.000Z</time>
      </trkpt>
      <trkpt lat="45.06133" lon="5.0145">
        <ele>175.4</ele>
        <time>2022-05-07T13:12:22.000Z</time>
      </trkpt>
      <trkpt lat="45.06132" lon="5.01444">
        <ele>175.5</ele>
        <time>2022-05-07T13:12:23.000Z</time>
      </trkpt>
      <trkpt lat="45.06131" lon="5.01438">
        <ele>175.3</ele>
        <time>2022-05-07T13:12:24.000Z</time>
      </trkpt>
      <trkpt lat="45.06129" lon="5.01432">
        <ele>175.1</ele>
        <time>2022-05-07T13:12:25.000Z</time>
      </trkpt>
      <trkpt lat="45.06128" lon="5.01426">
        <ele>174.9</ele>
        <time>2022-05-07T13:12:26.000Z</time>
      </trkpt>
      <trkpt lat="45.06127" lon="5.01421">
        <ele>174.8</ele>
        <time>2022-05-07T13:12:27.000Z</time>
      </trkpt>
      <trkpt lat="45.06125" lon="5.01415">
        <ele>174.6</ele>
        <time>2022-05-07T13:12:28.000Z</time>
      </trkpt>
      <trkpt lat="45.06124" lon="5.01408">
        <ele>174.3</ele>
        <time>2022-05-07T13:12:29.000Z</time>
      </trkpt>
      <trkpt lat="45.06123" lon="5.01402">
        <ele>174.1</ele>
        <time>2022-05-07T13:12:30.000Z</time>
      </trkpt>
      <trkpt lat="45.06122" lon="5.01395">
        <ele>173.9</ele>
        <time>2022-05-07T13:12:31.000Z</time>
      </trkpt>
      <trkpt lat="45.06121" lon="5.01387">
        <ele>173.8</ele>
        <time>2022-05-07T13:12:32.000Z</time>
      </trkpt>
      <trkpt lat="45.0612" lon="5.0138">
        <ele>173.8</ele>
        <time>2022-05-07T13:12:33.000Z</time>
      </trkpt>
      <trkpt lat="45.06118" lon="5.01373">
        <ele>173.8</ele>
        <time>2022-05-07T13:12:34.000Z</time>
      </trkpt>
      <trkpt lat="45.06117" lon="5.01366">
        <ele>173.9</ele>
        <time>2022-05-07T13:12:35.000Z</time>
      </trkpt>
      <trkpt lat="45.06116" lon="5.01359">
        <ele>174</ele>
        <time>2022-05-07T13:12:36.000Z</time>
      </trkpt>
      <trkpt lat="45.06115" lon="5.01352">
        <ele>174.3</ele>
        <time>2022-05-07T13:12:37.000Z</time>
      </trkpt>
      <trkpt lat="45.06114" lon="5.01345">
        <ele>174.6</ele>
        <time>2022-05-07T13:12:38.000Z</time>
      </trkpt>
      <trkpt lat="45.06113" lon="5.01337">
        <ele>175</ele>
        <time>2022-05-07T13:12:39.000Z</time>
      </trkpt>
      <trkpt lat="45.06112" lon="5.01329">
        <ele>175.1</ele>
        <time>2022-05-07T13:12:40.000Z</time>
      </trkpt>
      <trkpt lat="45.06111" lon="5.01322">
        <ele>174.9</ele>
        <time>2022-05-07T13:12:41.000Z</time>
      </trkpt>
      <trkpt lat="45.0611" lon="5.01314">
        <ele>174.8</ele>
        <time>2022-05-07T13:12:42.000Z</time>
      </trkpt>
      <trkpt lat="45.06109" lon="5.01305">
        <ele>174.7</ele>
        <time>2022-05-07T13:12:43.000Z</time>
      </trkpt>
      <trkpt lat="45.06108" lon="5.01297">
        <ele>174.9</ele>
        <time>2022-05-07T13:12:44.000Z</time>
      </trkpt>
      <trkpt lat="45.06108" lon="5.01289">
        <ele>175</ele>
        <time>2022-05-07T13:12:45.000Z</time>
      </trkpt>
      <trkpt lat="45.06107" lon="5.0128">
        <ele>175.2</ele>
        <time>2022-05-07T13:12:46.000Z</time>
      </trkpt>
      <trkpt lat="45.06107" lon="5.01272">
        <ele>175</ele>
        <time>2022-05-07T13:12:47.000Z</time>
      </trkpt>
      <trkpt lat="45.06106" lon="5.01263">
        <ele>174.7</ele>
        <time>2022-05-07T13:12:48.000Z</time>
      </trkpt>
      <trkpt lat="45.06105" lon="5.01255">
        <ele>174.5</ele>
        <time>2022-05-07T13:12:49.000Z</time>
      </trkpt>
      <trkpt lat="45.06105" lon="5.01246">
        <ele>174.2</ele>
        <time>2022-05-07T13:12:50.000Z</time>
      </trkpt>
      <trkpt lat="45.06105" lon="5.01238">
        <ele>174</ele>
        <time>2022-05-07T13:12:51.000Z</time>
      </trkpt>
      <trkpt lat="45.06104" lon="5.0123">
        <ele>173.7</ele>
        <time>2022-05-07T13:12:52.000Z</time>
      </trkpt>
      <trkpt lat="45.06104" lon="5.01222">
        <ele>173.5</ele>
        <time>2022-05-07T13:12:53.000Z</time>
      </trkpt>
      <trkpt lat="45.06104" lon="5.01213">
        <ele>173.4</ele>
        <time>2022-05-07T13:12:54.000Z</time>
      </trkpt>
      <trkpt lat="45.06104" lon="5.01205">
        <ele>173.3</ele>
        <time>2022-05-07T13:12:55.000Z</time>
      </trkpt>
      <trkpt lat="45.06103" lon="5.01197">
        <ele>173.2</ele>
        <time>2022-05-07T13:12:56.000Z</time>
      </trkpt>
      <trkpt lat="45.06103" lon="5.01188">
        <ele>173.3</ele>
        <time>2022-05-07T13:12:57.000Z</time>
      </trkpt>
      <trkpt lat="45.06102" lon="5.01179">
        <ele>173.4</ele>
        <time>2022-05-07T13:12:58.000Z</time>
      </trkpt>
      <trkpt lat="45.06102" lon="5.0117">
        <ele>173.6</ele>
        <time>2022-05-07T13:12:59.000Z</time>
      </trkpt>
      <trkpt lat="45.06101" lon="5.01162">
        <ele>173.3</ele>
        <time>2022-05-07T13:13:00.000Z</time>
      </trkpt>
      <trkpt lat="45.06101" lon="5.01155">
        <ele>173</ele>
        <time>2022-05-07T13:13:01.000Z</time>
      </trkpt>
      <trkpt lat="45.06101" lon="5.01149">
        <ele>172.7</ele>
        <time>2022-05-07T13:13:02.000Z</time>
      </trkpt>
      <trkpt lat="45.06101" lon="5.01144">
        <ele>172.5</ele>
        <time>2022-05-07T13:13:03.000Z</time>
      </trkpt>
      <trkpt lat="45.06102" lon="5.0114">
        <ele>172.3</ele>
        <time>2022-05-07T13:13:04.000Z</time>
      </trkpt>
      <trkpt lat="45.06103" lon="5.01136">
        <ele>172.2</ele>
        <time>2022-05-07T13:13:05.000Z</time>
      </trkpt>
      <trkpt lat="45.06104" lon="5.01134">
        <ele>172.3</ele>
        <time>2022-05-07T13:13:06.000Z</time>
      </trkpt>
      <trkpt lat="45.06107" lon="5.01132">
        <ele>172.4</ele>
        <time>2022-05-07T13:13:07.000Z</time>
      </trkpt>
      <trkpt lat="45.06109" lon="5.01131">
        <ele>172.5</ele>
        <time>2022-05-07T13:13:08.000Z</time>
      </trkpt>
      <trkpt lat="45.06112" lon="5.0113">
        <ele>172.8</ele>
        <time>2022-05-07T13:13:09.000Z</time>
      </trkpt>
      <trkpt lat="45.06115" lon="5.0113">
        <ele>173.1</ele>
        <time>2022-05-07T13:13:10.000Z</time>
      </trkpt>
      <trkpt lat="45.06118" lon="5.01129">
        <ele>173.4</ele>
        <time>2022-05-07T13:13:11.000Z</time>
      </trkpt>
      <trkpt lat="45.06121" lon="5.01128">
        <ele>173.8</ele>
        <time>2022-05-07T13:13:12.000Z</time>
      </trkpt>
      <trkpt lat="45.06125" lon="5.01126">
        <ele>174</ele>
        <time>2022-05-07T13:13:13.000Z</time>
      </trkpt>
      <trkpt lat="45.06128" lon="5.01124">
        <ele>174.2</ele>
        <time>2022-05-07T13:13:14.000Z</time>
      </trkpt>
      <trkpt lat="45.06131" lon="5.01121">
        <ele>174.4</ele>
        <time>2022-05-07T13:13:15.000Z</time>
      </trkpt>
      <trkpt lat="45.06135" lon="5.01121">
        <ele>174.7</ele>
        <time>2022-05-07T13:13:16.000Z</time>
      </trkpt>
      <trkpt lat="45.06139" lon="5.01119">
        <ele>174.9</ele>
        <time>2022-05-07T13:13:17.000Z</time>
      </trkpt>
      <trkpt lat="45.06144" lon="5.01118">
        <ele>174.8</ele>
        <time>2022-05-07T13:13:18.000Z</time>
      </trkpt>
      <trkpt lat="45.06148" lon="5.01116">
        <ele>174.8</ele>
        <time>2022-05-07T13:13:19.000Z</time>
      </trkpt>
      <trkpt lat="45.06152" lon="5.01114">
        <ele>174.7</ele>
        <time>2022-05-07T13:13:20.000Z</time>
      </trkpt>
      <trkpt lat="45.06156" lon="5.01112">
        <ele>174.7</ele>
        <time>2022-05-07T13:13:21.000Z</time>
      </trkpt>
      <trkpt lat="45.06159" lon="5.01111">
        <ele>174.7</ele>
        <time>2022-05-07T13:13:22.000Z</time>
      </trkpt>
      <trkpt lat="45.06163" lon="5.01109">
        <ele>174.8</ele>
        <time>2022-05-07T13:13:23.000Z</time>
      </trkpt>
      <trkpt lat="45.06166" lon="5.01108">
        <ele>174.9</ele>
        <time>2022-05-07T13:13:24.000Z</time>
      </trkpt>
      <trkpt lat="45.06169" lon="5.01107">
        <ele>175.1</ele>
        <time>2022-05-07T13:13:25.000Z</time>
      </trkpt>
      <trkpt lat="45.06173" lon="5.01105">
        <ele>175.4</ele>
        <time>2022-05-07T13:13:26.000Z</time>
      </trkpt>
      <trkpt lat="45.06176" lon="5.01103">
        <ele>175.6</ele>
        <time>2022-05-07T13:13:27.000Z</time>
      </trkpt>
      <trkpt lat="45.06179" lon="5.01101">
        <ele>175.8</ele>
        <time>2022-05-07T13:13:28.000Z</time>
      </trkpt>
      <trkpt lat="45.06182" lon="5.01099">
        <ele>176</ele>
        <time>2022-05-07T13:13:29.000Z</time>
      </trkpt>
      <trkpt lat="45.06186" lon="5.01097">
        <ele>176.2</ele>
        <time>2022-05-07T13:13:30.000Z</time>
      </trkpt>
      <trkpt lat="45.06189" lon="5.01096">
        <ele>176.4</ele>
        <time>2022-05-07T13:13:31.000Z</time>
      </trkpt>
      <trkpt lat="45.06192" lon="5.01094">
        <ele>176.6</ele>
        <time>2022-05-07T13:13:32.000Z</time>
      </trkpt>
      <trkpt lat="45.06196" lon="5.01093">
        <ele>176.8</ele>
        <time>2022-05-07T13:13:33.000Z</time>
      </trkpt>
      <trkpt lat="45.06199" lon="5.01092">
        <ele>177</ele>
        <time>2022-05-07T13:13:34.000Z</time>
      </trkpt>
      <trkpt lat="45.06203" lon="5.01091">
        <ele>177.2</ele>
        <time>2022-05-07T13:13:35.000Z</time>
      </trkpt>
      <trkpt lat="45.06206" lon="5.0109">
        <ele>177.4</ele>
        <time>2022-05-07T13:13:36.000Z</time>
      </trkpt>
      <trkpt lat="45.0621" lon="5.01089">
        <ele>177.6</ele>
        <time>2022-05-07T13:13:37.000Z</time>
      </trkpt>
      <trkpt lat="45.06214" lon="5.01088">
        <ele>177.8</ele>
        <time>2022-05-07T13:13:38.000Z</time>
      </trkpt>
      <trkpt lat="45.06217" lon="5.01086">
        <ele>177.9</ele>
        <time>2022-05-07T13:13:39.000Z</time>
      </trkpt>
      <trkpt lat="45.06221" lon="5.01085">
        <ele>178.1</ele>
        <time>2022-05-07T13:13:40.000Z</time>
      </trkpt>
      <trkpt lat="45.06225" lon="5.01084">
        <ele>178.1</ele>
        <time>2022-05-07T13:13:41.000Z</time>
      </trkpt>
      <trkpt lat="45.06229" lon="5.01084">
        <ele>178</ele>
        <time>2022-05-07T13:13:42.000Z</time>
      </trkpt>
      <trkpt lat="45.06233" lon="5.01082">
        <ele>177.9</ele>
        <time>2022-05-07T13:13:43.000Z</time>
      </trkpt>
      <trkpt lat="45.06237" lon="5.01081">
        <ele>177.8</ele>
        <time>2022-05-07T13:13:44.000Z</time>
      </trkpt>
      <trkpt lat="45.06241" lon="5.0108">
        <ele>177.7</ele>
        <time>2022-05-07T13:13:45.000Z</time>
      </trkpt>
      <trkpt lat="45.06245" lon="5.0108">
        <ele>177.6</ele>
        <time>2022-05-07T13:13:46.000Z</time>
      </trkpt>
      <trkpt lat="45.06249" lon="5.01079">
        <ele>177.6</ele>
        <time>2022-05-07T13:13:47.000Z</time>
      </trkpt>
      <trkpt lat="45.06254" lon="5.01079">
        <ele>177.7</ele>
        <time>2022-05-07T13:13:48.000Z</time>
      </trkpt>
      <trkpt lat="45.06257" lon="5.0108">
        <ele>177.9</ele>
        <time>2022-05-07T13:13:49.000Z</time>
      </trkpt>
      <trkpt lat="45.06261" lon="5.0108">
        <ele>178.1</ele>
        <time>2022-05-07T13:13:50.000Z</time>
      </trkpt>
      <trkpt lat="45.06264" lon="5.01081">
        <ele>178.2</ele>
        <time>2022-05-07T13:13:51.000Z</time>
      </trkpt>
      <trkpt lat="45.06268" lon="5.0108">
        <ele>178.3</ele>
        <time>2022-05-07T13:13:52.000Z</time>
      </trkpt>
      <trkpt lat="45.06271" lon="5.0108">
        <ele>178.4</ele>
        <time>2022-05-07T13:13:53.000Z</time>
      </trkpt>
      <trkpt lat="45.06274" lon="5.01081">
        <ele>178.6</ele>
        <time>2022-05-07T13:13:54.000Z</time>
      </trkpt>
      <trkpt lat="45.06278" lon="5.01082">
        <ele>178.8</ele>
        <time>2022-05-07T13:13:55.000Z</time>
      </trkpt>
      <trkpt lat="45.06282" lon="5.01083">
        <ele>178.8</ele>
        <time>2022-05-07T13:13:56.000Z</time>
      </trkpt>
      <trkpt lat="45.06286" lon="5.01085">
        <ele>178.8</ele>
        <time>2022-05-07T13:13:57.000Z</time>
      </trkpt>
      <trkpt lat="45.0629" lon="5.01086">
        <ele>178.9</ele>
        <time>2022-05-07T13:13:58.000Z</time>
      </trkpt>
      <trkpt lat="45.06294" lon="5.01088">
        <ele>178.9</ele>
        <time>2022-05-07T13:13:59.000Z</time>
      </trkpt>
      <trkpt lat="45.06298" lon="5.01089">
        <ele>178.9</ele>
        <time>2022-05-07T13:14:00.000Z</time>
      </trkpt>
      <trkpt lat="45.06302" lon="5.01091">
        <ele>178.9</ele>
        <time>2022-05-07T13:14:01.000Z</time>
      </trkpt>
      <trkpt lat="45.06305" lon="5.01092">
        <ele>178.9</ele>
        <time>2022-05-07T13:14:02.000Z</time>
      </trkpt>
      <trkpt lat="45.06309" lon="5.01093">
        <ele>178.9</ele>
        <time>2022-05-07T13:14:03.000Z</time>
      </trkpt>
      <trkpt lat="45.06313" lon="5.01095">
        <ele>178.8</ele>
        <time>2022-05-07T13:14:04.000Z</time>
      </trkpt>
      <trkpt lat="45.06317" lon="5.01096">
        <ele>178.7</ele>
        <time>2022-05-07T13:14:05.000Z</time>
      </trkpt>
      <trkpt lat="45.0632" lon="5.01097">
        <ele>178.7</ele>
        <time>2022-05-07T13:14:06.000Z</time>
      </trkpt>
      <trkpt lat="45.06324" lon="5.01099">
        <ele>178.7</ele>
        <time>2022-05-07T13:14:07.000Z</time>
      </trkpt>
      <trkpt lat="45.06328" lon="5.011">
        <ele>178.7</ele>
        <time>2022-05-07T13:14:08.000Z</time>
      </trkpt>
      <trkpt lat="45.06332" lon="5.01102">
        <ele>178.8</ele>
        <time>2022-05-07T13:14:09.000Z</time>
      </trkpt>
      <trkpt lat="45.06336" lon="5.01104">
        <ele>178.9</ele>
        <time>2022-05-07T13:14:10.000Z</time>
      </trkpt>
      <trkpt lat="45.06341" lon="5.01105">
        <ele>178.9</ele>
        <time>2022-05-07T13:14:11.000Z</time>
      </trkpt>
      <trkpt lat="45.06345" lon="5.01106">
        <ele>179</ele>
        <time>2022-05-07T13:14:12.000Z</time>
      </trkpt>
      <trkpt lat="45.0635" lon="5.01108">
        <ele>179.1</ele>
        <time>2022-05-07T13:14:13.000Z</time>
      </trkpt>
      <trkpt lat="45.06354" lon="5.0111">
        <ele>179.1</ele>
        <time>2022-05-07T13:14:14.000Z</time>
      </trkpt>
      <trkpt lat="45.06359" lon="5.01111">
        <ele>179.1</ele>
        <time>2022-05-07T13:14:15.000Z</time>
      </trkpt>
      <trkpt lat="45.06363" lon="5.01113">
        <ele>179.4</ele>
        <time>2022-05-07T13:14:16.000Z</time>
      </trkpt>
      <trkpt lat="45.06367" lon="5.01115">
        <ele>179.6</ele>
        <time>2022-05-07T13:14:17.000Z</time>
      </trkpt>
      <trkpt lat="45.06371" lon="5.01116">
        <ele>179.8</ele>
        <time>2022-05-07T13:14:18.000Z</time>
      </trkpt>
      <trkpt lat="45.06376" lon="5.01118">
        <ele>179.9</ele>
        <time>2022-05-07T13:14:19.000Z</time>
      </trkpt>
      <trkpt lat="45.0638" lon="5.01119">
        <ele>180</ele>
        <time>2022-05-07T13:14:20.000Z</time>
      </trkpt>
      <trkpt lat="45.06384" lon="5.01121">
        <ele>180</ele>
        <time>2022-05-07T13:14:21.000Z</time>
      </trkpt>
      <trkpt lat="45.06388" lon="5.01122">
        <ele>180.1</ele>
        <time>2022-05-07T13:14:22.000Z</time>
      </trkpt>
      <trkpt lat="45.06392" lon="5.01124">
        <ele>180.2</ele>
        <time>2022-05-07T13:14:23.000Z</time>
      </trkpt>
      <trkpt lat="45.06396" lon="5.01126">
        <ele>180.4</ele>
        <time>2022-05-07T13:14:24.000Z</time>
      </trkpt>
      <trkpt lat="45.064" lon="5.01128">
        <ele>180.6</ele>
        <time>2022-05-07T13:14:25.000Z</time>
      </trkpt>
      <trkpt lat="45.06404" lon="5.0113">
        <ele>180.7</ele>
        <time>2022-05-07T13:14:26.000Z</time>
      </trkpt>
      <trkpt lat="45.06408" lon="5.01133">
        <ele>180.8</ele>
        <time>2022-05-07T13:14:27.000Z</time>
      </trkpt>
      <trkpt lat="45.06412" lon="5.01134">
        <ele>180.8</ele>
        <time>2022-05-07T13:14:28.000Z</time>
      </trkpt>
      <trkpt lat="45.06416" lon="5.01136">
        <ele>180.7</ele>
        <time>2022-05-07T13:14:29.000Z</time>
      </trkpt>
      <trkpt lat="45.06421" lon="5.01138">
        <ele>180.7</ele>
        <time>2022-05-07T13:14:30.000Z</time>
      </trkpt>
      <trkpt lat="45.06425" lon="5.01139">
        <ele>180.7</ele>
        <time>2022-05-07T13:14:31.000Z</time>
      </trkpt>
      <trkpt lat="45.06429" lon="5.01141">
        <ele>181</ele>
        <time>2022-05-07T13:14:32.000Z</time>
      </trkpt>
      <trkpt lat="45.06434" lon="5.01142">
        <ele>181.1</ele>
        <time>2022-05-07T13:14:33.000Z</time>
      </trkpt>
      <trkpt lat="45.06438" lon="5.01144">
        <ele>181.3</ele>
        <time>2022-05-07T13:14:34.000Z</time>
      </trkpt>
      <trkpt lat="45.06444" lon="5.01145">
        <ele>181.3</ele>
        <time>2022-05-07T13:14:35.000Z</time>
      </trkpt>
      <trkpt lat="45.06448" lon="5.01146">
        <ele>181.2</ele>
        <time>2022-05-07T13:14:36.000Z</time>
      </trkpt>
      <trkpt lat="45.06453" lon="5.01147">
        <ele>181.3</ele>
        <time>2022-05-07T13:14:37.000Z</time>
      </trkpt>
      <trkpt lat="45.06456" lon="5.01149">
        <ele>181.4</ele>
        <time>2022-05-07T13:14:38.000Z</time>
      </trkpt>
      <trkpt lat="45.06461" lon="5.0115">
        <ele>181.3</ele>
        <time>2022-05-07T13:14:39.000Z</time>
      </trkpt>
      <trkpt lat="45.06465" lon="5.01152">
        <ele>181.4</ele>
        <time>2022-05-07T13:14:40.000Z</time>
      </trkpt>
      <trkpt lat="45.06469" lon="5.01154">
        <ele>181.4</ele>
        <time>2022-05-07T13:14:41.000Z</time>
      </trkpt>
      <trkpt lat="45.06473" lon="5.01155">
        <ele>181.3</ele>
        <time>2022-05-07T13:14:42.000Z</time>
      </trkpt>
      <trkpt lat="45.06477" lon="5.01156">
        <ele>181.4</ele>
        <time>2022-05-07T13:14:43.000Z</time>
      </trkpt>
      <trkpt lat="45.06481" lon="5.01157">
        <ele>181.4</ele>
        <time>2022-05-07T13:14:44.000Z</time>
      </trkpt>
      <trkpt lat="45.06484" lon="5.01159">
        <ele>181.5</ele>
        <time>2022-05-07T13:14:45.000Z</time>
      </trkpt>
      <trkpt lat="45.06488" lon="5.0116">
        <ele>181.6</ele>
        <time>2022-05-07T13:14:46.000Z</time>
      </trkpt>
      <trkpt lat="45.06492" lon="5.01162">
        <ele>181.7</ele>
        <time>2022-05-07T13:14:47.000Z</time>
      </trkpt>
      <trkpt lat="45.06495" lon="5.01163">
        <ele>181.8</ele>
        <time>2022-05-07T13:14:48.000Z</time>
      </trkpt>
      <trkpt lat="45.06499" lon="5.01165">
        <ele>181.8</ele>
        <time>2022-05-07T13:14:49.000Z</time>
      </trkpt>
      <trkpt lat="45.06502" lon="5.01166">
        <ele>181.8</ele>
        <time>2022-05-07T13:14:50.000Z</time>
      </trkpt>
      <trkpt lat="45.06507" lon="5.01167">
        <ele>181.9</ele>
        <time>2022-05-07T13:14:51.000Z</time>
      </trkpt>
      <trkpt lat="45.0651" lon="5.01169">
        <ele>182.2</ele>
        <time>2022-05-07T13:14:52.000Z</time>
      </trkpt>
      <trkpt lat="45.06514" lon="5.01172">
        <ele>182.6</ele>
        <time>2022-05-07T13:14:53.000Z</time>
      </trkpt>
      <trkpt lat="45.06517" lon="5.01174">
        <ele>183</ele>
        <time>2022-05-07T13:14:54.000Z</time>
      </trkpt>
      <trkpt lat="45.0652" lon="5.01177">
        <ele>183.3</ele>
        <time>2022-05-07T13:14:55.000Z</time>
      </trkpt>
      <trkpt lat="45.06524" lon="5.01179">
        <ele>183.5</ele>
        <time>2022-05-07T13:14:56.000Z</time>
      </trkpt>
      <trkpt lat="45.06528" lon="5.01182">
        <ele>183.7</ele>
        <time>2022-05-07T13:14:57.000Z</time>
      </trkpt>
      <trkpt lat="45.06531" lon="5.01184">
        <ele>184</ele>
        <time>2022-05-07T13:14:58.000Z</time>
      </trkpt>
      <trkpt lat="45.06534" lon="5.01187">
        <ele>184.3</ele>
        <time>2022-05-07T13:14:59.000Z</time>
      </trkpt>
      <trkpt lat="45.06537" lon="5.01189">
        <ele>184.5</ele>
        <time>2022-05-07T13:15:00.000Z</time>
      </trkpt>
      <trkpt lat="45.0654" lon="5.01192">
        <ele>184.7</ele>
        <time>2022-05-07T13:15:01.000Z</time>
      </trkpt>
      <trkpt lat="45.06544" lon="5.01194">
        <ele>184.8</ele>
        <time>2022-05-07T13:15:02.000Z</time>
      </trkpt>
      <trkpt lat="45.06547" lon="5.01196">
        <ele>185</ele>
        <time>2022-05-07T13:15:03.000Z</time>
      </trkpt>
      <trkpt lat="45.0655" lon="5.01199">
        <ele>185.3</ele>
        <time>2022-05-07T13:15:04.000Z</time>
      </trkpt>
      <trkpt lat="45.06553" lon="5.01202">
        <ele>185.6</ele>
        <time>2022-05-07T13:15:05.000Z</time>
      </trkpt>
      <trkpt lat="45.06556" lon="5.01205">
        <ele>185.8</ele>
        <time>2022-05-07T13:15:06.000Z</time>
      </trkpt>
      <trkpt lat="45.06559" lon="5.01207">
        <ele>185.7</ele>
        <time>2022-05-07T13:15:07.000Z</time>
      </trkpt>
      <trkpt lat="45.06562" lon="5.0121">
        <ele>185.7</ele>
        <time>2022-05-07T13:15:08.000Z</time>
      </trkpt>
      <trkpt lat="45.06565" lon="5.01213">
        <ele>185.8</ele>
        <time>2022-05-07T13:15:09.000Z</time>
      </trkpt>
      <trkpt lat="45.06567" lon="5.01216">
        <ele>185.8</ele>
        <time>2022-05-07T13:15:10.000Z</time>
      </trkpt>
      <trkpt lat="45.06569" lon="5.01219">
        <ele>185.7</ele>
        <time>2022-05-07T13:15:11.000Z</time>
      </trkpt>
      <trkpt lat="45.06572" lon="5.01221">
        <ele>185.4</ele>
        <time>2022-05-07T13:15:12.000Z</time>
      </trkpt>
      <trkpt lat="45.06574" lon="5.01224">
        <ele>185.3</ele>
        <time>2022-05-07T13:15:13.000Z</time>
      </trkpt>
      <trkpt lat="45.06577" lon="5.01227">
        <ele>185.3</ele>
        <time>2022-05-07T13:15:14.000Z</time>
      </trkpt>
      <trkpt lat="45.06579" lon="5.0123">
        <ele>185.3</ele>
        <time>2022-05-07T13:15:15.000Z</time>
      </trkpt>
      <trkpt lat="45.06582" lon="5.01232">
        <ele>185.3</ele>
        <time>2022-05-07T13:15:16.000Z</time>
      </trkpt>
      <trkpt lat="45.06584" lon="5.01235">
        <ele>185.2</ele>
        <time>2022-05-07T13:15:17.000Z</time>
      </trkpt>
      <trkpt lat="45.06587" lon="5.01238">
        <ele>185.4</ele>
        <time>2022-05-07T13:15:18.000Z</time>
      </trkpt>
      <trkpt lat="45.06589" lon="5.01241">
        <ele>185.6</ele>
        <time>2022-05-07T13:15:19.000Z</time>
      </trkpt>
      <trkpt lat="45.06592" lon="5.01245">
        <ele>185.7</ele>
        <time>2022-05-07T13:15:20.000Z</time>
      </trkpt>
      <trkpt lat="45.06595" lon="5.01248">
        <ele>185.6</ele>
        <time>2022-05-07T13:15:21.000Z</time>
      </trkpt>
      <trkpt lat="45.06599" lon="5.01252">
        <ele>185.7</ele>
        <time>2022-05-07T13:15:22.000Z</time>
      </trkpt>
      <trkpt lat="45.06602" lon="5.01256">
        <ele>185.8</ele>
        <time>2022-05-07T13:15:23.000Z</time>
      </trkpt>
      <trkpt lat="45.06606" lon="5.0126">
        <ele>185.6</ele>
        <time>2022-05-07T13:15:24.000Z</time>
      </trkpt>
      <trkpt lat="45.0661" lon="5.01263">
        <ele>185.3</ele>
        <time>2022-05-07T13:15:25.000Z</time>
      </trkpt>
      <trkpt lat="45.06613" lon="5.01267">
        <ele>185.3</ele>
        <time>2022-05-07T13:15:26.000Z</time>
      </trkpt>
      <trkpt lat="45.06616" lon="5.01271">
        <ele>185.6</ele>
        <time>2022-05-07T13:15:27.000Z</time>
      </trkpt>
      <trkpt lat="45.06619" lon="5.01275">
        <ele>185.8</ele>
        <time>2022-05-07T13:15:28.000Z</time>
      </trkpt>
      <trkpt lat="45.06621" lon="5.01278">
        <ele>186.1</ele>
        <time>2022-05-07T13:15:29.000Z</time>
      </trkpt>
      <trkpt lat="45.06623" lon="5.01281">
        <ele>186.3</ele>
        <time>2022-05-07T13:15:30.000Z</time>
      </trkpt>
      <trkpt lat="45.06625" lon="5.01284">
        <ele>186.4</ele>
        <time>2022-05-07T13:15:31.000Z</time>
      </trkpt>
      <trkpt lat="45.06628" lon="5.01287">
        <ele>186.6</ele>
        <time>2022-05-07T13:15:32.000Z</time>
      </trkpt>
      <trkpt lat="45.0663" lon="5.0129">
        <ele>186.6</ele>
        <time>2022-05-07T13:15:33.000Z</time>
      </trkpt>
      <trkpt lat="45.06632" lon="5.01293">
        <ele>186.5</ele>
        <time>2022-05-07T13:15:34.000Z</time>
      </trkpt>
      <trkpt lat="45.06635" lon="5.01296">
        <ele>186.2</ele>
        <time>2022-05-07T13:15:35.000Z</time>
      </trkpt>
      <trkpt lat="45.06637" lon="5.01299">
        <ele>185.9</ele>
        <time>2022-05-07T13:15:36.000Z</time>
      </trkpt>
      <trkpt lat="45.0664" lon="5.01302">
        <ele>185.7</ele>
        <time>2022-05-07T13:15:37.000Z</time>
      </trkpt>
      <trkpt lat="45.06643" lon="5.01305">
        <ele>185.8</ele>
        <time>2022-05-07T13:15:38.000Z</time>
      </trkpt>
      <trkpt lat="45.06645" lon="5.01308">
        <ele>186.2</ele>
        <time>2022-05-07T13:15:39.000Z</time>
      </trkpt>
      <trkpt lat="45.06647" lon="5.01311">
        <ele>186.5</ele>
        <time>2022-05-07T13:15:40.000Z</time>
      </trkpt>
      <trkpt lat="45.06649" lon="5.01315">
        <ele>186.8</ele>
        <time>2022-05-07T13:15:41.000Z</time>
      </trkpt>
      <trkpt lat="45.06651" lon="5.01318">
        <ele>187</ele>
        <time>2022-05-07T13:15:42.000Z</time>
      </trkpt>
      <trkpt lat="45.06653" lon="5.0132">
        <ele>187</ele>
        <time>2022-05-07T13:15:43.000Z</time>
      </trkpt>
      <trkpt lat="45.06655" lon="5.01323">
        <ele>187.1</ele>
        <time>2022-05-07T13:15:45.000Z</time>
      </trkpt>
      <trkpt lat="45.06657" lon="5.01326">
        <ele>187.1</ele>
        <time>2022-05-07T13:15:47.000Z</time>
      </trkpt>
      <trkpt lat="45.06653" lon="5.01329">
        <ele>188</ele>
        <time>2022-05-07T13:16:45.000Z</time>
      </trkpt>
      <trkpt lat="45.0665" lon="5.01328">
        <ele>188.4</ele>
        <time>2022-05-07T13:16:46.000Z</time>
      </trkpt>
      <trkpt lat="45.06645" lon="5.01329">
        <ele>189.2</ele>
        <time>2022-05-07T13:16:47.000Z</time>
      </trkpt>
      <trkpt lat="45.06643" lon="5.0133">
        <ele>189.7</ele>
        <time>2022-05-07T13:16:48.000Z</time>
      </trkpt>
      <trkpt lat="45.0664" lon="5.01328">
        <ele>190</ele>
        <time>2022-05-07T13:16:49.000Z</time>
      </trkpt>
      <trkpt lat="45.06629" lon="5.01329">
        <ele>193.6</ele>
        <time>2022-05-07T13:16:52.000Z</time>
      </trkpt>
      <trkpt lat="45.06626" lon="5.01334">
        <ele>195.9</ele>
        <time>2022-05-07T13:16:53.000Z</time>
      </trkpt>
      <trkpt lat="45.06628" lon="5.01335">
        <ele>195.3</ele>
        <time>2022-05-07T13:16:54.000Z</time>
      </trkpt>
      <trkpt lat="45.06637" lon="5.01335">
        <ele>192</ele>
        <time>2022-05-07T13:16:55.000Z</time>
      </trkpt>
      <trkpt lat="45.06643" lon="5.01336">
        <ele>190.7</ele>
        <time>2022-05-07T13:16:56.000Z</time>
      </trkpt>
      <trkpt lat="45.06648" lon="5.01334">
        <ele>189.5</ele>
        <time>2022-05-07T13:16:57.000Z</time>
      </trkpt>
      <trkpt lat="45.0665" lon="5.01334">
        <ele>189</ele>
        <time>2022-05-07T13:16:58.000Z</time>
      </trkpt>
      <trkpt lat="45.06651" lon="5.01321">
        <ele>187.4</ele>
        <time>2022-05-07T13:18:51.000Z</time>
      </trkpt>
      <trkpt lat="45.06652" lon="5.01327">
        <ele>187.9</ele>
        <time>2022-05-07T13:20:35.000Z</time>
      </trkpt>
      <trkpt lat="45.06657" lon="5.01326">
        <ele>187.1</ele>
        <time>2022-05-07T13:20:36.000Z</time>
      </trkpt>
      <trkpt lat="45.06659" lon="5.01328">
        <ele>187</ele>
        <time>2022-05-07T13:20:37.000Z</time>
      </trkpt>
      <trkpt lat="45.0666" lon="5.01329">
        <ele>186.8</ele>
        <time>2022-05-07T13:20:38.000Z</time>
      </trkpt>
      <trkpt lat="45.06664" lon="5.01329">
        <ele>186.3</ele>
        <time>2022-05-07T13:20:40.000Z</time>
      </trkpt>
      <trkpt lat="45.06666" lon="5.0133">
        <ele>186</ele>
        <time>2022-05-07T13:20:42.000Z</time>
      </trkpt>
      <trkpt lat="45.06658" lon="5.01339">
        <ele>188.4</ele>
        <time>2022-05-07T13:20:57.000Z</time>
      </trkpt>
      <trkpt lat="45.06655" lon="5.01338">
        <ele>188.9</ele>
        <time>2022-05-07T13:21:00.000Z</time>
      </trkpt>
      <trkpt lat="45.06647" lon="5.01329">
        <ele>189</ele>
        <time>2022-05-07T13:21:17.000Z</time>
      </trkpt>
      <trkpt lat="45.0665" lon="5.01323">
        <ele>187.6</ele>
        <time>2022-05-07T13:21:47.000Z</time>
      </trkpt>
      <trkpt lat="45.06655" lon="5.01318">
        <ele>186.7</ele>
        <time>2022-05-07T13:22:05.000Z</time>
      </trkpt>
      <trkpt lat="45.06653" lon="5.01316">
        <ele>186.6</ele>
        <time>2022-05-07T13:22:06.000Z</time>
      </trkpt>
      <trkpt lat="45.0665" lon="5.01328">
        <ele>188.4</ele>
        <time>2022-05-07T13:22:47.000Z</time>
      </trkpt>
      <trkpt lat="45.06658" lon="5.01322">
        <ele>186.6</ele>
        <time>2022-05-07T13:31:19.000Z</time>
      </trkpt>
      <trkpt lat="45.06662" lon="5.01318">
        <ele>185.9</ele>
        <time>2022-05-07T13:32:24.000Z</time>
      </trkpt>
      <trkpt lat="45.06659" lon="5.01314">
        <ele>185.9</ele>
        <time>2022-05-07T13:32:46.000Z</time>
      </trkpt>
      <trkpt lat="45.06656" lon="5.01313">
        <ele>186</ele>
        <time>2022-05-07T13:32:47.000Z</time>
      </trkpt>
      <trkpt lat="45.06654" lon="5.01312">
        <ele>186.1</ele>
        <time>2022-05-07T13:32:48.000Z</time>
      </trkpt>
      <trkpt lat="45.06651" lon="5.0131">
        <ele>186</ele>
        <time>2022-05-07T13:32:49.000Z</time>
      </trkpt>
      <trkpt lat="45.06649" lon="5.01308">
        <ele>185.9</ele>
        <time>2022-05-07T13:32:50.000Z</time>
      </trkpt>
      <trkpt lat="45.06647" lon="5.01305">
        <ele>185.7</ele>
        <time>2022-05-07T13:32:51.000Z</time>
      </trkpt>
      <trkpt lat="45.06644" lon="5.01302">
        <ele>185.6</ele>
        <time>2022-05-07T13:32:52.000Z</time>
      </trkpt>
      <trkpt lat="45.06641" lon="5.01299">
        <ele>185.4</ele>
        <time>2022-05-07T13:32:53.000Z</time>
      </trkpt>
      <trkpt lat="45.06639" lon="5.01296">
        <ele>185.3</ele>
        <time>2022-05-07T13:32:54.000Z</time>
      </trkpt>
      <trkpt lat="45.06637" lon="5.01294">
        <ele>185.6</ele>
        <time>2022-05-07T13:32:55.000Z</time>
      </trkpt>
      <trkpt lat="45.06635" lon="5.0129">
        <ele>185.7</ele>
        <time>2022-05-07T13:32:56.000Z</time>
      </trkpt>
      <trkpt lat="45.06632" lon="5.01287">
        <ele>185.9</ele>
        <time>2022-05-07T13:32:57.000Z</time>
      </trkpt>
      <trkpt lat="45.06629" lon="5.01285">
        <ele>186.1</ele>
        <time>2022-05-07T13:32:58.000Z</time>
      </trkpt>
      <trkpt lat="45.06626" lon="5.01282">
        <ele>186.1</ele>
        <time>2022-05-07T13:32:59.000Z</time>
      </trkpt>
      <trkpt lat="45.06624" lon="5.01279">
        <ele>185.8</ele>
        <time>2022-05-07T13:33:00.000Z</time>
      </trkpt>
      <trkpt lat="45.06621" lon="5.01276">
        <ele>185.7</ele>
        <time>2022-05-07T13:33:01.000Z</time>
      </trkpt>
      <trkpt lat="45.06619" lon="5.01273">
        <ele>185.5</ele>
        <time>2022-05-07T13:33:02.000Z</time>
      </trkpt>
      <trkpt lat="45.06616" lon="5.0127">
        <ele>185.5</ele>
        <time>2022-05-07T13:33:03.000Z</time>
      </trkpt>
      <trkpt lat="45.06613" lon="5.01267">
        <ele>185.3</ele>
        <time>2022-05-07T13:33:04.000Z</time>
      </trkpt>
      <trkpt lat="45.0661" lon="5.01265">
        <ele>185.5</ele>
        <time>2022-05-07T13:33:05.000Z</time>
      </trkpt>
      <trkpt lat="45.06606" lon="5.01263">
        <ele>186</ele>
        <time>2022-05-07T13:33:06.000Z</time>
      </trkpt>
      <trkpt lat="45.06603" lon="5.01261">
        <ele>186.4</ele>
        <time>2022-05-07T13:33:07.000Z</time>
      </trkpt>
      <trkpt lat="45.06599" lon="5.01259">
        <ele>187</ele>
        <time>2022-05-07T13:33:08.000Z</time>
      </trkpt>
      <trkpt lat="45.06594" lon="5.01257">
        <ele>187.6</ele>
        <time>2022-05-07T13:33:09.000Z</time>
      </trkpt>
      <trkpt lat="45.0659" lon="5.01252">
        <ele>187.4</ele>
        <time>2022-05-07T13:33:10.000Z</time>
      </trkpt>
      <trkpt lat="45.06586" lon="5.01248">
        <ele>187.1</ele>
        <time>2022-05-07T13:33:11.000Z</time>
      </trkpt>
      <trkpt lat="45.06581" lon="5.01244">
        <ele>187.6</ele>
        <time>2022-05-07T13:33:12.000Z</time>
      </trkpt>
      <trkpt lat="45.06577" lon="5.01239">
        <ele>187.8</ele>
        <time>2022-05-07T13:33:13.000Z</time>
      </trkpt>
      <trkpt lat="45.06573" lon="5.01235">
        <ele>188</ele>
        <time>2022-05-07T13:33:14.000Z</time>
      </trkpt>
      <trkpt lat="45.06569" lon="5.0123">
        <ele>188.1</ele>
        <time>2022-05-07T13:33:15.000Z</time>
      </trkpt>
      <trkpt lat="45.06564" lon="5.01227">
        <ele>188.2</ele>
        <time>2022-05-07T13:33:16.000Z</time>
      </trkpt>
      <trkpt lat="45.0656" lon="5.01221">
        <ele>187.9</ele>
        <time>2022-05-07T13:33:17.000Z</time>
      </trkpt>
      <trkpt lat="45.06555" lon="5.01216">
        <ele>188</ele>
        <time>2022-05-07T13:33:18.000Z</time>
      </trkpt>
      <trkpt lat="45.06549" lon="5.0121">
        <ele>187.8</ele>
        <time>2022-05-07T13:33:19.000Z</time>
      </trkpt>
      <trkpt lat="45.06544" lon="5.01203">
        <ele>186.9</ele>
        <time>2022-05-07T13:33:20.000Z</time>
      </trkpt>
      <trkpt lat="45.06538" lon="5.01198">
        <ele>186.3</ele>
        <time>2022-05-07T13:33:21.000Z</time>
      </trkpt>
      <trkpt lat="45.06532" lon="5.01194">
        <ele>185.5</ele>
        <time>2022-05-07T13:33:22.000Z</time>
      </trkpt>
      <trkpt lat="45.06525" lon="5.01187">
        <ele>184.9</ele>
        <time>2022-05-07T13:33:23.000Z</time>
      </trkpt>
      <trkpt lat="45.06517" lon="5.01183">
        <ele>184.7</ele>
        <time>2022-05-07T13:33:24.000Z</time>
      </trkpt>
      <trkpt lat="45.0651" lon="5.01178">
        <ele>184.2</ele>
        <time>2022-05-07T13:33:25.000Z</time>
      </trkpt>
      <trkpt lat="45.06503" lon="5.01174">
        <ele>183.6</ele>
        <time>2022-05-07T13:33:26.000Z</time>
      </trkpt>
      <trkpt lat="45.06497" lon="5.01172">
        <ele>183.4</ele>
        <time>2022-05-07T13:33:27.000Z</time>
      </trkpt>
      <trkpt lat="45.06493" lon="5.01168">
        <ele>182.6</ele>
        <time>2022-05-07T13:33:28.000Z</time>
      </trkpt>
      <trkpt lat="45.06487" lon="5.01164">
        <ele>182.2</ele>
        <time>2022-05-07T13:33:29.000Z</time>
      </trkpt>
      <trkpt lat="45.06482" lon="5.01161">
        <ele>181.9</ele>
        <time>2022-05-07T13:33:30.000Z</time>
      </trkpt>
      <trkpt lat="45.06476" lon="5.01158">
        <ele>181.6</ele>
        <time>2022-05-07T13:33:31.000Z</time>
      </trkpt>
      <trkpt lat="45.06471" lon="5.01156">
        <ele>181.5</ele>
        <time>2022-05-07T13:33:32.000Z</time>
      </trkpt>
      <trkpt lat="45.06466" lon="5.01153">
        <ele>181.6</ele>
        <time>2022-05-07T13:33:33.000Z</time>
      </trkpt>
      <trkpt lat="45.0646" lon="5.01151">
        <ele>181.5</ele>
        <time>2022-05-07T13:33:34.000Z</time>
      </trkpt>
      <trkpt lat="45.06455" lon="5.01148">
        <ele>181.4</ele>
        <time>2022-05-07T13:33:35.000Z</time>
      </trkpt>
      <trkpt lat="45.0645" lon="5.01145">
        <ele>181</ele>
        <time>2022-05-07T13:33:36.000Z</time>
      </trkpt>
      <trkpt lat="45.06444" lon="5.01142">
        <ele>180.6</ele>
        <time>2022-05-07T13:33:37.000Z</time>
      </trkpt>
      <trkpt lat="45.06438" lon="5.01138">
        <ele>180.2</ele>
        <time>2022-05-07T13:33:38.000Z</time>
      </trkpt>
      <trkpt lat="45.06433" lon="5.01135">
        <ele>180.1</ele>
        <time>2022-05-07T13:33:39.000Z</time>
      </trkpt>
      <trkpt lat="45.06428" lon="5.01133">
        <ele>180</ele>
        <time>2022-05-07T13:33:40.000Z</time>
      </trkpt>
      <trkpt lat="45.06422" lon="5.0113">
        <ele>179.9</ele>
        <time>2022-05-07T13:33:41.000Z</time>
      </trkpt>
      <trkpt lat="45.06417" lon="5.01128">
        <ele>179.8</ele>
        <time>2022-05-07T13:33:42.000Z</time>
      </trkpt>
      <trkpt lat="45.06411" lon="5.01126">
        <ele>179.8</ele>
        <time>2022-05-07T13:33:43.000Z</time>
      </trkpt>
      <trkpt lat="45.06406" lon="5.01123">
        <ele>179.7</ele>
        <time>2022-05-07T13:33:44.000Z</time>
      </trkpt>
      <trkpt lat="45.064" lon="5.01122">
        <ele>179.6</ele>
        <time>2022-05-07T13:33:45.000Z</time>
      </trkpt>
      <trkpt lat="45.06395" lon="5.01119">
        <ele>179.3</ele>
        <time>2022-05-07T13:33:46.000Z</time>
      </trkpt>
      <trkpt lat="45.06391" lon="5.01116">
        <ele>178.9</ele>
        <time>2022-05-07T13:33:47.000Z</time>
      </trkpt>
      <trkpt lat="45.06386" lon="5.01114">
        <ele>178.6</ele>
        <time>2022-05-07T13:33:48.000Z</time>
      </trkpt>
      <trkpt lat="45.0638" lon="5.0111">
        <ele>178.3</ele>
        <time>2022-05-07T13:33:49.000Z</time>
      </trkpt>
      <trkpt lat="45.06375" lon="5.01107">
        <ele>178.2</ele>
        <time>2022-05-07T13:33:50.000Z</time>
      </trkpt>
      <trkpt lat="45.06369" lon="5.01104">
        <ele>178.1</ele>
        <time>2022-05-07T13:33:51.000Z</time>
      </trkpt>
      <trkpt lat="45.06363" lon="5.01101">
        <ele>177.9</ele>
        <time>2022-05-07T13:33:52.000Z</time>
      </trkpt>
      <trkpt lat="45.06357" lon="5.01099">
        <ele>177.7</ele>
        <time>2022-05-07T13:33:53.000Z</time>
      </trkpt>
      <trkpt lat="45.06351" lon="5.01097">
        <ele>177.7</ele>
        <time>2022-05-07T13:33:54.000Z</time>
      </trkpt>
      <trkpt lat="45.06345" lon="5.01094">
        <ele>177.4</ele>
        <time>2022-05-07T13:33:55.000Z</time>
      </trkpt>
      <trkpt lat="45.06339" lon="5.01093">
        <ele>177.3</ele>
        <time>2022-05-07T13:33:56.000Z</time>
      </trkpt>
      <trkpt lat="45.06334" lon="5.0109">
        <ele>177</ele>
        <time>2022-05-07T13:33:57.000Z</time>
      </trkpt>
      <trkpt lat="45.06328" lon="5.01088">
        <ele>177.1</ele>
        <time>2022-05-07T13:33:58.000Z</time>
      </trkpt>
      <trkpt lat="45.06323" lon="5.01087">
        <ele>177.2</ele>
        <time>2022-05-07T13:33:59.000Z</time>
      </trkpt>
      <trkpt lat="45.06317" lon="5.01085">
        <ele>177.4</ele>
        <time>2022-05-07T13:34:00.000Z</time>
      </trkpt>
      <trkpt lat="45.06313" lon="5.01084">
        <ele>177.6</ele>
        <time>2022-05-07T13:34:01.000Z</time>
      </trkpt>
      <trkpt lat="45.06308" lon="5.01082">
        <ele>177.8</ele>
        <time>2022-05-07T13:34:02.000Z</time>
      </trkpt>
      <trkpt lat="45.06302" lon="5.0108">
        <ele>177.9</ele>
        <time>2022-05-07T13:34:03.000Z</time>
      </trkpt>
      <trkpt lat="45.06296" lon="5.01077">
        <ele>177.8</ele>
        <time>2022-05-07T13:34:04.000Z</time>
      </trkpt>
      <trkpt lat="45.0629" lon="5.01075">
        <ele>177.8</ele>
        <time>2022-05-07T13:34:05.000Z</time>
      </trkpt>
      <trkpt lat="45.06284" lon="5.01073">
        <ele>177.7</ele>
        <time>2022-05-07T13:34:06.000Z</time>
      </trkpt>
      <trkpt lat="45.06278" lon="5.0107">
        <ele>177.6</ele>
        <time>2022-05-07T13:34:07.000Z</time>
      </trkpt>
      <trkpt lat="45.06273" lon="5.0107">
        <ele>177.3</ele>
        <time>2022-05-07T13:34:08.000Z</time>
      </trkpt>
      <trkpt lat="45.06267" lon="5.01069">
        <ele>177.1</ele>
        <time>2022-05-07T13:34:09.000Z</time>
      </trkpt>
      <trkpt lat="45.06262" lon="5.01069">
        <ele>176.9</ele>
        <time>2022-05-07T13:34:10.000Z</time>
      </trkpt>
      <trkpt lat="45.06258" lon="5.01069">
        <ele>176.8</ele>
        <time>2022-05-07T13:34:11.000Z</time>
      </trkpt>
      <trkpt lat="45.06253" lon="5.01069">
        <ele>176.5</ele>
        <time>2022-05-07T13:34:12.000Z</time>
      </trkpt>
      <trkpt lat="45.06249" lon="5.0107">
        <ele>176.5</ele>
        <time>2022-05-07T13:34:13.000Z</time>
      </trkpt>
      <trkpt lat="45.06244" lon="5.0107">
        <ele>176.5</ele>
        <time>2022-05-07T13:34:14.000Z</time>
      </trkpt>
      <trkpt lat="45.06239" lon="5.0107">
        <ele>176.6</ele>
        <time>2022-05-07T13:34:15.000Z</time>
      </trkpt>
      <trkpt lat="45.06234" lon="5.01071">
        <ele>176.7</ele>
        <time>2022-05-07T13:34:16.000Z</time>
      </trkpt>
      <trkpt lat="45.0623" lon="5.01072">
        <ele>176.8</ele>
        <time>2022-05-07T13:34:17.000Z</time>
      </trkpt>
      <trkpt lat="45.06225" lon="5.01074">
        <ele>177</ele>
        <time>2022-05-07T13:34:18.000Z</time>
      </trkpt>
      <trkpt lat="45.06221" lon="5.01076">
        <ele>177</ele>
        <time>2022-05-07T13:34:19.000Z</time>
      </trkpt>
      <trkpt lat="45.06215" lon="5.01078">
        <ele>176.8</ele>
        <time>2022-05-07T13:34:20.000Z</time>
      </trkpt>
      <trkpt lat="45.06209" lon="5.0108">
        <ele>176.7</ele>
        <time>2022-05-07T13:34:21.000Z</time>
      </trkpt>
      <trkpt lat="45.06204" lon="5.01083">
        <ele>176.6</ele>
        <time>2022-05-07T13:34:22.000Z</time>
      </trkpt>
      <trkpt lat="45.06199" lon="5.01086">
        <ele>176.5</ele>
        <time>2022-05-07T13:34:23.000Z</time>
      </trkpt>
      <trkpt lat="45.06193" lon="5.0109">
        <ele>176.3</ele>
        <time>2022-05-07T13:34:24.000Z</time>
      </trkpt>
      <trkpt lat="45.06187" lon="5.01093">
        <ele>176.1</ele>
        <time>2022-05-07T13:34:25.000Z</time>
      </trkpt>
      <trkpt lat="45.0618" lon="5.01097">
        <ele>175.7</ele>
        <time>2022-05-07T13:34:26.000Z</time>
      </trkpt>
      <trkpt lat="45.06173" lon="5.011">
        <ele>175.2</ele>
        <time>2022-05-07T13:34:27.000Z</time>
      </trkpt>
      <trkpt lat="45.06166" lon="5.01104">
        <ele>174.7</ele>
        <time>2022-05-07T13:34:28.000Z</time>
      </trkpt>
      <trkpt lat="45.06159" lon="5.01108">
        <ele>174.6</ele>
        <time>2022-05-07T13:34:29.000Z</time>
      </trkpt>
      <trkpt lat="45.06151" lon="5.01112">
        <ele>174.5</ele>
        <time>2022-05-07T13:34:30.000Z</time>
      </trkpt>
      <trkpt lat="45.06144" lon="5.01115">
        <ele>174.6</ele>
        <time>2022-05-07T13:34:31.000Z</time>
      </trkpt>
      <trkpt lat="45.06137" lon="5.01119">
        <ele>174.6</ele>
        <time>2022-05-07T13:34:32.000Z</time>
      </trkpt>
      <trkpt lat="45.06129" lon="5.01122">
        <ele>174.2</ele>
        <time>2022-05-07T13:34:33.000Z</time>
      </trkpt>
      <trkpt lat="45.06122" lon="5.01124">
        <ele>173.6</ele>
        <time>2022-05-07T13:34:34.000Z</time>
      </trkpt>
      <trkpt lat="45.06116" lon="5.01126">
        <ele>173</ele>
        <time>2022-05-07T13:34:35.000Z</time>
      </trkpt>
      <trkpt lat="45.06111" lon="5.01132">
        <ele>172.7</ele>
        <time>2022-05-07T13:34:36.000Z</time>
      </trkpt>
      <trkpt lat="45.06106" lon="5.01133">
        <ele>172.4</ele>
        <time>2022-05-07T13:34:37.000Z</time>
      </trkpt>
      <trkpt lat="45.06101" lon="5.01134">
        <ele>172.1</ele>
        <time>2022-05-07T13:34:38.000Z</time>
      </trkpt>
      <trkpt lat="45.06098" lon="5.01136">
        <ele>171.9</ele>
        <time>2022-05-07T13:34:39.000Z</time>
      </trkpt>
      <trkpt lat="45.06096" lon="5.01139">
        <ele>171.9</ele>
        <time>2022-05-07T13:34:40.000Z</time>
      </trkpt>
      <trkpt lat="45.06095" lon="5.01143">
        <ele>172</ele>
        <time>2022-05-07T13:34:41.000Z</time>
      </trkpt>
      <trkpt lat="45.06094" lon="5.01148">
        <ele>172</ele>
        <time>2022-05-07T13:34:42.000Z</time>
      </trkpt>
      <trkpt lat="45.06095" lon="5.01153">
        <ele>172.3</ele>
        <time>2022-05-07T13:34:43.000Z</time>
      </trkpt>
      <trkpt lat="45.06097" lon="5.01159">
        <ele>172.7</ele>
        <time>2022-05-07T13:34:44.000Z</time>
      </trkpt>
      <trkpt lat="45.06099" lon="5.01164">
        <ele>173.2</ele>
        <time>2022-05-07T13:34:45.000Z</time>
      </trkpt>
      <trkpt lat="45.061" lon="5.01168">
        <ele>173.3</ele>
        <time>2022-05-07T13:34:46.000Z</time>
      </trkpt>
      <trkpt lat="45.06101" lon="5.01173">
        <ele>173.3</ele>
        <time>2022-05-07T13:34:47.000Z</time>
      </trkpt>
      <trkpt lat="45.06101" lon="5.01178">
        <ele>173.3</ele>
        <time>2022-05-07T13:34:48.000Z</time>
      </trkpt>
      <trkpt lat="45.06102" lon="5.01183">
        <ele>173.2</ele>
        <time>2022-05-07T13:34:49.000Z</time>
      </trkpt>
      <trkpt lat="45.06103" lon="5.01185">
        <ele>173.3</ele>
        <time>2022-05-07T13:34:50.000Z</time>
      </trkpt>
      <trkpt lat="45.06103" lon="5.01188">
        <ele>173.3</ele>
        <time>2022-05-07T13:34:51.000Z</time>
      </trkpt>
      <trkpt lat="45.06104" lon="5.01192">
        <ele>173.3</ele>
        <time>2022-05-07T13:34:52.000Z</time>
      </trkpt>
      <trkpt lat="45.06105" lon="5.01196">
        <ele>173.4</ele>
        <time>2022-05-07T13:34:53.000Z</time>
      </trkpt>
      <trkpt lat="45.06107" lon="5.012">
        <ele>173.5</ele>
        <time>2022-05-07T13:34:54.000Z</time>
      </trkpt>
      <trkpt lat="45.06107" lon="5.01203">
        <ele>173.6</ele>
        <time>2022-05-07T13:34:55.000Z</time>
      </trkpt>
      <trkpt lat="45.06107" lon="5.01209">
        <ele>173.6</ele>
        <time>2022-05-07T13:34:56.000Z</time>
      </trkpt>
      <trkpt lat="45.06109" lon="5.01213">
        <ele>173.8</ele>
        <time>2022-05-07T13:34:57.000Z</time>
      </trkpt>
      <trkpt lat="45.06109" lon="5.01216">
        <ele>173.9</ele>
        <time>2022-05-07T13:34:58.000Z</time>
      </trkpt>
      <trkpt lat="45.06109" lon="5.01212">
        <ele>173.8</ele>
        <time>2022-05-07T13:35:01.000Z</time>
      </trkpt>
      <trkpt lat="45.06107" lon="5.0121">
        <ele>173.6</ele>
        <time>2022-05-07T13:35:03.000Z</time>
      </trkpt>
      <trkpt lat="45.06105" lon="5.01213">
        <ele>173.5</ele>
        <time>2022-05-07T13:35:05.000Z</time>
      </trkpt>
      <trkpt lat="45.06106" lon="5.01205">
        <ele>173.5</ele>
        <time>2022-05-07T13:35:28.000Z</time>
      </trkpt>
      <trkpt lat="45.06104" lon="5.01209">
        <ele>173.3</ele>
        <time>2022-05-07T13:35:32.000Z</time>
      </trkpt>
      <trkpt lat="45.06105" lon="5.01217">
        <ele>173.5</ele>
        <time>2022-05-07T13:35:35.000Z</time>
      </trkpt>
      <trkpt lat="45.06106" lon="5.01219">
        <ele>173.6</ele>
        <time>2022-05-07T13:35:36.000Z</time>
      </trkpt>
      <trkpt lat="45.06107" lon="5.01224">
        <ele>173.7</ele>
        <time>2022-05-07T13:35:37.000Z</time>
      </trkpt>
      <trkpt lat="45.06107" lon="5.01229">
        <ele>173.9</ele>
        <time>2022-05-07T13:35:38.000Z</time>
      </trkpt>
      <trkpt lat="45.06108" lon="5.01234">
        <ele>174.1</ele>
        <time>2022-05-07T13:35:39.000Z</time>
      </trkpt>
      <trkpt lat="45.06109" lon="5.0124">
        <ele>174.4</ele>
        <time>2022-05-07T13:35:40.000Z</time>
      </trkpt>
      <trkpt lat="45.06109" lon="5.01246">
        <ele>174.7</ele>
        <time>2022-05-07T13:35:41.000Z</time>
      </trkpt>
      <trkpt lat="45.06109" lon="5.01253">
        <ele>174.9</ele>
        <time>2022-05-07T13:35:42.000Z</time>
      </trkpt>
      <trkpt lat="45.06108" lon="5.01259">
        <ele>175</ele>
        <time>2022-05-07T13:35:43.000Z</time>
      </trkpt>
      <trkpt lat="45.06108" lon="5.01264">
        <ele>175.1</ele>
        <time>2022-05-07T13:35:44.000Z</time>
      </trkpt>
      <trkpt lat="45.06108" lon="5.01267">
        <ele>175.1</ele>
        <time>2022-05-07T13:35:45.000Z</time>
      </trkpt>
      <trkpt lat="45.06108" lon="5.01272">
        <ele>175.2</ele>
        <time>2022-05-07T13:35:46.000Z</time>
      </trkpt>
      <trkpt lat="45.06108" lon="5.01276">
        <ele>175.3</ele>
        <time>2022-05-07T13:35:47.000Z</time>
      </trkpt>
      <trkpt lat="45.06108" lon="5.0128">
        <ele>175.4</ele>
        <time>2022-05-07T13:35:48.000Z</time>
      </trkpt>
      <trkpt lat="45.06108" lon="5.01284">
        <ele>175.3</ele>
        <time>2022-05-07T13:35:49.000Z</time>
      </trkpt>
      <trkpt lat="45.06108" lon="5.01289">
        <ele>175.1</ele>
        <time>2022-05-07T13:35:50.000Z</time>
      </trkpt>
      <trkpt lat="45.06108" lon="5.01293">
        <ele>174.9</ele>
        <time>2022-05-07T13:35:51.000Z</time>
      </trkpt>
      <trkpt lat="45.06108" lon="5.01297">
        <ele>174.9</ele>
        <time>2022-05-07T13:35:52.000Z</time>
      </trkpt>
      <trkpt lat="45.06108" lon="5.01301">
        <ele>174.7</ele>
        <time>2022-05-07T13:35:53.000Z</time>
      </trkpt>
      <trkpt lat="45.06108" lon="5.01305">
        <ele>174.6</ele>
        <time>2022-05-07T13:35:54.000Z</time>
      </trkpt>
      <trkpt lat="45.06108" lon="5.01308">
        <ele>174.5</ele>
        <time>2022-05-07T13:35:55.000Z</time>
      </trkpt>
      <trkpt lat="45.06108" lon="5.01312">
        <ele>174.5</ele>
        <time>2022-05-07T13:35:56.000Z</time>
      </trkpt>
      <trkpt lat="45.06108" lon="5.01316">
        <ele>174.6</ele>
        <time>2022-05-07T13:35:57.000Z</time>
      </trkpt>
      <trkpt lat="45.06109" lon="5.01319">
        <ele>174.6</ele>
        <time>2022-05-07T13:35:58.000Z</time>
      </trkpt>
      <trkpt lat="45.06109" lon="5.01323">
        <ele>174.6</ele>
        <time>2022-05-07T13:35:59.000Z</time>
      </trkpt>
      <trkpt lat="45.0611" lon="5.01327">
        <ele>174.8</ele>
        <time>2022-05-07T13:36:00.000Z</time>
      </trkpt>
      <trkpt lat="45.0611" lon="5.0133">
        <ele>174.8</ele>
        <time>2022-05-07T13:36:01.000Z</time>
      </trkpt>
      <trkpt lat="45.06111" lon="5.01334">
        <ele>174.9</ele>
        <time>2022-05-07T13:36:02.000Z</time>
      </trkpt>
      <trkpt lat="45.06112" lon="5.01338">
        <ele>174.7</ele>
        <time>2022-05-07T13:36:03.000Z</time>
      </trkpt>
      <trkpt lat="45.06112" lon="5.01342">
        <ele>174.6</ele>
        <time>2022-05-07T13:36:04.000Z</time>
      </trkpt>
      <trkpt lat="45.06113" lon="5.01346">
        <ele>174.4</ele>
        <time>2022-05-07T13:36:05.000Z</time>
      </trkpt>
      <trkpt lat="45.06114" lon="5.0135">
        <ele>174.2</ele>
        <time>2022-05-07T13:36:06.000Z</time>
      </trkpt>
      <trkpt lat="45.06115" lon="5.01354">
        <ele>174.1</ele>
        <time>2022-05-07T13:36:07.000Z</time>
      </trkpt>
      <trkpt lat="45.06116" lon="5.01358">
        <ele>174</ele>
        <time>2022-05-07T13:36:08.000Z</time>
      </trkpt>
      <trkpt lat="45.06116" lon="5.01361">
        <ele>173.9</ele>
        <time>2022-05-07T13:36:09.000Z</time>
      </trkpt>
      <trkpt lat="45.06117" lon="5.01364">
        <ele>174</ele>
        <time>2022-05-07T13:36:10.000Z</time>
      </trkpt>
      <trkpt lat="45.06118" lon="5.01367">
        <ele>174</ele>
        <time>2022-05-07T13:36:11.000Z</time>
      </trkpt>
      <trkpt lat="45.06119" lon="5.01369">
        <ele>174.1</ele>
        <time>2022-05-07T13:36:12.000Z</time>
      </trkpt>
      <trkpt lat="45.0612" lon="5.01372">
        <ele>174.2</ele>
        <time>2022-05-07T13:36:13.000Z</time>
      </trkpt>
      <trkpt lat="45.0612" lon="5.01375">
        <ele>174.2</ele>
        <time>2022-05-07T13:36:14.000Z</time>
      </trkpt>
      <trkpt lat="45.06121" lon="5.01377">
        <ele>174.2</ele>
        <time>2022-05-07T13:36:15.000Z</time>
      </trkpt>
      <trkpt lat="45.06122" lon="5.0138">
        <ele>174.2</ele>
        <time>2022-05-07T13:36:16.000Z</time>
      </trkpt>
      <trkpt lat="45.06123" lon="5.01384">
        <ele>174.2</ele>
        <time>2022-05-07T13:36:17.000Z</time>
      </trkpt>
      <trkpt lat="45.06123" lon="5.01388">
        <ele>174.1</ele>
        <time>2022-05-07T13:36:18.000Z</time>
      </trkpt>
      <trkpt lat="45.06123" lon="5.01392">
        <ele>174.1</ele>
        <time>2022-05-07T13:36:19.000Z</time>
      </trkpt>
      <trkpt lat="45.06123" lon="5.01395">
        <ele>174.2</ele>
        <time>2022-05-07T13:36:20.000Z</time>
      </trkpt>
      <trkpt lat="45.06124" lon="5.01398">
        <ele>174.3</ele>
        <time>2022-05-07T13:36:21.000Z</time>
      </trkpt>
      <trkpt lat="45.06124" lon="5.01401">
        <ele>174.4</ele>
        <time>2022-05-07T13:36:22.000Z</time>
      </trkpt>
      <trkpt lat="45.06125" lon="5.01406">
        <ele>174.4</ele>
        <time>2022-05-07T13:36:24.000Z</time>
      </trkpt>
      <trkpt lat="45.06126" lon="5.01409">
        <ele>174.6</ele>
        <time>2022-05-07T13:36:25.000Z</time>
      </trkpt>
      <trkpt lat="45.06126" lon="5.01412">
        <ele>174.6</ele>
        <time>2022-05-07T13:36:26.000Z</time>
      </trkpt>
      <trkpt lat="45.06126" lon="5.01415">
        <ele>174.6</ele>
        <time>2022-05-07T13:36:27.000Z</time>
      </trkpt>
      <trkpt lat="45.06126" lon="5.0142">
        <ele>174.7</ele>
        <time>2022-05-07T13:36:28.000Z</time>
      </trkpt>
      <trkpt lat="45.06127" lon="5.01425">
        <ele>174.7</ele>
        <time>2022-05-07T13:36:29.000Z</time>
      </trkpt>
      <trkpt lat="45.06128" lon="5.0143">
        <ele>174.9</ele>
        <time>2022-05-07T13:36:30.000Z</time>
      </trkpt>
      <trkpt lat="45.06129" lon="5.01435">
        <ele>174.9</ele>
        <time>2022-05-07T13:36:31.000Z</time>
      </trkpt>
      <trkpt lat="45.06129" lon="5.01441">
        <ele>175</ele>
        <time>2022-05-07T13:36:32.000Z</time>
      </trkpt>
      <trkpt lat="45.0613" lon="5.01447">
        <ele>175</ele>
        <time>2022-05-07T13:36:33.000Z</time>
      </trkpt>
      <trkpt lat="45.06131" lon="5.01453">
        <ele>174.7</ele>
        <time>2022-05-07T13:36:34.000Z</time>
      </trkpt>
      <trkpt lat="45.06131" lon="5.01458">
        <ele>174.5</ele>
        <time>2022-05-07T13:36:35.000Z</time>
      </trkpt>
      <trkpt lat="45.06132" lon="5.01464">
        <ele>174.3</ele>
        <time>2022-05-07T13:36:36.000Z</time>
      </trkpt>
      <trkpt lat="45.06134" lon="5.01469">
        <ele>174.3</ele>
        <time>2022-05-07T13:36:37.000Z</time>
      </trkpt>
      <trkpt lat="45.06135" lon="5.01475">
        <ele>174.2</ele>
        <time>2022-05-07T13:36:38.000Z</time>
      </trkpt>
      <trkpt lat="45.06136" lon="5.01481">
        <ele>174.1</ele>
        <time>2022-05-07T13:36:39.000Z</time>
      </trkpt>
      <trkpt lat="45.06137" lon="5.01486">
        <ele>174.2</ele>
        <time>2022-05-07T13:36:40.000Z</time>
      </trkpt>
      <trkpt lat="45.06139" lon="5.01492">
        <ele>174.2</ele>
        <time>2022-05-07T13:36:41.000Z</time>
      </trkpt>
      <trkpt lat="45.0614" lon="5.01498">
        <ele>174.2</ele>
        <time>2022-05-07T13:36:42.000Z</time>
      </trkpt>
      <trkpt lat="45.06142" lon="5.01503">
        <ele>174.2</ele>
        <time>2022-05-07T13:36:43.000Z</time>
      </trkpt>
      <trkpt lat="45.06143" lon="5.01508">
        <ele>174.1</ele>
        <time>2022-05-07T13:36:44.000Z</time>
      </trkpt>
      <trkpt lat="45.06145" lon="5.01513">
        <ele>174</ele>
        <time>2022-05-07T13:36:45.000Z</time>
      </trkpt>
      <trkpt lat="45.06146" lon="5.01519">
        <ele>173.8</ele>
        <time>2022-05-07T13:36:46.000Z</time>
      </trkpt>
      <trkpt lat="45.06147" lon="5.01525">
        <ele>173.7</ele>
        <time>2022-05-07T13:36:47.000Z</time>
      </trkpt>
      <trkpt lat="45.06149" lon="5.0153">
        <ele>173.8</ele>
        <time>2022-05-07T13:36:48.000Z</time>
      </trkpt>
      <trkpt lat="45.0615" lon="5.01536">
        <ele>174.1</ele>
        <time>2022-05-07T13:36:49.000Z</time>
      </trkpt>
      <trkpt lat="45.06152" lon="5.01541">
        <ele>174.4</ele>
        <time>2022-05-07T13:36:50.000Z</time>
      </trkpt>
      <trkpt lat="45.06154" lon="5.01547">
        <ele>174.6</ele>
        <time>2022-05-07T13:36:51.000Z</time>
      </trkpt>
      <trkpt lat="45.06155" lon="5.01553">
        <ele>174.9</ele>
        <time>2022-05-07T13:36:52.000Z</time>
      </trkpt>
      <trkpt lat="45.06157" lon="5.01558">
        <ele>175.1</ele>
        <time>2022-05-07T13:36:53.000Z</time>
      </trkpt>
      <trkpt lat="45.06158" lon="5.01564">
        <ele>175.3</ele>
        <time>2022-05-07T13:36:54.000Z</time>
      </trkpt>
      <trkpt lat="45.0616" lon="5.01569">
        <ele>175.4</ele>
        <time>2022-05-07T13:36:55.000Z</time>
      </trkpt>
      <trkpt lat="45.06162" lon="5.01575">
        <ele>175.5</ele>
        <time>2022-05-07T13:36:56.000Z</time>
      </trkpt>
      <trkpt lat="45.06163" lon="5.0158">
        <ele>175.6</ele>
        <time>2022-05-07T13:36:57.000Z</time>
      </trkpt>
      <trkpt lat="45.06164" lon="5.01586">
        <ele>175.6</ele>
        <time>2022-05-07T13:36:58.000Z</time>
      </trkpt>
      <trkpt lat="45.06166" lon="5.01591">
        <ele>175.6</ele>
        <time>2022-05-07T13:36:59.000Z</time>
      </trkpt>
      <trkpt lat="45.06168" lon="5.01597">
        <ele>175.6</ele>
        <time>2022-05-07T13:37:00.000Z</time>
      </trkpt>
      <trkpt lat="45.06169" lon="5.01602">
        <ele>175.6</ele>
        <time>2022-05-07T13:37:01.000Z</time>
      </trkpt>
      <trkpt lat="45.06169" lon="5.01607">
        <ele>175.5</ele>
        <time>2022-05-07T13:37:02.000Z</time>
      </trkpt>
      <trkpt lat="45.0617" lon="5.01612">
        <ele>175.4</ele>
        <time>2022-05-07T13:37:03.000Z</time>
      </trkpt>
      <trkpt lat="45.06171" lon="5.01617">
        <ele>175.4</ele>
        <time>2022-05-07T13:37:04.000Z</time>
      </trkpt>
      <trkpt lat="45.06172" lon="5.01623">
        <ele>175.3</ele>
        <time>2022-05-07T13:37:05.000Z</time>
      </trkpt>
      <trkpt lat="45.06173" lon="5.01628">
        <ele>175.1</ele>
        <time>2022-05-07T13:37:06.000Z</time>
      </trkpt>
      <trkpt lat="45.06173" lon="5.01633">
        <ele>175</ele>
        <time>2022-05-07T13:37:07.000Z</time>
      </trkpt>
      <trkpt lat="45.06174" lon="5.01639">
        <ele>174.8</ele>
        <time>2022-05-07T13:37:08.000Z</time>
      </trkpt>
      <trkpt lat="45.06175" lon="5.01645">
        <ele>174.9</ele>
        <time>2022-05-07T13:37:09.000Z</time>
      </trkpt>
      <trkpt lat="45.06176" lon="5.01651">
        <ele>175</ele>
        <time>2022-05-07T13:37:10.000Z</time>
      </trkpt>
      <trkpt lat="45.06177" lon="5.01657">
        <ele>175.1</ele>
        <time>2022-05-07T13:37:11.000Z</time>
      </trkpt>
      <trkpt lat="45.06178" lon="5.01663">
        <ele>175.2</ele>
        <time>2022-05-07T13:37:12.000Z</time>
      </trkpt>
      <trkpt lat="45.06179" lon="5.01669">
        <ele>175.2</ele>
        <time>2022-05-07T13:37:13.000Z</time>
      </trkpt>
      <trkpt lat="45.06179" lon="5.01676">
        <ele>175.2</ele>
        <time>2022-05-07T13:37:14.000Z</time>
      </trkpt>
      <trkpt lat="45.0618" lon="5.01682">
        <ele>175.2</ele>
        <time>2022-05-07T13:37:15.000Z</time>
      </trkpt>
      <trkpt lat="45.06182" lon="5.01689">
        <ele>175.2</ele>
        <time>2022-05-07T13:37:16.000Z</time>
      </trkpt>
      <trkpt lat="45.06183" lon="5.01694">
        <ele>175.4</ele>
        <time>2022-05-07T13:37:17.000Z</time>
      </trkpt>
      <trkpt lat="45.06184" lon="5.017">
        <ele>175.3</ele>
        <time>2022-05-07T13:37:18.000Z</time>
      </trkpt>
      <trkpt lat="45.06186" lon="5.01707">
        <ele>175.3</ele>
        <time>2022-05-07T13:37:19.000Z</time>
      </trkpt>
      <trkpt lat="45.06187" lon="5.01713">
        <ele>175.3</ele>
        <time>2022-05-07T13:37:20.000Z</time>
      </trkpt>
      <trkpt lat="45.06188" lon="5.0172">
        <ele>175.2</ele>
        <time>2022-05-07T13:37:21.000Z</time>
      </trkpt>
      <trkpt lat="45.0619" lon="5.01726">
        <ele>175.1</ele>
        <time>2022-05-07T13:37:22.000Z</time>
      </trkpt>
      <trkpt lat="45.06191" lon="5.01733">
        <ele>175.1</ele>
        <time>2022-05-07T13:37:23.000Z</time>
      </trkpt>
      <trkpt lat="45.06193" lon="5.01739">
        <ele>175.1</ele>
        <time>2022-05-07T13:37:24.000Z</time>
      </trkpt>
      <trkpt lat="45.06195" lon="5.01745">
        <ele>175.2</ele>
        <time>2022-05-07T13:37:25.000Z</time>
      </trkpt>
      <trkpt lat="45.06196" lon="5.01752">
        <ele>175</ele>
        <time>2022-05-07T13:37:26.000Z</time>
      </trkpt>
      <trkpt lat="45.06198" lon="5.01758">
        <ele>174.7</ele>
        <time>2022-05-07T13:37:27.000Z</time>
      </trkpt>
      <trkpt lat="45.06199" lon="5.01764">
        <ele>174.3</ele>
        <time>2022-05-07T13:37:28.000Z</time>
      </trkpt>
      <trkpt lat="45.062" lon="5.0177">
        <ele>174</ele>
        <time>2022-05-07T13:37:29.000Z</time>
      </trkpt>
      <trkpt lat="45.06202" lon="5.01775">
        <ele>173.8</ele>
        <time>2022-05-07T13:37:30.000Z</time>
      </trkpt>
      <trkpt lat="45.06203" lon="5.01781">
        <ele>173.8</ele>
        <time>2022-05-07T13:37:31.000Z</time>
      </trkpt>
      <trkpt lat="45.06205" lon="5.01787">
        <ele>173.9</ele>
        <time>2022-05-07T13:37:32.000Z</time>
      </trkpt>
      <trkpt lat="45.06206" lon="5.01792">
        <ele>173.9</ele>
        <time>2022-05-07T13:37:33.000Z</time>
      </trkpt>
      <trkpt lat="45.06207" lon="5.01798">
        <ele>174.1</ele>
        <time>2022-05-07T13:37:34.000Z</time>
      </trkpt>
      <trkpt lat="45.06209" lon="5.01803">
        <ele>174.2</ele>
        <time>2022-05-07T13:37:35.000Z</time>
      </trkpt>
      <trkpt lat="45.06211" lon="5.01809">
        <ele>174.4</ele>
        <time>2022-05-07T13:37:36.000Z</time>
      </trkpt>
      <trkpt lat="45.06212" lon="5.01814">
        <ele>174.5</ele>
        <time>2022-05-07T13:37:37.000Z</time>
      </trkpt>
      <trkpt lat="45.06213" lon="5.0182">
        <ele>174.6</ele>
        <time>2022-05-07T13:37:38.000Z</time>
      </trkpt>
      <trkpt lat="45.06215" lon="5.01825">
        <ele>174.7</ele>
        <time>2022-05-07T13:37:39.000Z</time>
      </trkpt>
      <trkpt lat="45.06216" lon="5.01831">
        <ele>174.8</ele>
        <time>2022-05-07T13:37:40.000Z</time>
      </trkpt>
      <trkpt lat="45.06218" lon="5.01837">
        <ele>174.9</ele>
        <time>2022-05-07T13:37:41.000Z</time>
      </trkpt>
      <trkpt lat="45.0622" lon="5.01842">
        <ele>175.1</ele>
        <time>2022-05-07T13:37:42.000Z</time>
      </trkpt>
      <trkpt lat="45.06221" lon="5.01847">
        <ele>175.3</ele>
        <time>2022-05-07T13:37:43.000Z</time>
      </trkpt>
      <trkpt lat="45.06223" lon="5.01853">
        <ele>175.4</ele>
        <time>2022-05-07T13:37:44.000Z</time>
      </trkpt>
      <trkpt lat="45.06224" lon="5.01859">
        <ele>175.3</ele>
        <time>2022-05-07T13:37:45.000Z</time>
      </trkpt>
      <trkpt lat="45.06226" lon="5.01864">
        <ele>175.3</ele>
        <time>2022-05-07T13:37:46.000Z</time>
      </trkpt>
      <trkpt lat="45.06228" lon="5.0187">
        <ele>175.2</ele>
        <time>2022-05-07T13:37:47.000Z</time>
      </trkpt>
      <trkpt lat="45.06229" lon="5.01876">
        <ele>175.2</ele>
        <time>2022-05-07T13:37:48.000Z</time>
      </trkpt>
      <trkpt lat="45.0623" lon="5.01882">
        <ele>175.1</ele>
        <time>2022-05-07T13:37:49.000Z</time>
      </trkpt>
      <trkpt lat="45.06232" lon="5.01887">
        <ele>175.2</ele>
        <time>2022-05-07T13:37:50.000Z</time>
      </trkpt>
      <trkpt lat="45.06234" lon="5.01892">
        <ele>175.2</ele>
        <time>2022-05-07T13:37:51.000Z</time>
      </trkpt>
      <trkpt lat="45.06236" lon="5.01898">
        <ele>175.2</ele>
        <time>2022-05-07T13:37:52.000Z</time>
      </trkpt>
      <trkpt lat="45.06239" lon="5.01903">
        <ele>175.2</ele>
        <time>2022-05-07T13:37:53.000Z</time>
      </trkpt>
      <trkpt lat="45.06241" lon="5.01909">
        <ele>175.3</ele>
        <time>2022-05-07T13:37:54.000Z</time>
      </trkpt>
      <trkpt lat="45.06243" lon="5.01914">
        <ele>175.4</ele>
        <time>2022-05-07T13:37:55.000Z</time>
      </trkpt>
      <trkpt lat="45.06245" lon="5.01919">
        <ele>175.4</ele>
        <time>2022-05-07T13:37:56.000Z</time>
      </trkpt>
      <trkpt lat="45.06247" lon="5.01924">
        <ele>175.4</ele>
        <time>2022-05-07T13:37:57.000Z</time>
      </trkpt>
      <trkpt lat="45.06249" lon="5.0193">
        <ele>175.4</ele>
        <time>2022-05-07T13:37:58.000Z</time>
      </trkpt>
      <trkpt lat="45.06251" lon="5.01935">
        <ele>175.5</ele>
        <time>2022-05-07T13:37:59.000Z</time>
      </trkpt>
      <trkpt lat="45.06253" lon="5.01939">
        <ele>175.5</ele>
        <time>2022-05-07T13:38:00.000Z</time>
      </trkpt>
      <trkpt lat="45.06255" lon="5.01944">
        <ele>175.6</ele>
        <time>2022-05-07T13:38:01.000Z</time>
      </trkpt>
      <trkpt lat="45.06257" lon="5.01948">
        <ele>175.6</ele>
        <time>2022-05-07T13:38:02.000Z</time>
      </trkpt>
      <trkpt lat="45.06259" lon="5.01952">
        <ele>175.6</ele>
        <time>2022-05-07T13:38:03.000Z</time>
      </trkpt>
      <trkpt lat="45.06261" lon="5.01956">
        <ele>175.6</ele>
        <time>2022-05-07T13:38:04.000Z</time>
      </trkpt>
      <trkpt lat="45.06263" lon="5.0196">
        <ele>175.8</ele>
        <time>2022-05-07T13:38:05.000Z</time>
      </trkpt>
      <trkpt lat="45.06264" lon="5.01965">
        <ele>175.8</ele>
        <time>2022-05-07T13:38:06.000Z</time>
      </trkpt>
      <trkpt lat="45.06267" lon="5.0197">
        <ele>176</ele>
        <time>2022-05-07T13:38:07.000Z</time>
      </trkpt>
      <trkpt lat="45.06269" lon="5.01974">
        <ele>176.2</ele>
        <time>2022-05-07T13:38:08.000Z</time>
      </trkpt>
      <trkpt lat="45.06271" lon="5.01979">
        <ele>176.2</ele>
        <time>2022-05-07T13:38:09.000Z</time>
      </trkpt>
      <trkpt lat="45.06274" lon="5.01984">
        <ele>176.1</ele>
        <time>2022-05-07T13:38:10.000Z</time>
      </trkpt>
      <trkpt lat="45.06277" lon="5.01989">
        <ele>176</ele>
        <time>2022-05-07T13:38:11.000Z</time>
      </trkpt>
      <trkpt lat="45.06279" lon="5.01995">
        <ele>175.9</ele>
        <time>2022-05-07T13:38:12.000Z</time>
      </trkpt>
      <trkpt lat="45.06282" lon="5.02">
        <ele>175.8</ele>
        <time>2022-05-07T13:38:13.000Z</time>
      </trkpt>
      <trkpt lat="45.06284" lon="5.02005">
        <ele>176</ele>
        <time>2022-05-07T13:38:14.000Z</time>
      </trkpt>
      <trkpt lat="45.06287" lon="5.0201">
        <ele>176.3</ele>
        <time>2022-05-07T13:38:15.000Z</time>
      </trkpt>
      <trkpt lat="45.06289" lon="5.02015">
        <ele>176.5</ele>
        <time>2022-05-07T13:38:16.000Z</time>
      </trkpt>
      <trkpt lat="45.06291" lon="5.0202">
        <ele>176.7</ele>
        <time>2022-05-07T13:38:17.000Z</time>
      </trkpt>
      <trkpt lat="45.06293" lon="5.02025">
        <ele>177</ele>
        <time>2022-05-07T13:38:18.000Z</time>
      </trkpt>
      <trkpt lat="45.06295" lon="5.02031">
        <ele>177.3</ele>
        <time>2022-05-07T13:38:19.000Z</time>
      </trkpt>
      <trkpt lat="45.06297" lon="5.02036">
        <ele>177.5</ele>
        <time>2022-05-07T13:38:20.000Z</time>
      </trkpt>
      <trkpt lat="45.063" lon="5.02042">
        <ele>177.7</ele>
        <time>2022-05-07T13:38:21.000Z</time>
      </trkpt>
      <trkpt lat="45.06302" lon="5.02047">
        <ele>177.8</ele>
        <time>2022-05-07T13:38:22.000Z</time>
      </trkpt>
      <trkpt lat="45.06303" lon="5.02053">
        <ele>177.8</ele>
        <time>2022-05-07T13:38:23.000Z</time>
      </trkpt>
      <trkpt lat="45.06305" lon="5.02058">
        <ele>177.7</ele>
        <time>2022-05-07T13:38:24.000Z</time>
      </trkpt>
      <trkpt lat="45.06307" lon="5.02064">
        <ele>177.7</ele>
        <time>2022-05-07T13:38:25.000Z</time>
      </trkpt>
      <trkpt lat="45.06309" lon="5.0207">
        <ele>177.7</ele>
        <time>2022-05-07T13:38:26.000Z</time>
      </trkpt>
      <trkpt lat="45.0631" lon="5.02075">
        <ele>177.6</ele>
        <time>2022-05-07T13:38:27.000Z</time>
      </trkpt>
      <trkpt lat="45.06312" lon="5.02081">
        <ele>177.6</ele>
        <time>2022-05-07T13:38:28.000Z</time>
      </trkpt>
      <trkpt lat="45.06314" lon="5.02086">
        <ele>177.7</ele>
        <time>2022-05-07T13:38:29.000Z</time>
      </trkpt>
      <trkpt lat="45.06316" lon="5.02091">
        <ele>178</ele>
        <time>2022-05-07T13:38:30.000Z</time>
      </trkpt>
      <trkpt lat="45.06318" lon="5.02096">
        <ele>178.2</ele>
        <time>2022-05-07T13:38:31.000Z</time>
      </trkpt>
      <trkpt lat="45.0632" lon="5.02102">
        <ele>178.4</ele>
        <time>2022-05-07T13:38:32.000Z</time>
      </trkpt>
      <trkpt lat="45.06321" lon="5.02108">
        <ele>178.5</ele>
        <time>2022-05-07T13:38:33.000Z</time>
      </trkpt>
      <trkpt lat="45.06323" lon="5.02113">
        <ele>178.8</ele>
        <time>2022-05-07T13:38:34.000Z</time>
      </trkpt>
      <trkpt lat="45.06325" lon="5.02119">
        <ele>179</ele>
        <time>2022-05-07T13:38:35.000Z</time>
      </trkpt>
      <trkpt lat="45.06327" lon="5.02124">
        <ele>179.3</ele>
        <time>2022-05-07T13:38:36.000Z</time>
      </trkpt>
      <trkpt lat="45.06329" lon="5.02129">
        <ele>179.5</ele>
        <time>2022-05-07T13:38:37.000Z</time>
      </trkpt>
      <trkpt lat="45.06331" lon="5.02133">
        <ele>179.7</ele>
        <time>2022-05-07T13:38:38.000Z</time>
      </trkpt>
      <trkpt lat="45.06332" lon="5.02137">
        <ele>179.9</ele>
        <time>2022-05-07T13:38:39.000Z</time>
      </trkpt>
      <trkpt lat="45.06334" lon="5.02141">
        <ele>179.8</ele>
        <time>2022-05-07T13:38:40.000Z</time>
      </trkpt>
      <trkpt lat="45.06335" lon="5.02144">
        <ele>179.6</ele>
        <time>2022-05-07T13:38:41.000Z</time>
      </trkpt>
      <trkpt lat="45.06336" lon="5.02147">
        <ele>179.4</ele>
        <time>2022-05-07T13:38:42.000Z</time>
      </trkpt>
      <trkpt lat="45.06338" lon="5.0215">
        <ele>179.3</ele>
        <time>2022-05-07T13:38:43.000Z</time>
      </trkpt>
      <trkpt lat="45.06339" lon="5.02153">
        <ele>179.2</ele>
        <time>2022-05-07T13:38:44.000Z</time>
      </trkpt>
      <trkpt lat="45.06341" lon="5.02156">
        <ele>179.1</ele>
        <time>2022-05-07T13:38:45.000Z</time>
      </trkpt>
      <trkpt lat="45.06342" lon="5.02158">
        <ele>179.1</ele>
        <time>2022-05-07T13:38:46.000Z</time>
      </trkpt>
      <trkpt lat="45.06344" lon="5.02161">
        <ele>179.1</ele>
        <time>2022-05-07T13:38:48.000Z</time>
      </trkpt>
      <trkpt lat="45.06346" lon="5.02163">
        <ele>179.1</ele>
        <time>2022-05-07T13:38:49.000Z</time>
      </trkpt>
      <trkpt lat="45.06347" lon="5.02165">
        <ele>179.1</ele>
        <time>2022-05-07T13:38:50.000Z</time>
      </trkpt>
      <trkpt lat="45.06349" lon="5.02168">
        <ele>179.2</ele>
        <time>2022-05-07T13:38:51.000Z</time>
      </trkpt>
      <trkpt lat="45.06351" lon="5.02171">
        <ele>179.2</ele>
        <time>2022-05-07T13:38:52.000Z</time>
      </trkpt>
      <trkpt lat="45.06353" lon="5.02175">
        <ele>179.3</ele>
        <time>2022-05-07T13:38:53.000Z</time>
      </trkpt>
      <trkpt lat="45.06355" lon="5.02179">
        <ele>179.3</ele>
        <time>2022-05-07T13:38:54.000Z</time>
      </trkpt>
      <trkpt lat="45.06358" lon="5.02183">
        <ele>179.3</ele>
        <time>2022-05-07T13:38:55.000Z</time>
      </trkpt>
      <trkpt lat="45.0636" lon="5.02189">
        <ele>179.2</ele>
        <time>2022-05-07T13:38:56.000Z</time>
      </trkpt>
      <trkpt lat="45.06362" lon="5.02195">
        <ele>179.2</ele>
        <time>2022-05-07T13:38:57.000Z</time>
      </trkpt>
      <trkpt lat="45.06364" lon="5.02201">
        <ele>179.1</ele>
        <time>2022-05-07T13:38:58.000Z</time>
      </trkpt>
      <trkpt lat="45.06366" lon="5.02207">
        <ele>178.9</ele>
        <time>2022-05-07T13:38:59.000Z</time>
      </trkpt>
      <trkpt lat="45.06368" lon="5.02214">
        <ele>178.7</ele>
        <time>2022-05-07T13:39:00.000Z</time>
      </trkpt>
      <trkpt lat="45.0637" lon="5.0222">
        <ele>178.5</ele>
        <time>2022-05-07T13:39:01.000Z</time>
      </trkpt>
      <trkpt lat="45.06373" lon="5.02228">
        <ele>178.4</ele>
        <time>2022-05-07T13:39:02.000Z</time>
      </trkpt>
      <trkpt lat="45.06375" lon="5.02235">
        <ele>178.3</ele>
        <time>2022-05-07T13:39:03.000Z</time>
      </trkpt>
      <trkpt lat="45.06378" lon="5.02243">
        <ele>178.2</ele>
        <time>2022-05-07T13:39:04.000Z</time>
      </trkpt>
      <trkpt lat="45.06381" lon="5.0225">
        <ele>178.2</ele>
        <time>2022-05-07T13:39:05.000Z</time>
      </trkpt>
      <trkpt lat="45.06384" lon="5.02257">
        <ele>178.1</ele>
        <time>2022-05-07T13:39:06.000Z</time>
      </trkpt>
      <trkpt lat="45.06387" lon="5.02263">
        <ele>178</ele>
        <time>2022-05-07T13:39:07.000Z</time>
      </trkpt>
      <trkpt lat="45.0639" lon="5.02268">
        <ele>177.8</ele>
        <time>2022-05-07T13:39:08.000Z</time>
      </trkpt>
      <trkpt lat="45.06393" lon="5.02273">
        <ele>177.8</ele>
        <time>2022-05-07T13:39:09.000Z</time>
      </trkpt>
      <trkpt lat="45.06395" lon="5.02278">
        <ele>177.7</ele>
        <time>2022-05-07T13:39:10.000Z</time>
      </trkpt>
      <trkpt lat="45.06397" lon="5.02281">
        <ele>177.9</ele>
        <time>2022-05-07T13:39:11.000Z</time>
      </trkpt>
      <trkpt lat="45.064" lon="5.02285">
        <ele>178.1</ele>
        <time>2022-05-07T13:39:12.000Z</time>
      </trkpt>
      <trkpt lat="45.06402" lon="5.02288">
        <ele>178.2</ele>
        <time>2022-05-07T13:39:13.000Z</time>
      </trkpt>
      <trkpt lat="45.06405" lon="5.02292">
        <ele>178.4</ele>
        <time>2022-05-07T13:39:14.000Z</time>
      </trkpt>
      <trkpt lat="45.06408" lon="5.02296">
        <ele>178.6</ele>
        <time>2022-05-07T13:39:15.000Z</time>
      </trkpt>
      <trkpt lat="45.0641" lon="5.023">
        <ele>178.7</ele>
        <time>2022-05-07T13:39:16.000Z</time>
      </trkpt>
      <trkpt lat="45.06412" lon="5.02304">
        <ele>178.7</ele>
        <time>2022-05-07T13:39:17.000Z</time>
      </trkpt>
      <trkpt lat="45.06414" lon="5.02308">
        <ele>178.8</ele>
        <time>2022-05-07T13:39:18.000Z</time>
      </trkpt>
      <trkpt lat="45.06416" lon="5.02312">
        <ele>179</ele>
        <time>2022-05-07T13:39:19.000Z</time>
      </trkpt>
      <trkpt lat="45.06418" lon="5.02316">
        <ele>179.2</ele>
        <time>2022-05-07T13:39:20.000Z</time>
      </trkpt>
      <trkpt lat="45.0642" lon="5.0232">
        <ele>179.4</ele>
        <time>2022-05-07T13:39:21.000Z</time>
      </trkpt>
      <trkpt lat="45.06422" lon="5.02325">
        <ele>179.7</ele>
        <time>2022-05-07T13:39:22.000Z</time>
      </trkpt>
      <trkpt lat="45.06423" lon="5.0233">
        <ele>179.9</ele>
        <time>2022-05-07T13:39:23.000Z</time>
      </trkpt>
      <trkpt lat="45.06424" lon="5.02334">
        <ele>180</ele>
        <time>2022-05-07T13:39:24.000Z</time>
      </trkpt>
      <trkpt lat="45.06425" lon="5.02339">
        <ele>180</ele>
        <time>2022-05-07T13:39:25.000Z</time>
      </trkpt>
      <trkpt lat="45.06427" lon="5.02343">
        <ele>180</ele>
        <time>2022-05-07T13:39:26.000Z</time>
      </trkpt>
      <trkpt lat="45.06428" lon="5.02348">
        <ele>180</ele>
        <time>2022-05-07T13:39:27.000Z</time>
      </trkpt>
      <trkpt lat="45.06429" lon="5.02352">
        <ele>180</ele>
        <time>2022-05-07T13:39:28.000Z</time>
      </trkpt>
      <trkpt lat="45.0643" lon="5.02356">
        <ele>180</ele>
        <time>2022-05-07T13:39:29.000Z</time>
      </trkpt>
      <trkpt lat="45.06431" lon="5.0236">
        <ele>180.1</ele>
        <time>2022-05-07T13:39:30.000Z</time>
      </trkpt>
      <trkpt lat="45.06432" lon="5.02365">
        <ele>180</ele>
        <time>2022-05-07T13:39:31.000Z</time>
      </trkpt>
      <trkpt lat="45.06433" lon="5.0237">
        <ele>179.9</ele>
        <time>2022-05-07T13:39:32.000Z</time>
      </trkpt>
      <trkpt lat="45.06434" lon="5.02375">
        <ele>179.8</ele>
        <time>2022-05-07T13:39:33.000Z</time>
      </trkpt>
      <trkpt lat="45.06436" lon="5.02379">
        <ele>179.8</ele>
        <time>2022-05-07T13:39:34.000Z</time>
      </trkpt>
      <trkpt lat="45.06437" lon="5.02384">
        <ele>179.8</ele>
        <time>2022-05-07T13:39:35.000Z</time>
      </trkpt>
      <trkpt lat="45.06439" lon="5.02389">
        <ele>179.8</ele>
        <time>2022-05-07T13:39:36.000Z</time>
      </trkpt>
      <trkpt lat="45.06441" lon="5.02394">
        <ele>179.5</ele>
        <time>2022-05-07T13:39:37.000Z</time>
      </trkpt>
      <trkpt lat="45.06442" lon="5.02399">
        <ele>179.2</ele>
        <time>2022-05-07T13:39:38.000Z</time>
      </trkpt>
      <trkpt lat="45.06444" lon="5.02403">
        <ele>178.9</ele>
        <time>2022-05-07T13:39:39.000Z</time>
      </trkpt>
      <trkpt lat="45.06446" lon="5.02408">
        <ele>178.4</ele>
        <time>2022-05-07T13:39:40.000Z</time>
      </trkpt>
      <trkpt lat="45.06449" lon="5.02413">
        <ele>178.2</ele>
        <time>2022-05-07T13:39:41.000Z</time>
      </trkpt>
      <trkpt lat="45.06452" lon="5.02418">
        <ele>177.9</ele>
        <time>2022-05-07T13:39:42.000Z</time>
      </trkpt>
      <trkpt lat="45.06455" lon="5.02422">
        <ele>177.8</ele>
        <time>2022-05-07T13:39:43.000Z</time>
      </trkpt>
      <trkpt lat="45.06457" lon="5.02427">
        <ele>177.5</ele>
        <time>2022-05-07T13:39:44.000Z</time>
      </trkpt>
      <trkpt lat="45.06459" lon="5.02432">
        <ele>177.2</ele>
        <time>2022-05-07T13:39:45.000Z</time>
      </trkpt>
      <trkpt lat="45.06462" lon="5.02436">
        <ele>177</ele>
        <time>2022-05-07T13:39:46.000Z</time>
      </trkpt>
      <trkpt lat="45.06465" lon="5.02441">
        <ele>176.7</ele>
        <time>2022-05-07T13:39:47.000Z</time>
      </trkpt>
      <trkpt lat="45.06469" lon="5.02446">
        <ele>176.5</ele>
        <time>2022-05-07T13:39:48.000Z</time>
      </trkpt>
      <trkpt lat="45.06473" lon="5.0245">
        <ele>176.5</ele>
        <time>2022-05-07T13:39:49.000Z</time>
      </trkpt>
      <trkpt lat="45.06477" lon="5.02455">
        <ele>176.4</ele>
        <time>2022-05-07T13:39:50.000Z</time>
      </trkpt>
      <trkpt lat="45.06481" lon="5.0246">
        <ele>176.3</ele>
        <time>2022-05-07T13:39:51.000Z</time>
      </trkpt>
      <trkpt lat="45.06484" lon="5.02465">
        <ele>176.1</ele>
        <time>2022-05-07T13:39:52.000Z</time>
      </trkpt>
      <trkpt lat="45.06487" lon="5.0247">
        <ele>175.8</ele>
        <time>2022-05-07T13:39:53.000Z</time>
      </trkpt>
      <trkpt lat="45.06491" lon="5.02476">
        <ele>175.8</ele>
        <time>2022-05-07T13:39:54.000Z</time>
      </trkpt>
      <trkpt lat="45.06495" lon="5.02482">
        <ele>175.8</ele>
        <time>2022-05-07T13:39:55.000Z</time>
      </trkpt>
      <trkpt lat="45.06499" lon="5.02488">
        <ele>175.7</ele>
        <time>2022-05-07T13:39:56.000Z</time>
      </trkpt>
      <trkpt lat="45.06502" lon="5.02495">
        <ele>175.5</ele>
        <time>2022-05-07T13:39:57.000Z</time>
      </trkpt>
      <trkpt lat="45.06505" lon="5.02501">
        <ele>175.2</ele>
        <time>2022-05-07T13:39:58.000Z</time>
      </trkpt>
      <trkpt lat="45.06507" lon="5.02509">
        <ele>174.8</ele>
        <time>2022-05-07T13:39:59.000Z</time>
      </trkpt>
      <trkpt lat="45.06509" lon="5.02516">
        <ele>174.3</ele>
        <time>2022-05-07T13:40:00.000Z</time>
      </trkpt>
      <trkpt lat="45.06511" lon="5.02523">
        <ele>173.8</ele>
        <time>2022-05-07T13:40:01.000Z</time>
      </trkpt>
      <trkpt lat="45.06513" lon="5.0253">
        <ele>173.4</ele>
        <time>2022-05-07T13:40:02.000Z</time>
      </trkpt>
      <trkpt lat="45.06515" lon="5.02537">
        <ele>173.2</ele>
        <time>2022-05-07T13:40:03.000Z</time>
      </trkpt>
      <trkpt lat="45.06516" lon="5.02545">
        <ele>173</ele>
        <time>2022-05-07T13:40:04.000Z</time>
      </trkpt>
      <trkpt lat="45.06518" lon="5.02552">
        <ele>172.8</ele>
        <time>2022-05-07T13:40:05.000Z</time>
      </trkpt>
      <trkpt lat="45.06519" lon="5.02559">
        <ele>172.6</ele>
        <time>2022-05-07T13:40:06.000Z</time>
      </trkpt>
      <trkpt lat="45.0652" lon="5.02567">
        <ele>172.4</ele>
        <time>2022-05-07T13:40:07.000Z</time>
      </trkpt>
      <trkpt lat="45.06521" lon="5.02575">
        <ele>172.2</ele>
        <time>2022-05-07T13:40:08.000Z</time>
      </trkpt>
      <trkpt lat="45.06522" lon="5.02583">
        <ele>172</ele>
        <time>2022-05-07T13:40:09.000Z</time>
      </trkpt>
      <trkpt lat="45.06523" lon="5.02591">
        <ele>172</ele>
        <time>2022-05-07T13:40:10.000Z</time>
      </trkpt>
      <trkpt lat="45.06525" lon="5.02598">
        <ele>171.9</ele>
        <time>2022-05-07T13:40:11.000Z</time>
      </trkpt>
      <trkpt lat="45.06526" lon="5.02606">
        <ele>171.9</ele>
        <time>2022-05-07T13:40:12.000Z</time>
      </trkpt>
      <trkpt lat="45.06527" lon="5.02614">
        <ele>171.9</ele>
        <time>2022-05-07T13:40:13.000Z</time>
      </trkpt>
      <trkpt lat="45.06529" lon="5.02622">
        <ele>171.6</ele>
        <time>2022-05-07T13:40:14.000Z</time>
      </trkpt>
      <trkpt lat="45.0653" lon="5.0263">
        <ele>171.3</ele>
        <time>2022-05-07T13:40:15.000Z</time>
      </trkpt>
      <trkpt lat="45.06532" lon="5.02638">
        <ele>171</ele>
        <time>2022-05-07T13:40:16.000Z</time>
      </trkpt>
      <trkpt lat="45.06532" lon="5.02646">
        <ele>171</ele>
        <time>2022-05-07T13:40:17.000Z</time>
      </trkpt>
      <trkpt lat="45.06533" lon="5.02653">
        <ele>170.9</ele>
        <time>2022-05-07T13:40:18.000Z</time>
      </trkpt>
      <trkpt lat="45.06534" lon="5.0266">
        <ele>170.8</ele>
        <time>2022-05-07T13:40:19.000Z</time>
      </trkpt>
      <trkpt lat="45.06535" lon="5.02667">
        <ele>170.7</ele>
        <time>2022-05-07T13:40:20.000Z</time>
      </trkpt>
      <trkpt lat="45.06536" lon="5.02674">
        <ele>170.7</ele>
        <time>2022-05-07T13:40:21.000Z</time>
      </trkpt>
      <trkpt lat="45.06537" lon="5.02681">
        <ele>170.7</ele>
        <time>2022-05-07T13:40:22.000Z</time>
      </trkpt>
      <trkpt lat="45.06538" lon="5.02689">
        <ele>170.6</ele>
        <time>2022-05-07T13:40:23.000Z</time>
      </trkpt>
      <trkpt lat="45.06539" lon="5.02696">
        <ele>170.6</ele>
        <time>2022-05-07T13:40:24.000Z</time>
      </trkpt>
      <trkpt lat="45.0654" lon="5.02702">
        <ele>170.6</ele>
        <time>2022-05-07T13:40:25.000Z</time>
      </trkpt>
      <trkpt lat="45.06541" lon="5.0271">
        <ele>170.5</ele>
        <time>2022-05-07T13:40:26.000Z</time>
      </trkpt>
      <trkpt lat="45.06542" lon="5.02716">
        <ele>170.5</ele>
        <time>2022-05-07T13:40:27.000Z</time>
      </trkpt>
      <trkpt lat="45.06543" lon="5.02723">
        <ele>170.4</ele>
        <time>2022-05-07T13:40:28.000Z</time>
      </trkpt>
      <trkpt lat="45.06544" lon="5.02729">
        <ele>170.3</ele>
        <time>2022-05-07T13:40:29.000Z</time>
      </trkpt>
      <trkpt lat="45.06545" lon="5.02734">
        <ele>170.2</ele>
        <time>2022-05-07T13:40:30.000Z</time>
      </trkpt>
      <trkpt lat="45.06546" lon="5.0274">
        <ele>170.1</ele>
        <time>2022-05-07T13:40:31.000Z</time>
      </trkpt>
      <trkpt lat="45.06547" lon="5.02745">
        <ele>170.1</ele>
        <time>2022-05-07T13:40:32.000Z</time>
      </trkpt>
      <trkpt lat="45.06547" lon="5.0275">
        <ele>170</ele>
        <time>2022-05-07T13:40:33.000Z</time>
      </trkpt>
      <trkpt lat="45.06548" lon="5.02756">
        <ele>170.2</ele>
        <time>2022-05-07T13:40:34.000Z</time>
      </trkpt>
      <trkpt lat="45.06548" lon="5.02762">
        <ele>170.4</ele>
        <time>2022-05-07T13:40:35.000Z</time>
      </trkpt>
      <trkpt lat="45.06549" lon="5.02768">
        <ele>170.7</ele>
        <time>2022-05-07T13:40:36.000Z</time>
      </trkpt>
      <trkpt lat="45.0655" lon="5.02775">
        <ele>170.9</ele>
        <time>2022-05-07T13:40:37.000Z</time>
      </trkpt>
      <trkpt lat="45.06551" lon="5.02781">
        <ele>171</ele>
        <time>2022-05-07T13:40:38.000Z</time>
      </trkpt>
      <trkpt lat="45.06552" lon="5.02788">
        <ele>171</ele>
        <time>2022-05-07T13:40:39.000Z</time>
      </trkpt>
      <trkpt lat="45.06553" lon="5.02795">
        <ele>170.9</ele>
        <time>2022-05-07T13:40:40.000Z</time>
      </trkpt>
      <trkpt lat="45.06554" lon="5.02801">
        <ele>170.9</ele>
        <time>2022-05-07T13:40:41.000Z</time>
      </trkpt>
      <trkpt lat="45.06555" lon="5.02808">
        <ele>171</ele>
        <time>2022-05-07T13:40:42.000Z</time>
      </trkpt>
      <trkpt lat="45.06556" lon="5.02816">
        <ele>171</ele>
        <time>2022-05-07T13:40:43.000Z</time>
      </trkpt>
      <trkpt lat="45.06557" lon="5.02823">
        <ele>171</ele>
        <time>2022-05-07T13:40:44.000Z</time>
      </trkpt>
      <trkpt lat="45.06558" lon="5.02829">
        <ele>170.9</ele>
        <time>2022-05-07T13:40:45.000Z</time>
      </trkpt>
      <trkpt lat="45.06559" lon="5.02837">
        <ele>170.9</ele>
        <time>2022-05-07T13:40:46.000Z</time>
      </trkpt>
      <trkpt lat="45.06561" lon="5.02843">
        <ele>170.8</ele>
        <time>2022-05-07T13:40:47.000Z</time>
      </trkpt>
      <trkpt lat="45.06562" lon="5.0285">
        <ele>170.8</ele>
        <time>2022-05-07T13:40:48.000Z</time>
      </trkpt>
      <trkpt lat="45.06563" lon="5.02856">
        <ele>170.7</ele>
        <time>2022-05-07T13:40:49.000Z</time>
      </trkpt>
      <trkpt lat="45.06564" lon="5.02863">
        <ele>170.7</ele>
        <time>2022-05-07T13:40:50.000Z</time>
      </trkpt>
      <trkpt lat="45.06566" lon="5.0287">
        <ele>170.7</ele>
        <time>2022-05-07T13:40:51.000Z</time>
      </trkpt>
      <trkpt lat="45.06567" lon="5.02877">
        <ele>170.8</ele>
        <time>2022-05-07T13:40:52.000Z</time>
      </trkpt>
      <trkpt lat="45.06568" lon="5.02885">
        <ele>170.9</ele>
        <time>2022-05-07T13:40:53.000Z</time>
      </trkpt>
      <trkpt lat="45.06569" lon="5.02892">
        <ele>171</ele>
        <time>2022-05-07T13:40:54.000Z</time>
      </trkpt>
      <trkpt lat="45.06569" lon="5.02899">
        <ele>170.8</ele>
        <time>2022-05-07T13:40:55.000Z</time>
      </trkpt>
      <trkpt lat="45.06569" lon="5.02906">
        <ele>170.7</ele>
        <time>2022-05-07T13:40:56.000Z</time>
      </trkpt>
      <trkpt lat="45.06569" lon="5.02913">
        <ele>170.6</ele>
        <time>2022-05-07T13:40:57.000Z</time>
      </trkpt>
      <trkpt lat="45.0657" lon="5.0292">
        <ele>170.5</ele>
        <time>2022-05-07T13:40:58.000Z</time>
      </trkpt>
      <trkpt lat="45.06571" lon="5.02927">
        <ele>170.6</ele>
        <time>2022-05-07T13:40:59.000Z</time>
      </trkpt>
      <trkpt lat="45.06572" lon="5.02934">
        <ele>170.6</ele>
        <time>2022-05-07T13:41:00.000Z</time>
      </trkpt>
      <trkpt lat="45.06573" lon="5.02941">
        <ele>170.6</ele>
        <time>2022-05-07T13:41:01.000Z</time>
      </trkpt>
      <trkpt lat="45.06575" lon="5.02948">
        <ele>170.4</ele>
        <time>2022-05-07T13:41:02.000Z</time>
      </trkpt>
      <trkpt lat="45.06576" lon="5.02955">
        <ele>170.1</ele>
        <time>2022-05-07T13:41:03.000Z</time>
      </trkpt>
      <trkpt lat="45.06577" lon="5.02962">
        <ele>169.6</ele>
        <time>2022-05-07T13:41:04.000Z</time>
      </trkpt>
      <trkpt lat="45.06578" lon="5.02969">
        <ele>169.2</ele>
        <time>2022-05-07T13:41:05.000Z</time>
      </trkpt>
      <trkpt lat="45.06578" lon="5.02976">
        <ele>169.1</ele>
        <time>2022-05-07T13:41:06.000Z</time>
      </trkpt>
      <trkpt lat="45.06579" lon="5.0298">
        <ele>169.3</ele>
        <time>2022-05-07T13:41:07.000Z</time>
      </trkpt>
      <trkpt lat="45.06578" lon="5.02985">
        <ele>169.5</ele>
        <time>2022-05-07T13:41:08.000Z</time>
      </trkpt>
      <trkpt lat="45.06578" lon="5.02991">
        <ele>169.7</ele>
        <time>2022-05-07T13:41:09.000Z</time>
      </trkpt>
      <trkpt lat="45.06578" lon="5.02996">
        <ele>169.8</ele>
        <time>2022-05-07T13:41:10.000Z</time>
      </trkpt>
      <trkpt lat="45.06578" lon="5.03001">
        <ele>170</ele>
        <time>2022-05-07T13:41:11.000Z</time>
      </trkpt>
      <trkpt lat="45.06578" lon="5.03005">
        <ele>170.1</ele>
        <time>2022-05-07T13:41:12.000Z</time>
      </trkpt>
      <trkpt lat="45.06579" lon="5.03009">
        <ele>170.3</ele>
        <time>2022-05-07T13:41:13.000Z</time>
      </trkpt>
      <trkpt lat="45.06579" lon="5.03012">
        <ele>170.4</ele>
        <time>2022-05-07T13:41:14.000Z</time>
      </trkpt>
      <trkpt lat="45.0658" lon="5.03016">
        <ele>170.5</ele>
        <time>2022-05-07T13:41:15.000Z</time>
      </trkpt>
      <trkpt lat="45.0658" lon="5.03019">
        <ele>170.6</ele>
        <time>2022-05-07T13:41:16.000Z</time>
      </trkpt>
      <trkpt lat="45.06581" lon="5.03023">
        <ele>170.7</ele>
        <time>2022-05-07T13:41:17.000Z</time>
      </trkpt>
      <trkpt lat="45.06581" lon="5.03027">
        <ele>170.9</ele>
        <time>2022-05-07T13:41:18.000Z</time>
      </trkpt>
      <trkpt lat="45.06581" lon="5.03031">
        <ele>170.9</ele>
        <time>2022-05-07T13:41:19.000Z</time>
      </trkpt>
      <trkpt lat="45.06582" lon="5.03036">
        <ele>170.9</ele>
        <time>2022-05-07T13:41:20.000Z</time>
      </trkpt>
      <trkpt lat="45.06583" lon="5.0304">
        <ele>171</ele>
        <time>2022-05-07T13:41:21.000Z</time>
      </trkpt>
      <trkpt lat="45.06584" lon="5.03045">
        <ele>171</ele>
        <time>2022-05-07T13:41:22.000Z</time>
      </trkpt>
      <trkpt lat="45.06584" lon="5.03049">
        <ele>171</ele>
        <time>2022-05-07T13:41:23.000Z</time>
      </trkpt>
      <trkpt lat="45.06585" lon="5.03054">
        <ele>171</ele>
        <time>2022-05-07T13:41:24.000Z</time>
      </trkpt>
      <trkpt lat="45.06586" lon="5.03058">
        <ele>171</ele>
        <time>2022-05-07T13:41:25.000Z</time>
      </trkpt>
      <trkpt lat="45.06586" lon="5.03062">
        <ele>171</ele>
        <time>2022-05-07T13:41:26.000Z</time>
      </trkpt>
      <trkpt lat="45.06587" lon="5.03066">
        <ele>171</ele>
        <time>2022-05-07T13:41:27.000Z</time>
      </trkpt>
      <trkpt lat="45.06587" lon="5.03071">
        <ele>171</ele>
        <time>2022-05-07T13:41:28.000Z</time>
      </trkpt>
      <trkpt lat="45.06588" lon="5.03075">
        <ele>171</ele>
        <time>2022-05-07T13:41:29.000Z</time>
      </trkpt>
      <trkpt lat="45.06589" lon="5.03078">
        <ele>171</ele>
        <time>2022-05-07T13:41:30.000Z</time>
      </trkpt>
      <trkpt lat="45.0659" lon="5.03082">
        <ele>171</ele>
        <time>2022-05-07T13:41:31.000Z</time>
      </trkpt>
      <trkpt lat="45.0659" lon="5.03086">
        <ele>171</ele>
        <time>2022-05-07T13:41:32.000Z</time>
      </trkpt>
      <trkpt lat="45.06591" lon="5.03092">
        <ele>171</ele>
        <time>2022-05-07T13:41:33.000Z</time>
      </trkpt>
      <trkpt lat="45.06591" lon="5.03097">
        <ele>171</ele>
        <time>2022-05-07T13:41:34.000Z</time>
      </trkpt>
      <trkpt lat="45.06592" lon="5.03103">
        <ele>171</ele>
        <time>2022-05-07T13:41:35.000Z</time>
      </trkpt>
      <trkpt lat="45.06593" lon="5.03108">
        <ele>171</ele>
        <time>2022-05-07T13:41:36.000Z</time>
      </trkpt>
      <trkpt lat="45.06593" lon="5.03114">
        <ele>171</ele>
        <time>2022-05-07T13:41:37.000Z</time>
      </trkpt>
      <trkpt lat="45.06594" lon="5.03119">
        <ele>171</ele>
        <time>2022-05-07T13:41:38.000Z</time>
      </trkpt>
      <trkpt lat="45.06594" lon="5.03125">
        <ele>171</ele>
        <time>2022-05-07T13:41:39.000Z</time>
      </trkpt>
      <trkpt lat="45.06595" lon="5.03131">
        <ele>171</ele>
        <time>2022-05-07T13:41:40.000Z</time>
      </trkpt>
      <trkpt lat="45.06596" lon="5.03137">
        <ele>171</ele>
        <time>2022-05-07T13:41:41.000Z</time>
      </trkpt>
      <trkpt lat="45.06597" lon="5.03142">
        <ele>171</ele>
        <time>2022-05-07T13:41:42.000Z</time>
      </trkpt>
      <trkpt lat="45.06598" lon="5.03148">
        <ele>171</ele>
        <time>2022-05-07T13:41:43.000Z</time>
      </trkpt>
      <trkpt lat="45.06599" lon="5.03154">
        <ele>171</ele>
        <time>2022-05-07T13:41:44.000Z</time>
      </trkpt>
      <trkpt lat="45.06601" lon="5.0316">
        <ele>171</ele>
        <time>2022-05-07T13:41:45.000Z</time>
      </trkpt>
      <trkpt lat="45.06603" lon="5.03167">
        <ele>171</ele>
        <time>2022-05-07T13:41:46.000Z</time>
      </trkpt>
      <trkpt lat="45.06604" lon="5.03173">
        <ele>171.2</ele>
        <time>2022-05-07T13:41:47.000Z</time>
      </trkpt>
      <trkpt lat="45.06606" lon="5.0318">
        <ele>171.4</ele>
        <time>2022-05-07T13:41:48.000Z</time>
      </trkpt>
      <trkpt lat="45.06608" lon="5.03187">
        <ele>171.6</ele>
        <time>2022-05-07T13:41:49.000Z</time>
      </trkpt>
      <trkpt lat="45.06609" lon="5.03193">
        <ele>171.9</ele>
        <time>2022-05-07T13:41:50.000Z</time>
      </trkpt>
      <trkpt lat="45.06611" lon="5.03199">
        <ele>172</ele>
        <time>2022-05-07T13:41:51.000Z</time>
      </trkpt>
      <trkpt lat="45.06612" lon="5.03205">
        <ele>172</ele>
        <time>2022-05-07T13:41:52.000Z</time>
      </trkpt>
      <trkpt lat="45.06614" lon="5.0321">
        <ele>172</ele>
        <time>2022-05-07T13:41:53.000Z</time>
      </trkpt>
      <trkpt lat="45.06616" lon="5.03216">
        <ele>172</ele>
        <time>2022-05-07T13:41:54.000Z</time>
      </trkpt>
      <trkpt lat="45.06617" lon="5.03221">
        <ele>172</ele>
        <time>2022-05-07T13:41:55.000Z</time>
      </trkpt>
      <trkpt lat="45.06619" lon="5.03228">
        <ele>171.9</ele>
        <time>2022-05-07T13:41:56.000Z</time>
      </trkpt>
      <trkpt lat="45.06621" lon="5.03234">
        <ele>171.7</ele>
        <time>2022-05-07T13:41:57.000Z</time>
      </trkpt>
      <trkpt lat="45.06622" lon="5.0324">
        <ele>171.6</ele>
        <time>2022-05-07T13:41:58.000Z</time>
      </trkpt>
      <trkpt lat="45.06624" lon="5.03246">
        <ele>171.5</ele>
        <time>2022-05-07T13:41:59.000Z</time>
      </trkpt>
      <trkpt lat="45.06626" lon="5.03252">
        <ele>171.5</ele>
        <time>2022-05-07T13:42:00.000Z</time>
      </trkpt>
      <trkpt lat="45.06628" lon="5.03259">
        <ele>171.6</ele>
        <time>2022-05-07T13:42:01.000Z</time>
      </trkpt>
      <trkpt lat="45.0663" lon="5.03266">
        <ele>171.7</ele>
        <time>2022-05-07T13:42:02.000Z</time>
      </trkpt>
      <trkpt lat="45.06632" lon="5.03273">
        <ele>171.8</ele>
        <time>2022-05-07T13:42:03.000Z</time>
      </trkpt>
      <trkpt lat="45.06634" lon="5.0328">
        <ele>171.8</ele>
        <time>2022-05-07T13:42:04.000Z</time>
      </trkpt>
      <trkpt lat="45.06636" lon="5.03287">
        <ele>171.9</ele>
        <time>2022-05-07T13:42:05.000Z</time>
      </trkpt>
      <trkpt lat="45.06638" lon="5.03293">
        <ele>172</ele>
        <time>2022-05-07T13:42:06.000Z</time>
      </trkpt>
      <trkpt lat="45.0664" lon="5.03298">
        <ele>172</ele>
        <time>2022-05-07T13:42:07.000Z</time>
      </trkpt>
      <trkpt lat="45.06641" lon="5.03304">
        <ele>172</ele>
        <time>2022-05-07T13:42:08.000Z</time>
      </trkpt>
      <trkpt lat="45.06643" lon="5.03309">
        <ele>172</ele>
        <time>2022-05-07T13:42:09.000Z</time>
      </trkpt>
      <trkpt lat="45.06644" lon="5.03315">
        <ele>172</ele>
        <time>2022-05-07T13:42:10.000Z</time>
      </trkpt>
      <trkpt lat="45.06645" lon="5.03319">
        <ele>172</ele>
        <time>2022-05-07T13:42:11.000Z</time>
      </trkpt>
      <trkpt lat="45.06646" lon="5.03324">
        <ele>172</ele>
        <time>2022-05-07T13:42:12.000Z</time>
      </trkpt>
      <trkpt lat="45.06648" lon="5.03329">
        <ele>172</ele>
        <time>2022-05-07T13:42:13.000Z</time>
      </trkpt>
      <trkpt lat="45.06649" lon="5.03333">
        <ele>172</ele>
        <time>2022-05-07T13:42:14.000Z</time>
      </trkpt>
      <trkpt lat="45.0665" lon="5.03338">
        <ele>172</ele>
        <time>2022-05-07T13:42:15.000Z</time>
      </trkpt>
      <trkpt lat="45.06651" lon="5.03341">
        <ele>172</ele>
        <time>2022-05-07T13:42:16.000Z</time>
      </trkpt>
      <trkpt lat="45.06652" lon="5.03345">
        <ele>172</ele>
        <time>2022-05-07T13:42:17.000Z</time>
      </trkpt>
      <trkpt lat="45.06654" lon="5.0335">
        <ele>172</ele>
        <time>2022-05-07T13:42:18.000Z</time>
      </trkpt>
      <trkpt lat="45.06655" lon="5.03354">
        <ele>172</ele>
        <time>2022-05-07T13:42:19.000Z</time>
      </trkpt>
      <trkpt lat="45.06657" lon="5.03359">
        <ele>172</ele>
        <time>2022-05-07T13:42:20.000Z</time>
      </trkpt>
      <trkpt lat="45.06658" lon="5.03363">
        <ele>172</ele>
        <time>2022-05-07T13:42:21.000Z</time>
      </trkpt>
      <trkpt lat="45.06659" lon="5.03368">
        <ele>172</ele>
        <time>2022-05-07T13:42:22.000Z</time>
      </trkpt>
      <trkpt lat="45.0666" lon="5.03373">
        <ele>172</ele>
        <time>2022-05-07T13:42:23.000Z</time>
      </trkpt>
      <trkpt lat="45.0666" lon="5.03377">
        <ele>172</ele>
        <time>2022-05-07T13:42:24.000Z</time>
      </trkpt>
      <trkpt lat="45.06659" lon="5.03382">
        <ele>172</ele>
        <time>2022-05-07T13:42:25.000Z</time>
      </trkpt>
      <trkpt lat="45.0666" lon="5.03387">
        <ele>172</ele>
        <time>2022-05-07T13:42:26.000Z</time>
      </trkpt>
      <trkpt lat="45.0666" lon="5.03392">
        <ele>172.1</ele>
        <time>2022-05-07T13:42:27.000Z</time>
      </trkpt>
      <trkpt lat="45.0666" lon="5.03398">
        <ele>172.2</ele>
        <time>2022-05-07T13:42:28.000Z</time>
      </trkpt>
      <trkpt lat="45.0666" lon="5.03402">
        <ele>172.4</ele>
        <time>2022-05-07T13:42:29.000Z</time>
      </trkpt>
      <trkpt lat="45.06661" lon="5.03406">
        <ele>172.5</ele>
        <time>2022-05-07T13:42:30.000Z</time>
      </trkpt>
      <trkpt lat="45.06661" lon="5.03411">
        <ele>172.6</ele>
        <time>2022-05-07T13:42:31.000Z</time>
      </trkpt>
      <trkpt lat="45.06663" lon="5.03416">
        <ele>172.8</ele>
        <time>2022-05-07T13:42:32.000Z</time>
      </trkpt>
      <trkpt lat="45.06665" lon="5.03421">
        <ele>172.8</ele>
        <time>2022-05-07T13:42:33.000Z</time>
      </trkpt>
      <trkpt lat="45.06667" lon="5.03426">
        <ele>172.6</ele>
        <time>2022-05-07T13:42:34.000Z</time>
      </trkpt>
      <trkpt lat="45.0667" lon="5.03432">
        <ele>172.4</ele>
        <time>2022-05-07T13:42:35.000Z</time>
      </trkpt>
      <trkpt lat="45.06673" lon="5.03437">
        <ele>172.2</ele>
        <time>2022-05-07T13:42:36.000Z</time>
      </trkpt>
      <trkpt lat="45.06675" lon="5.03442">
        <ele>172.1</ele>
        <time>2022-05-07T13:42:37.000Z</time>
      </trkpt>
      <trkpt lat="45.06678" lon="5.03447">
        <ele>171.9</ele>
        <time>2022-05-07T13:42:38.000Z</time>
      </trkpt>
      <trkpt lat="45.0668" lon="5.03453">
        <ele>171.8</ele>
        <time>2022-05-07T13:42:39.000Z</time>
      </trkpt>
      <trkpt lat="45.06682" lon="5.03458">
        <ele>171.8</ele>
        <time>2022-05-07T13:42:40.000Z</time>
      </trkpt>
      <trkpt lat="45.06685" lon="5.03464">
        <ele>171.8</ele>
        <time>2022-05-07T13:42:41.000Z</time>
      </trkpt>
      <trkpt lat="45.06688" lon="5.03469">
        <ele>171.8</ele>
        <time>2022-05-07T13:42:42.000Z</time>
      </trkpt>
      <trkpt lat="45.0669" lon="5.03474">
        <ele>171.8</ele>
        <time>2022-05-07T13:42:43.000Z</time>
      </trkpt>
      <trkpt lat="45.06692" lon="5.0348">
        <ele>171.9</ele>
        <time>2022-05-07T13:42:44.000Z</time>
      </trkpt>
      <trkpt lat="45.06694" lon="5.03485">
        <ele>172</ele>
        <time>2022-05-07T13:42:45.000Z</time>
      </trkpt>
      <trkpt lat="45.06696" lon="5.0349">
        <ele>172</ele>
        <time>2022-05-07T13:42:46.000Z</time>
      </trkpt>
      <trkpt lat="45.06698" lon="5.03495">
        <ele>172</ele>
        <time>2022-05-07T13:42:47.000Z</time>
      </trkpt>
      <trkpt lat="45.067" lon="5.03501">
        <ele>172</ele>
        <time>2022-05-07T13:42:48.000Z</time>
      </trkpt>
      <trkpt lat="45.06702" lon="5.03506">
        <ele>171.8</ele>
        <time>2022-05-07T13:42:49.000Z</time>
      </trkpt>
      <trkpt lat="45.06704" lon="5.03511">
        <ele>171.7</ele>
        <time>2022-05-07T13:42:50.000Z</time>
      </trkpt>
      <trkpt lat="45.06706" lon="5.03516">
        <ele>171.7</ele>
        <time>2022-05-07T13:42:51.000Z</time>
      </trkpt>
      <trkpt lat="45.06708" lon="5.03522">
        <ele>171.6</ele>
        <time>2022-05-07T13:42:52.000Z</time>
      </trkpt>
      <trkpt lat="45.06711" lon="5.03527">
        <ele>171.6</ele>
        <time>2022-05-07T13:42:53.000Z</time>
      </trkpt>
      <trkpt lat="45.06713" lon="5.03533">
        <ele>171.7</ele>
        <time>2022-05-07T13:42:54.000Z</time>
      </trkpt>
      <trkpt lat="45.06715" lon="5.03538">
        <ele>171.7</ele>
        <time>2022-05-07T13:42:55.000Z</time>
      </trkpt>
      <trkpt lat="45.06717" lon="5.03544">
        <ele>171.8</ele>
        <time>2022-05-07T13:42:56.000Z</time>
      </trkpt>
      <trkpt lat="45.06719" lon="5.0355">
        <ele>171.9</ele>
        <time>2022-05-07T13:42:57.000Z</time>
      </trkpt>
      <trkpt lat="45.06722" lon="5.03555">
        <ele>172</ele>
        <time>2022-05-07T13:42:58.000Z</time>
      </trkpt>
      <trkpt lat="45.06724" lon="5.0356">
        <ele>172</ele>
        <time>2022-05-07T13:42:59.000Z</time>
      </trkpt>
      <trkpt lat="45.06726" lon="5.03566">
        <ele>172</ele>
        <time>2022-05-07T13:43:00.000Z</time>
      </trkpt>
      <trkpt lat="45.06728" lon="5.03571">
        <ele>172</ele>
        <time>2022-05-07T13:43:01.000Z</time>
      </trkpt>
      <trkpt lat="45.0673" lon="5.03577">
        <ele>172</ele>
        <time>2022-05-07T13:43:02.000Z</time>
      </trkpt>
      <trkpt lat="45.06733" lon="5.03582">
        <ele>172</ele>
        <time>2022-05-07T13:43:03.000Z</time>
      </trkpt>
      <trkpt lat="45.06735" lon="5.03588">
        <ele>172</ele>
        <time>2022-05-07T13:43:04.000Z</time>
      </trkpt>
      <trkpt lat="45.06737" lon="5.03594">
        <ele>172</ele>
        <time>2022-05-07T13:43:05.000Z</time>
      </trkpt>
      <trkpt lat="45.0674" lon="5.036">
        <ele>172</ele>
        <time>2022-05-07T13:43:06.000Z</time>
      </trkpt>
      <trkpt lat="45.06742" lon="5.03606">
        <ele>172</ele>
        <time>2022-05-07T13:43:07.000Z</time>
      </trkpt>
      <trkpt lat="45.06744" lon="5.03612">
        <ele>172</ele>
        <time>2022-05-07T13:43:08.000Z</time>
      </trkpt>
      <trkpt lat="45.06747" lon="5.03617">
        <ele>172</ele>
        <time>2022-05-07T13:43:09.000Z</time>
      </trkpt>
      <trkpt lat="45.06749" lon="5.03623">
        <ele>172</ele>
        <time>2022-05-07T13:43:10.000Z</time>
      </trkpt>
      <trkpt lat="45.06751" lon="5.03629">
        <ele>172</ele>
        <time>2022-05-07T13:43:11.000Z</time>
      </trkpt>
      <trkpt lat="45.06754" lon="5.03634">
        <ele>172</ele>
        <time>2022-05-07T13:43:12.000Z</time>
      </trkpt>
      <trkpt lat="45.06756" lon="5.0364">
        <ele>172</ele>
        <time>2022-05-07T13:43:13.000Z</time>
      </trkpt>
      <trkpt lat="45.06758" lon="5.03646">
        <ele>172</ele>
        <time>2022-05-07T13:43:14.000Z</time>
      </trkpt>
      <trkpt lat="45.06759" lon="5.03652">
        <ele>172</ele>
        <time>2022-05-07T13:43:15.000Z</time>
      </trkpt>
      <trkpt lat="45.06761" lon="5.03658">
        <ele>172</ele>
        <time>2022-05-07T13:43:16.000Z</time>
      </trkpt>
      <trkpt lat="45.06763" lon="5.03663">
        <ele>172</ele>
        <time>2022-05-07T13:43:17.000Z</time>
      </trkpt>
      <trkpt lat="45.06765" lon="5.03668">
        <ele>172</ele>
        <time>2022-05-07T13:43:18.000Z</time>
      </trkpt>
      <trkpt lat="45.06766" lon="5.03673">
        <ele>172</ele>
        <time>2022-05-07T13:43:19.000Z</time>
      </trkpt>
      <trkpt lat="45.06767" lon="5.03678">
        <ele>172</ele>
        <time>2022-05-07T13:43:20.000Z</time>
      </trkpt>
      <trkpt lat="45.06769" lon="5.03683">
        <ele>172</ele>
        <time>2022-05-07T13:43:21.000Z</time>
      </trkpt>
      <trkpt lat="45.0677" lon="5.03688">
        <ele>172</ele>
        <time>2022-05-07T13:43:22.000Z</time>
      </trkpt>
      <trkpt lat="45.06771" lon="5.03692">
        <ele>172</ele>
        <time>2022-05-07T13:43:23.000Z</time>
      </trkpt>
      <trkpt lat="45.06772" lon="5.03696">
        <ele>172</ele>
        <time>2022-05-07T13:43:24.000Z</time>
      </trkpt>
      <trkpt lat="45.06773" lon="5.037">
        <ele>172.1</ele>
        <time>2022-05-07T13:43:25.000Z</time>
      </trkpt>
      <trkpt lat="45.06774" lon="5.03703">
        <ele>172.3</ele>
        <time>2022-05-07T13:43:26.000Z</time>
      </trkpt>
      <trkpt lat="45.06774" lon="5.03706">
        <ele>172.4</ele>
        <time>2022-05-07T13:43:27.000Z</time>
      </trkpt>
      <trkpt lat="45.06776" lon="5.0371">
        <ele>172.5</ele>
        <time>2022-05-07T13:43:28.000Z</time>
      </trkpt>
      <trkpt lat="45.06777" lon="5.03714">
        <ele>172.7</ele>
        <time>2022-05-07T13:43:29.000Z</time>
      </trkpt>
      <trkpt lat="45.06778" lon="5.03718">
        <ele>172.9</ele>
        <time>2022-05-07T13:43:30.000Z</time>
      </trkpt>
      <trkpt lat="45.06779" lon="5.03723">
        <ele>173</ele>
        <time>2022-05-07T13:43:31.000Z</time>
      </trkpt>
      <trkpt lat="45.06781" lon="5.03728">
        <ele>173</ele>
        <time>2022-05-07T13:43:32.000Z</time>
      </trkpt>
      <trkpt lat="45.06782" lon="5.03732">
        <ele>172.9</ele>
        <time>2022-05-07T13:43:33.000Z</time>
      </trkpt>
      <trkpt lat="45.06784" lon="5.03738">
        <ele>172.9</ele>
        <time>2022-05-07T13:43:34.000Z</time>
      </trkpt>
      <trkpt lat="45.06786" lon="5.03743">
        <ele>172.8</ele>
        <time>2022-05-07T13:43:35.000Z</time>
      </trkpt>
      <trkpt lat="45.06787" lon="5.03748">
        <ele>172.7</ele>
        <time>2022-05-07T13:43:36.000Z</time>
      </trkpt>
      <trkpt lat="45.06789" lon="5.03754">
        <ele>172.6</ele>
        <time>2022-05-07T13:43:37.000Z</time>
      </trkpt>
      <trkpt lat="45.0679" lon="5.03759">
        <ele>172.5</ele>
        <time>2022-05-07T13:43:38.000Z</time>
      </trkpt>
      <trkpt lat="45.06792" lon="5.03765">
        <ele>172.5</ele>
        <time>2022-05-07T13:43:39.000Z</time>
      </trkpt>
      <trkpt lat="45.06794" lon="5.0377">
        <ele>172.5</ele>
        <time>2022-05-07T13:43:40.000Z</time>
      </trkpt>
      <trkpt lat="45.06796" lon="5.03775">
        <ele>172.6</ele>
        <time>2022-05-07T13:43:41.000Z</time>
      </trkpt>
      <trkpt lat="45.06798" lon="5.0378">
        <ele>172.7</ele>
        <time>2022-05-07T13:43:42.000Z</time>
      </trkpt>
      <trkpt lat="45.068" lon="5.03786">
        <ele>172.8</ele>
        <time>2022-05-07T13:43:43.000Z</time>
      </trkpt>
      <trkpt lat="45.06801" lon="5.03792">
        <ele>172.8</ele>
        <time>2022-05-07T13:43:44.000Z</time>
      </trkpt>
      <trkpt lat="45.06803" lon="5.03797">
        <ele>172.9</ele>
        <time>2022-05-07T13:43:45.000Z</time>
      </trkpt>
      <trkpt lat="45.06805" lon="5.03802">
        <ele>173</ele>
        <time>2022-05-07T13:43:46.000Z</time>
      </trkpt>
      <trkpt lat="45.06807" lon="5.03808">
        <ele>173</ele>
        <time>2022-05-07T13:43:47.000Z</time>
      </trkpt>
      <trkpt lat="45.06809" lon="5.03814">
        <ele>173</ele>
        <time>2022-05-07T13:43:48.000Z</time>
      </trkpt>
      <trkpt lat="45.06812" lon="5.03819">
        <ele>173</ele>
        <time>2022-05-07T13:43:49.000Z</time>
      </trkpt>
      <trkpt lat="45.06814" lon="5.03824">
        <ele>173</ele>
        <time>2022-05-07T13:43:50.000Z</time>
      </trkpt>
      <trkpt lat="45.06816" lon="5.0383">
        <ele>173</ele>
        <time>2022-05-07T13:43:51.000Z</time>
      </trkpt>
      <trkpt lat="45.06819" lon="5.03835">
        <ele>173</ele>
        <time>2022-05-07T13:43:52.000Z</time>
      </trkpt>
      <trkpt lat="45.06821" lon="5.0384">
        <ele>173.3</ele>
        <time>2022-05-07T13:43:53.000Z</time>
      </trkpt>
      <trkpt lat="45.06824" lon="5.03845">
        <ele>173.5</ele>
        <time>2022-05-07T13:43:54.000Z</time>
      </trkpt>
      <trkpt lat="45.06826" lon="5.03849">
        <ele>173.9</ele>
        <time>2022-05-07T13:43:55.000Z</time>
      </trkpt>
      <trkpt lat="45.06829" lon="5.03854">
        <ele>174.2</ele>
        <time>2022-05-07T13:43:56.000Z</time>
      </trkpt>
      <trkpt lat="45.06831" lon="5.03858">
        <ele>174.6</ele>
        <time>2022-05-07T13:43:57.000Z</time>
      </trkpt>
      <trkpt lat="45.06833" lon="5.03862">
        <ele>175</ele>
        <time>2022-05-07T13:43:58.000Z</time>
      </trkpt>
      <trkpt lat="45.06835" lon="5.03866">
        <ele>174.9</ele>
        <time>2022-05-07T13:43:59.000Z</time>
      </trkpt>
      <trkpt lat="45.06837" lon="5.0387">
        <ele>174.9</ele>
        <time>2022-05-07T13:44:00.000Z</time>
      </trkpt>
      <trkpt lat="45.06839" lon="5.03874">
        <ele>175</ele>
        <time>2022-05-07T13:44:01.000Z</time>
      </trkpt>
      <trkpt lat="45.06841" lon="5.03878">
        <ele>175</ele>
        <time>2022-05-07T13:44:02.000Z</time>
      </trkpt>
      <trkpt lat="45.06843" lon="5.03881">
        <ele>175.1</ele>
        <time>2022-05-07T13:44:03.000Z</time>
      </trkpt>
      <trkpt lat="45.06845" lon="5.03885">
        <ele>175.3</ele>
        <time>2022-05-07T13:44:04.000Z</time>
      </trkpt>
      <trkpt lat="45.06847" lon="5.03888">
        <ele>175.5</ele>
        <time>2022-05-07T13:44:05.000Z</time>
      </trkpt>
      <trkpt lat="45.06849" lon="5.0389">
        <ele>175.7</ele>
        <time>2022-05-07T13:44:06.000Z</time>
      </trkpt>
      <trkpt lat="45.0685" lon="5.03893">
        <ele>175.8</ele>
        <time>2022-05-07T13:44:07.000Z</time>
      </trkpt>
      <trkpt lat="45.06851" lon="5.03895">
        <ele>175.9</ele>
        <time>2022-05-07T13:44:08.000Z</time>
      </trkpt>
      <trkpt lat="45.06853" lon="5.03898">
        <ele>176.1</ele>
        <time>2022-05-07T13:44:09.000Z</time>
      </trkpt>
      <trkpt lat="45.06854" lon="5.03901">
        <ele>176.2</ele>
        <time>2022-05-07T13:44:10.000Z</time>
      </trkpt>
      <trkpt lat="45.06855" lon="5.03904">
        <ele>176.3</ele>
        <time>2022-05-07T13:44:11.000Z</time>
      </trkpt>
      <trkpt lat="45.06856" lon="5.03908">
        <ele>176.4</ele>
        <time>2022-05-07T13:44:12.000Z</time>
      </trkpt>
      <trkpt lat="45.06857" lon="5.03912">
        <ele>176.5</ele>
        <time>2022-05-07T13:44:13.000Z</time>
      </trkpt>
      <trkpt lat="45.06857" lon="5.03917">
        <ele>176.5</ele>
        <time>2022-05-07T13:44:14.000Z</time>
      </trkpt>
      <trkpt lat="45.06856" lon="5.03922">
        <ele>176.5</ele>
        <time>2022-05-07T13:44:15.000Z</time>
      </trkpt>
      <trkpt lat="45.06856" lon="5.03927">
        <ele>176.5</ele>
        <time>2022-05-07T13:44:16.000Z</time>
      </trkpt>
      <trkpt lat="45.06854" lon="5.03933">
        <ele>176.4</ele>
        <time>2022-05-07T13:44:17.000Z</time>
      </trkpt>
      <trkpt lat="45.06853" lon="5.0394">
        <ele>176.4</ele>
        <time>2022-05-07T13:44:18.000Z</time>
      </trkpt>
      <trkpt lat="45.06852" lon="5.03946">
        <ele>176.2</ele>
        <time>2022-05-07T13:44:19.000Z</time>
      </trkpt>
      <trkpt lat="45.06851" lon="5.03953">
        <ele>175.8</ele>
        <time>2022-05-07T13:44:20.000Z</time>
      </trkpt>
      <trkpt lat="45.06851" lon="5.0396">
        <ele>175.4</ele>
        <time>2022-05-07T13:44:21.000Z</time>
      </trkpt>
      <trkpt lat="45.06851" lon="5.03967">
        <ele>175</ele>
        <time>2022-05-07T13:44:22.000Z</time>
      </trkpt>
      <trkpt lat="45.06853" lon="5.03975">
        <ele>174.7</ele>
        <time>2022-05-07T13:44:23.000Z</time>
      </trkpt>
      <trkpt lat="45.06854" lon="5.03983">
        <ele>174.8</ele>
        <time>2022-05-07T13:44:24.000Z</time>
      </trkpt>
      <trkpt lat="45.06857" lon="5.03992">
        <ele>175.2</ele>
        <time>2022-05-07T13:44:25.000Z</time>
      </trkpt>
      <trkpt lat="45.0686" lon="5.04">
        <ele>175.8</ele>
        <time>2022-05-07T13:44:26.000Z</time>
      </trkpt>
      <trkpt lat="45.06863" lon="5.04008">
        <ele>175.4</ele>
        <time>2022-05-07T13:44:27.000Z</time>
      </trkpt>
      <trkpt lat="45.06865" lon="5.04017">
        <ele>174.9</ele>
        <time>2022-05-07T13:44:28.000Z</time>
      </trkpt>
      <trkpt lat="45.06868" lon="5.04024">
        <ele>174.6</ele>
        <time>2022-05-07T13:44:29.000Z</time>
      </trkpt>
      <trkpt lat="45.0687" lon="5.04032">
        <ele>174.6</ele>
        <time>2022-05-07T13:44:30.000Z</time>
      </trkpt>
      <trkpt lat="45.06872" lon="5.0404">
        <ele>174.8</ele>
        <time>2022-05-07T13:44:31.000Z</time>
      </trkpt>
      <trkpt lat="45.06873" lon="5.04048">
        <ele>174.9</ele>
        <time>2022-05-07T13:44:32.000Z</time>
      </trkpt>
      <trkpt lat="45.06874" lon="5.04056">
        <ele>175</ele>
        <time>2022-05-07T13:44:33.000Z</time>
      </trkpt>
      <trkpt lat="45.06875" lon="5.04064">
        <ele>175.2</ele>
        <time>2022-05-07T13:44:34.000Z</time>
      </trkpt>
      <trkpt lat="45.06876" lon="5.04071">
        <ele>175.4</ele>
        <time>2022-05-07T13:44:35.000Z</time>
      </trkpt>
      <trkpt lat="45.06877" lon="5.04078">
        <ele>175.6</ele>
        <time>2022-05-07T13:44:36.000Z</time>
      </trkpt>
      <trkpt lat="45.06878" lon="5.04085">
        <ele>175.8</ele>
        <time>2022-05-07T13:44:37.000Z</time>
      </trkpt>
      <trkpt lat="45.06878" lon="5.04092">
        <ele>175.8</ele>
        <time>2022-05-07T13:44:38.000Z</time>
      </trkpt>
      <trkpt lat="45.06879" lon="5.04099">
        <ele>175.9</ele>
        <time>2022-05-07T13:44:39.000Z</time>
      </trkpt>
      <trkpt lat="45.06879" lon="5.04106">
        <ele>176</ele>
        <time>2022-05-07T13:44:40.000Z</time>
      </trkpt>
      <trkpt lat="45.0688" lon="5.04113">
        <ele>176</ele>
        <time>2022-05-07T13:44:41.000Z</time>
      </trkpt>
      <trkpt lat="45.06881" lon="5.0412">
        <ele>176</ele>
        <time>2022-05-07T13:44:42.000Z</time>
      </trkpt>
      <trkpt lat="45.06882" lon="5.04127">
        <ele>176.1</ele>
        <time>2022-05-07T13:44:43.000Z</time>
      </trkpt>
      <trkpt lat="45.06883" lon="5.04134">
        <ele>176.1</ele>
        <time>2022-05-07T13:44:44.000Z</time>
      </trkpt>
      <trkpt lat="45.06884" lon="5.04142">
        <ele>176</ele>
        <time>2022-05-07T13:44:45.000Z</time>
      </trkpt>
      <trkpt lat="45.06884" lon="5.0415">
        <ele>175.6</ele>
        <time>2022-05-07T13:44:46.000Z</time>
      </trkpt>
      <trkpt lat="45.06885" lon="5.04158">
        <ele>175.1</ele>
        <time>2022-05-07T13:44:47.000Z</time>
      </trkpt>
      <trkpt lat="45.06886" lon="5.04166">
        <ele>174.7</ele>
        <time>2022-05-07T13:44:48.000Z</time>
      </trkpt>
      <trkpt lat="45.06886" lon="5.04174">
        <ele>174.5</ele>
        <time>2022-05-07T13:44:49.000Z</time>
      </trkpt>
      <trkpt lat="45.06887" lon="5.04183">
        <ele>174.3</ele>
        <time>2022-05-07T13:44:50.000Z</time>
      </trkpt>
      <trkpt lat="45.06888" lon="5.0419">
        <ele>174.1</ele>
        <time>2022-05-07T13:44:51.000Z</time>
      </trkpt>
      <trkpt lat="45.06889" lon="5.04198">
        <ele>173.9</ele>
        <time>2022-05-07T13:44:52.000Z</time>
      </trkpt>
      <trkpt lat="45.0689" lon="5.04206">
        <ele>173.7</ele>
        <time>2022-05-07T13:44:53.000Z</time>
      </trkpt>
      <trkpt lat="45.06891" lon="5.04213">
        <ele>173.5</ele>
        <time>2022-05-07T13:44:54.000Z</time>
      </trkpt>
      <trkpt lat="45.06892" lon="5.04221">
        <ele>173.3</ele>
        <time>2022-05-07T13:44:55.000Z</time>
      </trkpt>
      <trkpt lat="45.06893" lon="5.04229">
        <ele>173.2</ele>
        <time>2022-05-07T13:44:56.000Z</time>
      </trkpt>
      <trkpt lat="45.06893" lon="5.04236">
        <ele>173.2</ele>
        <time>2022-05-07T13:44:57.000Z</time>
      </trkpt>
      <trkpt lat="45.06894" lon="5.04243">
        <ele>173.2</ele>
        <time>2022-05-07T13:44:58.000Z</time>
      </trkpt>
      <trkpt lat="45.06894" lon="5.0425">
        <ele>173.2</ele>
        <time>2022-05-07T13:44:59.000Z</time>
      </trkpt>
      <trkpt lat="45.06894" lon="5.04256">
        <ele>173.2</ele>
        <time>2022-05-07T13:45:00.000Z</time>
      </trkpt>
      <trkpt lat="45.06895" lon="5.04263">
        <ele>173.3</ele>
        <time>2022-05-07T13:45:01.000Z</time>
      </trkpt>
      <trkpt lat="45.06894" lon="5.04269">
        <ele>173.3</ele>
        <time>2022-05-07T13:45:02.000Z</time>
      </trkpt>
      <trkpt lat="45.06894" lon="5.04276">
        <ele>173.4</ele>
        <time>2022-05-07T13:45:03.000Z</time>
      </trkpt>
      <trkpt lat="45.06894" lon="5.04282">
        <ele>173.4</ele>
        <time>2022-05-07T13:45:04.000Z</time>
      </trkpt>
      <trkpt lat="45.06894" lon="5.04287">
        <ele>173.4</ele>
        <time>2022-05-07T13:45:05.000Z</time>
      </trkpt>
      <trkpt lat="45.06893" lon="5.04293">
        <ele>173.4</ele>
        <time>2022-05-07T13:45:06.000Z</time>
      </trkpt>
      <trkpt lat="45.06893" lon="5.04298">
        <ele>173.4</ele>
        <time>2022-05-07T13:45:07.000Z</time>
      </trkpt>
      <trkpt lat="45.06893" lon="5.04303">
        <ele>173.4</ele>
        <time>2022-05-07T13:45:08.000Z</time>
      </trkpt>
      <trkpt lat="45.06893" lon="5.04308">
        <ele>173.5</ele>
        <time>2022-05-07T13:45:09.000Z</time>
      </trkpt>
      <trkpt lat="45.06893" lon="5.04313">
        <ele>173.7</ele>
        <time>2022-05-07T13:45:10.000Z</time>
      </trkpt>
      <trkpt lat="45.06893" lon="5.04317">
        <ele>173.9</ele>
        <time>2022-05-07T13:45:11.000Z</time>
      </trkpt>
      <trkpt lat="45.06893" lon="5.04322">
        <ele>174</ele>
        <time>2022-05-07T13:45:12.000Z</time>
      </trkpt>
      <trkpt lat="45.06893" lon="5.04326">
        <ele>174.2</ele>
        <time>2022-05-07T13:45:13.000Z</time>
      </trkpt>
      <trkpt lat="45.06893" lon="5.0433">
        <ele>174.4</ele>
        <time>2022-05-07T13:45:14.000Z</time>
      </trkpt>
      <trkpt lat="45.06892" lon="5.04334">
        <ele>174.5</ele>
        <time>2022-05-07T13:45:15.000Z</time>
      </trkpt>
      <trkpt lat="45.06892" lon="5.04338">
        <ele>174.5</ele>
        <time>2022-05-07T13:45:16.000Z</time>
      </trkpt>
      <trkpt lat="45.06892" lon="5.04342">
        <ele>174.5</ele>
        <time>2022-05-07T13:45:17.000Z</time>
      </trkpt>
      <trkpt lat="45.06892" lon="5.04346">
        <ele>174.5</ele>
        <time>2022-05-07T13:45:18.000Z</time>
      </trkpt>
      <trkpt lat="45.06892" lon="5.04349">
        <ele>174.5</ele>
        <time>2022-05-07T13:45:19.000Z</time>
      </trkpt>
      <trkpt lat="45.06892" lon="5.04353">
        <ele>174.5</ele>
        <time>2022-05-07T13:45:20.000Z</time>
      </trkpt>
      <trkpt lat="45.06892" lon="5.04356">
        <ele>174.5</ele>
        <time>2022-05-07T13:45:21.000Z</time>
      </trkpt>
      <trkpt lat="45.06891" lon="5.04359">
        <ele>174.4</ele>
        <time>2022-05-07T13:45:22.000Z</time>
      </trkpt>
      <trkpt lat="45.06891" lon="5.04362">
        <ele>174.4</ele>
        <time>2022-05-07T13:45:23.000Z</time>
      </trkpt>
      <trkpt lat="45.06891" lon="5.04365">
        <ele>174.5</ele>
        <time>2022-05-07T13:45:24.000Z</time>
      </trkpt>
      <trkpt lat="45.06891" lon="5.04369">
        <ele>174.7</ele>
        <time>2022-05-07T13:45:26.000Z</time>
      </trkpt>
      <trkpt lat="45.06891" lon="5.04372">
        <ele>174.7</ele>
        <time>2022-05-07T13:45:27.000Z</time>
      </trkpt>
      <trkpt lat="45.06891" lon="5.04375">
        <ele>174.8</ele>
        <time>2022-05-07T13:45:28.000Z</time>
      </trkpt>
      <trkpt lat="45.0689" lon="5.04379">
        <ele>174.8</ele>
        <time>2022-05-07T13:45:29.000Z</time>
      </trkpt>
      <trkpt lat="45.06889" lon="5.04382">
        <ele>174.8</ele>
        <time>2022-05-07T13:45:30.000Z</time>
      </trkpt>
      <trkpt lat="45.06889" lon="5.04386">
        <ele>175</ele>
        <time>2022-05-07T13:45:31.000Z</time>
      </trkpt>
      <trkpt lat="45.0689" lon="5.0439">
        <ele>175.2</ele>
        <time>2022-05-07T13:45:32.000Z</time>
      </trkpt>
      <trkpt lat="45.0689" lon="5.04395">
        <ele>175.3</ele>
        <time>2022-05-07T13:45:33.000Z</time>
      </trkpt>
      <trkpt lat="45.06891" lon="5.044">
        <ele>175.5</ele>
        <time>2022-05-07T13:45:34.000Z</time>
      </trkpt>
      <trkpt lat="45.06892" lon="5.04404">
        <ele>175.7</ele>
        <time>2022-05-07T13:45:35.000Z</time>
      </trkpt>
      <trkpt lat="45.06893" lon="5.04409">
        <ele>176</ele>
        <time>2022-05-07T13:45:36.000Z</time>
      </trkpt>
      <trkpt lat="45.06893" lon="5.04414">
        <ele>176.2</ele>
        <time>2022-05-07T13:45:37.000Z</time>
      </trkpt>
      <trkpt lat="45.06894" lon="5.04419">
        <ele>176.2</ele>
        <time>2022-05-07T13:45:38.000Z</time>
      </trkpt>
      <trkpt lat="45.06894" lon="5.04423">
        <ele>176.1</ele>
        <time>2022-05-07T13:45:39.000Z</time>
      </trkpt>
      <trkpt lat="45.06894" lon="5.04427">
        <ele>176.1</ele>
        <time>2022-05-07T13:45:40.000Z</time>
      </trkpt>
      <trkpt lat="45.06895" lon="5.04431">
        <ele>176.1</ele>
        <time>2022-05-07T13:45:41.000Z</time>
      </trkpt>
      <trkpt lat="45.06895" lon="5.04435">
        <ele>176</ele>
        <time>2022-05-07T13:45:42.000Z</time>
      </trkpt>
      <trkpt lat="45.06896" lon="5.04438">
        <ele>176</ele>
        <time>2022-05-07T13:45:43.000Z</time>
      </trkpt>
      <trkpt lat="45.06896" lon="5.04442">
        <ele>176</ele>
        <time>2022-05-07T13:45:44.000Z</time>
      </trkpt>
      <trkpt lat="45.06897" lon="5.04447">
        <ele>176</ele>
        <time>2022-05-07T13:45:45.000Z</time>
      </trkpt>
      <trkpt lat="45.06898" lon="5.04451">
        <ele>176.1</ele>
        <time>2022-05-07T13:45:46.000Z</time>
      </trkpt>
      <trkpt lat="45.06899" lon="5.04456">
        <ele>176.2</ele>
        <time>2022-05-07T13:45:47.000Z</time>
      </trkpt>
      <trkpt lat="45.069" lon="5.0446">
        <ele>176.3</ele>
        <time>2022-05-07T13:45:48.000Z</time>
      </trkpt>
      <trkpt lat="45.06901" lon="5.04465">
        <ele>176.6</ele>
        <time>2022-05-07T13:45:49.000Z</time>
      </trkpt>
      <trkpt lat="45.06902" lon="5.04469">
        <ele>176.7</ele>
        <time>2022-05-07T13:45:50.000Z</time>
      </trkpt>
      <trkpt lat="45.06903" lon="5.04474">
        <ele>176.8</ele>
        <time>2022-05-07T13:45:51.000Z</time>
      </trkpt>
      <trkpt lat="45.06904" lon="5.04478">
        <ele>176.9</ele>
        <time>2022-05-07T13:45:52.000Z</time>
      </trkpt>
      <trkpt lat="45.06904" lon="5.04483">
        <ele>176.9</ele>
        <time>2022-05-07T13:45:53.000Z</time>
      </trkpt>
      <trkpt lat="45.06906" lon="5.04487">
        <ele>176.9</ele>
        <time>2022-05-07T13:45:54.000Z</time>
      </trkpt>
      <trkpt lat="45.06906" lon="5.04492">
        <ele>176.9</ele>
        <time>2022-05-07T13:45:55.000Z</time>
      </trkpt>
      <trkpt lat="45.06907" lon="5.04496">
        <ele>176.9</ele>
        <time>2022-05-07T13:45:56.000Z</time>
      </trkpt>
      <trkpt lat="45.06908" lon="5.04499">
        <ele>176.9</ele>
        <time>2022-05-07T13:45:57.000Z</time>
      </trkpt>
      <trkpt lat="45.06909" lon="5.04503">
        <ele>176.9</ele>
        <time>2022-05-07T13:45:58.000Z</time>
      </trkpt>
      <trkpt lat="45.06911" lon="5.04506">
        <ele>176.9</ele>
        <time>2022-05-07T13:45:59.000Z</time>
      </trkpt>
      <trkpt lat="45.06912" lon="5.0451">
        <ele>176.8</ele>
        <time>2022-05-07T13:46:00.000Z</time>
      </trkpt>
      <trkpt lat="45.06913" lon="5.04514">
        <ele>176.7</ele>
        <time>2022-05-07T13:46:01.000Z</time>
      </trkpt>
      <trkpt lat="45.06914" lon="5.04517">
        <ele>176.6</ele>
        <time>2022-05-07T13:46:02.000Z</time>
      </trkpt>
      <trkpt lat="45.06916" lon="5.04521">
        <ele>176.5</ele>
        <time>2022-05-07T13:46:03.000Z</time>
      </trkpt>
      <trkpt lat="45.06917" lon="5.04525">
        <ele>176.4</ele>
        <time>2022-05-07T13:46:04.000Z</time>
      </trkpt>
      <trkpt lat="45.06919" lon="5.0453">
        <ele>176.2</ele>
        <time>2022-05-07T13:46:05.000Z</time>
      </trkpt>
      <trkpt lat="45.0692" lon="5.04534">
        <ele>176</ele>
        <time>2022-05-07T13:46:06.000Z</time>
      </trkpt>
      <trkpt lat="45.06921" lon="5.04538">
        <ele>175.8</ele>
        <time>2022-05-07T13:46:07.000Z</time>
      </trkpt>
      <trkpt lat="45.06923" lon="5.04542">
        <ele>175.7</ele>
        <time>2022-05-07T13:46:08.000Z</time>
      </trkpt>
      <trkpt lat="45.06924" lon="5.04546">
        <ele>175.6</ele>
        <time>2022-05-07T13:46:09.000Z</time>
      </trkpt>
      <trkpt lat="45.06926" lon="5.0455">
        <ele>175.4</ele>
        <time>2022-05-07T13:46:10.000Z</time>
      </trkpt>
      <trkpt lat="45.06927" lon="5.04555">
        <ele>175.2</ele>
        <time>2022-05-07T13:46:11.000Z</time>
      </trkpt>
      <trkpt lat="45.06928" lon="5.0456">
        <ele>175.3</ele>
        <time>2022-05-07T13:46:12.000Z</time>
      </trkpt>
      <trkpt lat="45.06929" lon="5.04564">
        <ele>175.4</ele>
        <time>2022-05-07T13:46:13.000Z</time>
      </trkpt>
      <trkpt lat="45.06931" lon="5.04568">
        <ele>175.6</ele>
        <time>2022-05-07T13:46:14.000Z</time>
      </trkpt>
      <trkpt lat="45.06932" lon="5.04573">
        <ele>175.7</ele>
        <time>2022-05-07T13:46:15.000Z</time>
      </trkpt>
      <trkpt lat="45.06933" lon="5.04577">
        <ele>175.8</ele>
        <time>2022-05-07T13:46:16.000Z</time>
      </trkpt>
      <trkpt lat="45.06935" lon="5.04582">
        <ele>175.9</ele>
        <time>2022-05-07T13:46:17.000Z</time>
      </trkpt>
      <trkpt lat="45.06936" lon="5.04586">
        <ele>175.9</ele>
        <time>2022-05-07T13:46:18.000Z</time>
      </trkpt>
      <trkpt lat="45.06938" lon="5.0459">
        <ele>175.8</ele>
        <time>2022-05-07T13:46:19.000Z</time>
      </trkpt>
      <trkpt lat="45.06939" lon="5.04594">
        <ele>175.5</ele>
        <time>2022-05-07T13:46:20.000Z</time>
      </trkpt>
      <trkpt lat="45.0694" lon="5.04597">
        <ele>175.3</ele>
        <time>2022-05-07T13:46:21.000Z</time>
      </trkpt>
      <trkpt lat="45.06942" lon="5.04601">
        <ele>175</ele>
        <time>2022-05-07T13:46:22.000Z</time>
      </trkpt>
      <trkpt lat="45.06943" lon="5.04606">
        <ele>174.5</ele>
        <time>2022-05-07T13:46:23.000Z</time>
      </trkpt>
      <trkpt lat="45.06944" lon="5.04611">
        <ele>174</ele>
        <time>2022-05-07T13:46:24.000Z</time>
      </trkpt>
      <trkpt lat="45.06945" lon="5.04616">
        <ele>173.9</ele>
        <time>2022-05-07T13:46:25.000Z</time>
      </trkpt>
      <trkpt lat="45.06946" lon="5.0462">
        <ele>173.8</ele>
        <time>2022-05-07T13:46:26.000Z</time>
      </trkpt>
      <trkpt lat="45.06947" lon="5.04625">
        <ele>173.7</ele>
        <time>2022-05-07T13:46:27.000Z</time>
      </trkpt>
      <trkpt lat="45.06948" lon="5.04629">
        <ele>173.6</ele>
        <time>2022-05-07T13:46:28.000Z</time>
      </trkpt>
      <trkpt lat="45.06948" lon="5.04634">
        <ele>173.5</ele>
        <time>2022-05-07T13:46:29.000Z</time>
      </trkpt>
      <trkpt lat="45.06949" lon="5.04639">
        <ele>173.3</ele>
        <time>2022-05-07T13:46:30.000Z</time>
      </trkpt>
      <trkpt lat="45.0695" lon="5.04644">
        <ele>173.3</ele>
        <time>2022-05-07T13:46:31.000Z</time>
      </trkpt>
      <trkpt lat="45.0695" lon="5.0465">
        <ele>173.3</ele>
        <time>2022-05-07T13:46:32.000Z</time>
      </trkpt>
      <trkpt lat="45.06952" lon="5.04655">
        <ele>173.4</ele>
        <time>2022-05-07T13:46:33.000Z</time>
      </trkpt>
      <trkpt lat="45.06952" lon="5.04662">
        <ele>173.3</ele>
        <time>2022-05-07T13:46:34.000Z</time>
      </trkpt>
      <trkpt lat="45.06953" lon="5.04668">
        <ele>173.2</ele>
        <time>2022-05-07T13:46:35.000Z</time>
      </trkpt>
      <trkpt lat="45.06953" lon="5.04675">
        <ele>172.9</ele>
        <time>2022-05-07T13:46:36.000Z</time>
      </trkpt>
      <trkpt lat="45.06954" lon="5.04682">
        <ele>172.6</ele>
        <time>2022-05-07T13:46:37.000Z</time>
      </trkpt>
      <trkpt lat="45.06954" lon="5.04688">
        <ele>172.3</ele>
        <time>2022-05-07T13:46:38.000Z</time>
      </trkpt>
      <trkpt lat="45.06955" lon="5.04695">
        <ele>172.1</ele>
        <time>2022-05-07T13:46:39.000Z</time>
      </trkpt>
      <trkpt lat="45.06956" lon="5.04701">
        <ele>172.2</ele>
        <time>2022-05-07T13:46:40.000Z</time>
      </trkpt>
      <trkpt lat="45.06957" lon="5.04708">
        <ele>172.3</ele>
        <time>2022-05-07T13:46:41.000Z</time>
      </trkpt>
      <trkpt lat="45.06958" lon="5.04714">
        <ele>172.4</ele>
        <time>2022-05-07T13:46:42.000Z</time>
      </trkpt>
      <trkpt lat="45.06958" lon="5.0472">
        <ele>172.5</ele>
        <time>2022-05-07T13:46:43.000Z</time>
      </trkpt>
      <trkpt lat="45.06959" lon="5.04726">
        <ele>172.5</ele>
        <time>2022-05-07T13:46:44.000Z</time>
      </trkpt>
      <trkpt lat="45.0696" lon="5.04732">
        <ele>172.5</ele>
        <time>2022-05-07T13:46:45.000Z</time>
      </trkpt>
      <trkpt lat="45.0696" lon="5.04738">
        <ele>172.4</ele>
        <time>2022-05-07T13:46:46.000Z</time>
      </trkpt>
      <trkpt lat="45.06961" lon="5.04744">
        <ele>172.3</ele>
        <time>2022-05-07T13:46:47.000Z</time>
      </trkpt>
      <trkpt lat="45.06961" lon="5.04749">
        <ele>172.2</ele>
        <time>2022-05-07T13:46:48.000Z</time>
      </trkpt>
      <trkpt lat="45.06962" lon="5.04755">
        <ele>172.3</ele>
        <time>2022-05-07T13:46:49.000Z</time>
      </trkpt>
      <trkpt lat="45.06963" lon="5.0476">
        <ele>172.3</ele>
        <time>2022-05-07T13:46:50.000Z</time>
      </trkpt>
      <trkpt lat="45.06963" lon="5.04765">
        <ele>172.4</ele>
        <time>2022-05-07T13:46:51.000Z</time>
      </trkpt>
      <trkpt lat="45.06964" lon="5.0477">
        <ele>172.4</ele>
        <time>2022-05-07T13:46:52.000Z</time>
      </trkpt>
      <trkpt lat="45.06965" lon="5.04775">
        <ele>172.5</ele>
        <time>2022-05-07T13:46:53.000Z</time>
      </trkpt>
      <trkpt lat="45.06967" lon="5.04779">
        <ele>172.6</ele>
        <time>2022-05-07T13:46:54.000Z</time>
      </trkpt>
      <trkpt lat="45.06968" lon="5.04783">
        <ele>172.7</ele>
        <time>2022-05-07T13:46:55.000Z</time>
      </trkpt>
      <trkpt lat="45.06968" lon="5.04788">
        <ele>172.8</ele>
        <time>2022-05-07T13:46:56.000Z</time>
      </trkpt>
      <trkpt lat="45.06969" lon="5.04793">
        <ele>172.8</ele>
        <time>2022-05-07T13:46:57.000Z</time>
      </trkpt>
      <trkpt lat="45.06969" lon="5.04798">
        <ele>172.9</ele>
        <time>2022-05-07T13:46:58.000Z</time>
      </trkpt>
      <trkpt lat="45.0697" lon="5.04804">
        <ele>172.9</ele>
        <time>2022-05-07T13:46:59.000Z</time>
      </trkpt>
      <trkpt lat="45.06971" lon="5.04809">
        <ele>172.8</ele>
        <time>2022-05-07T13:47:00.000Z</time>
      </trkpt>
      <trkpt lat="45.06972" lon="5.04815">
        <ele>172.7</ele>
        <time>2022-05-07T13:47:01.000Z</time>
      </trkpt>
      <trkpt lat="45.06973" lon="5.0482">
        <ele>172.5</ele>
        <time>2022-05-07T13:47:02.000Z</time>
      </trkpt>
      <trkpt lat="45.06974" lon="5.04825">
        <ele>172.4</ele>
        <time>2022-05-07T13:47:03.000Z</time>
      </trkpt>
      <trkpt lat="45.06975" lon="5.04831">
        <ele>172.2</ele>
        <time>2022-05-07T13:47:04.000Z</time>
      </trkpt>
      <trkpt lat="45.06976" lon="5.04837">
        <ele>172.1</ele>
        <time>2022-05-07T13:47:05.000Z</time>
      </trkpt>
      <trkpt lat="45.06977" lon="5.04843">
        <ele>172.2</ele>
        <time>2022-05-07T13:47:06.000Z</time>
      </trkpt>
      <trkpt lat="45.06978" lon="5.04849">
        <ele>172.2</ele>
        <time>2022-05-07T13:47:07.000Z</time>
      </trkpt>
      <trkpt lat="45.06978" lon="5.04855">
        <ele>172.2</ele>
        <time>2022-05-07T13:47:08.000Z</time>
      </trkpt>
      <trkpt lat="45.06979" lon="5.04861">
        <ele>172.2</ele>
        <time>2022-05-07T13:47:09.000Z</time>
      </trkpt>
      <trkpt lat="45.0698" lon="5.04867">
        <ele>172.3</ele>
        <time>2022-05-07T13:47:10.000Z</time>
      </trkpt>
      <trkpt lat="45.06981" lon="5.04873">
        <ele>172.3</ele>
        <time>2022-05-07T13:47:11.000Z</time>
      </trkpt>
      <trkpt lat="45.06982" lon="5.04879">
        <ele>172.4</ele>
        <time>2022-05-07T13:47:12.000Z</time>
      </trkpt>
      <trkpt lat="45.06983" lon="5.04886">
        <ele>172.4</ele>
        <time>2022-05-07T13:47:13.000Z</time>
      </trkpt>
      <trkpt lat="45.06983" lon="5.04892">
        <ele>172.5</ele>
        <time>2022-05-07T13:47:14.000Z</time>
      </trkpt>
      <trkpt lat="45.06984" lon="5.04898">
        <ele>172.6</ele>
        <time>2022-05-07T13:47:15.000Z</time>
      </trkpt>
      <trkpt lat="45.06984" lon="5.04904">
        <ele>172.7</ele>
        <time>2022-05-07T13:47:16.000Z</time>
      </trkpt>
      <trkpt lat="45.06985" lon="5.0491">
        <ele>172.9</ele>
        <time>2022-05-07T13:47:17.000Z</time>
      </trkpt>
      <trkpt lat="45.06986" lon="5.04916">
        <ele>173</ele>
        <time>2022-05-07T13:47:18.000Z</time>
      </trkpt>
      <trkpt lat="45.06987" lon="5.04922">
        <ele>172.9</ele>
        <time>2022-05-07T13:47:19.000Z</time>
      </trkpt>
      <trkpt lat="45.06988" lon="5.04928">
        <ele>172.8</ele>
        <time>2022-05-07T13:47:20.000Z</time>
      </trkpt>
      <trkpt lat="45.06989" lon="5.04934">
        <ele>172.8</ele>
        <time>2022-05-07T13:47:21.000Z</time>
      </trkpt>
      <trkpt lat="45.0699" lon="5.0494">
        <ele>172.7</ele>
        <time>2022-05-07T13:47:22.000Z</time>
      </trkpt>
      <trkpt lat="45.06992" lon="5.04945">
        <ele>172.7</ele>
        <time>2022-05-07T13:47:23.000Z</time>
      </trkpt>
      <trkpt lat="45.06993" lon="5.04951">
        <ele>172.8</ele>
        <time>2022-05-07T13:47:24.000Z</time>
      </trkpt>
      <trkpt lat="45.06995" lon="5.04958">
        <ele>172.8</ele>
        <time>2022-05-07T13:47:25.000Z</time>
      </trkpt>
      <trkpt lat="45.06997" lon="5.04964">
        <ele>172.9</ele>
        <time>2022-05-07T13:47:26.000Z</time>
      </trkpt>
      <trkpt lat="45.06999" lon="5.0497">
        <ele>173</ele>
        <time>2022-05-07T13:47:27.000Z</time>
      </trkpt>
      <trkpt lat="45.07001" lon="5.04975">
        <ele>173</ele>
        <time>2022-05-07T13:47:28.000Z</time>
      </trkpt>
      <trkpt lat="45.07002" lon="5.04981">
        <ele>173.1</ele>
        <time>2022-05-07T13:47:29.000Z</time>
      </trkpt>
      <trkpt lat="45.07003" lon="5.04987">
        <ele>173.2</ele>
        <time>2022-05-07T13:47:30.000Z</time>
      </trkpt>
      <trkpt lat="45.07005" lon="5.04992">
        <ele>173.3</ele>
        <time>2022-05-07T13:47:31.000Z</time>
      </trkpt>
      <trkpt lat="45.07006" lon="5.04998">
        <ele>173.4</ele>
        <time>2022-05-07T13:47:32.000Z</time>
      </trkpt>
      <trkpt lat="45.07008" lon="5.05003">
        <ele>173.6</ele>
        <time>2022-05-07T13:47:33.000Z</time>
      </trkpt>
      <trkpt lat="45.07009" lon="5.05009">
        <ele>173.9</ele>
        <time>2022-05-07T13:47:34.000Z</time>
      </trkpt>
      <trkpt lat="45.07011" lon="5.05015">
        <ele>174.1</ele>
        <time>2022-05-07T13:47:35.000Z</time>
      </trkpt>
      <trkpt lat="45.07013" lon="5.05021">
        <ele>174.3</ele>
        <time>2022-05-07T13:47:36.000Z</time>
      </trkpt>
      <trkpt lat="45.07014" lon="5.05027">
        <ele>174.5</ele>
        <time>2022-05-07T13:47:37.000Z</time>
      </trkpt>
      <trkpt lat="45.07015" lon="5.05033">
        <ele>174.5</ele>
        <time>2022-05-07T13:47:38.000Z</time>
      </trkpt>
      <trkpt lat="45.07016" lon="5.05039">
        <ele>174.6</ele>
        <time>2022-05-07T13:47:39.000Z</time>
      </trkpt>
      <trkpt lat="45.07017" lon="5.05045">
        <ele>174.6</ele>
        <time>2022-05-07T13:47:40.000Z</time>
      </trkpt>
      <trkpt lat="45.07018" lon="5.05051">
        <ele>174.7</ele>
        <time>2022-05-07T13:47:41.000Z</time>
      </trkpt>
      <trkpt lat="45.07019" lon="5.05057">
        <ele>174.7</ele>
        <time>2022-05-07T13:47:42.000Z</time>
      </trkpt>
      <trkpt lat="45.0702" lon="5.05063">
        <ele>174.7</ele>
        <time>2022-05-07T13:47:43.000Z</time>
      </trkpt>
      <trkpt lat="45.07021" lon="5.05068">
        <ele>174.8</ele>
        <time>2022-05-07T13:47:44.000Z</time>
      </trkpt>
      <trkpt lat="45.07022" lon="5.05072">
        <ele>174.8</ele>
        <time>2022-05-07T13:47:45.000Z</time>
      </trkpt>
      <trkpt lat="45.07022" lon="5.05076">
        <ele>174.8</ele>
        <time>2022-05-07T13:47:46.000Z</time>
      </trkpt>
      <trkpt lat="45.07022" lon="5.05079">
        <ele>174.8</ele>
        <time>2022-05-07T13:47:47.000Z</time>
      </trkpt>
      <trkpt lat="45.07021" lon="5.05082">
        <ele>174.8</ele>
        <time>2022-05-07T13:47:48.000Z</time>
      </trkpt>
      <trkpt lat="45.07021" lon="5.05085">
        <ele>174.7</ele>
        <time>2022-05-07T13:47:50.000Z</time>
      </trkpt>
      <trkpt lat="45.07021" lon="5.0509">
        <ele>174.7</ele>
        <time>2022-05-07T13:47:53.000Z</time>
      </trkpt>
      <trkpt lat="45.0702" lon="5.05093">
        <ele>174.7</ele>
        <time>2022-05-07T13:47:54.000Z</time>
      </trkpt>
      <trkpt lat="45.07019" lon="5.05097">
        <ele>174.7</ele>
        <time>2022-05-07T13:47:55.000Z</time>
      </trkpt>
      <trkpt lat="45.07018" lon="5.05102">
        <ele>174.6</ele>
        <time>2022-05-07T13:47:56.000Z</time>
      </trkpt>
      <trkpt lat="45.07018" lon="5.05108">
        <ele>174.6</ele>
        <time>2022-05-07T13:47:57.000Z</time>
      </trkpt>
      <trkpt lat="45.0702" lon="5.05114">
        <ele>174.7</ele>
        <time>2022-05-07T13:47:58.000Z</time>
      </trkpt>
      <trkpt lat="45.07023" lon="5.05118">
        <ele>174.8</ele>
        <time>2022-05-07T13:47:59.000Z</time>
      </trkpt>
      <trkpt lat="45.07026" lon="5.05123">
        <ele>174.9</ele>
        <time>2022-05-07T13:48:00.000Z</time>
      </trkpt>
      <trkpt lat="45.07029" lon="5.05128">
        <ele>175.1</ele>
        <time>2022-05-07T13:48:01.000Z</time>
      </trkpt>
      <trkpt lat="45.07032" lon="5.05132">
        <ele>175.3</ele>
        <time>2022-05-07T13:48:02.000Z</time>
      </trkpt>
      <trkpt lat="45.07034" lon="5.05137">
        <ele>175.4</ele>
        <time>2022-05-07T13:48:03.000Z</time>
      </trkpt>
      <trkpt lat="45.07036" lon="5.05141">
        <ele>175.6</ele>
        <time>2022-05-07T13:48:04.000Z</time>
      </trkpt>
      <trkpt lat="45.07037" lon="5.05146">
        <ele>175.7</ele>
        <time>2022-05-07T13:48:05.000Z</time>
      </trkpt>
      <trkpt lat="45.07039" lon="5.05151">
        <ele>175.8</ele>
        <time>2022-05-07T13:48:06.000Z</time>
      </trkpt>
      <trkpt lat="45.0704" lon="5.05156">
        <ele>175.9</ele>
        <time>2022-05-07T13:48:07.000Z</time>
      </trkpt>
      <trkpt lat="45.07042" lon="5.05161">
        <ele>176</ele>
        <time>2022-05-07T13:48:08.000Z</time>
      </trkpt>
      <trkpt lat="45.07044" lon="5.05165">
        <ele>176.2</ele>
        <time>2022-05-07T13:48:09.000Z</time>
      </trkpt>
      <trkpt lat="45.07046" lon="5.0517">
        <ele>176.4</ele>
        <time>2022-05-07T13:48:10.000Z</time>
      </trkpt>
      <trkpt lat="45.07047" lon="5.05175">
        <ele>176.6</ele>
        <time>2022-05-07T13:48:11.000Z</time>
      </trkpt>
      <trkpt lat="45.07049" lon="5.05179">
        <ele>176.8</ele>
        <time>2022-05-07T13:48:12.000Z</time>
      </trkpt>
      <trkpt lat="45.07052" lon="5.05184">
        <ele>176.9</ele>
        <time>2022-05-07T13:48:13.000Z</time>
      </trkpt>
      <trkpt lat="45.07055" lon="5.05188">
        <ele>177</ele>
        <time>2022-05-07T13:48:14.000Z</time>
      </trkpt>
      <trkpt lat="45.07057" lon="5.05192">
        <ele>177</ele>
        <time>2022-05-07T13:48:15.000Z</time>
      </trkpt>
      <trkpt lat="45.07059" lon="5.05196">
        <ele>177.1</ele>
        <time>2022-05-07T13:48:16.000Z</time>
      </trkpt>
      <trkpt lat="45.07061" lon="5.052">
        <ele>177.2</ele>
        <time>2022-05-07T13:48:17.000Z</time>
      </trkpt>
      <trkpt lat="45.07063" lon="5.05204">
        <ele>177.3</ele>
        <time>2022-05-07T13:48:18.000Z</time>
      </trkpt>
      <trkpt lat="45.07065" lon="5.05208">
        <ele>177.3</ele>
        <time>2022-05-07T13:48:19.000Z</time>
      </trkpt>
      <trkpt lat="45.07067" lon="5.05212">
        <ele>177.4</ele>
        <time>2022-05-07T13:48:20.000Z</time>
      </trkpt>
      <trkpt lat="45.07069" lon="5.05216">
        <ele>177.5</ele>
        <time>2022-05-07T13:48:21.000Z</time>
      </trkpt>
      <trkpt lat="45.07071" lon="5.0522">
        <ele>177.6</ele>
        <time>2022-05-07T13:48:22.000Z</time>
      </trkpt>
      <trkpt lat="45.07073" lon="5.05225">
        <ele>177.6</ele>
        <time>2022-05-07T13:48:23.000Z</time>
      </trkpt>
      <trkpt lat="45.07075" lon="5.0523">
        <ele>177.5</ele>
        <time>2022-05-07T13:48:24.000Z</time>
      </trkpt>
      <trkpt lat="45.07077" lon="5.05234">
        <ele>177.4</ele>
        <time>2022-05-07T13:48:25.000Z</time>
      </trkpt>
      <trkpt lat="45.07078" lon="5.0524">
        <ele>177.3</ele>
        <time>2022-05-07T13:48:26.000Z</time>
      </trkpt>
      <trkpt lat="45.0708" lon="5.05246">
        <ele>177.1</ele>
        <time>2022-05-07T13:48:27.000Z</time>
      </trkpt>
      <trkpt lat="45.07081" lon="5.05251">
        <ele>177</ele>
        <time>2022-05-07T13:48:28.000Z</time>
      </trkpt>
      <trkpt lat="45.07083" lon="5.05257">
        <ele>177</ele>
        <time>2022-05-07T13:48:29.000Z</time>
      </trkpt>
      <trkpt lat="45.07085" lon="5.05262">
        <ele>177.1</ele>
        <time>2022-05-07T13:48:30.000Z</time>
      </trkpt>
      <trkpt lat="45.07086" lon="5.05267">
        <ele>177.1</ele>
        <time>2022-05-07T13:48:31.000Z</time>
      </trkpt>
      <trkpt lat="45.07087" lon="5.05272">
        <ele>177.2</ele>
        <time>2022-05-07T13:48:32.000Z</time>
      </trkpt>
      <trkpt lat="45.07088" lon="5.05278">
        <ele>177.2</ele>
        <time>2022-05-07T13:48:33.000Z</time>
      </trkpt>
      <trkpt lat="45.07089" lon="5.05283">
        <ele>177.3</ele>
        <time>2022-05-07T13:48:34.000Z</time>
      </trkpt>
      <trkpt lat="45.07091" lon="5.05288">
        <ele>177.5</ele>
        <time>2022-05-07T13:48:35.000Z</time>
      </trkpt>
      <trkpt lat="45.07092" lon="5.05294">
        <ele>177.7</ele>
        <time>2022-05-07T13:48:36.000Z</time>
      </trkpt>
      <trkpt lat="45.07093" lon="5.05299">
        <ele>177.9</ele>
        <time>2022-05-07T13:48:37.000Z</time>
      </trkpt>
      <trkpt lat="45.07095" lon="5.05304">
        <ele>178.2</ele>
        <time>2022-05-07T13:48:38.000Z</time>
      </trkpt>
      <trkpt lat="45.07095" lon="5.05309">
        <ele>178.1</ele>
        <time>2022-05-07T13:48:39.000Z</time>
      </trkpt>
      <trkpt lat="45.07096" lon="5.05314">
        <ele>177.9</ele>
        <time>2022-05-07T13:48:40.000Z</time>
      </trkpt>
      <trkpt lat="45.07096" lon="5.0532">
        <ele>177.6</ele>
        <time>2022-05-07T13:48:41.000Z</time>
      </trkpt>
      <trkpt lat="45.07097" lon="5.05326">
        <ele>177.4</ele>
        <time>2022-05-07T13:48:42.000Z</time>
      </trkpt>
      <trkpt lat="45.07097" lon="5.05332">
        <ele>177.1</ele>
        <time>2022-05-07T13:48:43.000Z</time>
      </trkpt>
      <trkpt lat="45.07098" lon="5.05338">
        <ele>177</ele>
        <time>2022-05-07T13:48:44.000Z</time>
      </trkpt>
      <trkpt lat="45.07098" lon="5.05344">
        <ele>177</ele>
        <time>2022-05-07T13:48:45.000Z</time>
      </trkpt>
      <trkpt lat="45.07098" lon="5.0535">
        <ele>177</ele>
        <time>2022-05-07T13:48:46.000Z</time>
      </trkpt>
      <trkpt lat="45.07098" lon="5.05357">
        <ele>177</ele>
        <time>2022-05-07T13:48:47.000Z</time>
      </trkpt>
      <trkpt lat="45.07098" lon="5.05363">
        <ele>177</ele>
        <time>2022-05-07T13:48:48.000Z</time>
      </trkpt>
      <trkpt lat="45.07098" lon="5.0537">
        <ele>176.9</ele>
        <time>2022-05-07T13:48:49.000Z</time>
      </trkpt>
      <trkpt lat="45.07098" lon="5.05376">
        <ele>176.8</ele>
        <time>2022-05-07T13:48:50.000Z</time>
      </trkpt>
      <trkpt lat="45.07098" lon="5.05383">
        <ele>176.6</ele>
        <time>2022-05-07T13:48:51.000Z</time>
      </trkpt>
      <trkpt lat="45.07097" lon="5.0539">
        <ele>176.5</ele>
        <time>2022-05-07T13:48:52.000Z</time>
      </trkpt>
      <trkpt lat="45.07096" lon="5.05397">
        <ele>176.4</ele>
        <time>2022-05-07T13:48:53.000Z</time>
      </trkpt>
      <trkpt lat="45.07095" lon="5.05403">
        <ele>176.4</ele>
        <time>2022-05-07T13:48:54.000Z</time>
      </trkpt>
      <trkpt lat="45.07095" lon="5.0541">
        <ele>176.3</ele>
        <time>2022-05-07T13:48:55.000Z</time>
      </trkpt>
      <trkpt lat="45.07094" lon="5.05417">
        <ele>176.2</ele>
        <time>2022-05-07T13:48:56.000Z</time>
      </trkpt>
      <trkpt lat="45.07095" lon="5.05422">
        <ele>176.3</ele>
        <time>2022-05-07T13:48:57.000Z</time>
      </trkpt>
      <trkpt lat="45.07095" lon="5.05428">
        <ele>176.3</ele>
        <time>2022-05-07T13:48:58.000Z</time>
      </trkpt>
      <trkpt lat="45.07097" lon="5.05435">
        <ele>176.5</ele>
        <time>2022-05-07T13:48:59.000Z</time>
      </trkpt>
      <trkpt lat="45.07099" lon="5.0544">
        <ele>176.6</ele>
        <time>2022-05-07T13:49:00.000Z</time>
      </trkpt>
      <trkpt lat="45.071" lon="5.05446">
        <ele>176.8</ele>
        <time>2022-05-07T13:49:01.000Z</time>
      </trkpt>
      <trkpt lat="45.07101" lon="5.05451">
        <ele>176.9</ele>
        <time>2022-05-07T13:49:02.000Z</time>
      </trkpt>
      <trkpt lat="45.07102" lon="5.05456">
        <ele>177</ele>
        <time>2022-05-07T13:49:03.000Z</time>
      </trkpt>
      <trkpt lat="45.07103" lon="5.0546">
        <ele>177.1</ele>
        <time>2022-05-07T13:49:04.000Z</time>
      </trkpt>
      <trkpt lat="45.07104" lon="5.05463">
        <ele>177.3</ele>
        <time>2022-05-07T13:49:05.000Z</time>
      </trkpt>
      <trkpt lat="45.07105" lon="5.05467">
        <ele>177.3</ele>
        <time>2022-05-07T13:49:06.000Z</time>
      </trkpt>
      <trkpt lat="45.07106" lon="5.0547">
        <ele>177.4</ele>
        <time>2022-05-07T13:49:07.000Z</time>
      </trkpt>
      <trkpt lat="45.07107" lon="5.05473">
        <ele>177.5</ele>
        <time>2022-05-07T13:49:08.000Z</time>
      </trkpt>
      <trkpt lat="45.07108" lon="5.05476">
        <ele>177.6</ele>
        <time>2022-05-07T13:49:09.000Z</time>
      </trkpt>
      <trkpt lat="45.0711" lon="5.0548">
        <ele>177.9</ele>
        <time>2022-05-07T13:49:10.000Z</time>
      </trkpt>
      <trkpt lat="45.07112" lon="5.05484">
        <ele>178.2</ele>
        <time>2022-05-07T13:49:11.000Z</time>
      </trkpt>
      <trkpt lat="45.07113" lon="5.05488">
        <ele>178.4</ele>
        <time>2022-05-07T13:49:12.000Z</time>
      </trkpt>
      <trkpt lat="45.07113" lon="5.05492">
        <ele>178.4</ele>
        <time>2022-05-07T13:49:13.000Z</time>
      </trkpt>
      <trkpt lat="45.07113" lon="5.05495">
        <ele>178.5</ele>
        <time>2022-05-07T13:49:14.000Z</time>
      </trkpt>
      <trkpt lat="45.07114" lon="5.05498">
        <ele>178.7</ele>
        <time>2022-05-07T13:49:15.000Z</time>
      </trkpt>
      <trkpt lat="45.07116" lon="5.055">
        <ele>179</ele>
        <time>2022-05-07T13:49:16.000Z</time>
      </trkpt>
      <trkpt lat="45.07118" lon="5.05502">
        <ele>179.3</ele>
        <time>2022-05-07T13:49:17.000Z</time>
      </trkpt>
      <trkpt lat="45.07121" lon="5.05506">
        <ele>179.7</ele>
        <time>2022-05-07T13:49:18.000Z</time>
      </trkpt>
      <trkpt lat="45.07124" lon="5.05508">
        <ele>180.1</ele>
        <time>2022-05-07T13:49:19.000Z</time>
      </trkpt>
      <trkpt lat="45.07126" lon="5.05511">
        <ele>180.3</ele>
        <time>2022-05-07T13:49:20.000Z</time>
      </trkpt>
      <trkpt lat="45.07128" lon="5.05514">
        <ele>180.4</ele>
        <time>2022-05-07T13:49:21.000Z</time>
      </trkpt>
      <trkpt lat="45.0713" lon="5.05516">
        <ele>180.4</ele>
        <time>2022-05-07T13:49:22.000Z</time>
      </trkpt>
      <trkpt lat="45.07132" lon="5.05519">
        <ele>180.6</ele>
        <time>2022-05-07T13:49:23.000Z</time>
      </trkpt>
      <trkpt lat="45.07134" lon="5.05521">
        <ele>180.8</ele>
        <time>2022-05-07T13:49:24.000Z</time>
      </trkpt>
      <trkpt lat="45.07137" lon="5.05524">
        <ele>181.1</ele>
        <time>2022-05-07T13:49:25.000Z</time>
      </trkpt>
      <trkpt lat="45.0714" lon="5.05527">
        <ele>181.3</ele>
        <time>2022-05-07T13:49:26.000Z</time>
      </trkpt>
      <trkpt lat="45.07143" lon="5.05531">
        <ele>181.4</ele>
        <time>2022-05-07T13:49:27.000Z</time>
      </trkpt>
      <trkpt lat="45.07146" lon="5.05535">
        <ele>181.8</ele>
        <time>2022-05-07T13:49:28.000Z</time>
      </trkpt>
      <trkpt lat="45.0715" lon="5.05538">
        <ele>182.2</ele>
        <time>2022-05-07T13:49:29.000Z</time>
      </trkpt>
      <trkpt lat="45.07153" lon="5.05542">
        <ele>182.5</ele>
        <time>2022-05-07T13:49:30.000Z</time>
      </trkpt>
      <trkpt lat="45.07156" lon="5.05545">
        <ele>182.9</ele>
        <time>2022-05-07T13:49:31.000Z</time>
      </trkpt>
      <trkpt lat="45.0716" lon="5.05549">
        <ele>183.2</ele>
        <time>2022-05-07T13:49:32.000Z</time>
      </trkpt>
      <trkpt lat="45.07163" lon="5.05552">
        <ele>183.6</ele>
        <time>2022-05-07T13:49:33.000Z</time>
      </trkpt>
      <trkpt lat="45.07166" lon="5.05556">
        <ele>183.8</ele>
        <time>2022-05-07T13:49:34.000Z</time>
      </trkpt>
      <trkpt lat="45.07169" lon="5.0556">
        <ele>183.9</ele>
        <time>2022-05-07T13:49:35.000Z</time>
      </trkpt>
      <trkpt lat="45.07172" lon="5.05564">
        <ele>184</ele>
        <time>2022-05-07T13:49:36.000Z</time>
      </trkpt>
      <trkpt lat="45.07175" lon="5.05569">
        <ele>184</ele>
        <time>2022-05-07T13:49:37.000Z</time>
      </trkpt>
      <trkpt lat="45.07177" lon="5.05573">
        <ele>184</ele>
        <time>2022-05-07T13:49:38.000Z</time>
      </trkpt>
      <trkpt lat="45.07179" lon="5.05578">
        <ele>183.9</ele>
        <time>2022-05-07T13:49:39.000Z</time>
      </trkpt>
      <trkpt lat="45.07181" lon="5.05584">
        <ele>183.5</ele>
        <time>2022-05-07T13:49:40.000Z</time>
      </trkpt>
      <trkpt lat="45.07182" lon="5.0559">
        <ele>183.2</ele>
        <time>2022-05-07T13:49:41.000Z</time>
      </trkpt>
      <trkpt lat="45.07183" lon="5.05596">
        <ele>183</ele>
        <time>2022-05-07T13:49:42.000Z</time>
      </trkpt>
      <trkpt lat="45.07184" lon="5.05602">
        <ele>182.8</ele>
        <time>2022-05-07T13:49:43.000Z</time>
      </trkpt>
      <trkpt lat="45.07185" lon="5.05607">
        <ele>182.6</ele>
        <time>2022-05-07T13:49:44.000Z</time>
      </trkpt>
      <trkpt lat="45.07186" lon="5.05614">
        <ele>182.4</ele>
        <time>2022-05-07T13:49:45.000Z</time>
      </trkpt>
      <trkpt lat="45.07187" lon="5.0562">
        <ele>182.3</ele>
        <time>2022-05-07T13:49:46.000Z</time>
      </trkpt>
      <trkpt lat="45.07187" lon="5.05625">
        <ele>182.1</ele>
        <time>2022-05-07T13:49:47.000Z</time>
      </trkpt>
      <trkpt lat="45.07188" lon="5.05631">
        <ele>182.1</ele>
        <time>2022-05-07T13:49:48.000Z</time>
      </trkpt>
      <trkpt lat="45.07189" lon="5.05635">
        <ele>182.2</ele>
        <time>2022-05-07T13:49:49.000Z</time>
      </trkpt>
      <trkpt lat="45.0719" lon="5.0564">
        <ele>182.1</ele>
        <time>2022-05-07T13:49:50.000Z</time>
      </trkpt>
      <trkpt lat="45.07191" lon="5.05644">
        <ele>182.1</ele>
        <time>2022-05-07T13:49:51.000Z</time>
      </trkpt>
      <trkpt lat="45.07192" lon="5.05647">
        <ele>182</ele>
        <time>2022-05-07T13:49:52.000Z</time>
      </trkpt>
      <trkpt lat="45.07194" lon="5.05652">
        <ele>182</ele>
        <time>2022-05-07T13:49:53.000Z</time>
      </trkpt>
      <trkpt lat="45.07196" lon="5.05655">
        <ele>182</ele>
        <time>2022-05-07T13:49:54.000Z</time>
      </trkpt>
      <trkpt lat="45.07197" lon="5.05659">
        <ele>181.8</ele>
        <time>2022-05-07T13:49:55.000Z</time>
      </trkpt>
      <trkpt lat="45.07198" lon="5.05663">
        <ele>181.6</ele>
        <time>2022-05-07T13:49:56.000Z</time>
      </trkpt>
      <trkpt lat="45.07199" lon="5.05668">
        <ele>181.5</ele>
        <time>2022-05-07T13:49:57.000Z</time>
      </trkpt>
      <trkpt lat="45.07201" lon="5.05672">
        <ele>181.5</ele>
        <time>2022-05-07T13:49:58.000Z</time>
      </trkpt>
      <trkpt lat="45.07202" lon="5.05678">
        <ele>181.5</ele>
        <time>2022-05-07T13:49:59.000Z</time>
      </trkpt>
      <trkpt lat="45.07204" lon="5.05683">
        <ele>181.6</ele>
        <time>2022-05-07T13:50:00.000Z</time>
      </trkpt>
      <trkpt lat="45.07206" lon="5.05688">
        <ele>181.8</ele>
        <time>2022-05-07T13:50:01.000Z</time>
      </trkpt>
      <trkpt lat="45.07207" lon="5.05694">
        <ele>181.8</ele>
        <time>2022-05-07T13:50:02.000Z</time>
      </trkpt>
      <trkpt lat="45.07208" lon="5.057">
        <ele>181.8</ele>
        <time>2022-05-07T13:50:03.000Z</time>
      </trkpt>
      <trkpt lat="45.07209" lon="5.05707">
        <ele>181.8</ele>
        <time>2022-05-07T13:50:04.000Z</time>
      </trkpt>
      <trkpt lat="45.07209" lon="5.05714">
        <ele>181.8</ele>
        <time>2022-05-07T13:50:05.000Z</time>
      </trkpt>
      <trkpt lat="45.07209" lon="5.0572">
        <ele>181.7</ele>
        <time>2022-05-07T13:50:06.000Z</time>
      </trkpt>
      <trkpt lat="45.0721" lon="5.05725">
        <ele>181.7</ele>
        <time>2022-05-07T13:50:07.000Z</time>
      </trkpt>
      <trkpt lat="45.0721" lon="5.05731">
        <ele>181.6</ele>
        <time>2022-05-07T13:50:08.000Z</time>
      </trkpt>
      <trkpt lat="45.0721" lon="5.05736">
        <ele>181.5</ele>
        <time>2022-05-07T13:50:09.000Z</time>
      </trkpt>
      <trkpt lat="45.0721" lon="5.05741">
        <ele>181.3</ele>
        <time>2022-05-07T13:50:10.000Z</time>
      </trkpt>
      <trkpt lat="45.0721" lon="5.05745">
        <ele>181.3</ele>
        <time>2022-05-07T13:50:11.000Z</time>
      </trkpt>
      <trkpt lat="45.0721" lon="5.0575">
        <ele>181.3</ele>
        <time>2022-05-07T13:50:12.000Z</time>
      </trkpt>
      <trkpt lat="45.07211" lon="5.05754">
        <ele>181.4</ele>
        <time>2022-05-07T13:50:13.000Z</time>
      </trkpt>
      <trkpt lat="45.07211" lon="5.05758">
        <ele>181.5</ele>
        <time>2022-05-07T13:50:14.000Z</time>
      </trkpt>
      <trkpt lat="45.07211" lon="5.05762">
        <ele>181.6</ele>
        <time>2022-05-07T13:50:15.000Z</time>
      </trkpt>
      <trkpt lat="45.07211" lon="5.05765">
        <ele>181.6</ele>
        <time>2022-05-07T13:50:16.000Z</time>
      </trkpt>
      <trkpt lat="45.07211" lon="5.05769">
        <ele>181.7</ele>
        <time>2022-05-07T13:50:17.000Z</time>
      </trkpt>
      <trkpt lat="45.07211" lon="5.05774">
        <ele>181.7</ele>
        <time>2022-05-07T13:50:18.000Z</time>
      </trkpt>
      <trkpt lat="45.07211" lon="5.05778">
        <ele>181.8</ele>
        <time>2022-05-07T13:50:19.000Z</time>
      </trkpt>
      <trkpt lat="45.07211" lon="5.05782">
        <ele>181.7</ele>
        <time>2022-05-07T13:50:20.000Z</time>
      </trkpt>
      <trkpt lat="45.07211" lon="5.05787">
        <ele>181.6</ele>
        <time>2022-05-07T13:50:21.000Z</time>
      </trkpt>
      <trkpt lat="45.07212" lon="5.05791">
        <ele>181.5</ele>
        <time>2022-05-07T13:50:22.000Z</time>
      </trkpt>
      <trkpt lat="45.07212" lon="5.05796">
        <ele>181.5</ele>
        <time>2022-05-07T13:50:23.000Z</time>
      </trkpt>
      <trkpt lat="45.07213" lon="5.05801">
        <ele>181.4</ele>
        <time>2022-05-07T13:50:24.000Z</time>
      </trkpt>
      <trkpt lat="45.07213" lon="5.05806">
        <ele>181.3</ele>
        <time>2022-05-07T13:50:25.000Z</time>
      </trkpt>
      <trkpt lat="45.07214" lon="5.0581">
        <ele>181.4</ele>
        <time>2022-05-07T13:50:26.000Z</time>
      </trkpt>
      <trkpt lat="45.07214" lon="5.05814">
        <ele>181.5</ele>
        <time>2022-05-07T13:50:27.000Z</time>
      </trkpt>
      <trkpt lat="45.07214" lon="5.05818">
        <ele>181.6</ele>
        <time>2022-05-07T13:50:28.000Z</time>
      </trkpt>
      <trkpt lat="45.07215" lon="5.05822">
        <ele>181.6</ele>
        <time>2022-05-07T13:50:29.000Z</time>
      </trkpt>
      <trkpt lat="45.07216" lon="5.05826">
        <ele>181.7</ele>
        <time>2022-05-07T13:50:30.000Z</time>
      </trkpt>
      <trkpt lat="45.07216" lon="5.0583">
        <ele>181.7</ele>
        <time>2022-05-07T13:50:31.000Z</time>
      </trkpt>
      <trkpt lat="45.07217" lon="5.05835">
        <ele>181.8</ele>
        <time>2022-05-07T13:50:32.000Z</time>
      </trkpt>
      <trkpt lat="45.07217" lon="5.0584">
        <ele>181.8</ele>
        <time>2022-05-07T13:50:33.000Z</time>
      </trkpt>
      <trkpt lat="45.07218" lon="5.05843">
        <ele>181.8</ele>
        <time>2022-05-07T13:50:34.000Z</time>
      </trkpt>
      <trkpt lat="45.07218" lon="5.05846">
        <ele>181.9</ele>
        <time>2022-05-07T13:50:35.000Z</time>
      </trkpt>
      <trkpt lat="45.07219" lon="5.0585">
        <ele>181.9</ele>
        <time>2022-05-07T13:50:36.000Z</time>
      </trkpt>
      <trkpt lat="45.0722" lon="5.05853">
        <ele>181.9</ele>
        <time>2022-05-07T13:50:37.000Z</time>
      </trkpt>
      <trkpt lat="45.0722" lon="5.05856">
        <ele>181.9</ele>
        <time>2022-05-07T13:50:38.000Z</time>
      </trkpt>
      <trkpt lat="45.07221" lon="5.05859">
        <ele>182</ele>
        <time>2022-05-07T13:50:39.000Z</time>
      </trkpt>
      <trkpt lat="45.07222" lon="5.05861">
        <ele>182</ele>
        <time>2022-05-07T13:50:40.000Z</time>
      </trkpt>
      <trkpt lat="45.07222" lon="5.05865">
        <ele>182.1</ele>
        <time>2022-05-07T13:50:41.000Z</time>
      </trkpt>
      <trkpt lat="45.07222" lon="5.05869">
        <ele>182.2</ele>
        <time>2022-05-07T13:50:42.000Z</time>
      </trkpt>
      <trkpt lat="45.07222" lon="5.05873">
        <ele>182.4</ele>
        <time>2022-05-07T13:50:43.000Z</time>
      </trkpt>
      <trkpt lat="45.07223" lon="5.05878">
        <ele>182.6</ele>
        <time>2022-05-07T13:50:44.000Z</time>
      </trkpt>
      <trkpt lat="45.07223" lon="5.05882">
        <ele>182.8</ele>
        <time>2022-05-07T13:50:45.000Z</time>
      </trkpt>
      <trkpt lat="45.07223" lon="5.05887">
        <ele>183</ele>
        <time>2022-05-07T13:50:46.000Z</time>
      </trkpt>
      <trkpt lat="45.07224" lon="5.05892">
        <ele>183</ele>
        <time>2022-05-07T13:50:47.000Z</time>
      </trkpt>
      <trkpt lat="45.07225" lon="5.05897">
        <ele>182.8</ele>
        <time>2022-05-07T13:50:48.000Z</time>
      </trkpt>
      <trkpt lat="45.07226" lon="5.05901">
        <ele>182.7</ele>
        <time>2022-05-07T13:50:49.000Z</time>
      </trkpt>
      <trkpt lat="45.07227" lon="5.05906">
        <ele>182.5</ele>
        <time>2022-05-07T13:50:50.000Z</time>
      </trkpt>
      <trkpt lat="45.07228" lon="5.05912">
        <ele>182.4</ele>
        <time>2022-05-07T13:50:51.000Z</time>
      </trkpt>
      <trkpt lat="45.07229" lon="5.05917">
        <ele>182.2</ele>
        <time>2022-05-07T13:50:52.000Z</time>
      </trkpt>
      <trkpt lat="45.0723" lon="5.05922">
        <ele>182.3</ele>
        <time>2022-05-07T13:50:53.000Z</time>
      </trkpt>
      <trkpt lat="45.07231" lon="5.05928">
        <ele>182.3</ele>
        <time>2022-05-07T13:50:54.000Z</time>
      </trkpt>
      <trkpt lat="45.07232" lon="5.05932">
        <ele>182.3</ele>
        <time>2022-05-07T13:50:55.000Z</time>
      </trkpt>
      <trkpt lat="45.07232" lon="5.05937">
        <ele>182.3</ele>
        <time>2022-05-07T13:50:56.000Z</time>
      </trkpt>
      <trkpt lat="45.07231" lon="5.05942">
        <ele>182.3</ele>
        <time>2022-05-07T13:50:57.000Z</time>
      </trkpt>
      <trkpt lat="45.0723" lon="5.05946">
        <ele>182.2</ele>
        <time>2022-05-07T13:50:58.000Z</time>
      </trkpt>
      <trkpt lat="45.07229" lon="5.05951">
        <ele>182.1</ele>
        <time>2022-05-07T13:50:59.000Z</time>
      </trkpt>
      <trkpt lat="45.07229" lon="5.05953">
        <ele>182</ele>
        <time>2022-05-07T13:51:00.000Z</time>
      </trkpt>
      <trkpt lat="45.07233" lon="5.05966">
        <ele>181.9</ele>
        <time>2022-05-07T14:00:16.000Z</time>
      </trkpt>
      <trkpt lat="45.07237" lon="5.05961">
        <ele>182.2</ele>
        <time>2022-05-07T14:04:24.000Z</time>
      </trkpt>
      <trkpt lat="45.07239" lon="5.05964">
        <ele>182.3</ele>
        <time>2022-05-07T14:04:27.000Z</time>
      </trkpt>
      <trkpt lat="45.0724" lon="5.05966">
        <ele>182.3</ele>
        <time>2022-05-07T14:04:28.000Z</time>
      </trkpt>
      <trkpt lat="45.07241" lon="5.05968">
        <ele>182.4</ele>
        <time>2022-05-07T14:04:29.000Z</time>
      </trkpt>
      <trkpt lat="45.07242" lon="5.05971">
        <ele>182.4</ele>
        <time>2022-05-07T14:04:30.000Z</time>
      </trkpt>
      <trkpt lat="45.07242" lon="5.05975">
        <ele>182.4</ele>
        <time>2022-05-07T14:04:31.000Z</time>
      </trkpt>
      <trkpt lat="45.07243" lon="5.05978">
        <ele>182.3</ele>
        <time>2022-05-07T14:04:32.000Z</time>
      </trkpt>
      <trkpt lat="45.07244" lon="5.05981">
        <ele>182.2</ele>
        <time>2022-05-07T14:04:33.000Z</time>
      </trkpt>
      <trkpt lat="45.07244" lon="5.05984">
        <ele>182.1</ele>
        <time>2022-05-07T14:04:34.000Z</time>
      </trkpt>
      <trkpt lat="45.07245" lon="5.05988">
        <ele>182.1</ele>
        <time>2022-05-07T14:04:35.000Z</time>
      </trkpt>
      <trkpt lat="45.07247" lon="5.05991">
        <ele>182.1</ele>
        <time>2022-05-07T14:04:36.000Z</time>
      </trkpt>
      <trkpt lat="45.07248" lon="5.05995">
        <ele>182.1</ele>
        <time>2022-05-07T14:04:37.000Z</time>
      </trkpt>
      <trkpt lat="45.07249" lon="5.05999">
        <ele>182</ele>
        <time>2022-05-07T14:04:38.000Z</time>
      </trkpt>
      <trkpt lat="45.0725" lon="5.06003">
        <ele>181.9</ele>
        <time>2022-05-07T14:04:39.000Z</time>
      </trkpt>
      <trkpt lat="45.07251" lon="5.06006">
        <ele>181.7</ele>
        <time>2022-05-07T14:04:40.000Z</time>
      </trkpt>
      <trkpt lat="45.07253" lon="5.06009">
        <ele>181.5</ele>
        <time>2022-05-07T14:04:41.000Z</time>
      </trkpt>
      <trkpt lat="45.07254" lon="5.06012">
        <ele>181.4</ele>
        <time>2022-05-07T14:04:42.000Z</time>
      </trkpt>
      <trkpt lat="45.07255" lon="5.06015">
        <ele>181.2</ele>
        <time>2022-05-07T14:04:43.000Z</time>
      </trkpt>
      <trkpt lat="45.07256" lon="5.06019">
        <ele>181</ele>
        <time>2022-05-07T14:04:44.000Z</time>
      </trkpt>
      <trkpt lat="45.07257" lon="5.06023">
        <ele>180.7</ele>
        <time>2022-05-07T14:04:45.000Z</time>
      </trkpt>
      <trkpt lat="45.07258" lon="5.06027">
        <ele>180.5</ele>
        <time>2022-05-07T14:04:46.000Z</time>
      </trkpt>
      <trkpt lat="45.07259" lon="5.06031">
        <ele>180.3</ele>
        <time>2022-05-07T14:04:47.000Z</time>
      </trkpt>
      <trkpt lat="45.07261" lon="5.06035">
        <ele>180.3</ele>
        <time>2022-05-07T14:04:48.000Z</time>
      </trkpt>
      <trkpt lat="45.07262" lon="5.0604">
        <ele>180.3</ele>
        <time>2022-05-07T14:04:49.000Z</time>
      </trkpt>
      <trkpt lat="45.07263" lon="5.06045">
        <ele>180.3</ele>
        <time>2022-05-07T14:04:50.000Z</time>
      </trkpt>
      <trkpt lat="45.07265" lon="5.0605">
        <ele>180.4</ele>
        <time>2022-05-07T14:04:51.000Z</time>
      </trkpt>
      <trkpt lat="45.07266" lon="5.06056">
        <ele>180.6</ele>
        <time>2022-05-07T14:04:52.000Z</time>
      </trkpt>
      <trkpt lat="45.07268" lon="5.06061">
        <ele>180.6</ele>
        <time>2022-05-07T14:04:53.000Z</time>
      </trkpt>
      <trkpt lat="45.07269" lon="5.06067">
        <ele>180.6</ele>
        <time>2022-05-07T14:04:54.000Z</time>
      </trkpt>
      <trkpt lat="45.07271" lon="5.06073">
        <ele>180.6</ele>
        <time>2022-05-07T14:04:55.000Z</time>
      </trkpt>
      <trkpt lat="45.07273" lon="5.06079">
        <ele>180.7</ele>
        <time>2022-05-07T14:04:56.000Z</time>
      </trkpt>
      <trkpt lat="45.07275" lon="5.06084">
        <ele>180.7</ele>
        <time>2022-05-07T14:04:57.000Z</time>
      </trkpt>
      <trkpt lat="45.07276" lon="5.06089">
        <ele>180.7</ele>
        <time>2022-05-07T14:04:58.000Z</time>
      </trkpt>
      <trkpt lat="45.07278" lon="5.06095">
        <ele>180.6</ele>
        <time>2022-05-07T14:04:59.000Z</time>
      </trkpt>
      <trkpt lat="45.07279" lon="5.061">
        <ele>180.3</ele>
        <time>2022-05-07T14:05:00.000Z</time>
      </trkpt>
      <trkpt lat="45.07281" lon="5.06106">
        <ele>180.1</ele>
        <time>2022-05-07T14:05:01.000Z</time>
      </trkpt>
      <trkpt lat="45.07283" lon="5.06111">
        <ele>180</ele>
        <time>2022-05-07T14:05:02.000Z</time>
      </trkpt>
      <trkpt lat="45.07284" lon="5.06117">
        <ele>179.8</ele>
        <time>2022-05-07T14:05:03.000Z</time>
      </trkpt>
      <trkpt lat="45.07286" lon="5.06123">
        <ele>179.7</ele>
        <time>2022-05-07T14:05:04.000Z</time>
      </trkpt>
      <trkpt lat="45.07288" lon="5.06128">
        <ele>179.6</ele>
        <time>2022-05-07T14:05:05.000Z</time>
      </trkpt>
      <trkpt lat="45.07289" lon="5.06134">
        <ele>179.5</ele>
        <time>2022-05-07T14:05:06.000Z</time>
      </trkpt>
      <trkpt lat="45.07291" lon="5.06141">
        <ele>179.5</ele>
        <time>2022-05-07T14:05:07.000Z</time>
      </trkpt>
      <trkpt lat="45.07292" lon="5.06147">
        <ele>179.5</ele>
        <time>2022-05-07T14:05:08.000Z</time>
      </trkpt>
      <trkpt lat="45.07294" lon="5.06153">
        <ele>179.6</ele>
        <time>2022-05-07T14:05:09.000Z</time>
      </trkpt>
      <trkpt lat="45.07296" lon="5.0616">
        <ele>179.6</ele>
        <time>2022-05-07T14:05:10.000Z</time>
      </trkpt>
      <trkpt lat="45.07297" lon="5.06166">
        <ele>179.7</ele>
        <time>2022-05-07T14:05:11.000Z</time>
      </trkpt>
      <trkpt lat="45.073" lon="5.06173">
        <ele>179.8</ele>
        <time>2022-05-07T14:05:12.000Z</time>
      </trkpt>
      <trkpt lat="45.07301" lon="5.0618">
        <ele>179.8</ele>
        <time>2022-05-07T14:05:13.000Z</time>
      </trkpt>
      <trkpt lat="45.07303" lon="5.06187">
        <ele>179.9</ele>
        <time>2022-05-07T14:05:14.000Z</time>
      </trkpt>
      <trkpt lat="45.07305" lon="5.06194">
        <ele>180</ele>
        <time>2022-05-07T14:05:15.000Z</time>
      </trkpt>
      <trkpt lat="45.07307" lon="5.06201">
        <ele>180</ele>
        <time>2022-05-07T14:05:16.000Z</time>
      </trkpt>
      <trkpt lat="45.07309" lon="5.06208">
        <ele>180</ele>
        <time>2022-05-07T14:05:17.000Z</time>
      </trkpt>
      <trkpt lat="45.0731" lon="5.06215">
        <ele>179.9</ele>
        <time>2022-05-07T14:05:18.000Z</time>
      </trkpt>
      <trkpt lat="45.07312" lon="5.06221">
        <ele>179.8</ele>
        <time>2022-05-07T14:05:19.000Z</time>
      </trkpt>
      <trkpt lat="45.07314" lon="5.06228">
        <ele>179.7</ele>
        <time>2022-05-07T14:05:20.000Z</time>
      </trkpt>
      <trkpt lat="45.07316" lon="5.06235">
        <ele>179.6</ele>
        <time>2022-05-07T14:05:21.000Z</time>
      </trkpt>
      <trkpt lat="45.07318" lon="5.06242">
        <ele>179.6</ele>
        <time>2022-05-07T14:05:22.000Z</time>
      </trkpt>
      <trkpt lat="45.0732" lon="5.06248">
        <ele>179.5</ele>
        <time>2022-05-07T14:05:23.000Z</time>
      </trkpt>
    </trkseg>
  </trk>
</gpx>